<?xml version="1.0" encoding="UTF-8" standalone="no" ?>
<gpx xmlns="http://www.topografix.com/GPX/1/1" xmlns:xsi="http://www.w3.org/2001/XMLSchema-instance" xsi:schemaLocation="http://www.topografix.com/GPX/1/1 http://www.topografix.com/GPX/1/1/gpx.xsd" version="1.1" creator="VisuGPX - https://www.visugpx.com">
  <metadata>
    <name>Tournefeuille Gravel</name>
  </metadata>
  <trk>
    <name><![CDATA[Tournefeuille Gravel_1]]></name>
    <trkseg>
      <trkpt lat="43.58676" lon="1.3222">
        <ele>184</ele>
        <time>2025-10-18T06:49:32Z</time>
      </trkpt>
      <trkpt lat="43.58676" lon="1.3222">
        <ele>184</ele>
        <time>2025-10-18T06:49:33Z</time>
      </trkpt>
      <trkpt lat="43.58676" lon="1.32215">
        <ele>184</ele>
        <time>2025-10-18T06:50:00Z</time>
      </trkpt>
      <trkpt lat="43.58676" lon="1.32212">
        <ele>184</ele>
        <time>2025-10-18T06:50:01Z</time>
      </trkpt>
      <trkpt lat="43.58677" lon="1.32209">
        <ele>184</ele>
        <time>2025-10-18T06:50:02Z</time>
      </trkpt>
      <trkpt lat="43.58677" lon="1.32206">
        <ele>184</ele>
        <time>2025-10-18T06:50:03Z</time>
      </trkpt>
      <trkpt lat="43.58677" lon="1.32202">
        <ele>184.2</ele>
        <time>2025-10-18T06:50:04Z</time>
      </trkpt>
      <trkpt lat="43.58678" lon="1.32197">
        <ele>184.2</ele>
        <time>2025-10-18T06:50:05Z</time>
      </trkpt>
      <trkpt lat="43.58678" lon="1.32193">
        <ele>184.2</ele>
        <time>2025-10-18T06:50:06Z</time>
      </trkpt>
      <trkpt lat="43.58678" lon="1.32188">
        <ele>184.4</ele>
        <time>2025-10-18T06:50:07Z</time>
      </trkpt>
      <trkpt lat="43.58679" lon="1.32183">
        <ele>184.4</ele>
        <time>2025-10-18T06:50:08Z</time>
      </trkpt>
      <trkpt lat="43.5868" lon="1.32178">
        <ele>184.4</ele>
        <time>2025-10-18T06:50:09Z</time>
      </trkpt>
      <trkpt lat="43.58681" lon="1.32173">
        <ele>184.4</ele>
        <time>2025-10-18T06:50:10Z</time>
      </trkpt>
      <trkpt lat="43.58681" lon="1.32168">
        <ele>184.6</ele>
        <time>2025-10-18T06:50:11Z</time>
      </trkpt>
      <trkpt lat="43.58682" lon="1.32162">
        <ele>184.6</ele>
        <time>2025-10-18T06:50:12Z</time>
      </trkpt>
      <trkpt lat="43.58682" lon="1.32158">
        <ele>184.8</ele>
        <time>2025-10-18T06:50:13Z</time>
      </trkpt>
      <trkpt lat="43.58682" lon="1.32153">
        <ele>184.8</ele>
        <time>2025-10-18T06:50:14Z</time>
      </trkpt>
      <trkpt lat="43.58683" lon="1.32147">
        <ele>184.8</ele>
        <time>2025-10-18T06:50:15Z</time>
      </trkpt>
      <trkpt lat="43.58683" lon="1.32141">
        <ele>184.8</ele>
        <time>2025-10-18T06:50:16Z</time>
      </trkpt>
      <trkpt lat="43.58684" lon="1.32135">
        <ele>184.8</ele>
        <time>2025-10-18T06:50:17Z</time>
      </trkpt>
      <trkpt lat="43.58684" lon="1.32128">
        <ele>184.8</ele>
        <time>2025-10-18T06:50:18Z</time>
      </trkpt>
      <trkpt lat="43.58685" lon="1.32122">
        <ele>184.8</ele>
        <time>2025-10-18T06:50:19Z</time>
      </trkpt>
      <trkpt lat="43.58685" lon="1.32115">
        <ele>184.8</ele>
        <time>2025-10-18T06:50:20Z</time>
      </trkpt>
      <trkpt lat="43.58686" lon="1.32108">
        <ele>184.8</ele>
        <time>2025-10-18T06:50:21Z</time>
      </trkpt>
      <trkpt lat="43.58686" lon="1.32102">
        <ele>184.8</ele>
        <time>2025-10-18T06:50:22Z</time>
      </trkpt>
      <trkpt lat="43.58686" lon="1.32095">
        <ele>184.6</ele>
        <time>2025-10-18T06:50:23Z</time>
      </trkpt>
      <trkpt lat="43.58687" lon="1.32088">
        <ele>184.6</ele>
        <time>2025-10-18T06:50:24Z</time>
      </trkpt>
      <trkpt lat="43.58687" lon="1.32081">
        <ele>184.6</ele>
        <time>2025-10-18T06:50:25Z</time>
      </trkpt>
      <trkpt lat="43.58687" lon="1.32074">
        <ele>184.4</ele>
        <time>2025-10-18T06:50:26Z</time>
      </trkpt>
      <trkpt lat="43.58687" lon="1.32067">
        <ele>184.4</ele>
        <time>2025-10-18T06:50:27Z</time>
      </trkpt>
      <trkpt lat="43.58688" lon="1.32059">
        <ele>184.2</ele>
        <time>2025-10-18T06:50:28Z</time>
      </trkpt>
      <trkpt lat="43.58688" lon="1.32053">
        <ele>184.2</ele>
        <time>2025-10-18T06:50:29Z</time>
      </trkpt>
      <trkpt lat="43.58688" lon="1.32045">
        <ele>184</ele>
        <time>2025-10-18T06:50:30Z</time>
      </trkpt>
      <trkpt lat="43.58687" lon="1.32038">
        <ele>184</ele>
        <time>2025-10-18T06:50:31Z</time>
      </trkpt>
      <trkpt lat="43.58687" lon="1.3203">
        <ele>184</ele>
        <time>2025-10-18T06:50:32Z</time>
      </trkpt>
      <trkpt lat="43.58686" lon="1.32024">
        <ele>184</ele>
        <time>2025-10-18T06:50:33Z</time>
      </trkpt>
      <trkpt lat="43.58686" lon="1.32016">
        <ele>184</ele>
        <time>2025-10-18T06:50:34Z</time>
      </trkpt>
      <trkpt lat="43.58686" lon="1.32009">
        <ele>184</ele>
        <time>2025-10-18T06:50:35Z</time>
      </trkpt>
      <trkpt lat="43.58685" lon="1.32002">
        <ele>184</ele>
        <time>2025-10-18T06:50:36Z</time>
      </trkpt>
      <trkpt lat="43.58684" lon="1.31996">
        <ele>184</ele>
        <time>2025-10-18T06:50:37Z</time>
      </trkpt>
      <trkpt lat="43.58683" lon="1.31989">
        <ele>184.2</ele>
        <time>2025-10-18T06:50:38Z</time>
      </trkpt>
      <trkpt lat="43.58681" lon="1.31984">
        <ele>184.4</ele>
        <time>2025-10-18T06:50:39Z</time>
      </trkpt>
      <trkpt lat="43.58678" lon="1.3198">
        <ele>184.4</ele>
        <time>2025-10-18T06:50:40Z</time>
      </trkpt>
      <trkpt lat="43.58675" lon="1.31977">
        <ele>184.8</ele>
        <time>2025-10-18T06:50:41Z</time>
      </trkpt>
      <trkpt lat="43.58673" lon="1.31972">
        <ele>185</ele>
        <time>2025-10-18T06:50:42Z</time>
      </trkpt>
      <trkpt lat="43.58671" lon="1.31968">
        <ele>185.2</ele>
        <time>2025-10-18T06:50:43Z</time>
      </trkpt>
      <trkpt lat="43.58668" lon="1.31965">
        <ele>185.4</ele>
        <time>2025-10-18T06:50:44Z</time>
      </trkpt>
      <trkpt lat="43.58666" lon="1.31962">
        <ele>185.4</ele>
        <time>2025-10-18T06:50:45Z</time>
      </trkpt>
      <trkpt lat="43.58664" lon="1.31957">
        <ele>185.6</ele>
        <time>2025-10-18T06:50:46Z</time>
      </trkpt>
      <trkpt lat="43.58665" lon="1.31952">
        <ele>185.6</ele>
        <time>2025-10-18T06:50:47Z</time>
      </trkpt>
      <trkpt lat="43.58667" lon="1.31948">
        <ele>185.8</ele>
        <time>2025-10-18T06:50:48Z</time>
      </trkpt>
      <trkpt lat="43.58669" lon="1.31945">
        <ele>185.8</ele>
        <time>2025-10-18T06:50:49Z</time>
      </trkpt>
      <trkpt lat="43.58671" lon="1.31943">
        <ele>186</ele>
        <time>2025-10-18T06:50:50Z</time>
      </trkpt>
      <trkpt lat="43.58673" lon="1.31941">
        <ele>186</ele>
        <time>2025-10-18T06:50:51Z</time>
      </trkpt>
      <trkpt lat="43.58676" lon="1.3194">
        <ele>186.2</ele>
        <time>2025-10-18T06:50:52Z</time>
      </trkpt>
      <trkpt lat="43.58678" lon="1.31939">
        <ele>186.2</ele>
        <time>2025-10-18T06:50:53Z</time>
      </trkpt>
      <trkpt lat="43.58679" lon="1.31935">
        <ele>186.2</ele>
        <time>2025-10-18T06:50:54Z</time>
      </trkpt>
      <trkpt lat="43.5868" lon="1.3193">
        <ele>186.2</ele>
        <time>2025-10-18T06:50:55Z</time>
      </trkpt>
      <trkpt lat="43.58679" lon="1.31925">
        <ele>186.2</ele>
        <time>2025-10-18T06:50:56Z</time>
      </trkpt>
      <trkpt lat="43.58678" lon="1.3192">
        <ele>186.2</ele>
        <time>2025-10-18T06:50:57Z</time>
      </trkpt>
      <trkpt lat="43.58677" lon="1.31914">
        <ele>186</ele>
        <time>2025-10-18T06:50:58Z</time>
      </trkpt>
      <trkpt lat="43.58677" lon="1.31908">
        <ele>186</ele>
        <time>2025-10-18T06:50:59Z</time>
      </trkpt>
      <trkpt lat="43.58675" lon="1.31902">
        <ele>185.8</ele>
        <time>2025-10-18T06:51:00Z</time>
      </trkpt>
      <trkpt lat="43.58674" lon="1.31897">
        <ele>185.8</ele>
        <time>2025-10-18T06:51:01Z</time>
      </trkpt>
      <trkpt lat="43.58673" lon="1.31891">
        <ele>185.8</ele>
        <time>2025-10-18T06:51:02Z</time>
      </trkpt>
      <trkpt lat="43.58673" lon="1.31885">
        <ele>185.8</ele>
        <time>2025-10-18T06:51:03Z</time>
      </trkpt>
      <trkpt lat="43.58672" lon="1.3188">
        <ele>186</ele>
        <time>2025-10-18T06:51:04Z</time>
      </trkpt>
      <trkpt lat="43.58672" lon="1.31874">
        <ele>186</ele>
        <time>2025-10-18T06:51:05Z</time>
      </trkpt>
      <trkpt lat="43.58672" lon="1.31868">
        <ele>186.2</ele>
        <time>2025-10-18T06:51:06Z</time>
      </trkpt>
      <trkpt lat="43.58673" lon="1.31863">
        <ele>186.2</ele>
        <time>2025-10-18T06:51:07Z</time>
      </trkpt>
      <trkpt lat="43.58673" lon="1.31857">
        <ele>186.4</ele>
        <time>2025-10-18T06:51:08Z</time>
      </trkpt>
      <trkpt lat="43.58675" lon="1.31852">
        <ele>186.4</ele>
        <time>2025-10-18T06:51:09Z</time>
      </trkpt>
      <trkpt lat="43.58677" lon="1.31846">
        <ele>186.6</ele>
        <time>2025-10-18T06:51:10Z</time>
      </trkpt>
      <trkpt lat="43.58679" lon="1.31842">
        <ele>186.6</ele>
        <time>2025-10-18T06:51:11Z</time>
      </trkpt>
      <trkpt lat="43.58681" lon="1.31838">
        <ele>186.8</ele>
        <time>2025-10-18T06:51:12Z</time>
      </trkpt>
      <trkpt lat="43.58683" lon="1.31833">
        <ele>186.8</ele>
        <time>2025-10-18T06:51:13Z</time>
      </trkpt>
      <trkpt lat="43.58685" lon="1.31828">
        <ele>187</ele>
        <time>2025-10-18T06:51:14Z</time>
      </trkpt>
      <trkpt lat="43.58688" lon="1.31823">
        <ele>187</ele>
        <time>2025-10-18T06:51:15Z</time>
      </trkpt>
      <trkpt lat="43.5869" lon="1.31818">
        <ele>187</ele>
        <time>2025-10-18T06:51:16Z</time>
      </trkpt>
      <trkpt lat="43.58693" lon="1.31813">
        <ele>187.2</ele>
        <time>2025-10-18T06:51:17Z</time>
      </trkpt>
      <trkpt lat="43.58695" lon="1.31809">
        <ele>187.2</ele>
        <time>2025-10-18T06:51:18Z</time>
      </trkpt>
      <trkpt lat="43.58696" lon="1.31805">
        <ele>187.2</ele>
        <time>2025-10-18T06:51:19Z</time>
      </trkpt>
      <trkpt lat="43.58697" lon="1.31801">
        <ele>187.2</ele>
        <time>2025-10-18T06:51:20Z</time>
      </trkpt>
      <trkpt lat="43.58699" lon="1.31797">
        <ele>187.4</ele>
        <time>2025-10-18T06:51:21Z</time>
      </trkpt>
      <trkpt lat="43.58701" lon="1.31793">
        <ele>187.4</ele>
        <time>2025-10-18T06:51:22Z</time>
      </trkpt>
      <trkpt lat="43.58703" lon="1.31788">
        <ele>187.4</ele>
        <time>2025-10-18T06:51:23Z</time>
      </trkpt>
      <trkpt lat="43.58706" lon="1.31784">
        <ele>187.4</ele>
        <time>2025-10-18T06:51:24Z</time>
      </trkpt>
      <trkpt lat="43.58708" lon="1.31779">
        <ele>187.4</ele>
        <time>2025-10-18T06:51:25Z</time>
      </trkpt>
      <trkpt lat="43.5871" lon="1.31775">
        <ele>187.4</ele>
        <time>2025-10-18T06:51:26Z</time>
      </trkpt>
      <trkpt lat="43.58713" lon="1.3177">
        <ele>187.4</ele>
        <time>2025-10-18T06:51:27Z</time>
      </trkpt>
      <trkpt lat="43.58716" lon="1.31765">
        <ele>187.4</ele>
        <time>2025-10-18T06:51:28Z</time>
      </trkpt>
      <trkpt lat="43.58719" lon="1.31761">
        <ele>187.4</ele>
        <time>2025-10-18T06:51:29Z</time>
      </trkpt>
      <trkpt lat="43.58722" lon="1.31757">
        <ele>187.4</ele>
        <time>2025-10-18T06:51:30Z</time>
      </trkpt>
      <trkpt lat="43.58724" lon="1.31752">
        <ele>187.4</ele>
        <time>2025-10-18T06:51:31Z</time>
      </trkpt>
      <trkpt lat="43.58727" lon="1.31747">
        <ele>187.4</ele>
        <time>2025-10-18T06:51:32Z</time>
      </trkpt>
      <trkpt lat="43.5873" lon="1.31742">
        <ele>187.2</ele>
        <time>2025-10-18T06:51:33Z</time>
      </trkpt>
      <trkpt lat="43.58732" lon="1.31737">
        <ele>187.2</ele>
        <time>2025-10-18T06:51:34Z</time>
      </trkpt>
      <trkpt lat="43.58735" lon="1.31732">
        <ele>187.2</ele>
        <time>2025-10-18T06:51:35Z</time>
      </trkpt>
      <trkpt lat="43.58737" lon="1.31728">
        <ele>187.2</ele>
        <time>2025-10-18T06:51:36Z</time>
      </trkpt>
      <trkpt lat="43.5874" lon="1.31723">
        <ele>187.2</ele>
        <time>2025-10-18T06:51:37Z</time>
      </trkpt>
      <trkpt lat="43.58742" lon="1.31718">
        <ele>187</ele>
        <time>2025-10-18T06:51:38Z</time>
      </trkpt>
      <trkpt lat="43.58745" lon="1.31713">
        <ele>187</ele>
        <time>2025-10-18T06:51:39Z</time>
      </trkpt>
      <trkpt lat="43.58748" lon="1.31708">
        <ele>187</ele>
        <time>2025-10-18T06:51:40Z</time>
      </trkpt>
      <trkpt lat="43.5875" lon="1.31704">
        <ele>187</ele>
        <time>2025-10-18T06:51:41Z</time>
      </trkpt>
      <trkpt lat="43.58753" lon="1.31699">
        <ele>187.2</ele>
        <time>2025-10-18T06:51:42Z</time>
      </trkpt>
      <trkpt lat="43.58755" lon="1.31694">
        <ele>187.2</ele>
        <time>2025-10-18T06:51:43Z</time>
      </trkpt>
      <trkpt lat="43.58757" lon="1.3169">
        <ele>187.4</ele>
        <time>2025-10-18T06:51:44Z</time>
      </trkpt>
      <trkpt lat="43.5876" lon="1.31686">
        <ele>187.4</ele>
        <time>2025-10-18T06:51:45Z</time>
      </trkpt>
      <trkpt lat="43.58763" lon="1.31681">
        <ele>187.4</ele>
        <time>2025-10-18T06:51:46Z</time>
      </trkpt>
      <trkpt lat="43.58765" lon="1.31676">
        <ele>187.4</ele>
        <time>2025-10-18T06:51:47Z</time>
      </trkpt>
      <trkpt lat="43.58768" lon="1.31671">
        <ele>187.4</ele>
        <time>2025-10-18T06:51:48Z</time>
      </trkpt>
      <trkpt lat="43.58771" lon="1.31667">
        <ele>187.4</ele>
        <time>2025-10-18T06:51:49Z</time>
      </trkpt>
      <trkpt lat="43.58772" lon="1.31664">
        <ele>187.4</ele>
        <time>2025-10-18T06:51:50Z</time>
      </trkpt>
      <trkpt lat="43.58774" lon="1.31661">
        <ele>187.6</ele>
        <time>2025-10-18T06:51:51Z</time>
      </trkpt>
      <trkpt lat="43.58776" lon="1.3166">
        <ele>187.6</ele>
        <time>2025-10-18T06:51:52Z</time>
      </trkpt>
      <trkpt lat="43.58778" lon="1.31659">
        <ele>187.6</ele>
        <time>2025-10-18T06:51:53Z</time>
      </trkpt>
      <trkpt lat="43.58782" lon="1.31659">
        <ele>187.8</ele>
        <time>2025-10-18T06:51:54Z</time>
      </trkpt>
      <trkpt lat="43.58785" lon="1.31661">
        <ele>187.6</ele>
        <time>2025-10-18T06:51:55Z</time>
      </trkpt>
      <trkpt lat="43.58788" lon="1.31664">
        <ele>187.6</ele>
        <time>2025-10-18T06:51:56Z</time>
      </trkpt>
      <trkpt lat="43.58791" lon="1.31667">
        <ele>187.6</ele>
        <time>2025-10-18T06:51:57Z</time>
      </trkpt>
      <trkpt lat="43.58795" lon="1.31671">
        <ele>187.4</ele>
        <time>2025-10-18T06:51:58Z</time>
      </trkpt>
      <trkpt lat="43.58798" lon="1.31675">
        <ele>187.2</ele>
        <time>2025-10-18T06:51:59Z</time>
      </trkpt>
      <trkpt lat="43.58802" lon="1.3168">
        <ele>187</ele>
        <time>2025-10-18T06:52:00Z</time>
      </trkpt>
      <trkpt lat="43.58805" lon="1.31684">
        <ele>187</ele>
        <time>2025-10-18T06:52:01Z</time>
      </trkpt>
      <trkpt lat="43.58809" lon="1.31689">
        <ele>186.8</ele>
        <time>2025-10-18T06:52:02Z</time>
      </trkpt>
      <trkpt lat="43.58813" lon="1.31693">
        <ele>186.8</ele>
        <time>2025-10-18T06:52:03Z</time>
      </trkpt>
      <trkpt lat="43.58817" lon="1.31698">
        <ele>186.8</ele>
        <time>2025-10-18T06:52:04Z</time>
      </trkpt>
      <trkpt lat="43.58821" lon="1.31703">
        <ele>186.8</ele>
        <time>2025-10-18T06:52:05Z</time>
      </trkpt>
      <trkpt lat="43.58824" lon="1.31708">
        <ele>186.8</ele>
        <time>2025-10-18T06:52:06Z</time>
      </trkpt>
      <trkpt lat="43.58828" lon="1.31712">
        <ele>186.8</ele>
        <time>2025-10-18T06:52:07Z</time>
      </trkpt>
      <trkpt lat="43.58832" lon="1.31717">
        <ele>186.8</ele>
        <time>2025-10-18T06:52:08Z</time>
      </trkpt>
      <trkpt lat="43.58836" lon="1.31721">
        <ele>186.8</ele>
        <time>2025-10-18T06:52:09Z</time>
      </trkpt>
      <trkpt lat="43.5884" lon="1.31725">
        <ele>186.8</ele>
        <time>2025-10-18T06:52:10Z</time>
      </trkpt>
      <trkpt lat="43.58843" lon="1.3173">
        <ele>186.8</ele>
        <time>2025-10-18T06:52:11Z</time>
      </trkpt>
      <trkpt lat="43.58847" lon="1.31734">
        <ele>186.8</ele>
        <time>2025-10-18T06:52:12Z</time>
      </trkpt>
      <trkpt lat="43.58851" lon="1.31738">
        <ele>186.8</ele>
        <time>2025-10-18T06:52:13Z</time>
      </trkpt>
      <trkpt lat="43.58855" lon="1.31741">
        <ele>187</ele>
        <time>2025-10-18T06:52:14Z</time>
      </trkpt>
      <trkpt lat="43.58859" lon="1.31744">
        <ele>187</ele>
        <time>2025-10-18T06:52:15Z</time>
      </trkpt>
      <trkpt lat="43.58864" lon="1.31745">
        <ele>187</ele>
        <time>2025-10-18T06:52:16Z</time>
      </trkpt>
      <trkpt lat="43.58868" lon="1.31747">
        <ele>187</ele>
        <time>2025-10-18T06:52:17Z</time>
      </trkpt>
      <trkpt lat="43.58872" lon="1.31749">
        <ele>187</ele>
        <time>2025-10-18T06:52:18Z</time>
      </trkpt>
      <trkpt lat="43.58876" lon="1.31749">
        <ele>187</ele>
        <time>2025-10-18T06:52:19Z</time>
      </trkpt>
      <trkpt lat="43.5888" lon="1.31748">
        <ele>187.2</ele>
        <time>2025-10-18T06:52:20Z</time>
      </trkpt>
      <trkpt lat="43.58884" lon="1.31747">
        <ele>187.2</ele>
        <time>2025-10-18T06:52:21Z</time>
      </trkpt>
      <trkpt lat="43.58888" lon="1.31745">
        <ele>187.2</ele>
        <time>2025-10-18T06:52:22Z</time>
      </trkpt>
      <trkpt lat="43.58892" lon="1.31743">
        <ele>187.2</ele>
        <time>2025-10-18T06:52:23Z</time>
      </trkpt>
      <trkpt lat="43.58896" lon="1.31741">
        <ele>187.2</ele>
        <time>2025-10-18T06:52:24Z</time>
      </trkpt>
      <trkpt lat="43.58899" lon="1.3174">
        <ele>187.2</ele>
        <time>2025-10-18T06:52:25Z</time>
      </trkpt>
      <trkpt lat="43.58903" lon="1.31738">
        <ele>187.2</ele>
        <time>2025-10-18T06:52:26Z</time>
      </trkpt>
      <trkpt lat="43.58906" lon="1.31737">
        <ele>187.2</ele>
        <time>2025-10-18T06:52:27Z</time>
      </trkpt>
      <trkpt lat="43.58909" lon="1.31736">
        <ele>187.2</ele>
        <time>2025-10-18T06:52:28Z</time>
      </trkpt>
      <trkpt lat="43.58911" lon="1.31734">
        <ele>187.2</ele>
        <time>2025-10-18T06:52:29Z</time>
      </trkpt>
      <trkpt lat="43.58913" lon="1.31732">
        <ele>187.2</ele>
        <time>2025-10-18T06:52:30Z</time>
      </trkpt>
      <trkpt lat="43.58914" lon="1.3173">
        <ele>187.2</ele>
        <time>2025-10-18T06:52:31Z</time>
      </trkpt>
      <trkpt lat="43.58914" lon="1.31728">
        <ele>187.4</ele>
        <time>2025-10-18T06:52:32Z</time>
      </trkpt>
      <trkpt lat="43.58914" lon="1.31727">
        <ele>187.4</ele>
        <time>2025-10-18T06:52:33Z</time>
      </trkpt>
      <trkpt lat="43.58914" lon="1.31727">
        <ele>187.6</ele>
        <time>2025-10-18T06:52:34Z</time>
      </trkpt>
      <trkpt lat="43.58928" lon="1.3173">
        <ele>186.8</ele>
        <time>2025-10-18T06:53:32Z</time>
      </trkpt>
      <trkpt lat="43.5893" lon="1.31731">
        <ele>186.8</ele>
        <time>2025-10-18T06:53:33Z</time>
      </trkpt>
      <trkpt lat="43.58933" lon="1.31731">
        <ele>186.8</ele>
        <time>2025-10-18T06:53:34Z</time>
      </trkpt>
      <trkpt lat="43.58937" lon="1.3173">
        <ele>186.6</ele>
        <time>2025-10-18T06:53:35Z</time>
      </trkpt>
      <trkpt lat="43.58941" lon="1.31729">
        <ele>186.6</ele>
        <time>2025-10-18T06:53:36Z</time>
      </trkpt>
      <trkpt lat="43.58945" lon="1.31727">
        <ele>186.4</ele>
        <time>2025-10-18T06:53:37Z</time>
      </trkpt>
      <trkpt lat="43.58949" lon="1.31724">
        <ele>186.2</ele>
        <time>2025-10-18T06:53:38Z</time>
      </trkpt>
      <trkpt lat="43.58954" lon="1.3172">
        <ele>186</ele>
        <time>2025-10-18T06:53:39Z</time>
      </trkpt>
      <trkpt lat="43.5896" lon="1.31718">
        <ele>186</ele>
        <time>2025-10-18T06:53:40Z</time>
      </trkpt>
      <trkpt lat="43.58965" lon="1.31714">
        <ele>185.8</ele>
        <time>2025-10-18T06:53:41Z</time>
      </trkpt>
      <trkpt lat="43.5897" lon="1.31711">
        <ele>185.6</ele>
        <time>2025-10-18T06:53:42Z</time>
      </trkpt>
      <trkpt lat="43.58976" lon="1.31708">
        <ele>185.6</ele>
        <time>2025-10-18T06:53:43Z</time>
      </trkpt>
      <trkpt lat="43.58981" lon="1.31705">
        <ele>185.6</ele>
        <time>2025-10-18T06:53:44Z</time>
      </trkpt>
      <trkpt lat="43.58987" lon="1.31702">
        <ele>185.6</ele>
        <time>2025-10-18T06:53:45Z</time>
      </trkpt>
      <trkpt lat="43.58993" lon="1.31699">
        <ele>185.6</ele>
        <time>2025-10-18T06:53:46Z</time>
      </trkpt>
      <trkpt lat="43.58999" lon="1.31695">
        <ele>185.6</ele>
        <time>2025-10-18T06:53:47Z</time>
      </trkpt>
      <trkpt lat="43.59005" lon="1.31692">
        <ele>185.6</ele>
        <time>2025-10-18T06:53:48Z</time>
      </trkpt>
      <trkpt lat="43.5901" lon="1.31689">
        <ele>185.6</ele>
        <time>2025-10-18T06:53:49Z</time>
      </trkpt>
      <trkpt lat="43.59015" lon="1.31686">
        <ele>185.6</ele>
        <time>2025-10-18T06:53:50Z</time>
      </trkpt>
      <trkpt lat="43.5902" lon="1.31684">
        <ele>185.6</ele>
        <time>2025-10-18T06:53:51Z</time>
      </trkpt>
      <trkpt lat="43.59025" lon="1.31682">
        <ele>185.8</ele>
        <time>2025-10-18T06:53:52Z</time>
      </trkpt>
      <trkpt lat="43.59031" lon="1.31682">
        <ele>185.8</ele>
        <time>2025-10-18T06:53:53Z</time>
      </trkpt>
      <trkpt lat="43.59035" lon="1.31682">
        <ele>185.8</ele>
        <time>2025-10-18T06:53:54Z</time>
      </trkpt>
      <trkpt lat="43.59038" lon="1.31683">
        <ele>186</ele>
        <time>2025-10-18T06:53:55Z</time>
      </trkpt>
      <trkpt lat="43.5904" lon="1.31683">
        <ele>186</ele>
        <time>2025-10-18T06:53:56Z</time>
      </trkpt>
      <trkpt lat="43.59041" lon="1.31685">
        <ele>186.2</ele>
        <time>2025-10-18T06:53:57Z</time>
      </trkpt>
      <trkpt lat="43.59043" lon="1.31688">
        <ele>186.4</ele>
        <time>2025-10-18T06:53:58Z</time>
      </trkpt>
      <trkpt lat="43.59046" lon="1.31692">
        <ele>186.4</ele>
        <time>2025-10-18T06:53:59Z</time>
      </trkpt>
      <trkpt lat="43.59049" lon="1.31695">
        <ele>186.4</ele>
        <time>2025-10-18T06:54:00Z</time>
      </trkpt>
      <trkpt lat="43.59052" lon="1.31698">
        <ele>186.4</ele>
        <time>2025-10-18T06:54:01Z</time>
      </trkpt>
      <trkpt lat="43.59055" lon="1.31702">
        <ele>186.2</ele>
        <time>2025-10-18T06:54:02Z</time>
      </trkpt>
      <trkpt lat="43.59058" lon="1.31706">
        <ele>186</ele>
        <time>2025-10-18T06:54:03Z</time>
      </trkpt>
      <trkpt lat="43.59062" lon="1.31709">
        <ele>186</ele>
        <time>2025-10-18T06:54:04Z</time>
      </trkpt>
      <trkpt lat="43.59066" lon="1.31711">
        <ele>186</ele>
        <time>2025-10-18T06:54:05Z</time>
      </trkpt>
      <trkpt lat="43.59071" lon="1.31714">
        <ele>185.8</ele>
        <time>2025-10-18T06:54:06Z</time>
      </trkpt>
      <trkpt lat="43.59076" lon="1.31716">
        <ele>185.8</ele>
        <time>2025-10-18T06:54:07Z</time>
      </trkpt>
      <trkpt lat="43.59081" lon="1.31717">
        <ele>185.8</ele>
        <time>2025-10-18T06:54:08Z</time>
      </trkpt>
      <trkpt lat="43.59086" lon="1.31716">
        <ele>185.6</ele>
        <time>2025-10-18T06:54:09Z</time>
      </trkpt>
      <trkpt lat="43.5909" lon="1.31712">
        <ele>185.6</ele>
        <time>2025-10-18T06:54:10Z</time>
      </trkpt>
      <trkpt lat="43.59094" lon="1.31707">
        <ele>185.4</ele>
        <time>2025-10-18T06:54:11Z</time>
      </trkpt>
      <trkpt lat="43.59099" lon="1.31704">
        <ele>185.4</ele>
        <time>2025-10-18T06:54:12Z</time>
      </trkpt>
      <trkpt lat="43.59103" lon="1.31702">
        <ele>185.4</ele>
        <time>2025-10-18T06:54:13Z</time>
      </trkpt>
      <trkpt lat="43.59107" lon="1.31697">
        <ele>185.4</ele>
        <time>2025-10-18T06:54:14Z</time>
      </trkpt>
      <trkpt lat="43.5911" lon="1.31692">
        <ele>185.4</ele>
        <time>2025-10-18T06:54:15Z</time>
      </trkpt>
      <trkpt lat="43.59114" lon="1.31688">
        <ele>185.4</ele>
        <time>2025-10-18T06:54:16Z</time>
      </trkpt>
      <trkpt lat="43.59117" lon="1.31686">
        <ele>185.4</ele>
        <time>2025-10-18T06:54:17Z</time>
      </trkpt>
      <trkpt lat="43.5912" lon="1.31685">
        <ele>185.4</ele>
        <time>2025-10-18T06:54:18Z</time>
      </trkpt>
      <trkpt lat="43.59123" lon="1.31687">
        <ele>185.4</ele>
        <time>2025-10-18T06:54:19Z</time>
      </trkpt>
      <trkpt lat="43.59125" lon="1.31691">
        <ele>185.6</ele>
        <time>2025-10-18T06:54:20Z</time>
      </trkpt>
      <trkpt lat="43.59126" lon="1.31696">
        <ele>185.6</ele>
        <time>2025-10-18T06:54:21Z</time>
      </trkpt>
      <trkpt lat="43.59127" lon="1.31702">
        <ele>185.6</ele>
        <time>2025-10-18T06:54:22Z</time>
      </trkpt>
      <trkpt lat="43.59129" lon="1.31708">
        <ele>185.6</ele>
        <time>2025-10-18T06:54:23Z</time>
      </trkpt>
      <trkpt lat="43.5913" lon="1.31715">
        <ele>185.4</ele>
        <time>2025-10-18T06:54:24Z</time>
      </trkpt>
      <trkpt lat="43.59132" lon="1.31722">
        <ele>185.4</ele>
        <time>2025-10-18T06:54:25Z</time>
      </trkpt>
      <trkpt lat="43.59135" lon="1.31728">
        <ele>185.2</ele>
        <time>2025-10-18T06:54:26Z</time>
      </trkpt>
      <trkpt lat="43.59137" lon="1.31735">
        <ele>185</ele>
        <time>2025-10-18T06:54:27Z</time>
      </trkpt>
      <trkpt lat="43.59139" lon="1.31743">
        <ele>185</ele>
        <time>2025-10-18T06:54:28Z</time>
      </trkpt>
      <trkpt lat="43.59141" lon="1.3175">
        <ele>185</ele>
        <time>2025-10-18T06:54:29Z</time>
      </trkpt>
      <trkpt lat="43.59143" lon="1.31757">
        <ele>185</ele>
        <time>2025-10-18T06:54:30Z</time>
      </trkpt>
      <trkpt lat="43.59145" lon="1.31764">
        <ele>185</ele>
        <time>2025-10-18T06:54:31Z</time>
      </trkpt>
      <trkpt lat="43.59146" lon="1.31772">
        <ele>185</ele>
        <time>2025-10-18T06:54:32Z</time>
      </trkpt>
      <trkpt lat="43.59148" lon="1.3178">
        <ele>185</ele>
        <time>2025-10-18T06:54:33Z</time>
      </trkpt>
      <trkpt lat="43.59151" lon="1.31786">
        <ele>185</ele>
        <time>2025-10-18T06:54:34Z</time>
      </trkpt>
      <trkpt lat="43.59155" lon="1.3179">
        <ele>185.2</ele>
        <time>2025-10-18T06:54:35Z</time>
      </trkpt>
      <trkpt lat="43.59161" lon="1.31791">
        <ele>185.2</ele>
        <time>2025-10-18T06:54:36Z</time>
      </trkpt>
      <trkpt lat="43.59166" lon="1.31788">
        <ele>185.2</ele>
        <time>2025-10-18T06:54:37Z</time>
      </trkpt>
      <trkpt lat="43.59171" lon="1.31785">
        <ele>185.2</ele>
        <time>2025-10-18T06:54:38Z</time>
      </trkpt>
      <trkpt lat="43.59176" lon="1.31782">
        <ele>185.2</ele>
        <time>2025-10-18T06:54:39Z</time>
      </trkpt>
      <trkpt lat="43.59182" lon="1.3178">
        <ele>185.2</ele>
        <time>2025-10-18T06:54:40Z</time>
      </trkpt>
      <trkpt lat="43.59188" lon="1.31777">
        <ele>185</ele>
        <time>2025-10-18T06:54:41Z</time>
      </trkpt>
      <trkpt lat="43.59195" lon="1.31775">
        <ele>184.8</ele>
        <time>2025-10-18T06:54:42Z</time>
      </trkpt>
      <trkpt lat="43.59201" lon="1.31773">
        <ele>184.8</ele>
        <time>2025-10-18T06:54:43Z</time>
      </trkpt>
      <trkpt lat="43.59206" lon="1.31772">
        <ele>184.6</ele>
        <time>2025-10-18T06:54:44Z</time>
      </trkpt>
      <trkpt lat="43.59211" lon="1.3177">
        <ele>184.6</ele>
        <time>2025-10-18T06:54:45Z</time>
      </trkpt>
      <trkpt lat="43.59216" lon="1.31767">
        <ele>184.6</ele>
        <time>2025-10-18T06:54:46Z</time>
      </trkpt>
      <trkpt lat="43.5922" lon="1.31765">
        <ele>184.6</ele>
        <time>2025-10-18T06:54:47Z</time>
      </trkpt>
      <trkpt lat="43.59225" lon="1.31763">
        <ele>184.8</ele>
        <time>2025-10-18T06:54:48Z</time>
      </trkpt>
      <trkpt lat="43.59229" lon="1.3176">
        <ele>184.8</ele>
        <time>2025-10-18T06:54:49Z</time>
      </trkpt>
      <trkpt lat="43.59235" lon="1.31758">
        <ele>184.8</ele>
        <time>2025-10-18T06:54:50Z</time>
      </trkpt>
      <trkpt lat="43.5924" lon="1.31758">
        <ele>185</ele>
        <time>2025-10-18T06:54:51Z</time>
      </trkpt>
      <trkpt lat="43.59246" lon="1.31759">
        <ele>185</ele>
        <time>2025-10-18T06:54:52Z</time>
      </trkpt>
      <trkpt lat="43.59251" lon="1.31761">
        <ele>184.8</ele>
        <time>2025-10-18T06:54:53Z</time>
      </trkpt>
      <trkpt lat="43.59257" lon="1.31763">
        <ele>184.8</ele>
        <time>2025-10-18T06:54:54Z</time>
      </trkpt>
      <trkpt lat="43.59262" lon="1.31766">
        <ele>184.6</ele>
        <time>2025-10-18T06:54:55Z</time>
      </trkpt>
      <trkpt lat="43.59269" lon="1.31767">
        <ele>184.6</ele>
        <time>2025-10-18T06:54:56Z</time>
      </trkpt>
      <trkpt lat="43.59275" lon="1.31767">
        <ele>184.4</ele>
        <time>2025-10-18T06:54:57Z</time>
      </trkpt>
      <trkpt lat="43.59281" lon="1.31768">
        <ele>184.4</ele>
        <time>2025-10-18T06:54:58Z</time>
      </trkpt>
      <trkpt lat="43.59287" lon="1.3177">
        <ele>184.2</ele>
        <time>2025-10-18T06:54:59Z</time>
      </trkpt>
      <trkpt lat="43.59293" lon="1.31773">
        <ele>184.2</ele>
        <time>2025-10-18T06:55:00Z</time>
      </trkpt>
      <trkpt lat="43.59298" lon="1.31775">
        <ele>184.2</ele>
        <time>2025-10-18T06:55:01Z</time>
      </trkpt>
      <trkpt lat="43.59304" lon="1.31779">
        <ele>184.2</ele>
        <time>2025-10-18T06:55:02Z</time>
      </trkpt>
      <trkpt lat="43.5931" lon="1.31782">
        <ele>184</ele>
        <time>2025-10-18T06:55:03Z</time>
      </trkpt>
      <trkpt lat="43.59316" lon="1.31784">
        <ele>184</ele>
        <time>2025-10-18T06:55:04Z</time>
      </trkpt>
      <trkpt lat="43.59322" lon="1.31784">
        <ele>184</ele>
        <time>2025-10-18T06:55:05Z</time>
      </trkpt>
      <trkpt lat="43.59328" lon="1.31785">
        <ele>184</ele>
        <time>2025-10-18T06:55:06Z</time>
      </trkpt>
      <trkpt lat="43.59333" lon="1.31784">
        <ele>184</ele>
        <time>2025-10-18T06:55:07Z</time>
      </trkpt>
      <trkpt lat="43.59337" lon="1.31783">
        <ele>184</ele>
        <time>2025-10-18T06:55:08Z</time>
      </trkpt>
      <trkpt lat="43.5934" lon="1.31781">
        <ele>184.2</ele>
        <time>2025-10-18T06:55:09Z</time>
      </trkpt>
      <trkpt lat="43.59342" lon="1.31779">
        <ele>184.6</ele>
        <time>2025-10-18T06:55:10Z</time>
      </trkpt>
      <trkpt lat="43.59344" lon="1.31776">
        <ele>184.8</ele>
        <time>2025-10-18T06:55:11Z</time>
      </trkpt>
      <trkpt lat="43.59346" lon="1.31772">
        <ele>185</ele>
        <time>2025-10-18T06:55:12Z</time>
      </trkpt>
      <trkpt lat="43.59349" lon="1.31769">
        <ele>185.2</ele>
        <time>2025-10-18T06:55:13Z</time>
      </trkpt>
      <trkpt lat="43.59353" lon="1.31766">
        <ele>185.2</ele>
        <time>2025-10-18T06:55:14Z</time>
      </trkpt>
      <trkpt lat="43.59357" lon="1.31762">
        <ele>185.2</ele>
        <time>2025-10-18T06:55:15Z</time>
      </trkpt>
      <trkpt lat="43.59362" lon="1.31758">
        <ele>185.2</ele>
        <time>2025-10-18T06:55:16Z</time>
      </trkpt>
      <trkpt lat="43.59367" lon="1.31754">
        <ele>185.2</ele>
        <time>2025-10-18T06:55:17Z</time>
      </trkpt>
      <trkpt lat="43.59372" lon="1.31751">
        <ele>185.2</ele>
        <time>2025-10-18T06:55:18Z</time>
      </trkpt>
      <trkpt lat="43.59377" lon="1.31747">
        <ele>185.2</ele>
        <time>2025-10-18T06:55:19Z</time>
      </trkpt>
      <trkpt lat="43.59382" lon="1.31742">
        <ele>185</ele>
        <time>2025-10-18T06:55:20Z</time>
      </trkpt>
      <trkpt lat="43.59387" lon="1.31737">
        <ele>185</ele>
        <time>2025-10-18T06:55:21Z</time>
      </trkpt>
      <trkpt lat="43.59393" lon="1.31735">
        <ele>185</ele>
        <time>2025-10-18T06:55:22Z</time>
      </trkpt>
      <trkpt lat="43.59399" lon="1.31734">
        <ele>185</ele>
        <time>2025-10-18T06:55:23Z</time>
      </trkpt>
      <trkpt lat="43.59405" lon="1.31733">
        <ele>185</ele>
        <time>2025-10-18T06:55:24Z</time>
      </trkpt>
      <trkpt lat="43.59411" lon="1.31734">
        <ele>185</ele>
        <time>2025-10-18T06:55:25Z</time>
      </trkpt>
      <trkpt lat="43.59416" lon="1.31733">
        <ele>185</ele>
        <time>2025-10-18T06:55:26Z</time>
      </trkpt>
      <trkpt lat="43.59422" lon="1.3173">
        <ele>185</ele>
        <time>2025-10-18T06:55:27Z</time>
      </trkpt>
      <trkpt lat="43.59428" lon="1.31728">
        <ele>185</ele>
        <time>2025-10-18T06:55:28Z</time>
      </trkpt>
      <trkpt lat="43.59435" lon="1.31729">
        <ele>185</ele>
        <time>2025-10-18T06:55:29Z</time>
      </trkpt>
      <trkpt lat="43.59441" lon="1.31729">
        <ele>185.2</ele>
        <time>2025-10-18T06:55:30Z</time>
      </trkpt>
      <trkpt lat="43.59447" lon="1.3173">
        <ele>185</ele>
        <time>2025-10-18T06:55:31Z</time>
      </trkpt>
      <trkpt lat="43.59453" lon="1.3173">
        <ele>185.2</ele>
        <time>2025-10-18T06:55:32Z</time>
      </trkpt>
      <trkpt lat="43.59459" lon="1.3173">
        <ele>185.2</ele>
        <time>2025-10-18T06:55:33Z</time>
      </trkpt>
      <trkpt lat="43.59465" lon="1.31732">
        <ele>185.2</ele>
        <time>2025-10-18T06:55:34Z</time>
      </trkpt>
      <trkpt lat="43.59471" lon="1.31731">
        <ele>185.2</ele>
        <time>2025-10-18T06:55:35Z</time>
      </trkpt>
      <trkpt lat="43.59477" lon="1.3173">
        <ele>185.2</ele>
        <time>2025-10-18T06:55:36Z</time>
      </trkpt>
      <trkpt lat="43.59481" lon="1.31731">
        <ele>185.2</ele>
        <time>2025-10-18T06:55:37Z</time>
      </trkpt>
      <trkpt lat="43.59486" lon="1.31734">
        <ele>185.2</ele>
        <time>2025-10-18T06:55:38Z</time>
      </trkpt>
      <trkpt lat="43.59488" lon="1.31738">
        <ele>185.2</ele>
        <time>2025-10-18T06:55:39Z</time>
      </trkpt>
      <trkpt lat="43.59488" lon="1.31744">
        <ele>185.4</ele>
        <time>2025-10-18T06:55:40Z</time>
      </trkpt>
      <trkpt lat="43.59489" lon="1.3175">
        <ele>185.4</ele>
        <time>2025-10-18T06:55:41Z</time>
      </trkpt>
      <trkpt lat="43.59489" lon="1.31757">
        <ele>185.4</ele>
        <time>2025-10-18T06:55:42Z</time>
      </trkpt>
      <trkpt lat="43.59489" lon="1.31764">
        <ele>185.4</ele>
        <time>2025-10-18T06:55:43Z</time>
      </trkpt>
      <trkpt lat="43.59489" lon="1.31772">
        <ele>185.4</ele>
        <time>2025-10-18T06:55:44Z</time>
      </trkpt>
      <trkpt lat="43.59489" lon="1.31779">
        <ele>185.2</ele>
        <time>2025-10-18T06:55:45Z</time>
      </trkpt>
      <trkpt lat="43.59489" lon="1.31787">
        <ele>185.2</ele>
        <time>2025-10-18T06:55:46Z</time>
      </trkpt>
      <trkpt lat="43.59489" lon="1.31796">
        <ele>185.2</ele>
        <time>2025-10-18T06:55:47Z</time>
      </trkpt>
      <trkpt lat="43.59488" lon="1.31803">
        <ele>185.4</ele>
        <time>2025-10-18T06:55:48Z</time>
      </trkpt>
      <trkpt lat="43.59488" lon="1.31811">
        <ele>185.4</ele>
        <time>2025-10-18T06:55:49Z</time>
      </trkpt>
      <trkpt lat="43.59488" lon="1.3182">
        <ele>185.2</ele>
        <time>2025-10-18T06:55:50Z</time>
      </trkpt>
      <trkpt lat="43.59488" lon="1.31828">
        <ele>185.2</ele>
        <time>2025-10-18T06:55:51Z</time>
      </trkpt>
      <trkpt lat="43.59488" lon="1.31837">
        <ele>185</ele>
        <time>2025-10-18T06:55:52Z</time>
      </trkpt>
      <trkpt lat="43.59488" lon="1.31846">
        <ele>184.8</ele>
        <time>2025-10-18T06:55:53Z</time>
      </trkpt>
      <trkpt lat="43.59488" lon="1.31854">
        <ele>184.8</ele>
        <time>2025-10-18T06:55:54Z</time>
      </trkpt>
      <trkpt lat="43.59487" lon="1.31863">
        <ele>184.8</ele>
        <time>2025-10-18T06:55:55Z</time>
      </trkpt>
      <trkpt lat="43.59487" lon="1.31871">
        <ele>184.6</ele>
        <time>2025-10-18T06:55:56Z</time>
      </trkpt>
      <trkpt lat="43.59488" lon="1.31879">
        <ele>184.6</ele>
        <time>2025-10-18T06:55:57Z</time>
      </trkpt>
      <trkpt lat="43.59489" lon="1.31887">
        <ele>184.6</ele>
        <time>2025-10-18T06:55:58Z</time>
      </trkpt>
      <trkpt lat="43.59491" lon="1.31894">
        <ele>184.8</ele>
        <time>2025-10-18T06:55:59Z</time>
      </trkpt>
      <trkpt lat="43.59493" lon="1.31902">
        <ele>184.8</ele>
        <time>2025-10-18T06:56:00Z</time>
      </trkpt>
      <trkpt lat="43.59495" lon="1.31911">
        <ele>184.8</ele>
        <time>2025-10-18T06:56:01Z</time>
      </trkpt>
      <trkpt lat="43.59497" lon="1.31918">
        <ele>184.8</ele>
        <time>2025-10-18T06:56:02Z</time>
      </trkpt>
      <trkpt lat="43.595" lon="1.31925">
        <ele>184.8</ele>
        <time>2025-10-18T06:56:03Z</time>
      </trkpt>
      <trkpt lat="43.59504" lon="1.31932">
        <ele>184.6</ele>
        <time>2025-10-18T06:56:04Z</time>
      </trkpt>
      <trkpt lat="43.59508" lon="1.31939">
        <ele>184.6</ele>
        <time>2025-10-18T06:56:05Z</time>
      </trkpt>
      <trkpt lat="43.59512" lon="1.31946">
        <ele>184.4</ele>
        <time>2025-10-18T06:56:06Z</time>
      </trkpt>
      <trkpt lat="43.59515" lon="1.31954">
        <ele>184.2</ele>
        <time>2025-10-18T06:56:07Z</time>
      </trkpt>
      <trkpt lat="43.59519" lon="1.31962">
        <ele>184.2</ele>
        <time>2025-10-18T06:56:08Z</time>
      </trkpt>
      <trkpt lat="43.59523" lon="1.31968">
        <ele>184.2</ele>
        <time>2025-10-18T06:56:09Z</time>
      </trkpt>
      <trkpt lat="43.59528" lon="1.31973">
        <ele>184</ele>
        <time>2025-10-18T06:56:10Z</time>
      </trkpt>
      <trkpt lat="43.59534" lon="1.31976">
        <ele>184</ele>
        <time>2025-10-18T06:56:11Z</time>
      </trkpt>
      <trkpt lat="43.59539" lon="1.3198">
        <ele>184</ele>
        <time>2025-10-18T06:56:12Z</time>
      </trkpt>
      <trkpt lat="43.59545" lon="1.31983">
        <ele>184</ele>
        <time>2025-10-18T06:56:13Z</time>
      </trkpt>
      <trkpt lat="43.5955" lon="1.31986">
        <ele>184</ele>
        <time>2025-10-18T06:56:14Z</time>
      </trkpt>
      <trkpt lat="43.59555" lon="1.3199">
        <ele>184</ele>
        <time>2025-10-18T06:56:15Z</time>
      </trkpt>
      <trkpt lat="43.59561" lon="1.3199">
        <ele>184</ele>
        <time>2025-10-18T06:56:16Z</time>
      </trkpt>
      <trkpt lat="43.59566" lon="1.31989">
        <ele>184.2</ele>
        <time>2025-10-18T06:56:17Z</time>
      </trkpt>
      <trkpt lat="43.59572" lon="1.31989">
        <ele>184.2</ele>
        <time>2025-10-18T06:56:18Z</time>
      </trkpt>
      <trkpt lat="43.59577" lon="1.3199">
        <ele>184.2</ele>
        <time>2025-10-18T06:56:19Z</time>
      </trkpt>
      <trkpt lat="43.59582" lon="1.31993">
        <ele>184</ele>
        <time>2025-10-18T06:56:20Z</time>
      </trkpt>
      <trkpt lat="43.59585" lon="1.31999">
        <ele>184</ele>
        <time>2025-10-18T06:56:21Z</time>
      </trkpt>
      <trkpt lat="43.59587" lon="1.32006">
        <ele>184</ele>
        <time>2025-10-18T06:56:22Z</time>
      </trkpt>
      <trkpt lat="43.5959" lon="1.32013">
        <ele>184.2</ele>
        <time>2025-10-18T06:56:23Z</time>
      </trkpt>
      <trkpt lat="43.59594" lon="1.32019">
        <ele>184.2</ele>
        <time>2025-10-18T06:56:24Z</time>
      </trkpt>
      <trkpt lat="43.59598" lon="1.32024">
        <ele>184.2</ele>
        <time>2025-10-18T06:56:25Z</time>
      </trkpt>
      <trkpt lat="43.59604" lon="1.32028">
        <ele>184</ele>
        <time>2025-10-18T06:56:26Z</time>
      </trkpt>
      <trkpt lat="43.5961" lon="1.32032">
        <ele>184</ele>
        <time>2025-10-18T06:56:27Z</time>
      </trkpt>
      <trkpt lat="43.59616" lon="1.32037">
        <ele>183.8</ele>
        <time>2025-10-18T06:56:28Z</time>
      </trkpt>
      <trkpt lat="43.59622" lon="1.32041">
        <ele>183.8</ele>
        <time>2025-10-18T06:56:29Z</time>
      </trkpt>
      <trkpt lat="43.59627" lon="1.32044">
        <ele>183.8</ele>
        <time>2025-10-18T06:56:30Z</time>
      </trkpt>
      <trkpt lat="43.59633" lon="1.32049">
        <ele>183.6</ele>
        <time>2025-10-18T06:56:31Z</time>
      </trkpt>
      <trkpt lat="43.59638" lon="1.32053">
        <ele>183.6</ele>
        <time>2025-10-18T06:56:32Z</time>
      </trkpt>
      <trkpt lat="43.59644" lon="1.32057">
        <ele>183.6</ele>
        <time>2025-10-18T06:56:33Z</time>
      </trkpt>
      <trkpt lat="43.5965" lon="1.32062">
        <ele>183.6</ele>
        <time>2025-10-18T06:56:34Z</time>
      </trkpt>
      <trkpt lat="43.59656" lon="1.32067">
        <ele>183.6</ele>
        <time>2025-10-18T06:56:35Z</time>
      </trkpt>
      <trkpt lat="43.59662" lon="1.32072">
        <ele>183.6</ele>
        <time>2025-10-18T06:56:36Z</time>
      </trkpt>
      <trkpt lat="43.59668" lon="1.32076">
        <ele>183.4</ele>
        <time>2025-10-18T06:56:37Z</time>
      </trkpt>
      <trkpt lat="43.59674" lon="1.3208">
        <ele>183.4</ele>
        <time>2025-10-18T06:56:38Z</time>
      </trkpt>
      <trkpt lat="43.5968" lon="1.32085">
        <ele>183.4</ele>
        <time>2025-10-18T06:56:39Z</time>
      </trkpt>
      <trkpt lat="43.59686" lon="1.32089">
        <ele>183.2</ele>
        <time>2025-10-18T06:56:40Z</time>
      </trkpt>
      <trkpt lat="43.59692" lon="1.32093">
        <ele>183.2</ele>
        <time>2025-10-18T06:56:41Z</time>
      </trkpt>
      <trkpt lat="43.59698" lon="1.32097">
        <ele>183.2</ele>
        <time>2025-10-18T06:56:42Z</time>
      </trkpt>
      <trkpt lat="43.59704" lon="1.32102">
        <ele>183.2</ele>
        <time>2025-10-18T06:56:43Z</time>
      </trkpt>
      <trkpt lat="43.5971" lon="1.32106">
        <ele>183.2</ele>
        <time>2025-10-18T06:56:44Z</time>
      </trkpt>
      <trkpt lat="43.59717" lon="1.32111">
        <ele>183</ele>
        <time>2025-10-18T06:56:45Z</time>
      </trkpt>
      <trkpt lat="43.59722" lon="1.32116">
        <ele>183</ele>
        <time>2025-10-18T06:56:46Z</time>
      </trkpt>
      <trkpt lat="43.59728" lon="1.32119">
        <ele>183</ele>
        <time>2025-10-18T06:56:47Z</time>
      </trkpt>
      <trkpt lat="43.59734" lon="1.32124">
        <ele>182.8</ele>
        <time>2025-10-18T06:56:48Z</time>
      </trkpt>
      <trkpt lat="43.5974" lon="1.32128">
        <ele>182.8</ele>
        <time>2025-10-18T06:56:49Z</time>
      </trkpt>
      <trkpt lat="43.59745" lon="1.32132">
        <ele>182.8</ele>
        <time>2025-10-18T06:56:50Z</time>
      </trkpt>
      <trkpt lat="43.59751" lon="1.32137">
        <ele>182.8</ele>
        <time>2025-10-18T06:56:51Z</time>
      </trkpt>
      <trkpt lat="43.59757" lon="1.32141">
        <ele>183</ele>
        <time>2025-10-18T06:56:52Z</time>
      </trkpt>
      <trkpt lat="43.59763" lon="1.32143">
        <ele>183</ele>
        <time>2025-10-18T06:56:53Z</time>
      </trkpt>
      <trkpt lat="43.59768" lon="1.32144">
        <ele>183.2</ele>
        <time>2025-10-18T06:56:54Z</time>
      </trkpt>
      <trkpt lat="43.59772" lon="1.32144">
        <ele>183.4</ele>
        <time>2025-10-18T06:56:55Z</time>
      </trkpt>
      <trkpt lat="43.59774" lon="1.32143">
        <ele>183.6</ele>
        <time>2025-10-18T06:56:56Z</time>
      </trkpt>
      <trkpt lat="43.59775" lon="1.32143">
        <ele>183.8</ele>
        <time>2025-10-18T06:56:57Z</time>
      </trkpt>
      <trkpt lat="43.59777" lon="1.32143">
        <ele>184</ele>
        <time>2025-10-18T06:56:58Z</time>
      </trkpt>
      <trkpt lat="43.59779" lon="1.32144">
        <ele>184.2</ele>
        <time>2025-10-18T06:56:59Z</time>
      </trkpt>
      <trkpt lat="43.59783" lon="1.32146">
        <ele>184.4</ele>
        <time>2025-10-18T06:57:00Z</time>
      </trkpt>
      <trkpt lat="43.59785" lon="1.3215">
        <ele>184.4</ele>
        <time>2025-10-18T06:57:01Z</time>
      </trkpt>
      <trkpt lat="43.59786" lon="1.32156">
        <ele>184.4</ele>
        <time>2025-10-18T06:57:02Z</time>
      </trkpt>
      <trkpt lat="43.59788" lon="1.32162">
        <ele>184.2</ele>
        <time>2025-10-18T06:57:03Z</time>
      </trkpt>
      <trkpt lat="43.59792" lon="1.32167">
        <ele>184.2</ele>
        <time>2025-10-18T06:57:04Z</time>
      </trkpt>
      <trkpt lat="43.59797" lon="1.32171">
        <ele>184</ele>
        <time>2025-10-18T06:57:05Z</time>
      </trkpt>
      <trkpt lat="43.59802" lon="1.32175">
        <ele>183.8</ele>
        <time>2025-10-18T06:57:06Z</time>
      </trkpt>
      <trkpt lat="43.59807" lon="1.3218">
        <ele>183.6</ele>
        <time>2025-10-18T06:57:07Z</time>
      </trkpt>
      <trkpt lat="43.59812" lon="1.32185">
        <ele>183.6</ele>
        <time>2025-10-18T06:57:08Z</time>
      </trkpt>
      <trkpt lat="43.59816" lon="1.3219">
        <ele>183.4</ele>
        <time>2025-10-18T06:57:09Z</time>
      </trkpt>
      <trkpt lat="43.59821" lon="1.32196">
        <ele>183.2</ele>
        <time>2025-10-18T06:57:10Z</time>
      </trkpt>
      <trkpt lat="43.59827" lon="1.32202">
        <ele>183</ele>
        <time>2025-10-18T06:57:11Z</time>
      </trkpt>
      <trkpt lat="43.59833" lon="1.32206">
        <ele>183</ele>
        <time>2025-10-18T06:57:12Z</time>
      </trkpt>
      <trkpt lat="43.5984" lon="1.32208">
        <ele>182.8</ele>
        <time>2025-10-18T06:57:13Z</time>
      </trkpt>
      <trkpt lat="43.59847" lon="1.3221">
        <ele>182.8</ele>
        <time>2025-10-18T06:57:14Z</time>
      </trkpt>
      <trkpt lat="43.59854" lon="1.32211">
        <ele>182.6</ele>
        <time>2025-10-18T06:57:15Z</time>
      </trkpt>
      <trkpt lat="43.59861" lon="1.32212">
        <ele>182.6</ele>
        <time>2025-10-18T06:57:16Z</time>
      </trkpt>
      <trkpt lat="43.59867" lon="1.32213">
        <ele>182.6</ele>
        <time>2025-10-18T06:57:17Z</time>
      </trkpt>
      <trkpt lat="43.59874" lon="1.32214">
        <ele>182.4</ele>
        <time>2025-10-18T06:57:18Z</time>
      </trkpt>
      <trkpt lat="43.59881" lon="1.32215">
        <ele>182.4</ele>
        <time>2025-10-18T06:57:19Z</time>
      </trkpt>
      <trkpt lat="43.59888" lon="1.32216">
        <ele>182.4</ele>
        <time>2025-10-18T06:57:20Z</time>
      </trkpt>
      <trkpt lat="43.59895" lon="1.32217">
        <ele>182.2</ele>
        <time>2025-10-18T06:57:21Z</time>
      </trkpt>
      <trkpt lat="43.59902" lon="1.32218">
        <ele>182.2</ele>
        <time>2025-10-18T06:57:22Z</time>
      </trkpt>
      <trkpt lat="43.59909" lon="1.32219">
        <ele>182.2</ele>
        <time>2025-10-18T06:57:23Z</time>
      </trkpt>
      <trkpt lat="43.59916" lon="1.3222">
        <ele>182.2</ele>
        <time>2025-10-18T06:57:24Z</time>
      </trkpt>
      <trkpt lat="43.59923" lon="1.32221">
        <ele>182.2</ele>
        <time>2025-10-18T06:57:25Z</time>
      </trkpt>
      <trkpt lat="43.59929" lon="1.32222">
        <ele>182.2</ele>
        <time>2025-10-18T06:57:26Z</time>
      </trkpt>
      <trkpt lat="43.59936" lon="1.32223">
        <ele>182.2</ele>
        <time>2025-10-18T06:57:27Z</time>
      </trkpt>
      <trkpt lat="43.59942" lon="1.32223">
        <ele>182.4</ele>
        <time>2025-10-18T06:57:28Z</time>
      </trkpt>
      <trkpt lat="43.59948" lon="1.32224">
        <ele>182.4</ele>
        <time>2025-10-18T06:57:29Z</time>
      </trkpt>
      <trkpt lat="43.59955" lon="1.32226">
        <ele>182.4</ele>
        <time>2025-10-18T06:57:30Z</time>
      </trkpt>
      <trkpt lat="43.59961" lon="1.32229">
        <ele>182.6</ele>
        <time>2025-10-18T06:57:31Z</time>
      </trkpt>
      <trkpt lat="43.59967" lon="1.32233">
        <ele>182.6</ele>
        <time>2025-10-18T06:57:32Z</time>
      </trkpt>
      <trkpt lat="43.59972" lon="1.32238">
        <ele>182.8</ele>
        <time>2025-10-18T06:57:33Z</time>
      </trkpt>
      <trkpt lat="43.59977" lon="1.32243">
        <ele>183</ele>
        <time>2025-10-18T06:57:34Z</time>
      </trkpt>
      <trkpt lat="43.59982" lon="1.32248">
        <ele>183.2</ele>
        <time>2025-10-18T06:57:35Z</time>
      </trkpt>
      <trkpt lat="43.59987" lon="1.32253">
        <ele>183.4</ele>
        <time>2025-10-18T06:57:36Z</time>
      </trkpt>
      <trkpt lat="43.59991" lon="1.32258">
        <ele>183.4</ele>
        <time>2025-10-18T06:57:37Z</time>
      </trkpt>
      <trkpt lat="43.59995" lon="1.32262">
        <ele>183.4</ele>
        <time>2025-10-18T06:57:38Z</time>
      </trkpt>
      <trkpt lat="43.6" lon="1.32265">
        <ele>183.4</ele>
        <time>2025-10-18T06:57:39Z</time>
      </trkpt>
      <trkpt lat="43.60005" lon="1.32266">
        <ele>183.4</ele>
        <time>2025-10-18T06:57:40Z</time>
      </trkpt>
      <trkpt lat="43.60011" lon="1.32266">
        <ele>183.4</ele>
        <time>2025-10-18T06:57:41Z</time>
      </trkpt>
      <trkpt lat="43.60017" lon="1.32266">
        <ele>183.2</ele>
        <time>2025-10-18T06:57:42Z</time>
      </trkpt>
      <trkpt lat="43.60022" lon="1.32266">
        <ele>183.2</ele>
        <time>2025-10-18T06:57:43Z</time>
      </trkpt>
      <trkpt lat="43.60028" lon="1.32265">
        <ele>183.2</ele>
        <time>2025-10-18T06:57:44Z</time>
      </trkpt>
      <trkpt lat="43.60033" lon="1.32263">
        <ele>183.2</ele>
        <time>2025-10-18T06:57:45Z</time>
      </trkpt>
      <trkpt lat="43.60036" lon="1.32259">
        <ele>183.2</ele>
        <time>2025-10-18T06:57:46Z</time>
      </trkpt>
      <trkpt lat="43.60039" lon="1.32257">
        <ele>183.2</ele>
        <time>2025-10-18T06:57:47Z</time>
      </trkpt>
      <trkpt lat="43.60043" lon="1.32258">
        <ele>183.4</ele>
        <time>2025-10-18T06:57:48Z</time>
      </trkpt>
      <trkpt lat="43.60046" lon="1.32261">
        <ele>183.6</ele>
        <time>2025-10-18T06:57:49Z</time>
      </trkpt>
      <trkpt lat="43.60047" lon="1.32264">
        <ele>183.8</ele>
        <time>2025-10-18T06:57:50Z</time>
      </trkpt>
      <trkpt lat="43.60047" lon="1.32268">
        <ele>183.8</ele>
        <time>2025-10-18T06:57:51Z</time>
      </trkpt>
      <trkpt lat="43.60047" lon="1.32273">
        <ele>184</ele>
        <time>2025-10-18T06:57:52Z</time>
      </trkpt>
      <trkpt lat="43.60047" lon="1.32279">
        <ele>184</ele>
        <time>2025-10-18T06:57:53Z</time>
      </trkpt>
      <trkpt lat="43.60048" lon="1.32286">
        <ele>184</ele>
        <time>2025-10-18T06:57:54Z</time>
      </trkpt>
      <trkpt lat="43.60049" lon="1.32293">
        <ele>183.8</ele>
        <time>2025-10-18T06:57:55Z</time>
      </trkpt>
      <trkpt lat="43.60049" lon="1.32301">
        <ele>183.8</ele>
        <time>2025-10-18T06:57:56Z</time>
      </trkpt>
      <trkpt lat="43.60049" lon="1.32308">
        <ele>183.6</ele>
        <time>2025-10-18T06:57:57Z</time>
      </trkpt>
      <trkpt lat="43.6005" lon="1.32316">
        <ele>183.6</ele>
        <time>2025-10-18T06:57:58Z</time>
      </trkpt>
      <trkpt lat="43.60052" lon="1.32322">
        <ele>183.4</ele>
        <time>2025-10-18T06:57:59Z</time>
      </trkpt>
      <trkpt lat="43.60055" lon="1.32328">
        <ele>183.4</ele>
        <time>2025-10-18T06:58:00Z</time>
      </trkpt>
      <trkpt lat="43.60058" lon="1.32333">
        <ele>183.4</ele>
        <time>2025-10-18T06:58:01Z</time>
      </trkpt>
      <trkpt lat="43.60062" lon="1.32338">
        <ele>183.4</ele>
        <time>2025-10-18T06:58:02Z</time>
      </trkpt>
      <trkpt lat="43.60066" lon="1.32344">
        <ele>183.4</ele>
        <time>2025-10-18T06:58:03Z</time>
      </trkpt>
      <trkpt lat="43.60071" lon="1.3235">
        <ele>183.4</ele>
        <time>2025-10-18T06:58:04Z</time>
      </trkpt>
      <trkpt lat="43.60075" lon="1.32356">
        <ele>183.2</ele>
        <time>2025-10-18T06:58:05Z</time>
      </trkpt>
      <trkpt lat="43.6008" lon="1.32363">
        <ele>183.2</ele>
        <time>2025-10-18T06:58:06Z</time>
      </trkpt>
      <trkpt lat="43.60085" lon="1.32369">
        <ele>183</ele>
        <time>2025-10-18T06:58:07Z</time>
      </trkpt>
      <trkpt lat="43.6009" lon="1.32376">
        <ele>182.6</ele>
        <time>2025-10-18T06:58:08Z</time>
      </trkpt>
      <trkpt lat="43.60095" lon="1.32382">
        <ele>182.4</ele>
        <time>2025-10-18T06:58:09Z</time>
      </trkpt>
      <trkpt lat="43.60101" lon="1.32389">
        <ele>182.2</ele>
        <time>2025-10-18T06:58:10Z</time>
      </trkpt>
      <trkpt lat="43.60106" lon="1.32395">
        <ele>182</ele>
        <time>2025-10-18T06:58:11Z</time>
      </trkpt>
      <trkpt lat="43.60111" lon="1.32401">
        <ele>182</ele>
        <time>2025-10-18T06:58:12Z</time>
      </trkpt>
      <trkpt lat="43.60116" lon="1.32408">
        <ele>181.8</ele>
        <time>2025-10-18T06:58:13Z</time>
      </trkpt>
      <trkpt lat="43.60122" lon="1.32414">
        <ele>181.8</ele>
        <time>2025-10-18T06:58:14Z</time>
      </trkpt>
      <trkpt lat="43.60128" lon="1.3242">
        <ele>181.8</ele>
        <time>2025-10-18T06:58:15Z</time>
      </trkpt>
      <trkpt lat="43.60133" lon="1.32426">
        <ele>181.8</ele>
        <time>2025-10-18T06:58:16Z</time>
      </trkpt>
      <trkpt lat="43.60139" lon="1.32432">
        <ele>181.8</ele>
        <time>2025-10-18T06:58:17Z</time>
      </trkpt>
      <trkpt lat="43.60144" lon="1.32438">
        <ele>181.8</ele>
        <time>2025-10-18T06:58:18Z</time>
      </trkpt>
      <trkpt lat="43.60149" lon="1.32444">
        <ele>181.8</ele>
        <time>2025-10-18T06:58:19Z</time>
      </trkpt>
      <trkpt lat="43.60155" lon="1.32451">
        <ele>181.8</ele>
        <time>2025-10-18T06:58:20Z</time>
      </trkpt>
      <trkpt lat="43.6016" lon="1.32457">
        <ele>181.6</ele>
        <time>2025-10-18T06:58:21Z</time>
      </trkpt>
      <trkpt lat="43.60165" lon="1.32464">
        <ele>181.6</ele>
        <time>2025-10-18T06:58:22Z</time>
      </trkpt>
      <trkpt lat="43.60171" lon="1.3247">
        <ele>181.6</ele>
        <time>2025-10-18T06:58:23Z</time>
      </trkpt>
      <trkpt lat="43.60176" lon="1.32476">
        <ele>181.6</ele>
        <time>2025-10-18T06:58:24Z</time>
      </trkpt>
      <trkpt lat="43.60182" lon="1.32482">
        <ele>181.6</ele>
        <time>2025-10-18T06:58:25Z</time>
      </trkpt>
      <trkpt lat="43.60187" lon="1.32488">
        <ele>181.6</ele>
        <time>2025-10-18T06:58:26Z</time>
      </trkpt>
      <trkpt lat="43.60192" lon="1.32494">
        <ele>181.6</ele>
        <time>2025-10-18T06:58:27Z</time>
      </trkpt>
      <trkpt lat="43.60197" lon="1.325">
        <ele>181.6</ele>
        <time>2025-10-18T06:58:28Z</time>
      </trkpt>
      <trkpt lat="43.60202" lon="1.32506">
        <ele>181.6</ele>
        <time>2025-10-18T06:58:29Z</time>
      </trkpt>
      <trkpt lat="43.60207" lon="1.32512">
        <ele>181.8</ele>
        <time>2025-10-18T06:58:30Z</time>
      </trkpt>
      <trkpt lat="43.60212" lon="1.32518">
        <ele>181.8</ele>
        <time>2025-10-18T06:58:31Z</time>
      </trkpt>
      <trkpt lat="43.60217" lon="1.32524">
        <ele>181.8</ele>
        <time>2025-10-18T06:58:32Z</time>
      </trkpt>
      <trkpt lat="43.60222" lon="1.3253">
        <ele>182</ele>
        <time>2025-10-18T06:58:33Z</time>
      </trkpt>
      <trkpt lat="43.60227" lon="1.32535">
        <ele>182</ele>
        <time>2025-10-18T06:58:34Z</time>
      </trkpt>
      <trkpt lat="43.60232" lon="1.32541">
        <ele>182</ele>
        <time>2025-10-18T06:58:35Z</time>
      </trkpt>
      <trkpt lat="43.60237" lon="1.32547">
        <ele>182</ele>
        <time>2025-10-18T06:58:36Z</time>
      </trkpt>
      <trkpt lat="43.60242" lon="1.32553">
        <ele>182</ele>
        <time>2025-10-18T06:58:37Z</time>
      </trkpt>
      <trkpt lat="43.60247" lon="1.32559">
        <ele>182.2</ele>
        <time>2025-10-18T06:58:38Z</time>
      </trkpt>
      <trkpt lat="43.60252" lon="1.32565">
        <ele>182.2</ele>
        <time>2025-10-18T06:58:39Z</time>
      </trkpt>
      <trkpt lat="43.60257" lon="1.32571">
        <ele>182.2</ele>
        <time>2025-10-18T06:58:40Z</time>
      </trkpt>
      <trkpt lat="43.60263" lon="1.32576">
        <ele>182.2</ele>
        <time>2025-10-18T06:58:41Z</time>
      </trkpt>
      <trkpt lat="43.60268" lon="1.32582">
        <ele>182.2</ele>
        <time>2025-10-18T06:58:42Z</time>
      </trkpt>
      <trkpt lat="43.60273" lon="1.32588">
        <ele>182.2</ele>
        <time>2025-10-18T06:58:43Z</time>
      </trkpt>
      <trkpt lat="43.60278" lon="1.32594">
        <ele>182.2</ele>
        <time>2025-10-18T06:58:44Z</time>
      </trkpt>
      <trkpt lat="43.60283" lon="1.32601">
        <ele>182</ele>
        <time>2025-10-18T06:58:45Z</time>
      </trkpt>
      <trkpt lat="43.60288" lon="1.32607">
        <ele>182.2</ele>
        <time>2025-10-18T06:58:46Z</time>
      </trkpt>
      <trkpt lat="43.60294" lon="1.32612">
        <ele>182.2</ele>
        <time>2025-10-18T06:58:47Z</time>
      </trkpt>
      <trkpt lat="43.60299" lon="1.32614">
        <ele>182.2</ele>
        <time>2025-10-18T06:58:48Z</time>
      </trkpt>
      <trkpt lat="43.60306" lon="1.32614">
        <ele>182.2</ele>
        <time>2025-10-18T06:58:49Z</time>
      </trkpt>
      <trkpt lat="43.60313" lon="1.32613">
        <ele>182.4</ele>
        <time>2025-10-18T06:58:50Z</time>
      </trkpt>
      <trkpt lat="43.60319" lon="1.32612">
        <ele>182.4</ele>
        <time>2025-10-18T06:58:51Z</time>
      </trkpt>
      <trkpt lat="43.60325" lon="1.32611">
        <ele>182.4</ele>
        <time>2025-10-18T06:58:52Z</time>
      </trkpt>
      <trkpt lat="43.60332" lon="1.3261">
        <ele>182.4</ele>
        <time>2025-10-18T06:58:53Z</time>
      </trkpt>
      <trkpt lat="43.60339" lon="1.32609">
        <ele>182.4</ele>
        <time>2025-10-18T06:58:54Z</time>
      </trkpt>
      <trkpt lat="43.60346" lon="1.32608">
        <ele>182.4</ele>
        <time>2025-10-18T06:58:55Z</time>
      </trkpt>
      <trkpt lat="43.60352" lon="1.32607">
        <ele>182.4</ele>
        <time>2025-10-18T06:58:56Z</time>
      </trkpt>
      <trkpt lat="43.60357" lon="1.32602">
        <ele>182.4</ele>
        <time>2025-10-18T06:58:57Z</time>
      </trkpt>
      <trkpt lat="43.60361" lon="1.32596">
        <ele>182.6</ele>
        <time>2025-10-18T06:58:58Z</time>
      </trkpt>
      <trkpt lat="43.60364" lon="1.32588">
        <ele>182.6</ele>
        <time>2025-10-18T06:58:59Z</time>
      </trkpt>
      <trkpt lat="43.60368" lon="1.32581">
        <ele>182.6</ele>
        <time>2025-10-18T06:59:00Z</time>
      </trkpt>
      <trkpt lat="43.60372" lon="1.32574">
        <ele>182.6</ele>
        <time>2025-10-18T06:59:01Z</time>
      </trkpt>
      <trkpt lat="43.60377" lon="1.32567">
        <ele>182.6</ele>
        <time>2025-10-18T06:59:02Z</time>
      </trkpt>
      <trkpt lat="43.6038" lon="1.3256">
        <ele>182.4</ele>
        <time>2025-10-18T06:59:03Z</time>
      </trkpt>
      <trkpt lat="43.60385" lon="1.32552">
        <ele>182.4</ele>
        <time>2025-10-18T06:59:04Z</time>
      </trkpt>
      <trkpt lat="43.60388" lon="1.32545">
        <ele>182.2</ele>
        <time>2025-10-18T06:59:05Z</time>
      </trkpt>
      <trkpt lat="43.60392" lon="1.32537">
        <ele>182.2</ele>
        <time>2025-10-18T06:59:06Z</time>
      </trkpt>
      <trkpt lat="43.60395" lon="1.32529">
        <ele>182.2</ele>
        <time>2025-10-18T06:59:07Z</time>
      </trkpt>
      <trkpt lat="43.60399" lon="1.32522">
        <ele>182</ele>
        <time>2025-10-18T06:59:08Z</time>
      </trkpt>
      <trkpt lat="43.60403" lon="1.32514">
        <ele>182</ele>
        <time>2025-10-18T06:59:09Z</time>
      </trkpt>
      <trkpt lat="43.60407" lon="1.32507">
        <ele>182</ele>
        <time>2025-10-18T06:59:10Z</time>
      </trkpt>
      <trkpt lat="43.60411" lon="1.325">
        <ele>182</ele>
        <time>2025-10-18T06:59:11Z</time>
      </trkpt>
      <trkpt lat="43.60415" lon="1.32493">
        <ele>182.2</ele>
        <time>2025-10-18T06:59:12Z</time>
      </trkpt>
      <trkpt lat="43.60419" lon="1.32485">
        <ele>182.2</ele>
        <time>2025-10-18T06:59:13Z</time>
      </trkpt>
      <trkpt lat="43.60423" lon="1.32477">
        <ele>182.4</ele>
        <time>2025-10-18T06:59:14Z</time>
      </trkpt>
      <trkpt lat="43.60427" lon="1.32469">
        <ele>182.4</ele>
        <time>2025-10-18T06:59:15Z</time>
      </trkpt>
      <trkpt lat="43.60431" lon="1.32462">
        <ele>182.4</ele>
        <time>2025-10-18T06:59:16Z</time>
      </trkpt>
      <trkpt lat="43.60435" lon="1.32454">
        <ele>182.6</ele>
        <time>2025-10-18T06:59:17Z</time>
      </trkpt>
      <trkpt lat="43.60439" lon="1.32446">
        <ele>182.6</ele>
        <time>2025-10-18T06:59:18Z</time>
      </trkpt>
      <trkpt lat="43.60443" lon="1.32439">
        <ele>182.6</ele>
        <time>2025-10-18T06:59:19Z</time>
      </trkpt>
      <trkpt lat="43.60447" lon="1.32431">
        <ele>182.6</ele>
        <time>2025-10-18T06:59:20Z</time>
      </trkpt>
      <trkpt lat="43.60451" lon="1.32423">
        <ele>182.4</ele>
        <time>2025-10-18T06:59:21Z</time>
      </trkpt>
      <trkpt lat="43.60455" lon="1.32415">
        <ele>182.4</ele>
        <time>2025-10-18T06:59:22Z</time>
      </trkpt>
      <trkpt lat="43.60459" lon="1.32408">
        <ele>182.4</ele>
        <time>2025-10-18T06:59:23Z</time>
      </trkpt>
      <trkpt lat="43.60464" lon="1.32401">
        <ele>182.4</ele>
        <time>2025-10-18T06:59:24Z</time>
      </trkpt>
      <trkpt lat="43.60469" lon="1.32395">
        <ele>182.2</ele>
        <time>2025-10-18T06:59:25Z</time>
      </trkpt>
      <trkpt lat="43.60474" lon="1.32389">
        <ele>182.2</ele>
        <time>2025-10-18T06:59:26Z</time>
      </trkpt>
      <trkpt lat="43.60479" lon="1.32385">
        <ele>182.2</ele>
        <time>2025-10-18T06:59:27Z</time>
      </trkpt>
      <trkpt lat="43.60485" lon="1.32381">
        <ele>182.2</ele>
        <time>2025-10-18T06:59:28Z</time>
      </trkpt>
      <trkpt lat="43.6049" lon="1.32378">
        <ele>182.2</ele>
        <time>2025-10-18T06:59:29Z</time>
      </trkpt>
      <trkpt lat="43.60496" lon="1.32376">
        <ele>182.4</ele>
        <time>2025-10-18T06:59:30Z</time>
      </trkpt>
      <trkpt lat="43.60501" lon="1.32375">
        <ele>182.6</ele>
        <time>2025-10-18T06:59:31Z</time>
      </trkpt>
      <trkpt lat="43.60504" lon="1.32375">
        <ele>183</ele>
        <time>2025-10-18T06:59:32Z</time>
      </trkpt>
      <trkpt lat="43.60507" lon="1.32377">
        <ele>183.2</ele>
        <time>2025-10-18T06:59:33Z</time>
      </trkpt>
      <trkpt lat="43.60509" lon="1.32378">
        <ele>183.4</ele>
        <time>2025-10-18T06:59:34Z</time>
      </trkpt>
      <trkpt lat="43.60512" lon="1.3238">
        <ele>183.8</ele>
        <time>2025-10-18T06:59:35Z</time>
      </trkpt>
      <trkpt lat="43.60515" lon="1.32382">
        <ele>184</ele>
        <time>2025-10-18T06:59:36Z</time>
      </trkpt>
      <trkpt lat="43.60519" lon="1.32384">
        <ele>184.2</ele>
        <time>2025-10-18T06:59:37Z</time>
      </trkpt>
      <trkpt lat="43.60523" lon="1.32387">
        <ele>184.2</ele>
        <time>2025-10-18T06:59:38Z</time>
      </trkpt>
      <trkpt lat="43.60527" lon="1.32389">
        <ele>184.2</ele>
        <time>2025-10-18T06:59:39Z</time>
      </trkpt>
      <trkpt lat="43.60532" lon="1.3239">
        <ele>184.2</ele>
        <time>2025-10-18T06:59:40Z</time>
      </trkpt>
      <trkpt lat="43.60537" lon="1.32388">
        <ele>184</ele>
        <time>2025-10-18T06:59:41Z</time>
      </trkpt>
      <trkpt lat="43.60541" lon="1.32384">
        <ele>184</ele>
        <time>2025-10-18T06:59:42Z</time>
      </trkpt>
      <trkpt lat="43.60545" lon="1.3238">
        <ele>184</ele>
        <time>2025-10-18T06:59:43Z</time>
      </trkpt>
      <trkpt lat="43.60549" lon="1.32375">
        <ele>184</ele>
        <time>2025-10-18T06:59:44Z</time>
      </trkpt>
      <trkpt lat="43.60554" lon="1.32371">
        <ele>183.8</ele>
        <time>2025-10-18T06:59:45Z</time>
      </trkpt>
      <trkpt lat="43.60559" lon="1.32368">
        <ele>183.6</ele>
        <time>2025-10-18T06:59:46Z</time>
      </trkpt>
      <trkpt lat="43.60565" lon="1.32366">
        <ele>183.4</ele>
        <time>2025-10-18T06:59:47Z</time>
      </trkpt>
      <trkpt lat="43.60572" lon="1.32365">
        <ele>183.2</ele>
        <time>2025-10-18T06:59:48Z</time>
      </trkpt>
      <trkpt lat="43.60578" lon="1.32364">
        <ele>183</ele>
        <time>2025-10-18T06:59:49Z</time>
      </trkpt>
      <trkpt lat="43.60585" lon="1.32363">
        <ele>182.8</ele>
        <time>2025-10-18T06:59:50Z</time>
      </trkpt>
      <trkpt lat="43.60592" lon="1.32366">
        <ele>182.6</ele>
        <time>2025-10-18T06:59:51Z</time>
      </trkpt>
      <trkpt lat="43.60597" lon="1.32371">
        <ele>182.4</ele>
        <time>2025-10-18T06:59:52Z</time>
      </trkpt>
      <trkpt lat="43.60602" lon="1.32376">
        <ele>182.2</ele>
        <time>2025-10-18T06:59:53Z</time>
      </trkpt>
      <trkpt lat="43.60608" lon="1.32381">
        <ele>182.2</ele>
        <time>2025-10-18T06:59:54Z</time>
      </trkpt>
      <trkpt lat="43.60614" lon="1.32387">
        <ele>182.2</ele>
        <time>2025-10-18T06:59:55Z</time>
      </trkpt>
      <trkpt lat="43.60619" lon="1.32393">
        <ele>182</ele>
        <time>2025-10-18T06:59:56Z</time>
      </trkpt>
      <trkpt lat="43.60625" lon="1.32398">
        <ele>182</ele>
        <time>2025-10-18T06:59:57Z</time>
      </trkpt>
      <trkpt lat="43.6063" lon="1.32404">
        <ele>181.8</ele>
        <time>2025-10-18T06:59:58Z</time>
      </trkpt>
      <trkpt lat="43.60635" lon="1.3241">
        <ele>181.8</ele>
        <time>2025-10-18T06:59:59Z</time>
      </trkpt>
      <trkpt lat="43.6064" lon="1.32416">
        <ele>181.8</ele>
        <time>2025-10-18T07:00:00Z</time>
      </trkpt>
      <trkpt lat="43.60645" lon="1.32422">
        <ele>181.8</ele>
        <time>2025-10-18T07:00:01Z</time>
      </trkpt>
      <trkpt lat="43.60651" lon="1.32427">
        <ele>181.8</ele>
        <time>2025-10-18T07:00:02Z</time>
      </trkpt>
      <trkpt lat="43.60657" lon="1.3243">
        <ele>181.8</ele>
        <time>2025-10-18T07:00:03Z</time>
      </trkpt>
      <trkpt lat="43.60664" lon="1.32432">
        <ele>181.8</ele>
        <time>2025-10-18T07:00:04Z</time>
      </trkpt>
      <trkpt lat="43.60671" lon="1.32432">
        <ele>181.6</ele>
        <time>2025-10-18T07:00:05Z</time>
      </trkpt>
      <trkpt lat="43.60679" lon="1.32431">
        <ele>181.6</ele>
        <time>2025-10-18T07:00:06Z</time>
      </trkpt>
      <trkpt lat="43.60685" lon="1.3243">
        <ele>181.8</ele>
        <time>2025-10-18T07:00:07Z</time>
      </trkpt>
      <trkpt lat="43.60691" lon="1.32428">
        <ele>181.8</ele>
        <time>2025-10-18T07:00:08Z</time>
      </trkpt>
      <trkpt lat="43.60696" lon="1.32427">
        <ele>181.8</ele>
        <time>2025-10-18T07:00:09Z</time>
      </trkpt>
      <trkpt lat="43.60701" lon="1.32427">
        <ele>182</ele>
        <time>2025-10-18T07:00:10Z</time>
      </trkpt>
      <trkpt lat="43.60708" lon="1.32426">
        <ele>182</ele>
        <time>2025-10-18T07:00:11Z</time>
      </trkpt>
      <trkpt lat="43.60714" lon="1.32422">
        <ele>182.2</ele>
        <time>2025-10-18T07:00:12Z</time>
      </trkpt>
      <trkpt lat="43.60719" lon="1.32416">
        <ele>182.2</ele>
        <time>2025-10-18T07:00:13Z</time>
      </trkpt>
      <trkpt lat="43.60725" lon="1.3241">
        <ele>182.2</ele>
        <time>2025-10-18T07:00:14Z</time>
      </trkpt>
      <trkpt lat="43.60732" lon="1.32406">
        <ele>182</ele>
        <time>2025-10-18T07:00:15Z</time>
      </trkpt>
      <trkpt lat="43.60738" lon="1.32401">
        <ele>182</ele>
        <time>2025-10-18T07:00:16Z</time>
      </trkpt>
      <trkpt lat="43.60742" lon="1.32394">
        <ele>181.8</ele>
        <time>2025-10-18T07:00:17Z</time>
      </trkpt>
      <trkpt lat="43.60745" lon="1.32384">
        <ele>181.8</ele>
        <time>2025-10-18T07:00:18Z</time>
      </trkpt>
      <trkpt lat="43.60747" lon="1.32376">
        <ele>181.8</ele>
        <time>2025-10-18T07:00:19Z</time>
      </trkpt>
      <trkpt lat="43.60751" lon="1.32367">
        <ele>181.8</ele>
        <time>2025-10-18T07:00:20Z</time>
      </trkpt>
      <trkpt lat="43.60755" lon="1.32361">
        <ele>181.8</ele>
        <time>2025-10-18T07:00:21Z</time>
      </trkpt>
      <trkpt lat="43.6076" lon="1.32355">
        <ele>181.8</ele>
        <time>2025-10-18T07:00:22Z</time>
      </trkpt>
      <trkpt lat="43.60764" lon="1.3235">
        <ele>181.8</ele>
        <time>2025-10-18T07:00:23Z</time>
      </trkpt>
      <trkpt lat="43.60768" lon="1.32344">
        <ele>181.8</ele>
        <time>2025-10-18T07:00:24Z</time>
      </trkpt>
      <trkpt lat="43.60772" lon="1.3234">
        <ele>182</ele>
        <time>2025-10-18T07:00:25Z</time>
      </trkpt>
      <trkpt lat="43.60777" lon="1.3234">
        <ele>182.2</ele>
        <time>2025-10-18T07:00:26Z</time>
      </trkpt>
      <trkpt lat="43.60781" lon="1.3234">
        <ele>182.4</ele>
        <time>2025-10-18T07:00:27Z</time>
      </trkpt>
      <trkpt lat="43.60786" lon="1.32341">
        <ele>182.4</ele>
        <time>2025-10-18T07:00:28Z</time>
      </trkpt>
      <trkpt lat="43.60791" lon="1.32343">
        <ele>182.6</ele>
        <time>2025-10-18T07:00:29Z</time>
      </trkpt>
      <trkpt lat="43.60797" lon="1.32344">
        <ele>182.6</ele>
        <time>2025-10-18T07:00:30Z</time>
      </trkpt>
      <trkpt lat="43.60802" lon="1.32345">
        <ele>182.6</ele>
        <time>2025-10-18T07:00:31Z</time>
      </trkpt>
      <trkpt lat="43.60808" lon="1.32344">
        <ele>182.4</ele>
        <time>2025-10-18T07:00:32Z</time>
      </trkpt>
      <trkpt lat="43.60814" lon="1.32343">
        <ele>182.4</ele>
        <time>2025-10-18T07:00:33Z</time>
      </trkpt>
      <trkpt lat="43.6082" lon="1.32342">
        <ele>182.4</ele>
        <time>2025-10-18T07:00:34Z</time>
      </trkpt>
      <trkpt lat="43.60825" lon="1.3234">
        <ele>182.2</ele>
        <time>2025-10-18T07:00:35Z</time>
      </trkpt>
      <trkpt lat="43.60831" lon="1.32338">
        <ele>182.2</ele>
        <time>2025-10-18T07:00:36Z</time>
      </trkpt>
      <trkpt lat="43.60837" lon="1.32335">
        <ele>182.2</ele>
        <time>2025-10-18T07:00:37Z</time>
      </trkpt>
      <trkpt lat="43.60842" lon="1.32332">
        <ele>182.4</ele>
        <time>2025-10-18T07:00:38Z</time>
      </trkpt>
      <trkpt lat="43.60848" lon="1.32328">
        <ele>182.4</ele>
        <time>2025-10-18T07:00:39Z</time>
      </trkpt>
      <trkpt lat="43.60854" lon="1.32323">
        <ele>182.6</ele>
        <time>2025-10-18T07:00:40Z</time>
      </trkpt>
      <trkpt lat="43.60859" lon="1.3232">
        <ele>182.6</ele>
        <time>2025-10-18T07:00:41Z</time>
      </trkpt>
      <trkpt lat="43.60865" lon="1.32317">
        <ele>182.6</ele>
        <time>2025-10-18T07:00:42Z</time>
      </trkpt>
      <trkpt lat="43.60871" lon="1.32316">
        <ele>182.6</ele>
        <time>2025-10-18T07:00:43Z</time>
      </trkpt>
      <trkpt lat="43.60877" lon="1.32318">
        <ele>182.6</ele>
        <time>2025-10-18T07:00:44Z</time>
      </trkpt>
      <trkpt lat="43.60883" lon="1.32319">
        <ele>182.6</ele>
        <time>2025-10-18T07:00:45Z</time>
      </trkpt>
      <trkpt lat="43.60888" lon="1.32318">
        <ele>182.6</ele>
        <time>2025-10-18T07:00:46Z</time>
      </trkpt>
      <trkpt lat="43.60893" lon="1.32314">
        <ele>182.4</ele>
        <time>2025-10-18T07:00:47Z</time>
      </trkpt>
      <trkpt lat="43.60898" lon="1.3231">
        <ele>182.4</ele>
        <time>2025-10-18T07:00:48Z</time>
      </trkpt>
      <trkpt lat="43.60903" lon="1.32308">
        <ele>182.2</ele>
        <time>2025-10-18T07:00:49Z</time>
      </trkpt>
      <trkpt lat="43.60909" lon="1.32305">
        <ele>182</ele>
        <time>2025-10-18T07:00:50Z</time>
      </trkpt>
      <trkpt lat="43.60915" lon="1.32302">
        <ele>181.8</ele>
        <time>2025-10-18T07:00:51Z</time>
      </trkpt>
      <trkpt lat="43.6092" lon="1.32299">
        <ele>181.8</ele>
        <time>2025-10-18T07:00:52Z</time>
      </trkpt>
      <trkpt lat="43.60926" lon="1.32296">
        <ele>181.6</ele>
        <time>2025-10-18T07:00:53Z</time>
      </trkpt>
      <trkpt lat="43.60931" lon="1.32292">
        <ele>181.6</ele>
        <time>2025-10-18T07:00:54Z</time>
      </trkpt>
      <trkpt lat="43.60937" lon="1.32287">
        <ele>181.4</ele>
        <time>2025-10-18T07:00:55Z</time>
      </trkpt>
      <trkpt lat="43.60942" lon="1.32282">
        <ele>181.4</ele>
        <time>2025-10-18T07:00:56Z</time>
      </trkpt>
      <trkpt lat="43.60947" lon="1.32277">
        <ele>181.4</ele>
        <time>2025-10-18T07:00:57Z</time>
      </trkpt>
      <trkpt lat="43.60952" lon="1.32271">
        <ele>181.2</ele>
        <time>2025-10-18T07:00:58Z</time>
      </trkpt>
      <trkpt lat="43.60957" lon="1.32265">
        <ele>181.2</ele>
        <time>2025-10-18T07:00:59Z</time>
      </trkpt>
      <trkpt lat="43.60963" lon="1.3226">
        <ele>181.2</ele>
        <time>2025-10-18T07:01:00Z</time>
      </trkpt>
      <trkpt lat="43.60968" lon="1.32254">
        <ele>181.4</ele>
        <time>2025-10-18T07:01:01Z</time>
      </trkpt>
      <trkpt lat="43.60973" lon="1.32248">
        <ele>181.4</ele>
        <time>2025-10-18T07:01:02Z</time>
      </trkpt>
      <trkpt lat="43.60978" lon="1.32243">
        <ele>181.4</ele>
        <time>2025-10-18T07:01:03Z</time>
      </trkpt>
      <trkpt lat="43.60983" lon="1.32238">
        <ele>181.2</ele>
        <time>2025-10-18T07:01:04Z</time>
      </trkpt>
      <trkpt lat="43.60989" lon="1.32234">
        <ele>181.2</ele>
        <time>2025-10-18T07:01:05Z</time>
      </trkpt>
      <trkpt lat="43.60994" lon="1.32231">
        <ele>181.2</ele>
        <time>2025-10-18T07:01:06Z</time>
      </trkpt>
      <trkpt lat="43.61" lon="1.32228">
        <ele>181.2</ele>
        <time>2025-10-18T07:01:07Z</time>
      </trkpt>
      <trkpt lat="43.61006" lon="1.32225">
        <ele>181.4</ele>
        <time>2025-10-18T07:01:08Z</time>
      </trkpt>
      <trkpt lat="43.61012" lon="1.32222">
        <ele>181.4</ele>
        <time>2025-10-18T07:01:09Z</time>
      </trkpt>
      <trkpt lat="43.61017" lon="1.32219">
        <ele>181.4</ele>
        <time>2025-10-18T07:01:10Z</time>
      </trkpt>
      <trkpt lat="43.61023" lon="1.32216">
        <ele>181.6</ele>
        <time>2025-10-18T07:01:11Z</time>
      </trkpt>
      <trkpt lat="43.61029" lon="1.32213">
        <ele>181.6</ele>
        <time>2025-10-18T07:01:12Z</time>
      </trkpt>
      <trkpt lat="43.61034" lon="1.3221">
        <ele>181.6</ele>
        <time>2025-10-18T07:01:13Z</time>
      </trkpt>
      <trkpt lat="43.6104" lon="1.32206">
        <ele>181.6</ele>
        <time>2025-10-18T07:01:14Z</time>
      </trkpt>
      <trkpt lat="43.61045" lon="1.32203">
        <ele>181.6</ele>
        <time>2025-10-18T07:01:15Z</time>
      </trkpt>
      <trkpt lat="43.6105" lon="1.322">
        <ele>181.6</ele>
        <time>2025-10-18T07:01:16Z</time>
      </trkpt>
      <trkpt lat="43.61054" lon="1.32195">
        <ele>181.6</ele>
        <time>2025-10-18T07:01:17Z</time>
      </trkpt>
      <trkpt lat="43.61057" lon="1.32191">
        <ele>181.6</ele>
        <time>2025-10-18T07:01:18Z</time>
      </trkpt>
      <trkpt lat="43.61062" lon="1.32187">
        <ele>181.8</ele>
        <time>2025-10-18T07:01:19Z</time>
      </trkpt>
      <trkpt lat="43.61066" lon="1.32182">
        <ele>181.8</ele>
        <time>2025-10-18T07:01:20Z</time>
      </trkpt>
      <trkpt lat="43.6107" lon="1.32178">
        <ele>181.8</ele>
        <time>2025-10-18T07:01:21Z</time>
      </trkpt>
      <trkpt lat="43.61075" lon="1.32173">
        <ele>181.8</ele>
        <time>2025-10-18T07:01:22Z</time>
      </trkpt>
      <trkpt lat="43.61079" lon="1.32169">
        <ele>181.8</ele>
        <time>2025-10-18T07:01:23Z</time>
      </trkpt>
      <trkpt lat="43.61084" lon="1.32165">
        <ele>181.8</ele>
        <time>2025-10-18T07:01:24Z</time>
      </trkpt>
      <trkpt lat="43.61089" lon="1.32159">
        <ele>181.8</ele>
        <time>2025-10-18T07:01:25Z</time>
      </trkpt>
      <trkpt lat="43.61094" lon="1.32154">
        <ele>181.8</ele>
        <time>2025-10-18T07:01:26Z</time>
      </trkpt>
      <trkpt lat="43.61098" lon="1.32148">
        <ele>181.6</ele>
        <time>2025-10-18T07:01:27Z</time>
      </trkpt>
      <trkpt lat="43.61102" lon="1.32141">
        <ele>181.4</ele>
        <time>2025-10-18T07:01:28Z</time>
      </trkpt>
      <trkpt lat="43.61106" lon="1.32135">
        <ele>181.4</ele>
        <time>2025-10-18T07:01:29Z</time>
      </trkpt>
      <trkpt lat="43.61111" lon="1.32128">
        <ele>181.2</ele>
        <time>2025-10-18T07:01:30Z</time>
      </trkpt>
      <trkpt lat="43.61115" lon="1.32122">
        <ele>181.2</ele>
        <time>2025-10-18T07:01:31Z</time>
      </trkpt>
      <trkpt lat="43.6112" lon="1.32116">
        <ele>181</ele>
        <time>2025-10-18T07:01:32Z</time>
      </trkpt>
      <trkpt lat="43.61125" lon="1.3211">
        <ele>181</ele>
        <time>2025-10-18T07:01:33Z</time>
      </trkpt>
      <trkpt lat="43.61127" lon="1.32103">
        <ele>181</ele>
        <time>2025-10-18T07:01:34Z</time>
      </trkpt>
      <trkpt lat="43.61127" lon="1.32096">
        <ele>181</ele>
        <time>2025-10-18T07:01:35Z</time>
      </trkpt>
      <trkpt lat="43.61126" lon="1.32089">
        <ele>181</ele>
        <time>2025-10-18T07:01:36Z</time>
      </trkpt>
      <trkpt lat="43.61126" lon="1.32082">
        <ele>181</ele>
        <time>2025-10-18T07:01:37Z</time>
      </trkpt>
      <trkpt lat="43.61127" lon="1.32076">
        <ele>181</ele>
        <time>2025-10-18T07:01:38Z</time>
      </trkpt>
      <trkpt lat="43.61131" lon="1.32073">
        <ele>180.8</ele>
        <time>2025-10-18T07:01:39Z</time>
      </trkpt>
      <trkpt lat="43.61135" lon="1.32069">
        <ele>180.6</ele>
        <time>2025-10-18T07:01:40Z</time>
      </trkpt>
      <trkpt lat="43.61139" lon="1.32065">
        <ele>180.2</ele>
        <time>2025-10-18T07:01:41Z</time>
      </trkpt>
      <trkpt lat="43.61142" lon="1.3206">
        <ele>180</ele>
        <time>2025-10-18T07:01:42Z</time>
      </trkpt>
      <trkpt lat="43.61143" lon="1.32054">
        <ele>179.8</ele>
        <time>2025-10-18T07:01:43Z</time>
      </trkpt>
      <trkpt lat="43.61142" lon="1.32051">
        <ele>179.8</ele>
        <time>2025-10-18T07:01:44Z</time>
      </trkpt>
      <trkpt lat="43.61141" lon="1.32045">
        <ele>179.6</ele>
        <time>2025-10-18T07:01:45Z</time>
      </trkpt>
      <trkpt lat="43.61143" lon="1.3204">
        <ele>179.6</ele>
        <time>2025-10-18T07:01:46Z</time>
      </trkpt>
      <trkpt lat="43.61144" lon="1.32035">
        <ele>179.4</ele>
        <time>2025-10-18T07:01:47Z</time>
      </trkpt>
      <trkpt lat="43.61146" lon="1.32029">
        <ele>179.2</ele>
        <time>2025-10-18T07:01:48Z</time>
      </trkpt>
      <trkpt lat="43.61148" lon="1.32021">
        <ele>179</ele>
        <time>2025-10-18T07:01:49Z</time>
      </trkpt>
      <trkpt lat="43.61152" lon="1.32016">
        <ele>178.6</ele>
        <time>2025-10-18T07:01:50Z</time>
      </trkpt>
      <trkpt lat="43.61156" lon="1.32011">
        <ele>178.4</ele>
        <time>2025-10-18T07:01:51Z</time>
      </trkpt>
      <trkpt lat="43.61161" lon="1.32006">
        <ele>178.4</ele>
        <time>2025-10-18T07:01:52Z</time>
      </trkpt>
      <trkpt lat="43.61165" lon="1.32001">
        <ele>178.2</ele>
        <time>2025-10-18T07:01:53Z</time>
      </trkpt>
      <trkpt lat="43.6117" lon="1.31996">
        <ele>178</ele>
        <time>2025-10-18T07:01:54Z</time>
      </trkpt>
      <trkpt lat="43.61175" lon="1.3199">
        <ele>177.8</ele>
        <time>2025-10-18T07:01:55Z</time>
      </trkpt>
      <trkpt lat="43.61179" lon="1.31986">
        <ele>177.6</ele>
        <time>2025-10-18T07:01:56Z</time>
      </trkpt>
      <trkpt lat="43.61184" lon="1.31986">
        <ele>177.6</ele>
        <time>2025-10-18T07:01:57Z</time>
      </trkpt>
      <trkpt lat="43.61188" lon="1.31986">
        <ele>177.6</ele>
        <time>2025-10-18T07:01:58Z</time>
      </trkpt>
      <trkpt lat="43.6119" lon="1.3199">
        <ele>177.6</ele>
        <time>2025-10-18T07:01:59Z</time>
      </trkpt>
      <trkpt lat="43.61192" lon="1.31995">
        <ele>177.6</ele>
        <time>2025-10-18T07:02:00Z</time>
      </trkpt>
      <trkpt lat="43.61194" lon="1.32">
        <ele>177.8</ele>
        <time>2025-10-18T07:02:01Z</time>
      </trkpt>
      <trkpt lat="43.61196" lon="1.32004">
        <ele>178.2</ele>
        <time>2025-10-18T07:02:02Z</time>
      </trkpt>
      <trkpt lat="43.612" lon="1.32006">
        <ele>178.4</ele>
        <time>2025-10-18T07:02:03Z</time>
      </trkpt>
      <trkpt lat="43.61205" lon="1.32008">
        <ele>178.6</ele>
        <time>2025-10-18T07:02:04Z</time>
      </trkpt>
      <trkpt lat="43.61208" lon="1.32008">
        <ele>178.8</ele>
        <time>2025-10-18T07:02:05Z</time>
      </trkpt>
      <trkpt lat="43.61213" lon="1.32008">
        <ele>179.2</ele>
        <time>2025-10-18T07:02:06Z</time>
      </trkpt>
      <trkpt lat="43.61217" lon="1.32008">
        <ele>179.4</ele>
        <time>2025-10-18T07:02:07Z</time>
      </trkpt>
      <trkpt lat="43.61221" lon="1.32009">
        <ele>179.6</ele>
        <time>2025-10-18T07:02:08Z</time>
      </trkpt>
      <trkpt lat="43.61226" lon="1.32009">
        <ele>179.8</ele>
        <time>2025-10-18T07:02:09Z</time>
      </trkpt>
      <trkpt lat="43.61229" lon="1.32009">
        <ele>180</ele>
        <time>2025-10-18T07:02:10Z</time>
      </trkpt>
      <trkpt lat="43.61231" lon="1.3201">
        <ele>180.2</ele>
        <time>2025-10-18T07:02:11Z</time>
      </trkpt>
      <trkpt lat="43.61233" lon="1.32011">
        <ele>180.2</ele>
        <time>2025-10-18T07:02:12Z</time>
      </trkpt>
      <trkpt lat="43.61235" lon="1.32012">
        <ele>180.2</ele>
        <time>2025-10-18T07:02:13Z</time>
      </trkpt>
      <trkpt lat="43.61237" lon="1.32016">
        <ele>180.2</ele>
        <time>2025-10-18T07:02:14Z</time>
      </trkpt>
      <trkpt lat="43.61239" lon="1.3202">
        <ele>180</ele>
        <time>2025-10-18T07:02:15Z</time>
      </trkpt>
      <trkpt lat="43.6124" lon="1.32025">
        <ele>179.8</ele>
        <time>2025-10-18T07:02:16Z</time>
      </trkpt>
      <trkpt lat="43.61242" lon="1.32031">
        <ele>179.6</ele>
        <time>2025-10-18T07:02:17Z</time>
      </trkpt>
      <trkpt lat="43.61244" lon="1.32037">
        <ele>179.6</ele>
        <time>2025-10-18T07:02:18Z</time>
      </trkpt>
      <trkpt lat="43.61247" lon="1.32044">
        <ele>179.4</ele>
        <time>2025-10-18T07:02:19Z</time>
      </trkpt>
      <trkpt lat="43.61249" lon="1.3205">
        <ele>179.4</ele>
        <time>2025-10-18T07:02:20Z</time>
      </trkpt>
      <trkpt lat="43.61252" lon="1.32057">
        <ele>179.2</ele>
        <time>2025-10-18T07:02:21Z</time>
      </trkpt>
      <trkpt lat="43.61255" lon="1.32063">
        <ele>179</ele>
        <time>2025-10-18T07:02:22Z</time>
      </trkpt>
      <trkpt lat="43.61258" lon="1.3207">
        <ele>178.8</ele>
        <time>2025-10-18T07:02:23Z</time>
      </trkpt>
      <trkpt lat="43.61262" lon="1.32078">
        <ele>178.4</ele>
        <time>2025-10-18T07:02:24Z</time>
      </trkpt>
      <trkpt lat="43.61266" lon="1.32086">
        <ele>178.2</ele>
        <time>2025-10-18T07:02:25Z</time>
      </trkpt>
      <trkpt lat="43.6127" lon="1.32094">
        <ele>177.8</ele>
        <time>2025-10-18T07:02:26Z</time>
      </trkpt>
      <trkpt lat="43.61274" lon="1.32102">
        <ele>177.4</ele>
        <time>2025-10-18T07:02:27Z</time>
      </trkpt>
      <trkpt lat="43.61277" lon="1.32111">
        <ele>177</ele>
        <time>2025-10-18T07:02:28Z</time>
      </trkpt>
      <trkpt lat="43.61281" lon="1.3212">
        <ele>176.6</ele>
        <time>2025-10-18T07:02:29Z</time>
      </trkpt>
      <trkpt lat="43.61284" lon="1.32128">
        <ele>176.4</ele>
        <time>2025-10-18T07:02:30Z</time>
      </trkpt>
      <trkpt lat="43.61287" lon="1.32136">
        <ele>176.4</ele>
        <time>2025-10-18T07:02:31Z</time>
      </trkpt>
      <trkpt lat="43.61289" lon="1.32144">
        <ele>176.6</ele>
        <time>2025-10-18T07:02:32Z</time>
      </trkpt>
      <trkpt lat="43.61291" lon="1.32152">
        <ele>177</ele>
        <time>2025-10-18T07:02:33Z</time>
      </trkpt>
      <trkpt lat="43.61292" lon="1.32159">
        <ele>177.2</ele>
        <time>2025-10-18T07:02:34Z</time>
      </trkpt>
      <trkpt lat="43.61294" lon="1.32166">
        <ele>177.8</ele>
        <time>2025-10-18T07:02:35Z</time>
      </trkpt>
      <trkpt lat="43.61295" lon="1.32173">
        <ele>178.2</ele>
        <time>2025-10-18T07:02:36Z</time>
      </trkpt>
      <trkpt lat="43.61296" lon="1.3218">
        <ele>178.6</ele>
        <time>2025-10-18T07:02:37Z</time>
      </trkpt>
      <trkpt lat="43.61297" lon="1.32187">
        <ele>179</ele>
        <time>2025-10-18T07:02:38Z</time>
      </trkpt>
      <trkpt lat="43.61298" lon="1.32193">
        <ele>179.4</ele>
        <time>2025-10-18T07:02:39Z</time>
      </trkpt>
      <trkpt lat="43.61299" lon="1.322">
        <ele>179.8</ele>
        <time>2025-10-18T07:02:40Z</time>
      </trkpt>
      <trkpt lat="43.613" lon="1.32207">
        <ele>180.2</ele>
        <time>2025-10-18T07:02:41Z</time>
      </trkpt>
      <trkpt lat="43.61302" lon="1.32214">
        <ele>180.4</ele>
        <time>2025-10-18T07:02:42Z</time>
      </trkpt>
      <trkpt lat="43.61303" lon="1.32219">
        <ele>180.8</ele>
        <time>2025-10-18T07:02:43Z</time>
      </trkpt>
      <trkpt lat="43.61306" lon="1.32223">
        <ele>181</ele>
        <time>2025-10-18T07:02:44Z</time>
      </trkpt>
      <trkpt lat="43.6131" lon="1.32225">
        <ele>181.2</ele>
        <time>2025-10-18T07:02:45Z</time>
      </trkpt>
      <trkpt lat="43.61314" lon="1.32224">
        <ele>181.4</ele>
        <time>2025-10-18T07:02:46Z</time>
      </trkpt>
      <trkpt lat="43.61317" lon="1.3222">
        <ele>181.4</ele>
        <time>2025-10-18T07:02:47Z</time>
      </trkpt>
      <trkpt lat="43.6132" lon="1.32216">
        <ele>181.6</ele>
        <time>2025-10-18T07:02:48Z</time>
      </trkpt>
      <trkpt lat="43.61321" lon="1.32211">
        <ele>181.8</ele>
        <time>2025-10-18T07:02:49Z</time>
      </trkpt>
      <trkpt lat="43.61322" lon="1.32206">
        <ele>181.8</ele>
        <time>2025-10-18T07:02:50Z</time>
      </trkpt>
      <trkpt lat="43.61323" lon="1.32201">
        <ele>182</ele>
        <time>2025-10-18T07:02:51Z</time>
      </trkpt>
      <trkpt lat="43.61325" lon="1.32195">
        <ele>182</ele>
        <time>2025-10-18T07:02:52Z</time>
      </trkpt>
      <trkpt lat="43.61326" lon="1.32189">
        <ele>182</ele>
        <time>2025-10-18T07:02:53Z</time>
      </trkpt>
      <trkpt lat="43.61327" lon="1.32181">
        <ele>182</ele>
        <time>2025-10-18T07:02:54Z</time>
      </trkpt>
      <trkpt lat="43.61328" lon="1.32175">
        <ele>182</ele>
        <time>2025-10-18T07:02:55Z</time>
      </trkpt>
      <trkpt lat="43.61329" lon="1.32168">
        <ele>182</ele>
        <time>2025-10-18T07:02:56Z</time>
      </trkpt>
      <trkpt lat="43.6133" lon="1.32161">
        <ele>181.8</ele>
        <time>2025-10-18T07:02:57Z</time>
      </trkpt>
      <trkpt lat="43.61331" lon="1.32153">
        <ele>181.8</ele>
        <time>2025-10-18T07:02:58Z</time>
      </trkpt>
      <trkpt lat="43.61331" lon="1.32145">
        <ele>181.8</ele>
        <time>2025-10-18T07:02:59Z</time>
      </trkpt>
      <trkpt lat="43.61331" lon="1.32138">
        <ele>181.6</ele>
        <time>2025-10-18T07:03:00Z</time>
      </trkpt>
      <trkpt lat="43.61332" lon="1.32131">
        <ele>181.6</ele>
        <time>2025-10-18T07:03:01Z</time>
      </trkpt>
      <trkpt lat="43.61334" lon="1.32123">
        <ele>181.6</ele>
        <time>2025-10-18T07:03:02Z</time>
      </trkpt>
      <trkpt lat="43.61335" lon="1.32115">
        <ele>181.4</ele>
        <time>2025-10-18T07:03:03Z</time>
      </trkpt>
      <trkpt lat="43.61337" lon="1.32108">
        <ele>181.4</ele>
        <time>2025-10-18T07:03:04Z</time>
      </trkpt>
      <trkpt lat="43.61339" lon="1.321">
        <ele>181.2</ele>
        <time>2025-10-18T07:03:05Z</time>
      </trkpt>
      <trkpt lat="43.61341" lon="1.32092">
        <ele>181.2</ele>
        <time>2025-10-18T07:03:06Z</time>
      </trkpt>
      <trkpt lat="43.61344" lon="1.32084">
        <ele>181</ele>
        <time>2025-10-18T07:03:07Z</time>
      </trkpt>
      <trkpt lat="43.61346" lon="1.32076">
        <ele>181</ele>
        <time>2025-10-18T07:03:08Z</time>
      </trkpt>
      <trkpt lat="43.61348" lon="1.32068">
        <ele>181</ele>
        <time>2025-10-18T07:03:09Z</time>
      </trkpt>
      <trkpt lat="43.6135" lon="1.32061">
        <ele>181</ele>
        <time>2025-10-18T07:03:10Z</time>
      </trkpt>
      <trkpt lat="43.61353" lon="1.32053">
        <ele>181</ele>
        <time>2025-10-18T07:03:11Z</time>
      </trkpt>
      <trkpt lat="43.61355" lon="1.32046">
        <ele>181</ele>
        <time>2025-10-18T07:03:12Z</time>
      </trkpt>
      <trkpt lat="43.61357" lon="1.32038">
        <ele>181.2</ele>
        <time>2025-10-18T07:03:13Z</time>
      </trkpt>
      <trkpt lat="43.61359" lon="1.3203">
        <ele>181.2</ele>
        <time>2025-10-18T07:03:14Z</time>
      </trkpt>
      <trkpt lat="43.61362" lon="1.32022">
        <ele>181.2</ele>
        <time>2025-10-18T07:03:15Z</time>
      </trkpt>
      <trkpt lat="43.61364" lon="1.32014">
        <ele>181</ele>
        <time>2025-10-18T07:03:16Z</time>
      </trkpt>
      <trkpt lat="43.61367" lon="1.32006">
        <ele>180.8</ele>
        <time>2025-10-18T07:03:17Z</time>
      </trkpt>
      <trkpt lat="43.6137" lon="1.31998">
        <ele>180.8</ele>
        <time>2025-10-18T07:03:18Z</time>
      </trkpt>
      <trkpt lat="43.61372" lon="1.31989">
        <ele>180.6</ele>
        <time>2025-10-18T07:03:19Z</time>
      </trkpt>
      <trkpt lat="43.61374" lon="1.31981">
        <ele>180.6</ele>
        <time>2025-10-18T07:03:20Z</time>
      </trkpt>
      <trkpt lat="43.61376" lon="1.31972">
        <ele>180.6</ele>
        <time>2025-10-18T07:03:21Z</time>
      </trkpt>
      <trkpt lat="43.61377" lon="1.31964">
        <ele>180.4</ele>
        <time>2025-10-18T07:03:22Z</time>
      </trkpt>
      <trkpt lat="43.61379" lon="1.31956">
        <ele>180.4</ele>
        <time>2025-10-18T07:03:23Z</time>
      </trkpt>
      <trkpt lat="43.61382" lon="1.31948">
        <ele>180.2</ele>
        <time>2025-10-18T07:03:24Z</time>
      </trkpt>
      <trkpt lat="43.61384" lon="1.3194">
        <ele>180.2</ele>
        <time>2025-10-18T07:03:25Z</time>
      </trkpt>
      <trkpt lat="43.61388" lon="1.31934">
        <ele>180</ele>
        <time>2025-10-18T07:03:26Z</time>
      </trkpt>
      <trkpt lat="43.61393" lon="1.31928">
        <ele>180</ele>
        <time>2025-10-18T07:03:27Z</time>
      </trkpt>
      <trkpt lat="43.61399" lon="1.31925">
        <ele>179.8</ele>
        <time>2025-10-18T07:03:28Z</time>
      </trkpt>
      <trkpt lat="43.61406" lon="1.31924">
        <ele>179.8</ele>
        <time>2025-10-18T07:03:29Z</time>
      </trkpt>
      <trkpt lat="43.61411" lon="1.31923">
        <ele>179.8</ele>
        <time>2025-10-18T07:03:30Z</time>
      </trkpt>
      <trkpt lat="43.61415" lon="1.31922">
        <ele>180</ele>
        <time>2025-10-18T07:03:31Z</time>
      </trkpt>
      <trkpt lat="43.61419" lon="1.31921">
        <ele>180</ele>
        <time>2025-10-18T07:03:32Z</time>
      </trkpt>
      <trkpt lat="43.6142" lon="1.31917">
        <ele>180.2</ele>
        <time>2025-10-18T07:03:33Z</time>
      </trkpt>
      <trkpt lat="43.61421" lon="1.31913">
        <ele>180.4</ele>
        <time>2025-10-18T07:03:34Z</time>
      </trkpt>
      <trkpt lat="43.61422" lon="1.31908">
        <ele>180.4</ele>
        <time>2025-10-18T07:03:35Z</time>
      </trkpt>
      <trkpt lat="43.61423" lon="1.31903">
        <ele>180.4</ele>
        <time>2025-10-18T07:03:36Z</time>
      </trkpt>
      <trkpt lat="43.61424" lon="1.31897">
        <ele>180.6</ele>
        <time>2025-10-18T07:03:37Z</time>
      </trkpt>
      <trkpt lat="43.61425" lon="1.31891">
        <ele>180.4</ele>
        <time>2025-10-18T07:03:38Z</time>
      </trkpt>
      <trkpt lat="43.61426" lon="1.31883">
        <ele>180.4</ele>
        <time>2025-10-18T07:03:39Z</time>
      </trkpt>
      <trkpt lat="43.61427" lon="1.31876">
        <ele>180.2</ele>
        <time>2025-10-18T07:03:40Z</time>
      </trkpt>
      <trkpt lat="43.61428" lon="1.31868">
        <ele>180.2</ele>
        <time>2025-10-18T07:03:41Z</time>
      </trkpt>
      <trkpt lat="43.6143" lon="1.31861">
        <ele>180</ele>
        <time>2025-10-18T07:03:42Z</time>
      </trkpt>
      <trkpt lat="43.61432" lon="1.31853">
        <ele>180</ele>
        <time>2025-10-18T07:03:43Z</time>
      </trkpt>
      <trkpt lat="43.61436" lon="1.31845">
        <ele>179.6</ele>
        <time>2025-10-18T07:03:44Z</time>
      </trkpt>
      <trkpt lat="43.61439" lon="1.31838">
        <ele>179</ele>
        <time>2025-10-18T07:03:45Z</time>
      </trkpt>
      <trkpt lat="43.61441" lon="1.31829">
        <ele>178.8</ele>
        <time>2025-10-18T07:03:46Z</time>
      </trkpt>
      <trkpt lat="43.61444" lon="1.3182">
        <ele>178.2</ele>
        <time>2025-10-18T07:03:47Z</time>
      </trkpt>
      <trkpt lat="43.61448" lon="1.31811">
        <ele>177.8</ele>
        <time>2025-10-18T07:03:48Z</time>
      </trkpt>
      <trkpt lat="43.61451" lon="1.31802">
        <ele>177.2</ele>
        <time>2025-10-18T07:03:49Z</time>
      </trkpt>
      <trkpt lat="43.61454" lon="1.31793">
        <ele>176.6</ele>
        <time>2025-10-18T07:03:50Z</time>
      </trkpt>
      <trkpt lat="43.61457" lon="1.31784">
        <ele>176.2</ele>
        <time>2025-10-18T07:03:51Z</time>
      </trkpt>
      <trkpt lat="43.61459" lon="1.31774">
        <ele>176</ele>
        <time>2025-10-18T07:03:52Z</time>
      </trkpt>
      <trkpt lat="43.61461" lon="1.31764">
        <ele>175.4</ele>
        <time>2025-10-18T07:03:53Z</time>
      </trkpt>
      <trkpt lat="43.61464" lon="1.31753">
        <ele>174.8</ele>
        <time>2025-10-18T07:03:54Z</time>
      </trkpt>
      <trkpt lat="43.61467" lon="1.31743">
        <ele>174</ele>
        <time>2025-10-18T07:03:55Z</time>
      </trkpt>
      <trkpt lat="43.6147" lon="1.31733">
        <ele>173.4</ele>
        <time>2025-10-18T07:03:56Z</time>
      </trkpt>
      <trkpt lat="43.61472" lon="1.31723">
        <ele>173.2</ele>
        <time>2025-10-18T07:03:57Z</time>
      </trkpt>
      <trkpt lat="43.61474" lon="1.31712">
        <ele>172.8</ele>
        <time>2025-10-18T07:03:58Z</time>
      </trkpt>
      <trkpt lat="43.61477" lon="1.31702">
        <ele>172.6</ele>
        <time>2025-10-18T07:03:59Z</time>
      </trkpt>
      <trkpt lat="43.6148" lon="1.31692">
        <ele>172.2</ele>
        <time>2025-10-18T07:04:00Z</time>
      </trkpt>
      <trkpt lat="43.61485" lon="1.31684">
        <ele>171.8</ele>
        <time>2025-10-18T07:04:01Z</time>
      </trkpt>
      <trkpt lat="43.6149" lon="1.31678">
        <ele>171.6</ele>
        <time>2025-10-18T07:04:02Z</time>
      </trkpt>
      <trkpt lat="43.61495" lon="1.31671">
        <ele>171.4</ele>
        <time>2025-10-18T07:04:03Z</time>
      </trkpt>
      <trkpt lat="43.615" lon="1.31665">
        <ele>171</ele>
        <time>2025-10-18T07:04:04Z</time>
      </trkpt>
      <trkpt lat="43.61506" lon="1.31659">
        <ele>171</ele>
        <time>2025-10-18T07:04:05Z</time>
      </trkpt>
      <trkpt lat="43.61511" lon="1.31655">
        <ele>171</ele>
        <time>2025-10-18T07:04:06Z</time>
      </trkpt>
      <trkpt lat="43.61517" lon="1.31652">
        <ele>170.8</ele>
        <time>2025-10-18T07:04:07Z</time>
      </trkpt>
      <trkpt lat="43.61522" lon="1.31648">
        <ele>170.8</ele>
        <time>2025-10-18T07:04:08Z</time>
      </trkpt>
      <trkpt lat="43.61528" lon="1.31645">
        <ele>170.8</ele>
        <time>2025-10-18T07:04:09Z</time>
      </trkpt>
      <trkpt lat="43.61533" lon="1.31644">
        <ele>170.6</ele>
        <time>2025-10-18T07:04:10Z</time>
      </trkpt>
      <trkpt lat="43.61539" lon="1.31642">
        <ele>170.6</ele>
        <time>2025-10-18T07:04:11Z</time>
      </trkpt>
      <trkpt lat="43.61545" lon="1.3164">
        <ele>170.6</ele>
        <time>2025-10-18T07:04:12Z</time>
      </trkpt>
      <trkpt lat="43.61551" lon="1.31636">
        <ele>170.6</ele>
        <time>2025-10-18T07:04:13Z</time>
      </trkpt>
      <trkpt lat="43.61557" lon="1.31631">
        <ele>170.6</ele>
        <time>2025-10-18T07:04:14Z</time>
      </trkpt>
      <trkpt lat="43.61563" lon="1.31627">
        <ele>170.6</ele>
        <time>2025-10-18T07:04:15Z</time>
      </trkpt>
      <trkpt lat="43.61569" lon="1.31623">
        <ele>170.4</ele>
        <time>2025-10-18T07:04:16Z</time>
      </trkpt>
      <trkpt lat="43.61575" lon="1.31619">
        <ele>170.2</ele>
        <time>2025-10-18T07:04:17Z</time>
      </trkpt>
      <trkpt lat="43.61582" lon="1.31616">
        <ele>170.2</ele>
        <time>2025-10-18T07:04:18Z</time>
      </trkpt>
      <trkpt lat="43.61588" lon="1.31612">
        <ele>170.2</ele>
        <time>2025-10-18T07:04:19Z</time>
      </trkpt>
      <trkpt lat="43.61594" lon="1.31607">
        <ele>170</ele>
        <time>2025-10-18T07:04:20Z</time>
      </trkpt>
      <trkpt lat="43.616" lon="1.31602">
        <ele>170</ele>
        <time>2025-10-18T07:04:21Z</time>
      </trkpt>
      <trkpt lat="43.61605" lon="1.31596">
        <ele>170.2</ele>
        <time>2025-10-18T07:04:22Z</time>
      </trkpt>
      <trkpt lat="43.61611" lon="1.31591">
        <ele>170</ele>
        <time>2025-10-18T07:04:23Z</time>
      </trkpt>
      <trkpt lat="43.61616" lon="1.31586">
        <ele>170</ele>
        <time>2025-10-18T07:04:24Z</time>
      </trkpt>
      <trkpt lat="43.61622" lon="1.31581">
        <ele>170</ele>
        <time>2025-10-18T07:04:25Z</time>
      </trkpt>
      <trkpt lat="43.61627" lon="1.31577">
        <ele>169.8</ele>
        <time>2025-10-18T07:04:26Z</time>
      </trkpt>
      <trkpt lat="43.61633" lon="1.31572">
        <ele>169.8</ele>
        <time>2025-10-18T07:04:27Z</time>
      </trkpt>
      <trkpt lat="43.61639" lon="1.31569">
        <ele>169.6</ele>
        <time>2025-10-18T07:04:28Z</time>
      </trkpt>
      <trkpt lat="43.61644" lon="1.31564">
        <ele>169.6</ele>
        <time>2025-10-18T07:04:29Z</time>
      </trkpt>
      <trkpt lat="43.61649" lon="1.31559">
        <ele>169.6</ele>
        <time>2025-10-18T07:04:30Z</time>
      </trkpt>
      <trkpt lat="43.61654" lon="1.31557">
        <ele>169.6</ele>
        <time>2025-10-18T07:04:31Z</time>
      </trkpt>
      <trkpt lat="43.6166" lon="1.31554">
        <ele>169.6</ele>
        <time>2025-10-18T07:04:32Z</time>
      </trkpt>
      <trkpt lat="43.61666" lon="1.31552">
        <ele>169.6</ele>
        <time>2025-10-18T07:04:33Z</time>
      </trkpt>
      <trkpt lat="43.61672" lon="1.3155">
        <ele>169.6</ele>
        <time>2025-10-18T07:04:34Z</time>
      </trkpt>
      <trkpt lat="43.61678" lon="1.31549">
        <ele>169.4</ele>
        <time>2025-10-18T07:04:35Z</time>
      </trkpt>
      <trkpt lat="43.61684" lon="1.31547">
        <ele>169.2</ele>
        <time>2025-10-18T07:04:36Z</time>
      </trkpt>
      <trkpt lat="43.6169" lon="1.31545">
        <ele>169</ele>
        <time>2025-10-18T07:04:37Z</time>
      </trkpt>
      <trkpt lat="43.61696" lon="1.31543">
        <ele>169</ele>
        <time>2025-10-18T07:04:38Z</time>
      </trkpt>
      <trkpt lat="43.61703" lon="1.31542">
        <ele>168.8</ele>
        <time>2025-10-18T07:04:39Z</time>
      </trkpt>
      <trkpt lat="43.61709" lon="1.31541">
        <ele>168.6</ele>
        <time>2025-10-18T07:04:40Z</time>
      </trkpt>
      <trkpt lat="43.61715" lon="1.31539">
        <ele>168.4</ele>
        <time>2025-10-18T07:04:41Z</time>
      </trkpt>
      <trkpt lat="43.61722" lon="1.31537">
        <ele>168.2</ele>
        <time>2025-10-18T07:04:42Z</time>
      </trkpt>
      <trkpt lat="43.61728" lon="1.31535">
        <ele>168.2</ele>
        <time>2025-10-18T07:04:43Z</time>
      </trkpt>
      <trkpt lat="43.61733" lon="1.31532">
        <ele>168</ele>
        <time>2025-10-18T07:04:44Z</time>
      </trkpt>
      <trkpt lat="43.6174" lon="1.31529">
        <ele>167.8</ele>
        <time>2025-10-18T07:04:45Z</time>
      </trkpt>
      <trkpt lat="43.61745" lon="1.31526">
        <ele>167.4</ele>
        <time>2025-10-18T07:04:46Z</time>
      </trkpt>
      <trkpt lat="43.6175" lon="1.31523">
        <ele>167</ele>
        <time>2025-10-18T07:04:47Z</time>
      </trkpt>
      <trkpt lat="43.61755" lon="1.31522">
        <ele>166.6</ele>
        <time>2025-10-18T07:04:48Z</time>
      </trkpt>
      <trkpt lat="43.61762" lon="1.31522">
        <ele>166.6</ele>
        <time>2025-10-18T07:04:49Z</time>
      </trkpt>
      <trkpt lat="43.61768" lon="1.31521">
        <ele>166.6</ele>
        <time>2025-10-18T07:04:50Z</time>
      </trkpt>
      <trkpt lat="43.61773" lon="1.3152">
        <ele>166.8</ele>
        <time>2025-10-18T07:04:51Z</time>
      </trkpt>
      <trkpt lat="43.61777" lon="1.31519">
        <ele>167.2</ele>
        <time>2025-10-18T07:04:52Z</time>
      </trkpt>
      <trkpt lat="43.61782" lon="1.31517">
        <ele>167.6</ele>
        <time>2025-10-18T07:04:53Z</time>
      </trkpt>
      <trkpt lat="43.61787" lon="1.31515">
        <ele>167.8</ele>
        <time>2025-10-18T07:04:54Z</time>
      </trkpt>
      <trkpt lat="43.61792" lon="1.31513">
        <ele>168</ele>
        <time>2025-10-18T07:04:55Z</time>
      </trkpt>
      <trkpt lat="43.61798" lon="1.3151">
        <ele>167.8</ele>
        <time>2025-10-18T07:04:56Z</time>
      </trkpt>
      <trkpt lat="43.61804" lon="1.31508">
        <ele>167.8</ele>
        <time>2025-10-18T07:04:57Z</time>
      </trkpt>
      <trkpt lat="43.61811" lon="1.31505">
        <ele>167.6</ele>
        <time>2025-10-18T07:04:58Z</time>
      </trkpt>
      <trkpt lat="43.61817" lon="1.31502">
        <ele>167.4</ele>
        <time>2025-10-18T07:04:59Z</time>
      </trkpt>
      <trkpt lat="43.61823" lon="1.31499">
        <ele>167.4</ele>
        <time>2025-10-18T07:05:00Z</time>
      </trkpt>
      <trkpt lat="43.61829" lon="1.31496">
        <ele>167.2</ele>
        <time>2025-10-18T07:05:01Z</time>
      </trkpt>
      <trkpt lat="43.61835" lon="1.31493">
        <ele>167</ele>
        <time>2025-10-18T07:05:02Z</time>
      </trkpt>
      <trkpt lat="43.61841" lon="1.3149">
        <ele>167</ele>
        <time>2025-10-18T07:05:03Z</time>
      </trkpt>
      <trkpt lat="43.61848" lon="1.31487">
        <ele>166.8</ele>
        <time>2025-10-18T07:05:04Z</time>
      </trkpt>
      <trkpt lat="43.61855" lon="1.31484">
        <ele>166.6</ele>
        <time>2025-10-18T07:05:05Z</time>
      </trkpt>
      <trkpt lat="43.61862" lon="1.3148">
        <ele>166.4</ele>
        <time>2025-10-18T07:05:06Z</time>
      </trkpt>
      <trkpt lat="43.61868" lon="1.31477">
        <ele>166.2</ele>
        <time>2025-10-18T07:05:07Z</time>
      </trkpt>
      <trkpt lat="43.61875" lon="1.31473">
        <ele>166</ele>
        <time>2025-10-18T07:05:08Z</time>
      </trkpt>
      <trkpt lat="43.61881" lon="1.3147">
        <ele>166</ele>
        <time>2025-10-18T07:05:09Z</time>
      </trkpt>
      <trkpt lat="43.61887" lon="1.31466">
        <ele>165.8</ele>
        <time>2025-10-18T07:05:10Z</time>
      </trkpt>
      <trkpt lat="43.61894" lon="1.31461">
        <ele>165.6</ele>
        <time>2025-10-18T07:05:11Z</time>
      </trkpt>
      <trkpt lat="43.619" lon="1.31456">
        <ele>165.6</ele>
        <time>2025-10-18T07:05:12Z</time>
      </trkpt>
      <trkpt lat="43.61906" lon="1.31452">
        <ele>165.4</ele>
        <time>2025-10-18T07:05:13Z</time>
      </trkpt>
      <trkpt lat="43.61912" lon="1.31447">
        <ele>165.2</ele>
        <time>2025-10-18T07:05:14Z</time>
      </trkpt>
      <trkpt lat="43.61918" lon="1.31442">
        <ele>165</ele>
        <time>2025-10-18T07:05:15Z</time>
      </trkpt>
      <trkpt lat="43.61923" lon="1.31437">
        <ele>165</ele>
        <time>2025-10-18T07:05:16Z</time>
      </trkpt>
      <trkpt lat="43.61929" lon="1.31433">
        <ele>164.8</ele>
        <time>2025-10-18T07:05:17Z</time>
      </trkpt>
      <trkpt lat="43.61935" lon="1.3143">
        <ele>164.8</ele>
        <time>2025-10-18T07:05:18Z</time>
      </trkpt>
      <trkpt lat="43.61942" lon="1.31427">
        <ele>164.6</ele>
        <time>2025-10-18T07:05:19Z</time>
      </trkpt>
      <trkpt lat="43.61948" lon="1.31426">
        <ele>164.4</ele>
        <time>2025-10-18T07:05:20Z</time>
      </trkpt>
      <trkpt lat="43.61954" lon="1.31425">
        <ele>164.4</ele>
        <time>2025-10-18T07:05:21Z</time>
      </trkpt>
      <trkpt lat="43.6196" lon="1.31426">
        <ele>164.6</ele>
        <time>2025-10-18T07:05:22Z</time>
      </trkpt>
      <trkpt lat="43.61966" lon="1.31427">
        <ele>164.4</ele>
        <time>2025-10-18T07:05:23Z</time>
      </trkpt>
      <trkpt lat="43.61972" lon="1.31429">
        <ele>164.6</ele>
        <time>2025-10-18T07:05:24Z</time>
      </trkpt>
      <trkpt lat="43.61977" lon="1.3143">
        <ele>164.8</ele>
        <time>2025-10-18T07:05:25Z</time>
      </trkpt>
      <trkpt lat="43.61983" lon="1.3143">
        <ele>164.8</ele>
        <time>2025-10-18T07:05:26Z</time>
      </trkpt>
      <trkpt lat="43.61988" lon="1.3143">
        <ele>164.8</ele>
        <time>2025-10-18T07:05:27Z</time>
      </trkpt>
      <trkpt lat="43.61994" lon="1.3143">
        <ele>164.8</ele>
        <time>2025-10-18T07:05:28Z</time>
      </trkpt>
      <trkpt lat="43.61999" lon="1.31429">
        <ele>164.8</ele>
        <time>2025-10-18T07:05:29Z</time>
      </trkpt>
      <trkpt lat="43.62005" lon="1.31428">
        <ele>164.8</ele>
        <time>2025-10-18T07:05:30Z</time>
      </trkpt>
      <trkpt lat="43.62012" lon="1.31427">
        <ele>164.6</ele>
        <time>2025-10-18T07:05:31Z</time>
      </trkpt>
      <trkpt lat="43.62018" lon="1.31426">
        <ele>164.6</ele>
        <time>2025-10-18T07:05:32Z</time>
      </trkpt>
      <trkpt lat="43.62024" lon="1.31424">
        <ele>164.6</ele>
        <time>2025-10-18T07:05:33Z</time>
      </trkpt>
      <trkpt lat="43.6203" lon="1.31421">
        <ele>164.6</ele>
        <time>2025-10-18T07:05:34Z</time>
      </trkpt>
      <trkpt lat="43.62036" lon="1.31419">
        <ele>164.6</ele>
        <time>2025-10-18T07:05:35Z</time>
      </trkpt>
      <trkpt lat="43.6204" lon="1.31417">
        <ele>164.8</ele>
        <time>2025-10-18T07:05:36Z</time>
      </trkpt>
      <trkpt lat="43.62043" lon="1.31416">
        <ele>165</ele>
        <time>2025-10-18T07:05:37Z</time>
      </trkpt>
      <trkpt lat="43.62046" lon="1.31415">
        <ele>165.2</ele>
        <time>2025-10-18T07:05:38Z</time>
      </trkpt>
      <trkpt lat="43.62049" lon="1.31413">
        <ele>165.2</ele>
        <time>2025-10-18T07:05:39Z</time>
      </trkpt>
      <trkpt lat="43.62052" lon="1.31413">
        <ele>165.4</ele>
        <time>2025-10-18T07:05:40Z</time>
      </trkpt>
      <trkpt lat="43.62056" lon="1.31413">
        <ele>165.4</ele>
        <time>2025-10-18T07:05:41Z</time>
      </trkpt>
      <trkpt lat="43.6206" lon="1.31413">
        <ele>165.4</ele>
        <time>2025-10-18T07:05:42Z</time>
      </trkpt>
      <trkpt lat="43.62065" lon="1.31411">
        <ele>165.4</ele>
        <time>2025-10-18T07:05:43Z</time>
      </trkpt>
      <trkpt lat="43.62068" lon="1.31407">
        <ele>165.4</ele>
        <time>2025-10-18T07:05:44Z</time>
      </trkpt>
      <trkpt lat="43.62072" lon="1.31405">
        <ele>165.2</ele>
        <time>2025-10-18T07:05:45Z</time>
      </trkpt>
      <trkpt lat="43.62077" lon="1.31403">
        <ele>165.2</ele>
        <time>2025-10-18T07:05:46Z</time>
      </trkpt>
      <trkpt lat="43.62082" lon="1.31401">
        <ele>165</ele>
        <time>2025-10-18T07:05:47Z</time>
      </trkpt>
      <trkpt lat="43.62087" lon="1.31399">
        <ele>165</ele>
        <time>2025-10-18T07:05:48Z</time>
      </trkpt>
      <trkpt lat="43.62092" lon="1.31398">
        <ele>164.8</ele>
        <time>2025-10-18T07:05:49Z</time>
      </trkpt>
      <trkpt lat="43.62097" lon="1.31396">
        <ele>164.8</ele>
        <time>2025-10-18T07:05:50Z</time>
      </trkpt>
      <trkpt lat="43.62102" lon="1.31395">
        <ele>164.8</ele>
        <time>2025-10-18T07:05:51Z</time>
      </trkpt>
      <trkpt lat="43.62107" lon="1.31393">
        <ele>164.8</ele>
        <time>2025-10-18T07:05:52Z</time>
      </trkpt>
      <trkpt lat="43.62112" lon="1.31391">
        <ele>164.8</ele>
        <time>2025-10-18T07:05:53Z</time>
      </trkpt>
      <trkpt lat="43.62117" lon="1.31388">
        <ele>164.8</ele>
        <time>2025-10-18T07:05:54Z</time>
      </trkpt>
      <trkpt lat="43.62122" lon="1.31386">
        <ele>165</ele>
        <time>2025-10-18T07:05:55Z</time>
      </trkpt>
      <trkpt lat="43.62127" lon="1.31383">
        <ele>165</ele>
        <time>2025-10-18T07:05:56Z</time>
      </trkpt>
      <trkpt lat="43.62132" lon="1.31379">
        <ele>165</ele>
        <time>2025-10-18T07:05:57Z</time>
      </trkpt>
      <trkpt lat="43.62138" lon="1.31376">
        <ele>165</ele>
        <time>2025-10-18T07:05:58Z</time>
      </trkpt>
      <trkpt lat="43.62144" lon="1.31374">
        <ele>165</ele>
        <time>2025-10-18T07:05:59Z</time>
      </trkpt>
      <trkpt lat="43.6215" lon="1.31373">
        <ele>165</ele>
        <time>2025-10-18T07:06:00Z</time>
      </trkpt>
      <trkpt lat="43.62155" lon="1.31372">
        <ele>165</ele>
        <time>2025-10-18T07:06:01Z</time>
      </trkpt>
      <trkpt lat="43.62162" lon="1.31371">
        <ele>164.8</ele>
        <time>2025-10-18T07:06:02Z</time>
      </trkpt>
      <trkpt lat="43.62168" lon="1.3137">
        <ele>164.8</ele>
        <time>2025-10-18T07:06:03Z</time>
      </trkpt>
      <trkpt lat="43.62174" lon="1.3137">
        <ele>164.6</ele>
        <time>2025-10-18T07:06:04Z</time>
      </trkpt>
      <trkpt lat="43.6218" lon="1.31369">
        <ele>164.4</ele>
        <time>2025-10-18T07:06:05Z</time>
      </trkpt>
      <trkpt lat="43.62187" lon="1.31368">
        <ele>164.2</ele>
        <time>2025-10-18T07:06:06Z</time>
      </trkpt>
      <trkpt lat="43.62193" lon="1.31367">
        <ele>164.2</ele>
        <time>2025-10-18T07:06:07Z</time>
      </trkpt>
      <trkpt lat="43.62199" lon="1.31366">
        <ele>164</ele>
        <time>2025-10-18T07:06:08Z</time>
      </trkpt>
      <trkpt lat="43.62206" lon="1.31365">
        <ele>164</ele>
        <time>2025-10-18T07:06:09Z</time>
      </trkpt>
      <trkpt lat="43.62212" lon="1.31366">
        <ele>164</ele>
        <time>2025-10-18T07:06:10Z</time>
      </trkpt>
      <trkpt lat="43.62218" lon="1.31365">
        <ele>164</ele>
        <time>2025-10-18T07:06:11Z</time>
      </trkpt>
      <trkpt lat="43.62224" lon="1.31362">
        <ele>164</ele>
        <time>2025-10-18T07:06:12Z</time>
      </trkpt>
      <trkpt lat="43.6223" lon="1.3136">
        <ele>164.2</ele>
        <time>2025-10-18T07:06:13Z</time>
      </trkpt>
      <trkpt lat="43.62236" lon="1.31358">
        <ele>164.2</ele>
        <time>2025-10-18T07:06:14Z</time>
      </trkpt>
      <trkpt lat="43.62242" lon="1.31356">
        <ele>164.2</ele>
        <time>2025-10-18T07:06:15Z</time>
      </trkpt>
      <trkpt lat="43.62247" lon="1.31353">
        <ele>164</ele>
        <time>2025-10-18T07:06:16Z</time>
      </trkpt>
      <trkpt lat="43.62253" lon="1.31351">
        <ele>164</ele>
        <time>2025-10-18T07:06:17Z</time>
      </trkpt>
      <trkpt lat="43.62259" lon="1.31348">
        <ele>163.8</ele>
        <time>2025-10-18T07:06:18Z</time>
      </trkpt>
      <trkpt lat="43.62266" lon="1.31345">
        <ele>163.6</ele>
        <time>2025-10-18T07:06:19Z</time>
      </trkpt>
      <trkpt lat="43.62271" lon="1.31343">
        <ele>163.6</ele>
        <time>2025-10-18T07:06:20Z</time>
      </trkpt>
      <trkpt lat="43.62277" lon="1.3134">
        <ele>163.6</ele>
        <time>2025-10-18T07:06:21Z</time>
      </trkpt>
      <trkpt lat="43.62282" lon="1.31338">
        <ele>163.6</ele>
        <time>2025-10-18T07:06:22Z</time>
      </trkpt>
      <trkpt lat="43.62288" lon="1.31335">
        <ele>163.6</ele>
        <time>2025-10-18T07:06:23Z</time>
      </trkpt>
      <trkpt lat="43.62293" lon="1.31332">
        <ele>163.6</ele>
        <time>2025-10-18T07:06:24Z</time>
      </trkpt>
      <trkpt lat="43.62299" lon="1.3133">
        <ele>163.8</ele>
        <time>2025-10-18T07:06:25Z</time>
      </trkpt>
      <trkpt lat="43.62305" lon="1.31327">
        <ele>163.8</ele>
        <time>2025-10-18T07:06:26Z</time>
      </trkpt>
      <trkpt lat="43.62309" lon="1.31324">
        <ele>163.8</ele>
        <time>2025-10-18T07:06:27Z</time>
      </trkpt>
      <trkpt lat="43.62313" lon="1.31322">
        <ele>163.8</ele>
        <time>2025-10-18T07:06:28Z</time>
      </trkpt>
      <trkpt lat="43.62318" lon="1.3132">
        <ele>163.6</ele>
        <time>2025-10-18T07:06:29Z</time>
      </trkpt>
      <trkpt lat="43.62323" lon="1.31317">
        <ele>163</ele>
        <time>2025-10-18T07:06:30Z</time>
      </trkpt>
      <trkpt lat="43.62328" lon="1.31315">
        <ele>162.6</ele>
        <time>2025-10-18T07:06:31Z</time>
      </trkpt>
      <trkpt lat="43.62334" lon="1.31313">
        <ele>162.2</ele>
        <time>2025-10-18T07:06:32Z</time>
      </trkpt>
      <trkpt lat="43.6234" lon="1.31313">
        <ele>161.6</ele>
        <time>2025-10-18T07:06:33Z</time>
      </trkpt>
      <trkpt lat="43.62346" lon="1.31311">
        <ele>161.4</ele>
        <time>2025-10-18T07:06:34Z</time>
      </trkpt>
      <trkpt lat="43.62351" lon="1.3131">
        <ele>161.4</ele>
        <time>2025-10-18T07:06:35Z</time>
      </trkpt>
      <trkpt lat="43.62356" lon="1.31309">
        <ele>161.2</ele>
        <time>2025-10-18T07:06:36Z</time>
      </trkpt>
      <trkpt lat="43.62361" lon="1.31306">
        <ele>161.2</ele>
        <time>2025-10-18T07:06:37Z</time>
      </trkpt>
      <trkpt lat="43.62366" lon="1.313">
        <ele>161.4</ele>
        <time>2025-10-18T07:06:38Z</time>
      </trkpt>
      <trkpt lat="43.6237" lon="1.31295">
        <ele>161.2</ele>
        <time>2025-10-18T07:06:39Z</time>
      </trkpt>
      <trkpt lat="43.62375" lon="1.3129">
        <ele>161</ele>
        <time>2025-10-18T07:06:40Z</time>
      </trkpt>
      <trkpt lat="43.62382" lon="1.31287">
        <ele>160.8</ele>
        <time>2025-10-18T07:06:41Z</time>
      </trkpt>
      <trkpt lat="43.62388" lon="1.31286">
        <ele>160.6</ele>
        <time>2025-10-18T07:06:42Z</time>
      </trkpt>
      <trkpt lat="43.62394" lon="1.31283">
        <ele>160.2</ele>
        <time>2025-10-18T07:06:43Z</time>
      </trkpt>
      <trkpt lat="43.62399" lon="1.31281">
        <ele>160</ele>
        <time>2025-10-18T07:06:44Z</time>
      </trkpt>
      <trkpt lat="43.62405" lon="1.31278">
        <ele>160</ele>
        <time>2025-10-18T07:06:45Z</time>
      </trkpt>
      <trkpt lat="43.62411" lon="1.31276">
        <ele>160</ele>
        <time>2025-10-18T07:06:46Z</time>
      </trkpt>
      <trkpt lat="43.62417" lon="1.31273">
        <ele>159.8</ele>
        <time>2025-10-18T07:06:47Z</time>
      </trkpt>
      <trkpt lat="43.62423" lon="1.3127">
        <ele>159.6</ele>
        <time>2025-10-18T07:06:48Z</time>
      </trkpt>
      <trkpt lat="43.62429" lon="1.31268">
        <ele>159.6</ele>
        <time>2025-10-18T07:06:49Z</time>
      </trkpt>
      <trkpt lat="43.62435" lon="1.31265">
        <ele>159.4</ele>
        <time>2025-10-18T07:06:50Z</time>
      </trkpt>
      <trkpt lat="43.62441" lon="1.31263">
        <ele>159.4</ele>
        <time>2025-10-18T07:06:51Z</time>
      </trkpt>
      <trkpt lat="43.62446" lon="1.31261">
        <ele>159.4</ele>
        <time>2025-10-18T07:06:52Z</time>
      </trkpt>
      <trkpt lat="43.62451" lon="1.31259">
        <ele>159.4</ele>
        <time>2025-10-18T07:06:53Z</time>
      </trkpt>
      <trkpt lat="43.62457" lon="1.31256">
        <ele>159.4</ele>
        <time>2025-10-18T07:06:54Z</time>
      </trkpt>
      <trkpt lat="43.62463" lon="1.31254">
        <ele>159.4</ele>
        <time>2025-10-18T07:06:55Z</time>
      </trkpt>
      <trkpt lat="43.62468" lon="1.31251">
        <ele>159.2</ele>
        <time>2025-10-18T07:06:56Z</time>
      </trkpt>
      <trkpt lat="43.62474" lon="1.3125">
        <ele>159.2</ele>
        <time>2025-10-18T07:06:57Z</time>
      </trkpt>
      <trkpt lat="43.62479" lon="1.31247">
        <ele>159.2</ele>
        <time>2025-10-18T07:06:58Z</time>
      </trkpt>
      <trkpt lat="43.62485" lon="1.31244">
        <ele>159.2</ele>
        <time>2025-10-18T07:06:59Z</time>
      </trkpt>
      <trkpt lat="43.6249" lon="1.31242">
        <ele>159</ele>
        <time>2025-10-18T07:07:00Z</time>
      </trkpt>
      <trkpt lat="43.62496" lon="1.3124">
        <ele>158.8</ele>
        <time>2025-10-18T07:07:01Z</time>
      </trkpt>
      <trkpt lat="43.62502" lon="1.31237">
        <ele>158.6</ele>
        <time>2025-10-18T07:07:02Z</time>
      </trkpt>
      <trkpt lat="43.62508" lon="1.31235">
        <ele>158.6</ele>
        <time>2025-10-18T07:07:03Z</time>
      </trkpt>
      <trkpt lat="43.62513" lon="1.31232">
        <ele>158.4</ele>
        <time>2025-10-18T07:07:04Z</time>
      </trkpt>
      <trkpt lat="43.62519" lon="1.31228">
        <ele>158.2</ele>
        <time>2025-10-18T07:07:05Z</time>
      </trkpt>
      <trkpt lat="43.62526" lon="1.31226">
        <ele>158</ele>
        <time>2025-10-18T07:07:06Z</time>
      </trkpt>
      <trkpt lat="43.62532" lon="1.31224">
        <ele>158</ele>
        <time>2025-10-18T07:07:07Z</time>
      </trkpt>
      <trkpt lat="43.62539" lon="1.31222">
        <ele>158</ele>
        <time>2025-10-18T07:07:08Z</time>
      </trkpt>
      <trkpt lat="43.62544" lon="1.31219">
        <ele>158</ele>
        <time>2025-10-18T07:07:09Z</time>
      </trkpt>
      <trkpt lat="43.62549" lon="1.31217">
        <ele>158</ele>
        <time>2025-10-18T07:07:10Z</time>
      </trkpt>
      <trkpt lat="43.62553" lon="1.31214">
        <ele>157.8</ele>
        <time>2025-10-18T07:07:11Z</time>
      </trkpt>
      <trkpt lat="43.62559" lon="1.31211">
        <ele>157.6</ele>
        <time>2025-10-18T07:07:12Z</time>
      </trkpt>
      <trkpt lat="43.62564" lon="1.31208">
        <ele>157.6</ele>
        <time>2025-10-18T07:07:13Z</time>
      </trkpt>
      <trkpt lat="43.6257" lon="1.31205">
        <ele>157.4</ele>
        <time>2025-10-18T07:07:14Z</time>
      </trkpt>
      <trkpt lat="43.62576" lon="1.31202">
        <ele>157.2</ele>
        <time>2025-10-18T07:07:15Z</time>
      </trkpt>
      <trkpt lat="43.62582" lon="1.31201">
        <ele>156.8</ele>
        <time>2025-10-18T07:07:16Z</time>
      </trkpt>
      <trkpt lat="43.62587" lon="1.31198">
        <ele>156.4</ele>
        <time>2025-10-18T07:07:17Z</time>
      </trkpt>
      <trkpt lat="43.62593" lon="1.31195">
        <ele>156.2</ele>
        <time>2025-10-18T07:07:18Z</time>
      </trkpt>
      <trkpt lat="43.62599" lon="1.31192">
        <ele>156</ele>
        <time>2025-10-18T07:07:19Z</time>
      </trkpt>
      <trkpt lat="43.62604" lon="1.3119">
        <ele>156</ele>
        <time>2025-10-18T07:07:20Z</time>
      </trkpt>
      <trkpt lat="43.6261" lon="1.31187">
        <ele>156</ele>
        <time>2025-10-18T07:07:21Z</time>
      </trkpt>
      <trkpt lat="43.62615" lon="1.31185">
        <ele>156.2</ele>
        <time>2025-10-18T07:07:22Z</time>
      </trkpt>
      <trkpt lat="43.62619" lon="1.31183">
        <ele>156.2</ele>
        <time>2025-10-18T07:07:23Z</time>
      </trkpt>
      <trkpt lat="43.62625" lon="1.3118">
        <ele>156.2</ele>
        <time>2025-10-18T07:07:24Z</time>
      </trkpt>
      <trkpt lat="43.62629" lon="1.31178">
        <ele>156.2</ele>
        <time>2025-10-18T07:07:25Z</time>
      </trkpt>
      <trkpt lat="43.62635" lon="1.31176">
        <ele>156</ele>
        <time>2025-10-18T07:07:26Z</time>
      </trkpt>
      <trkpt lat="43.6264" lon="1.31173">
        <ele>155.6</ele>
        <time>2025-10-18T07:07:27Z</time>
      </trkpt>
      <trkpt lat="43.62646" lon="1.31169">
        <ele>155.4</ele>
        <time>2025-10-18T07:07:28Z</time>
      </trkpt>
      <trkpt lat="43.62652" lon="1.31165">
        <ele>155.2</ele>
        <time>2025-10-18T07:07:29Z</time>
      </trkpt>
      <trkpt lat="43.62656" lon="1.31163">
        <ele>155</ele>
        <time>2025-10-18T07:07:30Z</time>
      </trkpt>
      <trkpt lat="43.6266" lon="1.31161">
        <ele>155</ele>
        <time>2025-10-18T07:07:31Z</time>
      </trkpt>
      <trkpt lat="43.62664" lon="1.31159">
        <ele>155</ele>
        <time>2025-10-18T07:07:32Z</time>
      </trkpt>
      <trkpt lat="43.62668" lon="1.31157">
        <ele>155.2</ele>
        <time>2025-10-18T07:07:33Z</time>
      </trkpt>
      <trkpt lat="43.62672" lon="1.31155">
        <ele>155.4</ele>
        <time>2025-10-18T07:07:34Z</time>
      </trkpt>
      <trkpt lat="43.62676" lon="1.31153">
        <ele>155.4</ele>
        <time>2025-10-18T07:07:35Z</time>
      </trkpt>
      <trkpt lat="43.6268" lon="1.31151">
        <ele>155.4</ele>
        <time>2025-10-18T07:07:36Z</time>
      </trkpt>
      <trkpt lat="43.62684" lon="1.3115">
        <ele>155.2</ele>
        <time>2025-10-18T07:07:37Z</time>
      </trkpt>
      <trkpt lat="43.62689" lon="1.31147">
        <ele>155.2</ele>
        <time>2025-10-18T07:07:38Z</time>
      </trkpt>
      <trkpt lat="43.62692" lon="1.31144">
        <ele>155.2</ele>
        <time>2025-10-18T07:07:39Z</time>
      </trkpt>
      <trkpt lat="43.62695" lon="1.31141">
        <ele>155.2</ele>
        <time>2025-10-18T07:07:40Z</time>
      </trkpt>
      <trkpt lat="43.62699" lon="1.31139">
        <ele>155</ele>
        <time>2025-10-18T07:07:41Z</time>
      </trkpt>
      <trkpt lat="43.62702" lon="1.31139">
        <ele>155</ele>
        <time>2025-10-18T07:07:42Z</time>
      </trkpt>
      <trkpt lat="43.62706" lon="1.31141">
        <ele>154.8</ele>
        <time>2025-10-18T07:07:43Z</time>
      </trkpt>
      <trkpt lat="43.6271" lon="1.31141">
        <ele>154.8</ele>
        <time>2025-10-18T07:07:44Z</time>
      </trkpt>
      <trkpt lat="43.62714" lon="1.31141">
        <ele>154.6</ele>
        <time>2025-10-18T07:07:45Z</time>
      </trkpt>
      <trkpt lat="43.62718" lon="1.31138">
        <ele>154.6</ele>
        <time>2025-10-18T07:07:46Z</time>
      </trkpt>
      <trkpt lat="43.62723" lon="1.31136">
        <ele>154.6</ele>
        <time>2025-10-18T07:07:47Z</time>
      </trkpt>
      <trkpt lat="43.62728" lon="1.31135">
        <ele>154.4</ele>
        <time>2025-10-18T07:07:48Z</time>
      </trkpt>
      <trkpt lat="43.62733" lon="1.31134">
        <ele>154.4</ele>
        <time>2025-10-18T07:07:49Z</time>
      </trkpt>
      <trkpt lat="43.62739" lon="1.31131">
        <ele>154.2</ele>
        <time>2025-10-18T07:07:50Z</time>
      </trkpt>
      <trkpt lat="43.62744" lon="1.31129">
        <ele>154</ele>
        <time>2025-10-18T07:07:51Z</time>
      </trkpt>
      <trkpt lat="43.6275" lon="1.31127">
        <ele>154</ele>
        <time>2025-10-18T07:07:52Z</time>
      </trkpt>
      <trkpt lat="43.62756" lon="1.31124">
        <ele>153.6</ele>
        <time>2025-10-18T07:07:53Z</time>
      </trkpt>
      <trkpt lat="43.62761" lon="1.31121">
        <ele>153.6</ele>
        <time>2025-10-18T07:07:54Z</time>
      </trkpt>
      <trkpt lat="43.62766" lon="1.31117">
        <ele>153.4</ele>
        <time>2025-10-18T07:07:55Z</time>
      </trkpt>
      <trkpt lat="43.62772" lon="1.31113">
        <ele>153.4</ele>
        <time>2025-10-18T07:07:56Z</time>
      </trkpt>
      <trkpt lat="43.62777" lon="1.31109">
        <ele>153.4</ele>
        <time>2025-10-18T07:07:57Z</time>
      </trkpt>
      <trkpt lat="43.62781" lon="1.31104">
        <ele>153.6</ele>
        <time>2025-10-18T07:07:58Z</time>
      </trkpt>
      <trkpt lat="43.62786" lon="1.31099">
        <ele>153.8</ele>
        <time>2025-10-18T07:07:59Z</time>
      </trkpt>
      <trkpt lat="43.62791" lon="1.31096">
        <ele>153.8</ele>
        <time>2025-10-18T07:08:00Z</time>
      </trkpt>
      <trkpt lat="43.62797" lon="1.31093">
        <ele>153.8</ele>
        <time>2025-10-18T07:08:01Z</time>
      </trkpt>
      <trkpt lat="43.62802" lon="1.3109">
        <ele>153.8</ele>
        <time>2025-10-18T07:08:02Z</time>
      </trkpt>
      <trkpt lat="43.62807" lon="1.31086">
        <ele>153.6</ele>
        <time>2025-10-18T07:08:03Z</time>
      </trkpt>
      <trkpt lat="43.62812" lon="1.31082">
        <ele>153.6</ele>
        <time>2025-10-18T07:08:04Z</time>
      </trkpt>
      <trkpt lat="43.62817" lon="1.31077">
        <ele>153.6</ele>
        <time>2025-10-18T07:08:05Z</time>
      </trkpt>
      <trkpt lat="43.62822" lon="1.31071">
        <ele>153.4</ele>
        <time>2025-10-18T07:08:06Z</time>
      </trkpt>
      <trkpt lat="43.62828" lon="1.31067">
        <ele>153.2</ele>
        <time>2025-10-18T07:08:07Z</time>
      </trkpt>
      <trkpt lat="43.62835" lon="1.31063">
        <ele>153.2</ele>
        <time>2025-10-18T07:08:08Z</time>
      </trkpt>
      <trkpt lat="43.6284" lon="1.3106">
        <ele>153</ele>
        <time>2025-10-18T07:08:09Z</time>
      </trkpt>
      <trkpt lat="43.62846" lon="1.31057">
        <ele>152.8</ele>
        <time>2025-10-18T07:08:10Z</time>
      </trkpt>
      <trkpt lat="43.62851" lon="1.31054">
        <ele>152.8</ele>
        <time>2025-10-18T07:08:11Z</time>
      </trkpt>
      <trkpt lat="43.62856" lon="1.31051">
        <ele>152.8</ele>
        <time>2025-10-18T07:08:12Z</time>
      </trkpt>
      <trkpt lat="43.6286" lon="1.31047">
        <ele>152.8</ele>
        <time>2025-10-18T07:08:13Z</time>
      </trkpt>
      <trkpt lat="43.62865" lon="1.31043">
        <ele>152.8</ele>
        <time>2025-10-18T07:08:14Z</time>
      </trkpt>
      <trkpt lat="43.6287" lon="1.31038">
        <ele>152.8</ele>
        <time>2025-10-18T07:08:15Z</time>
      </trkpt>
      <trkpt lat="43.62875" lon="1.31033">
        <ele>152.6</ele>
        <time>2025-10-18T07:08:16Z</time>
      </trkpt>
      <trkpt lat="43.6288" lon="1.31026">
        <ele>152.4</ele>
        <time>2025-10-18T07:08:17Z</time>
      </trkpt>
      <trkpt lat="43.62885" lon="1.31019">
        <ele>152.2</ele>
        <time>2025-10-18T07:08:18Z</time>
      </trkpt>
      <trkpt lat="43.62889" lon="1.31013">
        <ele>151.8</ele>
        <time>2025-10-18T07:08:19Z</time>
      </trkpt>
      <trkpt lat="43.62891" lon="1.31005">
        <ele>151.6</ele>
        <time>2025-10-18T07:08:20Z</time>
      </trkpt>
      <trkpt lat="43.62893" lon="1.30996">
        <ele>151.2</ele>
        <time>2025-10-18T07:08:21Z</time>
      </trkpt>
      <trkpt lat="43.62895" lon="1.30988">
        <ele>151</ele>
        <time>2025-10-18T07:08:22Z</time>
      </trkpt>
      <trkpt lat="43.62897" lon="1.30979">
        <ele>150.8</ele>
        <time>2025-10-18T07:08:23Z</time>
      </trkpt>
      <trkpt lat="43.629" lon="1.30971">
        <ele>150.4</ele>
        <time>2025-10-18T07:08:24Z</time>
      </trkpt>
      <trkpt lat="43.62902" lon="1.30963">
        <ele>149.8</ele>
        <time>2025-10-18T07:08:25Z</time>
      </trkpt>
      <trkpt lat="43.62905" lon="1.30954">
        <ele>149.6</ele>
        <time>2025-10-18T07:08:26Z</time>
      </trkpt>
      <trkpt lat="43.62907" lon="1.30945">
        <ele>149.4</ele>
        <time>2025-10-18T07:08:27Z</time>
      </trkpt>
      <trkpt lat="43.62908" lon="1.30937">
        <ele>149</ele>
        <time>2025-10-18T07:08:28Z</time>
      </trkpt>
      <trkpt lat="43.62909" lon="1.3093">
        <ele>148.8</ele>
        <time>2025-10-18T07:08:29Z</time>
      </trkpt>
      <trkpt lat="43.62911" lon="1.30923">
        <ele>149</ele>
        <time>2025-10-18T07:08:30Z</time>
      </trkpt>
      <trkpt lat="43.62915" lon="1.30917">
        <ele>149</ele>
        <time>2025-10-18T07:08:31Z</time>
      </trkpt>
      <trkpt lat="43.62918" lon="1.30911">
        <ele>149</ele>
        <time>2025-10-18T07:08:32Z</time>
      </trkpt>
      <trkpt lat="43.62922" lon="1.30905">
        <ele>149.2</ele>
        <time>2025-10-18T07:08:33Z</time>
      </trkpt>
      <trkpt lat="43.62926" lon="1.30901">
        <ele>149.2</ele>
        <time>2025-10-18T07:08:34Z</time>
      </trkpt>
      <trkpt lat="43.62929" lon="1.30895">
        <ele>149.2</ele>
        <time>2025-10-18T07:08:35Z</time>
      </trkpt>
      <trkpt lat="43.62933" lon="1.30891">
        <ele>149.2</ele>
        <time>2025-10-18T07:08:36Z</time>
      </trkpt>
      <trkpt lat="43.62937" lon="1.30887">
        <ele>149.2</ele>
        <time>2025-10-18T07:08:37Z</time>
      </trkpt>
      <trkpt lat="43.62941" lon="1.30882">
        <ele>149.2</ele>
        <time>2025-10-18T07:08:38Z</time>
      </trkpt>
      <trkpt lat="43.62945" lon="1.30879">
        <ele>149.2</ele>
        <time>2025-10-18T07:08:39Z</time>
      </trkpt>
      <trkpt lat="43.62948" lon="1.30875">
        <ele>149.2</ele>
        <time>2025-10-18T07:08:40Z</time>
      </trkpt>
      <trkpt lat="43.62952" lon="1.3087">
        <ele>149.2</ele>
        <time>2025-10-18T07:08:41Z</time>
      </trkpt>
      <trkpt lat="43.62956" lon="1.30866">
        <ele>149.4</ele>
        <time>2025-10-18T07:08:42Z</time>
      </trkpt>
      <trkpt lat="43.6296" lon="1.30862">
        <ele>149.2</ele>
        <time>2025-10-18T07:08:43Z</time>
      </trkpt>
      <trkpt lat="43.62964" lon="1.30858">
        <ele>149.2</ele>
        <time>2025-10-18T07:08:44Z</time>
      </trkpt>
      <trkpt lat="43.62968" lon="1.30854">
        <ele>149</ele>
        <time>2025-10-18T07:08:45Z</time>
      </trkpt>
      <trkpt lat="43.62972" lon="1.30849">
        <ele>149</ele>
        <time>2025-10-18T07:08:46Z</time>
      </trkpt>
      <trkpt lat="43.62977" lon="1.30845">
        <ele>148.8</ele>
        <time>2025-10-18T07:08:47Z</time>
      </trkpt>
      <trkpt lat="43.62981" lon="1.30841">
        <ele>149</ele>
        <time>2025-10-18T07:08:48Z</time>
      </trkpt>
      <trkpt lat="43.62986" lon="1.30837">
        <ele>149</ele>
        <time>2025-10-18T07:08:49Z</time>
      </trkpt>
      <trkpt lat="43.6299" lon="1.30832">
        <ele>149</ele>
        <time>2025-10-18T07:08:50Z</time>
      </trkpt>
      <trkpt lat="43.62994" lon="1.30827">
        <ele>149</ele>
        <time>2025-10-18T07:08:51Z</time>
      </trkpt>
      <trkpt lat="43.62999" lon="1.30824">
        <ele>148.8</ele>
        <time>2025-10-18T07:08:52Z</time>
      </trkpt>
      <trkpt lat="43.63003" lon="1.30819">
        <ele>148.8</ele>
        <time>2025-10-18T07:08:53Z</time>
      </trkpt>
      <trkpt lat="43.63007" lon="1.30815">
        <ele>148.8</ele>
        <time>2025-10-18T07:08:54Z</time>
      </trkpt>
      <trkpt lat="43.63011" lon="1.3081">
        <ele>148.8</ele>
        <time>2025-10-18T07:08:55Z</time>
      </trkpt>
      <trkpt lat="43.63015" lon="1.30806">
        <ele>148.6</ele>
        <time>2025-10-18T07:08:56Z</time>
      </trkpt>
      <trkpt lat="43.6302" lon="1.30802">
        <ele>148.6</ele>
        <time>2025-10-18T07:08:57Z</time>
      </trkpt>
      <trkpt lat="43.63024" lon="1.30798">
        <ele>148.6</ele>
        <time>2025-10-18T07:08:58Z</time>
      </trkpt>
      <trkpt lat="43.63028" lon="1.30794">
        <ele>148.6</ele>
        <time>2025-10-18T07:08:59Z</time>
      </trkpt>
      <trkpt lat="43.63033" lon="1.30789">
        <ele>148.4</ele>
        <time>2025-10-18T07:09:00Z</time>
      </trkpt>
      <trkpt lat="43.63037" lon="1.30786">
        <ele>148.4</ele>
        <time>2025-10-18T07:09:01Z</time>
      </trkpt>
      <trkpt lat="43.63041" lon="1.30784">
        <ele>148.6</ele>
        <time>2025-10-18T07:09:02Z</time>
      </trkpt>
      <trkpt lat="43.63045" lon="1.30783">
        <ele>148.6</ele>
        <time>2025-10-18T07:09:03Z</time>
      </trkpt>
      <trkpt lat="43.63048" lon="1.30784">
        <ele>148.6</ele>
        <time>2025-10-18T07:09:04Z</time>
      </trkpt>
      <trkpt lat="43.6305" lon="1.30785">
        <ele>148.8</ele>
        <time>2025-10-18T07:09:05Z</time>
      </trkpt>
      <trkpt lat="43.63051" lon="1.30786">
        <ele>148.8</ele>
        <time>2025-10-18T07:09:06Z</time>
      </trkpt>
      <trkpt lat="43.63052" lon="1.30787">
        <ele>149</ele>
        <time>2025-10-18T07:09:07Z</time>
      </trkpt>
      <trkpt lat="43.63054" lon="1.30789">
        <ele>149</ele>
        <time>2025-10-18T07:09:08Z</time>
      </trkpt>
      <trkpt lat="43.63056" lon="1.30791">
        <ele>149.2</ele>
        <time>2025-10-18T07:09:09Z</time>
      </trkpt>
      <trkpt lat="43.63058" lon="1.30793">
        <ele>149.2</ele>
        <time>2025-10-18T07:09:10Z</time>
      </trkpt>
      <trkpt lat="43.6306" lon="1.30796">
        <ele>149.2</ele>
        <time>2025-10-18T07:09:11Z</time>
      </trkpt>
      <trkpt lat="43.63062" lon="1.30799">
        <ele>149.2</ele>
        <time>2025-10-18T07:09:12Z</time>
      </trkpt>
      <trkpt lat="43.63065" lon="1.30802">
        <ele>149.2</ele>
        <time>2025-10-18T07:09:13Z</time>
      </trkpt>
      <trkpt lat="43.63068" lon="1.30806">
        <ele>149.2</ele>
        <time>2025-10-18T07:09:14Z</time>
      </trkpt>
      <trkpt lat="43.63071" lon="1.30809">
        <ele>149.2</ele>
        <time>2025-10-18T07:09:15Z</time>
      </trkpt>
      <trkpt lat="43.63074" lon="1.30813">
        <ele>149.2</ele>
        <time>2025-10-18T07:09:16Z</time>
      </trkpt>
      <trkpt lat="43.63077" lon="1.30817">
        <ele>149.2</ele>
        <time>2025-10-18T07:09:17Z</time>
      </trkpt>
      <trkpt lat="43.6308" lon="1.30821">
        <ele>149.2</ele>
        <time>2025-10-18T07:09:18Z</time>
      </trkpt>
      <trkpt lat="43.63083" lon="1.30825">
        <ele>149.2</ele>
        <time>2025-10-18T07:09:19Z</time>
      </trkpt>
      <trkpt lat="43.63087" lon="1.30829">
        <ele>149.2</ele>
        <time>2025-10-18T07:09:20Z</time>
      </trkpt>
      <trkpt lat="43.6309" lon="1.30833">
        <ele>149</ele>
        <time>2025-10-18T07:09:21Z</time>
      </trkpt>
      <trkpt lat="43.63093" lon="1.30837">
        <ele>149</ele>
        <time>2025-10-18T07:09:22Z</time>
      </trkpt>
      <trkpt lat="43.63096" lon="1.3084">
        <ele>149</ele>
        <time>2025-10-18T07:09:23Z</time>
      </trkpt>
      <trkpt lat="43.631" lon="1.30845">
        <ele>149</ele>
        <time>2025-10-18T07:09:24Z</time>
      </trkpt>
      <trkpt lat="43.63104" lon="1.30849">
        <ele>148.8</ele>
        <time>2025-10-18T07:09:25Z</time>
      </trkpt>
      <trkpt lat="43.63108" lon="1.30854">
        <ele>148.8</ele>
        <time>2025-10-18T07:09:26Z</time>
      </trkpt>
      <trkpt lat="43.63112" lon="1.30858">
        <ele>148.6</ele>
        <time>2025-10-18T07:09:27Z</time>
      </trkpt>
      <trkpt lat="43.63116" lon="1.30863">
        <ele>148.6</ele>
        <time>2025-10-18T07:09:28Z</time>
      </trkpt>
      <trkpt lat="43.6312" lon="1.30868">
        <ele>148.4</ele>
        <time>2025-10-18T07:09:29Z</time>
      </trkpt>
      <trkpt lat="43.63124" lon="1.30872">
        <ele>148.4</ele>
        <time>2025-10-18T07:09:30Z</time>
      </trkpt>
      <trkpt lat="43.63128" lon="1.30876">
        <ele>148.6</ele>
        <time>2025-10-18T07:09:31Z</time>
      </trkpt>
      <trkpt lat="43.63131" lon="1.30881">
        <ele>148.6</ele>
        <time>2025-10-18T07:09:32Z</time>
      </trkpt>
      <trkpt lat="43.63135" lon="1.30885">
        <ele>148.4</ele>
        <time>2025-10-18T07:09:33Z</time>
      </trkpt>
      <trkpt lat="43.63138" lon="1.30889">
        <ele>148.6</ele>
        <time>2025-10-18T07:09:34Z</time>
      </trkpt>
      <trkpt lat="43.63142" lon="1.30894">
        <ele>148.6</ele>
        <time>2025-10-18T07:09:35Z</time>
      </trkpt>
      <trkpt lat="43.63146" lon="1.30898">
        <ele>148.6</ele>
        <time>2025-10-18T07:09:36Z</time>
      </trkpt>
      <trkpt lat="43.63149" lon="1.30902">
        <ele>148.6</ele>
        <time>2025-10-18T07:09:37Z</time>
      </trkpt>
      <trkpt lat="43.63153" lon="1.30906">
        <ele>148.6</ele>
        <time>2025-10-18T07:09:38Z</time>
      </trkpt>
      <trkpt lat="43.63157" lon="1.30911">
        <ele>148.8</ele>
        <time>2025-10-18T07:09:39Z</time>
      </trkpt>
      <trkpt lat="43.6316" lon="1.30915">
        <ele>148.8</ele>
        <time>2025-10-18T07:09:40Z</time>
      </trkpt>
      <trkpt lat="43.63163" lon="1.3092">
        <ele>148.8</ele>
        <time>2025-10-18T07:09:41Z</time>
      </trkpt>
      <trkpt lat="43.63167" lon="1.30924">
        <ele>148.8</ele>
        <time>2025-10-18T07:09:42Z</time>
      </trkpt>
      <trkpt lat="43.6317" lon="1.30929">
        <ele>148.8</ele>
        <time>2025-10-18T07:09:43Z</time>
      </trkpt>
      <trkpt lat="43.63174" lon="1.30933">
        <ele>148.8</ele>
        <time>2025-10-18T07:09:44Z</time>
      </trkpt>
      <trkpt lat="43.63177" lon="1.30937">
        <ele>148.6</ele>
        <time>2025-10-18T07:09:45Z</time>
      </trkpt>
      <trkpt lat="43.6318" lon="1.30941">
        <ele>148.8</ele>
        <time>2025-10-18T07:09:46Z</time>
      </trkpt>
      <trkpt lat="43.63183" lon="1.30945">
        <ele>148.8</ele>
        <time>2025-10-18T07:09:47Z</time>
      </trkpt>
      <trkpt lat="43.63186" lon="1.30948">
        <ele>148.8</ele>
        <time>2025-10-18T07:09:48Z</time>
      </trkpt>
      <trkpt lat="43.63187" lon="1.30951">
        <ele>148.8</ele>
        <time>2025-10-18T07:09:49Z</time>
      </trkpt>
      <trkpt lat="43.63188" lon="1.30953">
        <ele>149</ele>
        <time>2025-10-18T07:09:50Z</time>
      </trkpt>
      <trkpt lat="43.63189" lon="1.30955">
        <ele>149.2</ele>
        <time>2025-10-18T07:09:51Z</time>
      </trkpt>
      <trkpt lat="43.6319" lon="1.30956">
        <ele>149.2</ele>
        <time>2025-10-18T07:09:52Z</time>
      </trkpt>
      <trkpt lat="43.63191" lon="1.30956">
        <ele>149.2</ele>
        <time>2025-10-18T07:09:53Z</time>
      </trkpt>
      <trkpt lat="43.63191" lon="1.30956">
        <ele>149.2</ele>
        <time>2025-10-18T07:09:54Z</time>
      </trkpt>
      <trkpt lat="43.63191" lon="1.30956">
        <ele>149.2</ele>
        <time>2025-10-18T07:09:55Z</time>
      </trkpt>
      <trkpt lat="43.63192" lon="1.30956">
        <ele>149.2</ele>
        <time>2025-10-18T07:09:56Z</time>
      </trkpt>
      <trkpt lat="43.63194" lon="1.30958">
        <ele>148.6</ele>
        <time>2025-10-18T07:10:29Z</time>
      </trkpt>
      <trkpt lat="43.63194" lon="1.30955">
        <ele>148.6</ele>
        <time>2025-10-18T07:10:30Z</time>
      </trkpt>
      <trkpt lat="43.63195" lon="1.30951">
        <ele>148.6</ele>
        <time>2025-10-18T07:10:31Z</time>
      </trkpt>
      <trkpt lat="43.63196" lon="1.30947">
        <ele>148.4</ele>
        <time>2025-10-18T07:10:32Z</time>
      </trkpt>
      <trkpt lat="43.63196" lon="1.30944">
        <ele>148.4</ele>
        <time>2025-10-18T07:10:33Z</time>
      </trkpt>
      <trkpt lat="43.63196" lon="1.3094">
        <ele>148.4</ele>
        <time>2025-10-18T07:10:34Z</time>
      </trkpt>
      <trkpt lat="43.63197" lon="1.30936">
        <ele>148.2</ele>
        <time>2025-10-18T07:10:35Z</time>
      </trkpt>
      <trkpt lat="43.63197" lon="1.30932">
        <ele>148.2</ele>
        <time>2025-10-18T07:10:36Z</time>
      </trkpt>
      <trkpt lat="43.63198" lon="1.30926">
        <ele>148</ele>
        <time>2025-10-18T07:10:37Z</time>
      </trkpt>
      <trkpt lat="43.632" lon="1.30921">
        <ele>148</ele>
        <time>2025-10-18T07:10:38Z</time>
      </trkpt>
      <trkpt lat="43.63202" lon="1.30914">
        <ele>147.8</ele>
        <time>2025-10-18T07:10:39Z</time>
      </trkpt>
      <trkpt lat="43.63204" lon="1.30908">
        <ele>147.8</ele>
        <time>2025-10-18T07:10:40Z</time>
      </trkpt>
      <trkpt lat="43.63206" lon="1.30902">
        <ele>147.8</ele>
        <time>2025-10-18T07:10:41Z</time>
      </trkpt>
      <trkpt lat="43.63209" lon="1.30895">
        <ele>148</ele>
        <time>2025-10-18T07:10:42Z</time>
      </trkpt>
      <trkpt lat="43.63212" lon="1.30889">
        <ele>148</ele>
        <time>2025-10-18T07:10:43Z</time>
      </trkpt>
      <trkpt lat="43.63215" lon="1.30883">
        <ele>148</ele>
        <time>2025-10-18T07:10:44Z</time>
      </trkpt>
      <trkpt lat="43.63218" lon="1.30877">
        <ele>147.8</ele>
        <time>2025-10-18T07:10:45Z</time>
      </trkpt>
      <trkpt lat="43.63221" lon="1.30871">
        <ele>147.8</ele>
        <time>2025-10-18T07:10:46Z</time>
      </trkpt>
      <trkpt lat="43.63224" lon="1.30865">
        <ele>147.4</ele>
        <time>2025-10-18T07:10:47Z</time>
      </trkpt>
      <trkpt lat="43.63227" lon="1.30858">
        <ele>147.2</ele>
        <time>2025-10-18T07:10:48Z</time>
      </trkpt>
      <trkpt lat="43.6323" lon="1.30852">
        <ele>147.2</ele>
        <time>2025-10-18T07:10:49Z</time>
      </trkpt>
      <trkpt lat="43.63234" lon="1.30845">
        <ele>147.2</ele>
        <time>2025-10-18T07:10:50Z</time>
      </trkpt>
      <trkpt lat="43.63237" lon="1.30838">
        <ele>147.2</ele>
        <time>2025-10-18T07:10:51Z</time>
      </trkpt>
      <trkpt lat="43.6324" lon="1.30831">
        <ele>147</ele>
        <time>2025-10-18T07:10:52Z</time>
      </trkpt>
      <trkpt lat="43.63244" lon="1.30824">
        <ele>147</ele>
        <time>2025-10-18T07:10:53Z</time>
      </trkpt>
      <trkpt lat="43.63247" lon="1.30817">
        <ele>146.8</ele>
        <time>2025-10-18T07:10:54Z</time>
      </trkpt>
      <trkpt lat="43.63251" lon="1.3081">
        <ele>146.8</ele>
        <time>2025-10-18T07:10:55Z</time>
      </trkpt>
      <trkpt lat="43.63254" lon="1.30803">
        <ele>146.8</ele>
        <time>2025-10-18T07:10:56Z</time>
      </trkpt>
      <trkpt lat="43.63258" lon="1.30797">
        <ele>146.8</ele>
        <time>2025-10-18T07:10:57Z</time>
      </trkpt>
      <trkpt lat="43.63261" lon="1.3079">
        <ele>146.8</ele>
        <time>2025-10-18T07:10:58Z</time>
      </trkpt>
      <trkpt lat="43.63264" lon="1.30786">
        <ele>147</ele>
        <time>2025-10-18T07:10:59Z</time>
      </trkpt>
      <trkpt lat="43.63267" lon="1.30781">
        <ele>147.2</ele>
        <time>2025-10-18T07:11:00Z</time>
      </trkpt>
      <trkpt lat="43.6327" lon="1.30776">
        <ele>147.6</ele>
        <time>2025-10-18T07:11:01Z</time>
      </trkpt>
      <trkpt lat="43.63273" lon="1.30771">
        <ele>147.8</ele>
        <time>2025-10-18T07:11:02Z</time>
      </trkpt>
      <trkpt lat="43.63276" lon="1.30764">
        <ele>147.8</ele>
        <time>2025-10-18T07:11:03Z</time>
      </trkpt>
      <trkpt lat="43.63278" lon="1.30757">
        <ele>147.8</ele>
        <time>2025-10-18T07:11:04Z</time>
      </trkpt>
      <trkpt lat="43.63282" lon="1.3075">
        <ele>147.6</ele>
        <time>2025-10-18T07:11:05Z</time>
      </trkpt>
      <trkpt lat="43.63286" lon="1.30745">
        <ele>147.4</ele>
        <time>2025-10-18T07:11:06Z</time>
      </trkpt>
      <trkpt lat="43.63292" lon="1.30744">
        <ele>147.2</ele>
        <time>2025-10-18T07:11:07Z</time>
      </trkpt>
      <trkpt lat="43.63296" lon="1.30744">
        <ele>147</ele>
        <time>2025-10-18T07:11:08Z</time>
      </trkpt>
      <trkpt lat="43.63299" lon="1.30747">
        <ele>147</ele>
        <time>2025-10-18T07:11:09Z</time>
      </trkpt>
      <trkpt lat="43.63303" lon="1.30752">
        <ele>147</ele>
        <time>2025-10-18T07:11:10Z</time>
      </trkpt>
      <trkpt lat="43.63306" lon="1.30756">
        <ele>147.4</ele>
        <time>2025-10-18T07:11:11Z</time>
      </trkpt>
      <trkpt lat="43.6331" lon="1.30761">
        <ele>147.4</ele>
        <time>2025-10-18T07:11:12Z</time>
      </trkpt>
      <trkpt lat="43.63314" lon="1.30767">
        <ele>147.4</ele>
        <time>2025-10-18T07:11:13Z</time>
      </trkpt>
      <trkpt lat="43.63318" lon="1.30772">
        <ele>147.4</ele>
        <time>2025-10-18T07:11:14Z</time>
      </trkpt>
      <trkpt lat="43.63322" lon="1.30779">
        <ele>147.4</ele>
        <time>2025-10-18T07:11:15Z</time>
      </trkpt>
      <trkpt lat="43.63326" lon="1.30786">
        <ele>147.2</ele>
        <time>2025-10-18T07:11:16Z</time>
      </trkpt>
      <trkpt lat="43.63331" lon="1.30792">
        <ele>147.2</ele>
        <time>2025-10-18T07:11:17Z</time>
      </trkpt>
      <trkpt lat="43.63336" lon="1.30798">
        <ele>147.2</ele>
        <time>2025-10-18T07:11:18Z</time>
      </trkpt>
      <trkpt lat="43.63341" lon="1.30804">
        <ele>147.2</ele>
        <time>2025-10-18T07:11:19Z</time>
      </trkpt>
      <trkpt lat="43.63345" lon="1.3081">
        <ele>147.2</ele>
        <time>2025-10-18T07:11:20Z</time>
      </trkpt>
      <trkpt lat="43.6335" lon="1.30817">
        <ele>147.4</ele>
        <time>2025-10-18T07:11:21Z</time>
      </trkpt>
      <trkpt lat="43.63354" lon="1.30824">
        <ele>147.2</ele>
        <time>2025-10-18T07:11:22Z</time>
      </trkpt>
      <trkpt lat="43.63358" lon="1.30831">
        <ele>147.2</ele>
        <time>2025-10-18T07:11:23Z</time>
      </trkpt>
      <trkpt lat="43.63363" lon="1.30837">
        <ele>147.2</ele>
        <time>2025-10-18T07:11:24Z</time>
      </trkpt>
      <trkpt lat="43.63368" lon="1.30844">
        <ele>147.2</ele>
        <time>2025-10-18T07:11:25Z</time>
      </trkpt>
      <trkpt lat="43.63372" lon="1.30851">
        <ele>147</ele>
        <time>2025-10-18T07:11:26Z</time>
      </trkpt>
      <trkpt lat="43.63377" lon="1.30857">
        <ele>147</ele>
        <time>2025-10-18T07:11:27Z</time>
      </trkpt>
      <trkpt lat="43.63381" lon="1.30864">
        <ele>147</ele>
        <time>2025-10-18T07:11:28Z</time>
      </trkpt>
      <trkpt lat="43.63385" lon="1.3087">
        <ele>147</ele>
        <time>2025-10-18T07:11:29Z</time>
      </trkpt>
      <trkpt lat="43.6339" lon="1.30876">
        <ele>147.2</ele>
        <time>2025-10-18T07:11:30Z</time>
      </trkpt>
      <trkpt lat="43.63395" lon="1.30881">
        <ele>147.2</ele>
        <time>2025-10-18T07:11:31Z</time>
      </trkpt>
      <trkpt lat="43.63399" lon="1.30887">
        <ele>147.2</ele>
        <time>2025-10-18T07:11:32Z</time>
      </trkpt>
      <trkpt lat="43.63403" lon="1.30891">
        <ele>147.2</ele>
        <time>2025-10-18T07:11:33Z</time>
      </trkpt>
      <trkpt lat="43.63407" lon="1.30897">
        <ele>147.2</ele>
        <time>2025-10-18T07:11:34Z</time>
      </trkpt>
      <trkpt lat="43.63411" lon="1.30901">
        <ele>147.2</ele>
        <time>2025-10-18T07:11:35Z</time>
      </trkpt>
      <trkpt lat="43.63414" lon="1.30905">
        <ele>147.2</ele>
        <time>2025-10-18T07:11:36Z</time>
      </trkpt>
      <trkpt lat="43.63418" lon="1.30909">
        <ele>147.2</ele>
        <time>2025-10-18T07:11:37Z</time>
      </trkpt>
      <trkpt lat="43.63422" lon="1.30912">
        <ele>147.2</ele>
        <time>2025-10-18T07:11:38Z</time>
      </trkpt>
      <trkpt lat="43.63425" lon="1.30916">
        <ele>147.2</ele>
        <time>2025-10-18T07:11:39Z</time>
      </trkpt>
      <trkpt lat="43.6343" lon="1.30919">
        <ele>147.2</ele>
        <time>2025-10-18T07:11:40Z</time>
      </trkpt>
      <trkpt lat="43.63434" lon="1.30923">
        <ele>147.2</ele>
        <time>2025-10-18T07:11:41Z</time>
      </trkpt>
      <trkpt lat="43.6344" lon="1.30926">
        <ele>147.2</ele>
        <time>2025-10-18T07:11:42Z</time>
      </trkpt>
      <trkpt lat="43.63445" lon="1.30929">
        <ele>147.2</ele>
        <time>2025-10-18T07:11:43Z</time>
      </trkpt>
      <trkpt lat="43.6345" lon="1.30932">
        <ele>147.2</ele>
        <time>2025-10-18T07:11:44Z</time>
      </trkpt>
      <trkpt lat="43.63456" lon="1.30934">
        <ele>147</ele>
        <time>2025-10-18T07:11:45Z</time>
      </trkpt>
      <trkpt lat="43.63462" lon="1.30937">
        <ele>147</ele>
        <time>2025-10-18T07:11:46Z</time>
      </trkpt>
      <trkpt lat="43.63467" lon="1.3094">
        <ele>147</ele>
        <time>2025-10-18T07:11:47Z</time>
      </trkpt>
      <trkpt lat="43.63473" lon="1.30943">
        <ele>146.8</ele>
        <time>2025-10-18T07:11:48Z</time>
      </trkpt>
      <trkpt lat="43.63479" lon="1.30946">
        <ele>146.8</ele>
        <time>2025-10-18T07:11:49Z</time>
      </trkpt>
      <trkpt lat="43.63485" lon="1.30949">
        <ele>146.6</ele>
        <time>2025-10-18T07:11:50Z</time>
      </trkpt>
      <trkpt lat="43.6349" lon="1.30951">
        <ele>146.4</ele>
        <time>2025-10-18T07:11:51Z</time>
      </trkpt>
      <trkpt lat="43.63496" lon="1.30954">
        <ele>146</ele>
        <time>2025-10-18T07:11:52Z</time>
      </trkpt>
      <trkpt lat="43.63502" lon="1.30957">
        <ele>145.8</ele>
        <time>2025-10-18T07:11:53Z</time>
      </trkpt>
      <trkpt lat="43.63508" lon="1.3096">
        <ele>145.6</ele>
        <time>2025-10-18T07:11:54Z</time>
      </trkpt>
      <trkpt lat="43.63514" lon="1.30964">
        <ele>145.4</ele>
        <time>2025-10-18T07:11:55Z</time>
      </trkpt>
      <trkpt lat="43.6352" lon="1.30968">
        <ele>145.2</ele>
        <time>2025-10-18T07:11:56Z</time>
      </trkpt>
      <trkpt lat="43.63525" lon="1.30974">
        <ele>145.2</ele>
        <time>2025-10-18T07:11:57Z</time>
      </trkpt>
      <trkpt lat="43.6353" lon="1.3098">
        <ele>145.2</ele>
        <time>2025-10-18T07:11:58Z</time>
      </trkpt>
      <trkpt lat="43.63534" lon="1.30986">
        <ele>145.2</ele>
        <time>2025-10-18T07:11:59Z</time>
      </trkpt>
      <trkpt lat="43.63539" lon="1.30992">
        <ele>145.2</ele>
        <time>2025-10-18T07:12:00Z</time>
      </trkpt>
      <trkpt lat="43.63542" lon="1.30999">
        <ele>145.2</ele>
        <time>2025-10-18T07:12:01Z</time>
      </trkpt>
      <trkpt lat="43.63546" lon="1.31006">
        <ele>145.2</ele>
        <time>2025-10-18T07:12:02Z</time>
      </trkpt>
      <trkpt lat="43.63549" lon="1.31012">
        <ele>145.2</ele>
        <time>2025-10-18T07:12:03Z</time>
      </trkpt>
      <trkpt lat="43.63553" lon="1.31019">
        <ele>145</ele>
        <time>2025-10-18T07:12:04Z</time>
      </trkpt>
      <trkpt lat="43.63556" lon="1.31026">
        <ele>145</ele>
        <time>2025-10-18T07:12:05Z</time>
      </trkpt>
      <trkpt lat="43.6356" lon="1.31033">
        <ele>145</ele>
        <time>2025-10-18T07:12:06Z</time>
      </trkpt>
      <trkpt lat="43.63564" lon="1.31039">
        <ele>144.8</ele>
        <time>2025-10-18T07:12:07Z</time>
      </trkpt>
      <trkpt lat="43.63568" lon="1.31047">
        <ele>144.8</ele>
        <time>2025-10-18T07:12:08Z</time>
      </trkpt>
      <trkpt lat="43.63572" lon="1.31054">
        <ele>145</ele>
        <time>2025-10-18T07:12:09Z</time>
      </trkpt>
      <trkpt lat="43.63576" lon="1.31061">
        <ele>145</ele>
        <time>2025-10-18T07:12:10Z</time>
      </trkpt>
      <trkpt lat="43.6358" lon="1.31068">
        <ele>145</ele>
        <time>2025-10-18T07:12:11Z</time>
      </trkpt>
      <trkpt lat="43.63584" lon="1.31074">
        <ele>145</ele>
        <time>2025-10-18T07:12:12Z</time>
      </trkpt>
      <trkpt lat="43.63588" lon="1.31081">
        <ele>145</ele>
        <time>2025-10-18T07:12:13Z</time>
      </trkpt>
      <trkpt lat="43.63592" lon="1.31087">
        <ele>145</ele>
        <time>2025-10-18T07:12:14Z</time>
      </trkpt>
      <trkpt lat="43.63597" lon="1.31094">
        <ele>145</ele>
        <time>2025-10-18T07:12:15Z</time>
      </trkpt>
      <trkpt lat="43.63601" lon="1.311">
        <ele>145.2</ele>
        <time>2025-10-18T07:12:16Z</time>
      </trkpt>
      <trkpt lat="43.63605" lon="1.31106">
        <ele>145.4</ele>
        <time>2025-10-18T07:12:17Z</time>
      </trkpt>
      <trkpt lat="43.6361" lon="1.31113">
        <ele>145.4</ele>
        <time>2025-10-18T07:12:18Z</time>
      </trkpt>
      <trkpt lat="43.63614" lon="1.3112">
        <ele>145.6</ele>
        <time>2025-10-18T07:12:19Z</time>
      </trkpt>
      <trkpt lat="43.63617" lon="1.31128">
        <ele>145.6</ele>
        <time>2025-10-18T07:12:20Z</time>
      </trkpt>
      <trkpt lat="43.6362" lon="1.31135">
        <ele>145.6</ele>
        <time>2025-10-18T07:12:21Z</time>
      </trkpt>
      <trkpt lat="43.63623" lon="1.31144">
        <ele>145.8</ele>
        <time>2025-10-18T07:12:22Z</time>
      </trkpt>
      <trkpt lat="43.63626" lon="1.31152">
        <ele>145.8</ele>
        <time>2025-10-18T07:12:23Z</time>
      </trkpt>
      <trkpt lat="43.63629" lon="1.31159">
        <ele>145.8</ele>
        <time>2025-10-18T07:12:24Z</time>
      </trkpt>
      <trkpt lat="43.63632" lon="1.31166">
        <ele>145.8</ele>
        <time>2025-10-18T07:12:25Z</time>
      </trkpt>
      <trkpt lat="43.63636" lon="1.31174">
        <ele>146</ele>
        <time>2025-10-18T07:12:26Z</time>
      </trkpt>
      <trkpt lat="43.63639" lon="1.31181">
        <ele>146</ele>
        <time>2025-10-18T07:12:27Z</time>
      </trkpt>
      <trkpt lat="43.63642" lon="1.31188">
        <ele>146.2</ele>
        <time>2025-10-18T07:12:28Z</time>
      </trkpt>
      <trkpt lat="43.63645" lon="1.31196">
        <ele>146.2</ele>
        <time>2025-10-18T07:12:29Z</time>
      </trkpt>
      <trkpt lat="43.63648" lon="1.31202">
        <ele>146.4</ele>
        <time>2025-10-18T07:12:30Z</time>
      </trkpt>
      <trkpt lat="43.63653" lon="1.31209">
        <ele>146.6</ele>
        <time>2025-10-18T07:12:31Z</time>
      </trkpt>
      <trkpt lat="43.63657" lon="1.31215">
        <ele>146.6</ele>
        <time>2025-10-18T07:12:32Z</time>
      </trkpt>
      <trkpt lat="43.63662" lon="1.3122">
        <ele>146.6</ele>
        <time>2025-10-18T07:12:33Z</time>
      </trkpt>
      <trkpt lat="43.63667" lon="1.31226">
        <ele>146.6</ele>
        <time>2025-10-18T07:12:34Z</time>
      </trkpt>
      <trkpt lat="43.63672" lon="1.31232">
        <ele>146.4</ele>
        <time>2025-10-18T07:12:35Z</time>
      </trkpt>
      <trkpt lat="43.63676" lon="1.31238">
        <ele>146.4</ele>
        <time>2025-10-18T07:12:36Z</time>
      </trkpt>
      <trkpt lat="43.63679" lon="1.31246">
        <ele>146.2</ele>
        <time>2025-10-18T07:12:37Z</time>
      </trkpt>
      <trkpt lat="43.63682" lon="1.31254">
        <ele>146</ele>
        <time>2025-10-18T07:12:38Z</time>
      </trkpt>
      <trkpt lat="43.63684" lon="1.31263">
        <ele>145.8</ele>
        <time>2025-10-18T07:12:39Z</time>
      </trkpt>
      <trkpt lat="43.63686" lon="1.31272">
        <ele>145.8</ele>
        <time>2025-10-18T07:12:40Z</time>
      </trkpt>
      <trkpt lat="43.63688" lon="1.31281">
        <ele>145.6</ele>
        <time>2025-10-18T07:12:41Z</time>
      </trkpt>
      <trkpt lat="43.6369" lon="1.3129">
        <ele>145.6</ele>
        <time>2025-10-18T07:12:42Z</time>
      </trkpt>
      <trkpt lat="43.63692" lon="1.31299">
        <ele>145.6</ele>
        <time>2025-10-18T07:12:43Z</time>
      </trkpt>
      <trkpt lat="43.63694" lon="1.31308">
        <ele>145.6</ele>
        <time>2025-10-18T07:12:44Z</time>
      </trkpt>
      <trkpt lat="43.63696" lon="1.31316">
        <ele>145.6</ele>
        <time>2025-10-18T07:12:45Z</time>
      </trkpt>
      <trkpt lat="43.63698" lon="1.31324">
        <ele>145.4</ele>
        <time>2025-10-18T07:12:46Z</time>
      </trkpt>
      <trkpt lat="43.637" lon="1.31333">
        <ele>145.4</ele>
        <time>2025-10-18T07:12:47Z</time>
      </trkpt>
      <trkpt lat="43.63702" lon="1.31341">
        <ele>145.4</ele>
        <time>2025-10-18T07:12:48Z</time>
      </trkpt>
      <trkpt lat="43.63704" lon="1.3135">
        <ele>145.4</ele>
        <time>2025-10-18T07:12:49Z</time>
      </trkpt>
      <trkpt lat="43.63707" lon="1.31358">
        <ele>145.2</ele>
        <time>2025-10-18T07:12:50Z</time>
      </trkpt>
      <trkpt lat="43.63709" lon="1.31367">
        <ele>145.2</ele>
        <time>2025-10-18T07:12:51Z</time>
      </trkpt>
      <trkpt lat="43.63711" lon="1.31375">
        <ele>145.2</ele>
        <time>2025-10-18T07:12:52Z</time>
      </trkpt>
      <trkpt lat="43.63714" lon="1.31384">
        <ele>145.2</ele>
        <time>2025-10-18T07:12:53Z</time>
      </trkpt>
      <trkpt lat="43.63717" lon="1.31392">
        <ele>145.2</ele>
        <time>2025-10-18T07:12:54Z</time>
      </trkpt>
      <trkpt lat="43.63719" lon="1.314">
        <ele>145.2</ele>
        <time>2025-10-18T07:12:55Z</time>
      </trkpt>
      <trkpt lat="43.63722" lon="1.31408">
        <ele>145.2</ele>
        <time>2025-10-18T07:12:56Z</time>
      </trkpt>
      <trkpt lat="43.63725" lon="1.31415">
        <ele>145.2</ele>
        <time>2025-10-18T07:12:57Z</time>
      </trkpt>
      <trkpt lat="43.63728" lon="1.31422">
        <ele>145.2</ele>
        <time>2025-10-18T07:12:58Z</time>
      </trkpt>
      <trkpt lat="43.63731" lon="1.3143">
        <ele>145</ele>
        <time>2025-10-18T07:12:59Z</time>
      </trkpt>
      <trkpt lat="43.63735" lon="1.31438">
        <ele>145</ele>
        <time>2025-10-18T07:13:00Z</time>
      </trkpt>
      <trkpt lat="43.63738" lon="1.31446">
        <ele>145</ele>
        <time>2025-10-18T07:13:01Z</time>
      </trkpt>
      <trkpt lat="43.63742" lon="1.31453">
        <ele>144.8</ele>
        <time>2025-10-18T07:13:02Z</time>
      </trkpt>
      <trkpt lat="43.63745" lon="1.3146">
        <ele>144.8</ele>
        <time>2025-10-18T07:13:03Z</time>
      </trkpt>
      <trkpt lat="43.63749" lon="1.31468">
        <ele>144.8</ele>
        <time>2025-10-18T07:13:04Z</time>
      </trkpt>
      <trkpt lat="43.63753" lon="1.31476">
        <ele>144.6</ele>
        <time>2025-10-18T07:13:05Z</time>
      </trkpt>
      <trkpt lat="43.63757" lon="1.31483">
        <ele>144.6</ele>
        <time>2025-10-18T07:13:06Z</time>
      </trkpt>
      <trkpt lat="43.63761" lon="1.31491">
        <ele>144.4</ele>
        <time>2025-10-18T07:13:07Z</time>
      </trkpt>
      <trkpt lat="43.63766" lon="1.31499">
        <ele>144.4</ele>
        <time>2025-10-18T07:13:08Z</time>
      </trkpt>
      <trkpt lat="43.6377" lon="1.31506">
        <ele>144.2</ele>
        <time>2025-10-18T07:13:09Z</time>
      </trkpt>
      <trkpt lat="43.63774" lon="1.31514">
        <ele>144</ele>
        <time>2025-10-18T07:13:10Z</time>
      </trkpt>
      <trkpt lat="43.63778" lon="1.31521">
        <ele>144</ele>
        <time>2025-10-18T07:13:11Z</time>
      </trkpt>
      <trkpt lat="43.63782" lon="1.31529">
        <ele>143.8</ele>
        <time>2025-10-18T07:13:12Z</time>
      </trkpt>
      <trkpt lat="43.63786" lon="1.31537">
        <ele>143.8</ele>
        <time>2025-10-18T07:13:13Z</time>
      </trkpt>
      <trkpt lat="43.63789" lon="1.31545">
        <ele>143.6</ele>
        <time>2025-10-18T07:13:14Z</time>
      </trkpt>
      <trkpt lat="43.63793" lon="1.31552">
        <ele>143.4</ele>
        <time>2025-10-18T07:13:15Z</time>
      </trkpt>
      <trkpt lat="43.63797" lon="1.3156">
        <ele>143.2</ele>
        <time>2025-10-18T07:13:16Z</time>
      </trkpt>
      <trkpt lat="43.63801" lon="1.31567">
        <ele>143.2</ele>
        <time>2025-10-18T07:13:17Z</time>
      </trkpt>
      <trkpt lat="43.63804" lon="1.31575">
        <ele>143</ele>
        <time>2025-10-18T07:13:18Z</time>
      </trkpt>
      <trkpt lat="43.63808" lon="1.31583">
        <ele>143</ele>
        <time>2025-10-18T07:13:19Z</time>
      </trkpt>
      <trkpt lat="43.63812" lon="1.31591">
        <ele>142.8</ele>
        <time>2025-10-18T07:13:20Z</time>
      </trkpt>
      <trkpt lat="43.63816" lon="1.31599">
        <ele>142.8</ele>
        <time>2025-10-18T07:13:21Z</time>
      </trkpt>
      <trkpt lat="43.6382" lon="1.31606">
        <ele>142.6</ele>
        <time>2025-10-18T07:13:22Z</time>
      </trkpt>
      <trkpt lat="43.63824" lon="1.31613">
        <ele>142.4</ele>
        <time>2025-10-18T07:13:23Z</time>
      </trkpt>
      <trkpt lat="43.63828" lon="1.3162">
        <ele>142.4</ele>
        <time>2025-10-18T07:13:24Z</time>
      </trkpt>
      <trkpt lat="43.63833" lon="1.31627">
        <ele>142.2</ele>
        <time>2025-10-18T07:13:25Z</time>
      </trkpt>
      <trkpt lat="43.63837" lon="1.31634">
        <ele>142.2</ele>
        <time>2025-10-18T07:13:26Z</time>
      </trkpt>
      <trkpt lat="43.63843" lon="1.3164">
        <ele>142.2</ele>
        <time>2025-10-18T07:13:27Z</time>
      </trkpt>
      <trkpt lat="43.63848" lon="1.31646">
        <ele>142.2</ele>
        <time>2025-10-18T07:13:28Z</time>
      </trkpt>
      <trkpt lat="43.63853" lon="1.31652">
        <ele>142.2</ele>
        <time>2025-10-18T07:13:29Z</time>
      </trkpt>
      <trkpt lat="43.63859" lon="1.31658">
        <ele>142.2</ele>
        <time>2025-10-18T07:13:30Z</time>
      </trkpt>
      <trkpt lat="43.63865" lon="1.31663">
        <ele>142.2</ele>
        <time>2025-10-18T07:13:31Z</time>
      </trkpt>
      <trkpt lat="43.6387" lon="1.31669">
        <ele>142.2</ele>
        <time>2025-10-18T07:13:32Z</time>
      </trkpt>
      <trkpt lat="43.63875" lon="1.31675">
        <ele>142.2</ele>
        <time>2025-10-18T07:13:33Z</time>
      </trkpt>
      <trkpt lat="43.63881" lon="1.3168">
        <ele>142.2</ele>
        <time>2025-10-18T07:13:34Z</time>
      </trkpt>
      <trkpt lat="43.63886" lon="1.31685">
        <ele>142.2</ele>
        <time>2025-10-18T07:13:35Z</time>
      </trkpt>
      <trkpt lat="43.63892" lon="1.3169">
        <ele>142.4</ele>
        <time>2025-10-18T07:13:36Z</time>
      </trkpt>
      <trkpt lat="43.63897" lon="1.31696">
        <ele>142.4</ele>
        <time>2025-10-18T07:13:37Z</time>
      </trkpt>
      <trkpt lat="43.63903" lon="1.31701">
        <ele>142.4</ele>
        <time>2025-10-18T07:13:38Z</time>
      </trkpt>
      <trkpt lat="43.63908" lon="1.31706">
        <ele>142.4</ele>
        <time>2025-10-18T07:13:39Z</time>
      </trkpt>
      <trkpt lat="43.63914" lon="1.31711">
        <ele>142.4</ele>
        <time>2025-10-18T07:13:40Z</time>
      </trkpt>
      <trkpt lat="43.63919" lon="1.31715">
        <ele>142.4</ele>
        <time>2025-10-18T07:13:41Z</time>
      </trkpt>
      <trkpt lat="43.63925" lon="1.3172">
        <ele>142.4</ele>
        <time>2025-10-18T07:13:42Z</time>
      </trkpt>
      <trkpt lat="43.6393" lon="1.31725">
        <ele>142.6</ele>
        <time>2025-10-18T07:13:43Z</time>
      </trkpt>
      <trkpt lat="43.63936" lon="1.31729">
        <ele>142.6</ele>
        <time>2025-10-18T07:13:44Z</time>
      </trkpt>
      <trkpt lat="43.63941" lon="1.31733">
        <ele>142.6</ele>
        <time>2025-10-18T07:13:45Z</time>
      </trkpt>
      <trkpt lat="43.63946" lon="1.31737">
        <ele>142.6</ele>
        <time>2025-10-18T07:13:46Z</time>
      </trkpt>
      <trkpt lat="43.63952" lon="1.31741">
        <ele>142.6</ele>
        <time>2025-10-18T07:13:47Z</time>
      </trkpt>
      <trkpt lat="43.63958" lon="1.31745">
        <ele>142.6</ele>
        <time>2025-10-18T07:13:48Z</time>
      </trkpt>
      <trkpt lat="43.63964" lon="1.31749">
        <ele>142.6</ele>
        <time>2025-10-18T07:13:49Z</time>
      </trkpt>
      <trkpt lat="43.63969" lon="1.31752">
        <ele>142.6</ele>
        <time>2025-10-18T07:13:50Z</time>
      </trkpt>
      <trkpt lat="43.63975" lon="1.31755">
        <ele>142.6</ele>
        <time>2025-10-18T07:13:51Z</time>
      </trkpt>
      <trkpt lat="43.6398" lon="1.31758">
        <ele>142.6</ele>
        <time>2025-10-18T07:13:52Z</time>
      </trkpt>
      <trkpt lat="43.63986" lon="1.31761">
        <ele>142.8</ele>
        <time>2025-10-18T07:13:53Z</time>
      </trkpt>
      <trkpt lat="43.63991" lon="1.31763">
        <ele>142.8</ele>
        <time>2025-10-18T07:13:54Z</time>
      </trkpt>
      <trkpt lat="43.63997" lon="1.31766">
        <ele>142.8</ele>
        <time>2025-10-18T07:13:55Z</time>
      </trkpt>
      <trkpt lat="43.64003" lon="1.31769">
        <ele>142.8</ele>
        <time>2025-10-18T07:13:56Z</time>
      </trkpt>
      <trkpt lat="43.64009" lon="1.31772">
        <ele>142.8</ele>
        <time>2025-10-18T07:13:57Z</time>
      </trkpt>
      <trkpt lat="43.64015" lon="1.31776">
        <ele>142.8</ele>
        <time>2025-10-18T07:13:58Z</time>
      </trkpt>
      <trkpt lat="43.64021" lon="1.31779">
        <ele>142.6</ele>
        <time>2025-10-18T07:13:59Z</time>
      </trkpt>
      <trkpt lat="43.64027" lon="1.31783">
        <ele>142.4</ele>
        <time>2025-10-18T07:14:00Z</time>
      </trkpt>
      <trkpt lat="43.64033" lon="1.31786">
        <ele>142.4</ele>
        <time>2025-10-18T07:14:01Z</time>
      </trkpt>
      <trkpt lat="43.6404" lon="1.3179">
        <ele>142.4</ele>
        <time>2025-10-18T07:14:02Z</time>
      </trkpt>
      <trkpt lat="43.64046" lon="1.31794">
        <ele>142.4</ele>
        <time>2025-10-18T07:14:03Z</time>
      </trkpt>
      <trkpt lat="43.64052" lon="1.31797">
        <ele>142.4</ele>
        <time>2025-10-18T07:14:04Z</time>
      </trkpt>
      <trkpt lat="43.64058" lon="1.318">
        <ele>142.4</ele>
        <time>2025-10-18T07:14:05Z</time>
      </trkpt>
      <trkpt lat="43.64064" lon="1.31803">
        <ele>142.4</ele>
        <time>2025-10-18T07:14:06Z</time>
      </trkpt>
      <trkpt lat="43.64071" lon="1.31806">
        <ele>142.4</ele>
        <time>2025-10-18T07:14:07Z</time>
      </trkpt>
      <trkpt lat="43.64077" lon="1.31809">
        <ele>142.2</ele>
        <time>2025-10-18T07:14:08Z</time>
      </trkpt>
      <trkpt lat="43.64083" lon="1.31813">
        <ele>142.2</ele>
        <time>2025-10-18T07:14:09Z</time>
      </trkpt>
      <trkpt lat="43.64089" lon="1.31817">
        <ele>142.2</ele>
        <time>2025-10-18T07:14:10Z</time>
      </trkpt>
      <trkpt lat="43.64096" lon="1.31821">
        <ele>142.2</ele>
        <time>2025-10-18T07:14:11Z</time>
      </trkpt>
      <trkpt lat="43.64102" lon="1.31825">
        <ele>142.2</ele>
        <time>2025-10-18T07:14:12Z</time>
      </trkpt>
      <trkpt lat="43.64109" lon="1.31828">
        <ele>142.4</ele>
        <time>2025-10-18T07:14:13Z</time>
      </trkpt>
      <trkpt lat="43.64115" lon="1.31832">
        <ele>142.4</ele>
        <time>2025-10-18T07:14:14Z</time>
      </trkpt>
      <trkpt lat="43.64121" lon="1.31835">
        <ele>142.4</ele>
        <time>2025-10-18T07:14:15Z</time>
      </trkpt>
      <trkpt lat="43.64128" lon="1.31838">
        <ele>142.4</ele>
        <time>2025-10-18T07:14:16Z</time>
      </trkpt>
      <trkpt lat="43.64134" lon="1.31841">
        <ele>142.4</ele>
        <time>2025-10-18T07:14:17Z</time>
      </trkpt>
      <trkpt lat="43.6414" lon="1.31844">
        <ele>142.4</ele>
        <time>2025-10-18T07:14:18Z</time>
      </trkpt>
      <trkpt lat="43.64146" lon="1.31847">
        <ele>142.4</ele>
        <time>2025-10-18T07:14:19Z</time>
      </trkpt>
      <trkpt lat="43.64152" lon="1.3185">
        <ele>142.4</ele>
        <time>2025-10-18T07:14:20Z</time>
      </trkpt>
      <trkpt lat="43.64158" lon="1.31852">
        <ele>142.4</ele>
        <time>2025-10-18T07:14:21Z</time>
      </trkpt>
      <trkpt lat="43.64164" lon="1.31855">
        <ele>142.4</ele>
        <time>2025-10-18T07:14:22Z</time>
      </trkpt>
      <trkpt lat="43.64169" lon="1.31856">
        <ele>142.6</ele>
        <time>2025-10-18T07:14:23Z</time>
      </trkpt>
      <trkpt lat="43.64175" lon="1.31856">
        <ele>142.8</ele>
        <time>2025-10-18T07:14:24Z</time>
      </trkpt>
      <trkpt lat="43.6418" lon="1.31859">
        <ele>142.8</ele>
        <time>2025-10-18T07:14:25Z</time>
      </trkpt>
      <trkpt lat="43.64185" lon="1.31862">
        <ele>143</ele>
        <time>2025-10-18T07:14:26Z</time>
      </trkpt>
      <trkpt lat="43.6419" lon="1.31866">
        <ele>143</ele>
        <time>2025-10-18T07:14:27Z</time>
      </trkpt>
      <trkpt lat="43.64195" lon="1.3187">
        <ele>143</ele>
        <time>2025-10-18T07:14:28Z</time>
      </trkpt>
      <trkpt lat="43.642" lon="1.31874">
        <ele>143.2</ele>
        <time>2025-10-18T07:14:29Z</time>
      </trkpt>
      <trkpt lat="43.64205" lon="1.31878">
        <ele>143.4</ele>
        <time>2025-10-18T07:14:30Z</time>
      </trkpt>
      <trkpt lat="43.6421" lon="1.31881">
        <ele>143.4</ele>
        <time>2025-10-18T07:14:31Z</time>
      </trkpt>
      <trkpt lat="43.64215" lon="1.31886">
        <ele>143.4</ele>
        <time>2025-10-18T07:14:32Z</time>
      </trkpt>
      <trkpt lat="43.64221" lon="1.3189">
        <ele>143.4</ele>
        <time>2025-10-18T07:14:33Z</time>
      </trkpt>
      <trkpt lat="43.64226" lon="1.31894">
        <ele>143.6</ele>
        <time>2025-10-18T07:14:34Z</time>
      </trkpt>
      <trkpt lat="43.64231" lon="1.31899">
        <ele>143.6</ele>
        <time>2025-10-18T07:14:35Z</time>
      </trkpt>
      <trkpt lat="43.64236" lon="1.31903">
        <ele>143.6</ele>
        <time>2025-10-18T07:14:36Z</time>
      </trkpt>
      <trkpt lat="43.64242" lon="1.31907">
        <ele>143.8</ele>
        <time>2025-10-18T07:14:37Z</time>
      </trkpt>
      <trkpt lat="43.64247" lon="1.31911">
        <ele>143.8</ele>
        <time>2025-10-18T07:14:38Z</time>
      </trkpt>
      <trkpt lat="43.64252" lon="1.31915">
        <ele>144</ele>
        <time>2025-10-18T07:14:39Z</time>
      </trkpt>
      <trkpt lat="43.64257" lon="1.31918">
        <ele>144.2</ele>
        <time>2025-10-18T07:14:40Z</time>
      </trkpt>
      <trkpt lat="43.64261" lon="1.31922">
        <ele>144.6</ele>
        <time>2025-10-18T07:14:41Z</time>
      </trkpt>
      <trkpt lat="43.64264" lon="1.31925">
        <ele>144.8</ele>
        <time>2025-10-18T07:14:42Z</time>
      </trkpt>
      <trkpt lat="43.64267" lon="1.31927">
        <ele>145.4</ele>
        <time>2025-10-18T07:14:43Z</time>
      </trkpt>
      <trkpt lat="43.6427" lon="1.31928">
        <ele>146.2</ele>
        <time>2025-10-18T07:14:44Z</time>
      </trkpt>
      <trkpt lat="43.64272" lon="1.31931">
        <ele>146.8</ele>
        <time>2025-10-18T07:14:45Z</time>
      </trkpt>
      <trkpt lat="43.64274" lon="1.31934">
        <ele>147.2</ele>
        <time>2025-10-18T07:14:46Z</time>
      </trkpt>
      <trkpt lat="43.64275" lon="1.31939">
        <ele>147.6</ele>
        <time>2025-10-18T07:14:47Z</time>
      </trkpt>
      <trkpt lat="43.64277" lon="1.31944">
        <ele>148</ele>
        <time>2025-10-18T07:14:48Z</time>
      </trkpt>
      <trkpt lat="43.64278" lon="1.31949">
        <ele>148.2</ele>
        <time>2025-10-18T07:14:49Z</time>
      </trkpt>
      <trkpt lat="43.6428" lon="1.31955">
        <ele>148.4</ele>
        <time>2025-10-18T07:14:50Z</time>
      </trkpt>
      <trkpt lat="43.64282" lon="1.31961">
        <ele>148.4</ele>
        <time>2025-10-18T07:14:51Z</time>
      </trkpt>
      <trkpt lat="43.64284" lon="1.31966">
        <ele>148.4</ele>
        <time>2025-10-18T07:14:52Z</time>
      </trkpt>
      <trkpt lat="43.64286" lon="1.31972">
        <ele>148.6</ele>
        <time>2025-10-18T07:14:53Z</time>
      </trkpt>
      <trkpt lat="43.64288" lon="1.31977">
        <ele>148.6</ele>
        <time>2025-10-18T07:14:54Z</time>
      </trkpt>
      <trkpt lat="43.6429" lon="1.31983">
        <ele>148.8</ele>
        <time>2025-10-18T07:14:55Z</time>
      </trkpt>
      <trkpt lat="43.64293" lon="1.3199">
        <ele>148.8</ele>
        <time>2025-10-18T07:14:56Z</time>
      </trkpt>
      <trkpt lat="43.64295" lon="1.31996">
        <ele>148.8</ele>
        <time>2025-10-18T07:14:57Z</time>
      </trkpt>
      <trkpt lat="43.64297" lon="1.32003">
        <ele>148.8</ele>
        <time>2025-10-18T07:14:58Z</time>
      </trkpt>
      <trkpt lat="43.643" lon="1.3201">
        <ele>148.8</ele>
        <time>2025-10-18T07:14:59Z</time>
      </trkpt>
      <trkpt lat="43.64302" lon="1.32018">
        <ele>148.8</ele>
        <time>2025-10-18T07:15:00Z</time>
      </trkpt>
      <trkpt lat="43.64305" lon="1.32025">
        <ele>148.8</ele>
        <time>2025-10-18T07:15:01Z</time>
      </trkpt>
      <trkpt lat="43.64307" lon="1.32032">
        <ele>148.8</ele>
        <time>2025-10-18T07:15:02Z</time>
      </trkpt>
      <trkpt lat="43.6431" lon="1.32039">
        <ele>148.8</ele>
        <time>2025-10-18T07:15:03Z</time>
      </trkpt>
      <trkpt lat="43.64313" lon="1.32046">
        <ele>148.8</ele>
        <time>2025-10-18T07:15:04Z</time>
      </trkpt>
      <trkpt lat="43.64316" lon="1.32054">
        <ele>148.8</ele>
        <time>2025-10-18T07:15:05Z</time>
      </trkpt>
      <trkpt lat="43.64318" lon="1.32062">
        <ele>148.6</ele>
        <time>2025-10-18T07:15:06Z</time>
      </trkpt>
      <trkpt lat="43.64321" lon="1.3207">
        <ele>148.6</ele>
        <time>2025-10-18T07:15:07Z</time>
      </trkpt>
      <trkpt lat="43.64325" lon="1.32078">
        <ele>148.4</ele>
        <time>2025-10-18T07:15:08Z</time>
      </trkpt>
      <trkpt lat="43.64329" lon="1.32086">
        <ele>148.2</ele>
        <time>2025-10-18T07:15:09Z</time>
      </trkpt>
      <trkpt lat="43.64332" lon="1.32093">
        <ele>148</ele>
        <time>2025-10-18T07:15:10Z</time>
      </trkpt>
      <trkpt lat="43.64336" lon="1.32101">
        <ele>147.8</ele>
        <time>2025-10-18T07:15:11Z</time>
      </trkpt>
      <trkpt lat="43.64339" lon="1.32108">
        <ele>147.8</ele>
        <time>2025-10-18T07:15:12Z</time>
      </trkpt>
      <trkpt lat="43.64343" lon="1.32115">
        <ele>147.6</ele>
        <time>2025-10-18T07:15:13Z</time>
      </trkpt>
      <trkpt lat="43.64347" lon="1.32122">
        <ele>147.6</ele>
        <time>2025-10-18T07:15:14Z</time>
      </trkpt>
      <trkpt lat="43.6435" lon="1.32129">
        <ele>147.6</ele>
        <time>2025-10-18T07:15:15Z</time>
      </trkpt>
      <trkpt lat="43.64354" lon="1.32137">
        <ele>147.6</ele>
        <time>2025-10-18T07:15:16Z</time>
      </trkpt>
      <trkpt lat="43.64358" lon="1.32144">
        <ele>147.6</ele>
        <time>2025-10-18T07:15:17Z</time>
      </trkpt>
      <trkpt lat="43.64361" lon="1.32151">
        <ele>147.4</ele>
        <time>2025-10-18T07:15:18Z</time>
      </trkpt>
      <trkpt lat="43.64364" lon="1.32157">
        <ele>147.4</ele>
        <time>2025-10-18T07:15:19Z</time>
      </trkpt>
      <trkpt lat="43.64368" lon="1.32165">
        <ele>147.2</ele>
        <time>2025-10-18T07:15:20Z</time>
      </trkpt>
      <trkpt lat="43.64372" lon="1.32172">
        <ele>147</ele>
        <time>2025-10-18T07:15:21Z</time>
      </trkpt>
      <trkpt lat="43.64376" lon="1.32179">
        <ele>147</ele>
        <time>2025-10-18T07:15:22Z</time>
      </trkpt>
      <trkpt lat="43.6438" lon="1.32186">
        <ele>146.8</ele>
        <time>2025-10-18T07:15:23Z</time>
      </trkpt>
      <trkpt lat="43.64384" lon="1.32193">
        <ele>146.6</ele>
        <time>2025-10-18T07:15:24Z</time>
      </trkpt>
      <trkpt lat="43.64388" lon="1.322">
        <ele>146.4</ele>
        <time>2025-10-18T07:15:25Z</time>
      </trkpt>
      <trkpt lat="43.64392" lon="1.32207">
        <ele>146.2</ele>
        <time>2025-10-18T07:15:26Z</time>
      </trkpt>
      <trkpt lat="43.64396" lon="1.32214">
        <ele>146</ele>
        <time>2025-10-18T07:15:27Z</time>
      </trkpt>
      <trkpt lat="43.644" lon="1.32221">
        <ele>145.6</ele>
        <time>2025-10-18T07:15:28Z</time>
      </trkpt>
      <trkpt lat="43.64405" lon="1.32228">
        <ele>145.2</ele>
        <time>2025-10-18T07:15:29Z</time>
      </trkpt>
      <trkpt lat="43.6441" lon="1.32235">
        <ele>144.8</ele>
        <time>2025-10-18T07:15:30Z</time>
      </trkpt>
      <trkpt lat="43.64414" lon="1.32242">
        <ele>144.4</ele>
        <time>2025-10-18T07:15:31Z</time>
      </trkpt>
      <trkpt lat="43.64419" lon="1.32249">
        <ele>144</ele>
        <time>2025-10-18T07:15:32Z</time>
      </trkpt>
      <trkpt lat="43.64424" lon="1.32256">
        <ele>143.8</ele>
        <time>2025-10-18T07:15:33Z</time>
      </trkpt>
      <trkpt lat="43.64428" lon="1.32263">
        <ele>143.4</ele>
        <time>2025-10-18T07:15:34Z</time>
      </trkpt>
      <trkpt lat="43.64433" lon="1.3227">
        <ele>143.2</ele>
        <time>2025-10-18T07:15:35Z</time>
      </trkpt>
      <trkpt lat="43.64438" lon="1.32277">
        <ele>142.8</ele>
        <time>2025-10-18T07:15:36Z</time>
      </trkpt>
      <trkpt lat="43.64444" lon="1.32284">
        <ele>142.6</ele>
        <time>2025-10-18T07:15:37Z</time>
      </trkpt>
      <trkpt lat="43.64449" lon="1.3229">
        <ele>142.4</ele>
        <time>2025-10-18T07:15:38Z</time>
      </trkpt>
      <trkpt lat="43.64455" lon="1.32295">
        <ele>142.2</ele>
        <time>2025-10-18T07:15:39Z</time>
      </trkpt>
      <trkpt lat="43.64461" lon="1.323">
        <ele>142.2</ele>
        <time>2025-10-18T07:15:40Z</time>
      </trkpt>
      <trkpt lat="43.64467" lon="1.32304">
        <ele>142.2</ele>
        <time>2025-10-18T07:15:41Z</time>
      </trkpt>
      <trkpt lat="43.64473" lon="1.32308">
        <ele>142</ele>
        <time>2025-10-18T07:15:42Z</time>
      </trkpt>
      <trkpt lat="43.64479" lon="1.32312">
        <ele>142</ele>
        <time>2025-10-18T07:15:43Z</time>
      </trkpt>
      <trkpt lat="43.64485" lon="1.32317">
        <ele>142</ele>
        <time>2025-10-18T07:15:44Z</time>
      </trkpt>
      <trkpt lat="43.64491" lon="1.32321">
        <ele>142</ele>
        <time>2025-10-18T07:15:45Z</time>
      </trkpt>
      <trkpt lat="43.64498" lon="1.32325">
        <ele>141.8</ele>
        <time>2025-10-18T07:15:46Z</time>
      </trkpt>
      <trkpt lat="43.64505" lon="1.32329">
        <ele>141.8</ele>
        <time>2025-10-18T07:15:47Z</time>
      </trkpt>
      <trkpt lat="43.64511" lon="1.32332">
        <ele>141.6</ele>
        <time>2025-10-18T07:15:48Z</time>
      </trkpt>
      <trkpt lat="43.64517" lon="1.32335">
        <ele>141.6</ele>
        <time>2025-10-18T07:15:49Z</time>
      </trkpt>
      <trkpt lat="43.64524" lon="1.32338">
        <ele>141.4</ele>
        <time>2025-10-18T07:15:50Z</time>
      </trkpt>
      <trkpt lat="43.64529" lon="1.32342">
        <ele>141.2</ele>
        <time>2025-10-18T07:15:51Z</time>
      </trkpt>
      <trkpt lat="43.64536" lon="1.32346">
        <ele>141</ele>
        <time>2025-10-18T07:15:52Z</time>
      </trkpt>
      <trkpt lat="43.64542" lon="1.32349">
        <ele>141</ele>
        <time>2025-10-18T07:15:53Z</time>
      </trkpt>
      <trkpt lat="43.64548" lon="1.32352">
        <ele>141</ele>
        <time>2025-10-18T07:15:54Z</time>
      </trkpt>
      <trkpt lat="43.64554" lon="1.32355">
        <ele>141</ele>
        <time>2025-10-18T07:15:55Z</time>
      </trkpt>
      <trkpt lat="43.64559" lon="1.32357">
        <ele>141</ele>
        <time>2025-10-18T07:15:56Z</time>
      </trkpt>
      <trkpt lat="43.64563" lon="1.32359">
        <ele>141</ele>
        <time>2025-10-18T07:15:57Z</time>
      </trkpt>
      <trkpt lat="43.64566" lon="1.32359">
        <ele>141.2</ele>
        <time>2025-10-18T07:15:58Z</time>
      </trkpt>
      <trkpt lat="43.64568" lon="1.3236">
        <ele>141.4</ele>
        <time>2025-10-18T07:15:59Z</time>
      </trkpt>
      <trkpt lat="43.64571" lon="1.32361">
        <ele>141.8</ele>
        <time>2025-10-18T07:16:00Z</time>
      </trkpt>
      <trkpt lat="43.64574" lon="1.32362">
        <ele>141.8</ele>
        <time>2025-10-18T07:16:01Z</time>
      </trkpt>
      <trkpt lat="43.64576" lon="1.32364">
        <ele>142</ele>
        <time>2025-10-18T07:16:02Z</time>
      </trkpt>
      <trkpt lat="43.6458" lon="1.32367">
        <ele>141.8</ele>
        <time>2025-10-18T07:16:03Z</time>
      </trkpt>
      <trkpt lat="43.64583" lon="1.32369">
        <ele>141.8</ele>
        <time>2025-10-18T07:16:04Z</time>
      </trkpt>
      <trkpt lat="43.64586" lon="1.32373">
        <ele>141.6</ele>
        <time>2025-10-18T07:16:05Z</time>
      </trkpt>
      <trkpt lat="43.64589" lon="1.32376">
        <ele>141.4</ele>
        <time>2025-10-18T07:16:06Z</time>
      </trkpt>
      <trkpt lat="43.64592" lon="1.3238">
        <ele>141.4</ele>
        <time>2025-10-18T07:16:07Z</time>
      </trkpt>
      <trkpt lat="43.64596" lon="1.32383">
        <ele>141.4</ele>
        <time>2025-10-18T07:16:08Z</time>
      </trkpt>
      <trkpt lat="43.64599" lon="1.32387">
        <ele>141.2</ele>
        <time>2025-10-18T07:16:09Z</time>
      </trkpt>
      <trkpt lat="43.64601" lon="1.3239">
        <ele>141.2</ele>
        <time>2025-10-18T07:16:10Z</time>
      </trkpt>
      <trkpt lat="43.64605" lon="1.32394">
        <ele>141.2</ele>
        <time>2025-10-18T07:16:11Z</time>
      </trkpt>
      <trkpt lat="43.64609" lon="1.32397">
        <ele>141</ele>
        <time>2025-10-18T07:16:12Z</time>
      </trkpt>
      <trkpt lat="43.64614" lon="1.324">
        <ele>141</ele>
        <time>2025-10-18T07:16:13Z</time>
      </trkpt>
      <trkpt lat="43.64618" lon="1.32404">
        <ele>140.8</ele>
        <time>2025-10-18T07:16:14Z</time>
      </trkpt>
      <trkpt lat="43.64623" lon="1.32408">
        <ele>140.8</ele>
        <time>2025-10-18T07:16:15Z</time>
      </trkpt>
      <trkpt lat="43.64628" lon="1.32411">
        <ele>140.6</ele>
        <time>2025-10-18T07:16:16Z</time>
      </trkpt>
      <trkpt lat="43.64633" lon="1.32414">
        <ele>140.6</ele>
        <time>2025-10-18T07:16:17Z</time>
      </trkpt>
      <trkpt lat="43.64638" lon="1.32418">
        <ele>140.4</ele>
        <time>2025-10-18T07:16:18Z</time>
      </trkpt>
      <trkpt lat="43.64644" lon="1.32421">
        <ele>140.4</ele>
        <time>2025-10-18T07:16:19Z</time>
      </trkpt>
      <trkpt lat="43.6465" lon="1.32426">
        <ele>140.4</ele>
        <time>2025-10-18T07:16:20Z</time>
      </trkpt>
      <trkpt lat="43.64655" lon="1.3243">
        <ele>140.2</ele>
        <time>2025-10-18T07:16:21Z</time>
      </trkpt>
      <trkpt lat="43.64661" lon="1.32434">
        <ele>140.2</ele>
        <time>2025-10-18T07:16:22Z</time>
      </trkpt>
      <trkpt lat="43.64666" lon="1.32437">
        <ele>140.2</ele>
        <time>2025-10-18T07:16:23Z</time>
      </trkpt>
      <trkpt lat="43.64671" lon="1.3244">
        <ele>140</ele>
        <time>2025-10-18T07:16:24Z</time>
      </trkpt>
      <trkpt lat="43.64677" lon="1.32444">
        <ele>139.8</ele>
        <time>2025-10-18T07:16:25Z</time>
      </trkpt>
      <trkpt lat="43.64682" lon="1.32448">
        <ele>139.8</ele>
        <time>2025-10-18T07:16:26Z</time>
      </trkpt>
      <trkpt lat="43.64688" lon="1.32452">
        <ele>139.8</ele>
        <time>2025-10-18T07:16:27Z</time>
      </trkpt>
      <trkpt lat="43.64694" lon="1.32456">
        <ele>139.8</ele>
        <time>2025-10-18T07:16:28Z</time>
      </trkpt>
      <trkpt lat="43.64699" lon="1.3246">
        <ele>139.8</ele>
        <time>2025-10-18T07:16:29Z</time>
      </trkpt>
      <trkpt lat="43.64705" lon="1.32463">
        <ele>139.8</ele>
        <time>2025-10-18T07:16:30Z</time>
      </trkpt>
      <trkpt lat="43.6471" lon="1.32467">
        <ele>139.8</ele>
        <time>2025-10-18T07:16:31Z</time>
      </trkpt>
      <trkpt lat="43.64715" lon="1.32471">
        <ele>139.6</ele>
        <time>2025-10-18T07:16:32Z</time>
      </trkpt>
      <trkpt lat="43.64721" lon="1.32477">
        <ele>139.6</ele>
        <time>2025-10-18T07:16:33Z</time>
      </trkpt>
      <trkpt lat="43.64725" lon="1.32483">
        <ele>139.6</ele>
        <time>2025-10-18T07:16:34Z</time>
      </trkpt>
      <trkpt lat="43.64728" lon="1.3249">
        <ele>139.6</ele>
        <time>2025-10-18T07:16:35Z</time>
      </trkpt>
      <trkpt lat="43.6473" lon="1.32496">
        <ele>139.8</ele>
        <time>2025-10-18T07:16:36Z</time>
      </trkpt>
      <trkpt lat="43.64733" lon="1.325">
        <ele>140</ele>
        <time>2025-10-18T07:16:37Z</time>
      </trkpt>
      <trkpt lat="43.64735" lon="1.32501">
        <ele>140.2</ele>
        <time>2025-10-18T07:16:38Z</time>
      </trkpt>
      <trkpt lat="43.64738" lon="1.32501">
        <ele>140.6</ele>
        <time>2025-10-18T07:16:39Z</time>
      </trkpt>
      <trkpt lat="43.64742" lon="1.32502">
        <ele>141</ele>
        <time>2025-10-18T07:16:40Z</time>
      </trkpt>
      <trkpt lat="43.64746" lon="1.32502">
        <ele>141.2</ele>
        <time>2025-10-18T07:16:41Z</time>
      </trkpt>
      <trkpt lat="43.64751" lon="1.32503">
        <ele>141.2</ele>
        <time>2025-10-18T07:16:42Z</time>
      </trkpt>
      <trkpt lat="43.64755" lon="1.32504">
        <ele>141.2</ele>
        <time>2025-10-18T07:16:43Z</time>
      </trkpt>
      <trkpt lat="43.6476" lon="1.32505">
        <ele>141</ele>
        <time>2025-10-18T07:16:44Z</time>
      </trkpt>
      <trkpt lat="43.64766" lon="1.32506">
        <ele>141</ele>
        <time>2025-10-18T07:16:45Z</time>
      </trkpt>
      <trkpt lat="43.6477" lon="1.32507">
        <ele>141</ele>
        <time>2025-10-18T07:16:46Z</time>
      </trkpt>
      <trkpt lat="43.64775" lon="1.32508">
        <ele>141</ele>
        <time>2025-10-18T07:16:47Z</time>
      </trkpt>
      <trkpt lat="43.6478" lon="1.3251">
        <ele>141.2</ele>
        <time>2025-10-18T07:16:48Z</time>
      </trkpt>
      <trkpt lat="43.64783" lon="1.32508">
        <ele>141.4</ele>
        <time>2025-10-18T07:16:49Z</time>
      </trkpt>
      <trkpt lat="43.64785" lon="1.32506">
        <ele>142</ele>
        <time>2025-10-18T07:16:50Z</time>
      </trkpt>
      <trkpt lat="43.64786" lon="1.32503">
        <ele>142.4</ele>
        <time>2025-10-18T07:16:51Z</time>
      </trkpt>
      <trkpt lat="43.64786" lon="1.325">
        <ele>143</ele>
        <time>2025-10-18T07:16:52Z</time>
      </trkpt>
      <trkpt lat="43.64787" lon="1.32497">
        <ele>143.6</ele>
        <time>2025-10-18T07:16:53Z</time>
      </trkpt>
      <trkpt lat="43.64788" lon="1.32493">
        <ele>144</ele>
        <time>2025-10-18T07:16:54Z</time>
      </trkpt>
      <trkpt lat="43.64789" lon="1.3249">
        <ele>144.6</ele>
        <time>2025-10-18T07:16:55Z</time>
      </trkpt>
      <trkpt lat="43.64789" lon="1.32486">
        <ele>144.8</ele>
        <time>2025-10-18T07:16:56Z</time>
      </trkpt>
      <trkpt lat="43.64789" lon="1.32481">
        <ele>145.2</ele>
        <time>2025-10-18T07:16:57Z</time>
      </trkpt>
      <trkpt lat="43.64789" lon="1.32476">
        <ele>145.2</ele>
        <time>2025-10-18T07:16:58Z</time>
      </trkpt>
      <trkpt lat="43.64789" lon="1.3247">
        <ele>145.4</ele>
        <time>2025-10-18T07:16:59Z</time>
      </trkpt>
      <trkpt lat="43.64789" lon="1.32464">
        <ele>145.4</ele>
        <time>2025-10-18T07:17:00Z</time>
      </trkpt>
      <trkpt lat="43.6479" lon="1.32457">
        <ele>145.2</ele>
        <time>2025-10-18T07:17:01Z</time>
      </trkpt>
      <trkpt lat="43.64791" lon="1.3245">
        <ele>145</ele>
        <time>2025-10-18T07:17:02Z</time>
      </trkpt>
      <trkpt lat="43.64793" lon="1.32443">
        <ele>144.6</ele>
        <time>2025-10-18T07:17:03Z</time>
      </trkpt>
      <trkpt lat="43.64795" lon="1.32436">
        <ele>144.2</ele>
        <time>2025-10-18T07:17:04Z</time>
      </trkpt>
      <trkpt lat="43.64797" lon="1.32427">
        <ele>143.8</ele>
        <time>2025-10-18T07:17:05Z</time>
      </trkpt>
      <trkpt lat="43.64799" lon="1.32419">
        <ele>143.2</ele>
        <time>2025-10-18T07:17:06Z</time>
      </trkpt>
      <trkpt lat="43.64802" lon="1.3241">
        <ele>142.6</ele>
        <time>2025-10-18T07:17:07Z</time>
      </trkpt>
      <trkpt lat="43.64806" lon="1.32401">
        <ele>142.2</ele>
        <time>2025-10-18T07:17:08Z</time>
      </trkpt>
      <trkpt lat="43.64809" lon="1.32392">
        <ele>141.6</ele>
        <time>2025-10-18T07:17:09Z</time>
      </trkpt>
      <trkpt lat="43.64813" lon="1.32384">
        <ele>141</ele>
        <time>2025-10-18T07:17:10Z</time>
      </trkpt>
      <trkpt lat="43.64816" lon="1.32376">
        <ele>140.8</ele>
        <time>2025-10-18T07:17:11Z</time>
      </trkpt>
      <trkpt lat="43.64821" lon="1.32369">
        <ele>140.4</ele>
        <time>2025-10-18T07:17:12Z</time>
      </trkpt>
      <trkpt lat="43.64825" lon="1.32363">
        <ele>140.2</ele>
        <time>2025-10-18T07:17:13Z</time>
      </trkpt>
      <trkpt lat="43.6483" lon="1.32357">
        <ele>140.2</ele>
        <time>2025-10-18T07:17:14Z</time>
      </trkpt>
      <trkpt lat="43.64835" lon="1.32352">
        <ele>140.4</ele>
        <time>2025-10-18T07:17:15Z</time>
      </trkpt>
      <trkpt lat="43.64839" lon="1.32347">
        <ele>140.6</ele>
        <time>2025-10-18T07:17:16Z</time>
      </trkpt>
      <trkpt lat="43.64844" lon="1.32343">
        <ele>140.6</ele>
        <time>2025-10-18T07:17:17Z</time>
      </trkpt>
      <trkpt lat="43.64848" lon="1.32339">
        <ele>140.8</ele>
        <time>2025-10-18T07:17:18Z</time>
      </trkpt>
      <trkpt lat="43.64852" lon="1.32334">
        <ele>141</ele>
        <time>2025-10-18T07:17:19Z</time>
      </trkpt>
      <trkpt lat="43.64855" lon="1.3233">
        <ele>141.2</ele>
        <time>2025-10-18T07:17:20Z</time>
      </trkpt>
      <trkpt lat="43.64859" lon="1.32324">
        <ele>141.2</ele>
        <time>2025-10-18T07:17:21Z</time>
      </trkpt>
      <trkpt lat="43.64862" lon="1.32317">
        <ele>141.2</ele>
        <time>2025-10-18T07:17:22Z</time>
      </trkpt>
      <trkpt lat="43.64865" lon="1.32311">
        <ele>141.2</ele>
        <time>2025-10-18T07:17:23Z</time>
      </trkpt>
      <trkpt lat="43.64868" lon="1.32303">
        <ele>141</ele>
        <time>2025-10-18T07:17:24Z</time>
      </trkpt>
      <trkpt lat="43.64871" lon="1.32296">
        <ele>140.8</ele>
        <time>2025-10-18T07:17:25Z</time>
      </trkpt>
      <trkpt lat="43.64875" lon="1.3229">
        <ele>140.4</ele>
        <time>2025-10-18T07:17:26Z</time>
      </trkpt>
      <trkpt lat="43.64881" lon="1.32285">
        <ele>140.2</ele>
        <time>2025-10-18T07:17:27Z</time>
      </trkpt>
      <trkpt lat="43.64886" lon="1.32282">
        <ele>140</ele>
        <time>2025-10-18T07:17:28Z</time>
      </trkpt>
      <trkpt lat="43.64892" lon="1.32281">
        <ele>140</ele>
        <time>2025-10-18T07:17:29Z</time>
      </trkpt>
      <trkpt lat="43.64898" lon="1.3228">
        <ele>139.8</ele>
        <time>2025-10-18T07:17:30Z</time>
      </trkpt>
      <trkpt lat="43.64904" lon="1.32279">
        <ele>139.6</ele>
        <time>2025-10-18T07:17:31Z</time>
      </trkpt>
      <trkpt lat="43.6491" lon="1.3228">
        <ele>139.6</ele>
        <time>2025-10-18T07:17:32Z</time>
      </trkpt>
      <trkpt lat="43.64916" lon="1.32279">
        <ele>139.4</ele>
        <time>2025-10-18T07:17:33Z</time>
      </trkpt>
      <trkpt lat="43.64922" lon="1.32281">
        <ele>139.4</ele>
        <time>2025-10-18T07:17:34Z</time>
      </trkpt>
      <trkpt lat="43.64927" lon="1.32283">
        <ele>139.6</ele>
        <time>2025-10-18T07:17:35Z</time>
      </trkpt>
      <trkpt lat="43.6493" lon="1.32287">
        <ele>139.8</ele>
        <time>2025-10-18T07:17:36Z</time>
      </trkpt>
      <trkpt lat="43.6493" lon="1.32291">
        <ele>140</ele>
        <time>2025-10-18T07:17:37Z</time>
      </trkpt>
      <trkpt lat="43.6493" lon="1.32295">
        <ele>140.2</ele>
        <time>2025-10-18T07:17:38Z</time>
      </trkpt>
      <trkpt lat="43.6493" lon="1.323">
        <ele>140.4</ele>
        <time>2025-10-18T07:17:39Z</time>
      </trkpt>
      <trkpt lat="43.64932" lon="1.32305">
        <ele>140.6</ele>
        <time>2025-10-18T07:17:40Z</time>
      </trkpt>
      <trkpt lat="43.64934" lon="1.3231">
        <ele>140.6</ele>
        <time>2025-10-18T07:17:41Z</time>
      </trkpt>
      <trkpt lat="43.64937" lon="1.32315">
        <ele>140.6</ele>
        <time>2025-10-18T07:17:42Z</time>
      </trkpt>
      <trkpt lat="43.6494" lon="1.3232">
        <ele>140.6</ele>
        <time>2025-10-18T07:17:43Z</time>
      </trkpt>
      <trkpt lat="43.64942" lon="1.32325">
        <ele>140.6</ele>
        <time>2025-10-18T07:17:44Z</time>
      </trkpt>
      <trkpt lat="43.64944" lon="1.32331">
        <ele>140.6</ele>
        <time>2025-10-18T07:17:45Z</time>
      </trkpt>
      <trkpt lat="43.64946" lon="1.32336">
        <ele>140.6</ele>
        <time>2025-10-18T07:17:46Z</time>
      </trkpt>
      <trkpt lat="43.64948" lon="1.32342">
        <ele>140.4</ele>
        <time>2025-10-18T07:17:47Z</time>
      </trkpt>
      <trkpt lat="43.64952" lon="1.32344">
        <ele>140.4</ele>
        <time>2025-10-18T07:17:48Z</time>
      </trkpt>
      <trkpt lat="43.64954" lon="1.32342">
        <ele>140.4</ele>
        <time>2025-10-18T07:17:49Z</time>
      </trkpt>
      <trkpt lat="43.64958" lon="1.32339">
        <ele>140.6</ele>
        <time>2025-10-18T07:17:50Z</time>
      </trkpt>
      <trkpt lat="43.64962" lon="1.32336">
        <ele>140.6</ele>
        <time>2025-10-18T07:17:51Z</time>
      </trkpt>
      <trkpt lat="43.64965" lon="1.32333">
        <ele>140.6</ele>
        <time>2025-10-18T07:17:52Z</time>
      </trkpt>
      <trkpt lat="43.64969" lon="1.3233">
        <ele>140.6</ele>
        <time>2025-10-18T07:17:53Z</time>
      </trkpt>
      <trkpt lat="43.64972" lon="1.32329">
        <ele>140.6</ele>
        <time>2025-10-18T07:17:54Z</time>
      </trkpt>
      <trkpt lat="43.64975" lon="1.32332">
        <ele>140.6</ele>
        <time>2025-10-18T07:17:55Z</time>
      </trkpt>
      <trkpt lat="43.64977" lon="1.32335">
        <ele>140.6</ele>
        <time>2025-10-18T07:17:56Z</time>
      </trkpt>
      <trkpt lat="43.64979" lon="1.3234">
        <ele>140.6</ele>
        <time>2025-10-18T07:17:57Z</time>
      </trkpt>
      <trkpt lat="43.64981" lon="1.32346">
        <ele>140.6</ele>
        <time>2025-10-18T07:17:58Z</time>
      </trkpt>
      <trkpt lat="43.64984" lon="1.32352">
        <ele>140.6</ele>
        <time>2025-10-18T07:17:59Z</time>
      </trkpt>
      <trkpt lat="43.64987" lon="1.32359">
        <ele>140.4</ele>
        <time>2025-10-18T07:18:00Z</time>
      </trkpt>
      <trkpt lat="43.6499" lon="1.32366">
        <ele>140.2</ele>
        <time>2025-10-18T07:18:01Z</time>
      </trkpt>
      <trkpt lat="43.64993" lon="1.32373">
        <ele>140.2</ele>
        <time>2025-10-18T07:18:02Z</time>
      </trkpt>
      <trkpt lat="43.64995" lon="1.3238">
        <ele>140</ele>
        <time>2025-10-18T07:18:03Z</time>
      </trkpt>
      <trkpt lat="43.64998" lon="1.32388">
        <ele>139.8</ele>
        <time>2025-10-18T07:18:04Z</time>
      </trkpt>
      <trkpt lat="43.65001" lon="1.32395">
        <ele>139.8</ele>
        <time>2025-10-18T07:18:05Z</time>
      </trkpt>
      <trkpt lat="43.65004" lon="1.32402">
        <ele>139.8</ele>
        <time>2025-10-18T07:18:06Z</time>
      </trkpt>
      <trkpt lat="43.65008" lon="1.3241">
        <ele>139.8</ele>
        <time>2025-10-18T07:18:07Z</time>
      </trkpt>
      <trkpt lat="43.6501" lon="1.32417">
        <ele>139.8</ele>
        <time>2025-10-18T07:18:08Z</time>
      </trkpt>
      <trkpt lat="43.65013" lon="1.32426">
        <ele>140</ele>
        <time>2025-10-18T07:18:09Z</time>
      </trkpt>
      <trkpt lat="43.65014" lon="1.32435">
        <ele>140</ele>
        <time>2025-10-18T07:18:10Z</time>
      </trkpt>
      <trkpt lat="43.65014" lon="1.32444">
        <ele>140</ele>
        <time>2025-10-18T07:18:11Z</time>
      </trkpt>
      <trkpt lat="43.65013" lon="1.32453">
        <ele>140</ele>
        <time>2025-10-18T07:18:12Z</time>
      </trkpt>
      <trkpt lat="43.65013" lon="1.32461">
        <ele>139.8</ele>
        <time>2025-10-18T07:18:13Z</time>
      </trkpt>
      <trkpt lat="43.65012" lon="1.3247">
        <ele>139.8</ele>
        <time>2025-10-18T07:18:14Z</time>
      </trkpt>
      <trkpt lat="43.65011" lon="1.32477">
        <ele>139.8</ele>
        <time>2025-10-18T07:18:15Z</time>
      </trkpt>
      <trkpt lat="43.65011" lon="1.32485">
        <ele>139.8</ele>
        <time>2025-10-18T07:18:16Z</time>
      </trkpt>
      <trkpt lat="43.65011" lon="1.32492">
        <ele>140</ele>
        <time>2025-10-18T07:18:17Z</time>
      </trkpt>
      <trkpt lat="43.65013" lon="1.32498">
        <ele>140.2</ele>
        <time>2025-10-18T07:18:18Z</time>
      </trkpt>
      <trkpt lat="43.65016" lon="1.32503">
        <ele>140.2</ele>
        <time>2025-10-18T07:18:19Z</time>
      </trkpt>
      <trkpt lat="43.65019" lon="1.32509">
        <ele>140.2</ele>
        <time>2025-10-18T07:18:20Z</time>
      </trkpt>
      <trkpt lat="43.65022" lon="1.32514">
        <ele>140.2</ele>
        <time>2025-10-18T07:18:21Z</time>
      </trkpt>
      <trkpt lat="43.65025" lon="1.32518">
        <ele>140.4</ele>
        <time>2025-10-18T07:18:22Z</time>
      </trkpt>
      <trkpt lat="43.65028" lon="1.32521">
        <ele>140.4</ele>
        <time>2025-10-18T07:18:23Z</time>
      </trkpt>
      <trkpt lat="43.65031" lon="1.32525">
        <ele>140.4</ele>
        <time>2025-10-18T07:18:24Z</time>
      </trkpt>
      <trkpt lat="43.65034" lon="1.3253">
        <ele>140.4</ele>
        <time>2025-10-18T07:18:25Z</time>
      </trkpt>
      <trkpt lat="43.65038" lon="1.32534">
        <ele>140.2</ele>
        <time>2025-10-18T07:18:26Z</time>
      </trkpt>
      <trkpt lat="43.65042" lon="1.3254">
        <ele>140.2</ele>
        <time>2025-10-18T07:18:27Z</time>
      </trkpt>
      <trkpt lat="43.65045" lon="1.32546">
        <ele>140</ele>
        <time>2025-10-18T07:18:28Z</time>
      </trkpt>
      <trkpt lat="43.65049" lon="1.32551">
        <ele>139.8</ele>
        <time>2025-10-18T07:18:29Z</time>
      </trkpt>
      <trkpt lat="43.65053" lon="1.32557">
        <ele>139.6</ele>
        <time>2025-10-18T07:18:30Z</time>
      </trkpt>
      <trkpt lat="43.65056" lon="1.32562">
        <ele>139.4</ele>
        <time>2025-10-18T07:18:31Z</time>
      </trkpt>
      <trkpt lat="43.65059" lon="1.32568">
        <ele>139.4</ele>
        <time>2025-10-18T07:18:32Z</time>
      </trkpt>
      <trkpt lat="43.65063" lon="1.32576">
        <ele>139.4</ele>
        <time>2025-10-18T07:18:33Z</time>
      </trkpt>
      <trkpt lat="43.65067" lon="1.32583">
        <ele>139.4</ele>
        <time>2025-10-18T07:18:34Z</time>
      </trkpt>
      <trkpt lat="43.6507" lon="1.3259">
        <ele>139.4</ele>
        <time>2025-10-18T07:18:35Z</time>
      </trkpt>
      <trkpt lat="43.65073" lon="1.32597">
        <ele>139.4</ele>
        <time>2025-10-18T07:18:36Z</time>
      </trkpt>
      <trkpt lat="43.65077" lon="1.32604">
        <ele>139.4</ele>
        <time>2025-10-18T07:18:37Z</time>
      </trkpt>
      <trkpt lat="43.6508" lon="1.32609">
        <ele>139.6</ele>
        <time>2025-10-18T07:18:38Z</time>
      </trkpt>
      <trkpt lat="43.65083" lon="1.32615">
        <ele>139.6</ele>
        <time>2025-10-18T07:18:39Z</time>
      </trkpt>
      <trkpt lat="43.65086" lon="1.32621">
        <ele>139.8</ele>
        <time>2025-10-18T07:18:40Z</time>
      </trkpt>
      <trkpt lat="43.65089" lon="1.32627">
        <ele>139.8</ele>
        <time>2025-10-18T07:18:41Z</time>
      </trkpt>
      <trkpt lat="43.65092" lon="1.32634">
        <ele>139.8</ele>
        <time>2025-10-18T07:18:42Z</time>
      </trkpt>
      <trkpt lat="43.65095" lon="1.3264">
        <ele>139.8</ele>
        <time>2025-10-18T07:18:43Z</time>
      </trkpt>
      <trkpt lat="43.65098" lon="1.32647">
        <ele>139.8</ele>
        <time>2025-10-18T07:18:44Z</time>
      </trkpt>
      <trkpt lat="43.651" lon="1.32654">
        <ele>140</ele>
        <time>2025-10-18T07:18:45Z</time>
      </trkpt>
      <trkpt lat="43.65103" lon="1.32661">
        <ele>140</ele>
        <time>2025-10-18T07:18:46Z</time>
      </trkpt>
      <trkpt lat="43.65106" lon="1.32668">
        <ele>140</ele>
        <time>2025-10-18T07:18:47Z</time>
      </trkpt>
      <trkpt lat="43.65109" lon="1.32675">
        <ele>140.2</ele>
        <time>2025-10-18T07:18:48Z</time>
      </trkpt>
      <trkpt lat="43.65111" lon="1.32681">
        <ele>140.2</ele>
        <time>2025-10-18T07:18:49Z</time>
      </trkpt>
      <trkpt lat="43.65114" lon="1.32687">
        <ele>140.2</ele>
        <time>2025-10-18T07:18:50Z</time>
      </trkpt>
      <trkpt lat="43.65117" lon="1.32694">
        <ele>140.2</ele>
        <time>2025-10-18T07:18:51Z</time>
      </trkpt>
      <trkpt lat="43.65119" lon="1.32699">
        <ele>140.2</ele>
        <time>2025-10-18T07:18:52Z</time>
      </trkpt>
      <trkpt lat="43.65121" lon="1.32704">
        <ele>140.4</ele>
        <time>2025-10-18T07:18:53Z</time>
      </trkpt>
      <trkpt lat="43.65123" lon="1.32707">
        <ele>140.4</ele>
        <time>2025-10-18T07:18:54Z</time>
      </trkpt>
      <trkpt lat="43.65122" lon="1.32712">
        <ele>140.6</ele>
        <time>2025-10-18T07:18:55Z</time>
      </trkpt>
      <trkpt lat="43.65121" lon="1.32715">
        <ele>140.8</ele>
        <time>2025-10-18T07:18:56Z</time>
      </trkpt>
      <trkpt lat="43.65118" lon="1.3272">
        <ele>140.8</ele>
        <time>2025-10-18T07:18:57Z</time>
      </trkpt>
      <trkpt lat="43.65116" lon="1.32723">
        <ele>141</ele>
        <time>2025-10-18T07:18:58Z</time>
      </trkpt>
      <trkpt lat="43.65114" lon="1.32726">
        <ele>141</ele>
        <time>2025-10-18T07:18:59Z</time>
      </trkpt>
      <trkpt lat="43.65111" lon="1.3273">
        <ele>141</ele>
        <time>2025-10-18T07:19:00Z</time>
      </trkpt>
      <trkpt lat="43.65107" lon="1.32734">
        <ele>141</ele>
        <time>2025-10-18T07:19:01Z</time>
      </trkpt>
      <trkpt lat="43.65104" lon="1.32738">
        <ele>141.2</ele>
        <time>2025-10-18T07:19:02Z</time>
      </trkpt>
      <trkpt lat="43.651" lon="1.32742">
        <ele>141.2</ele>
        <time>2025-10-18T07:19:03Z</time>
      </trkpt>
      <trkpt lat="43.65097" lon="1.32746">
        <ele>141.2</ele>
        <time>2025-10-18T07:19:04Z</time>
      </trkpt>
      <trkpt lat="43.65094" lon="1.3275">
        <ele>141.2</ele>
        <time>2025-10-18T07:19:05Z</time>
      </trkpt>
      <trkpt lat="43.65091" lon="1.32753">
        <ele>141.4</ele>
        <time>2025-10-18T07:19:06Z</time>
      </trkpt>
      <trkpt lat="43.65088" lon="1.32757">
        <ele>141.4</ele>
        <time>2025-10-18T07:19:07Z</time>
      </trkpt>
      <trkpt lat="43.65084" lon="1.32761">
        <ele>141.6</ele>
        <time>2025-10-18T07:19:08Z</time>
      </trkpt>
      <trkpt lat="43.65081" lon="1.32764">
        <ele>141.8</ele>
        <time>2025-10-18T07:19:09Z</time>
      </trkpt>
      <trkpt lat="43.65078" lon="1.32768">
        <ele>141.8</ele>
        <time>2025-10-18T07:19:10Z</time>
      </trkpt>
      <trkpt lat="43.65074" lon="1.32771">
        <ele>142</ele>
        <time>2025-10-18T07:19:11Z</time>
      </trkpt>
      <trkpt lat="43.6507" lon="1.32775">
        <ele>142.2</ele>
        <time>2025-10-18T07:19:12Z</time>
      </trkpt>
      <trkpt lat="43.65067" lon="1.32779">
        <ele>142.4</ele>
        <time>2025-10-18T07:19:13Z</time>
      </trkpt>
      <trkpt lat="43.65063" lon="1.32783">
        <ele>142.6</ele>
        <time>2025-10-18T07:19:14Z</time>
      </trkpt>
      <trkpt lat="43.65059" lon="1.32787">
        <ele>142.8</ele>
        <time>2025-10-18T07:19:15Z</time>
      </trkpt>
      <trkpt lat="43.65055" lon="1.32791">
        <ele>143</ele>
        <time>2025-10-18T07:19:16Z</time>
      </trkpt>
      <trkpt lat="43.65051" lon="1.32795">
        <ele>143.2</ele>
        <time>2025-10-18T07:19:17Z</time>
      </trkpt>
      <trkpt lat="43.65047" lon="1.328">
        <ele>143.4</ele>
        <time>2025-10-18T07:19:18Z</time>
      </trkpt>
      <trkpt lat="43.65043" lon="1.32804">
        <ele>143.6</ele>
        <time>2025-10-18T07:19:19Z</time>
      </trkpt>
      <trkpt lat="43.6504" lon="1.32809">
        <ele>143.8</ele>
        <time>2025-10-18T07:19:20Z</time>
      </trkpt>
      <trkpt lat="43.65036" lon="1.32813">
        <ele>144</ele>
        <time>2025-10-18T07:19:21Z</time>
      </trkpt>
      <trkpt lat="43.65032" lon="1.32818">
        <ele>144.2</ele>
        <time>2025-10-18T07:19:22Z</time>
      </trkpt>
      <trkpt lat="43.65029" lon="1.32822">
        <ele>144.4</ele>
        <time>2025-10-18T07:19:23Z</time>
      </trkpt>
      <trkpt lat="43.65025" lon="1.32827">
        <ele>144.6</ele>
        <time>2025-10-18T07:19:24Z</time>
      </trkpt>
      <trkpt lat="43.65022" lon="1.3283">
        <ele>145</ele>
        <time>2025-10-18T07:19:25Z</time>
      </trkpt>
      <trkpt lat="43.65018" lon="1.32834">
        <ele>145.2</ele>
        <time>2025-10-18T07:19:26Z</time>
      </trkpt>
      <trkpt lat="43.65015" lon="1.32839">
        <ele>145.6</ele>
        <time>2025-10-18T07:19:27Z</time>
      </trkpt>
      <trkpt lat="43.65012" lon="1.32843">
        <ele>146</ele>
        <time>2025-10-18T07:19:28Z</time>
      </trkpt>
      <trkpt lat="43.65009" lon="1.32847">
        <ele>146.2</ele>
        <time>2025-10-18T07:19:29Z</time>
      </trkpt>
      <trkpt lat="43.65006" lon="1.32851">
        <ele>146.6</ele>
        <time>2025-10-18T07:19:30Z</time>
      </trkpt>
      <trkpt lat="43.65002" lon="1.32854">
        <ele>147</ele>
        <time>2025-10-18T07:19:31Z</time>
      </trkpt>
      <trkpt lat="43.65" lon="1.32857">
        <ele>147.4</ele>
        <time>2025-10-18T07:19:32Z</time>
      </trkpt>
      <trkpt lat="43.64998" lon="1.3286">
        <ele>147.8</ele>
        <time>2025-10-18T07:19:33Z</time>
      </trkpt>
      <trkpt lat="43.64995" lon="1.32863">
        <ele>148</ele>
        <time>2025-10-18T07:19:34Z</time>
      </trkpt>
      <trkpt lat="43.64994" lon="1.32866">
        <ele>148.4</ele>
        <time>2025-10-18T07:19:35Z</time>
      </trkpt>
      <trkpt lat="43.64993" lon="1.32869">
        <ele>148.8</ele>
        <time>2025-10-18T07:19:36Z</time>
      </trkpt>
      <trkpt lat="43.64991" lon="1.32871">
        <ele>149.4</ele>
        <time>2025-10-18T07:19:37Z</time>
      </trkpt>
      <trkpt lat="43.64991" lon="1.32874">
        <ele>149.8</ele>
        <time>2025-10-18T07:19:38Z</time>
      </trkpt>
      <trkpt lat="43.64991" lon="1.32877">
        <ele>150</ele>
        <time>2025-10-18T07:19:39Z</time>
      </trkpt>
      <trkpt lat="43.64992" lon="1.3288">
        <ele>150.4</ele>
        <time>2025-10-18T07:19:40Z</time>
      </trkpt>
      <trkpt lat="43.64994" lon="1.32885">
        <ele>150.4</ele>
        <time>2025-10-18T07:19:41Z</time>
      </trkpt>
      <trkpt lat="43.64998" lon="1.32889">
        <ele>150.6</ele>
        <time>2025-10-18T07:19:42Z</time>
      </trkpt>
      <trkpt lat="43.65001" lon="1.32894">
        <ele>150.6</ele>
        <time>2025-10-18T07:19:43Z</time>
      </trkpt>
      <trkpt lat="43.65005" lon="1.32898">
        <ele>150.6</ele>
        <time>2025-10-18T07:19:44Z</time>
      </trkpt>
      <trkpt lat="43.65009" lon="1.32902">
        <ele>150.4</ele>
        <time>2025-10-18T07:19:45Z</time>
      </trkpt>
      <trkpt lat="43.65014" lon="1.32906">
        <ele>150.2</ele>
        <time>2025-10-18T07:19:46Z</time>
      </trkpt>
      <trkpt lat="43.65018" lon="1.3291">
        <ele>150.2</ele>
        <time>2025-10-18T07:19:47Z</time>
      </trkpt>
      <trkpt lat="43.65023" lon="1.32915">
        <ele>150</ele>
        <time>2025-10-18T07:19:48Z</time>
      </trkpt>
      <trkpt lat="43.65028" lon="1.3292">
        <ele>150</ele>
        <time>2025-10-18T07:19:49Z</time>
      </trkpt>
      <trkpt lat="43.65033" lon="1.32925">
        <ele>150</ele>
        <time>2025-10-18T07:19:50Z</time>
      </trkpt>
      <trkpt lat="43.65038" lon="1.3293">
        <ele>150</ele>
        <time>2025-10-18T07:19:51Z</time>
      </trkpt>
      <trkpt lat="43.65043" lon="1.32935">
        <ele>149.8</ele>
        <time>2025-10-18T07:19:52Z</time>
      </trkpt>
      <trkpt lat="43.65047" lon="1.3294">
        <ele>149.8</ele>
        <time>2025-10-18T07:19:53Z</time>
      </trkpt>
      <trkpt lat="43.65052" lon="1.32945">
        <ele>149.6</ele>
        <time>2025-10-18T07:19:54Z</time>
      </trkpt>
      <trkpt lat="43.65057" lon="1.3295">
        <ele>149.4</ele>
        <time>2025-10-18T07:19:55Z</time>
      </trkpt>
      <trkpt lat="43.65062" lon="1.32955">
        <ele>149.4</ele>
        <time>2025-10-18T07:19:56Z</time>
      </trkpt>
      <trkpt lat="43.65067" lon="1.3296">
        <ele>149.2</ele>
        <time>2025-10-18T07:19:57Z</time>
      </trkpt>
      <trkpt lat="43.65072" lon="1.32966">
        <ele>149.2</ele>
        <time>2025-10-18T07:19:58Z</time>
      </trkpt>
      <trkpt lat="43.65077" lon="1.32971">
        <ele>149</ele>
        <time>2025-10-18T07:19:59Z</time>
      </trkpt>
      <trkpt lat="43.65082" lon="1.32975">
        <ele>149</ele>
        <time>2025-10-18T07:20:00Z</time>
      </trkpt>
      <trkpt lat="43.65087" lon="1.3298">
        <ele>149</ele>
        <time>2025-10-18T07:20:01Z</time>
      </trkpt>
      <trkpt lat="43.65091" lon="1.32984">
        <ele>149.2</ele>
        <time>2025-10-18T07:20:02Z</time>
      </trkpt>
      <trkpt lat="43.65096" lon="1.32989">
        <ele>149.2</ele>
        <time>2025-10-18T07:20:03Z</time>
      </trkpt>
      <trkpt lat="43.65101" lon="1.32995">
        <ele>149.2</ele>
        <time>2025-10-18T07:20:04Z</time>
      </trkpt>
      <trkpt lat="43.65106" lon="1.33">
        <ele>149</ele>
        <time>2025-10-18T07:20:05Z</time>
      </trkpt>
      <trkpt lat="43.6511" lon="1.33006">
        <ele>149</ele>
        <time>2025-10-18T07:20:06Z</time>
      </trkpt>
      <trkpt lat="43.65114" lon="1.33011">
        <ele>148.8</ele>
        <time>2025-10-18T07:20:07Z</time>
      </trkpt>
      <trkpt lat="43.65119" lon="1.33017">
        <ele>148.8</ele>
        <time>2025-10-18T07:20:08Z</time>
      </trkpt>
      <trkpt lat="43.65123" lon="1.33022">
        <ele>148.8</ele>
        <time>2025-10-18T07:20:09Z</time>
      </trkpt>
      <trkpt lat="43.65128" lon="1.33027">
        <ele>148.8</ele>
        <time>2025-10-18T07:20:10Z</time>
      </trkpt>
      <trkpt lat="43.65133" lon="1.33033">
        <ele>148.8</ele>
        <time>2025-10-18T07:20:11Z</time>
      </trkpt>
      <trkpt lat="43.65138" lon="1.33038">
        <ele>149</ele>
        <time>2025-10-18T07:20:12Z</time>
      </trkpt>
      <trkpt lat="43.65143" lon="1.33043">
        <ele>149</ele>
        <time>2025-10-18T07:20:13Z</time>
      </trkpt>
      <trkpt lat="43.65147" lon="1.33048">
        <ele>149.2</ele>
        <time>2025-10-18T07:20:14Z</time>
      </trkpt>
      <trkpt lat="43.65151" lon="1.33053">
        <ele>149.2</ele>
        <time>2025-10-18T07:20:15Z</time>
      </trkpt>
      <trkpt lat="43.65155" lon="1.33059">
        <ele>149.2</ele>
        <time>2025-10-18T07:20:16Z</time>
      </trkpt>
      <trkpt lat="43.65157" lon="1.33065">
        <ele>149.2</ele>
        <time>2025-10-18T07:20:17Z</time>
      </trkpt>
      <trkpt lat="43.65159" lon="1.33071">
        <ele>149.4</ele>
        <time>2025-10-18T07:20:18Z</time>
      </trkpt>
      <trkpt lat="43.65159" lon="1.33077">
        <ele>149.4</ele>
        <time>2025-10-18T07:20:19Z</time>
      </trkpt>
      <trkpt lat="43.65158" lon="1.33081">
        <ele>149.6</ele>
        <time>2025-10-18T07:20:20Z</time>
      </trkpt>
      <trkpt lat="43.65158" lon="1.33084">
        <ele>149.6</ele>
        <time>2025-10-18T07:20:21Z</time>
      </trkpt>
      <trkpt lat="43.65157" lon="1.33087">
        <ele>149.8</ele>
        <time>2025-10-18T07:20:22Z</time>
      </trkpt>
      <trkpt lat="43.65155" lon="1.3309">
        <ele>150</ele>
        <time>2025-10-18T07:20:23Z</time>
      </trkpt>
      <trkpt lat="43.65154" lon="1.33094">
        <ele>150.2</ele>
        <time>2025-10-18T07:20:24Z</time>
      </trkpt>
      <trkpt lat="43.65152" lon="1.33098">
        <ele>150.4</ele>
        <time>2025-10-18T07:20:25Z</time>
      </trkpt>
      <trkpt lat="43.6515" lon="1.33103">
        <ele>150.4</ele>
        <time>2025-10-18T07:20:26Z</time>
      </trkpt>
      <trkpt lat="43.65148" lon="1.33108">
        <ele>150.6</ele>
        <time>2025-10-18T07:20:27Z</time>
      </trkpt>
      <trkpt lat="43.65146" lon="1.33113">
        <ele>150.6</ele>
        <time>2025-10-18T07:20:28Z</time>
      </trkpt>
      <trkpt lat="43.65144" lon="1.33118">
        <ele>150.8</ele>
        <time>2025-10-18T07:20:29Z</time>
      </trkpt>
      <trkpt lat="43.65142" lon="1.33124">
        <ele>151</ele>
        <time>2025-10-18T07:20:30Z</time>
      </trkpt>
      <trkpt lat="43.65139" lon="1.33129">
        <ele>151</ele>
        <time>2025-10-18T07:20:31Z</time>
      </trkpt>
      <trkpt lat="43.65137" lon="1.33135">
        <ele>151.2</ele>
        <time>2025-10-18T07:20:32Z</time>
      </trkpt>
      <trkpt lat="43.65135" lon="1.3314">
        <ele>151.2</ele>
        <time>2025-10-18T07:20:33Z</time>
      </trkpt>
      <trkpt lat="43.65134" lon="1.33147">
        <ele>151.2</ele>
        <time>2025-10-18T07:20:34Z</time>
      </trkpt>
      <trkpt lat="43.65132" lon="1.33153">
        <ele>151.2</ele>
        <time>2025-10-18T07:20:35Z</time>
      </trkpt>
      <trkpt lat="43.6513" lon="1.33159">
        <ele>151.4</ele>
        <time>2025-10-18T07:20:36Z</time>
      </trkpt>
      <trkpt lat="43.65127" lon="1.33165">
        <ele>151.4</ele>
        <time>2025-10-18T07:20:37Z</time>
      </trkpt>
      <trkpt lat="43.65125" lon="1.33172">
        <ele>151.4</ele>
        <time>2025-10-18T07:20:38Z</time>
      </trkpt>
      <trkpt lat="43.65123" lon="1.33178">
        <ele>151.4</ele>
        <time>2025-10-18T07:20:39Z</time>
      </trkpt>
      <trkpt lat="43.6512" lon="1.33184">
        <ele>151.4</ele>
        <time>2025-10-18T07:20:40Z</time>
      </trkpt>
      <trkpt lat="43.65118" lon="1.3319">
        <ele>151.4</ele>
        <time>2025-10-18T07:20:41Z</time>
      </trkpt>
      <trkpt lat="43.65115" lon="1.33197">
        <ele>151.4</ele>
        <time>2025-10-18T07:20:42Z</time>
      </trkpt>
      <trkpt lat="43.65112" lon="1.33203">
        <ele>151.2</ele>
        <time>2025-10-18T07:20:43Z</time>
      </trkpt>
      <trkpt lat="43.6511" lon="1.33209">
        <ele>151.2</ele>
        <time>2025-10-18T07:20:44Z</time>
      </trkpt>
      <trkpt lat="43.65107" lon="1.33215">
        <ele>151.2</ele>
        <time>2025-10-18T07:20:45Z</time>
      </trkpt>
      <trkpt lat="43.65105" lon="1.33222">
        <ele>151.2</ele>
        <time>2025-10-18T07:20:46Z</time>
      </trkpt>
      <trkpt lat="43.65102" lon="1.33228">
        <ele>151.2</ele>
        <time>2025-10-18T07:20:47Z</time>
      </trkpt>
      <trkpt lat="43.65099" lon="1.33234">
        <ele>151.4</ele>
        <time>2025-10-18T07:20:48Z</time>
      </trkpt>
      <trkpt lat="43.65097" lon="1.3324">
        <ele>151.4</ele>
        <time>2025-10-18T07:20:49Z</time>
      </trkpt>
      <trkpt lat="43.65095" lon="1.33246">
        <ele>151.2</ele>
        <time>2025-10-18T07:20:50Z</time>
      </trkpt>
      <trkpt lat="43.65093" lon="1.33251">
        <ele>151.2</ele>
        <time>2025-10-18T07:20:51Z</time>
      </trkpt>
      <trkpt lat="43.65091" lon="1.33257">
        <ele>151.2</ele>
        <time>2025-10-18T07:20:52Z</time>
      </trkpt>
      <trkpt lat="43.65089" lon="1.33262">
        <ele>151.2</ele>
        <time>2025-10-18T07:20:53Z</time>
      </trkpt>
      <trkpt lat="43.65087" lon="1.33267">
        <ele>151.2</ele>
        <time>2025-10-18T07:20:54Z</time>
      </trkpt>
      <trkpt lat="43.65084" lon="1.33273">
        <ele>151.2</ele>
        <time>2025-10-18T07:20:55Z</time>
      </trkpt>
      <trkpt lat="43.65081" lon="1.33278">
        <ele>151.2</ele>
        <time>2025-10-18T07:20:56Z</time>
      </trkpt>
      <trkpt lat="43.65079" lon="1.33283">
        <ele>151.2</ele>
        <time>2025-10-18T07:20:57Z</time>
      </trkpt>
      <trkpt lat="43.65078" lon="1.33287">
        <ele>151.2</ele>
        <time>2025-10-18T07:20:58Z</time>
      </trkpt>
      <trkpt lat="43.65079" lon="1.3329">
        <ele>151.2</ele>
        <time>2025-10-18T07:20:59Z</time>
      </trkpt>
      <trkpt lat="43.65079" lon="1.33292">
        <ele>151.4</ele>
        <time>2025-10-18T07:21:00Z</time>
      </trkpt>
      <trkpt lat="43.65081" lon="1.33293">
        <ele>151.4</ele>
        <time>2025-10-18T07:21:01Z</time>
      </trkpt>
      <trkpt lat="43.65082" lon="1.33294">
        <ele>151.4</ele>
        <time>2025-10-18T07:21:02Z</time>
      </trkpt>
      <trkpt lat="43.65084" lon="1.33295">
        <ele>151.4</ele>
        <time>2025-10-18T07:21:03Z</time>
      </trkpt>
      <trkpt lat="43.65087" lon="1.33296">
        <ele>151.4</ele>
        <time>2025-10-18T07:21:04Z</time>
      </trkpt>
      <trkpt lat="43.6509" lon="1.33298">
        <ele>151.4</ele>
        <time>2025-10-18T07:21:05Z</time>
      </trkpt>
      <trkpt lat="43.65093" lon="1.333">
        <ele>151.2</ele>
        <time>2025-10-18T07:21:06Z</time>
      </trkpt>
      <trkpt lat="43.65095" lon="1.33303">
        <ele>151</ele>
        <time>2025-10-18T07:21:07Z</time>
      </trkpt>
      <trkpt lat="43.65097" lon="1.33307">
        <ele>150.6</ele>
        <time>2025-10-18T07:21:08Z</time>
      </trkpt>
      <trkpt lat="43.65097" lon="1.33312">
        <ele>150.2</ele>
        <time>2025-10-18T07:21:09Z</time>
      </trkpt>
      <trkpt lat="43.65096" lon="1.33316">
        <ele>150</ele>
        <time>2025-10-18T07:21:10Z</time>
      </trkpt>
      <trkpt lat="43.65097" lon="1.3332">
        <ele>149.8</ele>
        <time>2025-10-18T07:21:11Z</time>
      </trkpt>
      <trkpt lat="43.65098" lon="1.33322">
        <ele>149.6</ele>
        <time>2025-10-18T07:21:12Z</time>
      </trkpt>
      <trkpt lat="43.65098" lon="1.33324">
        <ele>149.6</ele>
        <time>2025-10-18T07:21:13Z</time>
      </trkpt>
      <trkpt lat="43.65099" lon="1.33326">
        <ele>149.6</ele>
        <time>2025-10-18T07:21:14Z</time>
      </trkpt>
      <trkpt lat="43.65102" lon="1.33329">
        <ele>149.4</ele>
        <time>2025-10-18T07:21:15Z</time>
      </trkpt>
      <trkpt lat="43.65104" lon="1.33333">
        <ele>149.2</ele>
        <time>2025-10-18T07:21:16Z</time>
      </trkpt>
      <trkpt lat="43.65105" lon="1.33338">
        <ele>149</ele>
        <time>2025-10-18T07:21:17Z</time>
      </trkpt>
      <trkpt lat="43.65105" lon="1.33343">
        <ele>148.6</ele>
        <time>2025-10-18T07:21:18Z</time>
      </trkpt>
      <trkpt lat="43.65104" lon="1.33349">
        <ele>148.4</ele>
        <time>2025-10-18T07:21:19Z</time>
      </trkpt>
      <trkpt lat="43.65102" lon="1.33355">
        <ele>148.2</ele>
        <time>2025-10-18T07:21:20Z</time>
      </trkpt>
      <trkpt lat="43.65101" lon="1.33362">
        <ele>148</ele>
        <time>2025-10-18T07:21:21Z</time>
      </trkpt>
      <trkpt lat="43.651" lon="1.33369">
        <ele>147.8</ele>
        <time>2025-10-18T07:21:22Z</time>
      </trkpt>
      <trkpt lat="43.65099" lon="1.33375">
        <ele>147.8</ele>
        <time>2025-10-18T07:21:23Z</time>
      </trkpt>
      <trkpt lat="43.651" lon="1.33381">
        <ele>147.8</ele>
        <time>2025-10-18T07:21:24Z</time>
      </trkpt>
      <trkpt lat="43.65101" lon="1.33387">
        <ele>147.8</ele>
        <time>2025-10-18T07:21:25Z</time>
      </trkpt>
      <trkpt lat="43.65101" lon="1.33394">
        <ele>147.8</ele>
        <time>2025-10-18T07:21:26Z</time>
      </trkpt>
      <trkpt lat="43.65101" lon="1.33399">
        <ele>147.8</ele>
        <time>2025-10-18T07:21:27Z</time>
      </trkpt>
      <trkpt lat="43.65101" lon="1.33404">
        <ele>147.8</ele>
        <time>2025-10-18T07:21:28Z</time>
      </trkpt>
      <trkpt lat="43.65102" lon="1.3341">
        <ele>148</ele>
        <time>2025-10-18T07:21:29Z</time>
      </trkpt>
      <trkpt lat="43.65103" lon="1.33414">
        <ele>148</ele>
        <time>2025-10-18T07:21:30Z</time>
      </trkpt>
      <trkpt lat="43.65106" lon="1.33417">
        <ele>148</ele>
        <time>2025-10-18T07:21:31Z</time>
      </trkpt>
      <trkpt lat="43.65108" lon="1.33418">
        <ele>148</ele>
        <time>2025-10-18T07:21:32Z</time>
      </trkpt>
      <trkpt lat="43.65109" lon="1.33419">
        <ele>148.2</ele>
        <time>2025-10-18T07:21:33Z</time>
      </trkpt>
      <trkpt lat="43.6511" lon="1.3342">
        <ele>148.2</ele>
        <time>2025-10-18T07:21:34Z</time>
      </trkpt>
      <trkpt lat="43.65111" lon="1.3342">
        <ele>148.2</ele>
        <time>2025-10-18T07:21:35Z</time>
      </trkpt>
      <trkpt lat="43.65113" lon="1.33421">
        <ele>148.4</ele>
        <time>2025-10-18T07:21:36Z</time>
      </trkpt>
      <trkpt lat="43.65115" lon="1.33422">
        <ele>148.4</ele>
        <time>2025-10-18T07:21:37Z</time>
      </trkpt>
      <trkpt lat="43.65118" lon="1.33424">
        <ele>148.4</ele>
        <time>2025-10-18T07:21:38Z</time>
      </trkpt>
      <trkpt lat="43.6512" lon="1.33426">
        <ele>148.2</ele>
        <time>2025-10-18T07:21:39Z</time>
      </trkpt>
      <trkpt lat="43.65123" lon="1.33428">
        <ele>148.2</ele>
        <time>2025-10-18T07:21:40Z</time>
      </trkpt>
      <trkpt lat="43.65125" lon="1.33431">
        <ele>148.2</ele>
        <time>2025-10-18T07:21:41Z</time>
      </trkpt>
      <trkpt lat="43.65126" lon="1.33435">
        <ele>148.2</ele>
        <time>2025-10-18T07:21:42Z</time>
      </trkpt>
      <trkpt lat="43.65126" lon="1.33439">
        <ele>148.2</ele>
        <time>2025-10-18T07:21:43Z</time>
      </trkpt>
      <trkpt lat="43.65125" lon="1.33442">
        <ele>148.2</ele>
        <time>2025-10-18T07:21:44Z</time>
      </trkpt>
      <trkpt lat="43.65124" lon="1.33445">
        <ele>148.4</ele>
        <time>2025-10-18T07:21:45Z</time>
      </trkpt>
      <trkpt lat="43.65125" lon="1.33449">
        <ele>148.4</ele>
        <time>2025-10-18T07:21:46Z</time>
      </trkpt>
      <trkpt lat="43.65127" lon="1.33451">
        <ele>148.4</ele>
        <time>2025-10-18T07:21:47Z</time>
      </trkpt>
      <trkpt lat="43.65128" lon="1.33454">
        <ele>148.4</ele>
        <time>2025-10-18T07:21:48Z</time>
      </trkpt>
      <trkpt lat="43.65129" lon="1.33456">
        <ele>148.4</ele>
        <time>2025-10-18T07:21:49Z</time>
      </trkpt>
      <trkpt lat="43.6513" lon="1.33459">
        <ele>148.4</ele>
        <time>2025-10-18T07:21:50Z</time>
      </trkpt>
      <trkpt lat="43.6513" lon="1.33461">
        <ele>148.4</ele>
        <time>2025-10-18T07:21:51Z</time>
      </trkpt>
      <trkpt lat="43.65131" lon="1.33463">
        <ele>148.4</ele>
        <time>2025-10-18T07:21:52Z</time>
      </trkpt>
      <trkpt lat="43.65131" lon="1.33464">
        <ele>148.6</ele>
        <time>2025-10-18T07:21:53Z</time>
      </trkpt>
      <trkpt lat="43.65131" lon="1.33466">
        <ele>148.6</ele>
        <time>2025-10-18T07:21:54Z</time>
      </trkpt>
      <trkpt lat="43.65131" lon="1.33465">
        <ele>148.6</ele>
        <time>2025-10-18T07:21:55Z</time>
      </trkpt>
      <trkpt lat="43.65132" lon="1.33465">
        <ele>148.6</ele>
        <time>2025-10-18T07:21:56Z</time>
      </trkpt>
      <trkpt lat="43.65126" lon="1.33464">
        <ele>148.6</ele>
        <time>2025-10-18T07:40:43Z</time>
      </trkpt>
      <trkpt lat="43.65125" lon="1.33462">
        <ele>148.6</ele>
        <time>2025-10-18T07:40:44Z</time>
      </trkpt>
      <trkpt lat="43.65124" lon="1.33459">
        <ele>148.6</ele>
        <time>2025-10-18T07:40:45Z</time>
      </trkpt>
      <trkpt lat="43.65122" lon="1.33456">
        <ele>148.6</ele>
        <time>2025-10-18T07:40:46Z</time>
      </trkpt>
      <trkpt lat="43.65121" lon="1.33454">
        <ele>148.6</ele>
        <time>2025-10-18T07:40:47Z</time>
      </trkpt>
      <trkpt lat="43.65118" lon="1.33452">
        <ele>148.6</ele>
        <time>2025-10-18T07:40:48Z</time>
      </trkpt>
      <trkpt lat="43.65116" lon="1.33454">
        <ele>148.6</ele>
        <time>2025-10-18T07:40:49Z</time>
      </trkpt>
      <trkpt lat="43.65114" lon="1.33455">
        <ele>148.6</ele>
        <time>2025-10-18T07:40:50Z</time>
      </trkpt>
      <trkpt lat="43.65111" lon="1.33455">
        <ele>148.4</ele>
        <time>2025-10-18T07:40:51Z</time>
      </trkpt>
      <trkpt lat="43.65108" lon="1.33453">
        <ele>148.4</ele>
        <time>2025-10-18T07:40:52Z</time>
      </trkpt>
      <trkpt lat="43.65106" lon="1.3345">
        <ele>148.4</ele>
        <time>2025-10-18T07:40:53Z</time>
      </trkpt>
      <trkpt lat="43.65103" lon="1.33446">
        <ele>148.2</ele>
        <time>2025-10-18T07:40:54Z</time>
      </trkpt>
      <trkpt lat="43.651" lon="1.33442">
        <ele>148</ele>
        <time>2025-10-18T07:40:55Z</time>
      </trkpt>
      <trkpt lat="43.65098" lon="1.33436">
        <ele>148</ele>
        <time>2025-10-18T07:40:56Z</time>
      </trkpt>
      <trkpt lat="43.65098" lon="1.33429">
        <ele>148</ele>
        <time>2025-10-18T07:40:57Z</time>
      </trkpt>
      <trkpt lat="43.65098" lon="1.33423">
        <ele>147.8</ele>
        <time>2025-10-18T07:40:58Z</time>
      </trkpt>
      <trkpt lat="43.65098" lon="1.33418">
        <ele>147.8</ele>
        <time>2025-10-18T07:40:59Z</time>
      </trkpt>
      <trkpt lat="43.65097" lon="1.33411">
        <ele>147.8</ele>
        <time>2025-10-18T07:41:00Z</time>
      </trkpt>
      <trkpt lat="43.65098" lon="1.33405">
        <ele>147.8</ele>
        <time>2025-10-18T07:41:01Z</time>
      </trkpt>
      <trkpt lat="43.65098" lon="1.334">
        <ele>147.8</ele>
        <time>2025-10-18T07:41:02Z</time>
      </trkpt>
      <trkpt lat="43.65099" lon="1.33393">
        <ele>147.8</ele>
        <time>2025-10-18T07:41:03Z</time>
      </trkpt>
      <trkpt lat="43.65099" lon="1.33387">
        <ele>147.8</ele>
        <time>2025-10-18T07:41:04Z</time>
      </trkpt>
      <trkpt lat="43.651" lon="1.33381">
        <ele>147.8</ele>
        <time>2025-10-18T07:41:05Z</time>
      </trkpt>
      <trkpt lat="43.65101" lon="1.33374">
        <ele>147.8</ele>
        <time>2025-10-18T07:41:06Z</time>
      </trkpt>
      <trkpt lat="43.65102" lon="1.33368">
        <ele>147.6</ele>
        <time>2025-10-18T07:41:07Z</time>
      </trkpt>
      <trkpt lat="43.65103" lon="1.33361">
        <ele>147.6</ele>
        <time>2025-10-18T07:41:08Z</time>
      </trkpt>
      <trkpt lat="43.65103" lon="1.33355">
        <ele>147.6</ele>
        <time>2025-10-18T07:41:09Z</time>
      </trkpt>
      <trkpt lat="43.65105" lon="1.33348">
        <ele>147.8</ele>
        <time>2025-10-18T07:41:10Z</time>
      </trkpt>
      <trkpt lat="43.65107" lon="1.33342">
        <ele>147.8</ele>
        <time>2025-10-18T07:41:11Z</time>
      </trkpt>
      <trkpt lat="43.6511" lon="1.33336">
        <ele>147.8</ele>
        <time>2025-10-18T07:41:12Z</time>
      </trkpt>
      <trkpt lat="43.65113" lon="1.33332">
        <ele>148</ele>
        <time>2025-10-18T07:41:13Z</time>
      </trkpt>
      <trkpt lat="43.65117" lon="1.33329">
        <ele>148</ele>
        <time>2025-10-18T07:41:14Z</time>
      </trkpt>
      <trkpt lat="43.65122" lon="1.33326">
        <ele>148</ele>
        <time>2025-10-18T07:41:15Z</time>
      </trkpt>
      <trkpt lat="43.65126" lon="1.33323">
        <ele>148.2</ele>
        <time>2025-10-18T07:41:16Z</time>
      </trkpt>
      <trkpt lat="43.6513" lon="1.3332">
        <ele>148.2</ele>
        <time>2025-10-18T07:41:17Z</time>
      </trkpt>
      <trkpt lat="43.65134" lon="1.33317">
        <ele>148.2</ele>
        <time>2025-10-18T07:41:18Z</time>
      </trkpt>
      <trkpt lat="43.65138" lon="1.33314">
        <ele>148.2</ele>
        <time>2025-10-18T07:41:19Z</time>
      </trkpt>
      <trkpt lat="43.65143" lon="1.33311">
        <ele>148.4</ele>
        <time>2025-10-18T07:41:20Z</time>
      </trkpt>
      <trkpt lat="43.65147" lon="1.33308">
        <ele>148.4</ele>
        <time>2025-10-18T07:41:21Z</time>
      </trkpt>
      <trkpt lat="43.65152" lon="1.33306">
        <ele>148.4</ele>
        <time>2025-10-18T07:41:22Z</time>
      </trkpt>
      <trkpt lat="43.65157" lon="1.33305">
        <ele>148.4</ele>
        <time>2025-10-18T07:41:23Z</time>
      </trkpt>
      <trkpt lat="43.65161" lon="1.33306">
        <ele>148.6</ele>
        <time>2025-10-18T07:41:24Z</time>
      </trkpt>
      <trkpt lat="43.65165" lon="1.33308">
        <ele>148.6</ele>
        <time>2025-10-18T07:41:25Z</time>
      </trkpt>
      <trkpt lat="43.65169" lon="1.33311">
        <ele>148.6</ele>
        <time>2025-10-18T07:41:26Z</time>
      </trkpt>
      <trkpt lat="43.65173" lon="1.33315">
        <ele>148.8</ele>
        <time>2025-10-18T07:41:27Z</time>
      </trkpt>
      <trkpt lat="43.65177" lon="1.3332">
        <ele>148.8</ele>
        <time>2025-10-18T07:41:28Z</time>
      </trkpt>
      <trkpt lat="43.6518" lon="1.33324">
        <ele>149</ele>
        <time>2025-10-18T07:41:29Z</time>
      </trkpt>
      <trkpt lat="43.65184" lon="1.33329">
        <ele>148.8</ele>
        <time>2025-10-18T07:41:30Z</time>
      </trkpt>
      <trkpt lat="43.65188" lon="1.33333">
        <ele>148.8</ele>
        <time>2025-10-18T07:41:31Z</time>
      </trkpt>
      <trkpt lat="43.65192" lon="1.33338">
        <ele>148.8</ele>
        <time>2025-10-18T07:41:32Z</time>
      </trkpt>
      <trkpt lat="43.65196" lon="1.33343">
        <ele>148.8</ele>
        <time>2025-10-18T07:41:33Z</time>
      </trkpt>
      <trkpt lat="43.652" lon="1.33349">
        <ele>148.8</ele>
        <time>2025-10-18T07:41:34Z</time>
      </trkpt>
      <trkpt lat="43.65204" lon="1.33354">
        <ele>148.6</ele>
        <time>2025-10-18T07:41:35Z</time>
      </trkpt>
      <trkpt lat="43.65207" lon="1.3336">
        <ele>148.6</ele>
        <time>2025-10-18T07:41:36Z</time>
      </trkpt>
      <trkpt lat="43.65211" lon="1.33365">
        <ele>148.6</ele>
        <time>2025-10-18T07:41:37Z</time>
      </trkpt>
      <trkpt lat="43.65214" lon="1.33371">
        <ele>148.6</ele>
        <time>2025-10-18T07:41:38Z</time>
      </trkpt>
      <trkpt lat="43.65218" lon="1.33376">
        <ele>148.4</ele>
        <time>2025-10-18T07:41:39Z</time>
      </trkpt>
      <trkpt lat="43.65222" lon="1.33381">
        <ele>148.4</ele>
        <time>2025-10-18T07:41:40Z</time>
      </trkpt>
      <trkpt lat="43.65225" lon="1.33386">
        <ele>148.4</ele>
        <time>2025-10-18T07:41:41Z</time>
      </trkpt>
      <trkpt lat="43.65229" lon="1.33391">
        <ele>148.4</ele>
        <time>2025-10-18T07:41:42Z</time>
      </trkpt>
      <trkpt lat="43.65232" lon="1.33395">
        <ele>148.4</ele>
        <time>2025-10-18T07:41:43Z</time>
      </trkpt>
      <trkpt lat="43.65234" lon="1.33399">
        <ele>148.6</ele>
        <time>2025-10-18T07:41:44Z</time>
      </trkpt>
      <trkpt lat="43.65238" lon="1.33402">
        <ele>148.6</ele>
        <time>2025-10-18T07:41:45Z</time>
      </trkpt>
      <trkpt lat="43.65242" lon="1.33403">
        <ele>148.6</ele>
        <time>2025-10-18T07:41:46Z</time>
      </trkpt>
      <trkpt lat="43.65246" lon="1.33402">
        <ele>148.6</ele>
        <time>2025-10-18T07:41:47Z</time>
      </trkpt>
      <trkpt lat="43.65249" lon="1.33401">
        <ele>148.6</ele>
        <time>2025-10-18T07:41:48Z</time>
      </trkpt>
      <trkpt lat="43.65253" lon="1.33399">
        <ele>148.6</ele>
        <time>2025-10-18T07:41:49Z</time>
      </trkpt>
      <trkpt lat="43.65255" lon="1.33395">
        <ele>148.4</ele>
        <time>2025-10-18T07:41:50Z</time>
      </trkpt>
      <trkpt lat="43.65258" lon="1.33391">
        <ele>148.4</ele>
        <time>2025-10-18T07:41:51Z</time>
      </trkpt>
      <trkpt lat="43.65261" lon="1.33387">
        <ele>148.4</ele>
        <time>2025-10-18T07:41:52Z</time>
      </trkpt>
      <trkpt lat="43.65263" lon="1.33383">
        <ele>148.4</ele>
        <time>2025-10-18T07:41:53Z</time>
      </trkpt>
      <trkpt lat="43.65264" lon="1.33379">
        <ele>148.4</ele>
        <time>2025-10-18T07:41:54Z</time>
      </trkpt>
      <trkpt lat="43.65264" lon="1.33374">
        <ele>148.4</ele>
        <time>2025-10-18T07:41:55Z</time>
      </trkpt>
      <trkpt lat="43.65264" lon="1.33371">
        <ele>148.2</ele>
        <time>2025-10-18T07:41:56Z</time>
      </trkpt>
      <trkpt lat="43.65262" lon="1.33366">
        <ele>148.2</ele>
        <time>2025-10-18T07:41:57Z</time>
      </trkpt>
      <trkpt lat="43.65259" lon="1.33362">
        <ele>148.2</ele>
        <time>2025-10-18T07:41:58Z</time>
      </trkpt>
      <trkpt lat="43.65255" lon="1.33358">
        <ele>148.2</ele>
        <time>2025-10-18T07:41:59Z</time>
      </trkpt>
      <trkpt lat="43.65252" lon="1.33353">
        <ele>148.2</ele>
        <time>2025-10-18T07:42:00Z</time>
      </trkpt>
      <trkpt lat="43.65249" lon="1.33348">
        <ele>148.2</ele>
        <time>2025-10-18T07:42:01Z</time>
      </trkpt>
      <trkpt lat="43.65246" lon="1.33343">
        <ele>148.2</ele>
        <time>2025-10-18T07:42:02Z</time>
      </trkpt>
      <trkpt lat="43.65243" lon="1.33338">
        <ele>148.2</ele>
        <time>2025-10-18T07:42:03Z</time>
      </trkpt>
      <trkpt lat="43.6524" lon="1.33333">
        <ele>148.2</ele>
        <time>2025-10-18T07:42:04Z</time>
      </trkpt>
      <trkpt lat="43.65237" lon="1.33328">
        <ele>148.2</ele>
        <time>2025-10-18T07:42:05Z</time>
      </trkpt>
      <trkpt lat="43.65234" lon="1.33323">
        <ele>148.4</ele>
        <time>2025-10-18T07:42:06Z</time>
      </trkpt>
      <trkpt lat="43.6523" lon="1.33318">
        <ele>148.4</ele>
        <time>2025-10-18T07:42:07Z</time>
      </trkpt>
      <trkpt lat="43.65227" lon="1.33312">
        <ele>148.4</ele>
        <time>2025-10-18T07:42:08Z</time>
      </trkpt>
      <trkpt lat="43.65224" lon="1.33306">
        <ele>148.4</ele>
        <time>2025-10-18T07:42:09Z</time>
      </trkpt>
      <trkpt lat="43.6522" lon="1.333">
        <ele>148.4</ele>
        <time>2025-10-18T07:42:10Z</time>
      </trkpt>
      <trkpt lat="43.65217" lon="1.33294">
        <ele>148.4</ele>
        <time>2025-10-18T07:42:11Z</time>
      </trkpt>
      <trkpt lat="43.65214" lon="1.33288">
        <ele>148.6</ele>
        <time>2025-10-18T07:42:12Z</time>
      </trkpt>
      <trkpt lat="43.6521" lon="1.33282">
        <ele>148.6</ele>
        <time>2025-10-18T07:42:13Z</time>
      </trkpt>
      <trkpt lat="43.65206" lon="1.33276">
        <ele>148.6</ele>
        <time>2025-10-18T07:42:14Z</time>
      </trkpt>
      <trkpt lat="43.65203" lon="1.33271">
        <ele>148.8</ele>
        <time>2025-10-18T07:42:15Z</time>
      </trkpt>
      <trkpt lat="43.65199" lon="1.33266">
        <ele>148.8</ele>
        <time>2025-10-18T07:42:16Z</time>
      </trkpt>
      <trkpt lat="43.65195" lon="1.33261">
        <ele>148.8</ele>
        <time>2025-10-18T07:42:17Z</time>
      </trkpt>
      <trkpt lat="43.65192" lon="1.33256">
        <ele>148.8</ele>
        <time>2025-10-18T07:42:18Z</time>
      </trkpt>
      <trkpt lat="43.6519" lon="1.3325">
        <ele>148.8</ele>
        <time>2025-10-18T07:42:19Z</time>
      </trkpt>
      <trkpt lat="43.65191" lon="1.33245">
        <ele>149</ele>
        <time>2025-10-18T07:42:20Z</time>
      </trkpt>
      <trkpt lat="43.65194" lon="1.3324">
        <ele>149</ele>
        <time>2025-10-18T07:42:21Z</time>
      </trkpt>
      <trkpt lat="43.65198" lon="1.33238">
        <ele>149.2</ele>
        <time>2025-10-18T07:42:22Z</time>
      </trkpt>
      <trkpt lat="43.65201" lon="1.33235">
        <ele>149.2</ele>
        <time>2025-10-18T07:42:23Z</time>
      </trkpt>
      <trkpt lat="43.65206" lon="1.33232">
        <ele>149.2</ele>
        <time>2025-10-18T07:42:24Z</time>
      </trkpt>
      <trkpt lat="43.6521" lon="1.33228">
        <ele>149.2</ele>
        <time>2025-10-18T07:42:25Z</time>
      </trkpt>
      <trkpt lat="43.65215" lon="1.33225">
        <ele>149.2</ele>
        <time>2025-10-18T07:42:26Z</time>
      </trkpt>
      <trkpt lat="43.6522" lon="1.33222">
        <ele>149.4</ele>
        <time>2025-10-18T07:42:27Z</time>
      </trkpt>
      <trkpt lat="43.65224" lon="1.33219">
        <ele>149.4</ele>
        <time>2025-10-18T07:42:28Z</time>
      </trkpt>
      <trkpt lat="43.65229" lon="1.33216">
        <ele>149.4</ele>
        <time>2025-10-18T07:42:29Z</time>
      </trkpt>
      <trkpt lat="43.65233" lon="1.33213">
        <ele>149.4</ele>
        <time>2025-10-18T07:42:30Z</time>
      </trkpt>
      <trkpt lat="43.65238" lon="1.3321">
        <ele>149.4</ele>
        <time>2025-10-18T07:42:31Z</time>
      </trkpt>
      <trkpt lat="43.65242" lon="1.33208">
        <ele>149.4</ele>
        <time>2025-10-18T07:42:32Z</time>
      </trkpt>
      <trkpt lat="43.65246" lon="1.33205">
        <ele>149.4</ele>
        <time>2025-10-18T07:42:33Z</time>
      </trkpt>
      <trkpt lat="43.65249" lon="1.33203">
        <ele>149.4</ele>
        <time>2025-10-18T07:42:34Z</time>
      </trkpt>
      <trkpt lat="43.65252" lon="1.332">
        <ele>149.6</ele>
        <time>2025-10-18T07:42:35Z</time>
      </trkpt>
      <trkpt lat="43.65253" lon="1.33197">
        <ele>149.6</ele>
        <time>2025-10-18T07:42:36Z</time>
      </trkpt>
      <trkpt lat="43.65255" lon="1.33195">
        <ele>149.8</ele>
        <time>2025-10-18T07:42:37Z</time>
      </trkpt>
      <trkpt lat="43.65258" lon="1.33193">
        <ele>149.8</ele>
        <time>2025-10-18T07:42:38Z</time>
      </trkpt>
      <trkpt lat="43.6526" lon="1.33192">
        <ele>149.8</ele>
        <time>2025-10-18T07:42:39Z</time>
      </trkpt>
      <trkpt lat="43.65263" lon="1.33191">
        <ele>149.8</ele>
        <time>2025-10-18T07:42:40Z</time>
      </trkpt>
      <trkpt lat="43.65266" lon="1.33188">
        <ele>149.8</ele>
        <time>2025-10-18T07:42:41Z</time>
      </trkpt>
      <trkpt lat="43.6527" lon="1.33186">
        <ele>149.8</ele>
        <time>2025-10-18T07:42:42Z</time>
      </trkpt>
      <trkpt lat="43.65273" lon="1.33184">
        <ele>149.6</ele>
        <time>2025-10-18T07:42:43Z</time>
      </trkpt>
      <trkpt lat="43.65278" lon="1.33182">
        <ele>149.6</ele>
        <time>2025-10-18T07:42:44Z</time>
      </trkpt>
      <trkpt lat="43.65282" lon="1.3318">
        <ele>149.6</ele>
        <time>2025-10-18T07:42:45Z</time>
      </trkpt>
      <trkpt lat="43.65287" lon="1.33177">
        <ele>149.4</ele>
        <time>2025-10-18T07:42:46Z</time>
      </trkpt>
      <trkpt lat="43.65291" lon="1.33174">
        <ele>149.4</ele>
        <time>2025-10-18T07:42:47Z</time>
      </trkpt>
      <trkpt lat="43.65296" lon="1.33171">
        <ele>149.4</ele>
        <time>2025-10-18T07:42:48Z</time>
      </trkpt>
      <trkpt lat="43.653" lon="1.33167">
        <ele>149.4</ele>
        <time>2025-10-18T07:42:49Z</time>
      </trkpt>
      <trkpt lat="43.65305" lon="1.33164">
        <ele>149.2</ele>
        <time>2025-10-18T07:42:50Z</time>
      </trkpt>
      <trkpt lat="43.6531" lon="1.3316">
        <ele>149.2</ele>
        <time>2025-10-18T07:42:51Z</time>
      </trkpt>
      <trkpt lat="43.65316" lon="1.33156">
        <ele>149.2</ele>
        <time>2025-10-18T07:42:52Z</time>
      </trkpt>
      <trkpt lat="43.65321" lon="1.33152">
        <ele>149</ele>
        <time>2025-10-18T07:42:53Z</time>
      </trkpt>
      <trkpt lat="43.65327" lon="1.33149">
        <ele>149</ele>
        <time>2025-10-18T07:42:54Z</time>
      </trkpt>
      <trkpt lat="43.65333" lon="1.33145">
        <ele>148.8</ele>
        <time>2025-10-18T07:42:55Z</time>
      </trkpt>
      <trkpt lat="43.65339" lon="1.3314">
        <ele>148.6</ele>
        <time>2025-10-18T07:42:56Z</time>
      </trkpt>
      <trkpt lat="43.65345" lon="1.33136">
        <ele>148.4</ele>
        <time>2025-10-18T07:42:57Z</time>
      </trkpt>
      <trkpt lat="43.65351" lon="1.33132">
        <ele>148.2</ele>
        <time>2025-10-18T07:42:58Z</time>
      </trkpt>
      <trkpt lat="43.65357" lon="1.33127">
        <ele>147.8</ele>
        <time>2025-10-18T07:42:59Z</time>
      </trkpt>
      <trkpt lat="43.65363" lon="1.33123">
        <ele>147.6</ele>
        <time>2025-10-18T07:43:00Z</time>
      </trkpt>
      <trkpt lat="43.65368" lon="1.33118">
        <ele>147.4</ele>
        <time>2025-10-18T07:43:01Z</time>
      </trkpt>
      <trkpt lat="43.65373" lon="1.33112">
        <ele>147</ele>
        <time>2025-10-18T07:43:02Z</time>
      </trkpt>
      <trkpt lat="43.65379" lon="1.33106">
        <ele>146.8</ele>
        <time>2025-10-18T07:43:03Z</time>
      </trkpt>
      <trkpt lat="43.65385" lon="1.33099">
        <ele>146.4</ele>
        <time>2025-10-18T07:43:04Z</time>
      </trkpt>
      <trkpt lat="43.6539" lon="1.33092">
        <ele>146</ele>
        <time>2025-10-18T07:43:05Z</time>
      </trkpt>
      <trkpt lat="43.65395" lon="1.33084">
        <ele>145.4</ele>
        <time>2025-10-18T07:43:06Z</time>
      </trkpt>
      <trkpt lat="43.654" lon="1.33076">
        <ele>145</ele>
        <time>2025-10-18T07:43:07Z</time>
      </trkpt>
      <trkpt lat="43.65405" lon="1.33067">
        <ele>144.6</ele>
        <time>2025-10-18T07:43:08Z</time>
      </trkpt>
      <trkpt lat="43.6541" lon="1.33058">
        <ele>144.2</ele>
        <time>2025-10-18T07:43:09Z</time>
      </trkpt>
      <trkpt lat="43.65414" lon="1.33047">
        <ele>143.6</ele>
        <time>2025-10-18T07:43:10Z</time>
      </trkpt>
      <trkpt lat="43.65419" lon="1.33037">
        <ele>143</ele>
        <time>2025-10-18T07:43:11Z</time>
      </trkpt>
      <trkpt lat="43.65423" lon="1.33025">
        <ele>142.4</ele>
        <time>2025-10-18T07:43:12Z</time>
      </trkpt>
      <trkpt lat="43.65427" lon="1.33014">
        <ele>142</ele>
        <time>2025-10-18T07:43:13Z</time>
      </trkpt>
      <trkpt lat="43.6543" lon="1.33002">
        <ele>141.8</ele>
        <time>2025-10-18T07:43:14Z</time>
      </trkpt>
      <trkpt lat="43.65434" lon="1.32991">
        <ele>141.6</ele>
        <time>2025-10-18T07:43:15Z</time>
      </trkpt>
      <trkpt lat="43.65437" lon="1.3298">
        <ele>141.2</ele>
        <time>2025-10-18T07:43:16Z</time>
      </trkpt>
      <trkpt lat="43.65441" lon="1.3297">
        <ele>141</ele>
        <time>2025-10-18T07:43:17Z</time>
      </trkpt>
      <trkpt lat="43.65445" lon="1.32959">
        <ele>140.8</ele>
        <time>2025-10-18T07:43:18Z</time>
      </trkpt>
      <trkpt lat="43.65449" lon="1.32948">
        <ele>140.6</ele>
        <time>2025-10-18T07:43:19Z</time>
      </trkpt>
      <trkpt lat="43.65452" lon="1.32936">
        <ele>140.4</ele>
        <time>2025-10-18T07:43:20Z</time>
      </trkpt>
      <trkpt lat="43.65456" lon="1.32924">
        <ele>140</ele>
        <time>2025-10-18T07:43:21Z</time>
      </trkpt>
      <trkpt lat="43.65459" lon="1.32914">
        <ele>139.8</ele>
        <time>2025-10-18T07:43:22Z</time>
      </trkpt>
      <trkpt lat="43.65463" lon="1.32903">
        <ele>139.6</ele>
        <time>2025-10-18T07:43:23Z</time>
      </trkpt>
      <trkpt lat="43.65468" lon="1.32893">
        <ele>139.4</ele>
        <time>2025-10-18T07:43:24Z</time>
      </trkpt>
      <trkpt lat="43.65473" lon="1.32882">
        <ele>139.2</ele>
        <time>2025-10-18T07:43:25Z</time>
      </trkpt>
      <trkpt lat="43.65478" lon="1.32873">
        <ele>139.2</ele>
        <time>2025-10-18T07:43:26Z</time>
      </trkpt>
      <trkpt lat="43.65483" lon="1.32863">
        <ele>139</ele>
        <time>2025-10-18T07:43:27Z</time>
      </trkpt>
      <trkpt lat="43.65489" lon="1.32855">
        <ele>139</ele>
        <time>2025-10-18T07:43:28Z</time>
      </trkpt>
      <trkpt lat="43.65496" lon="1.32847">
        <ele>139</ele>
        <time>2025-10-18T07:43:29Z</time>
      </trkpt>
      <trkpt lat="43.65502" lon="1.32839">
        <ele>139</ele>
        <time>2025-10-18T07:43:30Z</time>
      </trkpt>
      <trkpt lat="43.65509" lon="1.32832">
        <ele>139</ele>
        <time>2025-10-18T07:43:31Z</time>
      </trkpt>
      <trkpt lat="43.65516" lon="1.32825">
        <ele>139.2</ele>
        <time>2025-10-18T07:43:32Z</time>
      </trkpt>
      <trkpt lat="43.65523" lon="1.32818">
        <ele>139.2</ele>
        <time>2025-10-18T07:43:33Z</time>
      </trkpt>
      <trkpt lat="43.6553" lon="1.32811">
        <ele>139.2</ele>
        <time>2025-10-18T07:43:34Z</time>
      </trkpt>
      <trkpt lat="43.65538" lon="1.32806">
        <ele>139.4</ele>
        <time>2025-10-18T07:43:35Z</time>
      </trkpt>
      <trkpt lat="43.65545" lon="1.32801">
        <ele>139.4</ele>
        <time>2025-10-18T07:43:36Z</time>
      </trkpt>
      <trkpt lat="43.65553" lon="1.32797">
        <ele>139.4</ele>
        <time>2025-10-18T07:43:37Z</time>
      </trkpt>
      <trkpt lat="43.65561" lon="1.32793">
        <ele>139.4</ele>
        <time>2025-10-18T07:43:38Z</time>
      </trkpt>
      <trkpt lat="43.65568" lon="1.32789">
        <ele>139.4</ele>
        <time>2025-10-18T07:43:39Z</time>
      </trkpt>
      <trkpt lat="43.65576" lon="1.32785">
        <ele>139.4</ele>
        <time>2025-10-18T07:43:40Z</time>
      </trkpt>
      <trkpt lat="43.65584" lon="1.32781">
        <ele>139.4</ele>
        <time>2025-10-18T07:43:41Z</time>
      </trkpt>
      <trkpt lat="43.65592" lon="1.32777">
        <ele>139.4</ele>
        <time>2025-10-18T07:43:42Z</time>
      </trkpt>
      <trkpt lat="43.656" lon="1.32773">
        <ele>139.4</ele>
        <time>2025-10-18T07:43:43Z</time>
      </trkpt>
      <trkpt lat="43.65608" lon="1.32769">
        <ele>139.4</ele>
        <time>2025-10-18T07:43:44Z</time>
      </trkpt>
      <trkpt lat="43.65616" lon="1.32764">
        <ele>139.6</ele>
        <time>2025-10-18T07:43:45Z</time>
      </trkpt>
      <trkpt lat="43.65624" lon="1.32759">
        <ele>139.6</ele>
        <time>2025-10-18T07:43:46Z</time>
      </trkpt>
      <trkpt lat="43.65632" lon="1.32756">
        <ele>139.6</ele>
        <time>2025-10-18T07:43:47Z</time>
      </trkpt>
      <trkpt lat="43.6564" lon="1.32752">
        <ele>139.6</ele>
        <time>2025-10-18T07:43:48Z</time>
      </trkpt>
      <trkpt lat="43.65647" lon="1.3275">
        <ele>139.6</ele>
        <time>2025-10-18T07:43:49Z</time>
      </trkpt>
      <trkpt lat="43.65653" lon="1.32747">
        <ele>139.6</ele>
        <time>2025-10-18T07:43:50Z</time>
      </trkpt>
      <trkpt lat="43.65658" lon="1.32745">
        <ele>139.8</ele>
        <time>2025-10-18T07:43:51Z</time>
      </trkpt>
      <trkpt lat="43.6566" lon="1.32744">
        <ele>140</ele>
        <time>2025-10-18T07:43:52Z</time>
      </trkpt>
      <trkpt lat="43.6566" lon="1.32743">
        <ele>140.2</ele>
        <time>2025-10-18T07:43:53Z</time>
      </trkpt>
      <trkpt lat="43.65661" lon="1.32742">
        <ele>140.4</ele>
        <time>2025-10-18T07:43:54Z</time>
      </trkpt>
      <trkpt lat="43.65661" lon="1.32741">
        <ele>140.6</ele>
        <time>2025-10-18T07:43:55Z</time>
      </trkpt>
      <trkpt lat="43.65661" lon="1.3274">
        <ele>140.6</ele>
        <time>2025-10-18T07:43:56Z</time>
      </trkpt>
      <trkpt lat="43.65662" lon="1.32739">
        <ele>140.6</ele>
        <time>2025-10-18T07:43:57Z</time>
      </trkpt>
      <trkpt lat="43.65663" lon="1.32739">
        <ele>140.6</ele>
        <time>2025-10-18T07:43:58Z</time>
      </trkpt>
      <trkpt lat="43.65664" lon="1.32738">
        <ele>140.6</ele>
        <time>2025-10-18T07:43:59Z</time>
      </trkpt>
      <trkpt lat="43.65666" lon="1.32737">
        <ele>140.4</ele>
        <time>2025-10-18T07:44:00Z</time>
      </trkpt>
      <trkpt lat="43.65668" lon="1.32735">
        <ele>140.4</ele>
        <time>2025-10-18T07:44:01Z</time>
      </trkpt>
      <trkpt lat="43.6567" lon="1.32734">
        <ele>140.2</ele>
        <time>2025-10-18T07:44:02Z</time>
      </trkpt>
      <trkpt lat="43.65673" lon="1.32733">
        <ele>140.2</ele>
        <time>2025-10-18T07:44:03Z</time>
      </trkpt>
      <trkpt lat="43.65676" lon="1.32732">
        <ele>140.2</ele>
        <time>2025-10-18T07:44:04Z</time>
      </trkpt>
      <trkpt lat="43.65679" lon="1.32731">
        <ele>140.2</ele>
        <time>2025-10-18T07:44:05Z</time>
      </trkpt>
      <trkpt lat="43.65682" lon="1.3273">
        <ele>140.2</ele>
        <time>2025-10-18T07:44:06Z</time>
      </trkpt>
      <trkpt lat="43.65685" lon="1.32728">
        <ele>140.4</ele>
        <time>2025-10-18T07:44:07Z</time>
      </trkpt>
      <trkpt lat="43.65688" lon="1.32726">
        <ele>140.4</ele>
        <time>2025-10-18T07:44:08Z</time>
      </trkpt>
      <trkpt lat="43.65692" lon="1.32724">
        <ele>140.6</ele>
        <time>2025-10-18T07:44:09Z</time>
      </trkpt>
      <trkpt lat="43.65696" lon="1.32722">
        <ele>140.6</ele>
        <time>2025-10-18T07:44:10Z</time>
      </trkpt>
      <trkpt lat="43.65701" lon="1.3272">
        <ele>140.8</ele>
        <time>2025-10-18T07:44:11Z</time>
      </trkpt>
      <trkpt lat="43.65705" lon="1.32717">
        <ele>140.8</ele>
        <time>2025-10-18T07:44:12Z</time>
      </trkpt>
      <trkpt lat="43.6571" lon="1.32715">
        <ele>140.6</ele>
        <time>2025-10-18T07:44:13Z</time>
      </trkpt>
      <trkpt lat="43.65716" lon="1.32712">
        <ele>140.6</ele>
        <time>2025-10-18T07:44:14Z</time>
      </trkpt>
      <trkpt lat="43.65721" lon="1.32709">
        <ele>140.4</ele>
        <time>2025-10-18T07:44:15Z</time>
      </trkpt>
      <trkpt lat="43.65727" lon="1.32707">
        <ele>140.4</ele>
        <time>2025-10-18T07:44:16Z</time>
      </trkpt>
      <trkpt lat="43.65733" lon="1.32704">
        <ele>140.2</ele>
        <time>2025-10-18T07:44:17Z</time>
      </trkpt>
      <trkpt lat="43.65739" lon="1.32701">
        <ele>140.2</ele>
        <time>2025-10-18T07:44:18Z</time>
      </trkpt>
      <trkpt lat="43.65746" lon="1.32697">
        <ele>140.2</ele>
        <time>2025-10-18T07:44:19Z</time>
      </trkpt>
      <trkpt lat="43.65752" lon="1.32693">
        <ele>140.2</ele>
        <time>2025-10-18T07:44:20Z</time>
      </trkpt>
      <trkpt lat="43.65758" lon="1.3269">
        <ele>140.2</ele>
        <time>2025-10-18T07:44:21Z</time>
      </trkpt>
      <trkpt lat="43.65764" lon="1.32686">
        <ele>140.2</ele>
        <time>2025-10-18T07:44:22Z</time>
      </trkpt>
      <trkpt lat="43.6577" lon="1.32683">
        <ele>140.4</ele>
        <time>2025-10-18T07:44:23Z</time>
      </trkpt>
      <trkpt lat="43.65777" lon="1.3268">
        <ele>140.4</ele>
        <time>2025-10-18T07:44:24Z</time>
      </trkpt>
      <trkpt lat="43.65783" lon="1.32677">
        <ele>140.4</ele>
        <time>2025-10-18T07:44:25Z</time>
      </trkpt>
      <trkpt lat="43.65789" lon="1.32675">
        <ele>140.4</ele>
        <time>2025-10-18T07:44:26Z</time>
      </trkpt>
      <trkpt lat="43.65795" lon="1.32672">
        <ele>140.4</ele>
        <time>2025-10-18T07:44:27Z</time>
      </trkpt>
      <trkpt lat="43.65801" lon="1.32669">
        <ele>140.4</ele>
        <time>2025-10-18T07:44:28Z</time>
      </trkpt>
      <trkpt lat="43.65808" lon="1.32666">
        <ele>140.4</ele>
        <time>2025-10-18T07:44:29Z</time>
      </trkpt>
      <trkpt lat="43.65814" lon="1.32662">
        <ele>140.4</ele>
        <time>2025-10-18T07:44:30Z</time>
      </trkpt>
      <trkpt lat="43.65821" lon="1.32658">
        <ele>140.4</ele>
        <time>2025-10-18T07:44:31Z</time>
      </trkpt>
      <trkpt lat="43.65827" lon="1.32654">
        <ele>140.4</ele>
        <time>2025-10-18T07:44:32Z</time>
      </trkpt>
      <trkpt lat="43.65833" lon="1.3265">
        <ele>140.4</ele>
        <time>2025-10-18T07:44:33Z</time>
      </trkpt>
      <trkpt lat="43.6584" lon="1.32646">
        <ele>140.4</ele>
        <time>2025-10-18T07:44:34Z</time>
      </trkpt>
      <trkpt lat="43.65846" lon="1.32643">
        <ele>140.4</ele>
        <time>2025-10-18T07:44:35Z</time>
      </trkpt>
      <trkpt lat="43.65853" lon="1.32639">
        <ele>140.4</ele>
        <time>2025-10-18T07:44:36Z</time>
      </trkpt>
      <trkpt lat="43.6586" lon="1.32636">
        <ele>140.4</ele>
        <time>2025-10-18T07:44:37Z</time>
      </trkpt>
      <trkpt lat="43.65867" lon="1.32633">
        <ele>140.4</ele>
        <time>2025-10-18T07:44:38Z</time>
      </trkpt>
      <trkpt lat="43.65874" lon="1.32629">
        <ele>140.2</ele>
        <time>2025-10-18T07:44:39Z</time>
      </trkpt>
      <trkpt lat="43.65881" lon="1.32626">
        <ele>140.2</ele>
        <time>2025-10-18T07:44:40Z</time>
      </trkpt>
      <trkpt lat="43.65888" lon="1.32623">
        <ele>140.2</ele>
        <time>2025-10-18T07:44:41Z</time>
      </trkpt>
      <trkpt lat="43.65895" lon="1.3262">
        <ele>140.4</ele>
        <time>2025-10-18T07:44:42Z</time>
      </trkpt>
      <trkpt lat="43.65901" lon="1.32618">
        <ele>140.4</ele>
        <time>2025-10-18T07:44:43Z</time>
      </trkpt>
      <trkpt lat="43.65907" lon="1.32615">
        <ele>140.6</ele>
        <time>2025-10-18T07:44:44Z</time>
      </trkpt>
      <trkpt lat="43.65913" lon="1.32612">
        <ele>140.8</ele>
        <time>2025-10-18T07:44:45Z</time>
      </trkpt>
      <trkpt lat="43.65919" lon="1.3261">
        <ele>141</ele>
        <time>2025-10-18T07:44:46Z</time>
      </trkpt>
      <trkpt lat="43.65924" lon="1.32607">
        <ele>141</ele>
        <time>2025-10-18T07:44:47Z</time>
      </trkpt>
      <trkpt lat="43.65929" lon="1.32605">
        <ele>141.2</ele>
        <time>2025-10-18T07:44:48Z</time>
      </trkpt>
      <trkpt lat="43.65935" lon="1.32602">
        <ele>141.4</ele>
        <time>2025-10-18T07:44:49Z</time>
      </trkpt>
      <trkpt lat="43.6594" lon="1.32599">
        <ele>141.6</ele>
        <time>2025-10-18T07:44:50Z</time>
      </trkpt>
      <trkpt lat="43.65945" lon="1.32597">
        <ele>141.8</ele>
        <time>2025-10-18T07:44:51Z</time>
      </trkpt>
      <trkpt lat="43.65949" lon="1.32595">
        <ele>142</ele>
        <time>2025-10-18T07:44:52Z</time>
      </trkpt>
      <trkpt lat="43.65952" lon="1.32593">
        <ele>142.2</ele>
        <time>2025-10-18T07:44:53Z</time>
      </trkpt>
      <trkpt lat="43.65955" lon="1.32592">
        <ele>142.4</ele>
        <time>2025-10-18T07:44:54Z</time>
      </trkpt>
      <trkpt lat="43.65958" lon="1.3259">
        <ele>142.4</ele>
        <time>2025-10-18T07:44:55Z</time>
      </trkpt>
      <trkpt lat="43.65961" lon="1.32588">
        <ele>142.6</ele>
        <time>2025-10-18T07:44:56Z</time>
      </trkpt>
      <trkpt lat="43.65964" lon="1.32586">
        <ele>142.6</ele>
        <time>2025-10-18T07:44:57Z</time>
      </trkpt>
      <trkpt lat="43.65966" lon="1.32584">
        <ele>142.6</ele>
        <time>2025-10-18T07:44:58Z</time>
      </trkpt>
      <trkpt lat="43.6597" lon="1.32582">
        <ele>142.8</ele>
        <time>2025-10-18T07:44:59Z</time>
      </trkpt>
      <trkpt lat="43.65973" lon="1.32581">
        <ele>142.6</ele>
        <time>2025-10-18T07:45:00Z</time>
      </trkpt>
      <trkpt lat="43.65977" lon="1.32579">
        <ele>142.6</ele>
        <time>2025-10-18T07:45:01Z</time>
      </trkpt>
      <trkpt lat="43.65982" lon="1.32577">
        <ele>142.6</ele>
        <time>2025-10-18T07:45:02Z</time>
      </trkpt>
      <trkpt lat="43.65986" lon="1.32575">
        <ele>142.6</ele>
        <time>2025-10-18T07:45:03Z</time>
      </trkpt>
      <trkpt lat="43.65991" lon="1.32572">
        <ele>142.6</ele>
        <time>2025-10-18T07:45:04Z</time>
      </trkpt>
      <trkpt lat="43.65997" lon="1.3257">
        <ele>142.6</ele>
        <time>2025-10-18T07:45:05Z</time>
      </trkpt>
      <trkpt lat="43.66002" lon="1.32567">
        <ele>142.6</ele>
        <time>2025-10-18T07:45:06Z</time>
      </trkpt>
      <trkpt lat="43.66008" lon="1.32564">
        <ele>142.6</ele>
        <time>2025-10-18T07:45:07Z</time>
      </trkpt>
      <trkpt lat="43.66014" lon="1.32561">
        <ele>142.6</ele>
        <time>2025-10-18T07:45:08Z</time>
      </trkpt>
      <trkpt lat="43.6602" lon="1.32558">
        <ele>142.6</ele>
        <time>2025-10-18T07:45:09Z</time>
      </trkpt>
      <trkpt lat="43.66027" lon="1.32555">
        <ele>142.6</ele>
        <time>2025-10-18T07:45:10Z</time>
      </trkpt>
      <trkpt lat="43.66033" lon="1.32552">
        <ele>142.8</ele>
        <time>2025-10-18T07:45:11Z</time>
      </trkpt>
      <trkpt lat="43.66039" lon="1.3255">
        <ele>142.8</ele>
        <time>2025-10-18T07:45:12Z</time>
      </trkpt>
      <trkpt lat="43.66044" lon="1.32547">
        <ele>143</ele>
        <time>2025-10-18T07:45:13Z</time>
      </trkpt>
      <trkpt lat="43.66049" lon="1.32545">
        <ele>143.2</ele>
        <time>2025-10-18T07:45:14Z</time>
      </trkpt>
      <trkpt lat="43.66054" lon="1.32543">
        <ele>143.4</ele>
        <time>2025-10-18T07:45:15Z</time>
      </trkpt>
      <trkpt lat="43.66059" lon="1.32542">
        <ele>143.6</ele>
        <time>2025-10-18T07:45:16Z</time>
      </trkpt>
      <trkpt lat="43.66064" lon="1.32539">
        <ele>143.8</ele>
        <time>2025-10-18T07:45:17Z</time>
      </trkpt>
      <trkpt lat="43.66068" lon="1.32538">
        <ele>144</ele>
        <time>2025-10-18T07:45:18Z</time>
      </trkpt>
      <trkpt lat="43.66073" lon="1.32536">
        <ele>144.2</ele>
        <time>2025-10-18T07:45:19Z</time>
      </trkpt>
      <trkpt lat="43.66078" lon="1.32535">
        <ele>144.2</ele>
        <time>2025-10-18T07:45:20Z</time>
      </trkpt>
      <trkpt lat="43.66084" lon="1.32534">
        <ele>144.4</ele>
        <time>2025-10-18T07:45:21Z</time>
      </trkpt>
      <trkpt lat="43.66089" lon="1.32533">
        <ele>144.6</ele>
        <time>2025-10-18T07:45:22Z</time>
      </trkpt>
      <trkpt lat="43.66094" lon="1.32532">
        <ele>144.8</ele>
        <time>2025-10-18T07:45:23Z</time>
      </trkpt>
      <trkpt lat="43.66098" lon="1.32531">
        <ele>144.8</ele>
        <time>2025-10-18T07:45:24Z</time>
      </trkpt>
      <trkpt lat="43.66102" lon="1.3253">
        <ele>145</ele>
        <time>2025-10-18T07:45:25Z</time>
      </trkpt>
      <trkpt lat="43.66105" lon="1.32529">
        <ele>145.2</ele>
        <time>2025-10-18T07:45:26Z</time>
      </trkpt>
      <trkpt lat="43.66108" lon="1.32528">
        <ele>145.2</ele>
        <time>2025-10-18T07:45:27Z</time>
      </trkpt>
      <trkpt lat="43.66111" lon="1.32527">
        <ele>145.4</ele>
        <time>2025-10-18T07:45:28Z</time>
      </trkpt>
      <trkpt lat="43.66113" lon="1.32525">
        <ele>145.4</ele>
        <time>2025-10-18T07:45:29Z</time>
      </trkpt>
      <trkpt lat="43.66114" lon="1.32521">
        <ele>145.4</ele>
        <time>2025-10-18T07:45:30Z</time>
      </trkpt>
      <trkpt lat="43.66114" lon="1.32517">
        <ele>145.4</ele>
        <time>2025-10-18T07:45:31Z</time>
      </trkpt>
      <trkpt lat="43.66113" lon="1.32514">
        <ele>145.4</ele>
        <time>2025-10-18T07:45:32Z</time>
      </trkpt>
      <trkpt lat="43.66112" lon="1.32511">
        <ele>145.4</ele>
        <time>2025-10-18T07:45:33Z</time>
      </trkpt>
      <trkpt lat="43.66112" lon="1.32509">
        <ele>145.4</ele>
        <time>2025-10-18T07:45:34Z</time>
      </trkpt>
      <trkpt lat="43.66112" lon="1.32506">
        <ele>145.4</ele>
        <time>2025-10-18T07:45:35Z</time>
      </trkpt>
      <trkpt lat="43.66113" lon="1.32503">
        <ele>145.4</ele>
        <time>2025-10-18T07:45:36Z</time>
      </trkpt>
      <trkpt lat="43.66114" lon="1.325">
        <ele>145.6</ele>
        <time>2025-10-18T07:45:37Z</time>
      </trkpt>
      <trkpt lat="43.66115" lon="1.32496">
        <ele>145.6</ele>
        <time>2025-10-18T07:45:38Z</time>
      </trkpt>
      <trkpt lat="43.66117" lon="1.32492">
        <ele>145.6</ele>
        <time>2025-10-18T07:45:39Z</time>
      </trkpt>
      <trkpt lat="43.66118" lon="1.32488">
        <ele>145.6</ele>
        <time>2025-10-18T07:45:40Z</time>
      </trkpt>
      <trkpt lat="43.6612" lon="1.32484">
        <ele>145.8</ele>
        <time>2025-10-18T07:45:41Z</time>
      </trkpt>
      <trkpt lat="43.66123" lon="1.3248">
        <ele>145.8</ele>
        <time>2025-10-18T07:45:42Z</time>
      </trkpt>
      <trkpt lat="43.66126" lon="1.32477">
        <ele>145.8</ele>
        <time>2025-10-18T07:45:43Z</time>
      </trkpt>
      <trkpt lat="43.66131" lon="1.32475">
        <ele>145.8</ele>
        <time>2025-10-18T07:45:44Z</time>
      </trkpt>
      <trkpt lat="43.66136" lon="1.32473">
        <ele>145.6</ele>
        <time>2025-10-18T07:45:45Z</time>
      </trkpt>
      <trkpt lat="43.6614" lon="1.32469">
        <ele>145.6</ele>
        <time>2025-10-18T07:45:46Z</time>
      </trkpt>
      <trkpt lat="43.66145" lon="1.32465">
        <ele>145.6</ele>
        <time>2025-10-18T07:45:47Z</time>
      </trkpt>
      <trkpt lat="43.66149" lon="1.32459">
        <ele>145.4</ele>
        <time>2025-10-18T07:45:48Z</time>
      </trkpt>
      <trkpt lat="43.66153" lon="1.32453">
        <ele>145.4</ele>
        <time>2025-10-18T07:45:49Z</time>
      </trkpt>
      <trkpt lat="43.66157" lon="1.32447">
        <ele>145.2</ele>
        <time>2025-10-18T07:45:50Z</time>
      </trkpt>
      <trkpt lat="43.66161" lon="1.32441">
        <ele>145.2</ele>
        <time>2025-10-18T07:45:51Z</time>
      </trkpt>
      <trkpt lat="43.66165" lon="1.32435">
        <ele>145.2</ele>
        <time>2025-10-18T07:45:52Z</time>
      </trkpt>
      <trkpt lat="43.66169" lon="1.32428">
        <ele>145.4</ele>
        <time>2025-10-18T07:45:53Z</time>
      </trkpt>
      <trkpt lat="43.66172" lon="1.32421">
        <ele>145.4</ele>
        <time>2025-10-18T07:45:54Z</time>
      </trkpt>
      <trkpt lat="43.66175" lon="1.32414">
        <ele>145.4</ele>
        <time>2025-10-18T07:45:55Z</time>
      </trkpt>
      <trkpt lat="43.66178" lon="1.32407">
        <ele>145.6</ele>
        <time>2025-10-18T07:45:56Z</time>
      </trkpt>
      <trkpt lat="43.66182" lon="1.32399">
        <ele>145.6</ele>
        <time>2025-10-18T07:45:57Z</time>
      </trkpt>
      <trkpt lat="43.66185" lon="1.32392">
        <ele>145.6</ele>
        <time>2025-10-18T07:45:58Z</time>
      </trkpt>
      <trkpt lat="43.66189" lon="1.32385">
        <ele>145.6</ele>
        <time>2025-10-18T07:45:59Z</time>
      </trkpt>
      <trkpt lat="43.66192" lon="1.32378">
        <ele>145.6</ele>
        <time>2025-10-18T07:46:00Z</time>
      </trkpt>
      <trkpt lat="43.66196" lon="1.3237">
        <ele>145.8</ele>
        <time>2025-10-18T07:46:01Z</time>
      </trkpt>
      <trkpt lat="43.66199" lon="1.32363">
        <ele>145.8</ele>
        <time>2025-10-18T07:46:02Z</time>
      </trkpt>
      <trkpt lat="43.66203" lon="1.32355">
        <ele>145.8</ele>
        <time>2025-10-18T07:46:03Z</time>
      </trkpt>
      <trkpt lat="43.66207" lon="1.32348">
        <ele>145.8</ele>
        <time>2025-10-18T07:46:04Z</time>
      </trkpt>
      <trkpt lat="43.66211" lon="1.3234">
        <ele>145.8</ele>
        <time>2025-10-18T07:46:05Z</time>
      </trkpt>
      <trkpt lat="43.66214" lon="1.32331">
        <ele>145.8</ele>
        <time>2025-10-18T07:46:06Z</time>
      </trkpt>
      <trkpt lat="43.66218" lon="1.32324">
        <ele>145.8</ele>
        <time>2025-10-18T07:46:07Z</time>
      </trkpt>
      <trkpt lat="43.66222" lon="1.32316">
        <ele>145.8</ele>
        <time>2025-10-18T07:46:08Z</time>
      </trkpt>
      <trkpt lat="43.66226" lon="1.32308">
        <ele>146</ele>
        <time>2025-10-18T07:46:09Z</time>
      </trkpt>
      <trkpt lat="43.6623" lon="1.323">
        <ele>146</ele>
        <time>2025-10-18T07:46:10Z</time>
      </trkpt>
      <trkpt lat="43.66234" lon="1.32292">
        <ele>146.2</ele>
        <time>2025-10-18T07:46:11Z</time>
      </trkpt>
      <trkpt lat="43.66237" lon="1.32283">
        <ele>146.2</ele>
        <time>2025-10-18T07:46:12Z</time>
      </trkpt>
      <trkpt lat="43.6624" lon="1.32274">
        <ele>146.2</ele>
        <time>2025-10-18T07:46:13Z</time>
      </trkpt>
      <trkpt lat="43.66243" lon="1.32266">
        <ele>146.2</ele>
        <time>2025-10-18T07:46:14Z</time>
      </trkpt>
      <trkpt lat="43.66246" lon="1.32257">
        <ele>146.2</ele>
        <time>2025-10-18T07:46:15Z</time>
      </trkpt>
      <trkpt lat="43.66249" lon="1.32249">
        <ele>146.2</ele>
        <time>2025-10-18T07:46:16Z</time>
      </trkpt>
      <trkpt lat="43.66253" lon="1.32241">
        <ele>146.2</ele>
        <time>2025-10-18T07:46:17Z</time>
      </trkpt>
      <trkpt lat="43.66256" lon="1.32232">
        <ele>146.2</ele>
        <time>2025-10-18T07:46:18Z</time>
      </trkpt>
      <trkpt lat="43.6626" lon="1.32224">
        <ele>146</ele>
        <time>2025-10-18T07:46:19Z</time>
      </trkpt>
      <trkpt lat="43.66264" lon="1.32216">
        <ele>146</ele>
        <time>2025-10-18T07:46:20Z</time>
      </trkpt>
      <trkpt lat="43.66268" lon="1.32208">
        <ele>146</ele>
        <time>2025-10-18T07:46:21Z</time>
      </trkpt>
      <trkpt lat="43.66271" lon="1.32199">
        <ele>146</ele>
        <time>2025-10-18T07:46:22Z</time>
      </trkpt>
      <trkpt lat="43.66275" lon="1.32191">
        <ele>146</ele>
        <time>2025-10-18T07:46:23Z</time>
      </trkpt>
      <trkpt lat="43.66279" lon="1.32183">
        <ele>146</ele>
        <time>2025-10-18T07:46:24Z</time>
      </trkpt>
      <trkpt lat="43.66283" lon="1.32175">
        <ele>146</ele>
        <time>2025-10-18T07:46:25Z</time>
      </trkpt>
      <trkpt lat="43.66286" lon="1.32167">
        <ele>146</ele>
        <time>2025-10-18T07:46:26Z</time>
      </trkpt>
      <trkpt lat="43.6629" lon="1.32159">
        <ele>146</ele>
        <time>2025-10-18T07:46:27Z</time>
      </trkpt>
      <trkpt lat="43.66294" lon="1.32152">
        <ele>146.2</ele>
        <time>2025-10-18T07:46:28Z</time>
      </trkpt>
      <trkpt lat="43.66297" lon="1.32144">
        <ele>146.2</ele>
        <time>2025-10-18T07:46:29Z</time>
      </trkpt>
      <trkpt lat="43.66301" lon="1.32136">
        <ele>146.2</ele>
        <time>2025-10-18T07:46:30Z</time>
      </trkpt>
      <trkpt lat="43.66305" lon="1.32128">
        <ele>146.4</ele>
        <time>2025-10-18T07:46:31Z</time>
      </trkpt>
      <trkpt lat="43.66308" lon="1.3212">
        <ele>146.4</ele>
        <time>2025-10-18T07:46:32Z</time>
      </trkpt>
      <trkpt lat="43.66312" lon="1.32113">
        <ele>146.4</ele>
        <time>2025-10-18T07:46:33Z</time>
      </trkpt>
      <trkpt lat="43.66315" lon="1.32106">
        <ele>146.6</ele>
        <time>2025-10-18T07:46:34Z</time>
      </trkpt>
      <trkpt lat="43.66319" lon="1.32099">
        <ele>146.6</ele>
        <time>2025-10-18T07:46:35Z</time>
      </trkpt>
      <trkpt lat="43.66322" lon="1.32091">
        <ele>146.6</ele>
        <time>2025-10-18T07:46:36Z</time>
      </trkpt>
      <trkpt lat="43.66325" lon="1.32084">
        <ele>146.8</ele>
        <time>2025-10-18T07:46:37Z</time>
      </trkpt>
      <trkpt lat="43.66329" lon="1.32077">
        <ele>146.8</ele>
        <time>2025-10-18T07:46:38Z</time>
      </trkpt>
      <trkpt lat="43.66332" lon="1.32069">
        <ele>147</ele>
        <time>2025-10-18T07:46:39Z</time>
      </trkpt>
      <trkpt lat="43.66336" lon="1.32062">
        <ele>147.2</ele>
        <time>2025-10-18T07:46:40Z</time>
      </trkpt>
      <trkpt lat="43.66339" lon="1.32055">
        <ele>147.2</ele>
        <time>2025-10-18T07:46:41Z</time>
      </trkpt>
      <trkpt lat="43.66343" lon="1.32048">
        <ele>147.4</ele>
        <time>2025-10-18T07:46:42Z</time>
      </trkpt>
      <trkpt lat="43.66347" lon="1.32041">
        <ele>147.6</ele>
        <time>2025-10-18T07:46:43Z</time>
      </trkpt>
      <trkpt lat="43.66351" lon="1.32034">
        <ele>147.6</ele>
        <time>2025-10-18T07:46:44Z</time>
      </trkpt>
      <trkpt lat="43.66355" lon="1.32027">
        <ele>147.8</ele>
        <time>2025-10-18T07:46:45Z</time>
      </trkpt>
      <trkpt lat="43.66359" lon="1.3202">
        <ele>147.8</ele>
        <time>2025-10-18T07:46:46Z</time>
      </trkpt>
      <trkpt lat="43.66362" lon="1.32013">
        <ele>148</ele>
        <time>2025-10-18T07:46:47Z</time>
      </trkpt>
      <trkpt lat="43.66366" lon="1.32006">
        <ele>148.2</ele>
        <time>2025-10-18T07:46:48Z</time>
      </trkpt>
      <trkpt lat="43.66369" lon="1.31999">
        <ele>148.2</ele>
        <time>2025-10-18T07:46:49Z</time>
      </trkpt>
      <trkpt lat="43.66372" lon="1.31991">
        <ele>148.4</ele>
        <time>2025-10-18T07:46:50Z</time>
      </trkpt>
      <trkpt lat="43.66375" lon="1.31983">
        <ele>148.4</ele>
        <time>2025-10-18T07:46:51Z</time>
      </trkpt>
      <trkpt lat="43.66378" lon="1.31975">
        <ele>148.6</ele>
        <time>2025-10-18T07:46:52Z</time>
      </trkpt>
      <trkpt lat="43.66381" lon="1.31967">
        <ele>148.6</ele>
        <time>2025-10-18T07:46:53Z</time>
      </trkpt>
      <trkpt lat="43.66384" lon="1.31959">
        <ele>148.8</ele>
        <time>2025-10-18T07:46:54Z</time>
      </trkpt>
      <trkpt lat="43.66386" lon="1.31951">
        <ele>149</ele>
        <time>2025-10-18T07:46:55Z</time>
      </trkpt>
      <trkpt lat="43.66389" lon="1.31944">
        <ele>149</ele>
        <time>2025-10-18T07:46:56Z</time>
      </trkpt>
      <trkpt lat="43.66391" lon="1.31936">
        <ele>149.2</ele>
        <time>2025-10-18T07:46:57Z</time>
      </trkpt>
      <trkpt lat="43.66393" lon="1.31929">
        <ele>149.4</ele>
        <time>2025-10-18T07:46:58Z</time>
      </trkpt>
      <trkpt lat="43.66396" lon="1.31921">
        <ele>149.6</ele>
        <time>2025-10-18T07:46:59Z</time>
      </trkpt>
      <trkpt lat="43.66398" lon="1.31913">
        <ele>149.6</ele>
        <time>2025-10-18T07:47:00Z</time>
      </trkpt>
      <trkpt lat="43.664" lon="1.31905">
        <ele>149.8</ele>
        <time>2025-10-18T07:47:01Z</time>
      </trkpt>
      <trkpt lat="43.66402" lon="1.31897">
        <ele>150</ele>
        <time>2025-10-18T07:47:02Z</time>
      </trkpt>
      <trkpt lat="43.66404" lon="1.31889">
        <ele>150</ele>
        <time>2025-10-18T07:47:03Z</time>
      </trkpt>
      <trkpt lat="43.66406" lon="1.31881">
        <ele>150.2</ele>
        <time>2025-10-18T07:47:04Z</time>
      </trkpt>
      <trkpt lat="43.66408" lon="1.31874">
        <ele>150.4</ele>
        <time>2025-10-18T07:47:05Z</time>
      </trkpt>
      <trkpt lat="43.6641" lon="1.31866">
        <ele>150.6</ele>
        <time>2025-10-18T07:47:06Z</time>
      </trkpt>
      <trkpt lat="43.66412" lon="1.31858">
        <ele>150.8</ele>
        <time>2025-10-18T07:47:07Z</time>
      </trkpt>
      <trkpt lat="43.66413" lon="1.31849">
        <ele>150.8</ele>
        <time>2025-10-18T07:47:08Z</time>
      </trkpt>
      <trkpt lat="43.66415" lon="1.31841">
        <ele>151</ele>
        <time>2025-10-18T07:47:09Z</time>
      </trkpt>
      <trkpt lat="43.66417" lon="1.31832">
        <ele>151.2</ele>
        <time>2025-10-18T07:47:10Z</time>
      </trkpt>
      <trkpt lat="43.66419" lon="1.31824">
        <ele>151.2</ele>
        <time>2025-10-18T07:47:11Z</time>
      </trkpt>
      <trkpt lat="43.66421" lon="1.31815">
        <ele>151.4</ele>
        <time>2025-10-18T07:47:12Z</time>
      </trkpt>
      <trkpt lat="43.66423" lon="1.31807">
        <ele>151.6</ele>
        <time>2025-10-18T07:47:13Z</time>
      </trkpt>
      <trkpt lat="43.66424" lon="1.31798">
        <ele>151.6</ele>
        <time>2025-10-18T07:47:14Z</time>
      </trkpt>
      <trkpt lat="43.66426" lon="1.3179">
        <ele>151.8</ele>
        <time>2025-10-18T07:47:15Z</time>
      </trkpt>
      <trkpt lat="43.66428" lon="1.31782">
        <ele>152</ele>
        <time>2025-10-18T07:47:16Z</time>
      </trkpt>
      <trkpt lat="43.66429" lon="1.31774">
        <ele>152.2</ele>
        <time>2025-10-18T07:47:17Z</time>
      </trkpt>
      <trkpt lat="43.66431" lon="1.31765">
        <ele>152.2</ele>
        <time>2025-10-18T07:47:18Z</time>
      </trkpt>
      <trkpt lat="43.66433" lon="1.31757">
        <ele>152.4</ele>
        <time>2025-10-18T07:47:19Z</time>
      </trkpt>
      <trkpt lat="43.66435" lon="1.31748">
        <ele>152.4</ele>
        <time>2025-10-18T07:47:20Z</time>
      </trkpt>
      <trkpt lat="43.66437" lon="1.3174">
        <ele>152.6</ele>
        <time>2025-10-18T07:47:21Z</time>
      </trkpt>
      <trkpt lat="43.66438" lon="1.31732">
        <ele>152.6</ele>
        <time>2025-10-18T07:47:22Z</time>
      </trkpt>
      <trkpt lat="43.6644" lon="1.31724">
        <ele>152.8</ele>
        <time>2025-10-18T07:47:23Z</time>
      </trkpt>
      <trkpt lat="43.66442" lon="1.31715">
        <ele>152.8</ele>
        <time>2025-10-18T07:47:24Z</time>
      </trkpt>
      <trkpt lat="43.66444" lon="1.31706">
        <ele>153</ele>
        <time>2025-10-18T07:47:25Z</time>
      </trkpt>
      <trkpt lat="43.66446" lon="1.31698">
        <ele>153</ele>
        <time>2025-10-18T07:47:26Z</time>
      </trkpt>
      <trkpt lat="43.66447" lon="1.31689">
        <ele>153</ele>
        <time>2025-10-18T07:47:27Z</time>
      </trkpt>
      <trkpt lat="43.66448" lon="1.3168">
        <ele>153.2</ele>
        <time>2025-10-18T07:47:28Z</time>
      </trkpt>
      <trkpt lat="43.6645" lon="1.31671">
        <ele>153.2</ele>
        <time>2025-10-18T07:47:29Z</time>
      </trkpt>
      <trkpt lat="43.66452" lon="1.31663">
        <ele>153.4</ele>
        <time>2025-10-18T07:47:30Z</time>
      </trkpt>
      <trkpt lat="43.66454" lon="1.31654">
        <ele>153.4</ele>
        <time>2025-10-18T07:47:31Z</time>
      </trkpt>
      <trkpt lat="43.66455" lon="1.31646">
        <ele>153.4</ele>
        <time>2025-10-18T07:47:32Z</time>
      </trkpt>
      <trkpt lat="43.66457" lon="1.31637">
        <ele>153.6</ele>
        <time>2025-10-18T07:47:33Z</time>
      </trkpt>
      <trkpt lat="43.66459" lon="1.31629">
        <ele>153.8</ele>
        <time>2025-10-18T07:47:34Z</time>
      </trkpt>
      <trkpt lat="43.6646" lon="1.3162">
        <ele>153.8</ele>
        <time>2025-10-18T07:47:35Z</time>
      </trkpt>
      <trkpt lat="43.66462" lon="1.31612">
        <ele>154</ele>
        <time>2025-10-18T07:47:36Z</time>
      </trkpt>
      <trkpt lat="43.66463" lon="1.31603">
        <ele>154.2</ele>
        <time>2025-10-18T07:47:37Z</time>
      </trkpt>
      <trkpt lat="43.66465" lon="1.31595">
        <ele>154.4</ele>
        <time>2025-10-18T07:47:38Z</time>
      </trkpt>
      <trkpt lat="43.66466" lon="1.31586">
        <ele>154.6</ele>
        <time>2025-10-18T07:47:39Z</time>
      </trkpt>
      <trkpt lat="43.66468" lon="1.31578">
        <ele>154.8</ele>
        <time>2025-10-18T07:47:40Z</time>
      </trkpt>
      <trkpt lat="43.6647" lon="1.3157">
        <ele>154.8</ele>
        <time>2025-10-18T07:47:41Z</time>
      </trkpt>
      <trkpt lat="43.66471" lon="1.31562">
        <ele>155.2</ele>
        <time>2025-10-18T07:47:42Z</time>
      </trkpt>
      <trkpt lat="43.66473" lon="1.31555">
        <ele>155.4</ele>
        <time>2025-10-18T07:47:43Z</time>
      </trkpt>
      <trkpt lat="43.66474" lon="1.31547">
        <ele>155.6</ele>
        <time>2025-10-18T07:47:44Z</time>
      </trkpt>
      <trkpt lat="43.66476" lon="1.31538">
        <ele>155.8</ele>
        <time>2025-10-18T07:47:45Z</time>
      </trkpt>
      <trkpt lat="43.66478" lon="1.3153">
        <ele>156.2</ele>
        <time>2025-10-18T07:47:46Z</time>
      </trkpt>
      <trkpt lat="43.66479" lon="1.31522">
        <ele>156.4</ele>
        <time>2025-10-18T07:47:47Z</time>
      </trkpt>
      <trkpt lat="43.66481" lon="1.31514">
        <ele>156.8</ele>
        <time>2025-10-18T07:47:48Z</time>
      </trkpt>
      <trkpt lat="43.66482" lon="1.31507">
        <ele>157</ele>
        <time>2025-10-18T07:47:49Z</time>
      </trkpt>
      <trkpt lat="43.66484" lon="1.31499">
        <ele>157.2</ele>
        <time>2025-10-18T07:47:50Z</time>
      </trkpt>
      <trkpt lat="43.66486" lon="1.31492">
        <ele>157.6</ele>
        <time>2025-10-18T07:47:51Z</time>
      </trkpt>
      <trkpt lat="43.66487" lon="1.31485">
        <ele>158</ele>
        <time>2025-10-18T07:47:52Z</time>
      </trkpt>
      <trkpt lat="43.66489" lon="1.31478">
        <ele>158.4</ele>
        <time>2025-10-18T07:47:53Z</time>
      </trkpt>
      <trkpt lat="43.6649" lon="1.31471">
        <ele>158.6</ele>
        <time>2025-10-18T07:47:54Z</time>
      </trkpt>
      <trkpt lat="43.66492" lon="1.31463">
        <ele>159</ele>
        <time>2025-10-18T07:47:55Z</time>
      </trkpt>
      <trkpt lat="43.66493" lon="1.31457">
        <ele>159.2</ele>
        <time>2025-10-18T07:47:56Z</time>
      </trkpt>
      <trkpt lat="43.66495" lon="1.3145">
        <ele>159.6</ele>
        <time>2025-10-18T07:47:57Z</time>
      </trkpt>
      <trkpt lat="43.66496" lon="1.31442">
        <ele>160</ele>
        <time>2025-10-18T07:47:58Z</time>
      </trkpt>
      <trkpt lat="43.66497" lon="1.31436">
        <ele>160.4</ele>
        <time>2025-10-18T07:47:59Z</time>
      </trkpt>
      <trkpt lat="43.66499" lon="1.31429">
        <ele>160.8</ele>
        <time>2025-10-18T07:48:00Z</time>
      </trkpt>
      <trkpt lat="43.665" lon="1.31421">
        <ele>161.2</ele>
        <time>2025-10-18T07:48:01Z</time>
      </trkpt>
      <trkpt lat="43.66502" lon="1.31414">
        <ele>161.6</ele>
        <time>2025-10-18T07:48:02Z</time>
      </trkpt>
      <trkpt lat="43.66503" lon="1.31406">
        <ele>162</ele>
        <time>2025-10-18T07:48:03Z</time>
      </trkpt>
      <trkpt lat="43.66505" lon="1.31399">
        <ele>162.4</ele>
        <time>2025-10-18T07:48:04Z</time>
      </trkpt>
      <trkpt lat="43.66506" lon="1.31392">
        <ele>162.6</ele>
        <time>2025-10-18T07:48:05Z</time>
      </trkpt>
      <trkpt lat="43.66507" lon="1.31384">
        <ele>163</ele>
        <time>2025-10-18T07:48:06Z</time>
      </trkpt>
      <trkpt lat="43.66508" lon="1.31378">
        <ele>163.4</ele>
        <time>2025-10-18T07:48:07Z</time>
      </trkpt>
      <trkpt lat="43.6651" lon="1.31371">
        <ele>163.8</ele>
        <time>2025-10-18T07:48:08Z</time>
      </trkpt>
      <trkpt lat="43.66511" lon="1.31364">
        <ele>164.2</ele>
        <time>2025-10-18T07:48:09Z</time>
      </trkpt>
      <trkpt lat="43.66513" lon="1.31356">
        <ele>164.6</ele>
        <time>2025-10-18T07:48:10Z</time>
      </trkpt>
      <trkpt lat="43.66515" lon="1.31349">
        <ele>164.8</ele>
        <time>2025-10-18T07:48:11Z</time>
      </trkpt>
      <trkpt lat="43.66516" lon="1.31342">
        <ele>165.2</ele>
        <time>2025-10-18T07:48:12Z</time>
      </trkpt>
      <trkpt lat="43.66518" lon="1.31334">
        <ele>165.4</ele>
        <time>2025-10-18T07:48:13Z</time>
      </trkpt>
      <trkpt lat="43.6652" lon="1.31327">
        <ele>165.8</ele>
        <time>2025-10-18T07:48:14Z</time>
      </trkpt>
      <trkpt lat="43.66521" lon="1.31319">
        <ele>166.2</ele>
        <time>2025-10-18T07:48:15Z</time>
      </trkpt>
      <trkpt lat="43.66523" lon="1.31311">
        <ele>166.4</ele>
        <time>2025-10-18T07:48:16Z</time>
      </trkpt>
      <trkpt lat="43.66525" lon="1.31304">
        <ele>166.8</ele>
        <time>2025-10-18T07:48:17Z</time>
      </trkpt>
      <trkpt lat="43.66527" lon="1.31296">
        <ele>167</ele>
        <time>2025-10-18T07:48:18Z</time>
      </trkpt>
      <trkpt lat="43.66528" lon="1.31289">
        <ele>167.4</ele>
        <time>2025-10-18T07:48:19Z</time>
      </trkpt>
      <trkpt lat="43.6653" lon="1.31281">
        <ele>167.8</ele>
        <time>2025-10-18T07:48:20Z</time>
      </trkpt>
      <trkpt lat="43.66531" lon="1.31274">
        <ele>168</ele>
        <time>2025-10-18T07:48:21Z</time>
      </trkpt>
      <trkpt lat="43.66533" lon="1.31267">
        <ele>168.2</ele>
        <time>2025-10-18T07:48:22Z</time>
      </trkpt>
      <trkpt lat="43.66535" lon="1.31259">
        <ele>168.6</ele>
        <time>2025-10-18T07:48:23Z</time>
      </trkpt>
      <trkpt lat="43.66536" lon="1.31252">
        <ele>168.8</ele>
        <time>2025-10-18T07:48:24Z</time>
      </trkpt>
      <trkpt lat="43.66538" lon="1.31245">
        <ele>169</ele>
        <time>2025-10-18T07:48:25Z</time>
      </trkpt>
      <trkpt lat="43.6654" lon="1.31237">
        <ele>169.2</ele>
        <time>2025-10-18T07:48:26Z</time>
      </trkpt>
      <trkpt lat="43.66542" lon="1.31229">
        <ele>169.4</ele>
        <time>2025-10-18T07:48:27Z</time>
      </trkpt>
      <trkpt lat="43.66544" lon="1.31222">
        <ele>169.6</ele>
        <time>2025-10-18T07:48:28Z</time>
      </trkpt>
      <trkpt lat="43.66546" lon="1.31214">
        <ele>169.8</ele>
        <time>2025-10-18T07:48:29Z</time>
      </trkpt>
      <trkpt lat="43.66548" lon="1.31207">
        <ele>170</ele>
        <time>2025-10-18T07:48:30Z</time>
      </trkpt>
      <trkpt lat="43.66549" lon="1.31199">
        <ele>170.2</ele>
        <time>2025-10-18T07:48:31Z</time>
      </trkpt>
      <trkpt lat="43.66551" lon="1.31191">
        <ele>170.2</ele>
        <time>2025-10-18T07:48:32Z</time>
      </trkpt>
      <trkpt lat="43.66553" lon="1.31183">
        <ele>170.2</ele>
        <time>2025-10-18T07:48:33Z</time>
      </trkpt>
      <trkpt lat="43.66554" lon="1.31175">
        <ele>170.4</ele>
        <time>2025-10-18T07:48:34Z</time>
      </trkpt>
      <trkpt lat="43.66556" lon="1.31167">
        <ele>170.4</ele>
        <time>2025-10-18T07:48:35Z</time>
      </trkpt>
      <trkpt lat="43.66558" lon="1.31159">
        <ele>170.4</ele>
        <time>2025-10-18T07:48:36Z</time>
      </trkpt>
      <trkpt lat="43.66559" lon="1.31151">
        <ele>170.6</ele>
        <time>2025-10-18T07:48:37Z</time>
      </trkpt>
      <trkpt lat="43.66561" lon="1.31142">
        <ele>170.6</ele>
        <time>2025-10-18T07:48:38Z</time>
      </trkpt>
      <trkpt lat="43.66563" lon="1.31133">
        <ele>170.6</ele>
        <time>2025-10-18T07:48:39Z</time>
      </trkpt>
      <trkpt lat="43.66565" lon="1.31125">
        <ele>170.8</ele>
        <time>2025-10-18T07:48:40Z</time>
      </trkpt>
      <trkpt lat="43.66567" lon="1.31117">
        <ele>170.8</ele>
        <time>2025-10-18T07:48:41Z</time>
      </trkpt>
      <trkpt lat="43.66569" lon="1.31109">
        <ele>170.8</ele>
        <time>2025-10-18T07:48:42Z</time>
      </trkpt>
      <trkpt lat="43.6657" lon="1.31101">
        <ele>170.8</ele>
        <time>2025-10-18T07:48:43Z</time>
      </trkpt>
      <trkpt lat="43.66572" lon="1.31093">
        <ele>170.8</ele>
        <time>2025-10-18T07:48:44Z</time>
      </trkpt>
      <trkpt lat="43.66574" lon="1.31085">
        <ele>170.8</ele>
        <time>2025-10-18T07:48:45Z</time>
      </trkpt>
      <trkpt lat="43.66576" lon="1.31077">
        <ele>170.8</ele>
        <time>2025-10-18T07:48:46Z</time>
      </trkpt>
      <trkpt lat="43.66577" lon="1.31069">
        <ele>170.8</ele>
        <time>2025-10-18T07:48:47Z</time>
      </trkpt>
      <trkpt lat="43.66579" lon="1.31061">
        <ele>170.8</ele>
        <time>2025-10-18T07:48:48Z</time>
      </trkpt>
      <trkpt lat="43.66581" lon="1.31053">
        <ele>170.8</ele>
        <time>2025-10-18T07:48:49Z</time>
      </trkpt>
      <trkpt lat="43.66583" lon="1.31045">
        <ele>171</ele>
        <time>2025-10-18T07:48:50Z</time>
      </trkpt>
      <trkpt lat="43.66585" lon="1.31037">
        <ele>171</ele>
        <time>2025-10-18T07:48:51Z</time>
      </trkpt>
      <trkpt lat="43.66587" lon="1.31029">
        <ele>171</ele>
        <time>2025-10-18T07:48:52Z</time>
      </trkpt>
      <trkpt lat="43.66588" lon="1.31022">
        <ele>171</ele>
        <time>2025-10-18T07:48:53Z</time>
      </trkpt>
      <trkpt lat="43.6659" lon="1.31015">
        <ele>171</ele>
        <time>2025-10-18T07:48:54Z</time>
      </trkpt>
      <trkpt lat="43.66591" lon="1.31008">
        <ele>171</ele>
        <time>2025-10-18T07:48:55Z</time>
      </trkpt>
      <trkpt lat="43.66592" lon="1.31001">
        <ele>171</ele>
        <time>2025-10-18T07:48:56Z</time>
      </trkpt>
      <trkpt lat="43.66591" lon="1.30994">
        <ele>171</ele>
        <time>2025-10-18T07:48:57Z</time>
      </trkpt>
      <trkpt lat="43.66591" lon="1.30988">
        <ele>171</ele>
        <time>2025-10-18T07:48:58Z</time>
      </trkpt>
      <trkpt lat="43.6659" lon="1.30982">
        <ele>171</ele>
        <time>2025-10-18T07:48:59Z</time>
      </trkpt>
      <trkpt lat="43.66589" lon="1.30977">
        <ele>171</ele>
        <time>2025-10-18T07:49:00Z</time>
      </trkpt>
      <trkpt lat="43.66589" lon="1.30972">
        <ele>171</ele>
        <time>2025-10-18T07:49:01Z</time>
      </trkpt>
      <trkpt lat="43.66588" lon="1.30968">
        <ele>171</ele>
        <time>2025-10-18T07:49:02Z</time>
      </trkpt>
      <trkpt lat="43.66588" lon="1.30964">
        <ele>171.2</ele>
        <time>2025-10-18T07:49:03Z</time>
      </trkpt>
      <trkpt lat="43.66588" lon="1.30962">
        <ele>171.2</ele>
        <time>2025-10-18T07:49:04Z</time>
      </trkpt>
      <trkpt lat="43.66589" lon="1.30961">
        <ele>171.2</ele>
        <time>2025-10-18T07:49:05Z</time>
      </trkpt>
      <trkpt lat="43.66588" lon="1.3096">
        <ele>171.4</ele>
        <time>2025-10-18T07:49:06Z</time>
      </trkpt>
      <trkpt lat="43.66588" lon="1.3096">
        <ele>171.4</ele>
        <time>2025-10-18T07:49:07Z</time>
      </trkpt>
      <trkpt lat="43.66588" lon="1.30959">
        <ele>171.4</ele>
        <time>2025-10-18T07:49:08Z</time>
      </trkpt>
      <trkpt lat="43.66589" lon="1.30958">
        <ele>171.6</ele>
        <time>2025-10-18T07:49:09Z</time>
      </trkpt>
      <trkpt lat="43.66591" lon="1.30957">
        <ele>171.6</ele>
        <time>2025-10-18T07:49:10Z</time>
      </trkpt>
      <trkpt lat="43.66593" lon="1.30957">
        <ele>171.6</ele>
        <time>2025-10-18T07:49:11Z</time>
      </trkpt>
      <trkpt lat="43.66594" lon="1.3096">
        <ele>171.6</ele>
        <time>2025-10-18T07:49:12Z</time>
      </trkpt>
      <trkpt lat="43.66595" lon="1.30963">
        <ele>171.6</ele>
        <time>2025-10-18T07:49:13Z</time>
      </trkpt>
      <trkpt lat="43.66597" lon="1.30967">
        <ele>171.6</ele>
        <time>2025-10-18T07:49:14Z</time>
      </trkpt>
      <trkpt lat="43.66598" lon="1.30972">
        <ele>171.4</ele>
        <time>2025-10-18T07:49:15Z</time>
      </trkpt>
      <trkpt lat="43.66601" lon="1.30978">
        <ele>171.4</ele>
        <time>2025-10-18T07:49:16Z</time>
      </trkpt>
      <trkpt lat="43.66604" lon="1.30983">
        <ele>171.4</ele>
        <time>2025-10-18T07:49:17Z</time>
      </trkpt>
      <trkpt lat="43.66609" lon="1.30985">
        <ele>171.4</ele>
        <time>2025-10-18T07:49:18Z</time>
      </trkpt>
      <trkpt lat="43.66615" lon="1.30986">
        <ele>171.2</ele>
        <time>2025-10-18T07:49:19Z</time>
      </trkpt>
      <trkpt lat="43.6662" lon="1.30985">
        <ele>171.2</ele>
        <time>2025-10-18T07:49:20Z</time>
      </trkpt>
      <trkpt lat="43.66625" lon="1.30983">
        <ele>171.2</ele>
        <time>2025-10-18T07:49:21Z</time>
      </trkpt>
      <trkpt lat="43.66631" lon="1.30982">
        <ele>171</ele>
        <time>2025-10-18T07:49:22Z</time>
      </trkpt>
      <trkpt lat="43.66636" lon="1.30983">
        <ele>171</ele>
        <time>2025-10-18T07:49:23Z</time>
      </trkpt>
      <trkpt lat="43.66642" lon="1.30985">
        <ele>171</ele>
        <time>2025-10-18T07:49:24Z</time>
      </trkpt>
      <trkpt lat="43.66648" lon="1.30987">
        <ele>171</ele>
        <time>2025-10-18T07:49:25Z</time>
      </trkpt>
      <trkpt lat="43.66655" lon="1.3099">
        <ele>170.8</ele>
        <time>2025-10-18T07:49:26Z</time>
      </trkpt>
      <trkpt lat="43.66661" lon="1.30993">
        <ele>170.6</ele>
        <time>2025-10-18T07:49:27Z</time>
      </trkpt>
      <trkpt lat="43.66667" lon="1.30997">
        <ele>170.6</ele>
        <time>2025-10-18T07:49:28Z</time>
      </trkpt>
      <trkpt lat="43.66673" lon="1.31002">
        <ele>170.4</ele>
        <time>2025-10-18T07:49:29Z</time>
      </trkpt>
      <trkpt lat="43.6668" lon="1.31006">
        <ele>170.4</ele>
        <time>2025-10-18T07:49:30Z</time>
      </trkpt>
      <trkpt lat="43.66686" lon="1.3101">
        <ele>170.2</ele>
        <time>2025-10-18T07:49:31Z</time>
      </trkpt>
      <trkpt lat="43.66692" lon="1.31015">
        <ele>170.2</ele>
        <time>2025-10-18T07:49:32Z</time>
      </trkpt>
      <trkpt lat="43.66698" lon="1.31019">
        <ele>170</ele>
        <time>2025-10-18T07:49:33Z</time>
      </trkpt>
      <trkpt lat="43.66704" lon="1.31023">
        <ele>170</ele>
        <time>2025-10-18T07:49:34Z</time>
      </trkpt>
      <trkpt lat="43.6671" lon="1.31027">
        <ele>170</ele>
        <time>2025-10-18T07:49:35Z</time>
      </trkpt>
      <trkpt lat="43.66717" lon="1.3103">
        <ele>170</ele>
        <time>2025-10-18T07:49:36Z</time>
      </trkpt>
      <trkpt lat="43.66723" lon="1.31033">
        <ele>170</ele>
        <time>2025-10-18T07:49:37Z</time>
      </trkpt>
      <trkpt lat="43.6673" lon="1.31034">
        <ele>170</ele>
        <time>2025-10-18T07:49:38Z</time>
      </trkpt>
      <trkpt lat="43.66737" lon="1.31034">
        <ele>170</ele>
        <time>2025-10-18T07:49:39Z</time>
      </trkpt>
      <trkpt lat="43.66743" lon="1.31033">
        <ele>170</ele>
        <time>2025-10-18T07:49:40Z</time>
      </trkpt>
      <trkpt lat="43.6675" lon="1.31032">
        <ele>170</ele>
        <time>2025-10-18T07:49:41Z</time>
      </trkpt>
      <trkpt lat="43.66758" lon="1.31032">
        <ele>169.8</ele>
        <time>2025-10-18T07:49:42Z</time>
      </trkpt>
      <trkpt lat="43.66765" lon="1.31031">
        <ele>169.8</ele>
        <time>2025-10-18T07:49:43Z</time>
      </trkpt>
      <trkpt lat="43.66772" lon="1.31031">
        <ele>169.8</ele>
        <time>2025-10-18T07:49:44Z</time>
      </trkpt>
      <trkpt lat="43.6678" lon="1.3103">
        <ele>169.6</ele>
        <time>2025-10-18T07:49:45Z</time>
      </trkpt>
      <trkpt lat="43.66788" lon="1.31029">
        <ele>169.6</ele>
        <time>2025-10-18T07:49:46Z</time>
      </trkpt>
      <trkpt lat="43.66796" lon="1.31029">
        <ele>169.6</ele>
        <time>2025-10-18T07:49:47Z</time>
      </trkpt>
      <trkpt lat="43.66803" lon="1.31028">
        <ele>169.4</ele>
        <time>2025-10-18T07:49:48Z</time>
      </trkpt>
      <trkpt lat="43.6681" lon="1.31027">
        <ele>169.4</ele>
        <time>2025-10-18T07:49:49Z</time>
      </trkpt>
      <trkpt lat="43.66818" lon="1.31026">
        <ele>169.4</ele>
        <time>2025-10-18T07:49:50Z</time>
      </trkpt>
      <trkpt lat="43.66826" lon="1.31026">
        <ele>169.4</ele>
        <time>2025-10-18T07:49:51Z</time>
      </trkpt>
      <trkpt lat="43.66833" lon="1.31024">
        <ele>169.2</ele>
        <time>2025-10-18T07:49:52Z</time>
      </trkpt>
      <trkpt lat="43.6684" lon="1.31023">
        <ele>169.2</ele>
        <time>2025-10-18T07:49:53Z</time>
      </trkpt>
      <trkpt lat="43.66848" lon="1.31022">
        <ele>169.2</ele>
        <time>2025-10-18T07:49:54Z</time>
      </trkpt>
      <trkpt lat="43.66856" lon="1.3102">
        <ele>169</ele>
        <time>2025-10-18T07:49:55Z</time>
      </trkpt>
      <trkpt lat="43.66863" lon="1.31019">
        <ele>169</ele>
        <time>2025-10-18T07:49:56Z</time>
      </trkpt>
      <trkpt lat="43.66871" lon="1.31017">
        <ele>169</ele>
        <time>2025-10-18T07:49:57Z</time>
      </trkpt>
      <trkpt lat="43.66879" lon="1.31016">
        <ele>168.8</ele>
        <time>2025-10-18T07:49:58Z</time>
      </trkpt>
      <trkpt lat="43.66887" lon="1.31015">
        <ele>168.8</ele>
        <time>2025-10-18T07:49:59Z</time>
      </trkpt>
      <trkpt lat="43.66895" lon="1.31014">
        <ele>168.8</ele>
        <time>2025-10-18T07:50:00Z</time>
      </trkpt>
      <trkpt lat="43.66902" lon="1.31013">
        <ele>168.6</ele>
        <time>2025-10-18T07:50:01Z</time>
      </trkpt>
      <trkpt lat="43.66908" lon="1.31012">
        <ele>168.6</ele>
        <time>2025-10-18T07:50:02Z</time>
      </trkpt>
      <trkpt lat="43.66912" lon="1.31011">
        <ele>168.6</ele>
        <time>2025-10-18T07:50:03Z</time>
      </trkpt>
      <trkpt lat="43.66915" lon="1.31011">
        <ele>168.6</ele>
        <time>2025-10-18T07:50:04Z</time>
      </trkpt>
      <trkpt lat="43.66916" lon="1.3101">
        <ele>168.8</ele>
        <time>2025-10-18T07:50:05Z</time>
      </trkpt>
      <trkpt lat="43.66917" lon="1.31009">
        <ele>168.8</ele>
        <time>2025-10-18T07:50:06Z</time>
      </trkpt>
      <trkpt lat="43.66918" lon="1.31009">
        <ele>168.8</ele>
        <time>2025-10-18T07:50:07Z</time>
      </trkpt>
      <trkpt lat="43.66919" lon="1.31009">
        <ele>168.8</ele>
        <time>2025-10-18T07:50:08Z</time>
      </trkpt>
      <trkpt lat="43.6692" lon="1.31009">
        <ele>168.8</ele>
        <time>2025-10-18T07:50:09Z</time>
      </trkpt>
      <trkpt lat="43.66922" lon="1.31009">
        <ele>168.8</ele>
        <time>2025-10-18T07:50:10Z</time>
      </trkpt>
      <trkpt lat="43.66923" lon="1.31011">
        <ele>168.8</ele>
        <time>2025-10-18T07:50:11Z</time>
      </trkpt>
      <trkpt lat="43.66924" lon="1.31014">
        <ele>168.8</ele>
        <time>2025-10-18T07:50:12Z</time>
      </trkpt>
      <trkpt lat="43.66926" lon="1.31018">
        <ele>168.6</ele>
        <time>2025-10-18T07:50:13Z</time>
      </trkpt>
      <trkpt lat="43.66929" lon="1.31019">
        <ele>168.6</ele>
        <time>2025-10-18T07:50:14Z</time>
      </trkpt>
      <trkpt lat="43.66933" lon="1.31019">
        <ele>168.6</ele>
        <time>2025-10-18T07:50:15Z</time>
      </trkpt>
      <trkpt lat="43.66937" lon="1.31019">
        <ele>168.4</ele>
        <time>2025-10-18T07:50:16Z</time>
      </trkpt>
      <trkpt lat="43.66942" lon="1.31018">
        <ele>168.4</ele>
        <time>2025-10-18T07:50:17Z</time>
      </trkpt>
      <trkpt lat="43.66947" lon="1.31017">
        <ele>168.2</ele>
        <time>2025-10-18T07:50:18Z</time>
      </trkpt>
      <trkpt lat="43.66952" lon="1.31016">
        <ele>168.2</ele>
        <time>2025-10-18T07:50:19Z</time>
      </trkpt>
      <trkpt lat="43.66958" lon="1.31015">
        <ele>168</ele>
        <time>2025-10-18T07:50:20Z</time>
      </trkpt>
      <trkpt lat="43.66964" lon="1.31013">
        <ele>168</ele>
        <time>2025-10-18T07:50:21Z</time>
      </trkpt>
      <trkpt lat="43.66969" lon="1.31013">
        <ele>167.8</ele>
        <time>2025-10-18T07:50:22Z</time>
      </trkpt>
      <trkpt lat="43.66975" lon="1.31011">
        <ele>167.8</ele>
        <time>2025-10-18T07:50:23Z</time>
      </trkpt>
      <trkpt lat="43.6698" lon="1.3101">
        <ele>167.8</ele>
        <time>2025-10-18T07:50:24Z</time>
      </trkpt>
      <trkpt lat="43.66987" lon="1.31008">
        <ele>167.6</ele>
        <time>2025-10-18T07:50:25Z</time>
      </trkpt>
      <trkpt lat="43.66993" lon="1.31007">
        <ele>167.8</ele>
        <time>2025-10-18T07:50:26Z</time>
      </trkpt>
      <trkpt lat="43.66999" lon="1.31007">
        <ele>167.6</ele>
        <time>2025-10-18T07:50:27Z</time>
      </trkpt>
      <trkpt lat="43.67004" lon="1.31006">
        <ele>167.6</ele>
        <time>2025-10-18T07:50:28Z</time>
      </trkpt>
      <trkpt lat="43.67011" lon="1.31005">
        <ele>167.6</ele>
        <time>2025-10-18T07:50:29Z</time>
      </trkpt>
      <trkpt lat="43.67016" lon="1.31004">
        <ele>167.8</ele>
        <time>2025-10-18T07:50:30Z</time>
      </trkpt>
      <trkpt lat="43.67022" lon="1.31003">
        <ele>167.8</ele>
        <time>2025-10-18T07:50:31Z</time>
      </trkpt>
      <trkpt lat="43.67028" lon="1.31001">
        <ele>167.8</ele>
        <time>2025-10-18T07:50:32Z</time>
      </trkpt>
      <trkpt lat="43.67033" lon="1.31">
        <ele>167.8</ele>
        <time>2025-10-18T07:50:33Z</time>
      </trkpt>
      <trkpt lat="43.67039" lon="1.30999">
        <ele>168</ele>
        <time>2025-10-18T07:50:34Z</time>
      </trkpt>
      <trkpt lat="43.67044" lon="1.30997">
        <ele>168</ele>
        <time>2025-10-18T07:50:35Z</time>
      </trkpt>
      <trkpt lat="43.67048" lon="1.30996">
        <ele>168.2</ele>
        <time>2025-10-18T07:50:36Z</time>
      </trkpt>
      <trkpt lat="43.67051" lon="1.30996">
        <ele>168.4</ele>
        <time>2025-10-18T07:50:37Z</time>
      </trkpt>
      <trkpt lat="43.67055" lon="1.30996">
        <ele>168.4</ele>
        <time>2025-10-18T07:50:38Z</time>
      </trkpt>
      <trkpt lat="43.67058" lon="1.30996">
        <ele>168.4</ele>
        <time>2025-10-18T07:50:39Z</time>
      </trkpt>
      <trkpt lat="43.67063" lon="1.30995">
        <ele>168.4</ele>
        <time>2025-10-18T07:50:40Z</time>
      </trkpt>
      <trkpt lat="43.67068" lon="1.30994">
        <ele>168.4</ele>
        <time>2025-10-18T07:50:41Z</time>
      </trkpt>
      <trkpt lat="43.67073" lon="1.30992">
        <ele>168.4</ele>
        <time>2025-10-18T07:50:42Z</time>
      </trkpt>
      <trkpt lat="43.67078" lon="1.30991">
        <ele>168.2</ele>
        <time>2025-10-18T07:50:43Z</time>
      </trkpt>
      <trkpt lat="43.67083" lon="1.3099">
        <ele>168.2</ele>
        <time>2025-10-18T07:50:44Z</time>
      </trkpt>
      <trkpt lat="43.67089" lon="1.3099">
        <ele>168.2</ele>
        <time>2025-10-18T07:50:45Z</time>
      </trkpt>
      <trkpt lat="43.67094" lon="1.30988">
        <ele>168</ele>
        <time>2025-10-18T07:50:46Z</time>
      </trkpt>
      <trkpt lat="43.671" lon="1.30987">
        <ele>167.8</ele>
        <time>2025-10-18T07:50:47Z</time>
      </trkpt>
      <trkpt lat="43.67107" lon="1.30986">
        <ele>167.6</ele>
        <time>2025-10-18T07:50:48Z</time>
      </trkpt>
      <trkpt lat="43.67113" lon="1.30986">
        <ele>167.4</ele>
        <time>2025-10-18T07:50:49Z</time>
      </trkpt>
      <trkpt lat="43.67121" lon="1.30985">
        <ele>167</ele>
        <time>2025-10-18T07:50:50Z</time>
      </trkpt>
      <trkpt lat="43.67128" lon="1.30985">
        <ele>166.8</ele>
        <time>2025-10-18T07:50:51Z</time>
      </trkpt>
      <trkpt lat="43.67135" lon="1.30986">
        <ele>166.6</ele>
        <time>2025-10-18T07:50:52Z</time>
      </trkpt>
      <trkpt lat="43.67141" lon="1.30986">
        <ele>166.4</ele>
        <time>2025-10-18T07:50:53Z</time>
      </trkpt>
      <trkpt lat="43.67148" lon="1.30987">
        <ele>166.2</ele>
        <time>2025-10-18T07:50:54Z</time>
      </trkpt>
      <trkpt lat="43.67155" lon="1.30988">
        <ele>166</ele>
        <time>2025-10-18T07:50:55Z</time>
      </trkpt>
      <trkpt lat="43.67163" lon="1.30989">
        <ele>165.6</ele>
        <time>2025-10-18T07:50:56Z</time>
      </trkpt>
      <trkpt lat="43.6717" lon="1.30991">
        <ele>165.4</ele>
        <time>2025-10-18T07:50:57Z</time>
      </trkpt>
      <trkpt lat="43.67178" lon="1.30993">
        <ele>165.4</ele>
        <time>2025-10-18T07:50:58Z</time>
      </trkpt>
      <trkpt lat="43.67186" lon="1.30994">
        <ele>165.2</ele>
        <time>2025-10-18T07:50:59Z</time>
      </trkpt>
      <trkpt lat="43.67193" lon="1.30994">
        <ele>165.2</ele>
        <time>2025-10-18T07:51:00Z</time>
      </trkpt>
      <trkpt lat="43.67201" lon="1.30993">
        <ele>165.2</ele>
        <time>2025-10-18T07:51:01Z</time>
      </trkpt>
      <trkpt lat="43.67208" lon="1.30991">
        <ele>165</ele>
        <time>2025-10-18T07:51:02Z</time>
      </trkpt>
      <trkpt lat="43.67215" lon="1.3099">
        <ele>165</ele>
        <time>2025-10-18T07:51:03Z</time>
      </trkpt>
      <trkpt lat="43.67221" lon="1.30987">
        <ele>165</ele>
        <time>2025-10-18T07:51:04Z</time>
      </trkpt>
      <trkpt lat="43.67227" lon="1.30984">
        <ele>165</ele>
        <time>2025-10-18T07:51:05Z</time>
      </trkpt>
      <trkpt lat="43.67233" lon="1.30982">
        <ele>165</ele>
        <time>2025-10-18T07:51:06Z</time>
      </trkpt>
      <trkpt lat="43.6724" lon="1.30981">
        <ele>165</ele>
        <time>2025-10-18T07:51:07Z</time>
      </trkpt>
      <trkpt lat="43.67247" lon="1.3098">
        <ele>164.8</ele>
        <time>2025-10-18T07:51:08Z</time>
      </trkpt>
      <trkpt lat="43.67253" lon="1.30979">
        <ele>164.8</ele>
        <time>2025-10-18T07:51:09Z</time>
      </trkpt>
      <trkpt lat="43.6726" lon="1.30979">
        <ele>164.6</ele>
        <time>2025-10-18T07:51:10Z</time>
      </trkpt>
      <trkpt lat="43.67267" lon="1.30978">
        <ele>164.4</ele>
        <time>2025-10-18T07:51:11Z</time>
      </trkpt>
      <trkpt lat="43.67274" lon="1.30979">
        <ele>164</ele>
        <time>2025-10-18T07:51:12Z</time>
      </trkpt>
      <trkpt lat="43.6728" lon="1.30979">
        <ele>164</ele>
        <time>2025-10-18T07:51:13Z</time>
      </trkpt>
      <trkpt lat="43.67286" lon="1.3098">
        <ele>163.8</ele>
        <time>2025-10-18T07:51:14Z</time>
      </trkpt>
      <trkpt lat="43.67293" lon="1.30981">
        <ele>163.6</ele>
        <time>2025-10-18T07:51:15Z</time>
      </trkpt>
      <trkpt lat="43.673" lon="1.30982">
        <ele>163.6</ele>
        <time>2025-10-18T07:51:16Z</time>
      </trkpt>
      <trkpt lat="43.67306" lon="1.30981">
        <ele>163.4</ele>
        <time>2025-10-18T07:51:17Z</time>
      </trkpt>
      <trkpt lat="43.67313" lon="1.3098">
        <ele>162.8</ele>
        <time>2025-10-18T07:51:18Z</time>
      </trkpt>
      <trkpt lat="43.6732" lon="1.30977">
        <ele>162.4</ele>
        <time>2025-10-18T07:51:19Z</time>
      </trkpt>
      <trkpt lat="43.67328" lon="1.30974">
        <ele>161.8</ele>
        <time>2025-10-18T07:51:20Z</time>
      </trkpt>
      <trkpt lat="43.67335" lon="1.30971">
        <ele>161.2</ele>
        <time>2025-10-18T07:51:21Z</time>
      </trkpt>
      <trkpt lat="43.67343" lon="1.30968">
        <ele>160.6</ele>
        <time>2025-10-18T07:51:22Z</time>
      </trkpt>
      <trkpt lat="43.67351" lon="1.30966">
        <ele>159.8</ele>
        <time>2025-10-18T07:51:23Z</time>
      </trkpt>
      <trkpt lat="43.6736" lon="1.30965">
        <ele>159</ele>
        <time>2025-10-18T07:51:24Z</time>
      </trkpt>
      <trkpt lat="43.67368" lon="1.30966">
        <ele>158.2</ele>
        <time>2025-10-18T07:51:25Z</time>
      </trkpt>
      <trkpt lat="43.67375" lon="1.30967">
        <ele>157.8</ele>
        <time>2025-10-18T07:51:26Z</time>
      </trkpt>
      <trkpt lat="43.67383" lon="1.3097">
        <ele>157.2</ele>
        <time>2025-10-18T07:51:27Z</time>
      </trkpt>
      <trkpt lat="43.67391" lon="1.30973">
        <ele>156.8</ele>
        <time>2025-10-18T07:51:28Z</time>
      </trkpt>
      <trkpt lat="43.67398" lon="1.30975">
        <ele>156.4</ele>
        <time>2025-10-18T07:51:29Z</time>
      </trkpt>
      <trkpt lat="43.67405" lon="1.30977">
        <ele>156.2</ele>
        <time>2025-10-18T07:51:30Z</time>
      </trkpt>
      <trkpt lat="43.67411" lon="1.30979">
        <ele>156</ele>
        <time>2025-10-18T07:51:31Z</time>
      </trkpt>
      <trkpt lat="43.67417" lon="1.30981">
        <ele>155.8</ele>
        <time>2025-10-18T07:51:32Z</time>
      </trkpt>
      <trkpt lat="43.67424" lon="1.30982">
        <ele>155.8</ele>
        <time>2025-10-18T07:51:33Z</time>
      </trkpt>
      <trkpt lat="43.67431" lon="1.30983">
        <ele>155.6</ele>
        <time>2025-10-18T07:51:34Z</time>
      </trkpt>
      <trkpt lat="43.67438" lon="1.30984">
        <ele>155.4</ele>
        <time>2025-10-18T07:51:35Z</time>
      </trkpt>
      <trkpt lat="43.67445" lon="1.30984">
        <ele>155</ele>
        <time>2025-10-18T07:51:36Z</time>
      </trkpt>
      <trkpt lat="43.67453" lon="1.30983">
        <ele>154.6</ele>
        <time>2025-10-18T07:51:37Z</time>
      </trkpt>
      <trkpt lat="43.6746" lon="1.30984">
        <ele>154.4</ele>
        <time>2025-10-18T07:51:38Z</time>
      </trkpt>
      <trkpt lat="43.67469" lon="1.30984">
        <ele>153.8</ele>
        <time>2025-10-18T07:51:39Z</time>
      </trkpt>
      <trkpt lat="43.67477" lon="1.30985">
        <ele>153.4</ele>
        <time>2025-10-18T07:51:40Z</time>
      </trkpt>
      <trkpt lat="43.67485" lon="1.30985">
        <ele>153.2</ele>
        <time>2025-10-18T07:51:41Z</time>
      </trkpt>
      <trkpt lat="43.67493" lon="1.30986">
        <ele>152.6</ele>
        <time>2025-10-18T07:51:42Z</time>
      </trkpt>
      <trkpt lat="43.67502" lon="1.30986">
        <ele>152.2</ele>
        <time>2025-10-18T07:51:43Z</time>
      </trkpt>
      <trkpt lat="43.67511" lon="1.30986">
        <ele>152</ele>
        <time>2025-10-18T07:51:44Z</time>
      </trkpt>
      <trkpt lat="43.6752" lon="1.30985">
        <ele>151.6</ele>
        <time>2025-10-18T07:51:45Z</time>
      </trkpt>
      <trkpt lat="43.67528" lon="1.30985">
        <ele>151.2</ele>
        <time>2025-10-18T07:51:46Z</time>
      </trkpt>
      <trkpt lat="43.67537" lon="1.30985">
        <ele>151</ele>
        <time>2025-10-18T07:51:47Z</time>
      </trkpt>
      <trkpt lat="43.67545" lon="1.30982">
        <ele>150.6</ele>
        <time>2025-10-18T07:51:48Z</time>
      </trkpt>
      <trkpt lat="43.67553" lon="1.3098">
        <ele>150</ele>
        <time>2025-10-18T07:51:49Z</time>
      </trkpt>
      <trkpt lat="43.67561" lon="1.30977">
        <ele>149.8</ele>
        <time>2025-10-18T07:51:50Z</time>
      </trkpt>
      <trkpt lat="43.6757" lon="1.30975">
        <ele>149.6</ele>
        <time>2025-10-18T07:51:51Z</time>
      </trkpt>
      <trkpt lat="43.67579" lon="1.30974">
        <ele>149.4</ele>
        <time>2025-10-18T07:51:52Z</time>
      </trkpt>
      <trkpt lat="43.67588" lon="1.30972">
        <ele>149</ele>
        <time>2025-10-18T07:51:53Z</time>
      </trkpt>
      <trkpt lat="43.67596" lon="1.3097">
        <ele>148.4</ele>
        <time>2025-10-18T07:51:54Z</time>
      </trkpt>
      <trkpt lat="43.67603" lon="1.30969">
        <ele>148</ele>
        <time>2025-10-18T07:51:55Z</time>
      </trkpt>
      <trkpt lat="43.67611" lon="1.30969">
        <ele>147.4</ele>
        <time>2025-10-18T07:51:56Z</time>
      </trkpt>
      <trkpt lat="43.67618" lon="1.30969">
        <ele>147.2</ele>
        <time>2025-10-18T07:51:57Z</time>
      </trkpt>
      <trkpt lat="43.67626" lon="1.30967">
        <ele>146.8</ele>
        <time>2025-10-18T07:51:58Z</time>
      </trkpt>
      <trkpt lat="43.67634" lon="1.30965">
        <ele>146.4</ele>
        <time>2025-10-18T07:51:59Z</time>
      </trkpt>
      <trkpt lat="43.67642" lon="1.30962">
        <ele>145.8</ele>
        <time>2025-10-18T07:52:00Z</time>
      </trkpt>
      <trkpt lat="43.6765" lon="1.30958">
        <ele>145.4</ele>
        <time>2025-10-18T07:52:01Z</time>
      </trkpt>
      <trkpt lat="43.67658" lon="1.30954">
        <ele>145</ele>
        <time>2025-10-18T07:52:02Z</time>
      </trkpt>
      <trkpt lat="43.67666" lon="1.30949">
        <ele>144.6</ele>
        <time>2025-10-18T07:52:03Z</time>
      </trkpt>
      <trkpt lat="43.67675" lon="1.30943">
        <ele>144.6</ele>
        <time>2025-10-18T07:52:04Z</time>
      </trkpt>
      <trkpt lat="43.67682" lon="1.30937">
        <ele>144.4</ele>
        <time>2025-10-18T07:52:05Z</time>
      </trkpt>
      <trkpt lat="43.6769" lon="1.30932">
        <ele>144.4</ele>
        <time>2025-10-18T07:52:06Z</time>
      </trkpt>
      <trkpt lat="43.67696" lon="1.30928">
        <ele>144.4</ele>
        <time>2025-10-18T07:52:07Z</time>
      </trkpt>
      <trkpt lat="43.67703" lon="1.30923">
        <ele>144.4</ele>
        <time>2025-10-18T07:52:08Z</time>
      </trkpt>
      <trkpt lat="43.6771" lon="1.30919">
        <ele>144.6</ele>
        <time>2025-10-18T07:52:09Z</time>
      </trkpt>
      <trkpt lat="43.67716" lon="1.30914">
        <ele>144.6</ele>
        <time>2025-10-18T07:52:10Z</time>
      </trkpt>
      <trkpt lat="43.67722" lon="1.3091">
        <ele>144.8</ele>
        <time>2025-10-18T07:52:11Z</time>
      </trkpt>
      <trkpt lat="43.67727" lon="1.30905">
        <ele>145</ele>
        <time>2025-10-18T07:52:12Z</time>
      </trkpt>
      <trkpt lat="43.67732" lon="1.30901">
        <ele>145</ele>
        <time>2025-10-18T07:52:13Z</time>
      </trkpt>
      <trkpt lat="43.67736" lon="1.30898">
        <ele>145.2</ele>
        <time>2025-10-18T07:52:14Z</time>
      </trkpt>
      <trkpt lat="43.6774" lon="1.30895">
        <ele>145.2</ele>
        <time>2025-10-18T07:52:15Z</time>
      </trkpt>
      <trkpt lat="43.67744" lon="1.30893">
        <ele>145.2</ele>
        <time>2025-10-18T07:52:16Z</time>
      </trkpt>
      <trkpt lat="43.67746" lon="1.30892">
        <ele>145.4</ele>
        <time>2025-10-18T07:52:17Z</time>
      </trkpt>
      <trkpt lat="43.67748" lon="1.30891">
        <ele>145.4</ele>
        <time>2025-10-18T07:52:18Z</time>
      </trkpt>
      <trkpt lat="43.67748" lon="1.30891">
        <ele>145.6</ele>
        <time>2025-10-18T07:52:19Z</time>
      </trkpt>
      <trkpt lat="43.67749" lon="1.30891">
        <ele>145.6</ele>
        <time>2025-10-18T07:52:20Z</time>
      </trkpt>
      <trkpt lat="43.6775" lon="1.3089">
        <ele>145.8</ele>
        <time>2025-10-18T07:52:21Z</time>
      </trkpt>
      <trkpt lat="43.6775" lon="1.3089">
        <ele>146</ele>
        <time>2025-10-18T07:52:22Z</time>
      </trkpt>
      <trkpt lat="43.67751" lon="1.3089">
        <ele>146</ele>
        <time>2025-10-18T07:52:23Z</time>
      </trkpt>
      <trkpt lat="43.67751" lon="1.30889">
        <ele>146</ele>
        <time>2025-10-18T07:52:24Z</time>
      </trkpt>
      <trkpt lat="43.67752" lon="1.30888">
        <ele>146.2</ele>
        <time>2025-10-18T07:52:25Z</time>
      </trkpt>
      <trkpt lat="43.67753" lon="1.30887">
        <ele>146.2</ele>
        <time>2025-10-18T07:52:26Z</time>
      </trkpt>
      <trkpt lat="43.67755" lon="1.30885">
        <ele>146.2</ele>
        <time>2025-10-18T07:52:27Z</time>
      </trkpt>
      <trkpt lat="43.67756" lon="1.30881">
        <ele>146.2</ele>
        <time>2025-10-18T07:52:28Z</time>
      </trkpt>
      <trkpt lat="43.67756" lon="1.30877">
        <ele>146.2</ele>
        <time>2025-10-18T07:52:29Z</time>
      </trkpt>
      <trkpt lat="43.67756" lon="1.30873">
        <ele>146.4</ele>
        <time>2025-10-18T07:52:30Z</time>
      </trkpt>
      <trkpt lat="43.67756" lon="1.30869">
        <ele>146.4</ele>
        <time>2025-10-18T07:52:31Z</time>
      </trkpt>
      <trkpt lat="43.67756" lon="1.30864">
        <ele>146.4</ele>
        <time>2025-10-18T07:52:32Z</time>
      </trkpt>
      <trkpt lat="43.67757" lon="1.30859">
        <ele>146.4</ele>
        <time>2025-10-18T07:52:33Z</time>
      </trkpt>
      <trkpt lat="43.6776" lon="1.30855">
        <ele>146.4</ele>
        <time>2025-10-18T07:52:34Z</time>
      </trkpt>
      <trkpt lat="43.67764" lon="1.30852">
        <ele>146.6</ele>
        <time>2025-10-18T07:52:35Z</time>
      </trkpt>
      <trkpt lat="43.67769" lon="1.30851">
        <ele>146.6</ele>
        <time>2025-10-18T07:52:36Z</time>
      </trkpt>
      <trkpt lat="43.67774" lon="1.30849">
        <ele>146.8</ele>
        <time>2025-10-18T07:52:37Z</time>
      </trkpt>
      <trkpt lat="43.67779" lon="1.30848">
        <ele>146.8</ele>
        <time>2025-10-18T07:52:38Z</time>
      </trkpt>
      <trkpt lat="43.67784" lon="1.30847">
        <ele>147</ele>
        <time>2025-10-18T07:52:39Z</time>
      </trkpt>
      <trkpt lat="43.67789" lon="1.30845">
        <ele>147</ele>
        <time>2025-10-18T07:52:40Z</time>
      </trkpt>
      <trkpt lat="43.67795" lon="1.30844">
        <ele>147.2</ele>
        <time>2025-10-18T07:52:41Z</time>
      </trkpt>
      <trkpt lat="43.678" lon="1.30842">
        <ele>147.4</ele>
        <time>2025-10-18T07:52:42Z</time>
      </trkpt>
      <trkpt lat="43.67806" lon="1.30841">
        <ele>147.6</ele>
        <time>2025-10-18T07:52:43Z</time>
      </trkpt>
      <trkpt lat="43.67811" lon="1.3084">
        <ele>148</ele>
        <time>2025-10-18T07:52:44Z</time>
      </trkpt>
      <trkpt lat="43.67816" lon="1.30839">
        <ele>148.2</ele>
        <time>2025-10-18T07:52:45Z</time>
      </trkpt>
      <trkpt lat="43.6782" lon="1.30837">
        <ele>148.6</ele>
        <time>2025-10-18T07:52:46Z</time>
      </trkpt>
      <trkpt lat="43.67825" lon="1.30834">
        <ele>149</ele>
        <time>2025-10-18T07:52:47Z</time>
      </trkpt>
      <trkpt lat="43.67828" lon="1.30831">
        <ele>149.4</ele>
        <time>2025-10-18T07:52:48Z</time>
      </trkpt>
      <trkpt lat="43.67832" lon="1.30827">
        <ele>149.8</ele>
        <time>2025-10-18T07:52:49Z</time>
      </trkpt>
      <trkpt lat="43.67836" lon="1.30824">
        <ele>150</ele>
        <time>2025-10-18T07:52:50Z</time>
      </trkpt>
      <trkpt lat="43.67839" lon="1.30821">
        <ele>150.4</ele>
        <time>2025-10-18T07:52:51Z</time>
      </trkpt>
      <trkpt lat="43.67842" lon="1.30818">
        <ele>150.8</ele>
        <time>2025-10-18T07:52:52Z</time>
      </trkpt>
      <trkpt lat="43.67846" lon="1.30814">
        <ele>151</ele>
        <time>2025-10-18T07:52:53Z</time>
      </trkpt>
      <trkpt lat="43.67849" lon="1.3081">
        <ele>151.4</ele>
        <time>2025-10-18T07:52:54Z</time>
      </trkpt>
      <trkpt lat="43.67852" lon="1.30806">
        <ele>151.6</ele>
        <time>2025-10-18T07:52:55Z</time>
      </trkpt>
      <trkpt lat="43.67855" lon="1.30802">
        <ele>151.8</ele>
        <time>2025-10-18T07:52:56Z</time>
      </trkpt>
      <trkpt lat="43.67859" lon="1.30798">
        <ele>152</ele>
        <time>2025-10-18T07:52:57Z</time>
      </trkpt>
      <trkpt lat="43.67862" lon="1.30794">
        <ele>152.4</ele>
        <time>2025-10-18T07:52:58Z</time>
      </trkpt>
      <trkpt lat="43.67865" lon="1.30789">
        <ele>152.6</ele>
        <time>2025-10-18T07:52:59Z</time>
      </trkpt>
      <trkpt lat="43.67868" lon="1.30785">
        <ele>152.8</ele>
        <time>2025-10-18T07:53:00Z</time>
      </trkpt>
      <trkpt lat="43.6787" lon="1.3078">
        <ele>153.2</ele>
        <time>2025-10-18T07:53:01Z</time>
      </trkpt>
      <trkpt lat="43.67873" lon="1.30775">
        <ele>153.4</ele>
        <time>2025-10-18T07:53:02Z</time>
      </trkpt>
      <trkpt lat="43.67875" lon="1.30769">
        <ele>153.8</ele>
        <time>2025-10-18T07:53:03Z</time>
      </trkpt>
      <trkpt lat="43.67878" lon="1.30764">
        <ele>154.2</ele>
        <time>2025-10-18T07:53:04Z</time>
      </trkpt>
      <trkpt lat="43.6788" lon="1.30758">
        <ele>154.6</ele>
        <time>2025-10-18T07:53:05Z</time>
      </trkpt>
      <trkpt lat="43.67883" lon="1.30753">
        <ele>155</ele>
        <time>2025-10-18T07:53:06Z</time>
      </trkpt>
      <trkpt lat="43.67885" lon="1.30747">
        <ele>155.2</ele>
        <time>2025-10-18T07:53:07Z</time>
      </trkpt>
      <trkpt lat="43.67888" lon="1.30742">
        <ele>155.6</ele>
        <time>2025-10-18T07:53:08Z</time>
      </trkpt>
      <trkpt lat="43.67891" lon="1.30736">
        <ele>155.8</ele>
        <time>2025-10-18T07:53:09Z</time>
      </trkpt>
      <trkpt lat="43.67893" lon="1.30731">
        <ele>156.2</ele>
        <time>2025-10-18T07:53:10Z</time>
      </trkpt>
      <trkpt lat="43.67896" lon="1.30725">
        <ele>156.4</ele>
        <time>2025-10-18T07:53:11Z</time>
      </trkpt>
      <trkpt lat="43.67898" lon="1.30719">
        <ele>156.8</ele>
        <time>2025-10-18T07:53:12Z</time>
      </trkpt>
      <trkpt lat="43.67901" lon="1.30714">
        <ele>157.2</ele>
        <time>2025-10-18T07:53:13Z</time>
      </trkpt>
      <trkpt lat="43.67903" lon="1.30707">
        <ele>157.4</ele>
        <time>2025-10-18T07:53:14Z</time>
      </trkpt>
      <trkpt lat="43.67906" lon="1.30701">
        <ele>157.6</ele>
        <time>2025-10-18T07:53:15Z</time>
      </trkpt>
      <trkpt lat="43.67908" lon="1.30695">
        <ele>157.8</ele>
        <time>2025-10-18T07:53:16Z</time>
      </trkpt>
      <trkpt lat="43.67911" lon="1.30689">
        <ele>158.2</ele>
        <time>2025-10-18T07:53:17Z</time>
      </trkpt>
      <trkpt lat="43.67914" lon="1.30684">
        <ele>158.6</ele>
        <time>2025-10-18T07:53:18Z</time>
      </trkpt>
      <trkpt lat="43.67918" lon="1.30678">
        <ele>158.8</ele>
        <time>2025-10-18T07:53:19Z</time>
      </trkpt>
      <trkpt lat="43.67921" lon="1.30672">
        <ele>159.2</ele>
        <time>2025-10-18T07:53:20Z</time>
      </trkpt>
      <trkpt lat="43.67924" lon="1.30668">
        <ele>159.4</ele>
        <time>2025-10-18T07:53:21Z</time>
      </trkpt>
      <trkpt lat="43.67928" lon="1.30664">
        <ele>159.6</ele>
        <time>2025-10-18T07:53:22Z</time>
      </trkpt>
      <trkpt lat="43.67933" lon="1.30659">
        <ele>160</ele>
        <time>2025-10-18T07:53:23Z</time>
      </trkpt>
      <trkpt lat="43.67937" lon="1.30656">
        <ele>160.4</ele>
        <time>2025-10-18T07:53:24Z</time>
      </trkpt>
      <trkpt lat="43.67942" lon="1.30652">
        <ele>160.6</ele>
        <time>2025-10-18T07:53:25Z</time>
      </trkpt>
      <trkpt lat="43.67946" lon="1.30649">
        <ele>161</ele>
        <time>2025-10-18T07:53:26Z</time>
      </trkpt>
      <trkpt lat="43.67951" lon="1.30645">
        <ele>161.2</ele>
        <time>2025-10-18T07:53:27Z</time>
      </trkpt>
      <trkpt lat="43.67955" lon="1.30642">
        <ele>161.6</ele>
        <time>2025-10-18T07:53:28Z</time>
      </trkpt>
      <trkpt lat="43.67961" lon="1.30638">
        <ele>161.6</ele>
        <time>2025-10-18T07:53:29Z</time>
      </trkpt>
      <trkpt lat="43.67966" lon="1.30634">
        <ele>161.6</ele>
        <time>2025-10-18T07:53:30Z</time>
      </trkpt>
      <trkpt lat="43.6797" lon="1.30631">
        <ele>161.8</ele>
        <time>2025-10-18T07:53:31Z</time>
      </trkpt>
      <trkpt lat="43.67975" lon="1.30627">
        <ele>161.8</ele>
        <time>2025-10-18T07:53:32Z</time>
      </trkpt>
      <trkpt lat="43.6798" lon="1.30623">
        <ele>161.8</ele>
        <time>2025-10-18T07:53:33Z</time>
      </trkpt>
      <trkpt lat="43.67985" lon="1.30619">
        <ele>162</ele>
        <time>2025-10-18T07:53:34Z</time>
      </trkpt>
      <trkpt lat="43.67989" lon="1.30615">
        <ele>162.2</ele>
        <time>2025-10-18T07:53:35Z</time>
      </trkpt>
      <trkpt lat="43.67994" lon="1.30611">
        <ele>162.4</ele>
        <time>2025-10-18T07:53:36Z</time>
      </trkpt>
      <trkpt lat="43.67998" lon="1.30608">
        <ele>162.6</ele>
        <time>2025-10-18T07:53:37Z</time>
      </trkpt>
      <trkpt lat="43.68003" lon="1.30604">
        <ele>162.8</ele>
        <time>2025-10-18T07:53:38Z</time>
      </trkpt>
      <trkpt lat="43.68008" lon="1.306">
        <ele>163.2</ele>
        <time>2025-10-18T07:53:39Z</time>
      </trkpt>
      <trkpt lat="43.68012" lon="1.30596">
        <ele>163.6</ele>
        <time>2025-10-18T07:53:40Z</time>
      </trkpt>
      <trkpt lat="43.68016" lon="1.30593">
        <ele>163.8</ele>
        <time>2025-10-18T07:53:41Z</time>
      </trkpt>
      <trkpt lat="43.6802" lon="1.30591">
        <ele>164</ele>
        <time>2025-10-18T07:53:42Z</time>
      </trkpt>
      <trkpt lat="43.68024" lon="1.30589">
        <ele>164.4</ele>
        <time>2025-10-18T07:53:43Z</time>
      </trkpt>
      <trkpt lat="43.68027" lon="1.30588">
        <ele>164.4</ele>
        <time>2025-10-18T07:53:44Z</time>
      </trkpt>
      <trkpt lat="43.68029" lon="1.30588">
        <ele>165</ele>
        <time>2025-10-18T07:53:45Z</time>
      </trkpt>
      <trkpt lat="43.68033" lon="1.3059">
        <ele>165.2</ele>
        <time>2025-10-18T07:53:46Z</time>
      </trkpt>
      <trkpt lat="43.68036" lon="1.3059">
        <ele>165.4</ele>
        <time>2025-10-18T07:53:47Z</time>
      </trkpt>
      <trkpt lat="43.68041" lon="1.30589">
        <ele>165.6</ele>
        <time>2025-10-18T07:53:48Z</time>
      </trkpt>
      <trkpt lat="43.68045" lon="1.30587">
        <ele>165.8</ele>
        <time>2025-10-18T07:53:49Z</time>
      </trkpt>
      <trkpt lat="43.6805" lon="1.30583">
        <ele>165.8</ele>
        <time>2025-10-18T07:53:50Z</time>
      </trkpt>
      <trkpt lat="43.68054" lon="1.3058">
        <ele>166</ele>
        <time>2025-10-18T07:53:51Z</time>
      </trkpt>
      <trkpt lat="43.68059" lon="1.30577">
        <ele>166</ele>
        <time>2025-10-18T07:53:52Z</time>
      </trkpt>
      <trkpt lat="43.68063" lon="1.30574">
        <ele>166.2</ele>
        <time>2025-10-18T07:53:53Z</time>
      </trkpt>
      <trkpt lat="43.68068" lon="1.30571">
        <ele>166.2</ele>
        <time>2025-10-18T07:53:54Z</time>
      </trkpt>
      <trkpt lat="43.68073" lon="1.30568">
        <ele>166.4</ele>
        <time>2025-10-18T07:53:55Z</time>
      </trkpt>
      <trkpt lat="43.68078" lon="1.30564">
        <ele>166.4</ele>
        <time>2025-10-18T07:53:56Z</time>
      </trkpt>
      <trkpt lat="43.68082" lon="1.3056">
        <ele>166.6</ele>
        <time>2025-10-18T07:53:57Z</time>
      </trkpt>
      <trkpt lat="43.68087" lon="1.30557">
        <ele>166.6</ele>
        <time>2025-10-18T07:53:58Z</time>
      </trkpt>
      <trkpt lat="43.68092" lon="1.30554">
        <ele>166.6</ele>
        <time>2025-10-18T07:53:59Z</time>
      </trkpt>
      <trkpt lat="43.68097" lon="1.3055">
        <ele>166.8</ele>
        <time>2025-10-18T07:54:00Z</time>
      </trkpt>
      <trkpt lat="43.68102" lon="1.30547">
        <ele>166.8</ele>
        <time>2025-10-18T07:54:01Z</time>
      </trkpt>
      <trkpt lat="43.68107" lon="1.30543">
        <ele>166.8</ele>
        <time>2025-10-18T07:54:02Z</time>
      </trkpt>
      <trkpt lat="43.68112" lon="1.30539">
        <ele>167</ele>
        <time>2025-10-18T07:54:03Z</time>
      </trkpt>
      <trkpt lat="43.68117" lon="1.30535">
        <ele>167.2</ele>
        <time>2025-10-18T07:54:04Z</time>
      </trkpt>
      <trkpt lat="43.68123" lon="1.30531">
        <ele>167.2</ele>
        <time>2025-10-18T07:54:05Z</time>
      </trkpt>
      <trkpt lat="43.68129" lon="1.30527">
        <ele>167.2</ele>
        <time>2025-10-18T07:54:06Z</time>
      </trkpt>
      <trkpt lat="43.68134" lon="1.30522">
        <ele>167.2</ele>
        <time>2025-10-18T07:54:07Z</time>
      </trkpt>
      <trkpt lat="43.6814" lon="1.30518">
        <ele>167.2</ele>
        <time>2025-10-18T07:54:08Z</time>
      </trkpt>
      <trkpt lat="43.68146" lon="1.30513">
        <ele>167.2</ele>
        <time>2025-10-18T07:54:09Z</time>
      </trkpt>
      <trkpt lat="43.68152" lon="1.30509">
        <ele>167.4</ele>
        <time>2025-10-18T07:54:10Z</time>
      </trkpt>
      <trkpt lat="43.68157" lon="1.30505">
        <ele>167.4</ele>
        <time>2025-10-18T07:54:11Z</time>
      </trkpt>
      <trkpt lat="43.68163" lon="1.305">
        <ele>167.6</ele>
        <time>2025-10-18T07:54:12Z</time>
      </trkpt>
      <trkpt lat="43.68169" lon="1.30496">
        <ele>167.6</ele>
        <time>2025-10-18T07:54:13Z</time>
      </trkpt>
      <trkpt lat="43.68175" lon="1.30492">
        <ele>167.6</ele>
        <time>2025-10-18T07:54:14Z</time>
      </trkpt>
      <trkpt lat="43.6818" lon="1.30487">
        <ele>167.8</ele>
        <time>2025-10-18T07:54:15Z</time>
      </trkpt>
      <trkpt lat="43.68186" lon="1.30483">
        <ele>168</ele>
        <time>2025-10-18T07:54:16Z</time>
      </trkpt>
      <trkpt lat="43.68192" lon="1.30479">
        <ele>168</ele>
        <time>2025-10-18T07:54:17Z</time>
      </trkpt>
      <trkpt lat="43.68197" lon="1.30475">
        <ele>168</ele>
        <time>2025-10-18T07:54:18Z</time>
      </trkpt>
      <trkpt lat="43.68203" lon="1.3047">
        <ele>168</ele>
        <time>2025-10-18T07:54:19Z</time>
      </trkpt>
      <trkpt lat="43.68209" lon="1.30466">
        <ele>168</ele>
        <time>2025-10-18T07:54:20Z</time>
      </trkpt>
      <trkpt lat="43.68215" lon="1.30462">
        <ele>168</ele>
        <time>2025-10-18T07:54:21Z</time>
      </trkpt>
      <trkpt lat="43.6822" lon="1.30458">
        <ele>168</ele>
        <time>2025-10-18T07:54:22Z</time>
      </trkpt>
      <trkpt lat="43.68226" lon="1.30454">
        <ele>168</ele>
        <time>2025-10-18T07:54:23Z</time>
      </trkpt>
      <trkpt lat="43.68231" lon="1.3045">
        <ele>168</ele>
        <time>2025-10-18T07:54:24Z</time>
      </trkpt>
      <trkpt lat="43.68236" lon="1.30447">
        <ele>168</ele>
        <time>2025-10-18T07:54:25Z</time>
      </trkpt>
      <trkpt lat="43.68241" lon="1.30444">
        <ele>168.2</ele>
        <time>2025-10-18T07:54:26Z</time>
      </trkpt>
      <trkpt lat="43.68245" lon="1.30441">
        <ele>168.2</ele>
        <time>2025-10-18T07:54:27Z</time>
      </trkpt>
      <trkpt lat="43.6825" lon="1.30438">
        <ele>168.2</ele>
        <time>2025-10-18T07:54:28Z</time>
      </trkpt>
      <trkpt lat="43.68254" lon="1.30435">
        <ele>168</ele>
        <time>2025-10-18T07:54:29Z</time>
      </trkpt>
      <trkpt lat="43.68257" lon="1.30433">
        <ele>168</ele>
        <time>2025-10-18T07:54:30Z</time>
      </trkpt>
      <trkpt lat="43.6826" lon="1.30431">
        <ele>168</ele>
        <time>2025-10-18T07:54:31Z</time>
      </trkpt>
      <trkpt lat="43.68263" lon="1.30429">
        <ele>168</ele>
        <time>2025-10-18T07:54:32Z</time>
      </trkpt>
      <trkpt lat="43.68267" lon="1.30428">
        <ele>168</ele>
        <time>2025-10-18T07:54:33Z</time>
      </trkpt>
      <trkpt lat="43.6827" lon="1.30425">
        <ele>168</ele>
        <time>2025-10-18T07:54:34Z</time>
      </trkpt>
      <trkpt lat="43.68274" lon="1.3042">
        <ele>167.8</ele>
        <time>2025-10-18T07:54:35Z</time>
      </trkpt>
      <trkpt lat="43.68276" lon="1.30413">
        <ele>167.8</ele>
        <time>2025-10-18T07:54:36Z</time>
      </trkpt>
      <trkpt lat="43.68277" lon="1.30407">
        <ele>167.6</ele>
        <time>2025-10-18T07:54:37Z</time>
      </trkpt>
      <trkpt lat="43.68278" lon="1.304">
        <ele>167.6</ele>
        <time>2025-10-18T07:54:38Z</time>
      </trkpt>
      <trkpt lat="43.68278" lon="1.30392">
        <ele>167.6</ele>
        <time>2025-10-18T07:54:39Z</time>
      </trkpt>
      <trkpt lat="43.68278" lon="1.30383">
        <ele>167.6</ele>
        <time>2025-10-18T07:54:40Z</time>
      </trkpt>
      <trkpt lat="43.68278" lon="1.30375">
        <ele>167.6</ele>
        <time>2025-10-18T07:54:41Z</time>
      </trkpt>
      <trkpt lat="43.68278" lon="1.30366">
        <ele>167.6</ele>
        <time>2025-10-18T07:54:42Z</time>
      </trkpt>
      <trkpt lat="43.68278" lon="1.30357">
        <ele>167.6</ele>
        <time>2025-10-18T07:54:43Z</time>
      </trkpt>
      <trkpt lat="43.68278" lon="1.30348">
        <ele>167.6</ele>
        <time>2025-10-18T07:54:44Z</time>
      </trkpt>
      <trkpt lat="43.68278" lon="1.30338">
        <ele>167.8</ele>
        <time>2025-10-18T07:54:45Z</time>
      </trkpt>
      <trkpt lat="43.68277" lon="1.30329">
        <ele>167.8</ele>
        <time>2025-10-18T07:54:46Z</time>
      </trkpt>
      <trkpt lat="43.68277" lon="1.3032">
        <ele>167.8</ele>
        <time>2025-10-18T07:54:47Z</time>
      </trkpt>
      <trkpt lat="43.68277" lon="1.30311">
        <ele>168</ele>
        <time>2025-10-18T07:54:48Z</time>
      </trkpt>
      <trkpt lat="43.68276" lon="1.30302">
        <ele>168</ele>
        <time>2025-10-18T07:54:49Z</time>
      </trkpt>
      <trkpt lat="43.68276" lon="1.30293">
        <ele>168</ele>
        <time>2025-10-18T07:54:50Z</time>
      </trkpt>
      <trkpt lat="43.68276" lon="1.30284">
        <ele>168.2</ele>
        <time>2025-10-18T07:54:51Z</time>
      </trkpt>
      <trkpt lat="43.68276" lon="1.30274">
        <ele>168.2</ele>
        <time>2025-10-18T07:54:52Z</time>
      </trkpt>
      <trkpt lat="43.68276" lon="1.30264">
        <ele>168.2</ele>
        <time>2025-10-18T07:54:53Z</time>
      </trkpt>
      <trkpt lat="43.68276" lon="1.30255">
        <ele>168.2</ele>
        <time>2025-10-18T07:54:54Z</time>
      </trkpt>
      <trkpt lat="43.68275" lon="1.30245">
        <ele>168.2</ele>
        <time>2025-10-18T07:54:55Z</time>
      </trkpt>
      <trkpt lat="43.68275" lon="1.30236">
        <ele>168.4</ele>
        <time>2025-10-18T07:54:56Z</time>
      </trkpt>
      <trkpt lat="43.68274" lon="1.30226">
        <ele>168.4</ele>
        <time>2025-10-18T07:54:57Z</time>
      </trkpt>
      <trkpt lat="43.68274" lon="1.30216">
        <ele>168.6</ele>
        <time>2025-10-18T07:54:58Z</time>
      </trkpt>
      <trkpt lat="43.68274" lon="1.30207">
        <ele>168.8</ele>
        <time>2025-10-18T07:54:59Z</time>
      </trkpt>
      <trkpt lat="43.68273" lon="1.30197">
        <ele>168.8</ele>
        <time>2025-10-18T07:55:00Z</time>
      </trkpt>
      <trkpt lat="43.68273" lon="1.30188">
        <ele>169</ele>
        <time>2025-10-18T07:55:01Z</time>
      </trkpt>
      <trkpt lat="43.68273" lon="1.30178">
        <ele>169</ele>
        <time>2025-10-18T07:55:02Z</time>
      </trkpt>
      <trkpt lat="43.68272" lon="1.30169">
        <ele>169.2</ele>
        <time>2025-10-18T07:55:03Z</time>
      </trkpt>
      <trkpt lat="43.68272" lon="1.3016">
        <ele>169.4</ele>
        <time>2025-10-18T07:55:04Z</time>
      </trkpt>
      <trkpt lat="43.68272" lon="1.30152">
        <ele>169.4</ele>
        <time>2025-10-18T07:55:05Z</time>
      </trkpt>
      <trkpt lat="43.68272" lon="1.30143">
        <ele>169.6</ele>
        <time>2025-10-18T07:55:06Z</time>
      </trkpt>
      <trkpt lat="43.68272" lon="1.30134">
        <ele>169.6</ele>
        <time>2025-10-18T07:55:07Z</time>
      </trkpt>
      <trkpt lat="43.68271" lon="1.30125">
        <ele>169.8</ele>
        <time>2025-10-18T07:55:08Z</time>
      </trkpt>
      <trkpt lat="43.68271" lon="1.30116">
        <ele>170</ele>
        <time>2025-10-18T07:55:09Z</time>
      </trkpt>
      <trkpt lat="43.6827" lon="1.30107">
        <ele>170</ele>
        <time>2025-10-18T07:55:10Z</time>
      </trkpt>
      <trkpt lat="43.6827" lon="1.30097">
        <ele>170.2</ele>
        <time>2025-10-18T07:55:11Z</time>
      </trkpt>
      <trkpt lat="43.6827" lon="1.30089">
        <ele>170.4</ele>
        <time>2025-10-18T07:55:12Z</time>
      </trkpt>
      <trkpt lat="43.6827" lon="1.30079">
        <ele>170.4</ele>
        <time>2025-10-18T07:55:13Z</time>
      </trkpt>
      <trkpt lat="43.68269" lon="1.30069">
        <ele>170.6</ele>
        <time>2025-10-18T07:55:14Z</time>
      </trkpt>
      <trkpt lat="43.68269" lon="1.3006">
        <ele>170.6</ele>
        <time>2025-10-18T07:55:15Z</time>
      </trkpt>
      <trkpt lat="43.68269" lon="1.3005">
        <ele>170.8</ele>
        <time>2025-10-18T07:55:16Z</time>
      </trkpt>
      <trkpt lat="43.68268" lon="1.3004">
        <ele>171</ele>
        <time>2025-10-18T07:55:17Z</time>
      </trkpt>
      <trkpt lat="43.68268" lon="1.3003">
        <ele>171.2</ele>
        <time>2025-10-18T07:55:18Z</time>
      </trkpt>
      <trkpt lat="43.68268" lon="1.3002">
        <ele>171.4</ele>
        <time>2025-10-18T07:55:19Z</time>
      </trkpt>
      <trkpt lat="43.68268" lon="1.3001">
        <ele>171.8</ele>
        <time>2025-10-18T07:55:20Z</time>
      </trkpt>
      <trkpt lat="43.68269" lon="1.30001">
        <ele>172</ele>
        <time>2025-10-18T07:55:21Z</time>
      </trkpt>
      <trkpt lat="43.6827" lon="1.29991">
        <ele>172.2</ele>
        <time>2025-10-18T07:55:22Z</time>
      </trkpt>
      <trkpt lat="43.68271" lon="1.29982">
        <ele>172.6</ele>
        <time>2025-10-18T07:55:23Z</time>
      </trkpt>
      <trkpt lat="43.68272" lon="1.29973">
        <ele>173</ele>
        <time>2025-10-18T07:55:24Z</time>
      </trkpt>
      <trkpt lat="43.68273" lon="1.29963">
        <ele>173.4</ele>
        <time>2025-10-18T07:55:25Z</time>
      </trkpt>
      <trkpt lat="43.68274" lon="1.29954">
        <ele>173.8</ele>
        <time>2025-10-18T07:55:26Z</time>
      </trkpt>
      <trkpt lat="43.68276" lon="1.29945">
        <ele>174.2</ele>
        <time>2025-10-18T07:55:27Z</time>
      </trkpt>
      <trkpt lat="43.68277" lon="1.29936">
        <ele>174.6</ele>
        <time>2025-10-18T07:55:28Z</time>
      </trkpt>
      <trkpt lat="43.68278" lon="1.29927">
        <ele>175</ele>
        <time>2025-10-18T07:55:29Z</time>
      </trkpt>
      <trkpt lat="43.68279" lon="1.29917">
        <ele>175.6</ele>
        <time>2025-10-18T07:55:30Z</time>
      </trkpt>
      <trkpt lat="43.6828" lon="1.29907">
        <ele>175.8</ele>
        <time>2025-10-18T07:55:31Z</time>
      </trkpt>
      <trkpt lat="43.68281" lon="1.29897">
        <ele>176</ele>
        <time>2025-10-18T07:55:32Z</time>
      </trkpt>
      <trkpt lat="43.68282" lon="1.29887">
        <ele>176.2</ele>
        <time>2025-10-18T07:55:33Z</time>
      </trkpt>
      <trkpt lat="43.68284" lon="1.29876">
        <ele>176.4</ele>
        <time>2025-10-18T07:55:34Z</time>
      </trkpt>
      <trkpt lat="43.68285" lon="1.29866">
        <ele>176.6</ele>
        <time>2025-10-18T07:55:35Z</time>
      </trkpt>
      <trkpt lat="43.68286" lon="1.29856">
        <ele>176.8</ele>
        <time>2025-10-18T07:55:36Z</time>
      </trkpt>
      <trkpt lat="43.68287" lon="1.29846">
        <ele>177</ele>
        <time>2025-10-18T07:55:37Z</time>
      </trkpt>
      <trkpt lat="43.68288" lon="1.29836">
        <ele>177.2</ele>
        <time>2025-10-18T07:55:38Z</time>
      </trkpt>
      <trkpt lat="43.6829" lon="1.29826">
        <ele>177.4</ele>
        <time>2025-10-18T07:55:39Z</time>
      </trkpt>
      <trkpt lat="43.68291" lon="1.29817">
        <ele>177.4</ele>
        <time>2025-10-18T07:55:40Z</time>
      </trkpt>
      <trkpt lat="43.68292" lon="1.29807">
        <ele>177.6</ele>
        <time>2025-10-18T07:55:41Z</time>
      </trkpt>
      <trkpt lat="43.68293" lon="1.29797">
        <ele>177.8</ele>
        <time>2025-10-18T07:55:42Z</time>
      </trkpt>
      <trkpt lat="43.68295" lon="1.29787">
        <ele>177.8</ele>
        <time>2025-10-18T07:55:43Z</time>
      </trkpt>
      <trkpt lat="43.68296" lon="1.29777">
        <ele>178</ele>
        <time>2025-10-18T07:55:44Z</time>
      </trkpt>
      <trkpt lat="43.68297" lon="1.29767">
        <ele>178</ele>
        <time>2025-10-18T07:55:45Z</time>
      </trkpt>
      <trkpt lat="43.68298" lon="1.29757">
        <ele>178.2</ele>
        <time>2025-10-18T07:55:46Z</time>
      </trkpt>
      <trkpt lat="43.68299" lon="1.29747">
        <ele>178.2</ele>
        <time>2025-10-18T07:55:47Z</time>
      </trkpt>
      <trkpt lat="43.68301" lon="1.29736">
        <ele>178.2</ele>
        <time>2025-10-18T07:55:48Z</time>
      </trkpt>
      <trkpt lat="43.68302" lon="1.29726">
        <ele>178.4</ele>
        <time>2025-10-18T07:55:49Z</time>
      </trkpt>
      <trkpt lat="43.68304" lon="1.29716">
        <ele>178.4</ele>
        <time>2025-10-18T07:55:50Z</time>
      </trkpt>
      <trkpt lat="43.68305" lon="1.29706">
        <ele>178.4</ele>
        <time>2025-10-18T07:55:51Z</time>
      </trkpt>
      <trkpt lat="43.68306" lon="1.29696">
        <ele>178.4</ele>
        <time>2025-10-18T07:55:52Z</time>
      </trkpt>
      <trkpt lat="43.68307" lon="1.29687">
        <ele>178.4</ele>
        <time>2025-10-18T07:55:53Z</time>
      </trkpt>
      <trkpt lat="43.68308" lon="1.29678">
        <ele>178.4</ele>
        <time>2025-10-18T07:55:54Z</time>
      </trkpt>
      <trkpt lat="43.6831" lon="1.29669">
        <ele>178.4</ele>
        <time>2025-10-18T07:55:55Z</time>
      </trkpt>
      <trkpt lat="43.68311" lon="1.29659">
        <ele>178.4</ele>
        <time>2025-10-18T07:55:56Z</time>
      </trkpt>
      <trkpt lat="43.68312" lon="1.29649">
        <ele>178.4</ele>
        <time>2025-10-18T07:55:57Z</time>
      </trkpt>
      <trkpt lat="43.68313" lon="1.29639">
        <ele>178.4</ele>
        <time>2025-10-18T07:55:58Z</time>
      </trkpt>
      <trkpt lat="43.68315" lon="1.29629">
        <ele>178.4</ele>
        <time>2025-10-18T07:55:59Z</time>
      </trkpt>
      <trkpt lat="43.68316" lon="1.2962">
        <ele>178.4</ele>
        <time>2025-10-18T07:56:00Z</time>
      </trkpt>
      <trkpt lat="43.68318" lon="1.2961">
        <ele>178.4</ele>
        <time>2025-10-18T07:56:01Z</time>
      </trkpt>
      <trkpt lat="43.68319" lon="1.29601">
        <ele>178.4</ele>
        <time>2025-10-18T07:56:02Z</time>
      </trkpt>
      <trkpt lat="43.6832" lon="1.29592">
        <ele>178.4</ele>
        <time>2025-10-18T07:56:03Z</time>
      </trkpt>
      <trkpt lat="43.68321" lon="1.29582">
        <ele>178.4</ele>
        <time>2025-10-18T07:56:04Z</time>
      </trkpt>
      <trkpt lat="43.68323" lon="1.29571">
        <ele>178.4</ele>
        <time>2025-10-18T07:56:05Z</time>
      </trkpt>
      <trkpt lat="43.68324" lon="1.29561">
        <ele>178.4</ele>
        <time>2025-10-18T07:56:06Z</time>
      </trkpt>
      <trkpt lat="43.68325" lon="1.29551">
        <ele>178.4</ele>
        <time>2025-10-18T07:56:07Z</time>
      </trkpt>
      <trkpt lat="43.68326" lon="1.2954">
        <ele>178.2</ele>
        <time>2025-10-18T07:56:08Z</time>
      </trkpt>
      <trkpt lat="43.68328" lon="1.2953">
        <ele>178.2</ele>
        <time>2025-10-18T07:56:09Z</time>
      </trkpt>
      <trkpt lat="43.68329" lon="1.29519">
        <ele>178.2</ele>
        <time>2025-10-18T07:56:10Z</time>
      </trkpt>
      <trkpt lat="43.6833" lon="1.29509">
        <ele>178</ele>
        <time>2025-10-18T07:56:11Z</time>
      </trkpt>
      <trkpt lat="43.68332" lon="1.29499">
        <ele>178.2</ele>
        <time>2025-10-18T07:56:12Z</time>
      </trkpt>
      <trkpt lat="43.68334" lon="1.29489">
        <ele>178.2</ele>
        <time>2025-10-18T07:56:13Z</time>
      </trkpt>
      <trkpt lat="43.68335" lon="1.2948">
        <ele>178.2</ele>
        <time>2025-10-18T07:56:14Z</time>
      </trkpt>
      <trkpt lat="43.68337" lon="1.29471">
        <ele>178.2</ele>
        <time>2025-10-18T07:56:15Z</time>
      </trkpt>
      <trkpt lat="43.68339" lon="1.29463">
        <ele>178.4</ele>
        <time>2025-10-18T07:56:16Z</time>
      </trkpt>
      <trkpt lat="43.68341" lon="1.29456">
        <ele>178.4</ele>
        <time>2025-10-18T07:56:17Z</time>
      </trkpt>
      <trkpt lat="43.68343" lon="1.29449">
        <ele>178.6</ele>
        <time>2025-10-18T07:56:18Z</time>
      </trkpt>
      <trkpt lat="43.68345" lon="1.29442">
        <ele>178.6</ele>
        <time>2025-10-18T07:56:19Z</time>
      </trkpt>
      <trkpt lat="43.68346" lon="1.29436">
        <ele>178.8</ele>
        <time>2025-10-18T07:56:20Z</time>
      </trkpt>
      <trkpt lat="43.68345" lon="1.29431">
        <ele>178.8</ele>
        <time>2025-10-18T07:56:21Z</time>
      </trkpt>
      <trkpt lat="43.68342" lon="1.29427">
        <ele>178.8</ele>
        <time>2025-10-18T07:56:22Z</time>
      </trkpt>
      <trkpt lat="43.68338" lon="1.29426">
        <ele>179</ele>
        <time>2025-10-18T07:56:23Z</time>
      </trkpt>
      <trkpt lat="43.68334" lon="1.29426">
        <ele>179</ele>
        <time>2025-10-18T07:56:24Z</time>
      </trkpt>
      <trkpt lat="43.68329" lon="1.29425">
        <ele>179</ele>
        <time>2025-10-18T07:56:25Z</time>
      </trkpt>
      <trkpt lat="43.68324" lon="1.29424">
        <ele>179</ele>
        <time>2025-10-18T07:56:26Z</time>
      </trkpt>
      <trkpt lat="43.68318" lon="1.29422">
        <ele>179.2</ele>
        <time>2025-10-18T07:56:27Z</time>
      </trkpt>
      <trkpt lat="43.68312" lon="1.29421">
        <ele>179</ele>
        <time>2025-10-18T07:56:28Z</time>
      </trkpt>
      <trkpt lat="43.68306" lon="1.2942">
        <ele>179</ele>
        <time>2025-10-18T07:56:29Z</time>
      </trkpt>
      <trkpt lat="43.68299" lon="1.2942">
        <ele>179</ele>
        <time>2025-10-18T07:56:30Z</time>
      </trkpt>
      <trkpt lat="43.68292" lon="1.2942">
        <ele>178.8</ele>
        <time>2025-10-18T07:56:31Z</time>
      </trkpt>
      <trkpt lat="43.68284" lon="1.29419">
        <ele>178.6</ele>
        <time>2025-10-18T07:56:32Z</time>
      </trkpt>
      <trkpt lat="43.68277" lon="1.29417">
        <ele>178.4</ele>
        <time>2025-10-18T07:56:33Z</time>
      </trkpt>
      <trkpt lat="43.6827" lon="1.29416">
        <ele>178.4</ele>
        <time>2025-10-18T07:56:34Z</time>
      </trkpt>
      <trkpt lat="43.68262" lon="1.29414">
        <ele>178.2</ele>
        <time>2025-10-18T07:56:35Z</time>
      </trkpt>
      <trkpt lat="43.68255" lon="1.29413">
        <ele>178.2</ele>
        <time>2025-10-18T07:56:36Z</time>
      </trkpt>
      <trkpt lat="43.68247" lon="1.29411">
        <ele>178</ele>
        <time>2025-10-18T07:56:37Z</time>
      </trkpt>
      <trkpt lat="43.68239" lon="1.29409">
        <ele>178</ele>
        <time>2025-10-18T07:56:38Z</time>
      </trkpt>
      <trkpt lat="43.68232" lon="1.29407">
        <ele>178</ele>
        <time>2025-10-18T07:56:39Z</time>
      </trkpt>
      <trkpt lat="43.68224" lon="1.29406">
        <ele>178</ele>
        <time>2025-10-18T07:56:40Z</time>
      </trkpt>
      <trkpt lat="43.68217" lon="1.29405">
        <ele>178.2</ele>
        <time>2025-10-18T07:56:41Z</time>
      </trkpt>
      <trkpt lat="43.6821" lon="1.29404">
        <ele>178.4</ele>
        <time>2025-10-18T07:56:42Z</time>
      </trkpt>
      <trkpt lat="43.68203" lon="1.29403">
        <ele>178.4</ele>
        <time>2025-10-18T07:56:43Z</time>
      </trkpt>
      <trkpt lat="43.68195" lon="1.29402">
        <ele>178.4</ele>
        <time>2025-10-18T07:56:44Z</time>
      </trkpt>
      <trkpt lat="43.68188" lon="1.294">
        <ele>178.4</ele>
        <time>2025-10-18T07:56:45Z</time>
      </trkpt>
      <trkpt lat="43.68181" lon="1.29398">
        <ele>178.2</ele>
        <time>2025-10-18T07:56:46Z</time>
      </trkpt>
      <trkpt lat="43.68173" lon="1.29397">
        <ele>178.2</ele>
        <time>2025-10-18T07:56:47Z</time>
      </trkpt>
      <trkpt lat="43.68166" lon="1.29395">
        <ele>178</ele>
        <time>2025-10-18T07:56:48Z</time>
      </trkpt>
      <trkpt lat="43.68159" lon="1.29394">
        <ele>178.2</ele>
        <time>2025-10-18T07:56:49Z</time>
      </trkpt>
      <trkpt lat="43.68152" lon="1.29392">
        <ele>178.2</ele>
        <time>2025-10-18T07:56:50Z</time>
      </trkpt>
      <trkpt lat="43.68145" lon="1.29391">
        <ele>178.4</ele>
        <time>2025-10-18T07:56:51Z</time>
      </trkpt>
      <trkpt lat="43.68139" lon="1.2939">
        <ele>178.4</ele>
        <time>2025-10-18T07:56:52Z</time>
      </trkpt>
      <trkpt lat="43.68132" lon="1.29388">
        <ele>178.6</ele>
        <time>2025-10-18T07:56:53Z</time>
      </trkpt>
      <trkpt lat="43.68126" lon="1.29387">
        <ele>178.6</ele>
        <time>2025-10-18T07:56:54Z</time>
      </trkpt>
      <trkpt lat="43.6812" lon="1.29387">
        <ele>178.6</ele>
        <time>2025-10-18T07:56:55Z</time>
      </trkpt>
      <trkpt lat="43.68113" lon="1.29385">
        <ele>178.6</ele>
        <time>2025-10-18T07:56:56Z</time>
      </trkpt>
      <trkpt lat="43.68106" lon="1.29384">
        <ele>178.6</ele>
        <time>2025-10-18T07:56:57Z</time>
      </trkpt>
      <trkpt lat="43.68099" lon="1.29384">
        <ele>178.4</ele>
        <time>2025-10-18T07:56:58Z</time>
      </trkpt>
      <trkpt lat="43.68092" lon="1.29383">
        <ele>178.4</ele>
        <time>2025-10-18T07:56:59Z</time>
      </trkpt>
      <trkpt lat="43.68085" lon="1.29384">
        <ele>178.4</ele>
        <time>2025-10-18T07:57:00Z</time>
      </trkpt>
      <trkpt lat="43.68078" lon="1.29384">
        <ele>178.2</ele>
        <time>2025-10-18T07:57:01Z</time>
      </trkpt>
      <trkpt lat="43.68071" lon="1.29385">
        <ele>178.2</ele>
        <time>2025-10-18T07:57:02Z</time>
      </trkpt>
      <trkpt lat="43.68064" lon="1.29386">
        <ele>178</ele>
        <time>2025-10-18T07:57:03Z</time>
      </trkpt>
      <trkpt lat="43.68057" lon="1.29387">
        <ele>178.4</ele>
        <time>2025-10-18T07:57:04Z</time>
      </trkpt>
      <trkpt lat="43.6805" lon="1.29388">
        <ele>178.4</ele>
        <time>2025-10-18T07:57:05Z</time>
      </trkpt>
      <trkpt lat="43.68043" lon="1.29389">
        <ele>178.4</ele>
        <time>2025-10-18T07:57:06Z</time>
      </trkpt>
      <trkpt lat="43.68036" lon="1.2939">
        <ele>178.6</ele>
        <time>2025-10-18T07:57:07Z</time>
      </trkpt>
      <trkpt lat="43.6803" lon="1.29392">
        <ele>178.6</ele>
        <time>2025-10-18T07:57:08Z</time>
      </trkpt>
      <trkpt lat="43.68023" lon="1.29393">
        <ele>178.4</ele>
        <time>2025-10-18T07:57:09Z</time>
      </trkpt>
      <trkpt lat="43.68016" lon="1.29394">
        <ele>178.4</ele>
        <time>2025-10-18T07:57:10Z</time>
      </trkpt>
      <trkpt lat="43.68009" lon="1.29395">
        <ele>178.4</ele>
        <time>2025-10-18T07:57:11Z</time>
      </trkpt>
      <trkpt lat="43.68002" lon="1.29396">
        <ele>178.4</ele>
        <time>2025-10-18T07:57:12Z</time>
      </trkpt>
      <trkpt lat="43.67995" lon="1.29397">
        <ele>178.6</ele>
        <time>2025-10-18T07:57:13Z</time>
      </trkpt>
      <trkpt lat="43.67988" lon="1.29398">
        <ele>178.4</ele>
        <time>2025-10-18T07:57:14Z</time>
      </trkpt>
      <trkpt lat="43.67981" lon="1.29399">
        <ele>178.6</ele>
        <time>2025-10-18T07:57:15Z</time>
      </trkpt>
      <trkpt lat="43.67974" lon="1.294">
        <ele>178.6</ele>
        <time>2025-10-18T07:57:16Z</time>
      </trkpt>
      <trkpt lat="43.67967" lon="1.29401">
        <ele>178.4</ele>
        <time>2025-10-18T07:57:17Z</time>
      </trkpt>
      <trkpt lat="43.6796" lon="1.29402">
        <ele>178.6</ele>
        <time>2025-10-18T07:57:18Z</time>
      </trkpt>
      <trkpt lat="43.67953" lon="1.29403">
        <ele>178.6</ele>
        <time>2025-10-18T07:57:19Z</time>
      </trkpt>
      <trkpt lat="43.67947" lon="1.29404">
        <ele>178.6</ele>
        <time>2025-10-18T07:57:20Z</time>
      </trkpt>
      <trkpt lat="43.6794" lon="1.29405">
        <ele>178.4</ele>
        <time>2025-10-18T07:57:21Z</time>
      </trkpt>
      <trkpt lat="43.67935" lon="1.29407">
        <ele>178.6</ele>
        <time>2025-10-18T07:57:22Z</time>
      </trkpt>
      <trkpt lat="43.67929" lon="1.29409">
        <ele>178.6</ele>
        <time>2025-10-18T07:57:23Z</time>
      </trkpt>
      <trkpt lat="43.67924" lon="1.29409">
        <ele>178.6</ele>
        <time>2025-10-18T07:57:24Z</time>
      </trkpt>
      <trkpt lat="43.67919" lon="1.29408">
        <ele>178.8</ele>
        <time>2025-10-18T07:57:25Z</time>
      </trkpt>
      <trkpt lat="43.67915" lon="1.29405">
        <ele>179</ele>
        <time>2025-10-18T07:57:26Z</time>
      </trkpt>
      <trkpt lat="43.67914" lon="1.294">
        <ele>179.2</ele>
        <time>2025-10-18T07:57:27Z</time>
      </trkpt>
      <trkpt lat="43.67914" lon="1.29395">
        <ele>179.2</ele>
        <time>2025-10-18T07:57:28Z</time>
      </trkpt>
      <trkpt lat="43.67915" lon="1.29388">
        <ele>179.4</ele>
        <time>2025-10-18T07:57:29Z</time>
      </trkpt>
      <trkpt lat="43.67915" lon="1.29381">
        <ele>179.4</ele>
        <time>2025-10-18T07:57:30Z</time>
      </trkpt>
      <trkpt lat="43.67913" lon="1.29374">
        <ele>179.4</ele>
        <time>2025-10-18T07:57:31Z</time>
      </trkpt>
      <trkpt lat="43.67912" lon="1.29366">
        <ele>179.4</ele>
        <time>2025-10-18T07:57:32Z</time>
      </trkpt>
      <trkpt lat="43.67911" lon="1.29357">
        <ele>179.4</ele>
        <time>2025-10-18T07:57:33Z</time>
      </trkpt>
      <trkpt lat="43.6791" lon="1.29348">
        <ele>179.2</ele>
        <time>2025-10-18T07:57:34Z</time>
      </trkpt>
      <trkpt lat="43.67908" lon="1.29339">
        <ele>179.2</ele>
        <time>2025-10-18T07:57:35Z</time>
      </trkpt>
      <trkpt lat="43.67906" lon="1.2933">
        <ele>179.4</ele>
        <time>2025-10-18T07:57:36Z</time>
      </trkpt>
      <trkpt lat="43.67904" lon="1.29321">
        <ele>179.4</ele>
        <time>2025-10-18T07:57:37Z</time>
      </trkpt>
      <trkpt lat="43.67902" lon="1.29312">
        <ele>179.2</ele>
        <time>2025-10-18T07:57:38Z</time>
      </trkpt>
      <trkpt lat="43.67899" lon="1.29303">
        <ele>179.2</ele>
        <time>2025-10-18T07:57:39Z</time>
      </trkpt>
      <trkpt lat="43.67897" lon="1.29293">
        <ele>179.2</ele>
        <time>2025-10-18T07:57:40Z</time>
      </trkpt>
      <trkpt lat="43.67895" lon="1.29285">
        <ele>179.2</ele>
        <time>2025-10-18T07:57:41Z</time>
      </trkpt>
      <trkpt lat="43.67893" lon="1.29276">
        <ele>179.2</ele>
        <time>2025-10-18T07:57:42Z</time>
      </trkpt>
      <trkpt lat="43.67891" lon="1.29267">
        <ele>179.2</ele>
        <time>2025-10-18T07:57:43Z</time>
      </trkpt>
      <trkpt lat="43.67889" lon="1.29258">
        <ele>179.2</ele>
        <time>2025-10-18T07:57:44Z</time>
      </trkpt>
      <trkpt lat="43.67887" lon="1.29249">
        <ele>179.2</ele>
        <time>2025-10-18T07:57:45Z</time>
      </trkpt>
      <trkpt lat="43.67885" lon="1.2924">
        <ele>179.2</ele>
        <time>2025-10-18T07:57:46Z</time>
      </trkpt>
      <trkpt lat="43.67883" lon="1.29231">
        <ele>179.2</ele>
        <time>2025-10-18T07:57:47Z</time>
      </trkpt>
      <trkpt lat="43.67881" lon="1.29222">
        <ele>179.2</ele>
        <time>2025-10-18T07:57:48Z</time>
      </trkpt>
      <trkpt lat="43.67878" lon="1.29213">
        <ele>179.4</ele>
        <time>2025-10-18T07:57:49Z</time>
      </trkpt>
      <trkpt lat="43.67876" lon="1.29203">
        <ele>179.2</ele>
        <time>2025-10-18T07:57:50Z</time>
      </trkpt>
      <trkpt lat="43.67875" lon="1.29195">
        <ele>179.4</ele>
        <time>2025-10-18T07:57:51Z</time>
      </trkpt>
      <trkpt lat="43.67873" lon="1.29185">
        <ele>179.4</ele>
        <time>2025-10-18T07:57:52Z</time>
      </trkpt>
      <trkpt lat="43.67871" lon="1.29176">
        <ele>179.4</ele>
        <time>2025-10-18T07:57:53Z</time>
      </trkpt>
      <trkpt lat="43.67869" lon="1.29167">
        <ele>179.4</ele>
        <time>2025-10-18T07:57:54Z</time>
      </trkpt>
      <trkpt lat="43.67866" lon="1.29158">
        <ele>179.4</ele>
        <time>2025-10-18T07:57:55Z</time>
      </trkpt>
      <trkpt lat="43.67864" lon="1.29149">
        <ele>179.6</ele>
        <time>2025-10-18T07:57:56Z</time>
      </trkpt>
      <trkpt lat="43.67862" lon="1.2914">
        <ele>179.6</ele>
        <time>2025-10-18T07:57:57Z</time>
      </trkpt>
      <trkpt lat="43.67861" lon="1.29131">
        <ele>179.8</ele>
        <time>2025-10-18T07:57:58Z</time>
      </trkpt>
      <trkpt lat="43.67859" lon="1.29122">
        <ele>179.8</ele>
        <time>2025-10-18T07:57:59Z</time>
      </trkpt>
      <trkpt lat="43.67856" lon="1.29113">
        <ele>179.8</ele>
        <time>2025-10-18T07:58:00Z</time>
      </trkpt>
      <trkpt lat="43.67854" lon="1.29103">
        <ele>179.8</ele>
        <time>2025-10-18T07:58:01Z</time>
      </trkpt>
      <trkpt lat="43.67852" lon="1.29095">
        <ele>179.8</ele>
        <time>2025-10-18T07:58:02Z</time>
      </trkpt>
      <trkpt lat="43.67851" lon="1.29086">
        <ele>179.8</ele>
        <time>2025-10-18T07:58:03Z</time>
      </trkpt>
      <trkpt lat="43.67849" lon="1.29077">
        <ele>179.8</ele>
        <time>2025-10-18T07:58:04Z</time>
      </trkpt>
      <trkpt lat="43.67847" lon="1.29068">
        <ele>179.8</ele>
        <time>2025-10-18T07:58:05Z</time>
      </trkpt>
      <trkpt lat="43.67845" lon="1.29059">
        <ele>179.8</ele>
        <time>2025-10-18T07:58:06Z</time>
      </trkpt>
      <trkpt lat="43.67843" lon="1.2905">
        <ele>179.8</ele>
        <time>2025-10-18T07:58:07Z</time>
      </trkpt>
      <trkpt lat="43.67841" lon="1.29041">
        <ele>179.8</ele>
        <time>2025-10-18T07:58:08Z</time>
      </trkpt>
      <trkpt lat="43.67839" lon="1.29031">
        <ele>179.8</ele>
        <time>2025-10-18T07:58:09Z</time>
      </trkpt>
      <trkpt lat="43.67837" lon="1.29022">
        <ele>180</ele>
        <time>2025-10-18T07:58:10Z</time>
      </trkpt>
      <trkpt lat="43.67835" lon="1.29013">
        <ele>180</ele>
        <time>2025-10-18T07:58:11Z</time>
      </trkpt>
      <trkpt lat="43.67833" lon="1.29003">
        <ele>180</ele>
        <time>2025-10-18T07:58:12Z</time>
      </trkpt>
      <trkpt lat="43.67831" lon="1.28994">
        <ele>180</ele>
        <time>2025-10-18T07:58:13Z</time>
      </trkpt>
      <trkpt lat="43.67829" lon="1.28986">
        <ele>180</ele>
        <time>2025-10-18T07:58:14Z</time>
      </trkpt>
      <trkpt lat="43.67827" lon="1.28977">
        <ele>180</ele>
        <time>2025-10-18T07:58:15Z</time>
      </trkpt>
      <trkpt lat="43.67825" lon="1.28968">
        <ele>180</ele>
        <time>2025-10-18T07:58:16Z</time>
      </trkpt>
      <trkpt lat="43.67823" lon="1.28958">
        <ele>180</ele>
        <time>2025-10-18T07:58:17Z</time>
      </trkpt>
      <trkpt lat="43.67821" lon="1.28948">
        <ele>180</ele>
        <time>2025-10-18T07:58:18Z</time>
      </trkpt>
      <trkpt lat="43.67819" lon="1.28939">
        <ele>180</ele>
        <time>2025-10-18T07:58:19Z</time>
      </trkpt>
      <trkpt lat="43.67817" lon="1.2893">
        <ele>180</ele>
        <time>2025-10-18T07:58:20Z</time>
      </trkpt>
      <trkpt lat="43.67815" lon="1.28921">
        <ele>180</ele>
        <time>2025-10-18T07:58:21Z</time>
      </trkpt>
      <trkpt lat="43.67813" lon="1.28911">
        <ele>180</ele>
        <time>2025-10-18T07:58:22Z</time>
      </trkpt>
      <trkpt lat="43.67812" lon="1.28902">
        <ele>180</ele>
        <time>2025-10-18T07:58:23Z</time>
      </trkpt>
      <trkpt lat="43.6781" lon="1.28893">
        <ele>180</ele>
        <time>2025-10-18T07:58:24Z</time>
      </trkpt>
      <trkpt lat="43.67808" lon="1.28884">
        <ele>180</ele>
        <time>2025-10-18T07:58:25Z</time>
      </trkpt>
      <trkpt lat="43.67806" lon="1.28875">
        <ele>180</ele>
        <time>2025-10-18T07:58:26Z</time>
      </trkpt>
      <trkpt lat="43.67804" lon="1.28867">
        <ele>179.8</ele>
        <time>2025-10-18T07:58:27Z</time>
      </trkpt>
      <trkpt lat="43.67802" lon="1.28858">
        <ele>179.8</ele>
        <time>2025-10-18T07:58:28Z</time>
      </trkpt>
      <trkpt lat="43.678" lon="1.28849">
        <ele>179.8</ele>
        <time>2025-10-18T07:58:29Z</time>
      </trkpt>
      <trkpt lat="43.67797" lon="1.2884">
        <ele>179.8</ele>
        <time>2025-10-18T07:58:30Z</time>
      </trkpt>
      <trkpt lat="43.67796" lon="1.28831">
        <ele>179.8</ele>
        <time>2025-10-18T07:58:31Z</time>
      </trkpt>
      <trkpt lat="43.67794" lon="1.28822">
        <ele>179.8</ele>
        <time>2025-10-18T07:58:32Z</time>
      </trkpt>
      <trkpt lat="43.67792" lon="1.28815">
        <ele>179.8</ele>
        <time>2025-10-18T07:58:33Z</time>
      </trkpt>
      <trkpt lat="43.6779" lon="1.28807">
        <ele>180</ele>
        <time>2025-10-18T07:58:34Z</time>
      </trkpt>
      <trkpt lat="43.67788" lon="1.288">
        <ele>180.2</ele>
        <time>2025-10-18T07:58:35Z</time>
      </trkpt>
      <trkpt lat="43.67786" lon="1.28794">
        <ele>180.2</ele>
        <time>2025-10-18T07:58:36Z</time>
      </trkpt>
      <trkpt lat="43.67785" lon="1.28788">
        <ele>180.2</ele>
        <time>2025-10-18T07:58:37Z</time>
      </trkpt>
      <trkpt lat="43.67784" lon="1.28783">
        <ele>180.4</ele>
        <time>2025-10-18T07:58:38Z</time>
      </trkpt>
      <trkpt lat="43.67785" lon="1.28779">
        <ele>180.4</ele>
        <time>2025-10-18T07:58:39Z</time>
      </trkpt>
      <trkpt lat="43.67788" lon="1.28775">
        <ele>180.4</ele>
        <time>2025-10-18T07:58:40Z</time>
      </trkpt>
      <trkpt lat="43.67791" lon="1.28771">
        <ele>180.6</ele>
        <time>2025-10-18T07:58:41Z</time>
      </trkpt>
      <trkpt lat="43.67795" lon="1.28767">
        <ele>180.6</ele>
        <time>2025-10-18T07:58:42Z</time>
      </trkpt>
      <trkpt lat="43.67799" lon="1.28763">
        <ele>180.6</ele>
        <time>2025-10-18T07:58:43Z</time>
      </trkpt>
      <trkpt lat="43.67803" lon="1.28758">
        <ele>180.8</ele>
        <time>2025-10-18T07:58:44Z</time>
      </trkpt>
      <trkpt lat="43.67807" lon="1.28753">
        <ele>180.8</ele>
        <time>2025-10-18T07:58:45Z</time>
      </trkpt>
      <trkpt lat="43.67811" lon="1.28747">
        <ele>180.8</ele>
        <time>2025-10-18T07:58:46Z</time>
      </trkpt>
      <trkpt lat="43.67816" lon="1.28741">
        <ele>180.6</ele>
        <time>2025-10-18T07:58:47Z</time>
      </trkpt>
      <trkpt lat="43.67821" lon="1.28734">
        <ele>180.6</ele>
        <time>2025-10-18T07:58:48Z</time>
      </trkpt>
      <trkpt lat="43.67827" lon="1.28728">
        <ele>180.6</ele>
        <time>2025-10-18T07:58:49Z</time>
      </trkpt>
      <trkpt lat="43.67832" lon="1.28722">
        <ele>180.6</ele>
        <time>2025-10-18T07:58:50Z</time>
      </trkpt>
      <trkpt lat="43.67838" lon="1.28717">
        <ele>180.8</ele>
        <time>2025-10-18T07:58:51Z</time>
      </trkpt>
      <trkpt lat="43.67844" lon="1.28712">
        <ele>180.8</ele>
        <time>2025-10-18T07:58:52Z</time>
      </trkpt>
      <trkpt lat="43.67849" lon="1.28707">
        <ele>180.6</ele>
        <time>2025-10-18T07:58:53Z</time>
      </trkpt>
      <trkpt lat="43.67854" lon="1.28701">
        <ele>180.8</ele>
        <time>2025-10-18T07:58:54Z</time>
      </trkpt>
      <trkpt lat="43.67858" lon="1.28695">
        <ele>180.8</ele>
        <time>2025-10-18T07:58:55Z</time>
      </trkpt>
      <trkpt lat="43.67863" lon="1.28689">
        <ele>180.6</ele>
        <time>2025-10-18T07:58:56Z</time>
      </trkpt>
      <trkpt lat="43.67867" lon="1.28683">
        <ele>180.6</ele>
        <time>2025-10-18T07:58:57Z</time>
      </trkpt>
      <trkpt lat="43.67872" lon="1.28678">
        <ele>180.6</ele>
        <time>2025-10-18T07:58:58Z</time>
      </trkpt>
      <trkpt lat="43.67877" lon="1.28674">
        <ele>180.6</ele>
        <time>2025-10-18T07:58:59Z</time>
      </trkpt>
      <trkpt lat="43.67882" lon="1.28668">
        <ele>180.6</ele>
        <time>2025-10-18T07:59:00Z</time>
      </trkpt>
      <trkpt lat="43.67887" lon="1.28663">
        <ele>180.6</ele>
        <time>2025-10-18T07:59:01Z</time>
      </trkpt>
      <trkpt lat="43.67892" lon="1.28657">
        <ele>180.4</ele>
        <time>2025-10-18T07:59:02Z</time>
      </trkpt>
      <trkpt lat="43.67897" lon="1.28651">
        <ele>180.6</ele>
        <time>2025-10-18T07:59:03Z</time>
      </trkpt>
      <trkpt lat="43.67902" lon="1.28646">
        <ele>180.4</ele>
        <time>2025-10-18T07:59:04Z</time>
      </trkpt>
      <trkpt lat="43.67907" lon="1.2864">
        <ele>180.2</ele>
        <time>2025-10-18T07:59:05Z</time>
      </trkpt>
      <trkpt lat="43.67912" lon="1.28635">
        <ele>180.2</ele>
        <time>2025-10-18T07:59:06Z</time>
      </trkpt>
      <trkpt lat="43.67917" lon="1.28629">
        <ele>180</ele>
        <time>2025-10-18T07:59:07Z</time>
      </trkpt>
      <trkpt lat="43.67922" lon="1.28623">
        <ele>180.2</ele>
        <time>2025-10-18T07:59:08Z</time>
      </trkpt>
      <trkpt lat="43.67928" lon="1.28618">
        <ele>180.2</ele>
        <time>2025-10-18T07:59:09Z</time>
      </trkpt>
      <trkpt lat="43.67934" lon="1.28613">
        <ele>180.2</ele>
        <time>2025-10-18T07:59:10Z</time>
      </trkpt>
      <trkpt lat="43.67938" lon="1.28609">
        <ele>180.4</ele>
        <time>2025-10-18T07:59:11Z</time>
      </trkpt>
      <trkpt lat="43.67943" lon="1.28604">
        <ele>180.4</ele>
        <time>2025-10-18T07:59:12Z</time>
      </trkpt>
      <trkpt lat="43.67948" lon="1.28599">
        <ele>180.2</ele>
        <time>2025-10-18T07:59:13Z</time>
      </trkpt>
      <trkpt lat="43.67953" lon="1.28595">
        <ele>180.2</ele>
        <time>2025-10-18T07:59:14Z</time>
      </trkpt>
      <trkpt lat="43.67957" lon="1.28589">
        <ele>180.2</ele>
        <time>2025-10-18T07:59:15Z</time>
      </trkpt>
      <trkpt lat="43.67961" lon="1.28583">
        <ele>180.2</ele>
        <time>2025-10-18T07:59:16Z</time>
      </trkpt>
      <trkpt lat="43.67966" lon="1.28578">
        <ele>180.2</ele>
        <time>2025-10-18T07:59:17Z</time>
      </trkpt>
      <trkpt lat="43.6797" lon="1.28572">
        <ele>180.4</ele>
        <time>2025-10-18T07:59:18Z</time>
      </trkpt>
      <trkpt lat="43.67975" lon="1.28565">
        <ele>180.4</ele>
        <time>2025-10-18T07:59:19Z</time>
      </trkpt>
      <trkpt lat="43.6798" lon="1.28559">
        <ele>180.4</ele>
        <time>2025-10-18T07:59:20Z</time>
      </trkpt>
      <trkpt lat="43.67984" lon="1.28552">
        <ele>180.6</ele>
        <time>2025-10-18T07:59:21Z</time>
      </trkpt>
      <trkpt lat="43.67989" lon="1.28545">
        <ele>180.6</ele>
        <time>2025-10-18T07:59:22Z</time>
      </trkpt>
      <trkpt lat="43.67994" lon="1.28539">
        <ele>180.4</ele>
        <time>2025-10-18T07:59:23Z</time>
      </trkpt>
      <trkpt lat="43.67999" lon="1.28533">
        <ele>180.2</ele>
        <time>2025-10-18T07:59:24Z</time>
      </trkpt>
      <trkpt lat="43.68003" lon="1.28526">
        <ele>180.2</ele>
        <time>2025-10-18T07:59:25Z</time>
      </trkpt>
      <trkpt lat="43.68008" lon="1.28519">
        <ele>180.2</ele>
        <time>2025-10-18T07:59:26Z</time>
      </trkpt>
      <trkpt lat="43.68012" lon="1.28511">
        <ele>180.2</ele>
        <time>2025-10-18T07:59:27Z</time>
      </trkpt>
      <trkpt lat="43.68016" lon="1.28503">
        <ele>180.2</ele>
        <time>2025-10-18T07:59:28Z</time>
      </trkpt>
      <trkpt lat="43.68021" lon="1.28496">
        <ele>180.2</ele>
        <time>2025-10-18T07:59:29Z</time>
      </trkpt>
      <trkpt lat="43.68025" lon="1.28489">
        <ele>180.2</ele>
        <time>2025-10-18T07:59:30Z</time>
      </trkpt>
      <trkpt lat="43.6803" lon="1.28482">
        <ele>180</ele>
        <time>2025-10-18T07:59:31Z</time>
      </trkpt>
      <trkpt lat="43.68034" lon="1.28475">
        <ele>180</ele>
        <time>2025-10-18T07:59:32Z</time>
      </trkpt>
      <trkpt lat="43.68039" lon="1.28469">
        <ele>180</ele>
        <time>2025-10-18T07:59:33Z</time>
      </trkpt>
      <trkpt lat="43.68043" lon="1.28463">
        <ele>180</ele>
        <time>2025-10-18T07:59:34Z</time>
      </trkpt>
      <trkpt lat="43.68048" lon="1.28456">
        <ele>180</ele>
        <time>2025-10-18T07:59:35Z</time>
      </trkpt>
      <trkpt lat="43.68053" lon="1.2845">
        <ele>180.2</ele>
        <time>2025-10-18T07:59:36Z</time>
      </trkpt>
      <trkpt lat="43.68058" lon="1.28445">
        <ele>180.2</ele>
        <time>2025-10-18T07:59:37Z</time>
      </trkpt>
      <trkpt lat="43.68062" lon="1.2844">
        <ele>180.2</ele>
        <time>2025-10-18T07:59:38Z</time>
      </trkpt>
      <trkpt lat="43.68066" lon="1.28435">
        <ele>180.4</ele>
        <time>2025-10-18T07:59:39Z</time>
      </trkpt>
      <trkpt lat="43.6807" lon="1.28429">
        <ele>180.4</ele>
        <time>2025-10-18T07:59:40Z</time>
      </trkpt>
      <trkpt lat="43.68072" lon="1.28424">
        <ele>180.6</ele>
        <time>2025-10-18T07:59:41Z</time>
      </trkpt>
      <trkpt lat="43.68074" lon="1.28421">
        <ele>180.6</ele>
        <time>2025-10-18T07:59:42Z</time>
      </trkpt>
      <trkpt lat="43.68076" lon="1.2842">
        <ele>180.8</ele>
        <time>2025-10-18T07:59:43Z</time>
      </trkpt>
      <trkpt lat="43.68077" lon="1.2842">
        <ele>180.8</ele>
        <time>2025-10-18T07:59:44Z</time>
      </trkpt>
      <trkpt lat="43.68078" lon="1.28418">
        <ele>181</ele>
        <time>2025-10-18T07:59:45Z</time>
      </trkpt>
      <trkpt lat="43.68077" lon="1.28418">
        <ele>181</ele>
        <time>2025-10-18T07:59:46Z</time>
      </trkpt>
      <trkpt lat="43.68077" lon="1.28417">
        <ele>181</ele>
        <time>2025-10-18T07:59:47Z</time>
      </trkpt>
      <trkpt lat="43.68073" lon="1.28424">
        <ele>180.6</ele>
        <time>2025-10-18T08:00:08Z</time>
      </trkpt>
      <trkpt lat="43.68071" lon="1.28427">
        <ele>180.6</ele>
        <time>2025-10-18T08:00:09Z</time>
      </trkpt>
      <trkpt lat="43.6807" lon="1.2843">
        <ele>180.4</ele>
        <time>2025-10-18T08:00:10Z</time>
      </trkpt>
      <trkpt lat="43.68067" lon="1.28433">
        <ele>180.4</ele>
        <time>2025-10-18T08:00:11Z</time>
      </trkpt>
      <trkpt lat="43.68065" lon="1.28437">
        <ele>180.4</ele>
        <time>2025-10-18T08:00:12Z</time>
      </trkpt>
      <trkpt lat="43.68062" lon="1.28441">
        <ele>180.2</ele>
        <time>2025-10-18T08:00:13Z</time>
      </trkpt>
      <trkpt lat="43.68059" lon="1.28444">
        <ele>180.2</ele>
        <time>2025-10-18T08:00:14Z</time>
      </trkpt>
      <trkpt lat="43.68055" lon="1.28448">
        <ele>180</ele>
        <time>2025-10-18T08:00:15Z</time>
      </trkpt>
      <trkpt lat="43.68052" lon="1.2845">
        <ele>180</ele>
        <time>2025-10-18T08:00:16Z</time>
      </trkpt>
      <trkpt lat="43.6805" lon="1.28454">
        <ele>179.8</ele>
        <time>2025-10-18T08:00:17Z</time>
      </trkpt>
      <trkpt lat="43.68049" lon="1.28456">
        <ele>179.8</ele>
        <time>2025-10-18T08:00:18Z</time>
      </trkpt>
      <trkpt lat="43.68048" lon="1.28458">
        <ele>180</ele>
        <time>2025-10-18T08:00:19Z</time>
      </trkpt>
      <trkpt lat="43.68047" lon="1.28459">
        <ele>180</ele>
        <time>2025-10-18T08:00:20Z</time>
      </trkpt>
      <trkpt lat="43.68047" lon="1.2846">
        <ele>180.2</ele>
        <time>2025-10-18T08:00:21Z</time>
      </trkpt>
      <trkpt lat="43.68047" lon="1.2846">
        <ele>180.4</ele>
        <time>2025-10-18T08:00:22Z</time>
      </trkpt>
      <trkpt lat="43.68047" lon="1.28459">
        <ele>180.6</ele>
        <time>2025-10-18T08:00:23Z</time>
      </trkpt>
      <trkpt lat="43.68047" lon="1.28459">
        <ele>180.6</ele>
        <time>2025-10-18T08:00:24Z</time>
      </trkpt>
      <trkpt lat="43.68045" lon="1.28461">
        <ele>180.6</ele>
        <time>2025-10-18T08:00:31Z</time>
      </trkpt>
      <trkpt lat="43.68043" lon="1.28462">
        <ele>180.6</ele>
        <time>2025-10-18T08:00:32Z</time>
      </trkpt>
      <trkpt lat="43.68041" lon="1.28465">
        <ele>180.6</ele>
        <time>2025-10-18T08:00:33Z</time>
      </trkpt>
      <trkpt lat="43.6804" lon="1.28467">
        <ele>180.8</ele>
        <time>2025-10-18T08:00:34Z</time>
      </trkpt>
      <trkpt lat="43.68038" lon="1.2847">
        <ele>180.8</ele>
        <time>2025-10-18T08:00:35Z</time>
      </trkpt>
      <trkpt lat="43.68036" lon="1.28474">
        <ele>180.8</ele>
        <time>2025-10-18T08:00:36Z</time>
      </trkpt>
      <trkpt lat="43.68034" lon="1.28477">
        <ele>180.6</ele>
        <time>2025-10-18T08:00:37Z</time>
      </trkpt>
      <trkpt lat="43.68032" lon="1.28481">
        <ele>180.4</ele>
        <time>2025-10-18T08:00:38Z</time>
      </trkpt>
      <trkpt lat="43.68029" lon="1.28485">
        <ele>180.2</ele>
        <time>2025-10-18T08:00:39Z</time>
      </trkpt>
      <trkpt lat="43.68027" lon="1.28489">
        <ele>180.2</ele>
        <time>2025-10-18T08:00:40Z</time>
      </trkpt>
      <trkpt lat="43.68024" lon="1.28492">
        <ele>180</ele>
        <time>2025-10-18T08:00:41Z</time>
      </trkpt>
      <trkpt lat="43.68022" lon="1.28496">
        <ele>180</ele>
        <time>2025-10-18T08:00:42Z</time>
      </trkpt>
      <trkpt lat="43.68019" lon="1.285">
        <ele>180</ele>
        <time>2025-10-18T08:00:43Z</time>
      </trkpt>
      <trkpt lat="43.68016" lon="1.28505">
        <ele>180</ele>
        <time>2025-10-18T08:00:44Z</time>
      </trkpt>
      <trkpt lat="43.68014" lon="1.28509">
        <ele>180</ele>
        <time>2025-10-18T08:00:45Z</time>
      </trkpt>
      <trkpt lat="43.68012" lon="1.28514">
        <ele>180</ele>
        <time>2025-10-18T08:00:46Z</time>
      </trkpt>
      <trkpt lat="43.68009" lon="1.28519">
        <ele>179.8</ele>
        <time>2025-10-18T08:00:47Z</time>
      </trkpt>
      <trkpt lat="43.68006" lon="1.28525">
        <ele>179.8</ele>
        <time>2025-10-18T08:00:48Z</time>
      </trkpt>
      <trkpt lat="43.68004" lon="1.28529">
        <ele>179.8</ele>
        <time>2025-10-18T08:00:49Z</time>
      </trkpt>
      <trkpt lat="43.68002" lon="1.28532">
        <ele>180</ele>
        <time>2025-10-18T08:00:50Z</time>
      </trkpt>
      <trkpt lat="43.68" lon="1.28534">
        <ele>180</ele>
        <time>2025-10-18T08:00:51Z</time>
      </trkpt>
      <trkpt lat="43.67999" lon="1.28532">
        <ele>180</ele>
        <time>2025-10-18T08:00:52Z</time>
      </trkpt>
      <trkpt lat="43.67999" lon="1.28532">
        <ele>180.2</ele>
        <time>2025-10-18T08:00:53Z</time>
      </trkpt>
      <trkpt lat="43.67999" lon="1.28532">
        <ele>180.4</ele>
        <time>2025-10-18T08:00:54Z</time>
      </trkpt>
      <trkpt lat="43.67999" lon="1.28532">
        <ele>180.6</ele>
        <time>2025-10-18T08:00:55Z</time>
      </trkpt>
      <trkpt lat="43.67999" lon="1.28532">
        <ele>181</ele>
        <time>2025-10-18T08:00:56Z</time>
      </trkpt>
      <trkpt lat="43.68" lon="1.28527">
        <ele>181.2</ele>
        <time>2025-10-18T08:00:59Z</time>
      </trkpt>
      <trkpt lat="43.68001" lon="1.28525">
        <ele>181.2</ele>
        <time>2025-10-18T08:01:00Z</time>
      </trkpt>
      <trkpt lat="43.68003" lon="1.28523">
        <ele>181</ele>
        <time>2025-10-18T08:01:01Z</time>
      </trkpt>
      <trkpt lat="43.68006" lon="1.28522">
        <ele>181</ele>
        <time>2025-10-18T08:01:02Z</time>
      </trkpt>
      <trkpt lat="43.68007" lon="1.2852">
        <ele>181</ele>
        <time>2025-10-18T08:01:03Z</time>
      </trkpt>
      <trkpt lat="43.6801" lon="1.28517">
        <ele>181</ele>
        <time>2025-10-18T08:01:04Z</time>
      </trkpt>
      <trkpt lat="43.68011" lon="1.28514">
        <ele>181</ele>
        <time>2025-10-18T08:01:05Z</time>
      </trkpt>
      <trkpt lat="43.68014" lon="1.28511">
        <ele>181</ele>
        <time>2025-10-18T08:01:06Z</time>
      </trkpt>
      <trkpt lat="43.68015" lon="1.28508">
        <ele>181</ele>
        <time>2025-10-18T08:01:07Z</time>
      </trkpt>
      <trkpt lat="43.68017" lon="1.28505">
        <ele>181</ele>
        <time>2025-10-18T08:01:08Z</time>
      </trkpt>
      <trkpt lat="43.68019" lon="1.285">
        <ele>181</ele>
        <time>2025-10-18T08:01:09Z</time>
      </trkpt>
      <trkpt lat="43.68022" lon="1.28496">
        <ele>180.8</ele>
        <time>2025-10-18T08:01:10Z</time>
      </trkpt>
      <trkpt lat="43.68024" lon="1.28492">
        <ele>180.8</ele>
        <time>2025-10-18T08:01:11Z</time>
      </trkpt>
      <trkpt lat="43.68027" lon="1.28486">
        <ele>180.8</ele>
        <time>2025-10-18T08:01:12Z</time>
      </trkpt>
      <trkpt lat="43.6803" lon="1.28481">
        <ele>180.8</ele>
        <time>2025-10-18T08:01:13Z</time>
      </trkpt>
      <trkpt lat="43.68034" lon="1.28476">
        <ele>180.6</ele>
        <time>2025-10-18T08:01:14Z</time>
      </trkpt>
      <trkpt lat="43.68038" lon="1.2847">
        <ele>180.6</ele>
        <time>2025-10-18T08:01:15Z</time>
      </trkpt>
      <trkpt lat="43.68042" lon="1.28465">
        <ele>180.6</ele>
        <time>2025-10-18T08:01:16Z</time>
      </trkpt>
      <trkpt lat="43.68046" lon="1.28461">
        <ele>180.4</ele>
        <time>2025-10-18T08:01:17Z</time>
      </trkpt>
      <trkpt lat="43.6805" lon="1.28455">
        <ele>180.4</ele>
        <time>2025-10-18T08:01:18Z</time>
      </trkpt>
      <trkpt lat="43.68053" lon="1.28449">
        <ele>180.4</ele>
        <time>2025-10-18T08:01:19Z</time>
      </trkpt>
      <trkpt lat="43.68057" lon="1.28445">
        <ele>180.4</ele>
        <time>2025-10-18T08:01:20Z</time>
      </trkpt>
      <trkpt lat="43.68061" lon="1.2844">
        <ele>180.2</ele>
        <time>2025-10-18T08:01:21Z</time>
      </trkpt>
      <trkpt lat="43.68065" lon="1.28435">
        <ele>180.2</ele>
        <time>2025-10-18T08:01:22Z</time>
      </trkpt>
      <trkpt lat="43.68067" lon="1.2843">
        <ele>180.4</ele>
        <time>2025-10-18T08:01:23Z</time>
      </trkpt>
      <trkpt lat="43.6807" lon="1.28425">
        <ele>180.4</ele>
        <time>2025-10-18T08:01:24Z</time>
      </trkpt>
      <trkpt lat="43.68073" lon="1.2842">
        <ele>180.4</ele>
        <time>2025-10-18T08:01:25Z</time>
      </trkpt>
      <trkpt lat="43.68076" lon="1.28415">
        <ele>180.6</ele>
        <time>2025-10-18T08:01:26Z</time>
      </trkpt>
      <trkpt lat="43.6808" lon="1.28411">
        <ele>180.6</ele>
        <time>2025-10-18T08:01:27Z</time>
      </trkpt>
      <trkpt lat="43.68083" lon="1.28405">
        <ele>180.4</ele>
        <time>2025-10-18T08:01:28Z</time>
      </trkpt>
      <trkpt lat="43.68087" lon="1.284">
        <ele>180.4</ele>
        <time>2025-10-18T08:01:29Z</time>
      </trkpt>
      <trkpt lat="43.68091" lon="1.28395">
        <ele>180.4</ele>
        <time>2025-10-18T08:01:30Z</time>
      </trkpt>
      <trkpt lat="43.68095" lon="1.28391">
        <ele>180.4</ele>
        <time>2025-10-18T08:01:31Z</time>
      </trkpt>
      <trkpt lat="43.681" lon="1.28386">
        <ele>180.2</ele>
        <time>2025-10-18T08:01:32Z</time>
      </trkpt>
      <trkpt lat="43.68104" lon="1.28381">
        <ele>180.4</ele>
        <time>2025-10-18T08:01:33Z</time>
      </trkpt>
      <trkpt lat="43.68108" lon="1.28375">
        <ele>180.4</ele>
        <time>2025-10-18T08:01:34Z</time>
      </trkpt>
      <trkpt lat="43.68111" lon="1.2837">
        <ele>180.4</ele>
        <time>2025-10-18T08:01:35Z</time>
      </trkpt>
      <trkpt lat="43.68115" lon="1.28364">
        <ele>180.4</ele>
        <time>2025-10-18T08:01:36Z</time>
      </trkpt>
      <trkpt lat="43.68118" lon="1.28359">
        <ele>180.6</ele>
        <time>2025-10-18T08:01:37Z</time>
      </trkpt>
      <trkpt lat="43.68121" lon="1.28355">
        <ele>180.4</ele>
        <time>2025-10-18T08:01:38Z</time>
      </trkpt>
      <trkpt lat="43.68125" lon="1.28349">
        <ele>180.6</ele>
        <time>2025-10-18T08:01:39Z</time>
      </trkpt>
      <trkpt lat="43.68129" lon="1.28344">
        <ele>180.6</ele>
        <time>2025-10-18T08:01:40Z</time>
      </trkpt>
      <trkpt lat="43.68133" lon="1.28338">
        <ele>180.6</ele>
        <time>2025-10-18T08:01:41Z</time>
      </trkpt>
      <trkpt lat="43.68137" lon="1.28332">
        <ele>180.6</ele>
        <time>2025-10-18T08:01:42Z</time>
      </trkpt>
      <trkpt lat="43.68141" lon="1.28327">
        <ele>180.8</ele>
        <time>2025-10-18T08:01:43Z</time>
      </trkpt>
      <trkpt lat="43.68145" lon="1.28321">
        <ele>180.8</ele>
        <time>2025-10-18T08:01:44Z</time>
      </trkpt>
      <trkpt lat="43.68149" lon="1.28315">
        <ele>180.8</ele>
        <time>2025-10-18T08:01:45Z</time>
      </trkpt>
      <trkpt lat="43.68153" lon="1.28309">
        <ele>180.8</ele>
        <time>2025-10-18T08:01:46Z</time>
      </trkpt>
      <trkpt lat="43.68157" lon="1.28304">
        <ele>181</ele>
        <time>2025-10-18T08:01:47Z</time>
      </trkpt>
      <trkpt lat="43.68162" lon="1.28298">
        <ele>181</ele>
        <time>2025-10-18T08:01:48Z</time>
      </trkpt>
      <trkpt lat="43.68166" lon="1.28292">
        <ele>180.8</ele>
        <time>2025-10-18T08:01:49Z</time>
      </trkpt>
      <trkpt lat="43.6817" lon="1.28287">
        <ele>180.8</ele>
        <time>2025-10-18T08:01:50Z</time>
      </trkpt>
      <trkpt lat="43.68175" lon="1.28282">
        <ele>180.8</ele>
        <time>2025-10-18T08:01:51Z</time>
      </trkpt>
      <trkpt lat="43.68179" lon="1.28277">
        <ele>180.6</ele>
        <time>2025-10-18T08:01:52Z</time>
      </trkpt>
      <trkpt lat="43.68184" lon="1.28271">
        <ele>180.4</ele>
        <time>2025-10-18T08:01:53Z</time>
      </trkpt>
      <trkpt lat="43.68188" lon="1.28265">
        <ele>180.4</ele>
        <time>2025-10-18T08:01:54Z</time>
      </trkpt>
      <trkpt lat="43.68193" lon="1.2826">
        <ele>180.4</ele>
        <time>2025-10-18T08:01:55Z</time>
      </trkpt>
      <trkpt lat="43.68197" lon="1.28254">
        <ele>180.4</ele>
        <time>2025-10-18T08:01:56Z</time>
      </trkpt>
      <trkpt lat="43.68202" lon="1.28249">
        <ele>180.4</ele>
        <time>2025-10-18T08:01:57Z</time>
      </trkpt>
      <trkpt lat="43.68206" lon="1.28243">
        <ele>180.2</ele>
        <time>2025-10-18T08:01:58Z</time>
      </trkpt>
      <trkpt lat="43.68211" lon="1.28238">
        <ele>180.2</ele>
        <time>2025-10-18T08:01:59Z</time>
      </trkpt>
      <trkpt lat="43.68216" lon="1.28232">
        <ele>180.2</ele>
        <time>2025-10-18T08:02:00Z</time>
      </trkpt>
      <trkpt lat="43.68221" lon="1.28226">
        <ele>180.2</ele>
        <time>2025-10-18T08:02:01Z</time>
      </trkpt>
      <trkpt lat="43.68226" lon="1.2822">
        <ele>180.2</ele>
        <time>2025-10-18T08:02:02Z</time>
      </trkpt>
      <trkpt lat="43.6823" lon="1.28214">
        <ele>180</ele>
        <time>2025-10-18T08:02:03Z</time>
      </trkpt>
      <trkpt lat="43.68235" lon="1.28209">
        <ele>180</ele>
        <time>2025-10-18T08:02:04Z</time>
      </trkpt>
      <trkpt lat="43.6824" lon="1.28203">
        <ele>180</ele>
        <time>2025-10-18T08:02:05Z</time>
      </trkpt>
      <trkpt lat="43.68245" lon="1.28197">
        <ele>180</ele>
        <time>2025-10-18T08:02:06Z</time>
      </trkpt>
      <trkpt lat="43.68249" lon="1.28192">
        <ele>180</ele>
        <time>2025-10-18T08:02:07Z</time>
      </trkpt>
      <trkpt lat="43.68254" lon="1.28185">
        <ele>180</ele>
        <time>2025-10-18T08:02:08Z</time>
      </trkpt>
      <trkpt lat="43.68259" lon="1.2818">
        <ele>180</ele>
        <time>2025-10-18T08:02:09Z</time>
      </trkpt>
      <trkpt lat="43.68263" lon="1.28173">
        <ele>180</ele>
        <time>2025-10-18T08:02:10Z</time>
      </trkpt>
      <trkpt lat="43.68268" lon="1.28167">
        <ele>180</ele>
        <time>2025-10-18T08:02:11Z</time>
      </trkpt>
      <trkpt lat="43.68272" lon="1.28161">
        <ele>180</ele>
        <time>2025-10-18T08:02:12Z</time>
      </trkpt>
      <trkpt lat="43.68276" lon="1.28156">
        <ele>180</ele>
        <time>2025-10-18T08:02:13Z</time>
      </trkpt>
      <trkpt lat="43.68281" lon="1.2815">
        <ele>180.2</ele>
        <time>2025-10-18T08:02:14Z</time>
      </trkpt>
      <trkpt lat="43.68285" lon="1.28144">
        <ele>180.2</ele>
        <time>2025-10-18T08:02:15Z</time>
      </trkpt>
      <trkpt lat="43.68289" lon="1.28138">
        <ele>180.2</ele>
        <time>2025-10-18T08:02:16Z</time>
      </trkpt>
      <trkpt lat="43.68294" lon="1.28131">
        <ele>180.4</ele>
        <time>2025-10-18T08:02:17Z</time>
      </trkpt>
      <trkpt lat="43.68299" lon="1.28125">
        <ele>180.4</ele>
        <time>2025-10-18T08:02:18Z</time>
      </trkpt>
      <trkpt lat="43.68303" lon="1.28119">
        <ele>180.6</ele>
        <time>2025-10-18T08:02:19Z</time>
      </trkpt>
      <trkpt lat="43.68308" lon="1.28113">
        <ele>180.6</ele>
        <time>2025-10-18T08:02:20Z</time>
      </trkpt>
      <trkpt lat="43.68313" lon="1.28106">
        <ele>180.4</ele>
        <time>2025-10-18T08:02:21Z</time>
      </trkpt>
      <trkpt lat="43.68317" lon="1.28099">
        <ele>180.4</ele>
        <time>2025-10-18T08:02:22Z</time>
      </trkpt>
      <trkpt lat="43.68322" lon="1.28093">
        <ele>180.2</ele>
        <time>2025-10-18T08:02:23Z</time>
      </trkpt>
      <trkpt lat="43.68326" lon="1.28086">
        <ele>180.2</ele>
        <time>2025-10-18T08:02:24Z</time>
      </trkpt>
      <trkpt lat="43.6833" lon="1.2808">
        <ele>180.2</ele>
        <time>2025-10-18T08:02:25Z</time>
      </trkpt>
      <trkpt lat="43.68335" lon="1.28074">
        <ele>180</ele>
        <time>2025-10-18T08:02:26Z</time>
      </trkpt>
      <trkpt lat="43.6834" lon="1.28068">
        <ele>180.2</ele>
        <time>2025-10-18T08:02:27Z</time>
      </trkpt>
      <trkpt lat="43.68344" lon="1.28062">
        <ele>180</ele>
        <time>2025-10-18T08:02:28Z</time>
      </trkpt>
      <trkpt lat="43.68349" lon="1.28056">
        <ele>180</ele>
        <time>2025-10-18T08:02:29Z</time>
      </trkpt>
      <trkpt lat="43.68353" lon="1.2805">
        <ele>180.2</ele>
        <time>2025-10-18T08:02:30Z</time>
      </trkpt>
      <trkpt lat="43.68357" lon="1.28043">
        <ele>180.4</ele>
        <time>2025-10-18T08:02:31Z</time>
      </trkpt>
      <trkpt lat="43.68362" lon="1.28037">
        <ele>180.4</ele>
        <time>2025-10-18T08:02:32Z</time>
      </trkpt>
      <trkpt lat="43.68366" lon="1.2803">
        <ele>180.6</ele>
        <time>2025-10-18T08:02:33Z</time>
      </trkpt>
      <trkpt lat="43.68371" lon="1.28024">
        <ele>180.4</ele>
        <time>2025-10-18T08:02:34Z</time>
      </trkpt>
      <trkpt lat="43.68375" lon="1.28018">
        <ele>180.2</ele>
        <time>2025-10-18T08:02:35Z</time>
      </trkpt>
      <trkpt lat="43.6838" lon="1.28012">
        <ele>180.2</ele>
        <time>2025-10-18T08:02:36Z</time>
      </trkpt>
      <trkpt lat="43.68385" lon="1.28006">
        <ele>180.2</ele>
        <time>2025-10-18T08:02:37Z</time>
      </trkpt>
      <trkpt lat="43.68389" lon="1.27999">
        <ele>180</ele>
        <time>2025-10-18T08:02:38Z</time>
      </trkpt>
      <trkpt lat="43.68394" lon="1.27994">
        <ele>180</ele>
        <time>2025-10-18T08:02:39Z</time>
      </trkpt>
      <trkpt lat="43.68399" lon="1.27988">
        <ele>180.2</ele>
        <time>2025-10-18T08:02:40Z</time>
      </trkpt>
      <trkpt lat="43.68404" lon="1.27982">
        <ele>180.2</ele>
        <time>2025-10-18T08:02:41Z</time>
      </trkpt>
      <trkpt lat="43.68409" lon="1.27977">
        <ele>180</ele>
        <time>2025-10-18T08:02:42Z</time>
      </trkpt>
      <trkpt lat="43.68414" lon="1.27972">
        <ele>180</ele>
        <time>2025-10-18T08:02:43Z</time>
      </trkpt>
      <trkpt lat="43.6842" lon="1.27967">
        <ele>179.8</ele>
        <time>2025-10-18T08:02:44Z</time>
      </trkpt>
      <trkpt lat="43.68425" lon="1.27962">
        <ele>179.8</ele>
        <time>2025-10-18T08:02:45Z</time>
      </trkpt>
      <trkpt lat="43.6843" lon="1.27956">
        <ele>179.6</ele>
        <time>2025-10-18T08:02:46Z</time>
      </trkpt>
      <trkpt lat="43.68434" lon="1.2795">
        <ele>179.6</ele>
        <time>2025-10-18T08:02:47Z</time>
      </trkpt>
      <trkpt lat="43.68439" lon="1.27945">
        <ele>179.6</ele>
        <time>2025-10-18T08:02:48Z</time>
      </trkpt>
      <trkpt lat="43.68444" lon="1.27938">
        <ele>179.6</ele>
        <time>2025-10-18T08:02:49Z</time>
      </trkpt>
      <trkpt lat="43.68449" lon="1.27932">
        <ele>179.8</ele>
        <time>2025-10-18T08:02:50Z</time>
      </trkpt>
      <trkpt lat="43.68454" lon="1.27925">
        <ele>179.8</ele>
        <time>2025-10-18T08:02:51Z</time>
      </trkpt>
      <trkpt lat="43.68459" lon="1.27919">
        <ele>179.6</ele>
        <time>2025-10-18T08:02:52Z</time>
      </trkpt>
      <trkpt lat="43.68464" lon="1.27913">
        <ele>179.8</ele>
        <time>2025-10-18T08:02:53Z</time>
      </trkpt>
      <trkpt lat="43.68469" lon="1.27907">
        <ele>179.8</ele>
        <time>2025-10-18T08:02:54Z</time>
      </trkpt>
      <trkpt lat="43.68474" lon="1.279">
        <ele>179.6</ele>
        <time>2025-10-18T08:02:55Z</time>
      </trkpt>
      <trkpt lat="43.68479" lon="1.27894">
        <ele>179.8</ele>
        <time>2025-10-18T08:02:56Z</time>
      </trkpt>
      <trkpt lat="43.68484" lon="1.27887">
        <ele>179.8</ele>
        <time>2025-10-18T08:02:57Z</time>
      </trkpt>
      <trkpt lat="43.68488" lon="1.27881">
        <ele>179.8</ele>
        <time>2025-10-18T08:02:58Z</time>
      </trkpt>
      <trkpt lat="43.68493" lon="1.27875">
        <ele>179.8</ele>
        <time>2025-10-18T08:02:59Z</time>
      </trkpt>
      <trkpt lat="43.68498" lon="1.27868">
        <ele>179.8</ele>
        <time>2025-10-18T08:03:00Z</time>
      </trkpt>
      <trkpt lat="43.68503" lon="1.27862">
        <ele>179.8</ele>
        <time>2025-10-18T08:03:01Z</time>
      </trkpt>
      <trkpt lat="43.68508" lon="1.27855">
        <ele>180</ele>
        <time>2025-10-18T08:03:02Z</time>
      </trkpt>
      <trkpt lat="43.68513" lon="1.27849">
        <ele>180</ele>
        <time>2025-10-18T08:03:03Z</time>
      </trkpt>
      <trkpt lat="43.68518" lon="1.27842">
        <ele>180</ele>
        <time>2025-10-18T08:03:04Z</time>
      </trkpt>
      <trkpt lat="43.68523" lon="1.27836">
        <ele>180</ele>
        <time>2025-10-18T08:03:05Z</time>
      </trkpt>
      <trkpt lat="43.68528" lon="1.27829">
        <ele>180</ele>
        <time>2025-10-18T08:03:06Z</time>
      </trkpt>
      <trkpt lat="43.68533" lon="1.27823">
        <ele>180</ele>
        <time>2025-10-18T08:03:07Z</time>
      </trkpt>
      <trkpt lat="43.68538" lon="1.27816">
        <ele>180</ele>
        <time>2025-10-18T08:03:08Z</time>
      </trkpt>
      <trkpt lat="43.68543" lon="1.27809">
        <ele>180.2</ele>
        <time>2025-10-18T08:03:09Z</time>
      </trkpt>
      <trkpt lat="43.68548" lon="1.27802">
        <ele>180.2</ele>
        <time>2025-10-18T08:03:10Z</time>
      </trkpt>
      <trkpt lat="43.68553" lon="1.27796">
        <ele>180.2</ele>
        <time>2025-10-18T08:03:11Z</time>
      </trkpt>
      <trkpt lat="43.68558" lon="1.2779">
        <ele>180.2</ele>
        <time>2025-10-18T08:03:12Z</time>
      </trkpt>
      <trkpt lat="43.68563" lon="1.27783">
        <ele>180</ele>
        <time>2025-10-18T08:03:13Z</time>
      </trkpt>
      <trkpt lat="43.68568" lon="1.27777">
        <ele>180</ele>
        <time>2025-10-18T08:03:14Z</time>
      </trkpt>
      <trkpt lat="43.68573" lon="1.2777">
        <ele>180</ele>
        <time>2025-10-18T08:03:15Z</time>
      </trkpt>
      <trkpt lat="43.68579" lon="1.27763">
        <ele>179.8</ele>
        <time>2025-10-18T08:03:16Z</time>
      </trkpt>
      <trkpt lat="43.68584" lon="1.27757">
        <ele>179.8</ele>
        <time>2025-10-18T08:03:17Z</time>
      </trkpt>
      <trkpt lat="43.68589" lon="1.27751">
        <ele>179.8</ele>
        <time>2025-10-18T08:03:18Z</time>
      </trkpt>
      <trkpt lat="43.68593" lon="1.27745">
        <ele>179.8</ele>
        <time>2025-10-18T08:03:19Z</time>
      </trkpt>
      <trkpt lat="43.68597" lon="1.2774">
        <ele>179.8</ele>
        <time>2025-10-18T08:03:20Z</time>
      </trkpt>
      <trkpt lat="43.68601" lon="1.27735">
        <ele>179.8</ele>
        <time>2025-10-18T08:03:21Z</time>
      </trkpt>
      <trkpt lat="43.68604" lon="1.27731">
        <ele>180</ele>
        <time>2025-10-18T08:03:22Z</time>
      </trkpt>
      <trkpt lat="43.68608" lon="1.27727">
        <ele>180.2</ele>
        <time>2025-10-18T08:03:23Z</time>
      </trkpt>
      <trkpt lat="43.68611" lon="1.27723">
        <ele>180.2</ele>
        <time>2025-10-18T08:03:24Z</time>
      </trkpt>
      <trkpt lat="43.68613" lon="1.2772">
        <ele>180.4</ele>
        <time>2025-10-18T08:03:25Z</time>
      </trkpt>
      <trkpt lat="43.68614" lon="1.27717">
        <ele>180.4</ele>
        <time>2025-10-18T08:03:26Z</time>
      </trkpt>
      <trkpt lat="43.68616" lon="1.27715">
        <ele>180.4</ele>
        <time>2025-10-18T08:03:27Z</time>
      </trkpt>
      <trkpt lat="43.68618" lon="1.27713">
        <ele>180.6</ele>
        <time>2025-10-18T08:03:28Z</time>
      </trkpt>
      <trkpt lat="43.6862" lon="1.2771">
        <ele>180.4</ele>
        <time>2025-10-18T08:03:29Z</time>
      </trkpt>
      <trkpt lat="43.68622" lon="1.27707">
        <ele>180.6</ele>
        <time>2025-10-18T08:03:30Z</time>
      </trkpt>
      <trkpt lat="43.68623" lon="1.27704">
        <ele>180.6</ele>
        <time>2025-10-18T08:03:31Z</time>
      </trkpt>
      <trkpt lat="43.68625" lon="1.277">
        <ele>180.6</ele>
        <time>2025-10-18T08:03:32Z</time>
      </trkpt>
      <trkpt lat="43.68628" lon="1.27697">
        <ele>180.6</ele>
        <time>2025-10-18T08:03:33Z</time>
      </trkpt>
      <trkpt lat="43.68631" lon="1.27693">
        <ele>180.4</ele>
        <time>2025-10-18T08:03:34Z</time>
      </trkpt>
      <trkpt lat="43.68634" lon="1.27689">
        <ele>180.4</ele>
        <time>2025-10-18T08:03:35Z</time>
      </trkpt>
      <trkpt lat="43.68637" lon="1.27685">
        <ele>180.2</ele>
        <time>2025-10-18T08:03:36Z</time>
      </trkpt>
      <trkpt lat="43.6864" lon="1.27681">
        <ele>180.2</ele>
        <time>2025-10-18T08:03:37Z</time>
      </trkpt>
      <trkpt lat="43.68643" lon="1.27677">
        <ele>180.2</ele>
        <time>2025-10-18T08:03:38Z</time>
      </trkpt>
      <trkpt lat="43.68646" lon="1.27673">
        <ele>180.2</ele>
        <time>2025-10-18T08:03:39Z</time>
      </trkpt>
      <trkpt lat="43.6865" lon="1.27668">
        <ele>180.2</ele>
        <time>2025-10-18T08:03:40Z</time>
      </trkpt>
      <trkpt lat="43.68653" lon="1.27663">
        <ele>180.2</ele>
        <time>2025-10-18T08:03:41Z</time>
      </trkpt>
      <trkpt lat="43.68657" lon="1.27658">
        <ele>180</ele>
        <time>2025-10-18T08:03:42Z</time>
      </trkpt>
      <trkpt lat="43.68661" lon="1.27653">
        <ele>180</ele>
        <time>2025-10-18T08:03:43Z</time>
      </trkpt>
      <trkpt lat="43.68665" lon="1.27648">
        <ele>180</ele>
        <time>2025-10-18T08:03:44Z</time>
      </trkpt>
      <trkpt lat="43.68669" lon="1.27643">
        <ele>180</ele>
        <time>2025-10-18T08:03:45Z</time>
      </trkpt>
      <trkpt lat="43.68673" lon="1.27637">
        <ele>180</ele>
        <time>2025-10-18T08:03:46Z</time>
      </trkpt>
      <trkpt lat="43.68678" lon="1.27632">
        <ele>179.8</ele>
        <time>2025-10-18T08:03:47Z</time>
      </trkpt>
      <trkpt lat="43.68682" lon="1.27626">
        <ele>179.8</ele>
        <time>2025-10-18T08:03:48Z</time>
      </trkpt>
      <trkpt lat="43.68686" lon="1.27621">
        <ele>179.8</ele>
        <time>2025-10-18T08:03:49Z</time>
      </trkpt>
      <trkpt lat="43.68691" lon="1.27617">
        <ele>179.8</ele>
        <time>2025-10-18T08:03:50Z</time>
      </trkpt>
      <trkpt lat="43.68695" lon="1.27614">
        <ele>179.8</ele>
        <time>2025-10-18T08:03:51Z</time>
      </trkpt>
      <trkpt lat="43.68699" lon="1.27612">
        <ele>180</ele>
        <time>2025-10-18T08:03:52Z</time>
      </trkpt>
      <trkpt lat="43.68703" lon="1.27609">
        <ele>180.2</ele>
        <time>2025-10-18T08:03:53Z</time>
      </trkpt>
      <trkpt lat="43.68706" lon="1.27607">
        <ele>180.2</ele>
        <time>2025-10-18T08:03:54Z</time>
      </trkpt>
      <trkpt lat="43.68708" lon="1.27605">
        <ele>180.4</ele>
        <time>2025-10-18T08:03:55Z</time>
      </trkpt>
      <trkpt lat="43.6871" lon="1.27603">
        <ele>180.6</ele>
        <time>2025-10-18T08:03:56Z</time>
      </trkpt>
      <trkpt lat="43.68712" lon="1.27601">
        <ele>180.8</ele>
        <time>2025-10-18T08:03:57Z</time>
      </trkpt>
      <trkpt lat="43.68713" lon="1.27598">
        <ele>181</ele>
        <time>2025-10-18T08:03:58Z</time>
      </trkpt>
      <trkpt lat="43.68713" lon="1.27596">
        <ele>181</ele>
        <time>2025-10-18T08:03:59Z</time>
      </trkpt>
      <trkpt lat="43.68712" lon="1.27593">
        <ele>180.8</ele>
        <time>2025-10-18T08:04:00Z</time>
      </trkpt>
      <trkpt lat="43.68711" lon="1.2759">
        <ele>180.8</ele>
        <time>2025-10-18T08:04:01Z</time>
      </trkpt>
      <trkpt lat="43.6871" lon="1.27587">
        <ele>180.6</ele>
        <time>2025-10-18T08:04:02Z</time>
      </trkpt>
      <trkpt lat="43.68711" lon="1.27585">
        <ele>180.4</ele>
        <time>2025-10-18T08:04:03Z</time>
      </trkpt>
      <trkpt lat="43.68711" lon="1.27583">
        <ele>180.4</ele>
        <time>2025-10-18T08:04:04Z</time>
      </trkpt>
      <trkpt lat="43.68712" lon="1.27581">
        <ele>180.4</ele>
        <time>2025-10-18T08:04:05Z</time>
      </trkpt>
      <trkpt lat="43.68713" lon="1.2758">
        <ele>180.4</ele>
        <time>2025-10-18T08:04:06Z</time>
      </trkpt>
      <trkpt lat="43.68713" lon="1.27579">
        <ele>180.4</ele>
        <time>2025-10-18T08:04:07Z</time>
      </trkpt>
      <trkpt lat="43.68713" lon="1.27578">
        <ele>180.4</ele>
        <time>2025-10-18T08:04:08Z</time>
      </trkpt>
      <trkpt lat="43.68714" lon="1.27576">
        <ele>180.4</ele>
        <time>2025-10-18T08:04:09Z</time>
      </trkpt>
      <trkpt lat="43.68715" lon="1.27574">
        <ele>180.6</ele>
        <time>2025-10-18T08:04:10Z</time>
      </trkpt>
      <trkpt lat="43.68716" lon="1.27572">
        <ele>180.6</ele>
        <time>2025-10-18T08:04:11Z</time>
      </trkpt>
      <trkpt lat="43.68717" lon="1.27571">
        <ele>180.6</ele>
        <time>2025-10-18T08:04:12Z</time>
      </trkpt>
      <trkpt lat="43.68718" lon="1.27569">
        <ele>180.6</ele>
        <time>2025-10-18T08:04:13Z</time>
      </trkpt>
      <trkpt lat="43.6872" lon="1.27566">
        <ele>180.6</ele>
        <time>2025-10-18T08:04:14Z</time>
      </trkpt>
      <trkpt lat="43.68721" lon="1.27565">
        <ele>180.6</ele>
        <time>2025-10-18T08:04:15Z</time>
      </trkpt>
      <trkpt lat="43.68723" lon="1.27563">
        <ele>180.6</ele>
        <time>2025-10-18T08:04:16Z</time>
      </trkpt>
      <trkpt lat="43.68723" lon="1.27562">
        <ele>180.6</ele>
        <time>2025-10-18T08:04:17Z</time>
      </trkpt>
      <trkpt lat="43.68723" lon="1.27562">
        <ele>180.6</ele>
        <time>2025-10-18T08:04:18Z</time>
      </trkpt>
      <trkpt lat="43.68723" lon="1.27562">
        <ele>180.6</ele>
        <time>2025-10-18T08:04:19Z</time>
      </trkpt>
      <trkpt lat="43.6873" lon="1.27557">
        <ele>180.6</ele>
        <time>2025-10-18T08:09:24Z</time>
      </trkpt>
      <trkpt lat="43.68731" lon="1.27556">
        <ele>180.6</ele>
        <time>2025-10-18T08:09:25Z</time>
      </trkpt>
      <trkpt lat="43.68733" lon="1.27554">
        <ele>180.4</ele>
        <time>2025-10-18T08:09:26Z</time>
      </trkpt>
      <trkpt lat="43.68734" lon="1.27551">
        <ele>180.4</ele>
        <time>2025-10-18T08:09:27Z</time>
      </trkpt>
      <trkpt lat="43.68736" lon="1.27548">
        <ele>180.4</ele>
        <time>2025-10-18T08:09:28Z</time>
      </trkpt>
      <trkpt lat="43.68738" lon="1.27546">
        <ele>180.4</ele>
        <time>2025-10-18T08:09:29Z</time>
      </trkpt>
      <trkpt lat="43.68741" lon="1.27543">
        <ele>180.4</ele>
        <time>2025-10-18T08:09:30Z</time>
      </trkpt>
      <trkpt lat="43.68743" lon="1.2754">
        <ele>180.4</ele>
        <time>2025-10-18T08:09:31Z</time>
      </trkpt>
      <trkpt lat="43.68746" lon="1.27536">
        <ele>180.2</ele>
        <time>2025-10-18T08:09:32Z</time>
      </trkpt>
      <trkpt lat="43.68749" lon="1.27532">
        <ele>180.2</ele>
        <time>2025-10-18T08:09:33Z</time>
      </trkpt>
      <trkpt lat="43.68752" lon="1.27528">
        <ele>180.2</ele>
        <time>2025-10-18T08:09:34Z</time>
      </trkpt>
      <trkpt lat="43.68756" lon="1.27524">
        <ele>180.2</ele>
        <time>2025-10-18T08:09:35Z</time>
      </trkpt>
      <trkpt lat="43.6876" lon="1.27519">
        <ele>180.2</ele>
        <time>2025-10-18T08:09:36Z</time>
      </trkpt>
      <trkpt lat="43.68763" lon="1.27514">
        <ele>180.2</ele>
        <time>2025-10-18T08:09:37Z</time>
      </trkpt>
      <trkpt lat="43.68767" lon="1.27509">
        <ele>180.2</ele>
        <time>2025-10-18T08:09:38Z</time>
      </trkpt>
      <trkpt lat="43.68771" lon="1.27504">
        <ele>180.2</ele>
        <time>2025-10-18T08:09:39Z</time>
      </trkpt>
      <trkpt lat="43.68776" lon="1.27498">
        <ele>180</ele>
        <time>2025-10-18T08:09:40Z</time>
      </trkpt>
      <trkpt lat="43.6878" lon="1.27493">
        <ele>180</ele>
        <time>2025-10-18T08:09:41Z</time>
      </trkpt>
      <trkpt lat="43.68784" lon="1.27487">
        <ele>179.8</ele>
        <time>2025-10-18T08:09:42Z</time>
      </trkpt>
      <trkpt lat="43.68789" lon="1.2748">
        <ele>180</ele>
        <time>2025-10-18T08:09:43Z</time>
      </trkpt>
      <trkpt lat="43.68793" lon="1.27474">
        <ele>179.8</ele>
        <time>2025-10-18T08:09:44Z</time>
      </trkpt>
      <trkpt lat="43.68798" lon="1.27467">
        <ele>179.8</ele>
        <time>2025-10-18T08:09:45Z</time>
      </trkpt>
      <trkpt lat="43.68803" lon="1.27461">
        <ele>179.8</ele>
        <time>2025-10-18T08:09:46Z</time>
      </trkpt>
      <trkpt lat="43.68808" lon="1.27455">
        <ele>179.8</ele>
        <time>2025-10-18T08:09:47Z</time>
      </trkpt>
      <trkpt lat="43.68813" lon="1.27448">
        <ele>179.6</ele>
        <time>2025-10-18T08:09:48Z</time>
      </trkpt>
      <trkpt lat="43.68818" lon="1.27441">
        <ele>179.6</ele>
        <time>2025-10-18T08:09:49Z</time>
      </trkpt>
      <trkpt lat="43.68822" lon="1.27435">
        <ele>179.6</ele>
        <time>2025-10-18T08:09:50Z</time>
      </trkpt>
      <trkpt lat="43.68827" lon="1.27429">
        <ele>179.6</ele>
        <time>2025-10-18T08:09:51Z</time>
      </trkpt>
      <trkpt lat="43.68831" lon="1.27423">
        <ele>179.6</ele>
        <time>2025-10-18T08:09:52Z</time>
      </trkpt>
      <trkpt lat="43.68835" lon="1.27417">
        <ele>179.6</ele>
        <time>2025-10-18T08:09:53Z</time>
      </trkpt>
      <trkpt lat="43.68839" lon="1.27412">
        <ele>179.8</ele>
        <time>2025-10-18T08:09:54Z</time>
      </trkpt>
      <trkpt lat="43.68844" lon="1.27406">
        <ele>179.8</ele>
        <time>2025-10-18T08:09:55Z</time>
      </trkpt>
      <trkpt lat="43.68848" lon="1.27401">
        <ele>180</ele>
        <time>2025-10-18T08:09:56Z</time>
      </trkpt>
      <trkpt lat="43.68852" lon="1.27396">
        <ele>180</ele>
        <time>2025-10-18T08:09:57Z</time>
      </trkpt>
      <trkpt lat="43.68856" lon="1.27391">
        <ele>180</ele>
        <time>2025-10-18T08:09:58Z</time>
      </trkpt>
      <trkpt lat="43.68859" lon="1.27386">
        <ele>180.2</ele>
        <time>2025-10-18T08:09:59Z</time>
      </trkpt>
      <trkpt lat="43.68863" lon="1.27381">
        <ele>180.2</ele>
        <time>2025-10-18T08:10:00Z</time>
      </trkpt>
      <trkpt lat="43.68866" lon="1.27376">
        <ele>180.2</ele>
        <time>2025-10-18T08:10:01Z</time>
      </trkpt>
      <trkpt lat="43.68869" lon="1.27371">
        <ele>180.2</ele>
        <time>2025-10-18T08:10:02Z</time>
      </trkpt>
      <trkpt lat="43.68872" lon="1.27366">
        <ele>180.4</ele>
        <time>2025-10-18T08:10:03Z</time>
      </trkpt>
      <trkpt lat="43.68875" lon="1.27362">
        <ele>180.4</ele>
        <time>2025-10-18T08:10:04Z</time>
      </trkpt>
      <trkpt lat="43.68879" lon="1.27358">
        <ele>180.4</ele>
        <time>2025-10-18T08:10:05Z</time>
      </trkpt>
      <trkpt lat="43.68882" lon="1.27353">
        <ele>180.4</ele>
        <time>2025-10-18T08:10:06Z</time>
      </trkpt>
      <trkpt lat="43.68885" lon="1.27349">
        <ele>180.2</ele>
        <time>2025-10-18T08:10:07Z</time>
      </trkpt>
      <trkpt lat="43.68888" lon="1.27344">
        <ele>180.2</ele>
        <time>2025-10-18T08:10:08Z</time>
      </trkpt>
      <trkpt lat="43.68891" lon="1.27339">
        <ele>180</ele>
        <time>2025-10-18T08:10:09Z</time>
      </trkpt>
      <trkpt lat="43.68895" lon="1.27335">
        <ele>180</ele>
        <time>2025-10-18T08:10:10Z</time>
      </trkpt>
      <trkpt lat="43.68899" lon="1.27331">
        <ele>180</ele>
        <time>2025-10-18T08:10:11Z</time>
      </trkpt>
      <trkpt lat="43.68903" lon="1.27326">
        <ele>179.8</ele>
        <time>2025-10-18T08:10:12Z</time>
      </trkpt>
      <trkpt lat="43.68907" lon="1.27322">
        <ele>179.8</ele>
        <time>2025-10-18T08:10:13Z</time>
      </trkpt>
      <trkpt lat="43.68911" lon="1.27318">
        <ele>179.8</ele>
        <time>2025-10-18T08:10:14Z</time>
      </trkpt>
      <trkpt lat="43.68915" lon="1.27314">
        <ele>179.8</ele>
        <time>2025-10-18T08:10:15Z</time>
      </trkpt>
      <trkpt lat="43.68918" lon="1.27309">
        <ele>180</ele>
        <time>2025-10-18T08:10:16Z</time>
      </trkpt>
      <trkpt lat="43.68921" lon="1.27305">
        <ele>180</ele>
        <time>2025-10-18T08:10:17Z</time>
      </trkpt>
      <trkpt lat="43.68925" lon="1.273">
        <ele>180</ele>
        <time>2025-10-18T08:10:18Z</time>
      </trkpt>
      <trkpt lat="43.68929" lon="1.27295">
        <ele>180</ele>
        <time>2025-10-18T08:10:19Z</time>
      </trkpt>
      <trkpt lat="43.68933" lon="1.2729">
        <ele>180</ele>
        <time>2025-10-18T08:10:20Z</time>
      </trkpt>
      <trkpt lat="43.68937" lon="1.27285">
        <ele>179.8</ele>
        <time>2025-10-18T08:10:21Z</time>
      </trkpt>
      <trkpt lat="43.68941" lon="1.2728">
        <ele>179.6</ele>
        <time>2025-10-18T08:10:22Z</time>
      </trkpt>
      <trkpt lat="43.68945" lon="1.27275">
        <ele>179.6</ele>
        <time>2025-10-18T08:10:23Z</time>
      </trkpt>
      <trkpt lat="43.68948" lon="1.2727">
        <ele>179.6</ele>
        <time>2025-10-18T08:10:24Z</time>
      </trkpt>
      <trkpt lat="43.68952" lon="1.27265">
        <ele>179.6</ele>
        <time>2025-10-18T08:10:25Z</time>
      </trkpt>
      <trkpt lat="43.68955" lon="1.2726">
        <ele>179.6</ele>
        <time>2025-10-18T08:10:26Z</time>
      </trkpt>
      <trkpt lat="43.68959" lon="1.27256">
        <ele>179.6</ele>
        <time>2025-10-18T08:10:27Z</time>
      </trkpt>
      <trkpt lat="43.68962" lon="1.27252">
        <ele>179.6</ele>
        <time>2025-10-18T08:10:28Z</time>
      </trkpt>
      <trkpt lat="43.68965" lon="1.27248">
        <ele>179.6</ele>
        <time>2025-10-18T08:10:29Z</time>
      </trkpt>
      <trkpt lat="43.68967" lon="1.27243">
        <ele>179.6</ele>
        <time>2025-10-18T08:10:30Z</time>
      </trkpt>
      <trkpt lat="43.68967" lon="1.27238">
        <ele>179.6</ele>
        <time>2025-10-18T08:10:31Z</time>
      </trkpt>
      <trkpt lat="43.68966" lon="1.27235">
        <ele>179.8</ele>
        <time>2025-10-18T08:10:32Z</time>
      </trkpt>
      <trkpt lat="43.68963" lon="1.27231">
        <ele>179.8</ele>
        <time>2025-10-18T08:10:33Z</time>
      </trkpt>
      <trkpt lat="43.68962" lon="1.27228">
        <ele>179.8</ele>
        <time>2025-10-18T08:10:34Z</time>
      </trkpt>
      <trkpt lat="43.68958" lon="1.27225">
        <ele>179.8</ele>
        <time>2025-10-18T08:10:35Z</time>
      </trkpt>
      <trkpt lat="43.68956" lon="1.27221">
        <ele>179.6</ele>
        <time>2025-10-18T08:10:36Z</time>
      </trkpt>
      <trkpt lat="43.68954" lon="1.27216">
        <ele>179.6</ele>
        <time>2025-10-18T08:10:37Z</time>
      </trkpt>
      <trkpt lat="43.68951" lon="1.27212">
        <ele>179.6</ele>
        <time>2025-10-18T08:10:38Z</time>
      </trkpt>
      <trkpt lat="43.68949" lon="1.27208">
        <ele>179.6</ele>
        <time>2025-10-18T08:10:39Z</time>
      </trkpt>
      <trkpt lat="43.68946" lon="1.27204">
        <ele>179.6</ele>
        <time>2025-10-18T08:10:40Z</time>
      </trkpt>
      <trkpt lat="43.68943" lon="1.27199">
        <ele>179.6</ele>
        <time>2025-10-18T08:10:41Z</time>
      </trkpt>
      <trkpt lat="43.68941" lon="1.27195">
        <ele>179.6</ele>
        <time>2025-10-18T08:10:42Z</time>
      </trkpt>
      <trkpt lat="43.68939" lon="1.27191">
        <ele>179.6</ele>
        <time>2025-10-18T08:10:43Z</time>
      </trkpt>
      <trkpt lat="43.68937" lon="1.27187">
        <ele>179.8</ele>
        <time>2025-10-18T08:10:44Z</time>
      </trkpt>
      <trkpt lat="43.68935" lon="1.27183">
        <ele>179.8</ele>
        <time>2025-10-18T08:10:45Z</time>
      </trkpt>
      <trkpt lat="43.68933" lon="1.27181">
        <ele>179.8</ele>
        <time>2025-10-18T08:10:46Z</time>
      </trkpt>
      <trkpt lat="43.68929" lon="1.27181">
        <ele>179.8</ele>
        <time>2025-10-18T08:10:47Z</time>
      </trkpt>
      <trkpt lat="43.68925" lon="1.27183">
        <ele>179.8</ele>
        <time>2025-10-18T08:10:48Z</time>
      </trkpt>
      <trkpt lat="43.68922" lon="1.27186">
        <ele>179.8</ele>
        <time>2025-10-18T08:10:49Z</time>
      </trkpt>
      <trkpt lat="43.68919" lon="1.27191">
        <ele>179.8</ele>
        <time>2025-10-18T08:10:50Z</time>
      </trkpt>
      <trkpt lat="43.68916" lon="1.27195">
        <ele>179.8</ele>
        <time>2025-10-18T08:10:51Z</time>
      </trkpt>
      <trkpt lat="43.68913" lon="1.272">
        <ele>179.6</ele>
        <time>2025-10-18T08:10:52Z</time>
      </trkpt>
      <trkpt lat="43.6891" lon="1.27205">
        <ele>179.6</ele>
        <time>2025-10-18T08:10:53Z</time>
      </trkpt>
      <trkpt lat="43.68907" lon="1.27208">
        <ele>179.6</ele>
        <time>2025-10-18T08:10:54Z</time>
      </trkpt>
      <trkpt lat="43.68904" lon="1.27212">
        <ele>179.6</ele>
        <time>2025-10-18T08:10:55Z</time>
      </trkpt>
      <trkpt lat="43.68901" lon="1.27217">
        <ele>179.6</ele>
        <time>2025-10-18T08:10:56Z</time>
      </trkpt>
      <trkpt lat="43.68897" lon="1.27221">
        <ele>179.8</ele>
        <time>2025-10-18T08:10:57Z</time>
      </trkpt>
      <trkpt lat="43.68894" lon="1.27225">
        <ele>179.8</ele>
        <time>2025-10-18T08:10:58Z</time>
      </trkpt>
      <trkpt lat="43.6889" lon="1.27229">
        <ele>179.8</ele>
        <time>2025-10-18T08:10:59Z</time>
      </trkpt>
      <trkpt lat="43.68886" lon="1.27233">
        <ele>179.6</ele>
        <time>2025-10-18T08:11:00Z</time>
      </trkpt>
      <trkpt lat="43.68882" lon="1.27237">
        <ele>179.6</ele>
        <time>2025-10-18T08:11:01Z</time>
      </trkpt>
      <trkpt lat="43.68878" lon="1.27241">
        <ele>179.4</ele>
        <time>2025-10-18T08:11:02Z</time>
      </trkpt>
      <trkpt lat="43.68874" lon="1.27246">
        <ele>179.2</ele>
        <time>2025-10-18T08:11:03Z</time>
      </trkpt>
      <trkpt lat="43.6887" lon="1.27251">
        <ele>179.2</ele>
        <time>2025-10-18T08:11:04Z</time>
      </trkpt>
      <trkpt lat="43.68866" lon="1.27255">
        <ele>179</ele>
        <time>2025-10-18T08:11:05Z</time>
      </trkpt>
      <trkpt lat="43.68862" lon="1.2726">
        <ele>178.8</ele>
        <time>2025-10-18T08:11:06Z</time>
      </trkpt>
      <trkpt lat="43.68857" lon="1.27263">
        <ele>178.8</ele>
        <time>2025-10-18T08:11:07Z</time>
      </trkpt>
      <trkpt lat="43.68852" lon="1.27267">
        <ele>178.6</ele>
        <time>2025-10-18T08:11:08Z</time>
      </trkpt>
      <trkpt lat="43.68848" lon="1.2727">
        <ele>178.4</ele>
        <time>2025-10-18T08:11:09Z</time>
      </trkpt>
      <trkpt lat="43.68842" lon="1.27273">
        <ele>178.2</ele>
        <time>2025-10-18T08:11:10Z</time>
      </trkpt>
      <trkpt lat="43.68837" lon="1.27276">
        <ele>178.2</ele>
        <time>2025-10-18T08:11:11Z</time>
      </trkpt>
      <trkpt lat="43.68831" lon="1.27278">
        <ele>178</ele>
        <time>2025-10-18T08:11:12Z</time>
      </trkpt>
      <trkpt lat="43.68826" lon="1.27279">
        <ele>178</ele>
        <time>2025-10-18T08:11:13Z</time>
      </trkpt>
      <trkpt lat="43.68821" lon="1.27279">
        <ele>178</ele>
        <time>2025-10-18T08:11:14Z</time>
      </trkpt>
      <trkpt lat="43.68817" lon="1.27278">
        <ele>178</ele>
        <time>2025-10-18T08:11:15Z</time>
      </trkpt>
      <trkpt lat="43.68813" lon="1.27277">
        <ele>178</ele>
        <time>2025-10-18T08:11:16Z</time>
      </trkpt>
      <trkpt lat="43.6881" lon="1.27275">
        <ele>178</ele>
        <time>2025-10-18T08:11:17Z</time>
      </trkpt>
      <trkpt lat="43.68807" lon="1.27273">
        <ele>177.8</ele>
        <time>2025-10-18T08:11:18Z</time>
      </trkpt>
      <trkpt lat="43.68804" lon="1.27273">
        <ele>177.8</ele>
        <time>2025-10-18T08:11:19Z</time>
      </trkpt>
      <trkpt lat="43.68801" lon="1.27272">
        <ele>177.8</ele>
        <time>2025-10-18T08:11:20Z</time>
      </trkpt>
      <trkpt lat="43.68798" lon="1.27271">
        <ele>177.8</ele>
        <time>2025-10-18T08:11:21Z</time>
      </trkpt>
      <trkpt lat="43.68794" lon="1.2727">
        <ele>177.8</ele>
        <time>2025-10-18T08:11:22Z</time>
      </trkpt>
      <trkpt lat="43.6879" lon="1.27268">
        <ele>177.6</ele>
        <time>2025-10-18T08:11:23Z</time>
      </trkpt>
      <trkpt lat="43.68786" lon="1.27266">
        <ele>177.4</ele>
        <time>2025-10-18T08:11:24Z</time>
      </trkpt>
      <trkpt lat="43.68782" lon="1.27263">
        <ele>177.2</ele>
        <time>2025-10-18T08:11:25Z</time>
      </trkpt>
      <trkpt lat="43.68777" lon="1.2726">
        <ele>177</ele>
        <time>2025-10-18T08:11:26Z</time>
      </trkpt>
      <trkpt lat="43.68774" lon="1.27257">
        <ele>176.4</ele>
        <time>2025-10-18T08:11:27Z</time>
      </trkpt>
      <trkpt lat="43.68771" lon="1.27255">
        <ele>176.2</ele>
        <time>2025-10-18T08:11:28Z</time>
      </trkpt>
      <trkpt lat="43.68768" lon="1.27253">
        <ele>176</ele>
        <time>2025-10-18T08:11:29Z</time>
      </trkpt>
      <trkpt lat="43.68766" lon="1.27253">
        <ele>175.8</ele>
        <time>2025-10-18T08:11:30Z</time>
      </trkpt>
      <trkpt lat="43.68765" lon="1.27253">
        <ele>175.8</ele>
        <time>2025-10-18T08:11:31Z</time>
      </trkpt>
      <trkpt lat="43.68765" lon="1.27255">
        <ele>175.8</ele>
        <time>2025-10-18T08:11:32Z</time>
      </trkpt>
      <trkpt lat="43.68766" lon="1.27256">
        <ele>175.8</ele>
        <time>2025-10-18T08:11:33Z</time>
      </trkpt>
      <trkpt lat="43.68767" lon="1.27256">
        <ele>175.8</ele>
        <time>2025-10-18T08:11:34Z</time>
      </trkpt>
      <trkpt lat="43.68769" lon="1.27257">
        <ele>175.8</ele>
        <time>2025-10-18T08:11:35Z</time>
      </trkpt>
      <trkpt lat="43.6877" lon="1.27257">
        <ele>175.8</ele>
        <time>2025-10-18T08:11:36Z</time>
      </trkpt>
      <trkpt lat="43.6877" lon="1.27257">
        <ele>176</ele>
        <time>2025-10-18T08:11:37Z</time>
      </trkpt>
      <trkpt lat="43.68771" lon="1.27258">
        <ele>176</ele>
        <time>2025-10-18T08:11:38Z</time>
      </trkpt>
      <trkpt lat="43.68771" lon="1.27257">
        <ele>176</ele>
        <time>2025-10-18T08:11:39Z</time>
      </trkpt>
      <trkpt lat="43.68771" lon="1.27256">
        <ele>176</ele>
        <time>2025-10-18T08:11:40Z</time>
      </trkpt>
      <trkpt lat="43.68771" lon="1.27255">
        <ele>176</ele>
        <time>2025-10-18T08:11:41Z</time>
      </trkpt>
      <trkpt lat="43.6877" lon="1.27254">
        <ele>176</ele>
        <time>2025-10-18T08:11:42Z</time>
      </trkpt>
      <trkpt lat="43.68768" lon="1.27254">
        <ele>176</ele>
        <time>2025-10-18T08:11:43Z</time>
      </trkpt>
      <trkpt lat="43.68765" lon="1.27252">
        <ele>176</ele>
        <time>2025-10-18T08:11:44Z</time>
      </trkpt>
      <trkpt lat="43.68762" lon="1.2725">
        <ele>175.8</ele>
        <time>2025-10-18T08:11:45Z</time>
      </trkpt>
      <trkpt lat="43.68758" lon="1.27248">
        <ele>175.6</ele>
        <time>2025-10-18T08:11:46Z</time>
      </trkpt>
      <trkpt lat="43.68754" lon="1.27245">
        <ele>175.4</ele>
        <time>2025-10-18T08:11:47Z</time>
      </trkpt>
      <trkpt lat="43.6875" lon="1.27242">
        <ele>175.2</ele>
        <time>2025-10-18T08:11:48Z</time>
      </trkpt>
      <trkpt lat="43.68745" lon="1.27239">
        <ele>175</ele>
        <time>2025-10-18T08:11:49Z</time>
      </trkpt>
      <trkpt lat="43.6874" lon="1.27235">
        <ele>174.8</ele>
        <time>2025-10-18T08:11:50Z</time>
      </trkpt>
      <trkpt lat="43.68734" lon="1.27231">
        <ele>174.6</ele>
        <time>2025-10-18T08:11:51Z</time>
      </trkpt>
      <trkpt lat="43.68729" lon="1.27226">
        <ele>174.4</ele>
        <time>2025-10-18T08:11:52Z</time>
      </trkpt>
      <trkpt lat="43.68723" lon="1.27221">
        <ele>174.2</ele>
        <time>2025-10-18T08:11:53Z</time>
      </trkpt>
      <trkpt lat="43.68717" lon="1.27217">
        <ele>174</ele>
        <time>2025-10-18T08:11:54Z</time>
      </trkpt>
      <trkpt lat="43.68711" lon="1.27212">
        <ele>173.8</ele>
        <time>2025-10-18T08:11:55Z</time>
      </trkpt>
      <trkpt lat="43.68705" lon="1.27206">
        <ele>173.6</ele>
        <time>2025-10-18T08:11:56Z</time>
      </trkpt>
      <trkpt lat="43.68699" lon="1.27201">
        <ele>173.4</ele>
        <time>2025-10-18T08:11:57Z</time>
      </trkpt>
      <trkpt lat="43.68693" lon="1.27195">
        <ele>173.2</ele>
        <time>2025-10-18T08:11:58Z</time>
      </trkpt>
      <trkpt lat="43.68687" lon="1.27189">
        <ele>173</ele>
        <time>2025-10-18T08:11:59Z</time>
      </trkpt>
      <trkpt lat="43.68682" lon="1.27183">
        <ele>172.8</ele>
        <time>2025-10-18T08:12:00Z</time>
      </trkpt>
      <trkpt lat="43.68676" lon="1.27177">
        <ele>172.6</ele>
        <time>2025-10-18T08:12:01Z</time>
      </trkpt>
      <trkpt lat="43.6867" lon="1.27171">
        <ele>172.6</ele>
        <time>2025-10-18T08:12:02Z</time>
      </trkpt>
      <trkpt lat="43.68665" lon="1.27165">
        <ele>172.6</ele>
        <time>2025-10-18T08:12:03Z</time>
      </trkpt>
      <trkpt lat="43.68659" lon="1.27159">
        <ele>172.6</ele>
        <time>2025-10-18T08:12:04Z</time>
      </trkpt>
      <trkpt lat="43.68653" lon="1.27153">
        <ele>172.8</ele>
        <time>2025-10-18T08:12:05Z</time>
      </trkpt>
      <trkpt lat="43.68647" lon="1.27147">
        <ele>172.8</ele>
        <time>2025-10-18T08:12:06Z</time>
      </trkpt>
      <trkpt lat="43.68641" lon="1.2714">
        <ele>173</ele>
        <time>2025-10-18T08:12:07Z</time>
      </trkpt>
      <trkpt lat="43.68635" lon="1.27133">
        <ele>173</ele>
        <time>2025-10-18T08:12:08Z</time>
      </trkpt>
      <trkpt lat="43.68629" lon="1.27127">
        <ele>173</ele>
        <time>2025-10-18T08:12:09Z</time>
      </trkpt>
      <trkpt lat="43.68622" lon="1.27122">
        <ele>173.2</ele>
        <time>2025-10-18T08:12:10Z</time>
      </trkpt>
      <trkpt lat="43.68616" lon="1.27116">
        <ele>173.2</ele>
        <time>2025-10-18T08:12:11Z</time>
      </trkpt>
      <trkpt lat="43.6861" lon="1.2711">
        <ele>173.2</ele>
        <time>2025-10-18T08:12:12Z</time>
      </trkpt>
      <trkpt lat="43.68604" lon="1.27102">
        <ele>173.2</ele>
        <time>2025-10-18T08:12:13Z</time>
      </trkpt>
      <trkpt lat="43.68599" lon="1.27093">
        <ele>173.2</ele>
        <time>2025-10-18T08:12:14Z</time>
      </trkpt>
      <trkpt lat="43.68595" lon="1.27084">
        <ele>173.4</ele>
        <time>2025-10-18T08:12:15Z</time>
      </trkpt>
      <trkpt lat="43.68592" lon="1.27074">
        <ele>173.4</ele>
        <time>2025-10-18T08:12:16Z</time>
      </trkpt>
      <trkpt lat="43.68589" lon="1.27065">
        <ele>173.6</ele>
        <time>2025-10-18T08:12:17Z</time>
      </trkpt>
      <trkpt lat="43.68586" lon="1.27055">
        <ele>173.8</ele>
        <time>2025-10-18T08:12:18Z</time>
      </trkpt>
      <trkpt lat="43.68584" lon="1.27046">
        <ele>174</ele>
        <time>2025-10-18T08:12:19Z</time>
      </trkpt>
      <trkpt lat="43.68582" lon="1.27037">
        <ele>174</ele>
        <time>2025-10-18T08:12:20Z</time>
      </trkpt>
      <trkpt lat="43.6858" lon="1.27028">
        <ele>174.2</ele>
        <time>2025-10-18T08:12:21Z</time>
      </trkpt>
      <trkpt lat="43.68577" lon="1.27019">
        <ele>174.2</ele>
        <time>2025-10-18T08:12:22Z</time>
      </trkpt>
      <trkpt lat="43.68574" lon="1.2701">
        <ele>174.4</ele>
        <time>2025-10-18T08:12:23Z</time>
      </trkpt>
      <trkpt lat="43.68571" lon="1.27002">
        <ele>174.4</ele>
        <time>2025-10-18T08:12:24Z</time>
      </trkpt>
      <trkpt lat="43.68568" lon="1.26993">
        <ele>174.6</ele>
        <time>2025-10-18T08:12:25Z</time>
      </trkpt>
      <trkpt lat="43.68564" lon="1.26985">
        <ele>174.6</ele>
        <time>2025-10-18T08:12:26Z</time>
      </trkpt>
      <trkpt lat="43.68561" lon="1.26978">
        <ele>174.8</ele>
        <time>2025-10-18T08:12:27Z</time>
      </trkpt>
      <trkpt lat="43.68556" lon="1.2697">
        <ele>174.8</ele>
        <time>2025-10-18T08:12:28Z</time>
      </trkpt>
      <trkpt lat="43.68552" lon="1.26963">
        <ele>174.8</ele>
        <time>2025-10-18T08:12:29Z</time>
      </trkpt>
      <trkpt lat="43.68548" lon="1.26956">
        <ele>174.8</ele>
        <time>2025-10-18T08:12:30Z</time>
      </trkpt>
      <trkpt lat="43.68543" lon="1.26949">
        <ele>174.8</ele>
        <time>2025-10-18T08:12:31Z</time>
      </trkpt>
      <trkpt lat="43.68539" lon="1.26944">
        <ele>175</ele>
        <time>2025-10-18T08:12:32Z</time>
      </trkpt>
      <trkpt lat="43.68535" lon="1.26938">
        <ele>175.2</ele>
        <time>2025-10-18T08:12:33Z</time>
      </trkpt>
      <trkpt lat="43.68531" lon="1.26934">
        <ele>175.6</ele>
        <time>2025-10-18T08:12:34Z</time>
      </trkpt>
      <trkpt lat="43.68527" lon="1.2693">
        <ele>176</ele>
        <time>2025-10-18T08:12:35Z</time>
      </trkpt>
      <trkpt lat="43.68523" lon="1.26926">
        <ele>176.4</ele>
        <time>2025-10-18T08:12:36Z</time>
      </trkpt>
      <trkpt lat="43.68519" lon="1.26922">
        <ele>177</ele>
        <time>2025-10-18T08:12:37Z</time>
      </trkpt>
      <trkpt lat="43.68514" lon="1.26918">
        <ele>177.2</ele>
        <time>2025-10-18T08:12:38Z</time>
      </trkpt>
      <trkpt lat="43.68509" lon="1.26915">
        <ele>177.6</ele>
        <time>2025-10-18T08:12:39Z</time>
      </trkpt>
      <trkpt lat="43.68505" lon="1.26914">
        <ele>178</ele>
        <time>2025-10-18T08:12:40Z</time>
      </trkpt>
      <trkpt lat="43.68501" lon="1.26912">
        <ele>178.2</ele>
        <time>2025-10-18T08:12:41Z</time>
      </trkpt>
      <trkpt lat="43.68499" lon="1.26908">
        <ele>178.6</ele>
        <time>2025-10-18T08:12:42Z</time>
      </trkpt>
      <trkpt lat="43.68499" lon="1.26904">
        <ele>178.8</ele>
        <time>2025-10-18T08:12:43Z</time>
      </trkpt>
      <trkpt lat="43.685" lon="1.26899">
        <ele>179</ele>
        <time>2025-10-18T08:12:44Z</time>
      </trkpt>
      <trkpt lat="43.68502" lon="1.26895">
        <ele>179.2</ele>
        <time>2025-10-18T08:12:45Z</time>
      </trkpt>
      <trkpt lat="43.68505" lon="1.26891">
        <ele>179.2</ele>
        <time>2025-10-18T08:12:46Z</time>
      </trkpt>
      <trkpt lat="43.68509" lon="1.26887">
        <ele>179.2</ele>
        <time>2025-10-18T08:12:47Z</time>
      </trkpt>
      <trkpt lat="43.68514" lon="1.26883">
        <ele>179.2</ele>
        <time>2025-10-18T08:12:48Z</time>
      </trkpt>
      <trkpt lat="43.68518" lon="1.26879">
        <ele>179.2</ele>
        <time>2025-10-18T08:12:49Z</time>
      </trkpt>
      <trkpt lat="43.68523" lon="1.26874">
        <ele>179</ele>
        <time>2025-10-18T08:12:50Z</time>
      </trkpt>
      <trkpt lat="43.68528" lon="1.26869">
        <ele>178.8</ele>
        <time>2025-10-18T08:12:51Z</time>
      </trkpt>
      <trkpt lat="43.68534" lon="1.26863">
        <ele>178.4</ele>
        <time>2025-10-18T08:12:52Z</time>
      </trkpt>
      <trkpt lat="43.6854" lon="1.26858">
        <ele>178</ele>
        <time>2025-10-18T08:12:53Z</time>
      </trkpt>
      <trkpt lat="43.68546" lon="1.26853">
        <ele>177.4</ele>
        <time>2025-10-18T08:12:54Z</time>
      </trkpt>
      <trkpt lat="43.68551" lon="1.26848">
        <ele>177.2</ele>
        <time>2025-10-18T08:12:55Z</time>
      </trkpt>
      <trkpt lat="43.68554" lon="1.26841">
        <ele>176.8</ele>
        <time>2025-10-18T08:12:56Z</time>
      </trkpt>
      <trkpt lat="43.68556" lon="1.26833">
        <ele>176.6</ele>
        <time>2025-10-18T08:12:57Z</time>
      </trkpt>
      <trkpt lat="43.68557" lon="1.26825">
        <ele>176.4</ele>
        <time>2025-10-18T08:12:58Z</time>
      </trkpt>
      <trkpt lat="43.68557" lon="1.26815">
        <ele>176.2</ele>
        <time>2025-10-18T08:12:59Z</time>
      </trkpt>
      <trkpt lat="43.68559" lon="1.26805">
        <ele>176</ele>
        <time>2025-10-18T08:13:00Z</time>
      </trkpt>
      <trkpt lat="43.68561" lon="1.26796">
        <ele>175.8</ele>
        <time>2025-10-18T08:13:01Z</time>
      </trkpt>
      <trkpt lat="43.68562" lon="1.26787">
        <ele>175.6</ele>
        <time>2025-10-18T08:13:02Z</time>
      </trkpt>
      <trkpt lat="43.68565" lon="1.26778">
        <ele>175.6</ele>
        <time>2025-10-18T08:13:03Z</time>
      </trkpt>
      <trkpt lat="43.68568" lon="1.26769">
        <ele>175.6</ele>
        <time>2025-10-18T08:13:04Z</time>
      </trkpt>
      <trkpt lat="43.68571" lon="1.2676">
        <ele>175.6</ele>
        <time>2025-10-18T08:13:05Z</time>
      </trkpt>
      <trkpt lat="43.68574" lon="1.26752">
        <ele>175.8</ele>
        <time>2025-10-18T08:13:06Z</time>
      </trkpt>
      <trkpt lat="43.68578" lon="1.26742">
        <ele>175.8</ele>
        <time>2025-10-18T08:13:07Z</time>
      </trkpt>
      <trkpt lat="43.68581" lon="1.26734">
        <ele>175.8</ele>
        <time>2025-10-18T08:13:08Z</time>
      </trkpt>
      <trkpt lat="43.68583" lon="1.26724">
        <ele>176</ele>
        <time>2025-10-18T08:13:09Z</time>
      </trkpt>
      <trkpt lat="43.68585" lon="1.26715">
        <ele>176.2</ele>
        <time>2025-10-18T08:13:10Z</time>
      </trkpt>
      <trkpt lat="43.68587" lon="1.26706">
        <ele>176.6</ele>
        <time>2025-10-18T08:13:11Z</time>
      </trkpt>
      <trkpt lat="43.68589" lon="1.26698">
        <ele>176.8</ele>
        <time>2025-10-18T08:13:12Z</time>
      </trkpt>
      <trkpt lat="43.68591" lon="1.2669">
        <ele>177.2</ele>
        <time>2025-10-18T08:13:13Z</time>
      </trkpt>
      <trkpt lat="43.68594" lon="1.26683">
        <ele>177.6</ele>
        <time>2025-10-18T08:13:14Z</time>
      </trkpt>
      <trkpt lat="43.68596" lon="1.26675">
        <ele>178</ele>
        <time>2025-10-18T08:13:15Z</time>
      </trkpt>
      <trkpt lat="43.68598" lon="1.26668">
        <ele>178.4</ele>
        <time>2025-10-18T08:13:16Z</time>
      </trkpt>
      <trkpt lat="43.686" lon="1.26661">
        <ele>178.8</ele>
        <time>2025-10-18T08:13:17Z</time>
      </trkpt>
      <trkpt lat="43.68602" lon="1.26654">
        <ele>179.2</ele>
        <time>2025-10-18T08:13:18Z</time>
      </trkpt>
      <trkpt lat="43.68604" lon="1.26647">
        <ele>179.4</ele>
        <time>2025-10-18T08:13:19Z</time>
      </trkpt>
      <trkpt lat="43.68607" lon="1.2664">
        <ele>179.6</ele>
        <time>2025-10-18T08:13:20Z</time>
      </trkpt>
      <trkpt lat="43.68609" lon="1.26632">
        <ele>179.8</ele>
        <time>2025-10-18T08:13:21Z</time>
      </trkpt>
      <trkpt lat="43.68612" lon="1.26625">
        <ele>180</ele>
        <time>2025-10-18T08:13:22Z</time>
      </trkpt>
      <trkpt lat="43.68614" lon="1.26617">
        <ele>180.2</ele>
        <time>2025-10-18T08:13:23Z</time>
      </trkpt>
      <trkpt lat="43.68617" lon="1.2661">
        <ele>180.2</ele>
        <time>2025-10-18T08:13:24Z</time>
      </trkpt>
      <trkpt lat="43.68619" lon="1.26602">
        <ele>180.4</ele>
        <time>2025-10-18T08:13:25Z</time>
      </trkpt>
      <trkpt lat="43.68622" lon="1.26594">
        <ele>180.6</ele>
        <time>2025-10-18T08:13:26Z</time>
      </trkpt>
      <trkpt lat="43.68624" lon="1.26588">
        <ele>180.6</ele>
        <time>2025-10-18T08:13:27Z</time>
      </trkpt>
      <trkpt lat="43.68627" lon="1.2658">
        <ele>180.8</ele>
        <time>2025-10-18T08:13:28Z</time>
      </trkpt>
      <trkpt lat="43.6863" lon="1.26573">
        <ele>180.8</ele>
        <time>2025-10-18T08:13:29Z</time>
      </trkpt>
      <trkpt lat="43.68632" lon="1.26565">
        <ele>181</ele>
        <time>2025-10-18T08:13:30Z</time>
      </trkpt>
      <trkpt lat="43.68635" lon="1.26558">
        <ele>181</ele>
        <time>2025-10-18T08:13:31Z</time>
      </trkpt>
      <trkpt lat="43.68638" lon="1.26551">
        <ele>181.2</ele>
        <time>2025-10-18T08:13:32Z</time>
      </trkpt>
      <trkpt lat="43.6864" lon="1.26543">
        <ele>181.2</ele>
        <time>2025-10-18T08:13:33Z</time>
      </trkpt>
      <trkpt lat="43.68643" lon="1.26536">
        <ele>181.2</ele>
        <time>2025-10-18T08:13:34Z</time>
      </trkpt>
      <trkpt lat="43.68647" lon="1.26528">
        <ele>181.2</ele>
        <time>2025-10-18T08:13:35Z</time>
      </trkpt>
      <trkpt lat="43.6865" lon="1.26521">
        <ele>181.2</ele>
        <time>2025-10-18T08:13:36Z</time>
      </trkpt>
      <trkpt lat="43.68653" lon="1.26514">
        <ele>181.2</ele>
        <time>2025-10-18T08:13:37Z</time>
      </trkpt>
      <trkpt lat="43.68657" lon="1.26506">
        <ele>181.2</ele>
        <time>2025-10-18T08:13:38Z</time>
      </trkpt>
      <trkpt lat="43.6866" lon="1.26498">
        <ele>181.2</ele>
        <time>2025-10-18T08:13:39Z</time>
      </trkpt>
      <trkpt lat="43.68664" lon="1.26491">
        <ele>181.2</ele>
        <time>2025-10-18T08:13:40Z</time>
      </trkpt>
      <trkpt lat="43.68668" lon="1.26484">
        <ele>181.2</ele>
        <time>2025-10-18T08:13:41Z</time>
      </trkpt>
      <trkpt lat="43.68671" lon="1.26476">
        <ele>181.2</ele>
        <time>2025-10-18T08:13:42Z</time>
      </trkpt>
      <trkpt lat="43.68675" lon="1.26468">
        <ele>181.2</ele>
        <time>2025-10-18T08:13:43Z</time>
      </trkpt>
      <trkpt lat="43.68679" lon="1.26461">
        <ele>181.2</ele>
        <time>2025-10-18T08:13:44Z</time>
      </trkpt>
      <trkpt lat="43.68683" lon="1.26454">
        <ele>181.2</ele>
        <time>2025-10-18T08:13:45Z</time>
      </trkpt>
      <trkpt lat="43.68687" lon="1.26447">
        <ele>181</ele>
        <time>2025-10-18T08:13:46Z</time>
      </trkpt>
      <trkpt lat="43.68691" lon="1.26441">
        <ele>181</ele>
        <time>2025-10-18T08:13:47Z</time>
      </trkpt>
      <trkpt lat="43.68695" lon="1.26434">
        <ele>181</ele>
        <time>2025-10-18T08:13:48Z</time>
      </trkpt>
      <trkpt lat="43.68699" lon="1.26428">
        <ele>181</ele>
        <time>2025-10-18T08:13:49Z</time>
      </trkpt>
      <trkpt lat="43.68704" lon="1.26421">
        <ele>181</ele>
        <time>2025-10-18T08:13:50Z</time>
      </trkpt>
      <trkpt lat="43.68708" lon="1.26415">
        <ele>181</ele>
        <time>2025-10-18T08:13:51Z</time>
      </trkpt>
      <trkpt lat="43.68712" lon="1.26409">
        <ele>181</ele>
        <time>2025-10-18T08:13:52Z</time>
      </trkpt>
      <trkpt lat="43.68717" lon="1.26403">
        <ele>181</ele>
        <time>2025-10-18T08:13:53Z</time>
      </trkpt>
      <trkpt lat="43.68721" lon="1.26398">
        <ele>181</ele>
        <time>2025-10-18T08:13:54Z</time>
      </trkpt>
      <trkpt lat="43.68726" lon="1.26393">
        <ele>181</ele>
        <time>2025-10-18T08:13:55Z</time>
      </trkpt>
      <trkpt lat="43.68729" lon="1.26388">
        <ele>181</ele>
        <time>2025-10-18T08:13:56Z</time>
      </trkpt>
      <trkpt lat="43.68732" lon="1.26385">
        <ele>181</ele>
        <time>2025-10-18T08:13:57Z</time>
      </trkpt>
      <trkpt lat="43.68735" lon="1.26383">
        <ele>181</ele>
        <time>2025-10-18T08:13:58Z</time>
      </trkpt>
      <trkpt lat="43.68737" lon="1.26381">
        <ele>181</ele>
        <time>2025-10-18T08:13:59Z</time>
      </trkpt>
      <trkpt lat="43.68738" lon="1.26379">
        <ele>181</ele>
        <time>2025-10-18T08:14:00Z</time>
      </trkpt>
      <trkpt lat="43.6874" lon="1.26377">
        <ele>181</ele>
        <time>2025-10-18T08:14:01Z</time>
      </trkpt>
      <trkpt lat="43.68742" lon="1.26375">
        <ele>181</ele>
        <time>2025-10-18T08:14:02Z</time>
      </trkpt>
      <trkpt lat="43.68744" lon="1.26372">
        <ele>181</ele>
        <time>2025-10-18T08:14:03Z</time>
      </trkpt>
      <trkpt lat="43.68746" lon="1.26369">
        <ele>181</ele>
        <time>2025-10-18T08:14:04Z</time>
      </trkpt>
      <trkpt lat="43.6875" lon="1.26365">
        <ele>181</ele>
        <time>2025-10-18T08:14:05Z</time>
      </trkpt>
      <trkpt lat="43.68753" lon="1.26361">
        <ele>180.8</ele>
        <time>2025-10-18T08:14:06Z</time>
      </trkpt>
      <trkpt lat="43.68757" lon="1.26357">
        <ele>180.8</ele>
        <time>2025-10-18T08:14:07Z</time>
      </trkpt>
      <trkpt lat="43.6876" lon="1.26353">
        <ele>180.6</ele>
        <time>2025-10-18T08:14:08Z</time>
      </trkpt>
      <trkpt lat="43.68765" lon="1.26349">
        <ele>180.4</ele>
        <time>2025-10-18T08:14:09Z</time>
      </trkpt>
      <trkpt lat="43.6877" lon="1.26344">
        <ele>180.4</ele>
        <time>2025-10-18T08:14:10Z</time>
      </trkpt>
      <trkpt lat="43.68775" lon="1.26339">
        <ele>180.2</ele>
        <time>2025-10-18T08:14:11Z</time>
      </trkpt>
      <trkpt lat="43.68781" lon="1.26335">
        <ele>180</ele>
        <time>2025-10-18T08:14:12Z</time>
      </trkpt>
      <trkpt lat="43.68786" lon="1.2633">
        <ele>179.8</ele>
        <time>2025-10-18T08:14:13Z</time>
      </trkpt>
      <trkpt lat="43.68792" lon="1.26325">
        <ele>179.8</ele>
        <time>2025-10-18T08:14:14Z</time>
      </trkpt>
      <trkpt lat="43.68798" lon="1.26321">
        <ele>179.6</ele>
        <time>2025-10-18T08:14:15Z</time>
      </trkpt>
      <trkpt lat="43.68804" lon="1.26316">
        <ele>179.6</ele>
        <time>2025-10-18T08:14:16Z</time>
      </trkpt>
      <trkpt lat="43.68809" lon="1.26311">
        <ele>179.6</ele>
        <time>2025-10-18T08:14:17Z</time>
      </trkpt>
      <trkpt lat="43.68815" lon="1.26306">
        <ele>179.6</ele>
        <time>2025-10-18T08:14:18Z</time>
      </trkpt>
      <trkpt lat="43.68821" lon="1.26302">
        <ele>179.4</ele>
        <time>2025-10-18T08:14:19Z</time>
      </trkpt>
      <trkpt lat="43.68827" lon="1.26298">
        <ele>179.4</ele>
        <time>2025-10-18T08:14:20Z</time>
      </trkpt>
      <trkpt lat="43.68833" lon="1.26293">
        <ele>179.4</ele>
        <time>2025-10-18T08:14:21Z</time>
      </trkpt>
      <trkpt lat="43.6884" lon="1.2629">
        <ele>179.4</ele>
        <time>2025-10-18T08:14:22Z</time>
      </trkpt>
      <trkpt lat="43.68846" lon="1.26285">
        <ele>179.4</ele>
        <time>2025-10-18T08:14:23Z</time>
      </trkpt>
      <trkpt lat="43.68853" lon="1.26281">
        <ele>179.2</ele>
        <time>2025-10-18T08:14:24Z</time>
      </trkpt>
      <trkpt lat="43.68859" lon="1.26278">
        <ele>179.2</ele>
        <time>2025-10-18T08:14:25Z</time>
      </trkpt>
      <trkpt lat="43.68865" lon="1.26274">
        <ele>179.2</ele>
        <time>2025-10-18T08:14:26Z</time>
      </trkpt>
      <trkpt lat="43.68872" lon="1.26271">
        <ele>179</ele>
        <time>2025-10-18T08:14:27Z</time>
      </trkpt>
      <trkpt lat="43.68878" lon="1.26268">
        <ele>179</ele>
        <time>2025-10-18T08:14:28Z</time>
      </trkpt>
      <trkpt lat="43.68885" lon="1.26265">
        <ele>179</ele>
        <time>2025-10-18T08:14:29Z</time>
      </trkpt>
      <trkpt lat="43.68891" lon="1.26262">
        <ele>179</ele>
        <time>2025-10-18T08:14:30Z</time>
      </trkpt>
      <trkpt lat="43.68897" lon="1.26259">
        <ele>179</ele>
        <time>2025-10-18T08:14:31Z</time>
      </trkpt>
      <trkpt lat="43.68902" lon="1.26255">
        <ele>179</ele>
        <time>2025-10-18T08:14:32Z</time>
      </trkpt>
      <trkpt lat="43.68908" lon="1.26252">
        <ele>179</ele>
        <time>2025-10-18T08:14:33Z</time>
      </trkpt>
      <trkpt lat="43.68914" lon="1.26247">
        <ele>179</ele>
        <time>2025-10-18T08:14:34Z</time>
      </trkpt>
      <trkpt lat="43.6892" lon="1.26243">
        <ele>179</ele>
        <time>2025-10-18T08:14:35Z</time>
      </trkpt>
      <trkpt lat="43.68926" lon="1.26238">
        <ele>179</ele>
        <time>2025-10-18T08:14:36Z</time>
      </trkpt>
      <trkpt lat="43.68931" lon="1.26233">
        <ele>179</ele>
        <time>2025-10-18T08:14:37Z</time>
      </trkpt>
      <trkpt lat="43.68936" lon="1.26228">
        <ele>178.8</ele>
        <time>2025-10-18T08:14:38Z</time>
      </trkpt>
      <trkpt lat="43.68941" lon="1.26221">
        <ele>178.8</ele>
        <time>2025-10-18T08:14:39Z</time>
      </trkpt>
      <trkpt lat="43.68946" lon="1.26214">
        <ele>178.8</ele>
        <time>2025-10-18T08:14:40Z</time>
      </trkpt>
      <trkpt lat="43.6895" lon="1.26207">
        <ele>179</ele>
        <time>2025-10-18T08:14:41Z</time>
      </trkpt>
      <trkpt lat="43.68954" lon="1.262">
        <ele>179</ele>
        <time>2025-10-18T08:14:42Z</time>
      </trkpt>
      <trkpt lat="43.68958" lon="1.26193">
        <ele>179</ele>
        <time>2025-10-18T08:14:43Z</time>
      </trkpt>
      <trkpt lat="43.68962" lon="1.26185">
        <ele>179.2</ele>
        <time>2025-10-18T08:14:44Z</time>
      </trkpt>
      <trkpt lat="43.68967" lon="1.26178">
        <ele>179.2</ele>
        <time>2025-10-18T08:14:45Z</time>
      </trkpt>
      <trkpt lat="43.68972" lon="1.26171">
        <ele>179</ele>
        <time>2025-10-18T08:14:46Z</time>
      </trkpt>
      <trkpt lat="43.68976" lon="1.26163">
        <ele>179</ele>
        <time>2025-10-18T08:14:47Z</time>
      </trkpt>
      <trkpt lat="43.68981" lon="1.26156">
        <ele>179</ele>
        <time>2025-10-18T08:14:48Z</time>
      </trkpt>
      <trkpt lat="43.68986" lon="1.26149">
        <ele>179</ele>
        <time>2025-10-18T08:14:49Z</time>
      </trkpt>
      <trkpt lat="43.6899" lon="1.26142">
        <ele>179</ele>
        <time>2025-10-18T08:14:50Z</time>
      </trkpt>
      <trkpt lat="43.68995" lon="1.26135">
        <ele>178.8</ele>
        <time>2025-10-18T08:14:51Z</time>
      </trkpt>
      <trkpt lat="43.68999" lon="1.26127">
        <ele>178.8</ele>
        <time>2025-10-18T08:14:52Z</time>
      </trkpt>
      <trkpt lat="43.69004" lon="1.2612">
        <ele>178.6</ele>
        <time>2025-10-18T08:14:53Z</time>
      </trkpt>
      <trkpt lat="43.69008" lon="1.26112">
        <ele>178.6</ele>
        <time>2025-10-18T08:14:54Z</time>
      </trkpt>
      <trkpt lat="43.69012" lon="1.26105">
        <ele>178.6</ele>
        <time>2025-10-18T08:14:55Z</time>
      </trkpt>
      <trkpt lat="43.69017" lon="1.26098">
        <ele>178.6</ele>
        <time>2025-10-18T08:14:56Z</time>
      </trkpt>
      <trkpt lat="43.69022" lon="1.2609">
        <ele>178.6</ele>
        <time>2025-10-18T08:14:57Z</time>
      </trkpt>
      <trkpt lat="43.69027" lon="1.26083">
        <ele>178.6</ele>
        <time>2025-10-18T08:14:58Z</time>
      </trkpt>
      <trkpt lat="43.69031" lon="1.26075">
        <ele>178.6</ele>
        <time>2025-10-18T08:14:59Z</time>
      </trkpt>
      <trkpt lat="43.69036" lon="1.26068">
        <ele>178.8</ele>
        <time>2025-10-18T08:15:00Z</time>
      </trkpt>
      <trkpt lat="43.6904" lon="1.2606">
        <ele>178.8</ele>
        <time>2025-10-18T08:15:01Z</time>
      </trkpt>
      <trkpt lat="43.69044" lon="1.26051">
        <ele>178.8</ele>
        <time>2025-10-18T08:15:02Z</time>
      </trkpt>
      <trkpt lat="43.69047" lon="1.26042">
        <ele>179</ele>
        <time>2025-10-18T08:15:03Z</time>
      </trkpt>
      <trkpt lat="43.6905" lon="1.26033">
        <ele>179</ele>
        <time>2025-10-18T08:15:04Z</time>
      </trkpt>
      <trkpt lat="43.69052" lon="1.26024">
        <ele>179</ele>
        <time>2025-10-18T08:15:05Z</time>
      </trkpt>
      <trkpt lat="43.69054" lon="1.26014">
        <ele>179</ele>
        <time>2025-10-18T08:15:06Z</time>
      </trkpt>
      <trkpt lat="43.69056" lon="1.26005">
        <ele>179</ele>
        <time>2025-10-18T08:15:07Z</time>
      </trkpt>
      <trkpt lat="43.69058" lon="1.25996">
        <ele>179.2</ele>
        <time>2025-10-18T08:15:08Z</time>
      </trkpt>
      <trkpt lat="43.6906" lon="1.25986">
        <ele>179.2</ele>
        <time>2025-10-18T08:15:09Z</time>
      </trkpt>
      <trkpt lat="43.69062" lon="1.25977">
        <ele>179.2</ele>
        <time>2025-10-18T08:15:10Z</time>
      </trkpt>
      <trkpt lat="43.69064" lon="1.25968">
        <ele>179.2</ele>
        <time>2025-10-18T08:15:11Z</time>
      </trkpt>
      <trkpt lat="43.69066" lon="1.25958">
        <ele>179.2</ele>
        <time>2025-10-18T08:15:12Z</time>
      </trkpt>
      <trkpt lat="43.69068" lon="1.25949">
        <ele>179.2</ele>
        <time>2025-10-18T08:15:13Z</time>
      </trkpt>
      <trkpt lat="43.6907" lon="1.25939">
        <ele>179.2</ele>
        <time>2025-10-18T08:15:14Z</time>
      </trkpt>
      <trkpt lat="43.69073" lon="1.2593">
        <ele>179.4</ele>
        <time>2025-10-18T08:15:15Z</time>
      </trkpt>
      <trkpt lat="43.69075" lon="1.25921">
        <ele>179.4</ele>
        <time>2025-10-18T08:15:16Z</time>
      </trkpt>
      <trkpt lat="43.69077" lon="1.25912">
        <ele>179.6</ele>
        <time>2025-10-18T08:15:17Z</time>
      </trkpt>
      <trkpt lat="43.69079" lon="1.25903">
        <ele>180</ele>
        <time>2025-10-18T08:15:18Z</time>
      </trkpt>
      <trkpt lat="43.69081" lon="1.25894">
        <ele>180</ele>
        <time>2025-10-18T08:15:19Z</time>
      </trkpt>
      <trkpt lat="43.69083" lon="1.25885">
        <ele>180.2</ele>
        <time>2025-10-18T08:15:20Z</time>
      </trkpt>
      <trkpt lat="43.69085" lon="1.25876">
        <ele>180.2</ele>
        <time>2025-10-18T08:15:21Z</time>
      </trkpt>
      <trkpt lat="43.69087" lon="1.25866">
        <ele>180.2</ele>
        <time>2025-10-18T08:15:22Z</time>
      </trkpt>
      <trkpt lat="43.6909" lon="1.25857">
        <ele>180.2</ele>
        <time>2025-10-18T08:15:23Z</time>
      </trkpt>
      <trkpt lat="43.69091" lon="1.25848">
        <ele>180.2</ele>
        <time>2025-10-18T08:15:24Z</time>
      </trkpt>
      <trkpt lat="43.69094" lon="1.25839">
        <ele>180.2</ele>
        <time>2025-10-18T08:15:25Z</time>
      </trkpt>
      <trkpt lat="43.69095" lon="1.2583">
        <ele>180.4</ele>
        <time>2025-10-18T08:15:26Z</time>
      </trkpt>
      <trkpt lat="43.69097" lon="1.2582">
        <ele>180.2</ele>
        <time>2025-10-18T08:15:27Z</time>
      </trkpt>
      <trkpt lat="43.69099" lon="1.25811">
        <ele>180.2</ele>
        <time>2025-10-18T08:15:28Z</time>
      </trkpt>
      <trkpt lat="43.691" lon="1.25801">
        <ele>180.2</ele>
        <time>2025-10-18T08:15:29Z</time>
      </trkpt>
      <trkpt lat="43.69102" lon="1.25792">
        <ele>180.2</ele>
        <time>2025-10-18T08:15:30Z</time>
      </trkpt>
      <trkpt lat="43.69103" lon="1.25782">
        <ele>180.2</ele>
        <time>2025-10-18T08:15:31Z</time>
      </trkpt>
      <trkpt lat="43.69104" lon="1.25773">
        <ele>180.4</ele>
        <time>2025-10-18T08:15:32Z</time>
      </trkpt>
      <trkpt lat="43.69105" lon="1.25764">
        <ele>180.2</ele>
        <time>2025-10-18T08:15:33Z</time>
      </trkpt>
      <trkpt lat="43.69106" lon="1.25754">
        <ele>180.2</ele>
        <time>2025-10-18T08:15:34Z</time>
      </trkpt>
      <trkpt lat="43.69107" lon="1.25745">
        <ele>180.4</ele>
        <time>2025-10-18T08:15:35Z</time>
      </trkpt>
      <trkpt lat="43.69108" lon="1.25736">
        <ele>180.4</ele>
        <time>2025-10-18T08:15:36Z</time>
      </trkpt>
      <trkpt lat="43.69108" lon="1.25726">
        <ele>180.4</ele>
        <time>2025-10-18T08:15:37Z</time>
      </trkpt>
      <trkpt lat="43.69109" lon="1.25716">
        <ele>180.4</ele>
        <time>2025-10-18T08:15:38Z</time>
      </trkpt>
      <trkpt lat="43.69109" lon="1.25706">
        <ele>180.4</ele>
        <time>2025-10-18T08:15:39Z</time>
      </trkpt>
      <trkpt lat="43.6911" lon="1.25696">
        <ele>180.4</ele>
        <time>2025-10-18T08:15:40Z</time>
      </trkpt>
      <trkpt lat="43.69111" lon="1.25686">
        <ele>180.4</ele>
        <time>2025-10-18T08:15:41Z</time>
      </trkpt>
      <trkpt lat="43.69111" lon="1.25676">
        <ele>180.4</ele>
        <time>2025-10-18T08:15:42Z</time>
      </trkpt>
      <trkpt lat="43.69112" lon="1.25666">
        <ele>180.4</ele>
        <time>2025-10-18T08:15:43Z</time>
      </trkpt>
      <trkpt lat="43.69113" lon="1.25656">
        <ele>180.4</ele>
        <time>2025-10-18T08:15:44Z</time>
      </trkpt>
      <trkpt lat="43.69113" lon="1.25646">
        <ele>180.4</ele>
        <time>2025-10-18T08:15:45Z</time>
      </trkpt>
      <trkpt lat="43.69114" lon="1.25636">
        <ele>180.2</ele>
        <time>2025-10-18T08:15:46Z</time>
      </trkpt>
      <trkpt lat="43.69115" lon="1.25626">
        <ele>180.2</ele>
        <time>2025-10-18T08:15:47Z</time>
      </trkpt>
      <trkpt lat="43.69115" lon="1.25617">
        <ele>180.2</ele>
        <time>2025-10-18T08:15:48Z</time>
      </trkpt>
      <trkpt lat="43.69116" lon="1.25607">
        <ele>180.2</ele>
        <time>2025-10-18T08:15:49Z</time>
      </trkpt>
      <trkpt lat="43.69118" lon="1.25597">
        <ele>180.2</ele>
        <time>2025-10-18T08:15:50Z</time>
      </trkpt>
      <trkpt lat="43.69119" lon="1.25588">
        <ele>180.2</ele>
        <time>2025-10-18T08:15:51Z</time>
      </trkpt>
      <trkpt lat="43.6912" lon="1.25578">
        <ele>180.2</ele>
        <time>2025-10-18T08:15:52Z</time>
      </trkpt>
      <trkpt lat="43.69121" lon="1.25569">
        <ele>180.2</ele>
        <time>2025-10-18T08:15:53Z</time>
      </trkpt>
      <trkpt lat="43.69123" lon="1.2556">
        <ele>180.2</ele>
        <time>2025-10-18T08:15:54Z</time>
      </trkpt>
      <trkpt lat="43.69124" lon="1.2555">
        <ele>180.2</ele>
        <time>2025-10-18T08:15:55Z</time>
      </trkpt>
      <trkpt lat="43.69126" lon="1.25541">
        <ele>180.2</ele>
        <time>2025-10-18T08:15:56Z</time>
      </trkpt>
      <trkpt lat="43.69127" lon="1.25532">
        <ele>180.2</ele>
        <time>2025-10-18T08:15:57Z</time>
      </trkpt>
      <trkpt lat="43.69129" lon="1.25523">
        <ele>180.2</ele>
        <time>2025-10-18T08:15:58Z</time>
      </trkpt>
      <trkpt lat="43.69131" lon="1.25514">
        <ele>180.2</ele>
        <time>2025-10-18T08:15:59Z</time>
      </trkpt>
      <trkpt lat="43.69132" lon="1.25505">
        <ele>180.2</ele>
        <time>2025-10-18T08:16:00Z</time>
      </trkpt>
      <trkpt lat="43.69134" lon="1.25497">
        <ele>180.4</ele>
        <time>2025-10-18T08:16:01Z</time>
      </trkpt>
      <trkpt lat="43.69135" lon="1.25489">
        <ele>180.4</ele>
        <time>2025-10-18T08:16:02Z</time>
      </trkpt>
      <trkpt lat="43.69136" lon="1.25483">
        <ele>180.6</ele>
        <time>2025-10-18T08:16:03Z</time>
      </trkpt>
      <trkpt lat="43.69138" lon="1.25477">
        <ele>180.6</ele>
        <time>2025-10-18T08:16:04Z</time>
      </trkpt>
      <trkpt lat="43.69139" lon="1.25472">
        <ele>180.8</ele>
        <time>2025-10-18T08:16:05Z</time>
      </trkpt>
      <trkpt lat="43.69143" lon="1.25469">
        <ele>180.8</ele>
        <time>2025-10-18T08:16:06Z</time>
      </trkpt>
      <trkpt lat="43.69145" lon="1.25469">
        <ele>181</ele>
        <time>2025-10-18T08:16:07Z</time>
      </trkpt>
      <trkpt lat="43.69146" lon="1.25472">
        <ele>181</ele>
        <time>2025-10-18T08:16:08Z</time>
      </trkpt>
      <trkpt lat="43.69147" lon="1.25475">
        <ele>181.2</ele>
        <time>2025-10-18T08:16:09Z</time>
      </trkpt>
      <trkpt lat="43.69148" lon="1.25479">
        <ele>181.2</ele>
        <time>2025-10-18T08:16:10Z</time>
      </trkpt>
      <trkpt lat="43.69149" lon="1.25485">
        <ele>181.2</ele>
        <time>2025-10-18T08:16:11Z</time>
      </trkpt>
      <trkpt lat="43.6915" lon="1.2549">
        <ele>181.2</ele>
        <time>2025-10-18T08:16:12Z</time>
      </trkpt>
      <trkpt lat="43.69151" lon="1.25497">
        <ele>181</ele>
        <time>2025-10-18T08:16:13Z</time>
      </trkpt>
      <trkpt lat="43.69152" lon="1.25505">
        <ele>181</ele>
        <time>2025-10-18T08:16:14Z</time>
      </trkpt>
      <trkpt lat="43.69154" lon="1.25513">
        <ele>181</ele>
        <time>2025-10-18T08:16:15Z</time>
      </trkpt>
      <trkpt lat="43.69155" lon="1.25521">
        <ele>180.8</ele>
        <time>2025-10-18T08:16:16Z</time>
      </trkpt>
      <trkpt lat="43.69156" lon="1.2553">
        <ele>180.6</ele>
        <time>2025-10-18T08:16:17Z</time>
      </trkpt>
      <trkpt lat="43.69158" lon="1.25539">
        <ele>180.6</ele>
        <time>2025-10-18T08:16:18Z</time>
      </trkpt>
      <trkpt lat="43.6916" lon="1.25547">
        <ele>180.2</ele>
        <time>2025-10-18T08:16:19Z</time>
      </trkpt>
      <trkpt lat="43.69161" lon="1.25556">
        <ele>180.2</ele>
        <time>2025-10-18T08:16:20Z</time>
      </trkpt>
      <trkpt lat="43.69163" lon="1.25565">
        <ele>180</ele>
        <time>2025-10-18T08:16:21Z</time>
      </trkpt>
      <trkpt lat="43.69164" lon="1.25572">
        <ele>180</ele>
        <time>2025-10-18T08:16:22Z</time>
      </trkpt>
      <trkpt lat="43.69166" lon="1.25579">
        <ele>180.2</ele>
        <time>2025-10-18T08:16:23Z</time>
      </trkpt>
      <trkpt lat="43.69167" lon="1.25586">
        <ele>180.2</ele>
        <time>2025-10-18T08:16:24Z</time>
      </trkpt>
      <trkpt lat="43.69168" lon="1.25593">
        <ele>180.4</ele>
        <time>2025-10-18T08:16:25Z</time>
      </trkpt>
      <trkpt lat="43.69169" lon="1.25599">
        <ele>180.6</ele>
        <time>2025-10-18T08:16:26Z</time>
      </trkpt>
      <trkpt lat="43.6917" lon="1.25606">
        <ele>180.8</ele>
        <time>2025-10-18T08:16:27Z</time>
      </trkpt>
      <trkpt lat="43.69172" lon="1.25613">
        <ele>180.8</ele>
        <time>2025-10-18T08:16:28Z</time>
      </trkpt>
      <trkpt lat="43.69173" lon="1.25619">
        <ele>180.8</ele>
        <time>2025-10-18T08:16:29Z</time>
      </trkpt>
      <trkpt lat="43.69173" lon="1.25625">
        <ele>180.8</ele>
        <time>2025-10-18T08:16:30Z</time>
      </trkpt>
      <trkpt lat="43.69174" lon="1.25631">
        <ele>181</ele>
        <time>2025-10-18T08:16:31Z</time>
      </trkpt>
      <trkpt lat="43.69175" lon="1.25637">
        <ele>181</ele>
        <time>2025-10-18T08:16:32Z</time>
      </trkpt>
      <trkpt lat="43.69176" lon="1.25643">
        <ele>181</ele>
        <time>2025-10-18T08:16:33Z</time>
      </trkpt>
      <trkpt lat="43.69177" lon="1.25649">
        <ele>181</ele>
        <time>2025-10-18T08:16:34Z</time>
      </trkpt>
      <trkpt lat="43.69178" lon="1.25654">
        <ele>181.2</ele>
        <time>2025-10-18T08:16:35Z</time>
      </trkpt>
      <trkpt lat="43.69179" lon="1.25659">
        <ele>181.2</ele>
        <time>2025-10-18T08:16:36Z</time>
      </trkpt>
      <trkpt lat="43.69181" lon="1.25664">
        <ele>181.2</ele>
        <time>2025-10-18T08:16:37Z</time>
      </trkpt>
      <trkpt lat="43.69185" lon="1.25666">
        <ele>181.2</ele>
        <time>2025-10-18T08:16:38Z</time>
      </trkpt>
      <trkpt lat="43.69189" lon="1.25665">
        <ele>181.2</ele>
        <time>2025-10-18T08:16:39Z</time>
      </trkpt>
      <trkpt lat="43.69193" lon="1.2566">
        <ele>181.2</ele>
        <time>2025-10-18T08:16:40Z</time>
      </trkpt>
      <trkpt lat="43.69195" lon="1.25655">
        <ele>181.2</ele>
        <time>2025-10-18T08:16:41Z</time>
      </trkpt>
      <trkpt lat="43.69198" lon="1.2565">
        <ele>181.2</ele>
        <time>2025-10-18T08:16:42Z</time>
      </trkpt>
      <trkpt lat="43.69201" lon="1.25645">
        <ele>181.4</ele>
        <time>2025-10-18T08:16:43Z</time>
      </trkpt>
      <trkpt lat="43.69204" lon="1.25639">
        <ele>181.4</ele>
        <time>2025-10-18T08:16:44Z</time>
      </trkpt>
      <trkpt lat="43.69208" lon="1.25634">
        <ele>181.4</ele>
        <time>2025-10-18T08:16:45Z</time>
      </trkpt>
      <trkpt lat="43.69212" lon="1.25628">
        <ele>181.4</ele>
        <time>2025-10-18T08:16:46Z</time>
      </trkpt>
      <trkpt lat="43.69216" lon="1.25622">
        <ele>181.4</ele>
        <time>2025-10-18T08:16:47Z</time>
      </trkpt>
      <trkpt lat="43.6922" lon="1.25616">
        <ele>181.4</ele>
        <time>2025-10-18T08:16:48Z</time>
      </trkpt>
      <trkpt lat="43.69224" lon="1.2561">
        <ele>181.4</ele>
        <time>2025-10-18T08:16:49Z</time>
      </trkpt>
      <trkpt lat="43.69228" lon="1.25603">
        <ele>181.4</ele>
        <time>2025-10-18T08:16:50Z</time>
      </trkpt>
      <trkpt lat="43.69231" lon="1.25596">
        <ele>181.4</ele>
        <time>2025-10-18T08:16:51Z</time>
      </trkpt>
      <trkpt lat="43.69235" lon="1.25589">
        <ele>181.4</ele>
        <time>2025-10-18T08:16:52Z</time>
      </trkpt>
      <trkpt lat="43.69238" lon="1.25582">
        <ele>181.4</ele>
        <time>2025-10-18T08:16:53Z</time>
      </trkpt>
      <trkpt lat="43.69242" lon="1.25574">
        <ele>181.4</ele>
        <time>2025-10-18T08:16:54Z</time>
      </trkpt>
      <trkpt lat="43.69246" lon="1.25567">
        <ele>181.4</ele>
        <time>2025-10-18T08:16:55Z</time>
      </trkpt>
      <trkpt lat="43.69249" lon="1.2556">
        <ele>181.4</ele>
        <time>2025-10-18T08:16:56Z</time>
      </trkpt>
      <trkpt lat="43.69253" lon="1.25552">
        <ele>181.4</ele>
        <time>2025-10-18T08:16:57Z</time>
      </trkpt>
      <trkpt lat="43.69256" lon="1.25545">
        <ele>181.4</ele>
        <time>2025-10-18T08:16:58Z</time>
      </trkpt>
      <trkpt lat="43.6926" lon="1.25538">
        <ele>181.4</ele>
        <time>2025-10-18T08:16:59Z</time>
      </trkpt>
      <trkpt lat="43.69264" lon="1.25531">
        <ele>181.2</ele>
        <time>2025-10-18T08:17:00Z</time>
      </trkpt>
      <trkpt lat="43.69268" lon="1.25523">
        <ele>181.2</ele>
        <time>2025-10-18T08:17:01Z</time>
      </trkpt>
      <trkpt lat="43.69272" lon="1.25516">
        <ele>181.2</ele>
        <time>2025-10-18T08:17:02Z</time>
      </trkpt>
      <trkpt lat="43.69276" lon="1.25508">
        <ele>181.2</ele>
        <time>2025-10-18T08:17:03Z</time>
      </trkpt>
      <trkpt lat="43.6928" lon="1.25501">
        <ele>181.2</ele>
        <time>2025-10-18T08:17:04Z</time>
      </trkpt>
      <trkpt lat="43.69284" lon="1.25493">
        <ele>181</ele>
        <time>2025-10-18T08:17:05Z</time>
      </trkpt>
      <trkpt lat="43.69288" lon="1.25486">
        <ele>181</ele>
        <time>2025-10-18T08:17:06Z</time>
      </trkpt>
      <trkpt lat="43.69293" lon="1.25479">
        <ele>181</ele>
        <time>2025-10-18T08:17:07Z</time>
      </trkpt>
      <trkpt lat="43.69297" lon="1.25472">
        <ele>180.8</ele>
        <time>2025-10-18T08:17:08Z</time>
      </trkpt>
      <trkpt lat="43.69302" lon="1.25466">
        <ele>180.6</ele>
        <time>2025-10-18T08:17:09Z</time>
      </trkpt>
      <trkpt lat="43.69307" lon="1.25459">
        <ele>180.6</ele>
        <time>2025-10-18T08:17:10Z</time>
      </trkpt>
      <trkpt lat="43.69312" lon="1.25453">
        <ele>180.6</ele>
        <time>2025-10-18T08:17:11Z</time>
      </trkpt>
      <trkpt lat="43.69318" lon="1.25447">
        <ele>180.4</ele>
        <time>2025-10-18T08:17:12Z</time>
      </trkpt>
      <trkpt lat="43.69323" lon="1.25442">
        <ele>180.2</ele>
        <time>2025-10-18T08:17:13Z</time>
      </trkpt>
      <trkpt lat="43.69328" lon="1.25436">
        <ele>180.2</ele>
        <time>2025-10-18T08:17:14Z</time>
      </trkpt>
      <trkpt lat="43.69334" lon="1.2543">
        <ele>180</ele>
        <time>2025-10-18T08:17:15Z</time>
      </trkpt>
      <trkpt lat="43.69339" lon="1.25424">
        <ele>179.8</ele>
        <time>2025-10-18T08:17:16Z</time>
      </trkpt>
      <trkpt lat="43.69344" lon="1.25418">
        <ele>179.8</ele>
        <time>2025-10-18T08:17:17Z</time>
      </trkpt>
      <trkpt lat="43.6935" lon="1.25412">
        <ele>179.6</ele>
        <time>2025-10-18T08:17:18Z</time>
      </trkpt>
      <trkpt lat="43.69356" lon="1.25406">
        <ele>179.6</ele>
        <time>2025-10-18T08:17:19Z</time>
      </trkpt>
      <trkpt lat="43.69362" lon="1.254">
        <ele>179.4</ele>
        <time>2025-10-18T08:17:20Z</time>
      </trkpt>
      <trkpt lat="43.69368" lon="1.25394">
        <ele>179.4</ele>
        <time>2025-10-18T08:17:21Z</time>
      </trkpt>
      <trkpt lat="43.69374" lon="1.25388">
        <ele>179.2</ele>
        <time>2025-10-18T08:17:22Z</time>
      </trkpt>
      <trkpt lat="43.6938" lon="1.25383">
        <ele>179.2</ele>
        <time>2025-10-18T08:17:23Z</time>
      </trkpt>
      <trkpt lat="43.69386" lon="1.25377">
        <ele>179.2</ele>
        <time>2025-10-18T08:17:24Z</time>
      </trkpt>
      <trkpt lat="43.69392" lon="1.25371">
        <ele>179.4</ele>
        <time>2025-10-18T08:17:25Z</time>
      </trkpt>
      <trkpt lat="43.69398" lon="1.25365">
        <ele>179.4</ele>
        <time>2025-10-18T08:17:26Z</time>
      </trkpt>
      <trkpt lat="43.69404" lon="1.2536">
        <ele>179.4</ele>
        <time>2025-10-18T08:17:27Z</time>
      </trkpt>
      <trkpt lat="43.6941" lon="1.25355">
        <ele>179.6</ele>
        <time>2025-10-18T08:17:28Z</time>
      </trkpt>
      <trkpt lat="43.69416" lon="1.2535">
        <ele>179.6</ele>
        <time>2025-10-18T08:17:29Z</time>
      </trkpt>
      <trkpt lat="43.69423" lon="1.25346">
        <ele>179.6</ele>
        <time>2025-10-18T08:17:30Z</time>
      </trkpt>
      <trkpt lat="43.6943" lon="1.25342">
        <ele>179.6</ele>
        <time>2025-10-18T08:17:31Z</time>
      </trkpt>
      <trkpt lat="43.69436" lon="1.25338">
        <ele>179.6</ele>
        <time>2025-10-18T08:17:32Z</time>
      </trkpt>
      <trkpt lat="43.69443" lon="1.25333">
        <ele>179.6</ele>
        <time>2025-10-18T08:17:33Z</time>
      </trkpt>
      <trkpt lat="43.6945" lon="1.2533">
        <ele>179.8</ele>
        <time>2025-10-18T08:17:34Z</time>
      </trkpt>
      <trkpt lat="43.69457" lon="1.25326">
        <ele>179.8</ele>
        <time>2025-10-18T08:17:35Z</time>
      </trkpt>
      <trkpt lat="43.69463" lon="1.25323">
        <ele>179.8</ele>
        <time>2025-10-18T08:17:36Z</time>
      </trkpt>
      <trkpt lat="43.6947" lon="1.25319">
        <ele>179.8</ele>
        <time>2025-10-18T08:17:37Z</time>
      </trkpt>
      <trkpt lat="43.69476" lon="1.25315">
        <ele>179.8</ele>
        <time>2025-10-18T08:17:38Z</time>
      </trkpt>
      <trkpt lat="43.69483" lon="1.25312">
        <ele>179.8</ele>
        <time>2025-10-18T08:17:39Z</time>
      </trkpt>
      <trkpt lat="43.6949" lon="1.25308">
        <ele>179.8</ele>
        <time>2025-10-18T08:17:40Z</time>
      </trkpt>
      <trkpt lat="43.69496" lon="1.25304">
        <ele>180</ele>
        <time>2025-10-18T08:17:41Z</time>
      </trkpt>
      <trkpt lat="43.69503" lon="1.253">
        <ele>180</ele>
        <time>2025-10-18T08:17:42Z</time>
      </trkpt>
      <trkpt lat="43.69509" lon="1.25296">
        <ele>180</ele>
        <time>2025-10-18T08:17:43Z</time>
      </trkpt>
      <trkpt lat="43.69515" lon="1.25293">
        <ele>180</ele>
        <time>2025-10-18T08:17:44Z</time>
      </trkpt>
      <trkpt lat="43.69521" lon="1.2529">
        <ele>180</ele>
        <time>2025-10-18T08:17:45Z</time>
      </trkpt>
      <trkpt lat="43.69528" lon="1.25287">
        <ele>180</ele>
        <time>2025-10-18T08:17:46Z</time>
      </trkpt>
      <trkpt lat="43.69534" lon="1.25283">
        <ele>179.8</ele>
        <time>2025-10-18T08:17:47Z</time>
      </trkpt>
      <trkpt lat="43.6954" lon="1.2528">
        <ele>179.8</ele>
        <time>2025-10-18T08:17:48Z</time>
      </trkpt>
      <trkpt lat="43.69546" lon="1.25277">
        <ele>179.8</ele>
        <time>2025-10-18T08:17:49Z</time>
      </trkpt>
      <trkpt lat="43.69553" lon="1.25275">
        <ele>179.8</ele>
        <time>2025-10-18T08:17:50Z</time>
      </trkpt>
      <trkpt lat="43.6956" lon="1.25272">
        <ele>179.8</ele>
        <time>2025-10-18T08:17:51Z</time>
      </trkpt>
      <trkpt lat="43.69567" lon="1.2527">
        <ele>180</ele>
        <time>2025-10-18T08:17:52Z</time>
      </trkpt>
      <trkpt lat="43.69573" lon="1.25268">
        <ele>180</ele>
        <time>2025-10-18T08:17:53Z</time>
      </trkpt>
      <trkpt lat="43.6958" lon="1.25266">
        <ele>180.2</ele>
        <time>2025-10-18T08:17:54Z</time>
      </trkpt>
      <trkpt lat="43.69587" lon="1.25264">
        <ele>180.2</ele>
        <time>2025-10-18T08:17:55Z</time>
      </trkpt>
      <trkpt lat="43.69594" lon="1.25262">
        <ele>180.2</ele>
        <time>2025-10-18T08:17:56Z</time>
      </trkpt>
      <trkpt lat="43.69601" lon="1.2526">
        <ele>180.2</ele>
        <time>2025-10-18T08:17:57Z</time>
      </trkpt>
      <trkpt lat="43.69608" lon="1.25258">
        <ele>180.2</ele>
        <time>2025-10-18T08:17:58Z</time>
      </trkpt>
      <trkpt lat="43.69615" lon="1.25256">
        <ele>180.4</ele>
        <time>2025-10-18T08:17:59Z</time>
      </trkpt>
      <trkpt lat="43.69622" lon="1.25255">
        <ele>180.4</ele>
        <time>2025-10-18T08:18:00Z</time>
      </trkpt>
      <trkpt lat="43.69629" lon="1.25253">
        <ele>180.4</ele>
        <time>2025-10-18T08:18:01Z</time>
      </trkpt>
      <trkpt lat="43.69636" lon="1.25251">
        <ele>180.4</ele>
        <time>2025-10-18T08:18:02Z</time>
      </trkpt>
      <trkpt lat="43.69642" lon="1.25249">
        <ele>180.6</ele>
        <time>2025-10-18T08:18:03Z</time>
      </trkpt>
      <trkpt lat="43.69649" lon="1.25247">
        <ele>180.6</ele>
        <time>2025-10-18T08:18:04Z</time>
      </trkpt>
      <trkpt lat="43.69655" lon="1.25246">
        <ele>180.8</ele>
        <time>2025-10-18T08:18:05Z</time>
      </trkpt>
      <trkpt lat="43.69662" lon="1.25244">
        <ele>180.8</ele>
        <time>2025-10-18T08:18:06Z</time>
      </trkpt>
      <trkpt lat="43.69669" lon="1.25243">
        <ele>181</ele>
        <time>2025-10-18T08:18:07Z</time>
      </trkpt>
      <trkpt lat="43.69676" lon="1.25242">
        <ele>181.2</ele>
        <time>2025-10-18T08:18:08Z</time>
      </trkpt>
      <trkpt lat="43.69683" lon="1.25241">
        <ele>181.4</ele>
        <time>2025-10-18T08:18:09Z</time>
      </trkpt>
      <trkpt lat="43.69689" lon="1.25241">
        <ele>181.4</ele>
        <time>2025-10-18T08:18:10Z</time>
      </trkpt>
      <trkpt lat="43.69696" lon="1.25241">
        <ele>181.6</ele>
        <time>2025-10-18T08:18:11Z</time>
      </trkpt>
      <trkpt lat="43.69702" lon="1.25242">
        <ele>181.6</ele>
        <time>2025-10-18T08:18:12Z</time>
      </trkpt>
      <trkpt lat="43.69709" lon="1.25242">
        <ele>181.8</ele>
        <time>2025-10-18T08:18:13Z</time>
      </trkpt>
      <trkpt lat="43.69715" lon="1.25244">
        <ele>182</ele>
        <time>2025-10-18T08:18:14Z</time>
      </trkpt>
      <trkpt lat="43.69722" lon="1.25246">
        <ele>182</ele>
        <time>2025-10-18T08:18:15Z</time>
      </trkpt>
      <trkpt lat="43.69728" lon="1.25247">
        <ele>182</ele>
        <time>2025-10-18T08:18:16Z</time>
      </trkpt>
      <trkpt lat="43.69735" lon="1.25249">
        <ele>182</ele>
        <time>2025-10-18T08:18:17Z</time>
      </trkpt>
      <trkpt lat="43.69742" lon="1.25251">
        <ele>182.2</ele>
        <time>2025-10-18T08:18:18Z</time>
      </trkpt>
      <trkpt lat="43.69749" lon="1.25252">
        <ele>182</ele>
        <time>2025-10-18T08:18:19Z</time>
      </trkpt>
      <trkpt lat="43.69756" lon="1.25254">
        <ele>182</ele>
        <time>2025-10-18T08:18:20Z</time>
      </trkpt>
      <trkpt lat="43.69763" lon="1.25256">
        <ele>182</ele>
        <time>2025-10-18T08:18:21Z</time>
      </trkpt>
      <trkpt lat="43.69769" lon="1.25258">
        <ele>182</ele>
        <time>2025-10-18T08:18:22Z</time>
      </trkpt>
      <trkpt lat="43.69776" lon="1.2526">
        <ele>182.2</ele>
        <time>2025-10-18T08:18:23Z</time>
      </trkpt>
      <trkpt lat="43.69783" lon="1.25262">
        <ele>182.2</ele>
        <time>2025-10-18T08:18:24Z</time>
      </trkpt>
      <trkpt lat="43.6979" lon="1.25263">
        <ele>182.2</ele>
        <time>2025-10-18T08:18:25Z</time>
      </trkpt>
      <trkpt lat="43.69797" lon="1.25265">
        <ele>182</ele>
        <time>2025-10-18T08:18:26Z</time>
      </trkpt>
      <trkpt lat="43.69804" lon="1.25267">
        <ele>182</ele>
        <time>2025-10-18T08:18:27Z</time>
      </trkpt>
      <trkpt lat="43.69811" lon="1.25269">
        <ele>182</ele>
        <time>2025-10-18T08:18:28Z</time>
      </trkpt>
      <trkpt lat="43.69818" lon="1.2527">
        <ele>182</ele>
        <time>2025-10-18T08:18:29Z</time>
      </trkpt>
      <trkpt lat="43.69825" lon="1.25272">
        <ele>182</ele>
        <time>2025-10-18T08:18:30Z</time>
      </trkpt>
      <trkpt lat="43.69832" lon="1.25274">
        <ele>182.2</ele>
        <time>2025-10-18T08:18:31Z</time>
      </trkpt>
      <trkpt lat="43.69839" lon="1.25275">
        <ele>182</ele>
        <time>2025-10-18T08:18:32Z</time>
      </trkpt>
      <trkpt lat="43.69846" lon="1.25277">
        <ele>182</ele>
        <time>2025-10-18T08:18:33Z</time>
      </trkpt>
      <trkpt lat="43.69853" lon="1.25279">
        <ele>181.8</ele>
        <time>2025-10-18T08:18:34Z</time>
      </trkpt>
      <trkpt lat="43.6986" lon="1.25281">
        <ele>181.8</ele>
        <time>2025-10-18T08:18:35Z</time>
      </trkpt>
      <trkpt lat="43.69868" lon="1.25283">
        <ele>181.6</ele>
        <time>2025-10-18T08:18:36Z</time>
      </trkpt>
      <trkpt lat="43.69875" lon="1.25284">
        <ele>181.6</ele>
        <time>2025-10-18T08:18:37Z</time>
      </trkpt>
      <trkpt lat="43.69883" lon="1.25286">
        <ele>181.6</ele>
        <time>2025-10-18T08:18:38Z</time>
      </trkpt>
      <trkpt lat="43.6989" lon="1.25288">
        <ele>181.6</ele>
        <time>2025-10-18T08:18:39Z</time>
      </trkpt>
      <trkpt lat="43.69897" lon="1.2529">
        <ele>181.6</ele>
        <time>2025-10-18T08:18:40Z</time>
      </trkpt>
      <trkpt lat="43.69905" lon="1.25292">
        <ele>181.4</ele>
        <time>2025-10-18T08:18:41Z</time>
      </trkpt>
      <trkpt lat="43.69912" lon="1.25294">
        <ele>181.4</ele>
        <time>2025-10-18T08:18:42Z</time>
      </trkpt>
      <trkpt lat="43.69919" lon="1.25296">
        <ele>181.4</ele>
        <time>2025-10-18T08:18:43Z</time>
      </trkpt>
      <trkpt lat="43.69926" lon="1.25297">
        <ele>181.2</ele>
        <time>2025-10-18T08:18:44Z</time>
      </trkpt>
      <trkpt lat="43.69934" lon="1.25299">
        <ele>181</ele>
        <time>2025-10-18T08:18:45Z</time>
      </trkpt>
      <trkpt lat="43.69941" lon="1.253">
        <ele>181</ele>
        <time>2025-10-18T08:18:46Z</time>
      </trkpt>
      <trkpt lat="43.69948" lon="1.25301">
        <ele>181</ele>
        <time>2025-10-18T08:18:47Z</time>
      </trkpt>
      <trkpt lat="43.69956" lon="1.25301">
        <ele>181</ele>
        <time>2025-10-18T08:18:48Z</time>
      </trkpt>
      <trkpt lat="43.69963" lon="1.253">
        <ele>180.8</ele>
        <time>2025-10-18T08:18:49Z</time>
      </trkpt>
      <trkpt lat="43.69971" lon="1.253">
        <ele>180.8</ele>
        <time>2025-10-18T08:18:50Z</time>
      </trkpt>
      <trkpt lat="43.69979" lon="1.25299">
        <ele>180.6</ele>
        <time>2025-10-18T08:18:51Z</time>
      </trkpt>
      <trkpt lat="43.69986" lon="1.25297">
        <ele>180.6</ele>
        <time>2025-10-18T08:18:52Z</time>
      </trkpt>
      <trkpt lat="43.69994" lon="1.25295">
        <ele>180.6</ele>
        <time>2025-10-18T08:18:53Z</time>
      </trkpt>
      <trkpt lat="43.70002" lon="1.25293">
        <ele>180.4</ele>
        <time>2025-10-18T08:18:54Z</time>
      </trkpt>
      <trkpt lat="43.7001" lon="1.25291">
        <ele>180.4</ele>
        <time>2025-10-18T08:18:55Z</time>
      </trkpt>
      <trkpt lat="43.70018" lon="1.25289">
        <ele>180.4</ele>
        <time>2025-10-18T08:18:56Z</time>
      </trkpt>
      <trkpt lat="43.70026" lon="1.25286">
        <ele>180.2</ele>
        <time>2025-10-18T08:18:57Z</time>
      </trkpt>
      <trkpt lat="43.70034" lon="1.25284">
        <ele>180.4</ele>
        <time>2025-10-18T08:18:58Z</time>
      </trkpt>
      <trkpt lat="43.70042" lon="1.25281">
        <ele>180.4</ele>
        <time>2025-10-18T08:18:59Z</time>
      </trkpt>
      <trkpt lat="43.7005" lon="1.25279">
        <ele>180.4</ele>
        <time>2025-10-18T08:19:00Z</time>
      </trkpt>
      <trkpt lat="43.70057" lon="1.25276">
        <ele>180.4</ele>
        <time>2025-10-18T08:19:01Z</time>
      </trkpt>
      <trkpt lat="43.70065" lon="1.25272">
        <ele>180.4</ele>
        <time>2025-10-18T08:19:02Z</time>
      </trkpt>
      <trkpt lat="43.70072" lon="1.25269">
        <ele>180.4</ele>
        <time>2025-10-18T08:19:03Z</time>
      </trkpt>
      <trkpt lat="43.70079" lon="1.25265">
        <ele>180.4</ele>
        <time>2025-10-18T08:19:04Z</time>
      </trkpt>
      <trkpt lat="43.70086" lon="1.2526">
        <ele>180.4</ele>
        <time>2025-10-18T08:19:05Z</time>
      </trkpt>
      <trkpt lat="43.70093" lon="1.25255">
        <ele>180.4</ele>
        <time>2025-10-18T08:19:06Z</time>
      </trkpt>
      <trkpt lat="43.701" lon="1.2525">
        <ele>180.6</ele>
        <time>2025-10-18T08:19:07Z</time>
      </trkpt>
      <trkpt lat="43.70107" lon="1.25245">
        <ele>180.6</ele>
        <time>2025-10-18T08:19:08Z</time>
      </trkpt>
      <trkpt lat="43.70114" lon="1.25239">
        <ele>180.4</ele>
        <time>2025-10-18T08:19:09Z</time>
      </trkpt>
      <trkpt lat="43.7012" lon="1.25233">
        <ele>180.4</ele>
        <time>2025-10-18T08:19:10Z</time>
      </trkpt>
      <trkpt lat="43.70126" lon="1.25227">
        <ele>180.4</ele>
        <time>2025-10-18T08:19:11Z</time>
      </trkpt>
      <trkpt lat="43.70133" lon="1.25221">
        <ele>180.2</ele>
        <time>2025-10-18T08:19:12Z</time>
      </trkpt>
      <trkpt lat="43.70139" lon="1.25215">
        <ele>180.2</ele>
        <time>2025-10-18T08:19:13Z</time>
      </trkpt>
      <trkpt lat="43.70145" lon="1.25208">
        <ele>180.2</ele>
        <time>2025-10-18T08:19:14Z</time>
      </trkpt>
      <trkpt lat="43.70151" lon="1.25202">
        <ele>180.2</ele>
        <time>2025-10-18T08:19:15Z</time>
      </trkpt>
      <trkpt lat="43.70157" lon="1.25195">
        <ele>180.2</ele>
        <time>2025-10-18T08:19:16Z</time>
      </trkpt>
      <trkpt lat="43.70164" lon="1.25189">
        <ele>180.2</ele>
        <time>2025-10-18T08:19:17Z</time>
      </trkpt>
      <trkpt lat="43.7017" lon="1.25183">
        <ele>180.2</ele>
        <time>2025-10-18T08:19:18Z</time>
      </trkpt>
      <trkpt lat="43.70176" lon="1.25177">
        <ele>180.2</ele>
        <time>2025-10-18T08:19:19Z</time>
      </trkpt>
      <trkpt lat="43.70183" lon="1.25171">
        <ele>180.2</ele>
        <time>2025-10-18T08:19:20Z</time>
      </trkpt>
      <trkpt lat="43.70189" lon="1.25165">
        <ele>180.4</ele>
        <time>2025-10-18T08:19:21Z</time>
      </trkpt>
      <trkpt lat="43.70195" lon="1.25159">
        <ele>180.2</ele>
        <time>2025-10-18T08:19:22Z</time>
      </trkpt>
      <trkpt lat="43.70201" lon="1.25153">
        <ele>180.2</ele>
        <time>2025-10-18T08:19:23Z</time>
      </trkpt>
      <trkpt lat="43.70207" lon="1.25147">
        <ele>180.2</ele>
        <time>2025-10-18T08:19:24Z</time>
      </trkpt>
      <trkpt lat="43.70213" lon="1.25141">
        <ele>180.2</ele>
        <time>2025-10-18T08:19:25Z</time>
      </trkpt>
      <trkpt lat="43.70219" lon="1.25135">
        <ele>180</ele>
        <time>2025-10-18T08:19:26Z</time>
      </trkpt>
      <trkpt lat="43.70225" lon="1.2513">
        <ele>180</ele>
        <time>2025-10-18T08:19:27Z</time>
      </trkpt>
      <trkpt lat="43.7023" lon="1.25124">
        <ele>180</ele>
        <time>2025-10-18T08:19:28Z</time>
      </trkpt>
      <trkpt lat="43.70236" lon="1.25118">
        <ele>179.8</ele>
        <time>2025-10-18T08:19:29Z</time>
      </trkpt>
      <trkpt lat="43.70241" lon="1.25113">
        <ele>179.8</ele>
        <time>2025-10-18T08:19:30Z</time>
      </trkpt>
      <trkpt lat="43.70246" lon="1.25107">
        <ele>179.8</ele>
        <time>2025-10-18T08:19:31Z</time>
      </trkpt>
      <trkpt lat="43.70251" lon="1.25102">
        <ele>179.8</ele>
        <time>2025-10-18T08:19:32Z</time>
      </trkpt>
      <trkpt lat="43.70256" lon="1.25098">
        <ele>179.8</ele>
        <time>2025-10-18T08:19:33Z</time>
      </trkpt>
      <trkpt lat="43.70261" lon="1.25094">
        <ele>179.8</ele>
        <time>2025-10-18T08:19:34Z</time>
      </trkpt>
      <trkpt lat="43.70264" lon="1.25092">
        <ele>179.8</ele>
        <time>2025-10-18T08:19:35Z</time>
      </trkpt>
      <trkpt lat="43.70268" lon="1.25089">
        <ele>179.8</ele>
        <time>2025-10-18T08:19:36Z</time>
      </trkpt>
      <trkpt lat="43.7027" lon="1.25085">
        <ele>179.8</ele>
        <time>2025-10-18T08:19:37Z</time>
      </trkpt>
      <trkpt lat="43.70272" lon="1.25081">
        <ele>179.8</ele>
        <time>2025-10-18T08:19:38Z</time>
      </trkpt>
      <trkpt lat="43.70272" lon="1.25076">
        <ele>179.8</ele>
        <time>2025-10-18T08:19:39Z</time>
      </trkpt>
      <trkpt lat="43.70272" lon="1.2507">
        <ele>179.6</ele>
        <time>2025-10-18T08:19:40Z</time>
      </trkpt>
      <trkpt lat="43.70273" lon="1.25064">
        <ele>179.4</ele>
        <time>2025-10-18T08:19:41Z</time>
      </trkpt>
      <trkpt lat="43.70274" lon="1.25058">
        <ele>179.4</ele>
        <time>2025-10-18T08:19:42Z</time>
      </trkpt>
      <trkpt lat="43.70276" lon="1.25052">
        <ele>179.2</ele>
        <time>2025-10-18T08:19:43Z</time>
      </trkpt>
      <trkpt lat="43.70279" lon="1.25046">
        <ele>179.2</ele>
        <time>2025-10-18T08:19:44Z</time>
      </trkpt>
      <trkpt lat="43.70282" lon="1.2504">
        <ele>179</ele>
        <time>2025-10-18T08:19:45Z</time>
      </trkpt>
      <trkpt lat="43.70285" lon="1.25033">
        <ele>178.6</ele>
        <time>2025-10-18T08:19:46Z</time>
      </trkpt>
      <trkpt lat="43.70286" lon="1.25026">
        <ele>178.4</ele>
        <time>2025-10-18T08:19:47Z</time>
      </trkpt>
      <trkpt lat="43.70288" lon="1.25019">
        <ele>178</ele>
        <time>2025-10-18T08:19:48Z</time>
      </trkpt>
      <trkpt lat="43.70288" lon="1.25011">
        <ele>177.6</ele>
        <time>2025-10-18T08:19:49Z</time>
      </trkpt>
      <trkpt lat="43.70287" lon="1.25003">
        <ele>177.2</ele>
        <time>2025-10-18T08:19:50Z</time>
      </trkpt>
      <trkpt lat="43.70285" lon="1.24995">
        <ele>176.8</ele>
        <time>2025-10-18T08:19:51Z</time>
      </trkpt>
      <trkpt lat="43.70283" lon="1.24988">
        <ele>176.4</ele>
        <time>2025-10-18T08:19:52Z</time>
      </trkpt>
      <trkpt lat="43.7028" lon="1.2498">
        <ele>176</ele>
        <time>2025-10-18T08:19:53Z</time>
      </trkpt>
      <trkpt lat="43.70277" lon="1.24972">
        <ele>176</ele>
        <time>2025-10-18T08:19:54Z</time>
      </trkpt>
      <trkpt lat="43.70275" lon="1.24964">
        <ele>175.8</ele>
        <time>2025-10-18T08:19:55Z</time>
      </trkpt>
      <trkpt lat="43.70273" lon="1.24956">
        <ele>175.8</ele>
        <time>2025-10-18T08:19:56Z</time>
      </trkpt>
      <trkpt lat="43.70272" lon="1.24948">
        <ele>175.8</ele>
        <time>2025-10-18T08:19:57Z</time>
      </trkpt>
      <trkpt lat="43.7027" lon="1.24941">
        <ele>176</ele>
        <time>2025-10-18T08:19:58Z</time>
      </trkpt>
      <trkpt lat="43.70268" lon="1.24933">
        <ele>176.2</ele>
        <time>2025-10-18T08:19:59Z</time>
      </trkpt>
      <trkpt lat="43.70265" lon="1.24928">
        <ele>176.4</ele>
        <time>2025-10-18T08:20:00Z</time>
      </trkpt>
      <trkpt lat="43.70262" lon="1.24924">
        <ele>176.6</ele>
        <time>2025-10-18T08:20:01Z</time>
      </trkpt>
      <trkpt lat="43.70258" lon="1.2492">
        <ele>177.2</ele>
        <time>2025-10-18T08:20:02Z</time>
      </trkpt>
      <trkpt lat="43.70255" lon="1.24916">
        <ele>177.6</ele>
        <time>2025-10-18T08:20:03Z</time>
      </trkpt>
      <trkpt lat="43.70251" lon="1.24912">
        <ele>178.2</ele>
        <time>2025-10-18T08:20:04Z</time>
      </trkpt>
      <trkpt lat="43.70247" lon="1.24908">
        <ele>178.6</ele>
        <time>2025-10-18T08:20:05Z</time>
      </trkpt>
      <trkpt lat="43.70244" lon="1.24904">
        <ele>179</ele>
        <time>2025-10-18T08:20:06Z</time>
      </trkpt>
      <trkpt lat="43.7024" lon="1.24901">
        <ele>179.4</ele>
        <time>2025-10-18T08:20:07Z</time>
      </trkpt>
      <trkpt lat="43.70236" lon="1.24897">
        <ele>179.6</ele>
        <time>2025-10-18T08:20:08Z</time>
      </trkpt>
      <trkpt lat="43.70233" lon="1.24893">
        <ele>180</ele>
        <time>2025-10-18T08:20:09Z</time>
      </trkpt>
      <trkpt lat="43.70229" lon="1.24889">
        <ele>180.2</ele>
        <time>2025-10-18T08:20:10Z</time>
      </trkpt>
      <trkpt lat="43.70226" lon="1.24885">
        <ele>180.6</ele>
        <time>2025-10-18T08:20:11Z</time>
      </trkpt>
      <trkpt lat="43.70222" lon="1.2488">
        <ele>181</ele>
        <time>2025-10-18T08:20:12Z</time>
      </trkpt>
      <trkpt lat="43.70219" lon="1.24876">
        <ele>181.2</ele>
        <time>2025-10-18T08:20:13Z</time>
      </trkpt>
      <trkpt lat="43.70215" lon="1.24872">
        <ele>181.6</ele>
        <time>2025-10-18T08:20:14Z</time>
      </trkpt>
      <trkpt lat="43.70212" lon="1.24868">
        <ele>181.8</ele>
        <time>2025-10-18T08:20:15Z</time>
      </trkpt>
      <trkpt lat="43.70208" lon="1.24865">
        <ele>182</ele>
        <time>2025-10-18T08:20:16Z</time>
      </trkpt>
      <trkpt lat="43.70205" lon="1.24862">
        <ele>182.2</ele>
        <time>2025-10-18T08:20:17Z</time>
      </trkpt>
      <trkpt lat="43.70201" lon="1.24859">
        <ele>182.4</ele>
        <time>2025-10-18T08:20:18Z</time>
      </trkpt>
      <trkpt lat="43.70197" lon="1.24855">
        <ele>182.6</ele>
        <time>2025-10-18T08:20:19Z</time>
      </trkpt>
      <trkpt lat="43.70194" lon="1.24852">
        <ele>182.6</ele>
        <time>2025-10-18T08:20:20Z</time>
      </trkpt>
      <trkpt lat="43.70191" lon="1.24849">
        <ele>182.8</ele>
        <time>2025-10-18T08:20:21Z</time>
      </trkpt>
      <trkpt lat="43.70187" lon="1.24846">
        <ele>182.8</ele>
        <time>2025-10-18T08:20:22Z</time>
      </trkpt>
      <trkpt lat="43.70183" lon="1.24843">
        <ele>183</ele>
        <time>2025-10-18T08:20:23Z</time>
      </trkpt>
      <trkpt lat="43.7018" lon="1.2484">
        <ele>183</ele>
        <time>2025-10-18T08:20:24Z</time>
      </trkpt>
      <trkpt lat="43.70177" lon="1.24837">
        <ele>183.2</ele>
        <time>2025-10-18T08:20:25Z</time>
      </trkpt>
      <trkpt lat="43.70174" lon="1.24834">
        <ele>183.4</ele>
        <time>2025-10-18T08:20:26Z</time>
      </trkpt>
      <trkpt lat="43.70171" lon="1.24831">
        <ele>183.4</ele>
        <time>2025-10-18T08:20:27Z</time>
      </trkpt>
      <trkpt lat="43.70168" lon="1.24827">
        <ele>183.4</ele>
        <time>2025-10-18T08:20:28Z</time>
      </trkpt>
      <trkpt lat="43.70165" lon="1.24822">
        <ele>183.6</ele>
        <time>2025-10-18T08:20:29Z</time>
      </trkpt>
      <trkpt lat="43.70162" lon="1.24818">
        <ele>183.6</ele>
        <time>2025-10-18T08:20:30Z</time>
      </trkpt>
      <trkpt lat="43.70159" lon="1.24814">
        <ele>183.6</ele>
        <time>2025-10-18T08:20:31Z</time>
      </trkpt>
      <trkpt lat="43.70156" lon="1.24809">
        <ele>183.8</ele>
        <time>2025-10-18T08:20:32Z</time>
      </trkpt>
      <trkpt lat="43.70153" lon="1.24806">
        <ele>183.8</ele>
        <time>2025-10-18T08:20:33Z</time>
      </trkpt>
      <trkpt lat="43.70152" lon="1.24804">
        <ele>183.8</ele>
        <time>2025-10-18T08:20:34Z</time>
      </trkpt>
      <trkpt lat="43.70152" lon="1.24803">
        <ele>183.8</ele>
        <time>2025-10-18T08:20:35Z</time>
      </trkpt>
      <trkpt lat="43.70151" lon="1.24803">
        <ele>183.8</ele>
        <time>2025-10-18T08:20:36Z</time>
      </trkpt>
      <trkpt lat="43.70151" lon="1.24802">
        <ele>183.8</ele>
        <time>2025-10-18T08:20:37Z</time>
      </trkpt>
      <trkpt lat="43.7015" lon="1.24801">
        <ele>184</ele>
        <time>2025-10-18T08:20:38Z</time>
      </trkpt>
      <trkpt lat="43.70149" lon="1.248">
        <ele>184</ele>
        <time>2025-10-18T08:20:39Z</time>
      </trkpt>
      <trkpt lat="43.70147" lon="1.24798">
        <ele>184</ele>
        <time>2025-10-18T08:20:40Z</time>
      </trkpt>
      <trkpt lat="43.70145" lon="1.24796">
        <ele>184</ele>
        <time>2025-10-18T08:20:41Z</time>
      </trkpt>
      <trkpt lat="43.70143" lon="1.24793">
        <ele>184</ele>
        <time>2025-10-18T08:20:42Z</time>
      </trkpt>
      <trkpt lat="43.7014" lon="1.24791">
        <ele>184</ele>
        <time>2025-10-18T08:20:43Z</time>
      </trkpt>
      <trkpt lat="43.70137" lon="1.24789">
        <ele>183.8</ele>
        <time>2025-10-18T08:20:44Z</time>
      </trkpt>
      <trkpt lat="43.70134" lon="1.24786">
        <ele>183.8</ele>
        <time>2025-10-18T08:20:45Z</time>
      </trkpt>
      <trkpt lat="43.7013" lon="1.24784">
        <ele>183.8</ele>
        <time>2025-10-18T08:20:46Z</time>
      </trkpt>
      <trkpt lat="43.70126" lon="1.24783">
        <ele>183.6</ele>
        <time>2025-10-18T08:20:47Z</time>
      </trkpt>
      <trkpt lat="43.70122" lon="1.24781">
        <ele>183.6</ele>
        <time>2025-10-18T08:20:48Z</time>
      </trkpt>
      <trkpt lat="43.70118" lon="1.2478">
        <ele>183.4</ele>
        <time>2025-10-18T08:20:49Z</time>
      </trkpt>
      <trkpt lat="43.70114" lon="1.24779">
        <ele>183.2</ele>
        <time>2025-10-18T08:20:50Z</time>
      </trkpt>
      <trkpt lat="43.7011" lon="1.24778">
        <ele>183</ele>
        <time>2025-10-18T08:20:51Z</time>
      </trkpt>
      <trkpt lat="43.70105" lon="1.24777">
        <ele>183</ele>
        <time>2025-10-18T08:20:52Z</time>
      </trkpt>
      <trkpt lat="43.701" lon="1.24776">
        <ele>182.6</ele>
        <time>2025-10-18T08:20:53Z</time>
      </trkpt>
      <trkpt lat="43.70095" lon="1.24775">
        <ele>182.4</ele>
        <time>2025-10-18T08:20:54Z</time>
      </trkpt>
      <trkpt lat="43.70091" lon="1.24775">
        <ele>182.4</ele>
        <time>2025-10-18T08:20:55Z</time>
      </trkpt>
      <trkpt lat="43.70085" lon="1.24776">
        <ele>182.2</ele>
        <time>2025-10-18T08:20:56Z</time>
      </trkpt>
      <trkpt lat="43.7008" lon="1.24776">
        <ele>182</ele>
        <time>2025-10-18T08:20:57Z</time>
      </trkpt>
      <trkpt lat="43.70075" lon="1.24776">
        <ele>182</ele>
        <time>2025-10-18T08:20:58Z</time>
      </trkpt>
      <trkpt lat="43.70069" lon="1.24777">
        <ele>182</ele>
        <time>2025-10-18T08:20:59Z</time>
      </trkpt>
      <trkpt lat="43.70064" lon="1.24777">
        <ele>182</ele>
        <time>2025-10-18T08:21:00Z</time>
      </trkpt>
      <trkpt lat="43.70058" lon="1.24778">
        <ele>182</ele>
        <time>2025-10-18T08:21:01Z</time>
      </trkpt>
      <trkpt lat="43.70053" lon="1.24778">
        <ele>182.2</ele>
        <time>2025-10-18T08:21:02Z</time>
      </trkpt>
      <trkpt lat="43.70047" lon="1.24779">
        <ele>182.2</ele>
        <time>2025-10-18T08:21:03Z</time>
      </trkpt>
      <trkpt lat="43.70042" lon="1.2478">
        <ele>182.2</ele>
        <time>2025-10-18T08:21:04Z</time>
      </trkpt>
      <trkpt lat="43.70037" lon="1.24781">
        <ele>182.4</ele>
        <time>2025-10-18T08:21:05Z</time>
      </trkpt>
      <trkpt lat="43.70031" lon="1.24782">
        <ele>182.2</ele>
        <time>2025-10-18T08:21:06Z</time>
      </trkpt>
      <trkpt lat="43.70026" lon="1.24782">
        <ele>182.4</ele>
        <time>2025-10-18T08:21:07Z</time>
      </trkpt>
      <trkpt lat="43.70021" lon="1.24783">
        <ele>182.4</ele>
        <time>2025-10-18T08:21:08Z</time>
      </trkpt>
      <trkpt lat="43.70015" lon="1.24784">
        <ele>182.6</ele>
        <time>2025-10-18T08:21:09Z</time>
      </trkpt>
      <trkpt lat="43.7001" lon="1.24785">
        <ele>182.8</ele>
        <time>2025-10-18T08:21:10Z</time>
      </trkpt>
      <trkpt lat="43.70005" lon="1.24786">
        <ele>183</ele>
        <time>2025-10-18T08:21:11Z</time>
      </trkpt>
      <trkpt lat="43.7" lon="1.24786">
        <ele>183.4</ele>
        <time>2025-10-18T08:21:12Z</time>
      </trkpt>
      <trkpt lat="43.69996" lon="1.24787">
        <ele>183.4</ele>
        <time>2025-10-18T08:21:13Z</time>
      </trkpt>
      <trkpt lat="43.69993" lon="1.24787">
        <ele>183.6</ele>
        <time>2025-10-18T08:21:14Z</time>
      </trkpt>
      <trkpt lat="43.69989" lon="1.24787">
        <ele>183.6</ele>
        <time>2025-10-18T08:21:15Z</time>
      </trkpt>
      <trkpt lat="43.69985" lon="1.24787">
        <ele>183.8</ele>
        <time>2025-10-18T08:21:16Z</time>
      </trkpt>
      <trkpt lat="43.69981" lon="1.24787">
        <ele>183.8</ele>
        <time>2025-10-18T08:21:17Z</time>
      </trkpt>
      <trkpt lat="43.69977" lon="1.24787">
        <ele>184</ele>
        <time>2025-10-18T08:21:18Z</time>
      </trkpt>
      <trkpt lat="43.69973" lon="1.24788">
        <ele>183.8</ele>
        <time>2025-10-18T08:21:19Z</time>
      </trkpt>
      <trkpt lat="43.69968" lon="1.24788">
        <ele>183.8</ele>
        <time>2025-10-18T08:21:20Z</time>
      </trkpt>
      <trkpt lat="43.69964" lon="1.24788">
        <ele>183.6</ele>
        <time>2025-10-18T08:21:21Z</time>
      </trkpt>
      <trkpt lat="43.69959" lon="1.24789">
        <ele>183.4</ele>
        <time>2025-10-18T08:21:22Z</time>
      </trkpt>
      <trkpt lat="43.69955" lon="1.24789">
        <ele>183.2</ele>
        <time>2025-10-18T08:21:23Z</time>
      </trkpt>
      <trkpt lat="43.69953" lon="1.2479">
        <ele>183.2</ele>
        <time>2025-10-18T08:21:24Z</time>
      </trkpt>
      <trkpt lat="43.69951" lon="1.2479">
        <ele>183.4</ele>
        <time>2025-10-18T08:21:25Z</time>
      </trkpt>
      <trkpt lat="43.6995" lon="1.2479">
        <ele>183.6</ele>
        <time>2025-10-18T08:21:26Z</time>
      </trkpt>
      <trkpt lat="43.69949" lon="1.2479">
        <ele>183.8</ele>
        <time>2025-10-18T08:21:27Z</time>
      </trkpt>
      <trkpt lat="43.69948" lon="1.2479">
        <ele>183.8</ele>
        <time>2025-10-18T08:21:28Z</time>
      </trkpt>
      <trkpt lat="43.69947" lon="1.2479">
        <ele>184</ele>
        <time>2025-10-18T08:21:29Z</time>
      </trkpt>
      <trkpt lat="43.69947" lon="1.2479">
        <ele>184</ele>
        <time>2025-10-18T08:21:30Z</time>
      </trkpt>
      <trkpt lat="43.69946" lon="1.2479">
        <ele>184</ele>
        <time>2025-10-18T08:21:31Z</time>
      </trkpt>
      <trkpt lat="43.69945" lon="1.2479">
        <ele>184.2</ele>
        <time>2025-10-18T08:21:32Z</time>
      </trkpt>
      <trkpt lat="43.69944" lon="1.2479">
        <ele>184</ele>
        <time>2025-10-18T08:21:33Z</time>
      </trkpt>
      <trkpt lat="43.69942" lon="1.2479">
        <ele>184</ele>
        <time>2025-10-18T08:21:34Z</time>
      </trkpt>
      <trkpt lat="43.69941" lon="1.2479">
        <ele>184</ele>
        <time>2025-10-18T08:21:35Z</time>
      </trkpt>
      <trkpt lat="43.69939" lon="1.2479">
        <ele>184</ele>
        <time>2025-10-18T08:21:36Z</time>
      </trkpt>
      <trkpt lat="43.69937" lon="1.24789">
        <ele>184</ele>
        <time>2025-10-18T08:21:37Z</time>
      </trkpt>
      <trkpt lat="43.69935" lon="1.24789">
        <ele>184</ele>
        <time>2025-10-18T08:21:38Z</time>
      </trkpt>
      <trkpt lat="43.69932" lon="1.2479">
        <ele>184</ele>
        <time>2025-10-18T08:21:39Z</time>
      </trkpt>
      <trkpt lat="43.6993" lon="1.24791">
        <ele>183.8</ele>
        <time>2025-10-18T08:21:40Z</time>
      </trkpt>
      <trkpt lat="43.69926" lon="1.24792">
        <ele>183.8</ele>
        <time>2025-10-18T08:21:41Z</time>
      </trkpt>
      <trkpt lat="43.69923" lon="1.24792">
        <ele>183.8</ele>
        <time>2025-10-18T08:21:42Z</time>
      </trkpt>
      <trkpt lat="43.69919" lon="1.24793">
        <ele>183.8</ele>
        <time>2025-10-18T08:21:43Z</time>
      </trkpt>
      <trkpt lat="43.69914" lon="1.24795">
        <ele>183.8</ele>
        <time>2025-10-18T08:21:44Z</time>
      </trkpt>
      <trkpt lat="43.6991" lon="1.24796">
        <ele>183.6</ele>
        <time>2025-10-18T08:21:45Z</time>
      </trkpt>
      <trkpt lat="43.69905" lon="1.24797">
        <ele>183.4</ele>
        <time>2025-10-18T08:21:46Z</time>
      </trkpt>
      <trkpt lat="43.699" lon="1.24798">
        <ele>183.2</ele>
        <time>2025-10-18T08:21:47Z</time>
      </trkpt>
      <trkpt lat="43.69896" lon="1.248">
        <ele>183.2</ele>
        <time>2025-10-18T08:21:48Z</time>
      </trkpt>
      <trkpt lat="43.69892" lon="1.24802">
        <ele>183.2</ele>
        <time>2025-10-18T08:21:49Z</time>
      </trkpt>
      <trkpt lat="43.69887" lon="1.24804">
        <ele>183.4</ele>
        <time>2025-10-18T08:21:50Z</time>
      </trkpt>
      <trkpt lat="43.69882" lon="1.24806">
        <ele>183.4</ele>
        <time>2025-10-18T08:21:51Z</time>
      </trkpt>
      <trkpt lat="43.69878" lon="1.24808">
        <ele>183.4</ele>
        <time>2025-10-18T08:21:52Z</time>
      </trkpt>
      <trkpt lat="43.69874" lon="1.2481">
        <ele>183.4</ele>
        <time>2025-10-18T08:21:53Z</time>
      </trkpt>
      <trkpt lat="43.6987" lon="1.24812">
        <ele>183.6</ele>
        <time>2025-10-18T08:21:54Z</time>
      </trkpt>
      <trkpt lat="43.69866" lon="1.24815">
        <ele>183.6</ele>
        <time>2025-10-18T08:21:55Z</time>
      </trkpt>
      <trkpt lat="43.69861" lon="1.24817">
        <ele>183.6</ele>
        <time>2025-10-18T08:21:56Z</time>
      </trkpt>
      <trkpt lat="43.69857" lon="1.2482">
        <ele>183.8</ele>
        <time>2025-10-18T08:21:57Z</time>
      </trkpt>
      <trkpt lat="43.69853" lon="1.24823">
        <ele>183.6</ele>
        <time>2025-10-18T08:21:58Z</time>
      </trkpt>
      <trkpt lat="43.69849" lon="1.24825">
        <ele>183.6</ele>
        <time>2025-10-18T08:21:59Z</time>
      </trkpt>
      <trkpt lat="43.69844" lon="1.24828">
        <ele>183.6</ele>
        <time>2025-10-18T08:22:00Z</time>
      </trkpt>
      <trkpt lat="43.6984" lon="1.24831">
        <ele>183.6</ele>
        <time>2025-10-18T08:22:01Z</time>
      </trkpt>
      <trkpt lat="43.69836" lon="1.24833">
        <ele>183.6</ele>
        <time>2025-10-18T08:22:02Z</time>
      </trkpt>
      <trkpt lat="43.69831" lon="1.24835">
        <ele>183.6</ele>
        <time>2025-10-18T08:22:03Z</time>
      </trkpt>
      <trkpt lat="43.69827" lon="1.24838">
        <ele>183.6</ele>
        <time>2025-10-18T08:22:04Z</time>
      </trkpt>
      <trkpt lat="43.69822" lon="1.24841">
        <ele>183.6</ele>
        <time>2025-10-18T08:22:05Z</time>
      </trkpt>
      <trkpt lat="43.69818" lon="1.24845">
        <ele>183.8</ele>
        <time>2025-10-18T08:22:06Z</time>
      </trkpt>
      <trkpt lat="43.69813" lon="1.24848">
        <ele>183.8</ele>
        <time>2025-10-18T08:22:07Z</time>
      </trkpt>
      <trkpt lat="43.69808" lon="1.24851">
        <ele>183.8</ele>
        <time>2025-10-18T08:22:08Z</time>
      </trkpt>
      <trkpt lat="43.69803" lon="1.24854">
        <ele>183.8</ele>
        <time>2025-10-18T08:22:09Z</time>
      </trkpt>
      <trkpt lat="43.69798" lon="1.24857">
        <ele>183.8</ele>
        <time>2025-10-18T08:22:10Z</time>
      </trkpt>
      <trkpt lat="43.69793" lon="1.24861">
        <ele>183.6</ele>
        <time>2025-10-18T08:22:11Z</time>
      </trkpt>
      <trkpt lat="43.69788" lon="1.24866">
        <ele>183.4</ele>
        <time>2025-10-18T08:22:12Z</time>
      </trkpt>
      <trkpt lat="43.69783" lon="1.2487">
        <ele>183.4</ele>
        <time>2025-10-18T08:22:13Z</time>
      </trkpt>
      <trkpt lat="43.69778" lon="1.24872">
        <ele>183.2</ele>
        <time>2025-10-18T08:22:14Z</time>
      </trkpt>
      <trkpt lat="43.69772" lon="1.24874">
        <ele>183.2</ele>
        <time>2025-10-18T08:22:15Z</time>
      </trkpt>
      <trkpt lat="43.69765" lon="1.24878">
        <ele>183.2</ele>
        <time>2025-10-18T08:22:16Z</time>
      </trkpt>
      <trkpt lat="43.6976" lon="1.24881">
        <ele>183</ele>
        <time>2025-10-18T08:22:17Z</time>
      </trkpt>
      <trkpt lat="43.69755" lon="1.24885">
        <ele>183.2</ele>
        <time>2025-10-18T08:22:18Z</time>
      </trkpt>
      <trkpt lat="43.69749" lon="1.24888">
        <ele>183.2</ele>
        <time>2025-10-18T08:22:19Z</time>
      </trkpt>
      <trkpt lat="43.69744" lon="1.24891">
        <ele>183</ele>
        <time>2025-10-18T08:22:20Z</time>
      </trkpt>
      <trkpt lat="43.69738" lon="1.24894">
        <ele>182.8</ele>
        <time>2025-10-18T08:22:21Z</time>
      </trkpt>
      <trkpt lat="43.69732" lon="1.24896">
        <ele>182.8</ele>
        <time>2025-10-18T08:22:22Z</time>
      </trkpt>
      <trkpt lat="43.69725" lon="1.24897">
        <ele>182.6</ele>
        <time>2025-10-18T08:22:23Z</time>
      </trkpt>
      <trkpt lat="43.69719" lon="1.24897">
        <ele>182.6</ele>
        <time>2025-10-18T08:22:24Z</time>
      </trkpt>
      <trkpt lat="43.69713" lon="1.24896">
        <ele>182.6</ele>
        <time>2025-10-18T08:22:25Z</time>
      </trkpt>
      <trkpt lat="43.69707" lon="1.24895">
        <ele>182.6</ele>
        <time>2025-10-18T08:22:26Z</time>
      </trkpt>
      <trkpt lat="43.69702" lon="1.24893">
        <ele>182.8</ele>
        <time>2025-10-18T08:22:27Z</time>
      </trkpt>
      <trkpt lat="43.69696" lon="1.24892">
        <ele>182.6</ele>
        <time>2025-10-18T08:22:28Z</time>
      </trkpt>
      <trkpt lat="43.6969" lon="1.24891">
        <ele>182.8</ele>
        <time>2025-10-18T08:22:29Z</time>
      </trkpt>
      <trkpt lat="43.69685" lon="1.2489">
        <ele>183</ele>
        <time>2025-10-18T08:22:30Z</time>
      </trkpt>
      <trkpt lat="43.6968" lon="1.24889">
        <ele>183</ele>
        <time>2025-10-18T08:22:31Z</time>
      </trkpt>
      <trkpt lat="43.69675" lon="1.24888">
        <ele>183</ele>
        <time>2025-10-18T08:22:32Z</time>
      </trkpt>
      <trkpt lat="43.6967" lon="1.24887">
        <ele>183.4</ele>
        <time>2025-10-18T08:22:33Z</time>
      </trkpt>
      <trkpt lat="43.69664" lon="1.24886">
        <ele>183.6</ele>
        <time>2025-10-18T08:22:34Z</time>
      </trkpt>
      <trkpt lat="43.69659" lon="1.24885">
        <ele>183.6</ele>
        <time>2025-10-18T08:22:35Z</time>
      </trkpt>
      <trkpt lat="43.69653" lon="1.24884">
        <ele>183.4</ele>
        <time>2025-10-18T08:22:36Z</time>
      </trkpt>
      <trkpt lat="43.69647" lon="1.24884">
        <ele>183.6</ele>
        <time>2025-10-18T08:22:37Z</time>
      </trkpt>
      <trkpt lat="43.69642" lon="1.24883">
        <ele>183.4</ele>
        <time>2025-10-18T08:22:38Z</time>
      </trkpt>
      <trkpt lat="43.69636" lon="1.24882">
        <ele>183.6</ele>
        <time>2025-10-18T08:22:39Z</time>
      </trkpt>
      <trkpt lat="43.69631" lon="1.24882">
        <ele>183.6</ele>
        <time>2025-10-18T08:22:40Z</time>
      </trkpt>
      <trkpt lat="43.69624" lon="1.2488">
        <ele>183.4</ele>
        <time>2025-10-18T08:22:41Z</time>
      </trkpt>
      <trkpt lat="43.69618" lon="1.24879">
        <ele>183.4</ele>
        <time>2025-10-18T08:22:42Z</time>
      </trkpt>
      <trkpt lat="43.69612" lon="1.24878">
        <ele>183.2</ele>
        <time>2025-10-18T08:22:43Z</time>
      </trkpt>
      <trkpt lat="43.69605" lon="1.24877">
        <ele>182.8</ele>
        <time>2025-10-18T08:22:44Z</time>
      </trkpt>
      <trkpt lat="43.69598" lon="1.24877">
        <ele>182.6</ele>
        <time>2025-10-18T08:22:45Z</time>
      </trkpt>
      <trkpt lat="43.69591" lon="1.24876">
        <ele>182.4</ele>
        <time>2025-10-18T08:22:46Z</time>
      </trkpt>
      <trkpt lat="43.69584" lon="1.24875">
        <ele>182.4</ele>
        <time>2025-10-18T08:22:47Z</time>
      </trkpt>
      <trkpt lat="43.69578" lon="1.24874">
        <ele>182.4</ele>
        <time>2025-10-18T08:22:48Z</time>
      </trkpt>
      <trkpt lat="43.69572" lon="1.24873">
        <ele>182.4</ele>
        <time>2025-10-18T08:22:49Z</time>
      </trkpt>
      <trkpt lat="43.69566" lon="1.24872">
        <ele>182.6</ele>
        <time>2025-10-18T08:22:50Z</time>
      </trkpt>
      <trkpt lat="43.6956" lon="1.24871">
        <ele>182.6</ele>
        <time>2025-10-18T08:22:51Z</time>
      </trkpt>
      <trkpt lat="43.69555" lon="1.2487">
        <ele>182.6</ele>
        <time>2025-10-18T08:22:52Z</time>
      </trkpt>
      <trkpt lat="43.69549" lon="1.24869">
        <ele>182.6</ele>
        <time>2025-10-18T08:22:53Z</time>
      </trkpt>
      <trkpt lat="43.69544" lon="1.24868">
        <ele>182.8</ele>
        <time>2025-10-18T08:22:54Z</time>
      </trkpt>
      <trkpt lat="43.69539" lon="1.24865">
        <ele>182.8</ele>
        <time>2025-10-18T08:22:55Z</time>
      </trkpt>
      <trkpt lat="43.69535" lon="1.24861">
        <ele>182.8</ele>
        <time>2025-10-18T08:22:56Z</time>
      </trkpt>
      <trkpt lat="43.69531" lon="1.24857">
        <ele>183</ele>
        <time>2025-10-18T08:22:57Z</time>
      </trkpt>
      <trkpt lat="43.69528" lon="1.24851">
        <ele>182.8</ele>
        <time>2025-10-18T08:22:58Z</time>
      </trkpt>
      <trkpt lat="43.69526" lon="1.24843">
        <ele>182.8</ele>
        <time>2025-10-18T08:22:59Z</time>
      </trkpt>
      <trkpt lat="43.69525" lon="1.24835">
        <ele>182.8</ele>
        <time>2025-10-18T08:23:00Z</time>
      </trkpt>
      <trkpt lat="43.69524" lon="1.24828">
        <ele>182.8</ele>
        <time>2025-10-18T08:23:01Z</time>
      </trkpt>
      <trkpt lat="43.69522" lon="1.24821">
        <ele>182.6</ele>
        <time>2025-10-18T08:23:02Z</time>
      </trkpt>
      <trkpt lat="43.69519" lon="1.24815">
        <ele>182.6</ele>
        <time>2025-10-18T08:23:03Z</time>
      </trkpt>
      <trkpt lat="43.69515" lon="1.2481">
        <ele>182.6</ele>
        <time>2025-10-18T08:23:04Z</time>
      </trkpt>
      <trkpt lat="43.69511" lon="1.24805">
        <ele>182.2</ele>
        <time>2025-10-18T08:23:05Z</time>
      </trkpt>
      <trkpt lat="43.69506" lon="1.24801">
        <ele>182</ele>
        <time>2025-10-18T08:23:06Z</time>
      </trkpt>
      <trkpt lat="43.69501" lon="1.24797">
        <ele>182</ele>
        <time>2025-10-18T08:23:07Z</time>
      </trkpt>
      <trkpt lat="43.69496" lon="1.24793">
        <ele>182</ele>
        <time>2025-10-18T08:23:08Z</time>
      </trkpt>
      <trkpt lat="43.69491" lon="1.24789">
        <ele>182</ele>
        <time>2025-10-18T08:23:09Z</time>
      </trkpt>
      <trkpt lat="43.69486" lon="1.24786">
        <ele>182.2</ele>
        <time>2025-10-18T08:23:10Z</time>
      </trkpt>
      <trkpt lat="43.69481" lon="1.24782">
        <ele>182.4</ele>
        <time>2025-10-18T08:23:11Z</time>
      </trkpt>
      <trkpt lat="43.69475" lon="1.2478">
        <ele>182.4</ele>
        <time>2025-10-18T08:23:12Z</time>
      </trkpt>
      <trkpt lat="43.6947" lon="1.24777">
        <ele>182.4</ele>
        <time>2025-10-18T08:23:13Z</time>
      </trkpt>
      <trkpt lat="43.69465" lon="1.24774">
        <ele>182.4</ele>
        <time>2025-10-18T08:23:14Z</time>
      </trkpt>
      <trkpt lat="43.6946" lon="1.2477">
        <ele>182.4</ele>
        <time>2025-10-18T08:23:15Z</time>
      </trkpt>
      <trkpt lat="43.69455" lon="1.24767">
        <ele>182.4</ele>
        <time>2025-10-18T08:23:16Z</time>
      </trkpt>
      <trkpt lat="43.69449" lon="1.24764">
        <ele>182.6</ele>
        <time>2025-10-18T08:23:17Z</time>
      </trkpt>
      <trkpt lat="43.69444" lon="1.24761">
        <ele>182.8</ele>
        <time>2025-10-18T08:23:18Z</time>
      </trkpt>
      <trkpt lat="43.69439" lon="1.24758">
        <ele>183</ele>
        <time>2025-10-18T08:23:19Z</time>
      </trkpt>
      <trkpt lat="43.69433" lon="1.24755">
        <ele>183.2</ele>
        <time>2025-10-18T08:23:20Z</time>
      </trkpt>
      <trkpt lat="43.69429" lon="1.24752">
        <ele>183.2</ele>
        <time>2025-10-18T08:23:21Z</time>
      </trkpt>
      <trkpt lat="43.69424" lon="1.2475">
        <ele>183.4</ele>
        <time>2025-10-18T08:23:22Z</time>
      </trkpt>
      <trkpt lat="43.6942" lon="1.24747">
        <ele>183.4</ele>
        <time>2025-10-18T08:23:23Z</time>
      </trkpt>
      <trkpt lat="43.69415" lon="1.24744">
        <ele>183.4</ele>
        <time>2025-10-18T08:23:24Z</time>
      </trkpt>
      <trkpt lat="43.69411" lon="1.24741">
        <ele>183.4</ele>
        <time>2025-10-18T08:23:25Z</time>
      </trkpt>
      <trkpt lat="43.69407" lon="1.24738">
        <ele>183.4</ele>
        <time>2025-10-18T08:23:26Z</time>
      </trkpt>
      <trkpt lat="43.69402" lon="1.24736">
        <ele>183.4</ele>
        <time>2025-10-18T08:23:27Z</time>
      </trkpt>
      <trkpt lat="43.69398" lon="1.24733">
        <ele>183.4</ele>
        <time>2025-10-18T08:23:28Z</time>
      </trkpt>
      <trkpt lat="43.69393" lon="1.2473">
        <ele>183.4</ele>
        <time>2025-10-18T08:23:29Z</time>
      </trkpt>
      <trkpt lat="43.69388" lon="1.24727">
        <ele>183.4</ele>
        <time>2025-10-18T08:23:30Z</time>
      </trkpt>
      <trkpt lat="43.69383" lon="1.24724">
        <ele>183.2</ele>
        <time>2025-10-18T08:23:31Z</time>
      </trkpt>
      <trkpt lat="43.69378" lon="1.24721">
        <ele>183.2</ele>
        <time>2025-10-18T08:23:32Z</time>
      </trkpt>
      <trkpt lat="43.69373" lon="1.24718">
        <ele>183.4</ele>
        <time>2025-10-18T08:23:33Z</time>
      </trkpt>
      <trkpt lat="43.69369" lon="1.24715">
        <ele>183.4</ele>
        <time>2025-10-18T08:23:34Z</time>
      </trkpt>
      <trkpt lat="43.69364" lon="1.24713">
        <ele>183.4</ele>
        <time>2025-10-18T08:23:35Z</time>
      </trkpt>
      <trkpt lat="43.69359" lon="1.2471">
        <ele>183.6</ele>
        <time>2025-10-18T08:23:36Z</time>
      </trkpt>
      <trkpt lat="43.69355" lon="1.24707">
        <ele>183.8</ele>
        <time>2025-10-18T08:23:37Z</time>
      </trkpt>
      <trkpt lat="43.69351" lon="1.24705">
        <ele>183.8</ele>
        <time>2025-10-18T08:23:38Z</time>
      </trkpt>
      <trkpt lat="43.69347" lon="1.24702">
        <ele>183.8</ele>
        <time>2025-10-18T08:23:39Z</time>
      </trkpt>
      <trkpt lat="43.69343" lon="1.247">
        <ele>183.8</ele>
        <time>2025-10-18T08:23:40Z</time>
      </trkpt>
      <trkpt lat="43.69338" lon="1.24697">
        <ele>184</ele>
        <time>2025-10-18T08:23:41Z</time>
      </trkpt>
      <trkpt lat="43.69334" lon="1.24695">
        <ele>184</ele>
        <time>2025-10-18T08:23:42Z</time>
      </trkpt>
      <trkpt lat="43.69329" lon="1.24693">
        <ele>184</ele>
        <time>2025-10-18T08:23:43Z</time>
      </trkpt>
      <trkpt lat="43.69324" lon="1.24689">
        <ele>184</ele>
        <time>2025-10-18T08:23:44Z</time>
      </trkpt>
      <trkpt lat="43.6932" lon="1.24687">
        <ele>184</ele>
        <time>2025-10-18T08:23:45Z</time>
      </trkpt>
      <trkpt lat="43.69315" lon="1.24684">
        <ele>183.8</ele>
        <time>2025-10-18T08:23:46Z</time>
      </trkpt>
      <trkpt lat="43.69311" lon="1.24681">
        <ele>183.8</ele>
        <time>2025-10-18T08:23:47Z</time>
      </trkpt>
      <trkpt lat="43.69308" lon="1.24679">
        <ele>183.6</ele>
        <time>2025-10-18T08:23:48Z</time>
      </trkpt>
      <trkpt lat="43.69304" lon="1.24676">
        <ele>183.6</ele>
        <time>2025-10-18T08:23:49Z</time>
      </trkpt>
      <trkpt lat="43.693" lon="1.24673">
        <ele>183.6</ele>
        <time>2025-10-18T08:23:50Z</time>
      </trkpt>
      <trkpt lat="43.69296" lon="1.24669">
        <ele>183.6</ele>
        <time>2025-10-18T08:23:51Z</time>
      </trkpt>
      <trkpt lat="43.69292" lon="1.24667">
        <ele>183.6</ele>
        <time>2025-10-18T08:23:52Z</time>
      </trkpt>
      <trkpt lat="43.69286" lon="1.24663">
        <ele>183.6</ele>
        <time>2025-10-18T08:23:53Z</time>
      </trkpt>
      <trkpt lat="43.69282" lon="1.2466">
        <ele>183.6</ele>
        <time>2025-10-18T08:23:54Z</time>
      </trkpt>
      <trkpt lat="43.69278" lon="1.24657">
        <ele>183.6</ele>
        <time>2025-10-18T08:23:55Z</time>
      </trkpt>
      <trkpt lat="43.69273" lon="1.24654">
        <ele>183.6</ele>
        <time>2025-10-18T08:23:56Z</time>
      </trkpt>
      <trkpt lat="43.69269" lon="1.24651">
        <ele>183.6</ele>
        <time>2025-10-18T08:23:57Z</time>
      </trkpt>
      <trkpt lat="43.69264" lon="1.24648">
        <ele>183.6</ele>
        <time>2025-10-18T08:23:58Z</time>
      </trkpt>
      <trkpt lat="43.69259" lon="1.24645">
        <ele>183.6</ele>
        <time>2025-10-18T08:23:59Z</time>
      </trkpt>
      <trkpt lat="43.69254" lon="1.24642">
        <ele>183.6</ele>
        <time>2025-10-18T08:24:00Z</time>
      </trkpt>
      <trkpt lat="43.69249" lon="1.24639">
        <ele>183.6</ele>
        <time>2025-10-18T08:24:01Z</time>
      </trkpt>
      <trkpt lat="43.69242" lon="1.24635">
        <ele>183.6</ele>
        <time>2025-10-18T08:24:02Z</time>
      </trkpt>
      <trkpt lat="43.69237" lon="1.24632">
        <ele>183.8</ele>
        <time>2025-10-18T08:24:03Z</time>
      </trkpt>
      <trkpt lat="43.69231" lon="1.24628">
        <ele>183.8</ele>
        <time>2025-10-18T08:24:04Z</time>
      </trkpt>
      <trkpt lat="43.69225" lon="1.24625">
        <ele>183.8</ele>
        <time>2025-10-18T08:24:05Z</time>
      </trkpt>
      <trkpt lat="43.6922" lon="1.24621">
        <ele>183.8</ele>
        <time>2025-10-18T08:24:06Z</time>
      </trkpt>
      <trkpt lat="43.69214" lon="1.24617">
        <ele>183.6</ele>
        <time>2025-10-18T08:24:07Z</time>
      </trkpt>
      <trkpt lat="43.69209" lon="1.24614">
        <ele>183.6</ele>
        <time>2025-10-18T08:24:08Z</time>
      </trkpt>
      <trkpt lat="43.69202" lon="1.2461">
        <ele>183.6</ele>
        <time>2025-10-18T08:24:09Z</time>
      </trkpt>
      <trkpt lat="43.69196" lon="1.24606">
        <ele>183.4</ele>
        <time>2025-10-18T08:24:10Z</time>
      </trkpt>
      <trkpt lat="43.69191" lon="1.24603">
        <ele>183.4</ele>
        <time>2025-10-18T08:24:11Z</time>
      </trkpt>
      <trkpt lat="43.69185" lon="1.24599">
        <ele>183.6</ele>
        <time>2025-10-18T08:24:12Z</time>
      </trkpt>
      <trkpt lat="43.6918" lon="1.24597">
        <ele>183.8</ele>
        <time>2025-10-18T08:24:13Z</time>
      </trkpt>
      <trkpt lat="43.69175" lon="1.24594">
        <ele>183.8</ele>
        <time>2025-10-18T08:24:14Z</time>
      </trkpt>
      <trkpt lat="43.6917" lon="1.24591">
        <ele>184</ele>
        <time>2025-10-18T08:24:15Z</time>
      </trkpt>
      <trkpt lat="43.69166" lon="1.24588">
        <ele>184.2</ele>
        <time>2025-10-18T08:24:16Z</time>
      </trkpt>
      <trkpt lat="43.69161" lon="1.24586">
        <ele>184.2</ele>
        <time>2025-10-18T08:24:17Z</time>
      </trkpt>
      <trkpt lat="43.69157" lon="1.24584">
        <ele>184.4</ele>
        <time>2025-10-18T08:24:18Z</time>
      </trkpt>
      <trkpt lat="43.69151" lon="1.2458">
        <ele>184.4</ele>
        <time>2025-10-18T08:24:19Z</time>
      </trkpt>
      <trkpt lat="43.69148" lon="1.24575">
        <ele>184.4</ele>
        <time>2025-10-18T08:24:20Z</time>
      </trkpt>
      <trkpt lat="43.69145" lon="1.24569">
        <ele>184.4</ele>
        <time>2025-10-18T08:24:21Z</time>
      </trkpt>
      <trkpt lat="43.69142" lon="1.24562">
        <ele>184.4</ele>
        <time>2025-10-18T08:24:22Z</time>
      </trkpt>
      <trkpt lat="43.6914" lon="1.24555">
        <ele>184.4</ele>
        <time>2025-10-18T08:24:23Z</time>
      </trkpt>
      <trkpt lat="43.69137" lon="1.24547">
        <ele>184.4</ele>
        <time>2025-10-18T08:24:24Z</time>
      </trkpt>
      <trkpt lat="43.69135" lon="1.2454">
        <ele>184.2</ele>
        <time>2025-10-18T08:24:25Z</time>
      </trkpt>
      <trkpt lat="43.69132" lon="1.24532">
        <ele>184.2</ele>
        <time>2025-10-18T08:24:26Z</time>
      </trkpt>
      <trkpt lat="43.69129" lon="1.24523">
        <ele>184.2</ele>
        <time>2025-10-18T08:24:27Z</time>
      </trkpt>
      <trkpt lat="43.69126" lon="1.24515">
        <ele>184.2</ele>
        <time>2025-10-18T08:24:28Z</time>
      </trkpt>
      <trkpt lat="43.69123" lon="1.24506">
        <ele>184.2</ele>
        <time>2025-10-18T08:24:29Z</time>
      </trkpt>
      <trkpt lat="43.69121" lon="1.24497">
        <ele>184</ele>
        <time>2025-10-18T08:24:30Z</time>
      </trkpt>
      <trkpt lat="43.69118" lon="1.24488">
        <ele>183.8</ele>
        <time>2025-10-18T08:24:31Z</time>
      </trkpt>
      <trkpt lat="43.69115" lon="1.24478">
        <ele>183.8</ele>
        <time>2025-10-18T08:24:32Z</time>
      </trkpt>
      <trkpt lat="43.69112" lon="1.24469">
        <ele>183.6</ele>
        <time>2025-10-18T08:24:33Z</time>
      </trkpt>
      <trkpt lat="43.6911" lon="1.2446">
        <ele>183.4</ele>
        <time>2025-10-18T08:24:34Z</time>
      </trkpt>
      <trkpt lat="43.69107" lon="1.24451">
        <ele>183.4</ele>
        <time>2025-10-18T08:24:35Z</time>
      </trkpt>
      <trkpt lat="43.69105" lon="1.24442">
        <ele>183.4</ele>
        <time>2025-10-18T08:24:36Z</time>
      </trkpt>
      <trkpt lat="43.69102" lon="1.24432">
        <ele>183.2</ele>
        <time>2025-10-18T08:24:37Z</time>
      </trkpt>
      <trkpt lat="43.691" lon="1.24423">
        <ele>183.2</ele>
        <time>2025-10-18T08:24:38Z</time>
      </trkpt>
      <trkpt lat="43.69097" lon="1.24414">
        <ele>183.2</ele>
        <time>2025-10-18T08:24:39Z</time>
      </trkpt>
      <trkpt lat="43.69094" lon="1.24405">
        <ele>183</ele>
        <time>2025-10-18T08:24:40Z</time>
      </trkpt>
      <trkpt lat="43.69092" lon="1.24396">
        <ele>183</ele>
        <time>2025-10-18T08:24:41Z</time>
      </trkpt>
      <trkpt lat="43.69088" lon="1.24388">
        <ele>183</ele>
        <time>2025-10-18T08:24:42Z</time>
      </trkpt>
      <trkpt lat="43.69085" lon="1.24379">
        <ele>182.8</ele>
        <time>2025-10-18T08:24:43Z</time>
      </trkpt>
      <trkpt lat="43.6908" lon="1.24371">
        <ele>182.8</ele>
        <time>2025-10-18T08:24:44Z</time>
      </trkpt>
      <trkpt lat="43.69075" lon="1.24364">
        <ele>182.8</ele>
        <time>2025-10-18T08:24:45Z</time>
      </trkpt>
      <trkpt lat="43.69068" lon="1.24359">
        <ele>183</ele>
        <time>2025-10-18T08:24:46Z</time>
      </trkpt>
      <trkpt lat="43.69062" lon="1.24355">
        <ele>183</ele>
        <time>2025-10-18T08:24:47Z</time>
      </trkpt>
      <trkpt lat="43.69056" lon="1.24352">
        <ele>183</ele>
        <time>2025-10-18T08:24:48Z</time>
      </trkpt>
      <trkpt lat="43.6905" lon="1.24349">
        <ele>183</ele>
        <time>2025-10-18T08:24:49Z</time>
      </trkpt>
      <trkpt lat="43.69044" lon="1.24345">
        <ele>182.8</ele>
        <time>2025-10-18T08:24:50Z</time>
      </trkpt>
      <trkpt lat="43.69037" lon="1.24343">
        <ele>182.8</ele>
        <time>2025-10-18T08:24:51Z</time>
      </trkpt>
      <trkpt lat="43.69031" lon="1.24338">
        <ele>183</ele>
        <time>2025-10-18T08:24:52Z</time>
      </trkpt>
      <trkpt lat="43.69024" lon="1.24335">
        <ele>182.8</ele>
        <time>2025-10-18T08:24:53Z</time>
      </trkpt>
      <trkpt lat="43.69018" lon="1.24331">
        <ele>182.8</ele>
        <time>2025-10-18T08:24:54Z</time>
      </trkpt>
      <trkpt lat="43.69011" lon="1.24327">
        <ele>182.6</ele>
        <time>2025-10-18T08:24:55Z</time>
      </trkpt>
      <trkpt lat="43.69004" lon="1.24323">
        <ele>182.6</ele>
        <time>2025-10-18T08:24:56Z</time>
      </trkpt>
      <trkpt lat="43.68997" lon="1.24319">
        <ele>182.6</ele>
        <time>2025-10-18T08:24:57Z</time>
      </trkpt>
      <trkpt lat="43.68989" lon="1.24315">
        <ele>182.6</ele>
        <time>2025-10-18T08:24:58Z</time>
      </trkpt>
      <trkpt lat="43.68982" lon="1.24311">
        <ele>182.6</ele>
        <time>2025-10-18T08:24:59Z</time>
      </trkpt>
      <trkpt lat="43.68974" lon="1.24307">
        <ele>182.6</ele>
        <time>2025-10-18T08:25:00Z</time>
      </trkpt>
      <trkpt lat="43.68967" lon="1.24303">
        <ele>182.8</ele>
        <time>2025-10-18T08:25:01Z</time>
      </trkpt>
      <trkpt lat="43.6896" lon="1.24299">
        <ele>182.8</ele>
        <time>2025-10-18T08:25:02Z</time>
      </trkpt>
      <trkpt lat="43.68953" lon="1.24295">
        <ele>183</ele>
        <time>2025-10-18T08:25:03Z</time>
      </trkpt>
      <trkpt lat="43.68945" lon="1.24292">
        <ele>183.2</ele>
        <time>2025-10-18T08:25:04Z</time>
      </trkpt>
      <trkpt lat="43.68939" lon="1.24288">
        <ele>183.4</ele>
        <time>2025-10-18T08:25:05Z</time>
      </trkpt>
      <trkpt lat="43.68932" lon="1.24284">
        <ele>183.6</ele>
        <time>2025-10-18T08:25:06Z</time>
      </trkpt>
      <trkpt lat="43.68925" lon="1.2428">
        <ele>183.8</ele>
        <time>2025-10-18T08:25:07Z</time>
      </trkpt>
      <trkpt lat="43.68918" lon="1.24275">
        <ele>184</ele>
        <time>2025-10-18T08:25:08Z</time>
      </trkpt>
      <trkpt lat="43.68911" lon="1.24271">
        <ele>184.2</ele>
        <time>2025-10-18T08:25:09Z</time>
      </trkpt>
      <trkpt lat="43.68905" lon="1.24266">
        <ele>184.2</ele>
        <time>2025-10-18T08:25:10Z</time>
      </trkpt>
      <trkpt lat="43.68899" lon="1.24261">
        <ele>184.4</ele>
        <time>2025-10-18T08:25:11Z</time>
      </trkpt>
      <trkpt lat="43.68892" lon="1.24255">
        <ele>184.4</ele>
        <time>2025-10-18T08:25:12Z</time>
      </trkpt>
      <trkpt lat="43.68885" lon="1.2425">
        <ele>184.4</ele>
        <time>2025-10-18T08:25:13Z</time>
      </trkpt>
      <trkpt lat="43.68879" lon="1.24245">
        <ele>184.2</ele>
        <time>2025-10-18T08:25:14Z</time>
      </trkpt>
      <trkpt lat="43.68873" lon="1.24239">
        <ele>184.2</ele>
        <time>2025-10-18T08:25:15Z</time>
      </trkpt>
      <trkpt lat="43.68866" lon="1.24234">
        <ele>184.2</ele>
        <time>2025-10-18T08:25:16Z</time>
      </trkpt>
      <trkpt lat="43.6886" lon="1.24228">
        <ele>184.2</ele>
        <time>2025-10-18T08:25:17Z</time>
      </trkpt>
      <trkpt lat="43.68854" lon="1.24223">
        <ele>184.2</ele>
        <time>2025-10-18T08:25:18Z</time>
      </trkpt>
      <trkpt lat="43.68848" lon="1.24217">
        <ele>184.2</ele>
        <time>2025-10-18T08:25:19Z</time>
      </trkpt>
      <trkpt lat="43.68842" lon="1.24212">
        <ele>184.2</ele>
        <time>2025-10-18T08:25:20Z</time>
      </trkpt>
      <trkpt lat="43.68835" lon="1.24206">
        <ele>184.4</ele>
        <time>2025-10-18T08:25:21Z</time>
      </trkpt>
      <trkpt lat="43.68829" lon="1.242">
        <ele>184.4</ele>
        <time>2025-10-18T08:25:22Z</time>
      </trkpt>
      <trkpt lat="43.68822" lon="1.24194">
        <ele>184.4</ele>
        <time>2025-10-18T08:25:23Z</time>
      </trkpt>
      <trkpt lat="43.68816" lon="1.24188">
        <ele>184.4</ele>
        <time>2025-10-18T08:25:24Z</time>
      </trkpt>
      <trkpt lat="43.68809" lon="1.24181">
        <ele>184.2</ele>
        <time>2025-10-18T08:25:25Z</time>
      </trkpt>
      <trkpt lat="43.68803" lon="1.24175">
        <ele>184.2</ele>
        <time>2025-10-18T08:25:26Z</time>
      </trkpt>
      <trkpt lat="43.68796" lon="1.2417">
        <ele>184</ele>
        <time>2025-10-18T08:25:27Z</time>
      </trkpt>
      <trkpt lat="43.6879" lon="1.24166">
        <ele>184</ele>
        <time>2025-10-18T08:25:28Z</time>
      </trkpt>
      <trkpt lat="43.68785" lon="1.24163">
        <ele>184</ele>
        <time>2025-10-18T08:25:29Z</time>
      </trkpt>
      <trkpt lat="43.6878" lon="1.2416">
        <ele>184</ele>
        <time>2025-10-18T08:25:30Z</time>
      </trkpt>
      <trkpt lat="43.68775" lon="1.24157">
        <ele>183.8</ele>
        <time>2025-10-18T08:25:31Z</time>
      </trkpt>
      <trkpt lat="43.68771" lon="1.24155">
        <ele>183.6</ele>
        <time>2025-10-18T08:25:32Z</time>
      </trkpt>
      <trkpt lat="43.68767" lon="1.24153">
        <ele>183.6</ele>
        <time>2025-10-18T08:25:33Z</time>
      </trkpt>
      <trkpt lat="43.68764" lon="1.24152">
        <ele>183.4</ele>
        <time>2025-10-18T08:25:34Z</time>
      </trkpt>
      <trkpt lat="43.6876" lon="1.24151">
        <ele>183.4</ele>
        <time>2025-10-18T08:25:35Z</time>
      </trkpt>
      <trkpt lat="43.68758" lon="1.2415">
        <ele>183.4</ele>
        <time>2025-10-18T08:25:36Z</time>
      </trkpt>
      <trkpt lat="43.68756" lon="1.24149">
        <ele>183.2</ele>
        <time>2025-10-18T08:25:37Z</time>
      </trkpt>
      <trkpt lat="43.68755" lon="1.24149">
        <ele>183.2</ele>
        <time>2025-10-18T08:25:38Z</time>
      </trkpt>
      <trkpt lat="43.68754" lon="1.24148">
        <ele>183.2</ele>
        <time>2025-10-18T08:25:39Z</time>
      </trkpt>
      <trkpt lat="43.68754" lon="1.24148">
        <ele>183.2</ele>
        <time>2025-10-18T08:25:40Z</time>
      </trkpt>
      <trkpt lat="43.68753" lon="1.24147">
        <ele>183.2</ele>
        <time>2025-10-18T08:25:41Z</time>
      </trkpt>
      <trkpt lat="43.68753" lon="1.24147">
        <ele>183.2</ele>
        <time>2025-10-18T08:25:42Z</time>
      </trkpt>
      <trkpt lat="43.68753" lon="1.24145">
        <ele>183</ele>
        <time>2025-10-18T08:25:43Z</time>
      </trkpt>
      <trkpt lat="43.68752" lon="1.24146">
        <ele>183</ele>
        <time>2025-10-18T08:25:44Z</time>
      </trkpt>
      <trkpt lat="43.68749" lon="1.24144">
        <ele>182.8</ele>
        <time>2025-10-18T08:25:53Z</time>
      </trkpt>
      <trkpt lat="43.68747" lon="1.24143">
        <ele>182.6</ele>
        <time>2025-10-18T08:25:54Z</time>
      </trkpt>
      <trkpt lat="43.68744" lon="1.24142">
        <ele>182.6</ele>
        <time>2025-10-18T08:25:55Z</time>
      </trkpt>
      <trkpt lat="43.6874" lon="1.24141">
        <ele>182.6</ele>
        <time>2025-10-18T08:25:56Z</time>
      </trkpt>
      <trkpt lat="43.68737" lon="1.2414">
        <ele>182.6</ele>
        <time>2025-10-18T08:25:57Z</time>
      </trkpt>
      <trkpt lat="43.68733" lon="1.24138">
        <ele>182.6</ele>
        <time>2025-10-18T08:25:58Z</time>
      </trkpt>
      <trkpt lat="43.68729" lon="1.24137">
        <ele>182.6</ele>
        <time>2025-10-18T08:25:59Z</time>
      </trkpt>
      <trkpt lat="43.68724" lon="1.24135">
        <ele>182.8</ele>
        <time>2025-10-18T08:26:00Z</time>
      </trkpt>
      <trkpt lat="43.6872" lon="1.24133">
        <ele>183</ele>
        <time>2025-10-18T08:26:01Z</time>
      </trkpt>
      <trkpt lat="43.68715" lon="1.2413">
        <ele>183</ele>
        <time>2025-10-18T08:26:02Z</time>
      </trkpt>
      <trkpt lat="43.6871" lon="1.24128">
        <ele>183</ele>
        <time>2025-10-18T08:26:03Z</time>
      </trkpt>
      <trkpt lat="43.68704" lon="1.24124">
        <ele>183.2</ele>
        <time>2025-10-18T08:26:04Z</time>
      </trkpt>
      <trkpt lat="43.68699" lon="1.2412">
        <ele>183.2</ele>
        <time>2025-10-18T08:26:05Z</time>
      </trkpt>
      <trkpt lat="43.68693" lon="1.24116">
        <ele>183.2</ele>
        <time>2025-10-18T08:26:06Z</time>
      </trkpt>
      <trkpt lat="43.68687" lon="1.24112">
        <ele>183.2</ele>
        <time>2025-10-18T08:26:07Z</time>
      </trkpt>
      <trkpt lat="43.6868" lon="1.24108">
        <ele>183.4</ele>
        <time>2025-10-18T08:26:08Z</time>
      </trkpt>
      <trkpt lat="43.68674" lon="1.24104">
        <ele>183.4</ele>
        <time>2025-10-18T08:26:09Z</time>
      </trkpt>
      <trkpt lat="43.68668" lon="1.241">
        <ele>183.4</ele>
        <time>2025-10-18T08:26:10Z</time>
      </trkpt>
      <trkpt lat="43.68662" lon="1.24095">
        <ele>183.6</ele>
        <time>2025-10-18T08:26:11Z</time>
      </trkpt>
      <trkpt lat="43.68656" lon="1.24091">
        <ele>183.6</ele>
        <time>2025-10-18T08:26:12Z</time>
      </trkpt>
      <trkpt lat="43.6865" lon="1.24086">
        <ele>183.6</ele>
        <time>2025-10-18T08:26:13Z</time>
      </trkpt>
      <trkpt lat="43.68644" lon="1.24082">
        <ele>183.8</ele>
        <time>2025-10-18T08:26:14Z</time>
      </trkpt>
      <trkpt lat="43.68639" lon="1.24077">
        <ele>183.8</ele>
        <time>2025-10-18T08:26:15Z</time>
      </trkpt>
      <trkpt lat="43.68632" lon="1.24072">
        <ele>183.8</ele>
        <time>2025-10-18T08:26:16Z</time>
      </trkpt>
      <trkpt lat="43.68626" lon="1.24068">
        <ele>183.8</ele>
        <time>2025-10-18T08:26:17Z</time>
      </trkpt>
      <trkpt lat="43.6862" lon="1.24064">
        <ele>184</ele>
        <time>2025-10-18T08:26:18Z</time>
      </trkpt>
      <trkpt lat="43.68613" lon="1.2406">
        <ele>184</ele>
        <time>2025-10-18T08:26:19Z</time>
      </trkpt>
      <trkpt lat="43.68607" lon="1.24056">
        <ele>184</ele>
        <time>2025-10-18T08:26:20Z</time>
      </trkpt>
      <trkpt lat="43.68601" lon="1.24052">
        <ele>184.2</ele>
        <time>2025-10-18T08:26:21Z</time>
      </trkpt>
      <trkpt lat="43.68595" lon="1.24049">
        <ele>184.2</ele>
        <time>2025-10-18T08:26:22Z</time>
      </trkpt>
      <trkpt lat="43.68588" lon="1.24046">
        <ele>184.2</ele>
        <time>2025-10-18T08:26:23Z</time>
      </trkpt>
      <trkpt lat="43.68581" lon="1.24042">
        <ele>184</ele>
        <time>2025-10-18T08:26:24Z</time>
      </trkpt>
      <trkpt lat="43.68575" lon="1.24039">
        <ele>184</ele>
        <time>2025-10-18T08:26:25Z</time>
      </trkpt>
      <trkpt lat="43.68568" lon="1.24036">
        <ele>184</ele>
        <time>2025-10-18T08:26:26Z</time>
      </trkpt>
      <trkpt lat="43.68561" lon="1.24033">
        <ele>183.8</ele>
        <time>2025-10-18T08:26:27Z</time>
      </trkpt>
      <trkpt lat="43.68554" lon="1.24031">
        <ele>183.8</ele>
        <time>2025-10-18T08:26:28Z</time>
      </trkpt>
      <trkpt lat="43.68547" lon="1.24028">
        <ele>183.8</ele>
        <time>2025-10-18T08:26:29Z</time>
      </trkpt>
      <trkpt lat="43.68541" lon="1.24025">
        <ele>183.6</ele>
        <time>2025-10-18T08:26:30Z</time>
      </trkpt>
      <trkpt lat="43.68534" lon="1.24022">
        <ele>183.6</ele>
        <time>2025-10-18T08:26:31Z</time>
      </trkpt>
      <trkpt lat="43.68527" lon="1.24018">
        <ele>183.8</ele>
        <time>2025-10-18T08:26:32Z</time>
      </trkpt>
      <trkpt lat="43.6852" lon="1.24016">
        <ele>183.8</ele>
        <time>2025-10-18T08:26:33Z</time>
      </trkpt>
      <trkpt lat="43.68513" lon="1.24013">
        <ele>183.8</ele>
        <time>2025-10-18T08:26:34Z</time>
      </trkpt>
      <trkpt lat="43.68506" lon="1.24011">
        <ele>183.6</ele>
        <time>2025-10-18T08:26:35Z</time>
      </trkpt>
      <trkpt lat="43.685" lon="1.24009">
        <ele>183.6</ele>
        <time>2025-10-18T08:26:36Z</time>
      </trkpt>
      <trkpt lat="43.68493" lon="1.24008">
        <ele>183.6</ele>
        <time>2025-10-18T08:26:37Z</time>
      </trkpt>
      <trkpt lat="43.68486" lon="1.24007">
        <ele>183.6</ele>
        <time>2025-10-18T08:26:38Z</time>
      </trkpt>
      <trkpt lat="43.68479" lon="1.24007">
        <ele>183.6</ele>
        <time>2025-10-18T08:26:39Z</time>
      </trkpt>
      <trkpt lat="43.68472" lon="1.24007">
        <ele>183.6</ele>
        <time>2025-10-18T08:26:40Z</time>
      </trkpt>
      <trkpt lat="43.68465" lon="1.24007">
        <ele>183.6</ele>
        <time>2025-10-18T08:26:41Z</time>
      </trkpt>
      <trkpt lat="43.68458" lon="1.24008">
        <ele>183.6</ele>
        <time>2025-10-18T08:26:42Z</time>
      </trkpt>
      <trkpt lat="43.6845" lon="1.24009">
        <ele>183.6</ele>
        <time>2025-10-18T08:26:43Z</time>
      </trkpt>
      <trkpt lat="43.68443" lon="1.2401">
        <ele>183.8</ele>
        <time>2025-10-18T08:26:44Z</time>
      </trkpt>
      <trkpt lat="43.68436" lon="1.24011">
        <ele>183.8</ele>
        <time>2025-10-18T08:26:45Z</time>
      </trkpt>
      <trkpt lat="43.68429" lon="1.24012">
        <ele>183.8</ele>
        <time>2025-10-18T08:26:46Z</time>
      </trkpt>
      <trkpt lat="43.68422" lon="1.24013">
        <ele>183.8</ele>
        <time>2025-10-18T08:26:47Z</time>
      </trkpt>
      <trkpt lat="43.68414" lon="1.24015">
        <ele>183.8</ele>
        <time>2025-10-18T08:26:48Z</time>
      </trkpt>
      <trkpt lat="43.68407" lon="1.24016">
        <ele>183.8</ele>
        <time>2025-10-18T08:26:49Z</time>
      </trkpt>
      <trkpt lat="43.684" lon="1.24018">
        <ele>184</ele>
        <time>2025-10-18T08:26:50Z</time>
      </trkpt>
      <trkpt lat="43.68393" lon="1.24019">
        <ele>184</ele>
        <time>2025-10-18T08:26:51Z</time>
      </trkpt>
      <trkpt lat="43.68386" lon="1.24021">
        <ele>183.8</ele>
        <time>2025-10-18T08:26:52Z</time>
      </trkpt>
      <trkpt lat="43.68378" lon="1.24022">
        <ele>183.8</ele>
        <time>2025-10-18T08:26:53Z</time>
      </trkpt>
      <trkpt lat="43.68371" lon="1.24023">
        <ele>183.8</ele>
        <time>2025-10-18T08:26:54Z</time>
      </trkpt>
      <trkpt lat="43.68363" lon="1.24024">
        <ele>183.6</ele>
        <time>2025-10-18T08:26:55Z</time>
      </trkpt>
      <trkpt lat="43.68356" lon="1.24025">
        <ele>183.6</ele>
        <time>2025-10-18T08:26:56Z</time>
      </trkpt>
      <trkpt lat="43.68348" lon="1.24027">
        <ele>183.8</ele>
        <time>2025-10-18T08:26:57Z</time>
      </trkpt>
      <trkpt lat="43.68341" lon="1.24029">
        <ele>183.8</ele>
        <time>2025-10-18T08:26:58Z</time>
      </trkpt>
      <trkpt lat="43.68334" lon="1.24031">
        <ele>183.8</ele>
        <time>2025-10-18T08:26:59Z</time>
      </trkpt>
      <trkpt lat="43.68327" lon="1.24033">
        <ele>183.8</ele>
        <time>2025-10-18T08:27:00Z</time>
      </trkpt>
      <trkpt lat="43.68319" lon="1.24035">
        <ele>184</ele>
        <time>2025-10-18T08:27:01Z</time>
      </trkpt>
      <trkpt lat="43.68312" lon="1.24038">
        <ele>184</ele>
        <time>2025-10-18T08:27:02Z</time>
      </trkpt>
      <trkpt lat="43.68306" lon="1.24041">
        <ele>184.2</ele>
        <time>2025-10-18T08:27:03Z</time>
      </trkpt>
      <trkpt lat="43.68299" lon="1.24043">
        <ele>184.2</ele>
        <time>2025-10-18T08:27:04Z</time>
      </trkpt>
      <trkpt lat="43.68292" lon="1.24046">
        <ele>184.4</ele>
        <time>2025-10-18T08:27:05Z</time>
      </trkpt>
      <trkpt lat="43.68285" lon="1.24049">
        <ele>184.4</ele>
        <time>2025-10-18T08:27:06Z</time>
      </trkpt>
      <trkpt lat="43.68278" lon="1.24052">
        <ele>184.6</ele>
        <time>2025-10-18T08:27:07Z</time>
      </trkpt>
      <trkpt lat="43.68271" lon="1.24055">
        <ele>184.6</ele>
        <time>2025-10-18T08:27:08Z</time>
      </trkpt>
      <trkpt lat="43.68264" lon="1.24058">
        <ele>184.6</ele>
        <time>2025-10-18T08:27:09Z</time>
      </trkpt>
      <trkpt lat="43.68257" lon="1.2406">
        <ele>184.8</ele>
        <time>2025-10-18T08:27:10Z</time>
      </trkpt>
      <trkpt lat="43.6825" lon="1.24063">
        <ele>184.8</ele>
        <time>2025-10-18T08:27:11Z</time>
      </trkpt>
      <trkpt lat="43.68244" lon="1.24065">
        <ele>184.8</ele>
        <time>2025-10-18T08:27:12Z</time>
      </trkpt>
      <trkpt lat="43.68238" lon="1.24066">
        <ele>185</ele>
        <time>2025-10-18T08:27:13Z</time>
      </trkpt>
      <trkpt lat="43.68231" lon="1.24067">
        <ele>185</ele>
        <time>2025-10-18T08:27:14Z</time>
      </trkpt>
      <trkpt lat="43.68224" lon="1.24068">
        <ele>185</ele>
        <time>2025-10-18T08:27:15Z</time>
      </trkpt>
      <trkpt lat="43.68218" lon="1.24069">
        <ele>185.2</ele>
        <time>2025-10-18T08:27:16Z</time>
      </trkpt>
      <trkpt lat="43.68211" lon="1.24069">
        <ele>185.2</ele>
        <time>2025-10-18T08:27:17Z</time>
      </trkpt>
      <trkpt lat="43.68204" lon="1.24068">
        <ele>185.2</ele>
        <time>2025-10-18T08:27:18Z</time>
      </trkpt>
      <trkpt lat="43.68197" lon="1.24068">
        <ele>185.2</ele>
        <time>2025-10-18T08:27:19Z</time>
      </trkpt>
      <trkpt lat="43.6819" lon="1.24068">
        <ele>185.2</ele>
        <time>2025-10-18T08:27:20Z</time>
      </trkpt>
      <trkpt lat="43.68183" lon="1.24067">
        <ele>185.2</ele>
        <time>2025-10-18T08:27:21Z</time>
      </trkpt>
      <trkpt lat="43.68176" lon="1.24067">
        <ele>185.2</ele>
        <time>2025-10-18T08:27:22Z</time>
      </trkpt>
      <trkpt lat="43.68169" lon="1.24066">
        <ele>185.2</ele>
        <time>2025-10-18T08:27:23Z</time>
      </trkpt>
      <trkpt lat="43.68162" lon="1.24066">
        <ele>185.2</ele>
        <time>2025-10-18T08:27:24Z</time>
      </trkpt>
      <trkpt lat="43.68155" lon="1.24066">
        <ele>185.2</ele>
        <time>2025-10-18T08:27:25Z</time>
      </trkpt>
      <trkpt lat="43.68147" lon="1.24066">
        <ele>185.2</ele>
        <time>2025-10-18T08:27:26Z</time>
      </trkpt>
      <trkpt lat="43.6814" lon="1.24065">
        <ele>185.2</ele>
        <time>2025-10-18T08:27:27Z</time>
      </trkpt>
      <trkpt lat="43.68133" lon="1.24065">
        <ele>185.2</ele>
        <time>2025-10-18T08:27:28Z</time>
      </trkpt>
      <trkpt lat="43.68126" lon="1.24064">
        <ele>185.2</ele>
        <time>2025-10-18T08:27:29Z</time>
      </trkpt>
      <trkpt lat="43.68118" lon="1.24063">
        <ele>185</ele>
        <time>2025-10-18T08:27:30Z</time>
      </trkpt>
      <trkpt lat="43.68111" lon="1.24062">
        <ele>184.8</ele>
        <time>2025-10-18T08:27:31Z</time>
      </trkpt>
      <trkpt lat="43.68103" lon="1.2406">
        <ele>184.6</ele>
        <time>2025-10-18T08:27:32Z</time>
      </trkpt>
      <trkpt lat="43.68096" lon="1.24057">
        <ele>184.6</ele>
        <time>2025-10-18T08:27:33Z</time>
      </trkpt>
      <trkpt lat="43.6809" lon="1.24055">
        <ele>184.4</ele>
        <time>2025-10-18T08:27:34Z</time>
      </trkpt>
      <trkpt lat="43.68084" lon="1.24052">
        <ele>184.4</ele>
        <time>2025-10-18T08:27:35Z</time>
      </trkpt>
      <trkpt lat="43.68079" lon="1.24048">
        <ele>184.4</ele>
        <time>2025-10-18T08:27:36Z</time>
      </trkpt>
      <trkpt lat="43.68073" lon="1.24045">
        <ele>184.4</ele>
        <time>2025-10-18T08:27:37Z</time>
      </trkpt>
      <trkpt lat="43.68068" lon="1.24043">
        <ele>184.4</ele>
        <time>2025-10-18T08:27:38Z</time>
      </trkpt>
      <trkpt lat="43.68062" lon="1.2404">
        <ele>184.4</ele>
        <time>2025-10-18T08:27:39Z</time>
      </trkpt>
      <trkpt lat="43.68056" lon="1.24036">
        <ele>184.2</ele>
        <time>2025-10-18T08:27:40Z</time>
      </trkpt>
      <trkpt lat="43.6805" lon="1.24033">
        <ele>184.2</ele>
        <time>2025-10-18T08:27:41Z</time>
      </trkpt>
      <trkpt lat="43.68044" lon="1.2403">
        <ele>184.2</ele>
        <time>2025-10-18T08:27:42Z</time>
      </trkpt>
      <trkpt lat="43.68038" lon="1.24026">
        <ele>184.4</ele>
        <time>2025-10-18T08:27:43Z</time>
      </trkpt>
      <trkpt lat="43.68032" lon="1.24022">
        <ele>184.4</ele>
        <time>2025-10-18T08:27:44Z</time>
      </trkpt>
      <trkpt lat="43.68026" lon="1.24018">
        <ele>184.4</ele>
        <time>2025-10-18T08:27:45Z</time>
      </trkpt>
      <trkpt lat="43.68019" lon="1.24015">
        <ele>184.4</ele>
        <time>2025-10-18T08:27:46Z</time>
      </trkpt>
      <trkpt lat="43.68013" lon="1.24011">
        <ele>184.4</ele>
        <time>2025-10-18T08:27:47Z</time>
      </trkpt>
      <trkpt lat="43.68007" lon="1.24007">
        <ele>184.4</ele>
        <time>2025-10-18T08:27:48Z</time>
      </trkpt>
      <trkpt lat="43.68" lon="1.24003">
        <ele>184.4</ele>
        <time>2025-10-18T08:27:49Z</time>
      </trkpt>
      <trkpt lat="43.67994" lon="1.23999">
        <ele>184.4</ele>
        <time>2025-10-18T08:27:50Z</time>
      </trkpt>
      <trkpt lat="43.67987" lon="1.23995">
        <ele>184.2</ele>
        <time>2025-10-18T08:27:51Z</time>
      </trkpt>
      <trkpt lat="43.6798" lon="1.2399">
        <ele>184.2</ele>
        <time>2025-10-18T08:27:52Z</time>
      </trkpt>
      <trkpt lat="43.67974" lon="1.23987">
        <ele>184.2</ele>
        <time>2025-10-18T08:27:53Z</time>
      </trkpt>
      <trkpt lat="43.67967" lon="1.23982">
        <ele>184.2</ele>
        <time>2025-10-18T08:27:54Z</time>
      </trkpt>
      <trkpt lat="43.6796" lon="1.23978">
        <ele>184.2</ele>
        <time>2025-10-18T08:27:55Z</time>
      </trkpt>
      <trkpt lat="43.67953" lon="1.23974">
        <ele>184.2</ele>
        <time>2025-10-18T08:27:56Z</time>
      </trkpt>
      <trkpt lat="43.67946" lon="1.2397">
        <ele>184.2</ele>
        <time>2025-10-18T08:27:57Z</time>
      </trkpt>
      <trkpt lat="43.67938" lon="1.23967">
        <ele>184.2</ele>
        <time>2025-10-18T08:27:58Z</time>
      </trkpt>
      <trkpt lat="43.67931" lon="1.23965">
        <ele>184</ele>
        <time>2025-10-18T08:27:59Z</time>
      </trkpt>
      <trkpt lat="43.67923" lon="1.23964">
        <ele>184</ele>
        <time>2025-10-18T08:28:00Z</time>
      </trkpt>
      <trkpt lat="43.67916" lon="1.23966">
        <ele>184</ele>
        <time>2025-10-18T08:28:01Z</time>
      </trkpt>
      <trkpt lat="43.67908" lon="1.23969">
        <ele>184</ele>
        <time>2025-10-18T08:28:02Z</time>
      </trkpt>
      <trkpt lat="43.67901" lon="1.23972">
        <ele>184.2</ele>
        <time>2025-10-18T08:28:03Z</time>
      </trkpt>
      <trkpt lat="43.67894" lon="1.23975">
        <ele>184.2</ele>
        <time>2025-10-18T08:28:04Z</time>
      </trkpt>
      <trkpt lat="43.67887" lon="1.23979">
        <ele>184.4</ele>
        <time>2025-10-18T08:28:05Z</time>
      </trkpt>
      <trkpt lat="43.6788" lon="1.23982">
        <ele>184.6</ele>
        <time>2025-10-18T08:28:06Z</time>
      </trkpt>
      <trkpt lat="43.67874" lon="1.23985">
        <ele>184.6</ele>
        <time>2025-10-18T08:28:07Z</time>
      </trkpt>
      <trkpt lat="43.67867" lon="1.23988">
        <ele>184.8</ele>
        <time>2025-10-18T08:28:08Z</time>
      </trkpt>
      <trkpt lat="43.6786" lon="1.23991">
        <ele>184.8</ele>
        <time>2025-10-18T08:28:09Z</time>
      </trkpt>
      <trkpt lat="43.67853" lon="1.23994">
        <ele>185</ele>
        <time>2025-10-18T08:28:10Z</time>
      </trkpt>
      <trkpt lat="43.67846" lon="1.23997">
        <ele>185.2</ele>
        <time>2025-10-18T08:28:11Z</time>
      </trkpt>
      <trkpt lat="43.6784" lon="1.24001">
        <ele>185.2</ele>
        <time>2025-10-18T08:28:12Z</time>
      </trkpt>
      <trkpt lat="43.67833" lon="1.24004">
        <ele>185.4</ele>
        <time>2025-10-18T08:28:13Z</time>
      </trkpt>
      <trkpt lat="43.67826" lon="1.24007">
        <ele>185.4</ele>
        <time>2025-10-18T08:28:14Z</time>
      </trkpt>
      <trkpt lat="43.6782" lon="1.2401">
        <ele>185.4</ele>
        <time>2025-10-18T08:28:15Z</time>
      </trkpt>
      <trkpt lat="43.67813" lon="1.24013">
        <ele>185.6</ele>
        <time>2025-10-18T08:28:16Z</time>
      </trkpt>
      <trkpt lat="43.67807" lon="1.24017">
        <ele>185.6</ele>
        <time>2025-10-18T08:28:17Z</time>
      </trkpt>
      <trkpt lat="43.678" lon="1.24021">
        <ele>185.6</ele>
        <time>2025-10-18T08:28:18Z</time>
      </trkpt>
      <trkpt lat="43.67794" lon="1.24026">
        <ele>185.6</ele>
        <time>2025-10-18T08:28:19Z</time>
      </trkpt>
      <trkpt lat="43.67787" lon="1.2403">
        <ele>185.6</ele>
        <time>2025-10-18T08:28:20Z</time>
      </trkpt>
      <trkpt lat="43.67781" lon="1.24035">
        <ele>185.8</ele>
        <time>2025-10-18T08:28:21Z</time>
      </trkpt>
      <trkpt lat="43.67775" lon="1.2404">
        <ele>185.8</ele>
        <time>2025-10-18T08:28:22Z</time>
      </trkpt>
      <trkpt lat="43.67769" lon="1.24045">
        <ele>186</ele>
        <time>2025-10-18T08:28:23Z</time>
      </trkpt>
      <trkpt lat="43.67763" lon="1.2405">
        <ele>186</ele>
        <time>2025-10-18T08:28:24Z</time>
      </trkpt>
      <trkpt lat="43.67757" lon="1.24055">
        <ele>186</ele>
        <time>2025-10-18T08:28:25Z</time>
      </trkpt>
      <trkpt lat="43.67751" lon="1.2406">
        <ele>186</ele>
        <time>2025-10-18T08:28:26Z</time>
      </trkpt>
      <trkpt lat="43.67745" lon="1.24066">
        <ele>186</ele>
        <time>2025-10-18T08:28:27Z</time>
      </trkpt>
      <trkpt lat="43.67738" lon="1.24071">
        <ele>186</ele>
        <time>2025-10-18T08:28:28Z</time>
      </trkpt>
      <trkpt lat="43.67732" lon="1.24076">
        <ele>186</ele>
        <time>2025-10-18T08:28:29Z</time>
      </trkpt>
      <trkpt lat="43.67726" lon="1.24081">
        <ele>186</ele>
        <time>2025-10-18T08:28:30Z</time>
      </trkpt>
      <trkpt lat="43.6772" lon="1.24086">
        <ele>186</ele>
        <time>2025-10-18T08:28:31Z</time>
      </trkpt>
      <trkpt lat="43.67714" lon="1.24091">
        <ele>186</ele>
        <time>2025-10-18T08:28:32Z</time>
      </trkpt>
      <trkpt lat="43.67708" lon="1.24097">
        <ele>186</ele>
        <time>2025-10-18T08:28:33Z</time>
      </trkpt>
      <trkpt lat="43.67702" lon="1.24102">
        <ele>186</ele>
        <time>2025-10-18T08:28:34Z</time>
      </trkpt>
      <trkpt lat="43.67696" lon="1.24107">
        <ele>186</ele>
        <time>2025-10-18T08:28:35Z</time>
      </trkpt>
      <trkpt lat="43.6769" lon="1.24112">
        <ele>186</ele>
        <time>2025-10-18T08:28:36Z</time>
      </trkpt>
      <trkpt lat="43.67685" lon="1.24118">
        <ele>186.2</ele>
        <time>2025-10-18T08:28:37Z</time>
      </trkpt>
      <trkpt lat="43.67679" lon="1.24124">
        <ele>186.2</ele>
        <time>2025-10-18T08:28:38Z</time>
      </trkpt>
      <trkpt lat="43.67674" lon="1.24131">
        <ele>186.2</ele>
        <time>2025-10-18T08:28:39Z</time>
      </trkpt>
      <trkpt lat="43.67668" lon="1.24137">
        <ele>186</ele>
        <time>2025-10-18T08:28:40Z</time>
      </trkpt>
      <trkpt lat="43.67663" lon="1.24142">
        <ele>185.8</ele>
        <time>2025-10-18T08:28:41Z</time>
      </trkpt>
      <trkpt lat="43.67657" lon="1.24148">
        <ele>185.8</ele>
        <time>2025-10-18T08:28:42Z</time>
      </trkpt>
      <trkpt lat="43.67651" lon="1.24154">
        <ele>185.8</ele>
        <time>2025-10-18T08:28:43Z</time>
      </trkpt>
      <trkpt lat="43.67645" lon="1.2416">
        <ele>185.8</ele>
        <time>2025-10-18T08:28:44Z</time>
      </trkpt>
      <trkpt lat="43.67639" lon="1.24165">
        <ele>185.8</ele>
        <time>2025-10-18T08:28:45Z</time>
      </trkpt>
      <trkpt lat="43.67634" lon="1.24171">
        <ele>186</ele>
        <time>2025-10-18T08:28:46Z</time>
      </trkpt>
      <trkpt lat="43.67629" lon="1.24177">
        <ele>186</ele>
        <time>2025-10-18T08:28:47Z</time>
      </trkpt>
      <trkpt lat="43.67623" lon="1.24184">
        <ele>186</ele>
        <time>2025-10-18T08:28:48Z</time>
      </trkpt>
      <trkpt lat="43.67619" lon="1.24192">
        <ele>186</ele>
        <time>2025-10-18T08:28:49Z</time>
      </trkpt>
      <trkpt lat="43.67616" lon="1.242">
        <ele>186</ele>
        <time>2025-10-18T08:28:50Z</time>
      </trkpt>
      <trkpt lat="43.67613" lon="1.24209">
        <ele>186.2</ele>
        <time>2025-10-18T08:28:51Z</time>
      </trkpt>
      <trkpt lat="43.67611" lon="1.24219">
        <ele>186.2</ele>
        <time>2025-10-18T08:28:52Z</time>
      </trkpt>
      <trkpt lat="43.6761" lon="1.24229">
        <ele>186.2</ele>
        <time>2025-10-18T08:28:53Z</time>
      </trkpt>
      <trkpt lat="43.67609" lon="1.24239">
        <ele>186.2</ele>
        <time>2025-10-18T08:28:54Z</time>
      </trkpt>
      <trkpt lat="43.67608" lon="1.24249">
        <ele>186.2</ele>
        <time>2025-10-18T08:28:55Z</time>
      </trkpt>
      <trkpt lat="43.67608" lon="1.2426">
        <ele>186.2</ele>
        <time>2025-10-18T08:28:56Z</time>
      </trkpt>
      <trkpt lat="43.67606" lon="1.24269">
        <ele>186.4</ele>
        <time>2025-10-18T08:28:57Z</time>
      </trkpt>
      <trkpt lat="43.67605" lon="1.24279">
        <ele>186.4</ele>
        <time>2025-10-18T08:28:58Z</time>
      </trkpt>
      <trkpt lat="43.67604" lon="1.24289">
        <ele>186.2</ele>
        <time>2025-10-18T08:28:59Z</time>
      </trkpt>
      <trkpt lat="43.67603" lon="1.24299">
        <ele>186.2</ele>
        <time>2025-10-18T08:29:00Z</time>
      </trkpt>
      <trkpt lat="43.67602" lon="1.24309">
        <ele>186.2</ele>
        <time>2025-10-18T08:29:01Z</time>
      </trkpt>
      <trkpt lat="43.67601" lon="1.24318">
        <ele>186</ele>
        <time>2025-10-18T08:29:02Z</time>
      </trkpt>
      <trkpt lat="43.676" lon="1.24327">
        <ele>185.8</ele>
        <time>2025-10-18T08:29:03Z</time>
      </trkpt>
      <trkpt lat="43.67598" lon="1.24336">
        <ele>185.8</ele>
        <time>2025-10-18T08:29:04Z</time>
      </trkpt>
      <trkpt lat="43.67596" lon="1.24343">
        <ele>185.8</ele>
        <time>2025-10-18T08:29:05Z</time>
      </trkpt>
      <trkpt lat="43.67595" lon="1.24351">
        <ele>186</ele>
        <time>2025-10-18T08:29:06Z</time>
      </trkpt>
      <trkpt lat="43.67593" lon="1.24357">
        <ele>186.2</ele>
        <time>2025-10-18T08:29:07Z</time>
      </trkpt>
      <trkpt lat="43.67591" lon="1.24363">
        <ele>186.4</ele>
        <time>2025-10-18T08:29:08Z</time>
      </trkpt>
      <trkpt lat="43.67589" lon="1.24368">
        <ele>186.6</ele>
        <time>2025-10-18T08:29:09Z</time>
      </trkpt>
      <trkpt lat="43.67587" lon="1.24374">
        <ele>186.6</ele>
        <time>2025-10-18T08:29:10Z</time>
      </trkpt>
      <trkpt lat="43.67585" lon="1.24379">
        <ele>186.6</ele>
        <time>2025-10-18T08:29:11Z</time>
      </trkpt>
      <trkpt lat="43.67583" lon="1.24384">
        <ele>186.6</ele>
        <time>2025-10-18T08:29:12Z</time>
      </trkpt>
      <trkpt lat="43.67581" lon="1.24389">
        <ele>186.6</ele>
        <time>2025-10-18T08:29:13Z</time>
      </trkpt>
      <trkpt lat="43.67578" lon="1.24394">
        <ele>186.6</ele>
        <time>2025-10-18T08:29:14Z</time>
      </trkpt>
      <trkpt lat="43.67575" lon="1.24398">
        <ele>186.6</ele>
        <time>2025-10-18T08:29:15Z</time>
      </trkpt>
      <trkpt lat="43.67571" lon="1.24401">
        <ele>186.6</ele>
        <time>2025-10-18T08:29:16Z</time>
      </trkpt>
      <trkpt lat="43.67566" lon="1.24401">
        <ele>186.8</ele>
        <time>2025-10-18T08:29:17Z</time>
      </trkpt>
      <trkpt lat="43.67562" lon="1.24401">
        <ele>186.6</ele>
        <time>2025-10-18T08:29:18Z</time>
      </trkpt>
      <trkpt lat="43.67558" lon="1.24398">
        <ele>186.6</ele>
        <time>2025-10-18T08:29:19Z</time>
      </trkpt>
      <trkpt lat="43.67555" lon="1.24395">
        <ele>186.6</ele>
        <time>2025-10-18T08:29:20Z</time>
      </trkpt>
      <trkpt lat="43.67551" lon="1.24391">
        <ele>186.6</ele>
        <time>2025-10-18T08:29:21Z</time>
      </trkpt>
      <trkpt lat="43.67546" lon="1.24388">
        <ele>186.6</ele>
        <time>2025-10-18T08:29:22Z</time>
      </trkpt>
      <trkpt lat="43.67542" lon="1.24384">
        <ele>186.4</ele>
        <time>2025-10-18T08:29:23Z</time>
      </trkpt>
      <trkpt lat="43.67536" lon="1.2438">
        <ele>186.4</ele>
        <time>2025-10-18T08:29:24Z</time>
      </trkpt>
      <trkpt lat="43.67531" lon="1.24376">
        <ele>186.2</ele>
        <time>2025-10-18T08:29:25Z</time>
      </trkpt>
      <trkpt lat="43.67525" lon="1.24372">
        <ele>186</ele>
        <time>2025-10-18T08:29:26Z</time>
      </trkpt>
      <trkpt lat="43.6752" lon="1.24368">
        <ele>185.8</ele>
        <time>2025-10-18T08:29:27Z</time>
      </trkpt>
      <trkpt lat="43.67515" lon="1.24365">
        <ele>185.8</ele>
        <time>2025-10-18T08:29:28Z</time>
      </trkpt>
      <trkpt lat="43.6751" lon="1.24361">
        <ele>185.8</ele>
        <time>2025-10-18T08:29:29Z</time>
      </trkpt>
      <trkpt lat="43.67505" lon="1.24358">
        <ele>185.8</ele>
        <time>2025-10-18T08:29:30Z</time>
      </trkpt>
      <trkpt lat="43.67499" lon="1.24354">
        <ele>186</ele>
        <time>2025-10-18T08:29:31Z</time>
      </trkpt>
      <trkpt lat="43.67494" lon="1.24351">
        <ele>186.2</ele>
        <time>2025-10-18T08:29:32Z</time>
      </trkpt>
      <trkpt lat="43.67489" lon="1.24348">
        <ele>186.2</ele>
        <time>2025-10-18T08:29:33Z</time>
      </trkpt>
      <trkpt lat="43.67484" lon="1.24344">
        <ele>186.2</ele>
        <time>2025-10-18T08:29:34Z</time>
      </trkpt>
      <trkpt lat="43.67478" lon="1.24341">
        <ele>186.4</ele>
        <time>2025-10-18T08:29:35Z</time>
      </trkpt>
      <trkpt lat="43.67472" lon="1.24337">
        <ele>186.4</ele>
        <time>2025-10-18T08:29:36Z</time>
      </trkpt>
      <trkpt lat="43.67467" lon="1.24334">
        <ele>186.4</ele>
        <time>2025-10-18T08:29:37Z</time>
      </trkpt>
      <trkpt lat="43.67461" lon="1.24331">
        <ele>186.6</ele>
        <time>2025-10-18T08:29:38Z</time>
      </trkpt>
      <trkpt lat="43.67456" lon="1.24327">
        <ele>186.6</ele>
        <time>2025-10-18T08:29:39Z</time>
      </trkpt>
      <trkpt lat="43.6745" lon="1.24324">
        <ele>186.6</ele>
        <time>2025-10-18T08:29:40Z</time>
      </trkpt>
      <trkpt lat="43.67444" lon="1.24321">
        <ele>186.4</ele>
        <time>2025-10-18T08:29:41Z</time>
      </trkpt>
      <trkpt lat="43.67439" lon="1.24317">
        <ele>186.4</ele>
        <time>2025-10-18T08:29:42Z</time>
      </trkpt>
      <trkpt lat="43.67433" lon="1.24314">
        <ele>186.4</ele>
        <time>2025-10-18T08:29:43Z</time>
      </trkpt>
      <trkpt lat="43.67427" lon="1.24311">
        <ele>186.2</ele>
        <time>2025-10-18T08:29:44Z</time>
      </trkpt>
      <trkpt lat="43.67421" lon="1.24307">
        <ele>186.2</ele>
        <time>2025-10-18T08:29:45Z</time>
      </trkpt>
      <trkpt lat="43.67416" lon="1.24304">
        <ele>186.2</ele>
        <time>2025-10-18T08:29:46Z</time>
      </trkpt>
      <trkpt lat="43.6741" lon="1.24301">
        <ele>186</ele>
        <time>2025-10-18T08:29:47Z</time>
      </trkpt>
      <trkpt lat="43.67404" lon="1.24298">
        <ele>186</ele>
        <time>2025-10-18T08:29:48Z</time>
      </trkpt>
      <trkpt lat="43.67398" lon="1.24295">
        <ele>186</ele>
        <time>2025-10-18T08:29:49Z</time>
      </trkpt>
      <trkpt lat="43.67393" lon="1.24292">
        <ele>186</ele>
        <time>2025-10-18T08:29:50Z</time>
      </trkpt>
      <trkpt lat="43.67387" lon="1.24289">
        <ele>186</ele>
        <time>2025-10-18T08:29:51Z</time>
      </trkpt>
      <trkpt lat="43.67381" lon="1.24287">
        <ele>186</ele>
        <time>2025-10-18T08:29:52Z</time>
      </trkpt>
      <trkpt lat="43.67375" lon="1.24284">
        <ele>185.8</ele>
        <time>2025-10-18T08:29:53Z</time>
      </trkpt>
      <trkpt lat="43.67369" lon="1.24282">
        <ele>185.8</ele>
        <time>2025-10-18T08:29:54Z</time>
      </trkpt>
      <trkpt lat="43.67363" lon="1.2428">
        <ele>185.8</ele>
        <time>2025-10-18T08:29:55Z</time>
      </trkpt>
      <trkpt lat="43.67357" lon="1.24278">
        <ele>186</ele>
        <time>2025-10-18T08:29:56Z</time>
      </trkpt>
      <trkpt lat="43.6735" lon="1.24276">
        <ele>186</ele>
        <time>2025-10-18T08:29:57Z</time>
      </trkpt>
      <trkpt lat="43.67344" lon="1.24275">
        <ele>186</ele>
        <time>2025-10-18T08:29:58Z</time>
      </trkpt>
      <trkpt lat="43.67338" lon="1.24274">
        <ele>186</ele>
        <time>2025-10-18T08:29:59Z</time>
      </trkpt>
      <trkpt lat="43.67332" lon="1.24273">
        <ele>186</ele>
        <time>2025-10-18T08:30:00Z</time>
      </trkpt>
      <trkpt lat="43.67325" lon="1.24272">
        <ele>186</ele>
        <time>2025-10-18T08:30:01Z</time>
      </trkpt>
      <trkpt lat="43.67319" lon="1.24271">
        <ele>185.8</ele>
        <time>2025-10-18T08:30:02Z</time>
      </trkpt>
      <trkpt lat="43.67313" lon="1.2427">
        <ele>185.8</ele>
        <time>2025-10-18T08:30:03Z</time>
      </trkpt>
      <trkpt lat="43.67307" lon="1.2427">
        <ele>185.8</ele>
        <time>2025-10-18T08:30:04Z</time>
      </trkpt>
      <trkpt lat="43.673" lon="1.24269">
        <ele>185.8</ele>
        <time>2025-10-18T08:30:05Z</time>
      </trkpt>
      <trkpt lat="43.67294" lon="1.24269">
        <ele>185.8</ele>
        <time>2025-10-18T08:30:06Z</time>
      </trkpt>
      <trkpt lat="43.67288" lon="1.24267">
        <ele>185.8</ele>
        <time>2025-10-18T08:30:07Z</time>
      </trkpt>
      <trkpt lat="43.67281" lon="1.24267">
        <ele>185.8</ele>
        <time>2025-10-18T08:30:08Z</time>
      </trkpt>
      <trkpt lat="43.67275" lon="1.24266">
        <ele>185.8</ele>
        <time>2025-10-18T08:30:09Z</time>
      </trkpt>
      <trkpt lat="43.67269" lon="1.24265">
        <ele>185.8</ele>
        <time>2025-10-18T08:30:10Z</time>
      </trkpt>
      <trkpt lat="43.67264" lon="1.24264">
        <ele>185.8</ele>
        <time>2025-10-18T08:30:11Z</time>
      </trkpt>
      <trkpt lat="43.67258" lon="1.24263">
        <ele>185.8</ele>
        <time>2025-10-18T08:30:12Z</time>
      </trkpt>
      <trkpt lat="43.67252" lon="1.24263">
        <ele>185.8</ele>
        <time>2025-10-18T08:30:13Z</time>
      </trkpt>
      <trkpt lat="43.67247" lon="1.24262">
        <ele>185.8</ele>
        <time>2025-10-18T08:30:14Z</time>
      </trkpt>
      <trkpt lat="43.67241" lon="1.24261">
        <ele>185.8</ele>
        <time>2025-10-18T08:30:15Z</time>
      </trkpt>
      <trkpt lat="43.67234" lon="1.24259">
        <ele>185.8</ele>
        <time>2025-10-18T08:30:16Z</time>
      </trkpt>
      <trkpt lat="43.67228" lon="1.24258">
        <ele>185.8</ele>
        <time>2025-10-18T08:30:17Z</time>
      </trkpt>
      <trkpt lat="43.67222" lon="1.24258">
        <ele>185.8</ele>
        <time>2025-10-18T08:30:18Z</time>
      </trkpt>
      <trkpt lat="43.67215" lon="1.24257">
        <ele>185.8</ele>
        <time>2025-10-18T08:30:19Z</time>
      </trkpt>
      <trkpt lat="43.67208" lon="1.24255">
        <ele>185.8</ele>
        <time>2025-10-18T08:30:20Z</time>
      </trkpt>
      <trkpt lat="43.67201" lon="1.24254">
        <ele>185.8</ele>
        <time>2025-10-18T08:30:21Z</time>
      </trkpt>
      <trkpt lat="43.67194" lon="1.24253">
        <ele>186</ele>
        <time>2025-10-18T08:30:22Z</time>
      </trkpt>
      <trkpt lat="43.67187" lon="1.24252">
        <ele>186</ele>
        <time>2025-10-18T08:30:23Z</time>
      </trkpt>
      <trkpt lat="43.6718" lon="1.24251">
        <ele>186</ele>
        <time>2025-10-18T08:30:24Z</time>
      </trkpt>
      <trkpt lat="43.67173" lon="1.24248">
        <ele>186</ele>
        <time>2025-10-18T08:30:25Z</time>
      </trkpt>
      <trkpt lat="43.67166" lon="1.24246">
        <ele>185.8</ele>
        <time>2025-10-18T08:30:26Z</time>
      </trkpt>
      <trkpt lat="43.67159" lon="1.24243">
        <ele>185.8</ele>
        <time>2025-10-18T08:30:27Z</time>
      </trkpt>
      <trkpt lat="43.67152" lon="1.24241">
        <ele>185.6</ele>
        <time>2025-10-18T08:30:28Z</time>
      </trkpt>
      <trkpt lat="43.67146" lon="1.24239">
        <ele>185.6</ele>
        <time>2025-10-18T08:30:29Z</time>
      </trkpt>
      <trkpt lat="43.6714" lon="1.24235">
        <ele>185.4</ele>
        <time>2025-10-18T08:30:30Z</time>
      </trkpt>
      <trkpt lat="43.67133" lon="1.24233">
        <ele>185.2</ele>
        <time>2025-10-18T08:30:31Z</time>
      </trkpt>
      <trkpt lat="43.67127" lon="1.2423">
        <ele>185.2</ele>
        <time>2025-10-18T08:30:32Z</time>
      </trkpt>
      <trkpt lat="43.67121" lon="1.24227">
        <ele>185.2</ele>
        <time>2025-10-18T08:30:33Z</time>
      </trkpt>
      <trkpt lat="43.67114" lon="1.24223">
        <ele>185.2</ele>
        <time>2025-10-18T08:30:34Z</time>
      </trkpt>
      <trkpt lat="43.67108" lon="1.2422">
        <ele>185.4</ele>
        <time>2025-10-18T08:30:35Z</time>
      </trkpt>
      <trkpt lat="43.67101" lon="1.24218">
        <ele>185.4</ele>
        <time>2025-10-18T08:30:36Z</time>
      </trkpt>
      <trkpt lat="43.67095" lon="1.24215">
        <ele>185.6</ele>
        <time>2025-10-18T08:30:37Z</time>
      </trkpt>
      <trkpt lat="43.67089" lon="1.24213">
        <ele>185.8</ele>
        <time>2025-10-18T08:30:38Z</time>
      </trkpt>
      <trkpt lat="43.67083" lon="1.2421">
        <ele>186</ele>
        <time>2025-10-18T08:30:39Z</time>
      </trkpt>
      <trkpt lat="43.67077" lon="1.24208">
        <ele>186</ele>
        <time>2025-10-18T08:30:40Z</time>
      </trkpt>
      <trkpt lat="43.67072" lon="1.24205">
        <ele>186.2</ele>
        <time>2025-10-18T08:30:41Z</time>
      </trkpt>
      <trkpt lat="43.67066" lon="1.24202">
        <ele>186</ele>
        <time>2025-10-18T08:30:42Z</time>
      </trkpt>
      <trkpt lat="43.67059" lon="1.24199">
        <ele>186.2</ele>
        <time>2025-10-18T08:30:43Z</time>
      </trkpt>
      <trkpt lat="43.67053" lon="1.24196">
        <ele>186.2</ele>
        <time>2025-10-18T08:30:44Z</time>
      </trkpt>
      <trkpt lat="43.67047" lon="1.24192">
        <ele>186</ele>
        <time>2025-10-18T08:30:45Z</time>
      </trkpt>
      <trkpt lat="43.6704" lon="1.24188">
        <ele>186.2</ele>
        <time>2025-10-18T08:30:46Z</time>
      </trkpt>
      <trkpt lat="43.67034" lon="1.24184">
        <ele>186.2</ele>
        <time>2025-10-18T08:30:47Z</time>
      </trkpt>
      <trkpt lat="43.67029" lon="1.2418">
        <ele>186.2</ele>
        <time>2025-10-18T08:30:48Z</time>
      </trkpt>
      <trkpt lat="43.67023" lon="1.24176">
        <ele>186.4</ele>
        <time>2025-10-18T08:30:49Z</time>
      </trkpt>
      <trkpt lat="43.67017" lon="1.24172">
        <ele>186.4</ele>
        <time>2025-10-18T08:30:50Z</time>
      </trkpt>
      <trkpt lat="43.67011" lon="1.24167">
        <ele>186.4</ele>
        <time>2025-10-18T08:30:51Z</time>
      </trkpt>
      <trkpt lat="43.67005" lon="1.24162">
        <ele>186.2</ele>
        <time>2025-10-18T08:30:52Z</time>
      </trkpt>
      <trkpt lat="43.66999" lon="1.24158">
        <ele>186.2</ele>
        <time>2025-10-18T08:30:53Z</time>
      </trkpt>
      <trkpt lat="43.66994" lon="1.24153">
        <ele>186</ele>
        <time>2025-10-18T08:30:54Z</time>
      </trkpt>
      <trkpt lat="43.66988" lon="1.24149">
        <ele>186</ele>
        <time>2025-10-18T08:30:55Z</time>
      </trkpt>
      <trkpt lat="43.66982" lon="1.24146">
        <ele>186.2</ele>
        <time>2025-10-18T08:30:56Z</time>
      </trkpt>
      <trkpt lat="43.66976" lon="1.24142">
        <ele>186.2</ele>
        <time>2025-10-18T08:30:57Z</time>
      </trkpt>
      <trkpt lat="43.66969" lon="1.24138">
        <ele>186.4</ele>
        <time>2025-10-18T08:30:58Z</time>
      </trkpt>
      <trkpt lat="43.66963" lon="1.24134">
        <ele>186.6</ele>
        <time>2025-10-18T08:30:59Z</time>
      </trkpt>
      <trkpt lat="43.66957" lon="1.24131">
        <ele>186.8</ele>
        <time>2025-10-18T08:31:00Z</time>
      </trkpt>
      <trkpt lat="43.66951" lon="1.24127">
        <ele>187</ele>
        <time>2025-10-18T08:31:01Z</time>
      </trkpt>
      <trkpt lat="43.66945" lon="1.24124">
        <ele>187.2</ele>
        <time>2025-10-18T08:31:02Z</time>
      </trkpt>
      <trkpt lat="43.6694" lon="1.2412">
        <ele>187.4</ele>
        <time>2025-10-18T08:31:03Z</time>
      </trkpt>
      <trkpt lat="43.66934" lon="1.24115">
        <ele>187.4</ele>
        <time>2025-10-18T08:31:04Z</time>
      </trkpt>
      <trkpt lat="43.66929" lon="1.24111">
        <ele>187.6</ele>
        <time>2025-10-18T08:31:05Z</time>
      </trkpt>
      <trkpt lat="43.66923" lon="1.24107">
        <ele>187.6</ele>
        <time>2025-10-18T08:31:06Z</time>
      </trkpt>
      <trkpt lat="43.66918" lon="1.24102">
        <ele>187.6</ele>
        <time>2025-10-18T08:31:07Z</time>
      </trkpt>
      <trkpt lat="43.66913" lon="1.24097">
        <ele>187.8</ele>
        <time>2025-10-18T08:31:08Z</time>
      </trkpt>
      <trkpt lat="43.66907" lon="1.24092">
        <ele>187.8</ele>
        <time>2025-10-18T08:31:09Z</time>
      </trkpt>
      <trkpt lat="43.66902" lon="1.24087">
        <ele>187.8</ele>
        <time>2025-10-18T08:31:10Z</time>
      </trkpt>
      <trkpt lat="43.66897" lon="1.24081">
        <ele>187.8</ele>
        <time>2025-10-18T08:31:11Z</time>
      </trkpt>
      <trkpt lat="43.66892" lon="1.24076">
        <ele>188</ele>
        <time>2025-10-18T08:31:12Z</time>
      </trkpt>
      <trkpt lat="43.66887" lon="1.2407">
        <ele>188</ele>
        <time>2025-10-18T08:31:13Z</time>
      </trkpt>
      <trkpt lat="43.66882" lon="1.24065">
        <ele>188</ele>
        <time>2025-10-18T08:31:14Z</time>
      </trkpt>
      <trkpt lat="43.66877" lon="1.24059">
        <ele>188</ele>
        <time>2025-10-18T08:31:15Z</time>
      </trkpt>
      <trkpt lat="43.66872" lon="1.24054">
        <ele>188</ele>
        <time>2025-10-18T08:31:16Z</time>
      </trkpt>
      <trkpt lat="43.66866" lon="1.24048">
        <ele>188</ele>
        <time>2025-10-18T08:31:17Z</time>
      </trkpt>
      <trkpt lat="43.66861" lon="1.24042">
        <ele>188</ele>
        <time>2025-10-18T08:31:18Z</time>
      </trkpt>
      <trkpt lat="43.66855" lon="1.24037">
        <ele>188</ele>
        <time>2025-10-18T08:31:19Z</time>
      </trkpt>
      <trkpt lat="43.6685" lon="1.24032">
        <ele>188</ele>
        <time>2025-10-18T08:31:20Z</time>
      </trkpt>
      <trkpt lat="43.66845" lon="1.24026">
        <ele>188</ele>
        <time>2025-10-18T08:31:21Z</time>
      </trkpt>
      <trkpt lat="43.66839" lon="1.2402">
        <ele>187.8</ele>
        <time>2025-10-18T08:31:22Z</time>
      </trkpt>
      <trkpt lat="43.66834" lon="1.24015">
        <ele>187.8</ele>
        <time>2025-10-18T08:31:23Z</time>
      </trkpt>
      <trkpt lat="43.66829" lon="1.2401">
        <ele>187.8</ele>
        <time>2025-10-18T08:31:24Z</time>
      </trkpt>
      <trkpt lat="43.66824" lon="1.24004">
        <ele>187.8</ele>
        <time>2025-10-18T08:31:25Z</time>
      </trkpt>
      <trkpt lat="43.66819" lon="1.23999">
        <ele>187.8</ele>
        <time>2025-10-18T08:31:26Z</time>
      </trkpt>
      <trkpt lat="43.66814" lon="1.23993">
        <ele>187.8</ele>
        <time>2025-10-18T08:31:27Z</time>
      </trkpt>
      <trkpt lat="43.66809" lon="1.23988">
        <ele>187.8</ele>
        <time>2025-10-18T08:31:28Z</time>
      </trkpt>
      <trkpt lat="43.66804" lon="1.23984">
        <ele>187.6</ele>
        <time>2025-10-18T08:31:29Z</time>
      </trkpt>
      <trkpt lat="43.668" lon="1.23979">
        <ele>187.8</ele>
        <time>2025-10-18T08:31:30Z</time>
      </trkpt>
      <trkpt lat="43.66796" lon="1.23975">
        <ele>187.8</ele>
        <time>2025-10-18T08:31:31Z</time>
      </trkpt>
      <trkpt lat="43.66792" lon="1.23971">
        <ele>187.8</ele>
        <time>2025-10-18T08:31:32Z</time>
      </trkpt>
      <trkpt lat="43.66788" lon="1.23968">
        <ele>187.8</ele>
        <time>2025-10-18T08:31:33Z</time>
      </trkpt>
      <trkpt lat="43.66785" lon="1.23964">
        <ele>187.8</ele>
        <time>2025-10-18T08:31:34Z</time>
      </trkpt>
      <trkpt lat="43.66782" lon="1.23961">
        <ele>187.8</ele>
        <time>2025-10-18T08:31:35Z</time>
      </trkpt>
      <trkpt lat="43.6678" lon="1.23958">
        <ele>187.8</ele>
        <time>2025-10-18T08:31:36Z</time>
      </trkpt>
      <trkpt lat="43.66779" lon="1.23955">
        <ele>187.8</ele>
        <time>2025-10-18T08:31:37Z</time>
      </trkpt>
      <trkpt lat="43.66777" lon="1.23952">
        <ele>187.8</ele>
        <time>2025-10-18T08:31:38Z</time>
      </trkpt>
      <trkpt lat="43.66775" lon="1.2395">
        <ele>187.6</ele>
        <time>2025-10-18T08:31:39Z</time>
      </trkpt>
      <trkpt lat="43.66772" lon="1.23947">
        <ele>187.6</ele>
        <time>2025-10-18T08:31:40Z</time>
      </trkpt>
      <trkpt lat="43.66768" lon="1.23944">
        <ele>187.6</ele>
        <time>2025-10-18T08:31:41Z</time>
      </trkpt>
      <trkpt lat="43.66765" lon="1.23942">
        <ele>187.4</ele>
        <time>2025-10-18T08:31:42Z</time>
      </trkpt>
      <trkpt lat="43.66761" lon="1.23938">
        <ele>187.4</ele>
        <time>2025-10-18T08:31:43Z</time>
      </trkpt>
      <trkpt lat="43.66758" lon="1.23934">
        <ele>187.2</ele>
        <time>2025-10-18T08:31:44Z</time>
      </trkpt>
      <trkpt lat="43.66753" lon="1.23928">
        <ele>187</ele>
        <time>2025-10-18T08:31:45Z</time>
      </trkpt>
      <trkpt lat="43.66749" lon="1.23923">
        <ele>187</ele>
        <time>2025-10-18T08:31:46Z</time>
      </trkpt>
      <trkpt lat="43.66744" lon="1.23917">
        <ele>186.8</ele>
        <time>2025-10-18T08:31:47Z</time>
      </trkpt>
      <trkpt lat="43.66739" lon="1.23912">
        <ele>186.6</ele>
        <time>2025-10-18T08:31:48Z</time>
      </trkpt>
      <trkpt lat="43.66735" lon="1.23906">
        <ele>186.6</ele>
        <time>2025-10-18T08:31:49Z</time>
      </trkpt>
      <trkpt lat="43.6673" lon="1.239">
        <ele>186.6</ele>
        <time>2025-10-18T08:31:50Z</time>
      </trkpt>
      <trkpt lat="43.66725" lon="1.23894">
        <ele>186.6</ele>
        <time>2025-10-18T08:31:51Z</time>
      </trkpt>
      <trkpt lat="43.6672" lon="1.23889">
        <ele>186.6</ele>
        <time>2025-10-18T08:31:52Z</time>
      </trkpt>
      <trkpt lat="43.66715" lon="1.23883">
        <ele>186.8</ele>
        <time>2025-10-18T08:31:53Z</time>
      </trkpt>
      <trkpt lat="43.6671" lon="1.23878">
        <ele>186.8</ele>
        <time>2025-10-18T08:31:54Z</time>
      </trkpt>
      <trkpt lat="43.66705" lon="1.23872">
        <ele>186.8</ele>
        <time>2025-10-18T08:31:55Z</time>
      </trkpt>
      <trkpt lat="43.667" lon="1.23866">
        <ele>186.8</ele>
        <time>2025-10-18T08:31:56Z</time>
      </trkpt>
      <trkpt lat="43.66695" lon="1.23859">
        <ele>186.8</ele>
        <time>2025-10-18T08:31:57Z</time>
      </trkpt>
      <trkpt lat="43.6669" lon="1.23854">
        <ele>186.8</ele>
        <time>2025-10-18T08:31:58Z</time>
      </trkpt>
      <trkpt lat="43.66685" lon="1.23848">
        <ele>186.8</ele>
        <time>2025-10-18T08:31:59Z</time>
      </trkpt>
      <trkpt lat="43.6668" lon="1.23842">
        <ele>186.8</ele>
        <time>2025-10-18T08:32:00Z</time>
      </trkpt>
      <trkpt lat="43.66674" lon="1.23836">
        <ele>186.8</ele>
        <time>2025-10-18T08:32:01Z</time>
      </trkpt>
      <trkpt lat="43.66668" lon="1.23831">
        <ele>186.8</ele>
        <time>2025-10-18T08:32:02Z</time>
      </trkpt>
      <trkpt lat="43.66663" lon="1.23826">
        <ele>186.8</ele>
        <time>2025-10-18T08:32:03Z</time>
      </trkpt>
      <trkpt lat="43.66658" lon="1.23821">
        <ele>186.8</ele>
        <time>2025-10-18T08:32:04Z</time>
      </trkpt>
      <trkpt lat="43.66652" lon="1.23816">
        <ele>187</ele>
        <time>2025-10-18T08:32:05Z</time>
      </trkpt>
      <trkpt lat="43.66647" lon="1.23812">
        <ele>187</ele>
        <time>2025-10-18T08:32:06Z</time>
      </trkpt>
      <trkpt lat="43.66641" lon="1.23807">
        <ele>187</ele>
        <time>2025-10-18T08:32:07Z</time>
      </trkpt>
      <trkpt lat="43.66636" lon="1.23803">
        <ele>187.2</ele>
        <time>2025-10-18T08:32:08Z</time>
      </trkpt>
      <trkpt lat="43.6663" lon="1.23799">
        <ele>187.2</ele>
        <time>2025-10-18T08:32:09Z</time>
      </trkpt>
      <trkpt lat="43.66625" lon="1.23795">
        <ele>187.2</ele>
        <time>2025-10-18T08:32:10Z</time>
      </trkpt>
      <trkpt lat="43.66619" lon="1.23791">
        <ele>187.2</ele>
        <time>2025-10-18T08:32:11Z</time>
      </trkpt>
      <trkpt lat="43.66613" lon="1.23787">
        <ele>187.2</ele>
        <time>2025-10-18T08:32:12Z</time>
      </trkpt>
      <trkpt lat="43.66607" lon="1.23784">
        <ele>187.2</ele>
        <time>2025-10-18T08:32:13Z</time>
      </trkpt>
      <trkpt lat="43.666" lon="1.23782">
        <ele>187.2</ele>
        <time>2025-10-18T08:32:14Z</time>
      </trkpt>
      <trkpt lat="43.66594" lon="1.2378">
        <ele>187.4</ele>
        <time>2025-10-18T08:32:15Z</time>
      </trkpt>
      <trkpt lat="43.66588" lon="1.23778">
        <ele>187.4</ele>
        <time>2025-10-18T08:32:16Z</time>
      </trkpt>
      <trkpt lat="43.66582" lon="1.23776">
        <ele>187.4</ele>
        <time>2025-10-18T08:32:17Z</time>
      </trkpt>
      <trkpt lat="43.66575" lon="1.23774">
        <ele>187.6</ele>
        <time>2025-10-18T08:32:18Z</time>
      </trkpt>
      <trkpt lat="43.66569" lon="1.23773">
        <ele>187.6</ele>
        <time>2025-10-18T08:32:19Z</time>
      </trkpt>
      <trkpt lat="43.66562" lon="1.23771">
        <ele>187.6</ele>
        <time>2025-10-18T08:32:20Z</time>
      </trkpt>
      <trkpt lat="43.66556" lon="1.23769">
        <ele>187.8</ele>
        <time>2025-10-18T08:32:21Z</time>
      </trkpt>
      <trkpt lat="43.6655" lon="1.23768">
        <ele>187.8</ele>
        <time>2025-10-18T08:32:22Z</time>
      </trkpt>
      <trkpt lat="43.66543" lon="1.23767">
        <ele>188</ele>
        <time>2025-10-18T08:32:23Z</time>
      </trkpt>
      <trkpt lat="43.66537" lon="1.23766">
        <ele>188.4</ele>
        <time>2025-10-18T08:32:24Z</time>
      </trkpt>
      <trkpt lat="43.6653" lon="1.23765">
        <ele>188.4</ele>
        <time>2025-10-18T08:32:25Z</time>
      </trkpt>
      <trkpt lat="43.66524" lon="1.23764">
        <ele>188.6</ele>
        <time>2025-10-18T08:32:26Z</time>
      </trkpt>
      <trkpt lat="43.66517" lon="1.23763">
        <ele>188.6</ele>
        <time>2025-10-18T08:32:27Z</time>
      </trkpt>
      <trkpt lat="43.6651" lon="1.23762">
        <ele>188.6</ele>
        <time>2025-10-18T08:32:28Z</time>
      </trkpt>
      <trkpt lat="43.66503" lon="1.23761">
        <ele>188.6</ele>
        <time>2025-10-18T08:32:29Z</time>
      </trkpt>
      <trkpt lat="43.66497" lon="1.23761">
        <ele>188.4</ele>
        <time>2025-10-18T08:32:30Z</time>
      </trkpt>
      <trkpt lat="43.6649" lon="1.2376">
        <ele>188.2</ele>
        <time>2025-10-18T08:32:31Z</time>
      </trkpt>
      <trkpt lat="43.66484" lon="1.23759">
        <ele>188</ele>
        <time>2025-10-18T08:32:32Z</time>
      </trkpt>
      <trkpt lat="43.66477" lon="1.23759">
        <ele>187.6</ele>
        <time>2025-10-18T08:32:33Z</time>
      </trkpt>
      <trkpt lat="43.66471" lon="1.23757">
        <ele>187.4</ele>
        <time>2025-10-18T08:32:34Z</time>
      </trkpt>
      <trkpt lat="43.66464" lon="1.23756">
        <ele>187.2</ele>
        <time>2025-10-18T08:32:35Z</time>
      </trkpt>
      <trkpt lat="43.66458" lon="1.23755">
        <ele>187</ele>
        <time>2025-10-18T08:32:36Z</time>
      </trkpt>
      <trkpt lat="43.66451" lon="1.23754">
        <ele>187</ele>
        <time>2025-10-18T08:32:37Z</time>
      </trkpt>
      <trkpt lat="43.66445" lon="1.23754">
        <ele>187.2</ele>
        <time>2025-10-18T08:32:38Z</time>
      </trkpt>
      <trkpt lat="43.66438" lon="1.23753">
        <ele>187.4</ele>
        <time>2025-10-18T08:32:39Z</time>
      </trkpt>
      <trkpt lat="43.66431" lon="1.23753">
        <ele>187.4</ele>
        <time>2025-10-18T08:32:40Z</time>
      </trkpt>
      <trkpt lat="43.66425" lon="1.23753">
        <ele>187.6</ele>
        <time>2025-10-18T08:32:41Z</time>
      </trkpt>
      <trkpt lat="43.66419" lon="1.23753">
        <ele>187.8</ele>
        <time>2025-10-18T08:32:42Z</time>
      </trkpt>
      <trkpt lat="43.66413" lon="1.23752">
        <ele>187.8</ele>
        <time>2025-10-18T08:32:43Z</time>
      </trkpt>
      <trkpt lat="43.66407" lon="1.23752">
        <ele>187.8</ele>
        <time>2025-10-18T08:32:44Z</time>
      </trkpt>
      <trkpt lat="43.664" lon="1.23753">
        <ele>187.8</ele>
        <time>2025-10-18T08:32:45Z</time>
      </trkpt>
      <trkpt lat="43.66394" lon="1.23753">
        <ele>187.8</ele>
        <time>2025-10-18T08:32:46Z</time>
      </trkpt>
      <trkpt lat="43.66388" lon="1.23753">
        <ele>187.6</ele>
        <time>2025-10-18T08:32:47Z</time>
      </trkpt>
      <trkpt lat="43.66381" lon="1.23753">
        <ele>187.6</ele>
        <time>2025-10-18T08:32:48Z</time>
      </trkpt>
      <trkpt lat="43.66375" lon="1.23754">
        <ele>187.6</ele>
        <time>2025-10-18T08:32:49Z</time>
      </trkpt>
      <trkpt lat="43.66369" lon="1.23754">
        <ele>187.8</ele>
        <time>2025-10-18T08:32:50Z</time>
      </trkpt>
      <trkpt lat="43.66362" lon="1.23754">
        <ele>187.8</ele>
        <time>2025-10-18T08:32:51Z</time>
      </trkpt>
      <trkpt lat="43.66356" lon="1.23755">
        <ele>187.8</ele>
        <time>2025-10-18T08:32:52Z</time>
      </trkpt>
      <trkpt lat="43.6635" lon="1.23755">
        <ele>187.8</ele>
        <time>2025-10-18T08:32:53Z</time>
      </trkpt>
      <trkpt lat="43.66343" lon="1.23756">
        <ele>187.8</ele>
        <time>2025-10-18T08:32:54Z</time>
      </trkpt>
      <trkpt lat="43.66337" lon="1.23756">
        <ele>187.6</ele>
        <time>2025-10-18T08:32:55Z</time>
      </trkpt>
      <trkpt lat="43.66331" lon="1.23756">
        <ele>187.6</ele>
        <time>2025-10-18T08:32:56Z</time>
      </trkpt>
      <trkpt lat="43.66324" lon="1.23756">
        <ele>187.4</ele>
        <time>2025-10-18T08:32:57Z</time>
      </trkpt>
      <trkpt lat="43.66318" lon="1.23756">
        <ele>187.4</ele>
        <time>2025-10-18T08:32:58Z</time>
      </trkpt>
      <trkpt lat="43.66312" lon="1.23757">
        <ele>187.6</ele>
        <time>2025-10-18T08:32:59Z</time>
      </trkpt>
      <trkpt lat="43.66306" lon="1.23757">
        <ele>187.6</ele>
        <time>2025-10-18T08:33:00Z</time>
      </trkpt>
      <trkpt lat="43.663" lon="1.23757">
        <ele>187.8</ele>
        <time>2025-10-18T08:33:01Z</time>
      </trkpt>
      <trkpt lat="43.66293" lon="1.23758">
        <ele>188</ele>
        <time>2025-10-18T08:33:02Z</time>
      </trkpt>
      <trkpt lat="43.66287" lon="1.23758">
        <ele>188</ele>
        <time>2025-10-18T08:33:03Z</time>
      </trkpt>
      <trkpt lat="43.66282" lon="1.23758">
        <ele>188</ele>
        <time>2025-10-18T08:33:04Z</time>
      </trkpt>
      <trkpt lat="43.66276" lon="1.23758">
        <ele>188.2</ele>
        <time>2025-10-18T08:33:05Z</time>
      </trkpt>
      <trkpt lat="43.66269" lon="1.23759">
        <ele>188.2</ele>
        <time>2025-10-18T08:33:06Z</time>
      </trkpt>
      <trkpt lat="43.66263" lon="1.23759">
        <ele>188</ele>
        <time>2025-10-18T08:33:07Z</time>
      </trkpt>
      <trkpt lat="43.66256" lon="1.2376">
        <ele>188</ele>
        <time>2025-10-18T08:33:08Z</time>
      </trkpt>
      <trkpt lat="43.6625" lon="1.2376">
        <ele>188</ele>
        <time>2025-10-18T08:33:09Z</time>
      </trkpt>
      <trkpt lat="43.66243" lon="1.2376">
        <ele>188</ele>
        <time>2025-10-18T08:33:10Z</time>
      </trkpt>
      <trkpt lat="43.66236" lon="1.23761">
        <ele>188</ele>
        <time>2025-10-18T08:33:11Z</time>
      </trkpt>
      <trkpt lat="43.6623" lon="1.23761">
        <ele>188</ele>
        <time>2025-10-18T08:33:12Z</time>
      </trkpt>
      <trkpt lat="43.66223" lon="1.23761">
        <ele>188</ele>
        <time>2025-10-18T08:33:13Z</time>
      </trkpt>
      <trkpt lat="43.66216" lon="1.23761">
        <ele>188</ele>
        <time>2025-10-18T08:33:14Z</time>
      </trkpt>
      <trkpt lat="43.66211" lon="1.23761">
        <ele>187.8</ele>
        <time>2025-10-18T08:33:15Z</time>
      </trkpt>
      <trkpt lat="43.66206" lon="1.23761">
        <ele>187.8</ele>
        <time>2025-10-18T08:33:16Z</time>
      </trkpt>
      <trkpt lat="43.66201" lon="1.23761">
        <ele>187.8</ele>
        <time>2025-10-18T08:33:17Z</time>
      </trkpt>
      <trkpt lat="43.66197" lon="1.23761">
        <ele>187.8</ele>
        <time>2025-10-18T08:33:18Z</time>
      </trkpt>
      <trkpt lat="43.66194" lon="1.23761">
        <ele>187.8</ele>
        <time>2025-10-18T08:33:19Z</time>
      </trkpt>
      <trkpt lat="43.66192" lon="1.23761">
        <ele>188</ele>
        <time>2025-10-18T08:33:20Z</time>
      </trkpt>
      <trkpt lat="43.6619" lon="1.23761">
        <ele>188</ele>
        <time>2025-10-18T08:33:21Z</time>
      </trkpt>
      <trkpt lat="43.66188" lon="1.23761">
        <ele>188</ele>
        <time>2025-10-18T08:33:22Z</time>
      </trkpt>
      <trkpt lat="43.66186" lon="1.23762">
        <ele>188</ele>
        <time>2025-10-18T08:33:23Z</time>
      </trkpt>
      <trkpt lat="43.66184" lon="1.23761">
        <ele>187.8</ele>
        <time>2025-10-18T08:33:24Z</time>
      </trkpt>
      <trkpt lat="43.66181" lon="1.2376">
        <ele>187.8</ele>
        <time>2025-10-18T08:33:25Z</time>
      </trkpt>
      <trkpt lat="43.66178" lon="1.23759">
        <ele>187.6</ele>
        <time>2025-10-18T08:33:26Z</time>
      </trkpt>
      <trkpt lat="43.66174" lon="1.23759">
        <ele>187.6</ele>
        <time>2025-10-18T08:33:27Z</time>
      </trkpt>
      <trkpt lat="43.66171" lon="1.23759">
        <ele>187.4</ele>
        <time>2025-10-18T08:33:28Z</time>
      </trkpt>
      <trkpt lat="43.66167" lon="1.23758">
        <ele>187.4</ele>
        <time>2025-10-18T08:33:29Z</time>
      </trkpt>
      <trkpt lat="43.66163" lon="1.23757">
        <ele>187.4</ele>
        <time>2025-10-18T08:33:30Z</time>
      </trkpt>
      <trkpt lat="43.66159" lon="1.23755">
        <ele>187.4</ele>
        <time>2025-10-18T08:33:31Z</time>
      </trkpt>
      <trkpt lat="43.66156" lon="1.23751">
        <ele>187.4</ele>
        <time>2025-10-18T08:33:32Z</time>
      </trkpt>
      <trkpt lat="43.66155" lon="1.23746">
        <ele>187.4</ele>
        <time>2025-10-18T08:33:33Z</time>
      </trkpt>
      <trkpt lat="43.66154" lon="1.23741">
        <ele>187.4</ele>
        <time>2025-10-18T08:33:34Z</time>
      </trkpt>
      <trkpt lat="43.66153" lon="1.23738">
        <ele>187.4</ele>
        <time>2025-10-18T08:33:35Z</time>
      </trkpt>
      <trkpt lat="43.66153" lon="1.23735">
        <ele>187.4</ele>
        <time>2025-10-18T08:33:36Z</time>
      </trkpt>
      <trkpt lat="43.66153" lon="1.23732">
        <ele>187.4</ele>
        <time>2025-10-18T08:33:37Z</time>
      </trkpt>
      <trkpt lat="43.66153" lon="1.23729">
        <ele>187.2</ele>
        <time>2025-10-18T08:33:38Z</time>
      </trkpt>
      <trkpt lat="43.66153" lon="1.23727">
        <ele>187.2</ele>
        <time>2025-10-18T08:33:39Z</time>
      </trkpt>
      <trkpt lat="43.66153" lon="1.23725">
        <ele>187.2</ele>
        <time>2025-10-18T08:33:40Z</time>
      </trkpt>
      <trkpt lat="43.66154" lon="1.23723">
        <ele>187</ele>
        <time>2025-10-18T08:33:41Z</time>
      </trkpt>
      <trkpt lat="43.66154" lon="1.2372">
        <ele>187</ele>
        <time>2025-10-18T08:33:42Z</time>
      </trkpt>
      <trkpt lat="43.66155" lon="1.23715">
        <ele>186.8</ele>
        <time>2025-10-18T08:33:43Z</time>
      </trkpt>
      <trkpt lat="43.66156" lon="1.2371">
        <ele>186.6</ele>
        <time>2025-10-18T08:33:44Z</time>
      </trkpt>
      <trkpt lat="43.66156" lon="1.23704">
        <ele>186.4</ele>
        <time>2025-10-18T08:33:45Z</time>
      </trkpt>
      <trkpt lat="43.66155" lon="1.23697">
        <ele>186.2</ele>
        <time>2025-10-18T08:33:46Z</time>
      </trkpt>
      <trkpt lat="43.66155" lon="1.2369">
        <ele>186</ele>
        <time>2025-10-18T08:33:47Z</time>
      </trkpt>
      <trkpt lat="43.66154" lon="1.23681">
        <ele>185.6</ele>
        <time>2025-10-18T08:33:48Z</time>
      </trkpt>
      <trkpt lat="43.66153" lon="1.23672">
        <ele>185.2</ele>
        <time>2025-10-18T08:33:49Z</time>
      </trkpt>
      <trkpt lat="43.66153" lon="1.23663">
        <ele>185</ele>
        <time>2025-10-18T08:33:50Z</time>
      </trkpt>
      <trkpt lat="43.66151" lon="1.23653">
        <ele>184.6</ele>
        <time>2025-10-18T08:33:51Z</time>
      </trkpt>
      <trkpt lat="43.6615" lon="1.23643">
        <ele>184.2</ele>
        <time>2025-10-18T08:33:52Z</time>
      </trkpt>
      <trkpt lat="43.66147" lon="1.23633">
        <ele>183.8</ele>
        <time>2025-10-18T08:33:53Z</time>
      </trkpt>
      <trkpt lat="43.66143" lon="1.23623">
        <ele>183.6</ele>
        <time>2025-10-18T08:33:54Z</time>
      </trkpt>
      <trkpt lat="43.66138" lon="1.23612">
        <ele>183.4</ele>
        <time>2025-10-18T08:33:55Z</time>
      </trkpt>
      <trkpt lat="43.66134" lon="1.23603">
        <ele>183.2</ele>
        <time>2025-10-18T08:33:56Z</time>
      </trkpt>
      <trkpt lat="43.6613" lon="1.23594">
        <ele>183</ele>
        <time>2025-10-18T08:33:57Z</time>
      </trkpt>
      <trkpt lat="43.66127" lon="1.23584">
        <ele>183</ele>
        <time>2025-10-18T08:33:58Z</time>
      </trkpt>
      <trkpt lat="43.66124" lon="1.23575">
        <ele>183</ele>
        <time>2025-10-18T08:33:59Z</time>
      </trkpt>
      <trkpt lat="43.66122" lon="1.23566">
        <ele>183</ele>
        <time>2025-10-18T08:34:00Z</time>
      </trkpt>
      <trkpt lat="43.66122" lon="1.23558">
        <ele>183.2</ele>
        <time>2025-10-18T08:34:01Z</time>
      </trkpt>
      <trkpt lat="43.66122" lon="1.2355">
        <ele>183.4</ele>
        <time>2025-10-18T08:34:02Z</time>
      </trkpt>
      <trkpt lat="43.66124" lon="1.23543">
        <ele>183.4</ele>
        <time>2025-10-18T08:34:03Z</time>
      </trkpt>
      <trkpt lat="43.66127" lon="1.23535">
        <ele>183.6</ele>
        <time>2025-10-18T08:34:04Z</time>
      </trkpt>
      <trkpt lat="43.66129" lon="1.23527">
        <ele>183.6</ele>
        <time>2025-10-18T08:34:05Z</time>
      </trkpt>
      <trkpt lat="43.6613" lon="1.23519">
        <ele>183.6</ele>
        <time>2025-10-18T08:34:06Z</time>
      </trkpt>
      <trkpt lat="43.66132" lon="1.23511">
        <ele>183.6</ele>
        <time>2025-10-18T08:34:07Z</time>
      </trkpt>
      <trkpt lat="43.66135" lon="1.23503">
        <ele>183.6</ele>
        <time>2025-10-18T08:34:08Z</time>
      </trkpt>
      <trkpt lat="43.66138" lon="1.23494">
        <ele>183.8</ele>
        <time>2025-10-18T08:34:09Z</time>
      </trkpt>
      <trkpt lat="43.66141" lon="1.23486">
        <ele>184</ele>
        <time>2025-10-18T08:34:10Z</time>
      </trkpt>
      <trkpt lat="43.66144" lon="1.23479">
        <ele>184</ele>
        <time>2025-10-18T08:34:11Z</time>
      </trkpt>
      <trkpt lat="43.66146" lon="1.23471">
        <ele>184.2</ele>
        <time>2025-10-18T08:34:12Z</time>
      </trkpt>
      <trkpt lat="43.66148" lon="1.23463">
        <ele>184.2</ele>
        <time>2025-10-18T08:34:13Z</time>
      </trkpt>
      <trkpt lat="43.6615" lon="1.23455">
        <ele>184.4</ele>
        <time>2025-10-18T08:34:14Z</time>
      </trkpt>
      <trkpt lat="43.66153" lon="1.23447">
        <ele>184.6</ele>
        <time>2025-10-18T08:34:15Z</time>
      </trkpt>
      <trkpt lat="43.66155" lon="1.23438">
        <ele>184.8</ele>
        <time>2025-10-18T08:34:16Z</time>
      </trkpt>
      <trkpt lat="43.66158" lon="1.2343">
        <ele>185</ele>
        <time>2025-10-18T08:34:17Z</time>
      </trkpt>
      <trkpt lat="43.66161" lon="1.23421">
        <ele>184.8</ele>
        <time>2025-10-18T08:34:18Z</time>
      </trkpt>
      <trkpt lat="43.66164" lon="1.23412">
        <ele>184.8</ele>
        <time>2025-10-18T08:34:19Z</time>
      </trkpt>
      <trkpt lat="43.66167" lon="1.23405">
        <ele>184.8</ele>
        <time>2025-10-18T08:34:20Z</time>
      </trkpt>
      <trkpt lat="43.6617" lon="1.23398">
        <ele>184.8</ele>
        <time>2025-10-18T08:34:21Z</time>
      </trkpt>
      <trkpt lat="43.66173" lon="1.2339">
        <ele>185</ele>
        <time>2025-10-18T08:34:22Z</time>
      </trkpt>
      <trkpt lat="43.66176" lon="1.23383">
        <ele>185.2</ele>
        <time>2025-10-18T08:34:23Z</time>
      </trkpt>
      <trkpt lat="43.6618" lon="1.23377">
        <ele>185.4</ele>
        <time>2025-10-18T08:34:24Z</time>
      </trkpt>
      <trkpt lat="43.66185" lon="1.23371">
        <ele>185.6</ele>
        <time>2025-10-18T08:34:25Z</time>
      </trkpt>
      <trkpt lat="43.66189" lon="1.23365">
        <ele>185.8</ele>
        <time>2025-10-18T08:34:26Z</time>
      </trkpt>
      <trkpt lat="43.66193" lon="1.2336">
        <ele>186</ele>
        <time>2025-10-18T08:34:27Z</time>
      </trkpt>
      <trkpt lat="43.66198" lon="1.23354">
        <ele>186</ele>
        <time>2025-10-18T08:34:28Z</time>
      </trkpt>
      <trkpt lat="43.66204" lon="1.2335">
        <ele>186.2</ele>
        <time>2025-10-18T08:34:29Z</time>
      </trkpt>
      <trkpt lat="43.6621" lon="1.23345">
        <ele>186.2</ele>
        <time>2025-10-18T08:34:30Z</time>
      </trkpt>
      <trkpt lat="43.66215" lon="1.23339">
        <ele>186.4</ele>
        <time>2025-10-18T08:34:31Z</time>
      </trkpt>
      <trkpt lat="43.6622" lon="1.23333">
        <ele>186.4</ele>
        <time>2025-10-18T08:34:32Z</time>
      </trkpt>
      <trkpt lat="43.66226" lon="1.23326">
        <ele>186.4</ele>
        <time>2025-10-18T08:34:33Z</time>
      </trkpt>
      <trkpt lat="43.66231" lon="1.2332">
        <ele>186.4</ele>
        <time>2025-10-18T08:34:34Z</time>
      </trkpt>
      <trkpt lat="43.66237" lon="1.23314">
        <ele>186.4</ele>
        <time>2025-10-18T08:34:35Z</time>
      </trkpt>
      <trkpt lat="43.66244" lon="1.23307">
        <ele>186.4</ele>
        <time>2025-10-18T08:34:36Z</time>
      </trkpt>
      <trkpt lat="43.66251" lon="1.23301">
        <ele>186.4</ele>
        <time>2025-10-18T08:34:37Z</time>
      </trkpt>
      <trkpt lat="43.66258" lon="1.23294">
        <ele>186.2</ele>
        <time>2025-10-18T08:34:38Z</time>
      </trkpt>
      <trkpt lat="43.66265" lon="1.23287">
        <ele>186</ele>
        <time>2025-10-18T08:34:39Z</time>
      </trkpt>
      <trkpt lat="43.66272" lon="1.2328">
        <ele>186</ele>
        <time>2025-10-18T08:34:40Z</time>
      </trkpt>
      <trkpt lat="43.66279" lon="1.23273">
        <ele>186</ele>
        <time>2025-10-18T08:34:41Z</time>
      </trkpt>
      <trkpt lat="43.66285" lon="1.23265">
        <ele>186</ele>
        <time>2025-10-18T08:34:42Z</time>
      </trkpt>
      <trkpt lat="43.66291" lon="1.23257">
        <ele>186</ele>
        <time>2025-10-18T08:34:43Z</time>
      </trkpt>
      <trkpt lat="43.66297" lon="1.23249">
        <ele>186</ele>
        <time>2025-10-18T08:34:44Z</time>
      </trkpt>
      <trkpt lat="43.66303" lon="1.23241">
        <ele>186.2</ele>
        <time>2025-10-18T08:34:45Z</time>
      </trkpt>
      <trkpt lat="43.6631" lon="1.23234">
        <ele>186.2</ele>
        <time>2025-10-18T08:34:46Z</time>
      </trkpt>
      <trkpt lat="43.66316" lon="1.23227">
        <ele>186.2</ele>
        <time>2025-10-18T08:34:47Z</time>
      </trkpt>
      <trkpt lat="43.66322" lon="1.23219">
        <ele>186.4</ele>
        <time>2025-10-18T08:34:48Z</time>
      </trkpt>
      <trkpt lat="43.66329" lon="1.2321">
        <ele>186.4</ele>
        <time>2025-10-18T08:34:49Z</time>
      </trkpt>
      <trkpt lat="43.66335" lon="1.23201">
        <ele>186.4</ele>
        <time>2025-10-18T08:34:50Z</time>
      </trkpt>
      <trkpt lat="43.6634" lon="1.23192">
        <ele>186.4</ele>
        <time>2025-10-18T08:34:51Z</time>
      </trkpt>
      <trkpt lat="43.66344" lon="1.23182">
        <ele>186.4</ele>
        <time>2025-10-18T08:34:52Z</time>
      </trkpt>
      <trkpt lat="43.66347" lon="1.23172">
        <ele>186.6</ele>
        <time>2025-10-18T08:34:53Z</time>
      </trkpt>
      <trkpt lat="43.6635" lon="1.23163">
        <ele>186.6</ele>
        <time>2025-10-18T08:34:54Z</time>
      </trkpt>
      <trkpt lat="43.66353" lon="1.23153">
        <ele>186.6</ele>
        <time>2025-10-18T08:34:55Z</time>
      </trkpt>
      <trkpt lat="43.66356" lon="1.23144">
        <ele>186.8</ele>
        <time>2025-10-18T08:34:56Z</time>
      </trkpt>
      <trkpt lat="43.66359" lon="1.23135">
        <ele>186.8</ele>
        <time>2025-10-18T08:34:57Z</time>
      </trkpt>
      <trkpt lat="43.66362" lon="1.23127">
        <ele>187</ele>
        <time>2025-10-18T08:34:58Z</time>
      </trkpt>
      <trkpt lat="43.66365" lon="1.23119">
        <ele>187.2</ele>
        <time>2025-10-18T08:34:59Z</time>
      </trkpt>
      <trkpt lat="43.66369" lon="1.2311">
        <ele>187.2</ele>
        <time>2025-10-18T08:35:00Z</time>
      </trkpt>
      <trkpt lat="43.66372" lon="1.23102">
        <ele>187.4</ele>
        <time>2025-10-18T08:35:01Z</time>
      </trkpt>
      <trkpt lat="43.66375" lon="1.23094">
        <ele>187.4</ele>
        <time>2025-10-18T08:35:02Z</time>
      </trkpt>
      <trkpt lat="43.66378" lon="1.23087">
        <ele>187.2</ele>
        <time>2025-10-18T08:35:03Z</time>
      </trkpt>
      <trkpt lat="43.66381" lon="1.23079">
        <ele>187.4</ele>
        <time>2025-10-18T08:35:04Z</time>
      </trkpt>
      <trkpt lat="43.66387" lon="1.23073">
        <ele>187.4</ele>
        <time>2025-10-18T08:35:05Z</time>
      </trkpt>
      <trkpt lat="43.66392" lon="1.23068">
        <ele>187.4</ele>
        <time>2025-10-18T08:35:06Z</time>
      </trkpt>
      <trkpt lat="43.66396" lon="1.23061">
        <ele>187.6</ele>
        <time>2025-10-18T08:35:07Z</time>
      </trkpt>
      <trkpt lat="43.664" lon="1.23053">
        <ele>187.6</ele>
        <time>2025-10-18T08:35:08Z</time>
      </trkpt>
      <trkpt lat="43.66404" lon="1.23046">
        <ele>187.6</ele>
        <time>2025-10-18T08:35:09Z</time>
      </trkpt>
      <trkpt lat="43.66408" lon="1.23039">
        <ele>187.6</ele>
        <time>2025-10-18T08:35:10Z</time>
      </trkpt>
      <trkpt lat="43.66412" lon="1.23033">
        <ele>187.6</ele>
        <time>2025-10-18T08:35:11Z</time>
      </trkpt>
      <trkpt lat="43.66417" lon="1.23026">
        <ele>187.6</ele>
        <time>2025-10-18T08:35:12Z</time>
      </trkpt>
      <trkpt lat="43.66421" lon="1.2302">
        <ele>187.6</ele>
        <time>2025-10-18T08:35:13Z</time>
      </trkpt>
      <trkpt lat="43.66426" lon="1.23013">
        <ele>187.6</ele>
        <time>2025-10-18T08:35:14Z</time>
      </trkpt>
      <trkpt lat="43.66431" lon="1.23007">
        <ele>187.6</ele>
        <time>2025-10-18T08:35:15Z</time>
      </trkpt>
      <trkpt lat="43.66436" lon="1.23001">
        <ele>187.6</ele>
        <time>2025-10-18T08:35:16Z</time>
      </trkpt>
      <trkpt lat="43.66441" lon="1.22995">
        <ele>187.6</ele>
        <time>2025-10-18T08:35:17Z</time>
      </trkpt>
      <trkpt lat="43.66446" lon="1.22989">
        <ele>187.6</ele>
        <time>2025-10-18T08:35:18Z</time>
      </trkpt>
      <trkpt lat="43.66451" lon="1.22983">
        <ele>187.6</ele>
        <time>2025-10-18T08:35:19Z</time>
      </trkpt>
      <trkpt lat="43.66456" lon="1.22975">
        <ele>187.6</ele>
        <time>2025-10-18T08:35:20Z</time>
      </trkpt>
      <trkpt lat="43.6646" lon="1.22968">
        <ele>187.6</ele>
        <time>2025-10-18T08:35:21Z</time>
      </trkpt>
      <trkpt lat="43.66465" lon="1.2296">
        <ele>187.6</ele>
        <time>2025-10-18T08:35:22Z</time>
      </trkpt>
      <trkpt lat="43.6647" lon="1.22953">
        <ele>187.4</ele>
        <time>2025-10-18T08:35:23Z</time>
      </trkpt>
      <trkpt lat="43.66474" lon="1.22945">
        <ele>187.4</ele>
        <time>2025-10-18T08:35:24Z</time>
      </trkpt>
      <trkpt lat="43.66479" lon="1.22938">
        <ele>187.2</ele>
        <time>2025-10-18T08:35:25Z</time>
      </trkpt>
      <trkpt lat="43.66484" lon="1.2293">
        <ele>187.2</ele>
        <time>2025-10-18T08:35:26Z</time>
      </trkpt>
      <trkpt lat="43.66488" lon="1.22922">
        <ele>187</ele>
        <time>2025-10-18T08:35:27Z</time>
      </trkpt>
      <trkpt lat="43.66493" lon="1.22915">
        <ele>187</ele>
        <time>2025-10-18T08:35:28Z</time>
      </trkpt>
      <trkpt lat="43.66499" lon="1.22907">
        <ele>186.8</ele>
        <time>2025-10-18T08:35:29Z</time>
      </trkpt>
      <trkpt lat="43.66504" lon="1.229">
        <ele>186.6</ele>
        <time>2025-10-18T08:35:30Z</time>
      </trkpt>
      <trkpt lat="43.6651" lon="1.22892">
        <ele>186.4</ele>
        <time>2025-10-18T08:35:31Z</time>
      </trkpt>
      <trkpt lat="43.66515" lon="1.22885">
        <ele>186.2</ele>
        <time>2025-10-18T08:35:32Z</time>
      </trkpt>
      <trkpt lat="43.66519" lon="1.22881">
        <ele>185.8</ele>
        <time>2025-10-18T08:35:33Z</time>
      </trkpt>
      <trkpt lat="43.66524" lon="1.22875">
        <ele>185.6</ele>
        <time>2025-10-18T08:35:34Z</time>
      </trkpt>
      <trkpt lat="43.66527" lon="1.22869">
        <ele>185.8</ele>
        <time>2025-10-18T08:35:35Z</time>
      </trkpt>
      <trkpt lat="43.66531" lon="1.22864">
        <ele>185.6</ele>
        <time>2025-10-18T08:35:36Z</time>
      </trkpt>
      <trkpt lat="43.66536" lon="1.22859">
        <ele>185.8</ele>
        <time>2025-10-18T08:35:37Z</time>
      </trkpt>
      <trkpt lat="43.66541" lon="1.22855">
        <ele>185.6</ele>
        <time>2025-10-18T08:35:38Z</time>
      </trkpt>
      <trkpt lat="43.66546" lon="1.2285">
        <ele>185.8</ele>
        <time>2025-10-18T08:35:39Z</time>
      </trkpt>
      <trkpt lat="43.66552" lon="1.22845">
        <ele>185.6</ele>
        <time>2025-10-18T08:35:40Z</time>
      </trkpt>
      <trkpt lat="43.66558" lon="1.22842">
        <ele>185.6</ele>
        <time>2025-10-18T08:35:41Z</time>
      </trkpt>
      <trkpt lat="43.66565" lon="1.22839">
        <ele>185.6</ele>
        <time>2025-10-18T08:35:42Z</time>
      </trkpt>
      <trkpt lat="43.66571" lon="1.22838">
        <ele>185.6</ele>
        <time>2025-10-18T08:35:43Z</time>
      </trkpt>
      <trkpt lat="43.66578" lon="1.22837">
        <ele>185.6</ele>
        <time>2025-10-18T08:35:44Z</time>
      </trkpt>
      <trkpt lat="43.66585" lon="1.22836">
        <ele>185.6</ele>
        <time>2025-10-18T08:35:45Z</time>
      </trkpt>
      <trkpt lat="43.66591" lon="1.22835">
        <ele>185.6</ele>
        <time>2025-10-18T08:35:46Z</time>
      </trkpt>
      <trkpt lat="43.66598" lon="1.22835">
        <ele>185.8</ele>
        <time>2025-10-18T08:35:47Z</time>
      </trkpt>
      <trkpt lat="43.66605" lon="1.22834">
        <ele>185.8</ele>
        <time>2025-10-18T08:35:48Z</time>
      </trkpt>
      <trkpt lat="43.66612" lon="1.22833">
        <ele>185.8</ele>
        <time>2025-10-18T08:35:49Z</time>
      </trkpt>
      <trkpt lat="43.66618" lon="1.22833">
        <ele>186.2</ele>
        <time>2025-10-18T08:35:50Z</time>
      </trkpt>
      <trkpt lat="43.66624" lon="1.22833">
        <ele>186.4</ele>
        <time>2025-10-18T08:35:51Z</time>
      </trkpt>
      <trkpt lat="43.66631" lon="1.22833">
        <ele>186.6</ele>
        <time>2025-10-18T08:35:52Z</time>
      </trkpt>
      <trkpt lat="43.66637" lon="1.22832">
        <ele>186.8</ele>
        <time>2025-10-18T08:35:53Z</time>
      </trkpt>
      <trkpt lat="43.66644" lon="1.22831">
        <ele>187</ele>
        <time>2025-10-18T08:35:54Z</time>
      </trkpt>
      <trkpt lat="43.66651" lon="1.2283">
        <ele>187</ele>
        <time>2025-10-18T08:35:55Z</time>
      </trkpt>
      <trkpt lat="43.66658" lon="1.22829">
        <ele>187</ele>
        <time>2025-10-18T08:35:56Z</time>
      </trkpt>
      <trkpt lat="43.66665" lon="1.22827">
        <ele>187</ele>
        <time>2025-10-18T08:35:57Z</time>
      </trkpt>
      <trkpt lat="43.66672" lon="1.22826">
        <ele>187</ele>
        <time>2025-10-18T08:35:58Z</time>
      </trkpt>
      <trkpt lat="43.66678" lon="1.22824">
        <ele>186.8</ele>
        <time>2025-10-18T08:35:59Z</time>
      </trkpt>
      <trkpt lat="43.66685" lon="1.2282">
        <ele>186.8</ele>
        <time>2025-10-18T08:36:00Z</time>
      </trkpt>
      <trkpt lat="43.66691" lon="1.22816">
        <ele>187</ele>
        <time>2025-10-18T08:36:01Z</time>
      </trkpt>
      <trkpt lat="43.66696" lon="1.22812">
        <ele>187</ele>
        <time>2025-10-18T08:36:02Z</time>
      </trkpt>
      <trkpt lat="43.66702" lon="1.22807">
        <ele>187</ele>
        <time>2025-10-18T08:36:03Z</time>
      </trkpt>
      <trkpt lat="43.66708" lon="1.22802">
        <ele>187</ele>
        <time>2025-10-18T08:36:04Z</time>
      </trkpt>
      <trkpt lat="43.66714" lon="1.22796">
        <ele>186.8</ele>
        <time>2025-10-18T08:36:05Z</time>
      </trkpt>
      <trkpt lat="43.6672" lon="1.2279">
        <ele>186.6</ele>
        <time>2025-10-18T08:36:06Z</time>
      </trkpt>
      <trkpt lat="43.66726" lon="1.22784">
        <ele>186.4</ele>
        <time>2025-10-18T08:36:07Z</time>
      </trkpt>
      <trkpt lat="43.66732" lon="1.22778">
        <ele>186.2</ele>
        <time>2025-10-18T08:36:08Z</time>
      </trkpt>
      <trkpt lat="43.66738" lon="1.22772">
        <ele>186.2</ele>
        <time>2025-10-18T08:36:09Z</time>
      </trkpt>
      <trkpt lat="43.66744" lon="1.22765">
        <ele>186</ele>
        <time>2025-10-18T08:36:10Z</time>
      </trkpt>
      <trkpt lat="43.66749" lon="1.22758">
        <ele>185.8</ele>
        <time>2025-10-18T08:36:11Z</time>
      </trkpt>
      <trkpt lat="43.66753" lon="1.22752">
        <ele>185.6</ele>
        <time>2025-10-18T08:36:12Z</time>
      </trkpt>
      <trkpt lat="43.66758" lon="1.22746">
        <ele>185.6</ele>
        <time>2025-10-18T08:36:13Z</time>
      </trkpt>
      <trkpt lat="43.66762" lon="1.22739">
        <ele>185.6</ele>
        <time>2025-10-18T08:36:14Z</time>
      </trkpt>
      <trkpt lat="43.66766" lon="1.22733">
        <ele>185.6</ele>
        <time>2025-10-18T08:36:15Z</time>
      </trkpt>
      <trkpt lat="43.66769" lon="1.22728">
        <ele>185.8</ele>
        <time>2025-10-18T08:36:16Z</time>
      </trkpt>
      <trkpt lat="43.66772" lon="1.22723">
        <ele>185.8</ele>
        <time>2025-10-18T08:36:17Z</time>
      </trkpt>
      <trkpt lat="43.66774" lon="1.2272">
        <ele>185.8</ele>
        <time>2025-10-18T08:36:18Z</time>
      </trkpt>
      <trkpt lat="43.66775" lon="1.22718">
        <ele>185.8</ele>
        <time>2025-10-18T08:36:19Z</time>
      </trkpt>
      <trkpt lat="43.66776" lon="1.22717">
        <ele>185.8</ele>
        <time>2025-10-18T08:36:20Z</time>
      </trkpt>
      <trkpt lat="43.66777" lon="1.22718">
        <ele>186</ele>
        <time>2025-10-18T08:36:21Z</time>
      </trkpt>
      <trkpt lat="43.66777" lon="1.22718">
        <ele>186</ele>
        <time>2025-10-18T08:36:22Z</time>
      </trkpt>
      <trkpt lat="43.66777" lon="1.22718">
        <ele>186</ele>
        <time>2025-10-18T08:36:23Z</time>
      </trkpt>
      <trkpt lat="43.66783" lon="1.22726">
        <ele>185.8</ele>
        <time>2025-10-18T08:37:18Z</time>
      </trkpt>
      <trkpt lat="43.66784" lon="1.22727">
        <ele>185.8</ele>
        <time>2025-10-18T08:37:19Z</time>
      </trkpt>
      <trkpt lat="43.66785" lon="1.22729">
        <ele>185.6</ele>
        <time>2025-10-18T08:37:20Z</time>
      </trkpt>
      <trkpt lat="43.66786" lon="1.2273">
        <ele>185.6</ele>
        <time>2025-10-18T08:37:21Z</time>
      </trkpt>
      <trkpt lat="43.66787" lon="1.22731">
        <ele>185.4</ele>
        <time>2025-10-18T08:37:22Z</time>
      </trkpt>
      <trkpt lat="43.66789" lon="1.22733">
        <ele>185.4</ele>
        <time>2025-10-18T08:37:23Z</time>
      </trkpt>
      <trkpt lat="43.66791" lon="1.22736">
        <ele>185.2</ele>
        <time>2025-10-18T08:37:24Z</time>
      </trkpt>
      <trkpt lat="43.66794" lon="1.2274">
        <ele>184.8</ele>
        <time>2025-10-18T08:37:25Z</time>
      </trkpt>
      <trkpt lat="43.66796" lon="1.22746">
        <ele>184.2</ele>
        <time>2025-10-18T08:37:26Z</time>
      </trkpt>
      <trkpt lat="43.668" lon="1.22752">
        <ele>183.4</ele>
        <time>2025-10-18T08:37:27Z</time>
      </trkpt>
      <trkpt lat="43.66804" lon="1.22759">
        <ele>182.4</ele>
        <time>2025-10-18T08:37:28Z</time>
      </trkpt>
      <trkpt lat="43.66807" lon="1.22765">
        <ele>181.6</ele>
        <time>2025-10-18T08:37:29Z</time>
      </trkpt>
      <trkpt lat="43.6681" lon="1.22771">
        <ele>180.6</ele>
        <time>2025-10-18T08:37:30Z</time>
      </trkpt>
      <trkpt lat="43.66811" lon="1.22777">
        <ele>179.6</ele>
        <time>2025-10-18T08:37:31Z</time>
      </trkpt>
      <trkpt lat="43.66812" lon="1.22785">
        <ele>179</ele>
        <time>2025-10-18T08:37:32Z</time>
      </trkpt>
      <trkpt lat="43.66812" lon="1.22792">
        <ele>178.2</ele>
        <time>2025-10-18T08:37:33Z</time>
      </trkpt>
      <trkpt lat="43.66814" lon="1.22799">
        <ele>177.6</ele>
        <time>2025-10-18T08:37:34Z</time>
      </trkpt>
      <trkpt lat="43.66817" lon="1.22806">
        <ele>177</ele>
        <time>2025-10-18T08:37:35Z</time>
      </trkpt>
      <trkpt lat="43.66821" lon="1.22812">
        <ele>176.8</ele>
        <time>2025-10-18T08:37:36Z</time>
      </trkpt>
      <trkpt lat="43.66824" lon="1.2282">
        <ele>176.4</ele>
        <time>2025-10-18T08:37:37Z</time>
      </trkpt>
      <trkpt lat="43.66829" lon="1.22826">
        <ele>176</ele>
        <time>2025-10-18T08:37:38Z</time>
      </trkpt>
      <trkpt lat="43.66833" lon="1.22833">
        <ele>175.6</ele>
        <time>2025-10-18T08:37:39Z</time>
      </trkpt>
      <trkpt lat="43.66838" lon="1.22839">
        <ele>175.2</ele>
        <time>2025-10-18T08:37:40Z</time>
      </trkpt>
      <trkpt lat="43.66842" lon="1.22845">
        <ele>174.8</ele>
        <time>2025-10-18T08:37:41Z</time>
      </trkpt>
      <trkpt lat="43.66847" lon="1.22851">
        <ele>174.6</ele>
        <time>2025-10-18T08:37:42Z</time>
      </trkpt>
      <trkpt lat="43.66851" lon="1.22857">
        <ele>174.2</ele>
        <time>2025-10-18T08:37:43Z</time>
      </trkpt>
      <trkpt lat="43.66856" lon="1.22863">
        <ele>174</ele>
        <time>2025-10-18T08:37:44Z</time>
      </trkpt>
      <trkpt lat="43.6686" lon="1.2287">
        <ele>173.6</ele>
        <time>2025-10-18T08:37:45Z</time>
      </trkpt>
      <trkpt lat="43.66864" lon="1.22877">
        <ele>173.2</ele>
        <time>2025-10-18T08:37:46Z</time>
      </trkpt>
      <trkpt lat="43.66868" lon="1.22884">
        <ele>172.8</ele>
        <time>2025-10-18T08:37:47Z</time>
      </trkpt>
      <trkpt lat="43.66872" lon="1.2289">
        <ele>172.6</ele>
        <time>2025-10-18T08:37:48Z</time>
      </trkpt>
      <trkpt lat="43.66877" lon="1.22896">
        <ele>172.2</ele>
        <time>2025-10-18T08:37:49Z</time>
      </trkpt>
      <trkpt lat="43.66881" lon="1.22903">
        <ele>171.8</ele>
        <time>2025-10-18T08:37:50Z</time>
      </trkpt>
      <trkpt lat="43.66884" lon="1.2291">
        <ele>171.6</ele>
        <time>2025-10-18T08:37:51Z</time>
      </trkpt>
      <trkpt lat="43.66887" lon="1.22916">
        <ele>171.4</ele>
        <time>2025-10-18T08:37:52Z</time>
      </trkpt>
      <trkpt lat="43.6689" lon="1.22922">
        <ele>171</ele>
        <time>2025-10-18T08:37:53Z</time>
      </trkpt>
      <trkpt lat="43.66893" lon="1.22927">
        <ele>170.6</ele>
        <time>2025-10-18T08:37:54Z</time>
      </trkpt>
      <trkpt lat="43.66895" lon="1.22933">
        <ele>170.4</ele>
        <time>2025-10-18T08:37:55Z</time>
      </trkpt>
      <trkpt lat="43.66899" lon="1.22938">
        <ele>170</ele>
        <time>2025-10-18T08:37:56Z</time>
      </trkpt>
      <trkpt lat="43.66901" lon="1.22944">
        <ele>169.6</ele>
        <time>2025-10-18T08:37:57Z</time>
      </trkpt>
      <trkpt lat="43.66906" lon="1.2295">
        <ele>169.2</ele>
        <time>2025-10-18T08:37:58Z</time>
      </trkpt>
      <trkpt lat="43.66911" lon="1.22956">
        <ele>168.8</ele>
        <time>2025-10-18T08:37:59Z</time>
      </trkpt>
      <trkpt lat="43.66915" lon="1.22963">
        <ele>168.2</ele>
        <time>2025-10-18T08:38:00Z</time>
      </trkpt>
      <trkpt lat="43.6692" lon="1.22971">
        <ele>167.6</ele>
        <time>2025-10-18T08:38:01Z</time>
      </trkpt>
      <trkpt lat="43.66924" lon="1.22978">
        <ele>167.2</ele>
        <time>2025-10-18T08:38:02Z</time>
      </trkpt>
      <trkpt lat="43.66929" lon="1.22985">
        <ele>166.8</ele>
        <time>2025-10-18T08:38:03Z</time>
      </trkpt>
      <trkpt lat="43.66933" lon="1.22992">
        <ele>166.2</ele>
        <time>2025-10-18T08:38:04Z</time>
      </trkpt>
      <trkpt lat="43.66938" lon="1.22999">
        <ele>165.4</ele>
        <time>2025-10-18T08:38:05Z</time>
      </trkpt>
      <trkpt lat="43.66941" lon="1.23007">
        <ele>165.2</ele>
        <time>2025-10-18T08:38:06Z</time>
      </trkpt>
      <trkpt lat="43.66943" lon="1.23015">
        <ele>164.4</ele>
        <time>2025-10-18T08:38:07Z</time>
      </trkpt>
      <trkpt lat="43.66945" lon="1.23023">
        <ele>164</ele>
        <time>2025-10-18T08:38:08Z</time>
      </trkpt>
      <trkpt lat="43.66948" lon="1.23029">
        <ele>163.6</ele>
        <time>2025-10-18T08:38:09Z</time>
      </trkpt>
      <trkpt lat="43.66951" lon="1.23035">
        <ele>163.4</ele>
        <time>2025-10-18T08:38:10Z</time>
      </trkpt>
      <trkpt lat="43.66954" lon="1.23039">
        <ele>163</ele>
        <time>2025-10-18T08:38:11Z</time>
      </trkpt>
      <trkpt lat="43.66956" lon="1.23044">
        <ele>163</ele>
        <time>2025-10-18T08:38:12Z</time>
      </trkpt>
      <trkpt lat="43.66957" lon="1.23049">
        <ele>163.2</ele>
        <time>2025-10-18T08:38:13Z</time>
      </trkpt>
      <trkpt lat="43.66959" lon="1.23053">
        <ele>163.4</ele>
        <time>2025-10-18T08:38:14Z</time>
      </trkpt>
      <trkpt lat="43.6696" lon="1.23057">
        <ele>163.4</ele>
        <time>2025-10-18T08:38:15Z</time>
      </trkpt>
      <trkpt lat="43.66962" lon="1.23061">
        <ele>163.6</ele>
        <time>2025-10-18T08:38:16Z</time>
      </trkpt>
      <trkpt lat="43.66962" lon="1.23064">
        <ele>164</ele>
        <time>2025-10-18T08:38:17Z</time>
      </trkpt>
      <trkpt lat="43.66963" lon="1.23065">
        <ele>164.2</ele>
        <time>2025-10-18T08:38:18Z</time>
      </trkpt>
      <trkpt lat="43.66964" lon="1.23067">
        <ele>164.4</ele>
        <time>2025-10-18T08:38:19Z</time>
      </trkpt>
      <trkpt lat="43.66966" lon="1.23067">
        <ele>164.6</ele>
        <time>2025-10-18T08:38:20Z</time>
      </trkpt>
      <trkpt lat="43.66969" lon="1.23066">
        <ele>164.8</ele>
        <time>2025-10-18T08:38:21Z</time>
      </trkpt>
      <trkpt lat="43.66972" lon="1.23066">
        <ele>164.8</ele>
        <time>2025-10-18T08:38:22Z</time>
      </trkpt>
      <trkpt lat="43.66975" lon="1.23066">
        <ele>165</ele>
        <time>2025-10-18T08:38:23Z</time>
      </trkpt>
      <trkpt lat="43.66978" lon="1.23065">
        <ele>165</ele>
        <time>2025-10-18T08:38:24Z</time>
      </trkpt>
      <trkpt lat="43.66981" lon="1.23065">
        <ele>165.2</ele>
        <time>2025-10-18T08:38:25Z</time>
      </trkpt>
      <trkpt lat="43.66984" lon="1.23066">
        <ele>165.6</ele>
        <time>2025-10-18T08:38:26Z</time>
      </trkpt>
      <trkpt lat="43.66986" lon="1.23068">
        <ele>165.8</ele>
        <time>2025-10-18T08:38:27Z</time>
      </trkpt>
      <trkpt lat="43.66989" lon="1.2307">
        <ele>166.2</ele>
        <time>2025-10-18T08:38:28Z</time>
      </trkpt>
      <trkpt lat="43.66991" lon="1.23073">
        <ele>166.8</ele>
        <time>2025-10-18T08:38:29Z</time>
      </trkpt>
      <trkpt lat="43.66994" lon="1.23076">
        <ele>167.2</ele>
        <time>2025-10-18T08:38:30Z</time>
      </trkpt>
      <trkpt lat="43.66995" lon="1.23079">
        <ele>167.6</ele>
        <time>2025-10-18T08:38:31Z</time>
      </trkpt>
      <trkpt lat="43.66997" lon="1.23081">
        <ele>168</ele>
        <time>2025-10-18T08:38:32Z</time>
      </trkpt>
      <trkpt lat="43.66998" lon="1.23085">
        <ele>168.6</ele>
        <time>2025-10-18T08:38:33Z</time>
      </trkpt>
      <trkpt lat="43.66999" lon="1.23088">
        <ele>169.2</ele>
        <time>2025-10-18T08:38:34Z</time>
      </trkpt>
      <trkpt lat="43.67" lon="1.23091">
        <ele>169.6</ele>
        <time>2025-10-18T08:38:35Z</time>
      </trkpt>
      <trkpt lat="43.67001" lon="1.23094">
        <ele>170</ele>
        <time>2025-10-18T08:38:36Z</time>
      </trkpt>
      <trkpt lat="43.67002" lon="1.23097">
        <ele>170.4</ele>
        <time>2025-10-18T08:38:37Z</time>
      </trkpt>
      <trkpt lat="43.67003" lon="1.231">
        <ele>170.8</ele>
        <time>2025-10-18T08:38:38Z</time>
      </trkpt>
      <trkpt lat="43.67004" lon="1.23103">
        <ele>171.2</ele>
        <time>2025-10-18T08:38:39Z</time>
      </trkpt>
      <trkpt lat="43.67005" lon="1.23106">
        <ele>171.6</ele>
        <time>2025-10-18T08:38:40Z</time>
      </trkpt>
      <trkpt lat="43.67006" lon="1.23108">
        <ele>172</ele>
        <time>2025-10-18T08:38:41Z</time>
      </trkpt>
      <trkpt lat="43.67007" lon="1.2311">
        <ele>172.4</ele>
        <time>2025-10-18T08:38:42Z</time>
      </trkpt>
      <trkpt lat="43.67008" lon="1.23113">
        <ele>172.8</ele>
        <time>2025-10-18T08:38:43Z</time>
      </trkpt>
      <trkpt lat="43.67009" lon="1.23115">
        <ele>173.2</ele>
        <time>2025-10-18T08:38:44Z</time>
      </trkpt>
      <trkpt lat="43.67011" lon="1.23117">
        <ele>173.6</ele>
        <time>2025-10-18T08:38:45Z</time>
      </trkpt>
      <trkpt lat="43.67012" lon="1.2312">
        <ele>173.8</ele>
        <time>2025-10-18T08:38:46Z</time>
      </trkpt>
      <trkpt lat="43.67013" lon="1.23123">
        <ele>174.2</ele>
        <time>2025-10-18T08:38:47Z</time>
      </trkpt>
      <trkpt lat="43.67014" lon="1.23126">
        <ele>174.6</ele>
        <time>2025-10-18T08:38:48Z</time>
      </trkpt>
      <trkpt lat="43.67015" lon="1.23128">
        <ele>175</ele>
        <time>2025-10-18T08:38:49Z</time>
      </trkpt>
      <trkpt lat="43.67016" lon="1.23132">
        <ele>175.4</ele>
        <time>2025-10-18T08:38:50Z</time>
      </trkpt>
      <trkpt lat="43.67018" lon="1.23135">
        <ele>175.6</ele>
        <time>2025-10-18T08:38:51Z</time>
      </trkpt>
      <trkpt lat="43.67019" lon="1.23138">
        <ele>175.8</ele>
        <time>2025-10-18T08:38:52Z</time>
      </trkpt>
      <trkpt lat="43.6702" lon="1.23141">
        <ele>176.2</ele>
        <time>2025-10-18T08:38:53Z</time>
      </trkpt>
      <trkpt lat="43.67021" lon="1.23143">
        <ele>176.4</ele>
        <time>2025-10-18T08:38:54Z</time>
      </trkpt>
      <trkpt lat="43.67021" lon="1.23145">
        <ele>177</ele>
        <time>2025-10-18T08:38:55Z</time>
      </trkpt>
      <trkpt lat="43.67023" lon="1.23147">
        <ele>177.4</ele>
        <time>2025-10-18T08:38:56Z</time>
      </trkpt>
      <trkpt lat="43.67024" lon="1.2315">
        <ele>177.8</ele>
        <time>2025-10-18T08:38:57Z</time>
      </trkpt>
      <trkpt lat="43.67025" lon="1.23152">
        <ele>178.2</ele>
        <time>2025-10-18T08:38:58Z</time>
      </trkpt>
      <trkpt lat="43.67027" lon="1.23154">
        <ele>178.4</ele>
        <time>2025-10-18T08:38:59Z</time>
      </trkpt>
      <trkpt lat="43.67028" lon="1.23156">
        <ele>178.8</ele>
        <time>2025-10-18T08:39:00Z</time>
      </trkpt>
      <trkpt lat="43.67029" lon="1.23159">
        <ele>179.2</ele>
        <time>2025-10-18T08:39:01Z</time>
      </trkpt>
      <trkpt lat="43.6703" lon="1.23162">
        <ele>179.4</ele>
        <time>2025-10-18T08:39:02Z</time>
      </trkpt>
      <trkpt lat="43.67031" lon="1.23164">
        <ele>179.8</ele>
        <time>2025-10-18T08:39:03Z</time>
      </trkpt>
      <trkpt lat="43.67032" lon="1.23167">
        <ele>180.2</ele>
        <time>2025-10-18T08:39:04Z</time>
      </trkpt>
      <trkpt lat="43.67032" lon="1.23169">
        <ele>180.6</ele>
        <time>2025-10-18T08:39:05Z</time>
      </trkpt>
      <trkpt lat="43.67033" lon="1.23172">
        <ele>181</ele>
        <time>2025-10-18T08:39:06Z</time>
      </trkpt>
      <trkpt lat="43.67034" lon="1.23174">
        <ele>181.4</ele>
        <time>2025-10-18T08:39:07Z</time>
      </trkpt>
      <trkpt lat="43.67036" lon="1.23176">
        <ele>181.8</ele>
        <time>2025-10-18T08:39:08Z</time>
      </trkpt>
      <trkpt lat="43.67037" lon="1.23178">
        <ele>182.2</ele>
        <time>2025-10-18T08:39:09Z</time>
      </trkpt>
      <trkpt lat="43.67038" lon="1.23179">
        <ele>182.4</ele>
        <time>2025-10-18T08:39:10Z</time>
      </trkpt>
      <trkpt lat="43.67039" lon="1.23181">
        <ele>183</ele>
        <time>2025-10-18T08:39:11Z</time>
      </trkpt>
      <trkpt lat="43.67041" lon="1.23182">
        <ele>183.2</ele>
        <time>2025-10-18T08:39:12Z</time>
      </trkpt>
      <trkpt lat="43.67042" lon="1.23184">
        <ele>183.6</ele>
        <time>2025-10-18T08:39:13Z</time>
      </trkpt>
      <trkpt lat="43.67043" lon="1.23186">
        <ele>183.8</ele>
        <time>2025-10-18T08:39:14Z</time>
      </trkpt>
      <trkpt lat="43.67044" lon="1.23188">
        <ele>184</ele>
        <time>2025-10-18T08:39:15Z</time>
      </trkpt>
      <trkpt lat="43.67045" lon="1.23189">
        <ele>184.4</ele>
        <time>2025-10-18T08:39:16Z</time>
      </trkpt>
      <trkpt lat="43.67046" lon="1.2319">
        <ele>184.6</ele>
        <time>2025-10-18T08:39:17Z</time>
      </trkpt>
      <trkpt lat="43.67047" lon="1.2319">
        <ele>184.6</ele>
        <time>2025-10-18T08:39:18Z</time>
      </trkpt>
      <trkpt lat="43.67047" lon="1.23191">
        <ele>184.8</ele>
        <time>2025-10-18T08:39:19Z</time>
      </trkpt>
      <trkpt lat="43.67048" lon="1.2319">
        <ele>184.8</ele>
        <time>2025-10-18T08:39:20Z</time>
      </trkpt>
      <trkpt lat="43.67047" lon="1.23186">
        <ele>184.6</ele>
        <time>2025-10-18T08:39:26Z</time>
      </trkpt>
      <trkpt lat="43.67048" lon="1.23183">
        <ele>184.6</ele>
        <time>2025-10-18T08:39:27Z</time>
      </trkpt>
      <trkpt lat="43.67048" lon="1.23179">
        <ele>184.4</ele>
        <time>2025-10-18T08:39:28Z</time>
      </trkpt>
      <trkpt lat="43.67049" lon="1.23175">
        <ele>184.2</ele>
        <time>2025-10-18T08:39:29Z</time>
      </trkpt>
      <trkpt lat="43.67051" lon="1.23172">
        <ele>183.8</ele>
        <time>2025-10-18T08:39:30Z</time>
      </trkpt>
      <trkpt lat="43.67052" lon="1.23167">
        <ele>183.6</ele>
        <time>2025-10-18T08:39:31Z</time>
      </trkpt>
      <trkpt lat="43.67054" lon="1.23161">
        <ele>183.2</ele>
        <time>2025-10-18T08:39:32Z</time>
      </trkpt>
      <trkpt lat="43.67056" lon="1.23155">
        <ele>182.8</ele>
        <time>2025-10-18T08:39:33Z</time>
      </trkpt>
      <trkpt lat="43.67058" lon="1.23149">
        <ele>182.4</ele>
        <time>2025-10-18T08:39:34Z</time>
      </trkpt>
      <trkpt lat="43.6706" lon="1.23142">
        <ele>181.8</ele>
        <time>2025-10-18T08:39:35Z</time>
      </trkpt>
      <trkpt lat="43.67062" lon="1.23134">
        <ele>181.4</ele>
        <time>2025-10-18T08:39:36Z</time>
      </trkpt>
      <trkpt lat="43.67065" lon="1.23126">
        <ele>180.8</ele>
        <time>2025-10-18T08:39:37Z</time>
      </trkpt>
      <trkpt lat="43.67067" lon="1.23118">
        <ele>180.2</ele>
        <time>2025-10-18T08:39:38Z</time>
      </trkpt>
      <trkpt lat="43.6707" lon="1.2311">
        <ele>179.2</ele>
        <time>2025-10-18T08:39:39Z</time>
      </trkpt>
      <trkpt lat="43.67072" lon="1.23102">
        <ele>178</ele>
        <time>2025-10-18T08:39:40Z</time>
      </trkpt>
      <trkpt lat="43.67075" lon="1.23094">
        <ele>177.4</ele>
        <time>2025-10-18T08:39:41Z</time>
      </trkpt>
      <trkpt lat="43.67077" lon="1.23085">
        <ele>177.2</ele>
        <time>2025-10-18T08:39:42Z</time>
      </trkpt>
      <trkpt lat="43.67079" lon="1.23076">
        <ele>176.8</ele>
        <time>2025-10-18T08:39:43Z</time>
      </trkpt>
      <trkpt lat="43.67082" lon="1.23068">
        <ele>176.2</ele>
        <time>2025-10-18T08:39:44Z</time>
      </trkpt>
      <trkpt lat="43.67084" lon="1.23059">
        <ele>175.8</ele>
        <time>2025-10-18T08:39:45Z</time>
      </trkpt>
      <trkpt lat="43.67087" lon="1.2305">
        <ele>175.6</ele>
        <time>2025-10-18T08:39:46Z</time>
      </trkpt>
      <trkpt lat="43.6709" lon="1.23041">
        <ele>175</ele>
        <time>2025-10-18T08:39:47Z</time>
      </trkpt>
      <trkpt lat="43.67092" lon="1.23032">
        <ele>174.2</ele>
        <time>2025-10-18T08:39:48Z</time>
      </trkpt>
      <trkpt lat="43.67095" lon="1.23022">
        <ele>173.6</ele>
        <time>2025-10-18T08:39:49Z</time>
      </trkpt>
      <trkpt lat="43.67098" lon="1.23012">
        <ele>172.8</ele>
        <time>2025-10-18T08:39:50Z</time>
      </trkpt>
      <trkpt lat="43.671" lon="1.23001">
        <ele>172</ele>
        <time>2025-10-18T08:39:51Z</time>
      </trkpt>
      <trkpt lat="43.67103" lon="1.2299">
        <ele>171.2</ele>
        <time>2025-10-18T08:39:52Z</time>
      </trkpt>
      <trkpt lat="43.67105" lon="1.2298">
        <ele>170.6</ele>
        <time>2025-10-18T08:39:53Z</time>
      </trkpt>
      <trkpt lat="43.67108" lon="1.22969">
        <ele>170</ele>
        <time>2025-10-18T08:39:54Z</time>
      </trkpt>
      <trkpt lat="43.67111" lon="1.22959">
        <ele>169.4</ele>
        <time>2025-10-18T08:39:55Z</time>
      </trkpt>
      <trkpt lat="43.67113" lon="1.22949">
        <ele>168.8</ele>
        <time>2025-10-18T08:39:56Z</time>
      </trkpt>
      <trkpt lat="43.67116" lon="1.2294">
        <ele>168.4</ele>
        <time>2025-10-18T08:39:57Z</time>
      </trkpt>
      <trkpt lat="43.67119" lon="1.22934">
        <ele>168</ele>
        <time>2025-10-18T08:39:58Z</time>
      </trkpt>
      <trkpt lat="43.67123" lon="1.22929">
        <ele>167.4</ele>
        <time>2025-10-18T08:39:59Z</time>
      </trkpt>
      <trkpt lat="43.67126" lon="1.22928">
        <ele>167.2</ele>
        <time>2025-10-18T08:40:00Z</time>
      </trkpt>
      <trkpt lat="43.67129" lon="1.22926">
        <ele>167.2</ele>
        <time>2025-10-18T08:40:01Z</time>
      </trkpt>
      <trkpt lat="43.67133" lon="1.22923">
        <ele>167.2</ele>
        <time>2025-10-18T08:40:02Z</time>
      </trkpt>
      <trkpt lat="43.67138" lon="1.2292">
        <ele>167.4</ele>
        <time>2025-10-18T08:40:03Z</time>
      </trkpt>
      <trkpt lat="43.67142" lon="1.22915">
        <ele>167.4</ele>
        <time>2025-10-18T08:40:04Z</time>
      </trkpt>
      <trkpt lat="43.67146" lon="1.22911">
        <ele>167.4</ele>
        <time>2025-10-18T08:40:05Z</time>
      </trkpt>
      <trkpt lat="43.67151" lon="1.22906">
        <ele>167.2</ele>
        <time>2025-10-18T08:40:06Z</time>
      </trkpt>
      <trkpt lat="43.67155" lon="1.22901">
        <ele>167.2</ele>
        <time>2025-10-18T08:40:07Z</time>
      </trkpt>
      <trkpt lat="43.6716" lon="1.22896">
        <ele>167</ele>
        <time>2025-10-18T08:40:08Z</time>
      </trkpt>
      <trkpt lat="43.67165" lon="1.2289">
        <ele>166.6</ele>
        <time>2025-10-18T08:40:09Z</time>
      </trkpt>
      <trkpt lat="43.67169" lon="1.22884">
        <ele>166.4</ele>
        <time>2025-10-18T08:40:10Z</time>
      </trkpt>
      <trkpt lat="43.67174" lon="1.22879">
        <ele>166.2</ele>
        <time>2025-10-18T08:40:11Z</time>
      </trkpt>
      <trkpt lat="43.67179" lon="1.22873">
        <ele>166</ele>
        <time>2025-10-18T08:40:12Z</time>
      </trkpt>
      <trkpt lat="43.67184" lon="1.22867">
        <ele>165.8</ele>
        <time>2025-10-18T08:40:13Z</time>
      </trkpt>
      <trkpt lat="43.67189" lon="1.22861">
        <ele>165.6</ele>
        <time>2025-10-18T08:40:14Z</time>
      </trkpt>
      <trkpt lat="43.67194" lon="1.22855">
        <ele>165.6</ele>
        <time>2025-10-18T08:40:15Z</time>
      </trkpt>
      <trkpt lat="43.67199" lon="1.22848">
        <ele>165.4</ele>
        <time>2025-10-18T08:40:16Z</time>
      </trkpt>
      <trkpt lat="43.67204" lon="1.22842">
        <ele>165.2</ele>
        <time>2025-10-18T08:40:17Z</time>
      </trkpt>
      <trkpt lat="43.67209" lon="1.22836">
        <ele>165.2</ele>
        <time>2025-10-18T08:40:18Z</time>
      </trkpt>
      <trkpt lat="43.67213" lon="1.22831">
        <ele>165.2</ele>
        <time>2025-10-18T08:40:19Z</time>
      </trkpt>
      <trkpt lat="43.67216" lon="1.22826">
        <ele>165.2</ele>
        <time>2025-10-18T08:40:20Z</time>
      </trkpt>
      <trkpt lat="43.67219" lon="1.22823">
        <ele>165.2</ele>
        <time>2025-10-18T08:40:21Z</time>
      </trkpt>
      <trkpt lat="43.67223" lon="1.22822">
        <ele>165.2</ele>
        <time>2025-10-18T08:40:22Z</time>
      </trkpt>
      <trkpt lat="43.67225" lon="1.22823">
        <ele>165.2</ele>
        <time>2025-10-18T08:40:23Z</time>
      </trkpt>
      <trkpt lat="43.67228" lon="1.22826">
        <ele>165.2</ele>
        <time>2025-10-18T08:40:24Z</time>
      </trkpt>
      <trkpt lat="43.67229" lon="1.22827">
        <ele>165.4</ele>
        <time>2025-10-18T08:40:25Z</time>
      </trkpt>
      <trkpt lat="43.67229" lon="1.22828">
        <ele>165.6</ele>
        <time>2025-10-18T08:40:26Z</time>
      </trkpt>
      <trkpt lat="43.67229" lon="1.2283">
        <ele>165.8</ele>
        <time>2025-10-18T08:40:27Z</time>
      </trkpt>
      <trkpt lat="43.67229" lon="1.22832">
        <ele>166</ele>
        <time>2025-10-18T08:40:28Z</time>
      </trkpt>
      <trkpt lat="43.6723" lon="1.22834">
        <ele>166.4</ele>
        <time>2025-10-18T08:40:29Z</time>
      </trkpt>
      <trkpt lat="43.67231" lon="1.22836">
        <ele>166.8</ele>
        <time>2025-10-18T08:40:30Z</time>
      </trkpt>
      <trkpt lat="43.67232" lon="1.22838">
        <ele>167.2</ele>
        <time>2025-10-18T08:40:31Z</time>
      </trkpt>
      <trkpt lat="43.67233" lon="1.22839">
        <ele>167.6</ele>
        <time>2025-10-18T08:40:32Z</time>
      </trkpt>
      <trkpt lat="43.67235" lon="1.2284">
        <ele>168.2</ele>
        <time>2025-10-18T08:40:33Z</time>
      </trkpt>
      <trkpt lat="43.67237" lon="1.2284">
        <ele>168.6</ele>
        <time>2025-10-18T08:40:34Z</time>
      </trkpt>
      <trkpt lat="43.67238" lon="1.22842">
        <ele>169</ele>
        <time>2025-10-18T08:40:35Z</time>
      </trkpt>
      <trkpt lat="43.67239" lon="1.22845">
        <ele>169.4</ele>
        <time>2025-10-18T08:40:36Z</time>
      </trkpt>
      <trkpt lat="43.6724" lon="1.22847">
        <ele>170</ele>
        <time>2025-10-18T08:40:37Z</time>
      </trkpt>
      <trkpt lat="43.67241" lon="1.22848">
        <ele>170.4</ele>
        <time>2025-10-18T08:40:38Z</time>
      </trkpt>
      <trkpt lat="43.67243" lon="1.2285">
        <ele>170.8</ele>
        <time>2025-10-18T08:40:39Z</time>
      </trkpt>
      <trkpt lat="43.67244" lon="1.22851">
        <ele>171.2</ele>
        <time>2025-10-18T08:40:40Z</time>
      </trkpt>
      <trkpt lat="43.67246" lon="1.22853">
        <ele>171.6</ele>
        <time>2025-10-18T08:40:41Z</time>
      </trkpt>
      <trkpt lat="43.67246" lon="1.22855">
        <ele>172</ele>
        <time>2025-10-18T08:40:42Z</time>
      </trkpt>
      <trkpt lat="43.67248" lon="1.22858">
        <ele>172.4</ele>
        <time>2025-10-18T08:40:43Z</time>
      </trkpt>
      <trkpt lat="43.67249" lon="1.22861">
        <ele>172.8</ele>
        <time>2025-10-18T08:40:44Z</time>
      </trkpt>
      <trkpt lat="43.6725" lon="1.22862">
        <ele>173.2</ele>
        <time>2025-10-18T08:40:45Z</time>
      </trkpt>
      <trkpt lat="43.67251" lon="1.22865">
        <ele>173.4</ele>
        <time>2025-10-18T08:40:46Z</time>
      </trkpt>
      <trkpt lat="43.67251" lon="1.22868">
        <ele>173.6</ele>
        <time>2025-10-18T08:40:47Z</time>
      </trkpt>
      <trkpt lat="43.67253" lon="1.2287">
        <ele>174</ele>
        <time>2025-10-18T08:40:48Z</time>
      </trkpt>
      <trkpt lat="43.67254" lon="1.22871">
        <ele>174.2</ele>
        <time>2025-10-18T08:40:49Z</time>
      </trkpt>
      <trkpt lat="43.67256" lon="1.22874">
        <ele>174.6</ele>
        <time>2025-10-18T08:40:50Z</time>
      </trkpt>
      <trkpt lat="43.67257" lon="1.22877">
        <ele>174.8</ele>
        <time>2025-10-18T08:40:51Z</time>
      </trkpt>
      <trkpt lat="43.67257" lon="1.2288">
        <ele>175.2</ele>
        <time>2025-10-18T08:40:52Z</time>
      </trkpt>
      <trkpt lat="43.67258" lon="1.22883">
        <ele>175.4</ele>
        <time>2025-10-18T08:40:53Z</time>
      </trkpt>
      <trkpt lat="43.67258" lon="1.22887">
        <ele>175.6</ele>
        <time>2025-10-18T08:40:54Z</time>
      </trkpt>
      <trkpt lat="43.67257" lon="1.2289">
        <ele>175.8</ele>
        <time>2025-10-18T08:40:55Z</time>
      </trkpt>
      <trkpt lat="43.67257" lon="1.22893">
        <ele>176</ele>
        <time>2025-10-18T08:40:56Z</time>
      </trkpt>
      <trkpt lat="43.67257" lon="1.22896">
        <ele>176.2</ele>
        <time>2025-10-18T08:40:57Z</time>
      </trkpt>
      <trkpt lat="43.67257" lon="1.22899">
        <ele>176.4</ele>
        <time>2025-10-18T08:40:58Z</time>
      </trkpt>
      <trkpt lat="43.67258" lon="1.22902">
        <ele>176.6</ele>
        <time>2025-10-18T08:40:59Z</time>
      </trkpt>
      <trkpt lat="43.6726" lon="1.22905">
        <ele>176.8</ele>
        <time>2025-10-18T08:41:00Z</time>
      </trkpt>
      <trkpt lat="43.67261" lon="1.22907">
        <ele>177</ele>
        <time>2025-10-18T08:41:01Z</time>
      </trkpt>
      <trkpt lat="43.67262" lon="1.2291">
        <ele>177.2</ele>
        <time>2025-10-18T08:41:02Z</time>
      </trkpt>
      <trkpt lat="43.67264" lon="1.22913">
        <ele>177.6</ele>
        <time>2025-10-18T08:41:03Z</time>
      </trkpt>
      <trkpt lat="43.67265" lon="1.22916">
        <ele>177.8</ele>
        <time>2025-10-18T08:41:04Z</time>
      </trkpt>
      <trkpt lat="43.67266" lon="1.22918">
        <ele>178.2</ele>
        <time>2025-10-18T08:41:05Z</time>
      </trkpt>
      <trkpt lat="43.67268" lon="1.2292">
        <ele>178.6</ele>
        <time>2025-10-18T08:41:06Z</time>
      </trkpt>
      <trkpt lat="43.6727" lon="1.22923">
        <ele>179</ele>
        <time>2025-10-18T08:41:07Z</time>
      </trkpt>
      <trkpt lat="43.67272" lon="1.22925">
        <ele>179.2</ele>
        <time>2025-10-18T08:41:08Z</time>
      </trkpt>
      <trkpt lat="43.67273" lon="1.22927">
        <ele>179.6</ele>
        <time>2025-10-18T08:41:09Z</time>
      </trkpt>
      <trkpt lat="43.67274" lon="1.22929">
        <ele>180</ele>
        <time>2025-10-18T08:41:10Z</time>
      </trkpt>
      <trkpt lat="43.67275" lon="1.2293">
        <ele>180.6</ele>
        <time>2025-10-18T08:41:11Z</time>
      </trkpt>
      <trkpt lat="43.67275" lon="1.22931">
        <ele>181</ele>
        <time>2025-10-18T08:41:12Z</time>
      </trkpt>
      <trkpt lat="43.67276" lon="1.22931">
        <ele>181.4</ele>
        <time>2025-10-18T08:41:13Z</time>
      </trkpt>
      <trkpt lat="43.67278" lon="1.2294">
        <ele>182.6</ele>
        <time>2025-10-18T08:41:18Z</time>
      </trkpt>
      <trkpt lat="43.67278" lon="1.2294">
        <ele>182.8</ele>
        <time>2025-10-18T08:41:19Z</time>
      </trkpt>
      <trkpt lat="43.67279" lon="1.2294">
        <ele>183</ele>
        <time>2025-10-18T08:41:20Z</time>
      </trkpt>
      <trkpt lat="43.67279" lon="1.2294">
        <ele>183.4</ele>
        <time>2025-10-18T08:41:21Z</time>
      </trkpt>
      <trkpt lat="43.6728" lon="1.22941">
        <ele>183.8</ele>
        <time>2025-10-18T08:41:22Z</time>
      </trkpt>
      <trkpt lat="43.67281" lon="1.22941">
        <ele>184</ele>
        <time>2025-10-18T08:41:23Z</time>
      </trkpt>
      <trkpt lat="43.67282" lon="1.22941">
        <ele>184.2</ele>
        <time>2025-10-18T08:41:24Z</time>
      </trkpt>
      <trkpt lat="43.67283" lon="1.22942">
        <ele>184.4</ele>
        <time>2025-10-18T08:41:25Z</time>
      </trkpt>
      <trkpt lat="43.67283" lon="1.22943">
        <ele>184.6</ele>
        <time>2025-10-18T08:41:26Z</time>
      </trkpt>
      <trkpt lat="43.67284" lon="1.22944">
        <ele>184.6</ele>
        <time>2025-10-18T08:41:27Z</time>
      </trkpt>
      <trkpt lat="43.67285" lon="1.22945">
        <ele>184.8</ele>
        <time>2025-10-18T08:41:28Z</time>
      </trkpt>
      <trkpt lat="43.67287" lon="1.22946">
        <ele>184.8</ele>
        <time>2025-10-18T08:41:29Z</time>
      </trkpt>
      <trkpt lat="43.6729" lon="1.22947">
        <ele>184.8</ele>
        <time>2025-10-18T08:41:30Z</time>
      </trkpt>
      <trkpt lat="43.67292" lon="1.22946">
        <ele>184.8</ele>
        <time>2025-10-18T08:41:31Z</time>
      </trkpt>
      <trkpt lat="43.67294" lon="1.22944">
        <ele>185</ele>
        <time>2025-10-18T08:41:32Z</time>
      </trkpt>
      <trkpt lat="43.67295" lon="1.2294">
        <ele>184.8</ele>
        <time>2025-10-18T08:41:33Z</time>
      </trkpt>
      <trkpt lat="43.67295" lon="1.22937">
        <ele>184.8</ele>
        <time>2025-10-18T08:41:34Z</time>
      </trkpt>
      <trkpt lat="43.67296" lon="1.22933">
        <ele>184.6</ele>
        <time>2025-10-18T08:41:35Z</time>
      </trkpt>
      <trkpt lat="43.67297" lon="1.22931">
        <ele>184.4</ele>
        <time>2025-10-18T08:41:36Z</time>
      </trkpt>
      <trkpt lat="43.673" lon="1.22928">
        <ele>184.4</ele>
        <time>2025-10-18T08:41:37Z</time>
      </trkpt>
      <trkpt lat="43.67303" lon="1.22927">
        <ele>184.2</ele>
        <time>2025-10-18T08:41:38Z</time>
      </trkpt>
      <trkpt lat="43.67306" lon="1.22926">
        <ele>184.2</ele>
        <time>2025-10-18T08:41:39Z</time>
      </trkpt>
      <trkpt lat="43.67309" lon="1.22925">
        <ele>184</ele>
        <time>2025-10-18T08:41:40Z</time>
      </trkpt>
      <trkpt lat="43.67313" lon="1.22927">
        <ele>184</ele>
        <time>2025-10-18T08:41:41Z</time>
      </trkpt>
      <trkpt lat="43.67317" lon="1.22928">
        <ele>183.8</ele>
        <time>2025-10-18T08:41:42Z</time>
      </trkpt>
      <trkpt lat="43.67319" lon="1.22926">
        <ele>183.8</ele>
        <time>2025-10-18T08:41:43Z</time>
      </trkpt>
      <trkpt lat="43.67322" lon="1.22923">
        <ele>183.6</ele>
        <time>2025-10-18T08:41:44Z</time>
      </trkpt>
      <trkpt lat="43.67326" lon="1.22922">
        <ele>183.6</ele>
        <time>2025-10-18T08:41:45Z</time>
      </trkpt>
      <trkpt lat="43.6733" lon="1.2292">
        <ele>183.2</ele>
        <time>2025-10-18T08:41:46Z</time>
      </trkpt>
      <trkpt lat="43.67333" lon="1.22916">
        <ele>183</ele>
        <time>2025-10-18T08:41:47Z</time>
      </trkpt>
      <trkpt lat="43.67337" lon="1.22912">
        <ele>182.6</ele>
        <time>2025-10-18T08:41:48Z</time>
      </trkpt>
      <trkpt lat="43.67341" lon="1.22909">
        <ele>182.2</ele>
        <time>2025-10-18T08:41:49Z</time>
      </trkpt>
      <trkpt lat="43.67345" lon="1.22907">
        <ele>181.6</ele>
        <time>2025-10-18T08:41:50Z</time>
      </trkpt>
      <trkpt lat="43.6735" lon="1.22905">
        <ele>181.2</ele>
        <time>2025-10-18T08:41:51Z</time>
      </trkpt>
      <trkpt lat="43.67354" lon="1.22904">
        <ele>180.8</ele>
        <time>2025-10-18T08:41:52Z</time>
      </trkpt>
      <trkpt lat="43.67357" lon="1.22905">
        <ele>180.4</ele>
        <time>2025-10-18T08:41:53Z</time>
      </trkpt>
      <trkpt lat="43.67361" lon="1.22906">
        <ele>180</ele>
        <time>2025-10-18T08:41:54Z</time>
      </trkpt>
      <trkpt lat="43.67365" lon="1.22908">
        <ele>179.6</ele>
        <time>2025-10-18T08:41:55Z</time>
      </trkpt>
      <trkpt lat="43.67369" lon="1.22911">
        <ele>179.2</ele>
        <time>2025-10-18T08:41:56Z</time>
      </trkpt>
      <trkpt lat="43.67373" lon="1.22915">
        <ele>178.8</ele>
        <time>2025-10-18T08:41:57Z</time>
      </trkpt>
      <trkpt lat="43.67376" lon="1.2292">
        <ele>178.4</ele>
        <time>2025-10-18T08:41:58Z</time>
      </trkpt>
      <trkpt lat="43.67379" lon="1.22923">
        <ele>178.2</ele>
        <time>2025-10-18T08:41:59Z</time>
      </trkpt>
      <trkpt lat="43.67381" lon="1.22923">
        <ele>178</ele>
        <time>2025-10-18T08:42:00Z</time>
      </trkpt>
      <trkpt lat="43.67383" lon="1.22923">
        <ele>177.8</ele>
        <time>2025-10-18T08:42:01Z</time>
      </trkpt>
      <trkpt lat="43.67386" lon="1.22922">
        <ele>177.6</ele>
        <time>2025-10-18T08:42:02Z</time>
      </trkpt>
      <trkpt lat="43.67389" lon="1.22922">
        <ele>177.2</ele>
        <time>2025-10-18T08:42:03Z</time>
      </trkpt>
      <trkpt lat="43.67393" lon="1.22923">
        <ele>176.8</ele>
        <time>2025-10-18T08:42:04Z</time>
      </trkpt>
      <trkpt lat="43.67396" lon="1.22921">
        <ele>176.4</ele>
        <time>2025-10-18T08:42:05Z</time>
      </trkpt>
      <trkpt lat="43.674" lon="1.2292">
        <ele>175.6</ele>
        <time>2025-10-18T08:42:06Z</time>
      </trkpt>
      <trkpt lat="43.67404" lon="1.22918">
        <ele>175.2</ele>
        <time>2025-10-18T08:42:07Z</time>
      </trkpt>
      <trkpt lat="43.67406" lon="1.22914">
        <ele>174.6</ele>
        <time>2025-10-18T08:42:08Z</time>
      </trkpt>
      <trkpt lat="43.67407" lon="1.2291">
        <ele>174</ele>
        <time>2025-10-18T08:42:09Z</time>
      </trkpt>
      <trkpt lat="43.67406" lon="1.22906">
        <ele>173.6</ele>
        <time>2025-10-18T08:42:10Z</time>
      </trkpt>
      <trkpt lat="43.67406" lon="1.22902">
        <ele>173.2</ele>
        <time>2025-10-18T08:42:11Z</time>
      </trkpt>
      <trkpt lat="43.67405" lon="1.22897">
        <ele>173</ele>
        <time>2025-10-18T08:42:12Z</time>
      </trkpt>
      <trkpt lat="43.67404" lon="1.22893">
        <ele>172.8</ele>
        <time>2025-10-18T08:42:13Z</time>
      </trkpt>
      <trkpt lat="43.67402" lon="1.22888">
        <ele>172.8</ele>
        <time>2025-10-18T08:42:14Z</time>
      </trkpt>
      <trkpt lat="43.67401" lon="1.22882">
        <ele>172.8</ele>
        <time>2025-10-18T08:42:15Z</time>
      </trkpt>
      <trkpt lat="43.67399" lon="1.22876">
        <ele>172.8</ele>
        <time>2025-10-18T08:42:16Z</time>
      </trkpt>
      <trkpt lat="43.67397" lon="1.22869">
        <ele>173</ele>
        <time>2025-10-18T08:42:17Z</time>
      </trkpt>
      <trkpt lat="43.67395" lon="1.22863">
        <ele>173</ele>
        <time>2025-10-18T08:42:18Z</time>
      </trkpt>
      <trkpt lat="43.67394" lon="1.22857">
        <ele>173</ele>
        <time>2025-10-18T08:42:19Z</time>
      </trkpt>
      <trkpt lat="43.67392" lon="1.22851">
        <ele>173.2</ele>
        <time>2025-10-18T08:42:20Z</time>
      </trkpt>
      <trkpt lat="43.67391" lon="1.22844">
        <ele>173.2</ele>
        <time>2025-10-18T08:42:21Z</time>
      </trkpt>
      <trkpt lat="43.6739" lon="1.22837">
        <ele>173</ele>
        <time>2025-10-18T08:42:22Z</time>
      </trkpt>
      <trkpt lat="43.67388" lon="1.2283">
        <ele>173</ele>
        <time>2025-10-18T08:42:23Z</time>
      </trkpt>
      <trkpt lat="43.67387" lon="1.22824">
        <ele>172.8</ele>
        <time>2025-10-18T08:42:24Z</time>
      </trkpt>
      <trkpt lat="43.67386" lon="1.22819">
        <ele>172.8</ele>
        <time>2025-10-18T08:42:25Z</time>
      </trkpt>
      <trkpt lat="43.67384" lon="1.22813">
        <ele>172.8</ele>
        <time>2025-10-18T08:42:26Z</time>
      </trkpt>
      <trkpt lat="43.67382" lon="1.22807">
        <ele>173</ele>
        <time>2025-10-18T08:42:27Z</time>
      </trkpt>
      <trkpt lat="43.6738" lon="1.22801">
        <ele>173.2</ele>
        <time>2025-10-18T08:42:28Z</time>
      </trkpt>
      <trkpt lat="43.67379" lon="1.22793">
        <ele>173.2</ele>
        <time>2025-10-18T08:42:29Z</time>
      </trkpt>
      <trkpt lat="43.67378" lon="1.22786">
        <ele>173.2</ele>
        <time>2025-10-18T08:42:30Z</time>
      </trkpt>
      <trkpt lat="43.67377" lon="1.22777">
        <ele>173</ele>
        <time>2025-10-18T08:42:31Z</time>
      </trkpt>
      <trkpt lat="43.67375" lon="1.22768">
        <ele>172.8</ele>
        <time>2025-10-18T08:42:32Z</time>
      </trkpt>
      <trkpt lat="43.67373" lon="1.22761">
        <ele>172.4</ele>
        <time>2025-10-18T08:42:33Z</time>
      </trkpt>
      <trkpt lat="43.6737" lon="1.22756">
        <ele>172.2</ele>
        <time>2025-10-18T08:42:34Z</time>
      </trkpt>
      <trkpt lat="43.67368" lon="1.2275">
        <ele>171.8</ele>
        <time>2025-10-18T08:42:35Z</time>
      </trkpt>
      <trkpt lat="43.67366" lon="1.22744">
        <ele>171.2</ele>
        <time>2025-10-18T08:42:36Z</time>
      </trkpt>
      <trkpt lat="43.67366" lon="1.22738">
        <ele>170.4</ele>
        <time>2025-10-18T08:42:37Z</time>
      </trkpt>
      <trkpt lat="43.67366" lon="1.22733">
        <ele>169.4</ele>
        <time>2025-10-18T08:42:38Z</time>
      </trkpt>
      <trkpt lat="43.67366" lon="1.22728">
        <ele>169</ele>
        <time>2025-10-18T08:42:39Z</time>
      </trkpt>
      <trkpt lat="43.67366" lon="1.22724">
        <ele>168.4</ele>
        <time>2025-10-18T08:42:40Z</time>
      </trkpt>
      <trkpt lat="43.67366" lon="1.22722">
        <ele>168</ele>
        <time>2025-10-18T08:42:41Z</time>
      </trkpt>
      <trkpt lat="43.67366" lon="1.2272">
        <ele>167.4</ele>
        <time>2025-10-18T08:42:42Z</time>
      </trkpt>
      <trkpt lat="43.67366" lon="1.22718">
        <ele>167</ele>
        <time>2025-10-18T08:42:43Z</time>
      </trkpt>
      <trkpt lat="43.67366" lon="1.22716">
        <ele>166.6</ele>
        <time>2025-10-18T08:42:44Z</time>
      </trkpt>
      <trkpt lat="43.67367" lon="1.22713">
        <ele>166.4</ele>
        <time>2025-10-18T08:42:45Z</time>
      </trkpt>
      <trkpt lat="43.67367" lon="1.22712">
        <ele>166</ele>
        <time>2025-10-18T08:42:46Z</time>
      </trkpt>
      <trkpt lat="43.67367" lon="1.22709">
        <ele>165.8</ele>
        <time>2025-10-18T08:42:47Z</time>
      </trkpt>
      <trkpt lat="43.67368" lon="1.22707">
        <ele>165.4</ele>
        <time>2025-10-18T08:42:48Z</time>
      </trkpt>
      <trkpt lat="43.67367" lon="1.22705">
        <ele>164.8</ele>
        <time>2025-10-18T08:42:49Z</time>
      </trkpt>
      <trkpt lat="43.67367" lon="1.22704">
        <ele>164.6</ele>
        <time>2025-10-18T08:42:50Z</time>
      </trkpt>
      <trkpt lat="43.67367" lon="1.22703">
        <ele>164.2</ele>
        <time>2025-10-18T08:42:51Z</time>
      </trkpt>
      <trkpt lat="43.67367" lon="1.22703">
        <ele>164</ele>
        <time>2025-10-18T08:42:52Z</time>
      </trkpt>
      <trkpt lat="43.67367" lon="1.22701">
        <ele>163.8</ele>
        <time>2025-10-18T08:42:53Z</time>
      </trkpt>
      <trkpt lat="43.67367" lon="1.22699">
        <ele>163.6</ele>
        <time>2025-10-18T08:42:54Z</time>
      </trkpt>
      <trkpt lat="43.67364" lon="1.22681">
        <ele>158.6</ele>
        <time>2025-10-18T08:43:11Z</time>
      </trkpt>
      <trkpt lat="43.67363" lon="1.22676">
        <ele>158</ele>
        <time>2025-10-18T08:43:12Z</time>
      </trkpt>
      <trkpt lat="43.67364" lon="1.22671">
        <ele>157.2</ele>
        <time>2025-10-18T08:43:13Z</time>
      </trkpt>
      <trkpt lat="43.67366" lon="1.22669">
        <ele>156.6</ele>
        <time>2025-10-18T08:43:14Z</time>
      </trkpt>
      <trkpt lat="43.67369" lon="1.22669">
        <ele>156</ele>
        <time>2025-10-18T08:43:15Z</time>
      </trkpt>
      <trkpt lat="43.67372" lon="1.22667">
        <ele>155.4</ele>
        <time>2025-10-18T08:43:16Z</time>
      </trkpt>
      <trkpt lat="43.67375" lon="1.22665">
        <ele>155.2</ele>
        <time>2025-10-18T08:43:17Z</time>
      </trkpt>
      <trkpt lat="43.67378" lon="1.22662">
        <ele>155</ele>
        <time>2025-10-18T08:43:18Z</time>
      </trkpt>
      <trkpt lat="43.67382" lon="1.22659">
        <ele>154.8</ele>
        <time>2025-10-18T08:43:19Z</time>
      </trkpt>
      <trkpt lat="43.67386" lon="1.22658">
        <ele>154.6</ele>
        <time>2025-10-18T08:43:20Z</time>
      </trkpt>
      <trkpt lat="43.6739" lon="1.22656">
        <ele>154.4</ele>
        <time>2025-10-18T08:43:21Z</time>
      </trkpt>
      <trkpt lat="43.67393" lon="1.22654">
        <ele>154.4</ele>
        <time>2025-10-18T08:43:22Z</time>
      </trkpt>
      <trkpt lat="43.67394" lon="1.22653">
        <ele>154.4</ele>
        <time>2025-10-18T08:43:23Z</time>
      </trkpt>
      <trkpt lat="43.67395" lon="1.22652">
        <ele>154.6</ele>
        <time>2025-10-18T08:43:24Z</time>
      </trkpt>
      <trkpt lat="43.67395" lon="1.22652">
        <ele>154.8</ele>
        <time>2025-10-18T08:43:25Z</time>
      </trkpt>
      <trkpt lat="43.67398" lon="1.22649">
        <ele>155.2</ele>
        <time>2025-10-18T08:45:31Z</time>
      </trkpt>
      <trkpt lat="43.674" lon="1.22647">
        <ele>155.2</ele>
        <time>2025-10-18T08:45:32Z</time>
      </trkpt>
      <trkpt lat="43.67402" lon="1.22644">
        <ele>155.2</ele>
        <time>2025-10-18T08:45:33Z</time>
      </trkpt>
      <trkpt lat="43.67403" lon="1.22641">
        <ele>155.2</ele>
        <time>2025-10-18T08:45:34Z</time>
      </trkpt>
      <trkpt lat="43.67405" lon="1.2264">
        <ele>155.2</ele>
        <time>2025-10-18T08:45:35Z</time>
      </trkpt>
      <trkpt lat="43.67408" lon="1.22639">
        <ele>155</ele>
        <time>2025-10-18T08:45:36Z</time>
      </trkpt>
      <trkpt lat="43.6741" lon="1.22639">
        <ele>155</ele>
        <time>2025-10-18T08:45:37Z</time>
      </trkpt>
      <trkpt lat="43.67412" lon="1.2264">
        <ele>155</ele>
        <time>2025-10-18T08:45:38Z</time>
      </trkpt>
      <trkpt lat="43.67414" lon="1.2264">
        <ele>155</ele>
        <time>2025-10-18T08:45:39Z</time>
      </trkpt>
      <trkpt lat="43.67417" lon="1.2264">
        <ele>154.8</ele>
        <time>2025-10-18T08:45:40Z</time>
      </trkpt>
      <trkpt lat="43.6742" lon="1.22638">
        <ele>154.6</ele>
        <time>2025-10-18T08:45:41Z</time>
      </trkpt>
      <trkpt lat="43.67423" lon="1.22637">
        <ele>154.2</ele>
        <time>2025-10-18T08:45:42Z</time>
      </trkpt>
      <trkpt lat="43.67423" lon="1.22634">
        <ele>153.8</ele>
        <time>2025-10-18T08:45:43Z</time>
      </trkpt>
      <trkpt lat="43.67423" lon="1.22632">
        <ele>153.4</ele>
        <time>2025-10-18T08:45:44Z</time>
      </trkpt>
      <trkpt lat="43.67421" lon="1.22631">
        <ele>153</ele>
        <time>2025-10-18T08:45:45Z</time>
      </trkpt>
      <trkpt lat="43.6742" lon="1.22629">
        <ele>152.8</ele>
        <time>2025-10-18T08:45:46Z</time>
      </trkpt>
      <trkpt lat="43.67419" lon="1.22626">
        <ele>152.4</ele>
        <time>2025-10-18T08:45:47Z</time>
      </trkpt>
      <trkpt lat="43.67417" lon="1.22623">
        <ele>152.2</ele>
        <time>2025-10-18T08:45:48Z</time>
      </trkpt>
      <trkpt lat="43.67416" lon="1.2262">
        <ele>152</ele>
        <time>2025-10-18T08:45:49Z</time>
      </trkpt>
      <trkpt lat="43.67415" lon="1.22616">
        <ele>151.6</ele>
        <time>2025-10-18T08:45:50Z</time>
      </trkpt>
      <trkpt lat="43.67413" lon="1.22611">
        <ele>151.4</ele>
        <time>2025-10-18T08:45:51Z</time>
      </trkpt>
      <trkpt lat="43.67412" lon="1.22608">
        <ele>151.2</ele>
        <time>2025-10-18T08:45:52Z</time>
      </trkpt>
      <trkpt lat="43.67411" lon="1.22603">
        <ele>151.2</ele>
        <time>2025-10-18T08:45:53Z</time>
      </trkpt>
      <trkpt lat="43.6741" lon="1.22599">
        <ele>151</ele>
        <time>2025-10-18T08:45:54Z</time>
      </trkpt>
      <trkpt lat="43.67409" lon="1.22594">
        <ele>151</ele>
        <time>2025-10-18T08:45:55Z</time>
      </trkpt>
      <trkpt lat="43.67407" lon="1.2259">
        <ele>151</ele>
        <time>2025-10-18T08:45:56Z</time>
      </trkpt>
      <trkpt lat="43.67405" lon="1.22587">
        <ele>151</ele>
        <time>2025-10-18T08:45:57Z</time>
      </trkpt>
      <trkpt lat="43.67404" lon="1.22585">
        <ele>151.2</ele>
        <time>2025-10-18T08:45:58Z</time>
      </trkpt>
      <trkpt lat="43.67402" lon="1.22584">
        <ele>151.4</ele>
        <time>2025-10-18T08:45:59Z</time>
      </trkpt>
      <trkpt lat="43.674" lon="1.22584">
        <ele>151.6</ele>
        <time>2025-10-18T08:46:00Z</time>
      </trkpt>
      <trkpt lat="43.67399" lon="1.22584">
        <ele>151.8</ele>
        <time>2025-10-18T08:46:01Z</time>
      </trkpt>
      <trkpt lat="43.67398" lon="1.22584">
        <ele>152</ele>
        <time>2025-10-18T08:46:02Z</time>
      </trkpt>
      <trkpt lat="43.67397" lon="1.22584">
        <ele>152.4</ele>
        <time>2025-10-18T08:46:03Z</time>
      </trkpt>
      <trkpt lat="43.67396" lon="1.22584">
        <ele>152.4</ele>
        <time>2025-10-18T08:46:04Z</time>
      </trkpt>
      <trkpt lat="43.67396" lon="1.22584">
        <ele>152.6</ele>
        <time>2025-10-18T08:46:05Z</time>
      </trkpt>
      <trkpt lat="43.67394" lon="1.22584">
        <ele>152.6</ele>
        <time>2025-10-18T08:46:06Z</time>
      </trkpt>
      <trkpt lat="43.67393" lon="1.22584">
        <ele>152.6</ele>
        <time>2025-10-18T08:46:07Z</time>
      </trkpt>
      <trkpt lat="43.67392" lon="1.22586">
        <ele>152.6</ele>
        <time>2025-10-18T08:46:08Z</time>
      </trkpt>
      <trkpt lat="43.6739" lon="1.22586">
        <ele>152.6</ele>
        <time>2025-10-18T08:46:09Z</time>
      </trkpt>
      <trkpt lat="43.67389" lon="1.22587">
        <ele>152.6</ele>
        <time>2025-10-18T08:46:10Z</time>
      </trkpt>
      <trkpt lat="43.67387" lon="1.22588">
        <ele>152.6</ele>
        <time>2025-10-18T08:46:11Z</time>
      </trkpt>
      <trkpt lat="43.67385" lon="1.2259">
        <ele>152.6</ele>
        <time>2025-10-18T08:46:12Z</time>
      </trkpt>
      <trkpt lat="43.67384" lon="1.22592">
        <ele>152.6</ele>
        <time>2025-10-18T08:46:13Z</time>
      </trkpt>
      <trkpt lat="43.67382" lon="1.22594">
        <ele>152.8</ele>
        <time>2025-10-18T08:46:14Z</time>
      </trkpt>
      <trkpt lat="43.67381" lon="1.22596">
        <ele>152.8</ele>
        <time>2025-10-18T08:46:15Z</time>
      </trkpt>
      <trkpt lat="43.67379" lon="1.22597">
        <ele>152.8</ele>
        <time>2025-10-18T08:46:16Z</time>
      </trkpt>
      <trkpt lat="43.67376" lon="1.22599">
        <ele>152.8</ele>
        <time>2025-10-18T08:46:17Z</time>
      </trkpt>
      <trkpt lat="43.67374" lon="1.22601">
        <ele>152.6</ele>
        <time>2025-10-18T08:46:18Z</time>
      </trkpt>
      <trkpt lat="43.67371" lon="1.22603">
        <ele>152.6</ele>
        <time>2025-10-18T08:46:19Z</time>
      </trkpt>
      <trkpt lat="43.67369" lon="1.22605">
        <ele>152.6</ele>
        <time>2025-10-18T08:46:20Z</time>
      </trkpt>
      <trkpt lat="43.67367" lon="1.22608">
        <ele>152.6</ele>
        <time>2025-10-18T08:46:21Z</time>
      </trkpt>
      <trkpt lat="43.67365" lon="1.22611">
        <ele>152.8</ele>
        <time>2025-10-18T08:46:22Z</time>
      </trkpt>
      <trkpt lat="43.67363" lon="1.22614">
        <ele>152.8</ele>
        <time>2025-10-18T08:46:23Z</time>
      </trkpt>
      <trkpt lat="43.67362" lon="1.22617">
        <ele>152.8</ele>
        <time>2025-10-18T08:46:24Z</time>
      </trkpt>
      <trkpt lat="43.67361" lon="1.22619">
        <ele>153</ele>
        <time>2025-10-18T08:46:25Z</time>
      </trkpt>
      <trkpt lat="43.6736" lon="1.22621">
        <ele>153</ele>
        <time>2025-10-18T08:46:26Z</time>
      </trkpt>
      <trkpt lat="43.67359" lon="1.22622">
        <ele>153.2</ele>
        <time>2025-10-18T08:46:27Z</time>
      </trkpt>
      <trkpt lat="43.67357" lon="1.22623">
        <ele>153.2</ele>
        <time>2025-10-18T08:46:28Z</time>
      </trkpt>
      <trkpt lat="43.67356" lon="1.22622">
        <ele>153.2</ele>
        <time>2025-10-18T08:46:29Z</time>
      </trkpt>
      <trkpt lat="43.67354" lon="1.22622">
        <ele>153.4</ele>
        <time>2025-10-18T08:46:30Z</time>
      </trkpt>
      <trkpt lat="43.67352" lon="1.22623">
        <ele>153.4</ele>
        <time>2025-10-18T08:46:31Z</time>
      </trkpt>
      <trkpt lat="43.6735" lon="1.22625">
        <ele>153.4</ele>
        <time>2025-10-18T08:46:32Z</time>
      </trkpt>
      <trkpt lat="43.67349" lon="1.22627">
        <ele>153.4</ele>
        <time>2025-10-18T08:46:33Z</time>
      </trkpt>
      <trkpt lat="43.67347" lon="1.2263">
        <ele>153.4</ele>
        <time>2025-10-18T08:46:34Z</time>
      </trkpt>
      <trkpt lat="43.67344" lon="1.22633">
        <ele>153.6</ele>
        <time>2025-10-18T08:46:35Z</time>
      </trkpt>
      <trkpt lat="43.67342" lon="1.22636">
        <ele>153.6</ele>
        <time>2025-10-18T08:46:36Z</time>
      </trkpt>
      <trkpt lat="43.6734" lon="1.22638">
        <ele>153.6</ele>
        <time>2025-10-18T08:46:37Z</time>
      </trkpt>
      <trkpt lat="43.67337" lon="1.22641">
        <ele>153.8</ele>
        <time>2025-10-18T08:46:38Z</time>
      </trkpt>
      <trkpt lat="43.67335" lon="1.22644">
        <ele>153.8</ele>
        <time>2025-10-18T08:46:39Z</time>
      </trkpt>
      <trkpt lat="43.67332" lon="1.22647">
        <ele>154</ele>
        <time>2025-10-18T08:46:40Z</time>
      </trkpt>
      <trkpt lat="43.6733" lon="1.2265">
        <ele>154.2</ele>
        <time>2025-10-18T08:46:41Z</time>
      </trkpt>
      <trkpt lat="43.67327" lon="1.22653">
        <ele>154.4</ele>
        <time>2025-10-18T08:46:42Z</time>
      </trkpt>
      <trkpt lat="43.67324" lon="1.22656">
        <ele>154.6</ele>
        <time>2025-10-18T08:46:43Z</time>
      </trkpt>
      <trkpt lat="43.67321" lon="1.22659">
        <ele>154.8</ele>
        <time>2025-10-18T08:46:44Z</time>
      </trkpt>
      <trkpt lat="43.67318" lon="1.22663">
        <ele>155</ele>
        <time>2025-10-18T08:46:45Z</time>
      </trkpt>
      <trkpt lat="43.67315" lon="1.22666">
        <ele>155.2</ele>
        <time>2025-10-18T08:46:46Z</time>
      </trkpt>
      <trkpt lat="43.67312" lon="1.22669">
        <ele>155.4</ele>
        <time>2025-10-18T08:46:47Z</time>
      </trkpt>
      <trkpt lat="43.67309" lon="1.22672">
        <ele>155.6</ele>
        <time>2025-10-18T08:46:48Z</time>
      </trkpt>
      <trkpt lat="43.67306" lon="1.22675">
        <ele>155.8</ele>
        <time>2025-10-18T08:46:49Z</time>
      </trkpt>
      <trkpt lat="43.67303" lon="1.22679">
        <ele>156</ele>
        <time>2025-10-18T08:46:50Z</time>
      </trkpt>
      <trkpt lat="43.673" lon="1.22683">
        <ele>156.2</ele>
        <time>2025-10-18T08:46:51Z</time>
      </trkpt>
      <trkpt lat="43.67297" lon="1.22686">
        <ele>156.4</ele>
        <time>2025-10-18T08:46:52Z</time>
      </trkpt>
      <trkpt lat="43.67294" lon="1.2269">
        <ele>156.6</ele>
        <time>2025-10-18T08:46:53Z</time>
      </trkpt>
      <trkpt lat="43.67291" lon="1.22693">
        <ele>156.8</ele>
        <time>2025-10-18T08:46:54Z</time>
      </trkpt>
      <trkpt lat="43.67288" lon="1.22695">
        <ele>157</ele>
        <time>2025-10-18T08:46:55Z</time>
      </trkpt>
      <trkpt lat="43.67285" lon="1.22699">
        <ele>157.2</ele>
        <time>2025-10-18T08:46:56Z</time>
      </trkpt>
      <trkpt lat="43.67282" lon="1.22702">
        <ele>157.6</ele>
        <time>2025-10-18T08:46:57Z</time>
      </trkpt>
      <trkpt lat="43.67279" lon="1.22706">
        <ele>157.8</ele>
        <time>2025-10-18T08:46:58Z</time>
      </trkpt>
      <trkpt lat="43.67276" lon="1.22709">
        <ele>158</ele>
        <time>2025-10-18T08:46:59Z</time>
      </trkpt>
      <trkpt lat="43.67273" lon="1.22713">
        <ele>158</ele>
        <time>2025-10-18T08:47:00Z</time>
      </trkpt>
      <trkpt lat="43.6727" lon="1.22716">
        <ele>158.2</ele>
        <time>2025-10-18T08:47:01Z</time>
      </trkpt>
      <trkpt lat="43.67266" lon="1.2272">
        <ele>158.6</ele>
        <time>2025-10-18T08:47:02Z</time>
      </trkpt>
      <trkpt lat="43.67263" lon="1.22723">
        <ele>158.8</ele>
        <time>2025-10-18T08:47:03Z</time>
      </trkpt>
      <trkpt lat="43.6726" lon="1.22726">
        <ele>159</ele>
        <time>2025-10-18T08:47:04Z</time>
      </trkpt>
      <trkpt lat="43.67257" lon="1.22729">
        <ele>159.2</ele>
        <time>2025-10-18T08:47:05Z</time>
      </trkpt>
      <trkpt lat="43.67254" lon="1.22733">
        <ele>159.4</ele>
        <time>2025-10-18T08:47:06Z</time>
      </trkpt>
      <trkpt lat="43.67252" lon="1.22736">
        <ele>159.6</ele>
        <time>2025-10-18T08:47:07Z</time>
      </trkpt>
      <trkpt lat="43.67249" lon="1.2274">
        <ele>159.8</ele>
        <time>2025-10-18T08:47:08Z</time>
      </trkpt>
      <trkpt lat="43.67245" lon="1.22743">
        <ele>160</ele>
        <time>2025-10-18T08:47:09Z</time>
      </trkpt>
      <trkpt lat="43.67242" lon="1.22747">
        <ele>160</ele>
        <time>2025-10-18T08:47:10Z</time>
      </trkpt>
      <trkpt lat="43.67239" lon="1.2275">
        <ele>160.2</ele>
        <time>2025-10-18T08:47:11Z</time>
      </trkpt>
      <trkpt lat="43.67236" lon="1.22754">
        <ele>160.2</ele>
        <time>2025-10-18T08:47:12Z</time>
      </trkpt>
      <trkpt lat="43.67232" lon="1.22759">
        <ele>160.4</ele>
        <time>2025-10-18T08:47:13Z</time>
      </trkpt>
      <trkpt lat="43.67229" lon="1.22763">
        <ele>160.4</ele>
        <time>2025-10-18T08:47:14Z</time>
      </trkpt>
      <trkpt lat="43.67225" lon="1.22766">
        <ele>160.6</ele>
        <time>2025-10-18T08:47:15Z</time>
      </trkpt>
      <trkpt lat="43.67221" lon="1.2277">
        <ele>160.8</ele>
        <time>2025-10-18T08:47:16Z</time>
      </trkpt>
      <trkpt lat="43.67218" lon="1.22774">
        <ele>160.8</ele>
        <time>2025-10-18T08:47:17Z</time>
      </trkpt>
      <trkpt lat="43.67215" lon="1.22777">
        <ele>160.8</ele>
        <time>2025-10-18T08:47:18Z</time>
      </trkpt>
      <trkpt lat="43.67212" lon="1.22781">
        <ele>161</ele>
        <time>2025-10-18T08:47:19Z</time>
      </trkpt>
      <trkpt lat="43.67209" lon="1.22785">
        <ele>161.2</ele>
        <time>2025-10-18T08:47:20Z</time>
      </trkpt>
      <trkpt lat="43.67206" lon="1.22788">
        <ele>161.2</ele>
        <time>2025-10-18T08:47:21Z</time>
      </trkpt>
      <trkpt lat="43.67203" lon="1.22791">
        <ele>161.4</ele>
        <time>2025-10-18T08:47:22Z</time>
      </trkpt>
      <trkpt lat="43.67201" lon="1.22794">
        <ele>161.2</ele>
        <time>2025-10-18T08:47:23Z</time>
      </trkpt>
      <trkpt lat="43.67198" lon="1.22797">
        <ele>161.2</ele>
        <time>2025-10-18T08:47:24Z</time>
      </trkpt>
      <trkpt lat="43.67195" lon="1.22799">
        <ele>161.2</ele>
        <time>2025-10-18T08:47:25Z</time>
      </trkpt>
      <trkpt lat="43.67193" lon="1.22802">
        <ele>161.2</ele>
        <time>2025-10-18T08:47:26Z</time>
      </trkpt>
      <trkpt lat="43.6719" lon="1.22804">
        <ele>161.4</ele>
        <time>2025-10-18T08:47:27Z</time>
      </trkpt>
      <trkpt lat="43.67188" lon="1.22807">
        <ele>161.8</ele>
        <time>2025-10-18T08:47:28Z</time>
      </trkpt>
      <trkpt lat="43.67186" lon="1.22809">
        <ele>161.8</ele>
        <time>2025-10-18T08:47:29Z</time>
      </trkpt>
      <trkpt lat="43.67184" lon="1.22812">
        <ele>161.8</ele>
        <time>2025-10-18T08:47:30Z</time>
      </trkpt>
      <trkpt lat="43.67181" lon="1.22814">
        <ele>161.6</ele>
        <time>2025-10-18T08:47:31Z</time>
      </trkpt>
      <trkpt lat="43.67179" lon="1.22818">
        <ele>161.6</ele>
        <time>2025-10-18T08:47:32Z</time>
      </trkpt>
      <trkpt lat="43.67176" lon="1.22821">
        <ele>161.6</ele>
        <time>2025-10-18T08:47:33Z</time>
      </trkpt>
      <trkpt lat="43.67174" lon="1.22825">
        <ele>161.6</ele>
        <time>2025-10-18T08:47:34Z</time>
      </trkpt>
      <trkpt lat="43.6717" lon="1.22828">
        <ele>161.6</ele>
        <time>2025-10-18T08:47:35Z</time>
      </trkpt>
      <trkpt lat="43.67167" lon="1.22832">
        <ele>161.6</ele>
        <time>2025-10-18T08:47:36Z</time>
      </trkpt>
      <trkpt lat="43.67164" lon="1.22835">
        <ele>161.8</ele>
        <time>2025-10-18T08:47:37Z</time>
      </trkpt>
      <trkpt lat="43.6716" lon="1.2284">
        <ele>161.8</ele>
        <time>2025-10-18T08:47:38Z</time>
      </trkpt>
      <trkpt lat="43.67156" lon="1.22844">
        <ele>161.8</ele>
        <time>2025-10-18T08:47:39Z</time>
      </trkpt>
      <trkpt lat="43.67152" lon="1.22848">
        <ele>162</ele>
        <time>2025-10-18T08:47:40Z</time>
      </trkpt>
      <trkpt lat="43.67148" lon="1.22853">
        <ele>162.2</ele>
        <time>2025-10-18T08:47:41Z</time>
      </trkpt>
      <trkpt lat="43.67145" lon="1.22857">
        <ele>162.2</ele>
        <time>2025-10-18T08:47:42Z</time>
      </trkpt>
      <trkpt lat="43.6714" lon="1.22861">
        <ele>162.2</ele>
        <time>2025-10-18T08:47:43Z</time>
      </trkpt>
      <trkpt lat="43.67136" lon="1.22866">
        <ele>162.2</ele>
        <time>2025-10-18T08:47:44Z</time>
      </trkpt>
      <trkpt lat="43.67132" lon="1.2287">
        <ele>162.2</ele>
        <time>2025-10-18T08:47:45Z</time>
      </trkpt>
      <trkpt lat="43.67128" lon="1.22874">
        <ele>162.2</ele>
        <time>2025-10-18T08:47:46Z</time>
      </trkpt>
      <trkpt lat="43.67124" lon="1.22879">
        <ele>162</ele>
        <time>2025-10-18T08:47:47Z</time>
      </trkpt>
      <trkpt lat="43.6712" lon="1.22883">
        <ele>162</ele>
        <time>2025-10-18T08:47:48Z</time>
      </trkpt>
      <trkpt lat="43.67116" lon="1.22887">
        <ele>161.8</ele>
        <time>2025-10-18T08:47:49Z</time>
      </trkpt>
      <trkpt lat="43.67112" lon="1.22892">
        <ele>162</ele>
        <time>2025-10-18T08:47:50Z</time>
      </trkpt>
      <trkpt lat="43.67108" lon="1.22896">
        <ele>162.4</ele>
        <time>2025-10-18T08:47:51Z</time>
      </trkpt>
      <trkpt lat="43.67104" lon="1.22901">
        <ele>162.8</ele>
        <time>2025-10-18T08:47:52Z</time>
      </trkpt>
      <trkpt lat="43.671" lon="1.22906">
        <ele>162.8</ele>
        <time>2025-10-18T08:47:53Z</time>
      </trkpt>
      <trkpt lat="43.67096" lon="1.22911">
        <ele>163</ele>
        <time>2025-10-18T08:47:54Z</time>
      </trkpt>
      <trkpt lat="43.67092" lon="1.22915">
        <ele>163</ele>
        <time>2025-10-18T08:47:55Z</time>
      </trkpt>
      <trkpt lat="43.67087" lon="1.2292">
        <ele>162.8</ele>
        <time>2025-10-18T08:47:56Z</time>
      </trkpt>
      <trkpt lat="43.67083" lon="1.22925">
        <ele>162.8</ele>
        <time>2025-10-18T08:47:57Z</time>
      </trkpt>
      <trkpt lat="43.67079" lon="1.2293">
        <ele>162.8</ele>
        <time>2025-10-18T08:47:58Z</time>
      </trkpt>
      <trkpt lat="43.67074" lon="1.22934">
        <ele>162.8</ele>
        <time>2025-10-18T08:47:59Z</time>
      </trkpt>
      <trkpt lat="43.6707" lon="1.22939">
        <ele>162.8</ele>
        <time>2025-10-18T08:48:00Z</time>
      </trkpt>
      <trkpt lat="43.67066" lon="1.22944">
        <ele>163</ele>
        <time>2025-10-18T08:48:01Z</time>
      </trkpt>
      <trkpt lat="43.67062" lon="1.22948">
        <ele>163.2</ele>
        <time>2025-10-18T08:48:02Z</time>
      </trkpt>
      <trkpt lat="43.67058" lon="1.22953">
        <ele>163.4</ele>
        <time>2025-10-18T08:48:03Z</time>
      </trkpt>
      <trkpt lat="43.67054" lon="1.22958">
        <ele>163.6</ele>
        <time>2025-10-18T08:48:04Z</time>
      </trkpt>
      <trkpt lat="43.67049" lon="1.22962">
        <ele>163.6</ele>
        <time>2025-10-18T08:48:05Z</time>
      </trkpt>
      <trkpt lat="43.67045" lon="1.22968">
        <ele>163.6</ele>
        <time>2025-10-18T08:48:06Z</time>
      </trkpt>
      <trkpt lat="43.67041" lon="1.22973">
        <ele>163.6</ele>
        <time>2025-10-18T08:48:07Z</time>
      </trkpt>
      <trkpt lat="43.67036" lon="1.22978">
        <ele>163.6</ele>
        <time>2025-10-18T08:48:08Z</time>
      </trkpt>
      <trkpt lat="43.67032" lon="1.22983">
        <ele>163.6</ele>
        <time>2025-10-18T08:48:09Z</time>
      </trkpt>
      <trkpt lat="43.67027" lon="1.22988">
        <ele>163.6</ele>
        <time>2025-10-18T08:48:10Z</time>
      </trkpt>
      <trkpt lat="43.67023" lon="1.22994">
        <ele>163.6</ele>
        <time>2025-10-18T08:48:11Z</time>
      </trkpt>
      <trkpt lat="43.67018" lon="1.22999">
        <ele>163.6</ele>
        <time>2025-10-18T08:48:12Z</time>
      </trkpt>
      <trkpt lat="43.67014" lon="1.23005">
        <ele>163.8</ele>
        <time>2025-10-18T08:48:13Z</time>
      </trkpt>
      <trkpt lat="43.6701" lon="1.23011">
        <ele>163.8</ele>
        <time>2025-10-18T08:48:14Z</time>
      </trkpt>
      <trkpt lat="43.67005" lon="1.23016">
        <ele>163.8</ele>
        <time>2025-10-18T08:48:15Z</time>
      </trkpt>
      <trkpt lat="43.67001" lon="1.23022">
        <ele>164</ele>
        <time>2025-10-18T08:48:16Z</time>
      </trkpt>
      <trkpt lat="43.66996" lon="1.23028">
        <ele>164.2</ele>
        <time>2025-10-18T08:48:17Z</time>
      </trkpt>
      <trkpt lat="43.66992" lon="1.23034">
        <ele>164.2</ele>
        <time>2025-10-18T08:48:18Z</time>
      </trkpt>
      <trkpt lat="43.66988" lon="1.2304">
        <ele>164.4</ele>
        <time>2025-10-18T08:48:19Z</time>
      </trkpt>
      <trkpt lat="43.66983" lon="1.23045">
        <ele>164.4</ele>
        <time>2025-10-18T08:48:20Z</time>
      </trkpt>
      <trkpt lat="43.66979" lon="1.2305">
        <ele>164.4</ele>
        <time>2025-10-18T08:48:21Z</time>
      </trkpt>
      <trkpt lat="43.66974" lon="1.23055">
        <ele>164.4</ele>
        <time>2025-10-18T08:48:22Z</time>
      </trkpt>
      <trkpt lat="43.6697" lon="1.23061">
        <ele>164.4</ele>
        <time>2025-10-18T08:48:23Z</time>
      </trkpt>
      <trkpt lat="43.66965" lon="1.23067">
        <ele>164.2</ele>
        <time>2025-10-18T08:48:24Z</time>
      </trkpt>
      <trkpt lat="43.66961" lon="1.23073">
        <ele>164.2</ele>
        <time>2025-10-18T08:48:25Z</time>
      </trkpt>
      <trkpt lat="43.66957" lon="1.23079">
        <ele>164</ele>
        <time>2025-10-18T08:48:26Z</time>
      </trkpt>
      <trkpt lat="43.66952" lon="1.23084">
        <ele>164</ele>
        <time>2025-10-18T08:48:27Z</time>
      </trkpt>
      <trkpt lat="43.66948" lon="1.2309">
        <ele>163.8</ele>
        <time>2025-10-18T08:48:28Z</time>
      </trkpt>
      <trkpt lat="43.66944" lon="1.23096">
        <ele>163.8</ele>
        <time>2025-10-18T08:48:29Z</time>
      </trkpt>
      <trkpt lat="43.6694" lon="1.23101">
        <ele>163.8</ele>
        <time>2025-10-18T08:48:30Z</time>
      </trkpt>
      <trkpt lat="43.66935" lon="1.23106">
        <ele>164</ele>
        <time>2025-10-18T08:48:31Z</time>
      </trkpt>
      <trkpt lat="43.66931" lon="1.23112">
        <ele>164.2</ele>
        <time>2025-10-18T08:48:32Z</time>
      </trkpt>
      <trkpt lat="43.66927" lon="1.23118">
        <ele>164.4</ele>
        <time>2025-10-18T08:48:33Z</time>
      </trkpt>
      <trkpt lat="43.66922" lon="1.23123">
        <ele>164.6</ele>
        <time>2025-10-18T08:48:34Z</time>
      </trkpt>
      <trkpt lat="43.66918" lon="1.23129">
        <ele>164.8</ele>
        <time>2025-10-18T08:48:35Z</time>
      </trkpt>
      <trkpt lat="43.66913" lon="1.23135">
        <ele>165</ele>
        <time>2025-10-18T08:48:36Z</time>
      </trkpt>
      <trkpt lat="43.66908" lon="1.2314">
        <ele>165.2</ele>
        <time>2025-10-18T08:48:37Z</time>
      </trkpt>
      <trkpt lat="43.66904" lon="1.23146">
        <ele>165.2</ele>
        <time>2025-10-18T08:48:38Z</time>
      </trkpt>
      <trkpt lat="43.66899" lon="1.23151">
        <ele>165.4</ele>
        <time>2025-10-18T08:48:39Z</time>
      </trkpt>
      <trkpt lat="43.66895" lon="1.23157">
        <ele>165.4</ele>
        <time>2025-10-18T08:48:40Z</time>
      </trkpt>
      <trkpt lat="43.6689" lon="1.23162">
        <ele>165.6</ele>
        <time>2025-10-18T08:48:41Z</time>
      </trkpt>
      <trkpt lat="43.66886" lon="1.23167">
        <ele>165.8</ele>
        <time>2025-10-18T08:48:42Z</time>
      </trkpt>
      <trkpt lat="43.66882" lon="1.23172">
        <ele>165.8</ele>
        <time>2025-10-18T08:48:43Z</time>
      </trkpt>
      <trkpt lat="43.66878" lon="1.23178">
        <ele>166.2</ele>
        <time>2025-10-18T08:48:44Z</time>
      </trkpt>
      <trkpt lat="43.66874" lon="1.23183">
        <ele>166.4</ele>
        <time>2025-10-18T08:48:45Z</time>
      </trkpt>
      <trkpt lat="43.6687" lon="1.23188">
        <ele>166.8</ele>
        <time>2025-10-18T08:48:46Z</time>
      </trkpt>
      <trkpt lat="43.66866" lon="1.23193">
        <ele>167</ele>
        <time>2025-10-18T08:48:47Z</time>
      </trkpt>
      <trkpt lat="43.66862" lon="1.23199">
        <ele>167.2</ele>
        <time>2025-10-18T08:48:48Z</time>
      </trkpt>
      <trkpt lat="43.66858" lon="1.23203">
        <ele>167.6</ele>
        <time>2025-10-18T08:48:49Z</time>
      </trkpt>
      <trkpt lat="43.66854" lon="1.23208">
        <ele>167.8</ele>
        <time>2025-10-18T08:48:50Z</time>
      </trkpt>
      <trkpt lat="43.6685" lon="1.23213">
        <ele>168</ele>
        <time>2025-10-18T08:48:51Z</time>
      </trkpt>
      <trkpt lat="43.66846" lon="1.23218">
        <ele>168.2</ele>
        <time>2025-10-18T08:48:52Z</time>
      </trkpt>
      <trkpt lat="43.66842" lon="1.23223">
        <ele>168.4</ele>
        <time>2025-10-18T08:48:53Z</time>
      </trkpt>
      <trkpt lat="43.66838" lon="1.23228">
        <ele>168.6</ele>
        <time>2025-10-18T08:48:54Z</time>
      </trkpt>
      <trkpt lat="43.66835" lon="1.23233">
        <ele>168.6</ele>
        <time>2025-10-18T08:48:55Z</time>
      </trkpt>
      <trkpt lat="43.66831" lon="1.23238">
        <ele>168.6</ele>
        <time>2025-10-18T08:48:56Z</time>
      </trkpt>
      <trkpt lat="43.66827" lon="1.23243">
        <ele>169.4</ele>
        <time>2025-10-18T08:48:57Z</time>
      </trkpt>
      <trkpt lat="43.66823" lon="1.23248">
        <ele>170</ele>
        <time>2025-10-18T08:48:58Z</time>
      </trkpt>
      <trkpt lat="43.66819" lon="1.23253">
        <ele>170.2</ele>
        <time>2025-10-18T08:48:59Z</time>
      </trkpt>
      <trkpt lat="43.66815" lon="1.23258">
        <ele>170.2</ele>
        <time>2025-10-18T08:49:00Z</time>
      </trkpt>
      <trkpt lat="43.66811" lon="1.23262">
        <ele>170.2</ele>
        <time>2025-10-18T08:49:01Z</time>
      </trkpt>
      <trkpt lat="43.66808" lon="1.23267">
        <ele>170.2</ele>
        <time>2025-10-18T08:49:02Z</time>
      </trkpt>
      <trkpt lat="43.66804" lon="1.23272">
        <ele>170.2</ele>
        <time>2025-10-18T08:49:03Z</time>
      </trkpt>
      <trkpt lat="43.668" lon="1.23276">
        <ele>170.4</ele>
        <time>2025-10-18T08:49:04Z</time>
      </trkpt>
      <trkpt lat="43.66797" lon="1.23281">
        <ele>170.6</ele>
        <time>2025-10-18T08:49:05Z</time>
      </trkpt>
      <trkpt lat="43.66793" lon="1.23286">
        <ele>170.6</ele>
        <time>2025-10-18T08:49:06Z</time>
      </trkpt>
      <trkpt lat="43.66789" lon="1.23291">
        <ele>171</ele>
        <time>2025-10-18T08:49:07Z</time>
      </trkpt>
      <trkpt lat="43.66785" lon="1.23295">
        <ele>171.2</ele>
        <time>2025-10-18T08:49:08Z</time>
      </trkpt>
      <trkpt lat="43.66781" lon="1.233">
        <ele>171.4</ele>
        <time>2025-10-18T08:49:09Z</time>
      </trkpt>
      <trkpt lat="43.66777" lon="1.23304">
        <ele>171.6</ele>
        <time>2025-10-18T08:49:10Z</time>
      </trkpt>
      <trkpt lat="43.66773" lon="1.23308">
        <ele>171.8</ele>
        <time>2025-10-18T08:49:11Z</time>
      </trkpt>
      <trkpt lat="43.66768" lon="1.23312">
        <ele>172</ele>
        <time>2025-10-18T08:49:12Z</time>
      </trkpt>
      <trkpt lat="43.66764" lon="1.23316">
        <ele>172.2</ele>
        <time>2025-10-18T08:49:13Z</time>
      </trkpt>
      <trkpt lat="43.6676" lon="1.23319">
        <ele>172.4</ele>
        <time>2025-10-18T08:49:14Z</time>
      </trkpt>
      <trkpt lat="43.66756" lon="1.23323">
        <ele>172.4</ele>
        <time>2025-10-18T08:49:15Z</time>
      </trkpt>
      <trkpt lat="43.66752" lon="1.23327">
        <ele>172.6</ele>
        <time>2025-10-18T08:49:16Z</time>
      </trkpt>
      <trkpt lat="43.66747" lon="1.23331">
        <ele>172.8</ele>
        <time>2025-10-18T08:49:17Z</time>
      </trkpt>
      <trkpt lat="43.66743" lon="1.23334">
        <ele>173</ele>
        <time>2025-10-18T08:49:18Z</time>
      </trkpt>
      <trkpt lat="43.66738" lon="1.23338">
        <ele>173.2</ele>
        <time>2025-10-18T08:49:19Z</time>
      </trkpt>
      <trkpt lat="43.66734" lon="1.23341">
        <ele>173.2</ele>
        <time>2025-10-18T08:49:20Z</time>
      </trkpt>
      <trkpt lat="43.66729" lon="1.23344">
        <ele>173</ele>
        <time>2025-10-18T08:49:21Z</time>
      </trkpt>
      <trkpt lat="43.66724" lon="1.23346">
        <ele>173.2</ele>
        <time>2025-10-18T08:49:22Z</time>
      </trkpt>
      <trkpt lat="43.6672" lon="1.23349">
        <ele>173.6</ele>
        <time>2025-10-18T08:49:23Z</time>
      </trkpt>
      <trkpt lat="43.66715" lon="1.23352">
        <ele>174.2</ele>
        <time>2025-10-18T08:49:24Z</time>
      </trkpt>
      <trkpt lat="43.66711" lon="1.23354">
        <ele>175</ele>
        <time>2025-10-18T08:49:25Z</time>
      </trkpt>
      <trkpt lat="43.66706" lon="1.23357">
        <ele>175.6</ele>
        <time>2025-10-18T08:49:26Z</time>
      </trkpt>
      <trkpt lat="43.66702" lon="1.2336">
        <ele>176</ele>
        <time>2025-10-18T08:49:27Z</time>
      </trkpt>
      <trkpt lat="43.66697" lon="1.23363">
        <ele>176</ele>
        <time>2025-10-18T08:49:28Z</time>
      </trkpt>
      <trkpt lat="43.66692" lon="1.23365">
        <ele>176</ele>
        <time>2025-10-18T08:49:29Z</time>
      </trkpt>
      <trkpt lat="43.66688" lon="1.23368">
        <ele>176</ele>
        <time>2025-10-18T08:49:30Z</time>
      </trkpt>
      <trkpt lat="43.66683" lon="1.2337">
        <ele>176.2</ele>
        <time>2025-10-18T08:49:31Z</time>
      </trkpt>
      <trkpt lat="43.66678" lon="1.23372">
        <ele>176.4</ele>
        <time>2025-10-18T08:49:32Z</time>
      </trkpt>
      <trkpt lat="43.66674" lon="1.23375">
        <ele>176.6</ele>
        <time>2025-10-18T08:49:33Z</time>
      </trkpt>
      <trkpt lat="43.66669" lon="1.23377">
        <ele>176.8</ele>
        <time>2025-10-18T08:49:34Z</time>
      </trkpt>
      <trkpt lat="43.66665" lon="1.2338">
        <ele>177</ele>
        <time>2025-10-18T08:49:35Z</time>
      </trkpt>
      <trkpt lat="43.6666" lon="1.23383">
        <ele>177</ele>
        <time>2025-10-18T08:49:36Z</time>
      </trkpt>
      <trkpt lat="43.66655" lon="1.23386">
        <ele>177.2</ele>
        <time>2025-10-18T08:49:37Z</time>
      </trkpt>
      <trkpt lat="43.6665" lon="1.23388">
        <ele>177.2</ele>
        <time>2025-10-18T08:49:38Z</time>
      </trkpt>
      <trkpt lat="43.66646" lon="1.23391">
        <ele>177.4</ele>
        <time>2025-10-18T08:49:39Z</time>
      </trkpt>
      <trkpt lat="43.66641" lon="1.23394">
        <ele>177.4</ele>
        <time>2025-10-18T08:49:40Z</time>
      </trkpt>
      <trkpt lat="43.66636" lon="1.23396">
        <ele>177.6</ele>
        <time>2025-10-18T08:49:41Z</time>
      </trkpt>
      <trkpt lat="43.66631" lon="1.23399">
        <ele>177.8</ele>
        <time>2025-10-18T08:49:42Z</time>
      </trkpt>
      <trkpt lat="43.66627" lon="1.23402">
        <ele>177.8</ele>
        <time>2025-10-18T08:49:43Z</time>
      </trkpt>
      <trkpt lat="43.66622" lon="1.23404">
        <ele>178</ele>
        <time>2025-10-18T08:49:44Z</time>
      </trkpt>
      <trkpt lat="43.66618" lon="1.23406">
        <ele>178.2</ele>
        <time>2025-10-18T08:49:45Z</time>
      </trkpt>
      <trkpt lat="43.66613" lon="1.23409">
        <ele>178.4</ele>
        <time>2025-10-18T08:49:46Z</time>
      </trkpt>
      <trkpt lat="43.66609" lon="1.23412">
        <ele>178.6</ele>
        <time>2025-10-18T08:49:47Z</time>
      </trkpt>
      <trkpt lat="43.66605" lon="1.23414">
        <ele>178.8</ele>
        <time>2025-10-18T08:49:48Z</time>
      </trkpt>
      <trkpt lat="43.66601" lon="1.23417">
        <ele>179</ele>
        <time>2025-10-18T08:49:49Z</time>
      </trkpt>
      <trkpt lat="43.66597" lon="1.2342">
        <ele>179</ele>
        <time>2025-10-18T08:49:50Z</time>
      </trkpt>
      <trkpt lat="43.66592" lon="1.23422">
        <ele>179.2</ele>
        <time>2025-10-18T08:49:51Z</time>
      </trkpt>
      <trkpt lat="43.66588" lon="1.23423">
        <ele>179.2</ele>
        <time>2025-10-18T08:49:52Z</time>
      </trkpt>
      <trkpt lat="43.66584" lon="1.23425">
        <ele>179.2</ele>
        <time>2025-10-18T08:49:53Z</time>
      </trkpt>
      <trkpt lat="43.6658" lon="1.23427">
        <ele>179.4</ele>
        <time>2025-10-18T08:49:54Z</time>
      </trkpt>
      <trkpt lat="43.66576" lon="1.2343">
        <ele>179.4</ele>
        <time>2025-10-18T08:49:55Z</time>
      </trkpt>
      <trkpt lat="43.66571" lon="1.23432">
        <ele>179.4</ele>
        <time>2025-10-18T08:49:56Z</time>
      </trkpt>
      <trkpt lat="43.66567" lon="1.23435">
        <ele>179.6</ele>
        <time>2025-10-18T08:49:57Z</time>
      </trkpt>
      <trkpt lat="43.66562" lon="1.23437">
        <ele>179.6</ele>
        <time>2025-10-18T08:49:58Z</time>
      </trkpt>
      <trkpt lat="43.66558" lon="1.2344">
        <ele>179.8</ele>
        <time>2025-10-18T08:49:59Z</time>
      </trkpt>
      <trkpt lat="43.66553" lon="1.23442">
        <ele>179.8</ele>
        <time>2025-10-18T08:50:00Z</time>
      </trkpt>
      <trkpt lat="43.66548" lon="1.23445">
        <ele>179.8</ele>
        <time>2025-10-18T08:50:01Z</time>
      </trkpt>
      <trkpt lat="43.66543" lon="1.23447">
        <ele>179.8</ele>
        <time>2025-10-18T08:50:02Z</time>
      </trkpt>
      <trkpt lat="43.66539" lon="1.2345">
        <ele>179.8</ele>
        <time>2025-10-18T08:50:03Z</time>
      </trkpt>
      <trkpt lat="43.66534" lon="1.23453">
        <ele>179.8</ele>
        <time>2025-10-18T08:50:04Z</time>
      </trkpt>
      <trkpt lat="43.66529" lon="1.23455">
        <ele>180</ele>
        <time>2025-10-18T08:50:05Z</time>
      </trkpt>
      <trkpt lat="43.66524" lon="1.23459">
        <ele>180.2</ele>
        <time>2025-10-18T08:50:06Z</time>
      </trkpt>
      <trkpt lat="43.6652" lon="1.23462">
        <ele>180.4</ele>
        <time>2025-10-18T08:50:07Z</time>
      </trkpt>
      <trkpt lat="43.66515" lon="1.23465">
        <ele>180.6</ele>
        <time>2025-10-18T08:50:08Z</time>
      </trkpt>
      <trkpt lat="43.6651" lon="1.23467">
        <ele>180.8</ele>
        <time>2025-10-18T08:50:09Z</time>
      </trkpt>
      <trkpt lat="43.66505" lon="1.2347">
        <ele>181</ele>
        <time>2025-10-18T08:50:10Z</time>
      </trkpt>
      <trkpt lat="43.66501" lon="1.23472">
        <ele>181</ele>
        <time>2025-10-18T08:50:11Z</time>
      </trkpt>
      <trkpt lat="43.66496" lon="1.23475">
        <ele>181.2</ele>
        <time>2025-10-18T08:50:12Z</time>
      </trkpt>
      <trkpt lat="43.66491" lon="1.23477">
        <ele>181.4</ele>
        <time>2025-10-18T08:50:13Z</time>
      </trkpt>
      <trkpt lat="43.66486" lon="1.23479">
        <ele>181.6</ele>
        <time>2025-10-18T08:50:14Z</time>
      </trkpt>
      <trkpt lat="43.66482" lon="1.23482">
        <ele>181.6</ele>
        <time>2025-10-18T08:50:15Z</time>
      </trkpt>
      <trkpt lat="43.66477" lon="1.23484">
        <ele>181.6</ele>
        <time>2025-10-18T08:50:16Z</time>
      </trkpt>
      <trkpt lat="43.66472" lon="1.23487">
        <ele>181.8</ele>
        <time>2025-10-18T08:50:17Z</time>
      </trkpt>
      <trkpt lat="43.66468" lon="1.23489">
        <ele>181.8</ele>
        <time>2025-10-18T08:50:18Z</time>
      </trkpt>
      <trkpt lat="43.66463" lon="1.23492">
        <ele>181.8</ele>
        <time>2025-10-18T08:50:19Z</time>
      </trkpt>
      <trkpt lat="43.66458" lon="1.23495">
        <ele>181.8</ele>
        <time>2025-10-18T08:50:20Z</time>
      </trkpt>
      <trkpt lat="43.66453" lon="1.23498">
        <ele>182</ele>
        <time>2025-10-18T08:50:21Z</time>
      </trkpt>
      <trkpt lat="43.66449" lon="1.235">
        <ele>182</ele>
        <time>2025-10-18T08:50:22Z</time>
      </trkpt>
      <trkpt lat="43.66444" lon="1.23503">
        <ele>182.2</ele>
        <time>2025-10-18T08:50:23Z</time>
      </trkpt>
      <trkpt lat="43.66439" lon="1.23506">
        <ele>182.4</ele>
        <time>2025-10-18T08:50:24Z</time>
      </trkpt>
      <trkpt lat="43.66435" lon="1.23509">
        <ele>182.6</ele>
        <time>2025-10-18T08:50:25Z</time>
      </trkpt>
      <trkpt lat="43.6643" lon="1.23511">
        <ele>182.8</ele>
        <time>2025-10-18T08:50:26Z</time>
      </trkpt>
      <trkpt lat="43.66425" lon="1.23514">
        <ele>183</ele>
        <time>2025-10-18T08:50:27Z</time>
      </trkpt>
      <trkpt lat="43.6642" lon="1.23517">
        <ele>183.2</ele>
        <time>2025-10-18T08:50:28Z</time>
      </trkpt>
      <trkpt lat="43.66415" lon="1.2352">
        <ele>183.2</ele>
        <time>2025-10-18T08:50:29Z</time>
      </trkpt>
      <trkpt lat="43.6641" lon="1.23523">
        <ele>183.4</ele>
        <time>2025-10-18T08:50:30Z</time>
      </trkpt>
      <trkpt lat="43.66405" lon="1.23526">
        <ele>183.4</ele>
        <time>2025-10-18T08:50:31Z</time>
      </trkpt>
      <trkpt lat="43.664" lon="1.23528">
        <ele>183.6</ele>
        <time>2025-10-18T08:50:32Z</time>
      </trkpt>
      <trkpt lat="43.66395" lon="1.23531">
        <ele>183.6</ele>
        <time>2025-10-18T08:50:33Z</time>
      </trkpt>
      <trkpt lat="43.66391" lon="1.23534">
        <ele>183.6</ele>
        <time>2025-10-18T08:50:34Z</time>
      </trkpt>
      <trkpt lat="43.66386" lon="1.23536">
        <ele>183.6</ele>
        <time>2025-10-18T08:50:35Z</time>
      </trkpt>
      <trkpt lat="43.66382" lon="1.23538">
        <ele>183.6</ele>
        <time>2025-10-18T08:50:36Z</time>
      </trkpt>
      <trkpt lat="43.66379" lon="1.2354">
        <ele>183.6</ele>
        <time>2025-10-18T08:50:37Z</time>
      </trkpt>
      <trkpt lat="43.66375" lon="1.23541">
        <ele>183.6</ele>
        <time>2025-10-18T08:50:38Z</time>
      </trkpt>
      <trkpt lat="43.66371" lon="1.23542">
        <ele>183.8</ele>
        <time>2025-10-18T08:50:39Z</time>
      </trkpt>
      <trkpt lat="43.66368" lon="1.23544">
        <ele>184</ele>
        <time>2025-10-18T08:50:40Z</time>
      </trkpt>
      <trkpt lat="43.66366" lon="1.23546">
        <ele>184</ele>
        <time>2025-10-18T08:50:41Z</time>
      </trkpt>
      <trkpt lat="43.66367" lon="1.23549">
        <ele>184.2</ele>
        <time>2025-10-18T08:50:42Z</time>
      </trkpt>
      <trkpt lat="43.66367" lon="1.23552">
        <ele>184.4</ele>
        <time>2025-10-18T08:50:43Z</time>
      </trkpt>
      <trkpt lat="43.66364" lon="1.23553">
        <ele>184.6</ele>
        <time>2025-10-18T08:50:44Z</time>
      </trkpt>
      <trkpt lat="43.66362" lon="1.23553">
        <ele>184.8</ele>
        <time>2025-10-18T08:50:45Z</time>
      </trkpt>
      <trkpt lat="43.66359" lon="1.23554">
        <ele>184.8</ele>
        <time>2025-10-18T08:50:46Z</time>
      </trkpt>
      <trkpt lat="43.66356" lon="1.23555">
        <ele>184.8</ele>
        <time>2025-10-18T08:50:47Z</time>
      </trkpt>
      <trkpt lat="43.66352" lon="1.23556">
        <ele>184.6</ele>
        <time>2025-10-18T08:50:48Z</time>
      </trkpt>
      <trkpt lat="43.66348" lon="1.23557">
        <ele>184.6</ele>
        <time>2025-10-18T08:50:49Z</time>
      </trkpt>
      <trkpt lat="43.66343" lon="1.23559">
        <ele>184.6</ele>
        <time>2025-10-18T08:50:50Z</time>
      </trkpt>
      <trkpt lat="43.66339" lon="1.23561">
        <ele>184.6</ele>
        <time>2025-10-18T08:50:51Z</time>
      </trkpt>
      <trkpt lat="43.66335" lon="1.23564">
        <ele>184.6</ele>
        <time>2025-10-18T08:50:52Z</time>
      </trkpt>
      <trkpt lat="43.6633" lon="1.23567">
        <ele>184.6</ele>
        <time>2025-10-18T08:50:53Z</time>
      </trkpt>
      <trkpt lat="43.66325" lon="1.2357">
        <ele>184.8</ele>
        <time>2025-10-18T08:50:54Z</time>
      </trkpt>
      <trkpt lat="43.66321" lon="1.23572">
        <ele>184.8</ele>
        <time>2025-10-18T08:50:55Z</time>
      </trkpt>
      <trkpt lat="43.66316" lon="1.23575">
        <ele>184.6</ele>
        <time>2025-10-18T08:50:56Z</time>
      </trkpt>
      <trkpt lat="43.66311" lon="1.23577">
        <ele>184.6</ele>
        <time>2025-10-18T08:50:57Z</time>
      </trkpt>
      <trkpt lat="43.66306" lon="1.2358">
        <ele>184.6</ele>
        <time>2025-10-18T08:50:58Z</time>
      </trkpt>
      <trkpt lat="43.66301" lon="1.23583">
        <ele>184.6</ele>
        <time>2025-10-18T08:50:59Z</time>
      </trkpt>
      <trkpt lat="43.66296" lon="1.23586">
        <ele>184.6</ele>
        <time>2025-10-18T08:51:00Z</time>
      </trkpt>
      <trkpt lat="43.6629" lon="1.23589">
        <ele>184.6</ele>
        <time>2025-10-18T08:51:01Z</time>
      </trkpt>
      <trkpt lat="43.66285" lon="1.23592">
        <ele>184.6</ele>
        <time>2025-10-18T08:51:02Z</time>
      </trkpt>
      <trkpt lat="43.6628" lon="1.23595">
        <ele>184.8</ele>
        <time>2025-10-18T08:51:03Z</time>
      </trkpt>
      <trkpt lat="43.66274" lon="1.23598">
        <ele>184.8</ele>
        <time>2025-10-18T08:51:04Z</time>
      </trkpt>
      <trkpt lat="43.66269" lon="1.23601">
        <ele>184.8</ele>
        <time>2025-10-18T08:51:05Z</time>
      </trkpt>
      <trkpt lat="43.66263" lon="1.23604">
        <ele>184.8</ele>
        <time>2025-10-18T08:51:06Z</time>
      </trkpt>
      <trkpt lat="43.66257" lon="1.23608">
        <ele>184.8</ele>
        <time>2025-10-18T08:51:07Z</time>
      </trkpt>
      <trkpt lat="43.66252" lon="1.23611">
        <ele>184.8</ele>
        <time>2025-10-18T08:51:08Z</time>
      </trkpt>
      <trkpt lat="43.66246" lon="1.23614">
        <ele>184.6</ele>
        <time>2025-10-18T08:51:09Z</time>
      </trkpt>
      <trkpt lat="43.6624" lon="1.23617">
        <ele>184.6</ele>
        <time>2025-10-18T08:51:10Z</time>
      </trkpt>
      <trkpt lat="43.66235" lon="1.23621">
        <ele>184.6</ele>
        <time>2025-10-18T08:51:11Z</time>
      </trkpt>
      <trkpt lat="43.66229" lon="1.23625">
        <ele>184.6</ele>
        <time>2025-10-18T08:51:12Z</time>
      </trkpt>
      <trkpt lat="43.66223" lon="1.23628">
        <ele>184.8</ele>
        <time>2025-10-18T08:51:13Z</time>
      </trkpt>
      <trkpt lat="43.66218" lon="1.23632">
        <ele>184.8</ele>
        <time>2025-10-18T08:51:14Z</time>
      </trkpt>
      <trkpt lat="43.66213" lon="1.23636">
        <ele>185</ele>
        <time>2025-10-18T08:51:15Z</time>
      </trkpt>
      <trkpt lat="43.66208" lon="1.2364">
        <ele>185.2</ele>
        <time>2025-10-18T08:51:16Z</time>
      </trkpt>
      <trkpt lat="43.66203" lon="1.23645">
        <ele>185.4</ele>
        <time>2025-10-18T08:51:17Z</time>
      </trkpt>
      <trkpt lat="43.66199" lon="1.2365">
        <ele>185.6</ele>
        <time>2025-10-18T08:51:18Z</time>
      </trkpt>
      <trkpt lat="43.66195" lon="1.23656">
        <ele>185.8</ele>
        <time>2025-10-18T08:51:19Z</time>
      </trkpt>
      <trkpt lat="43.66192" lon="1.23661">
        <ele>186.2</ele>
        <time>2025-10-18T08:51:20Z</time>
      </trkpt>
      <trkpt lat="43.6619" lon="1.23666">
        <ele>186.4</ele>
        <time>2025-10-18T08:51:21Z</time>
      </trkpt>
      <trkpt lat="43.66188" lon="1.23672">
        <ele>186.6</ele>
        <time>2025-10-18T08:51:22Z</time>
      </trkpt>
      <trkpt lat="43.66185" lon="1.23677">
        <ele>186.8</ele>
        <time>2025-10-18T08:51:23Z</time>
      </trkpt>
      <trkpt lat="43.66184" lon="1.23683">
        <ele>186.8</ele>
        <time>2025-10-18T08:51:24Z</time>
      </trkpt>
      <trkpt lat="43.66182" lon="1.23689">
        <ele>187</ele>
        <time>2025-10-18T08:51:25Z</time>
      </trkpt>
      <trkpt lat="43.66181" lon="1.23695">
        <ele>187</ele>
        <time>2025-10-18T08:51:26Z</time>
      </trkpt>
      <trkpt lat="43.66179" lon="1.23702">
        <ele>186.8</ele>
        <time>2025-10-18T08:51:27Z</time>
      </trkpt>
      <trkpt lat="43.66178" lon="1.23709">
        <ele>186.8</ele>
        <time>2025-10-18T08:51:28Z</time>
      </trkpt>
      <trkpt lat="43.66177" lon="1.23715">
        <ele>186.8</ele>
        <time>2025-10-18T08:51:29Z</time>
      </trkpt>
      <trkpt lat="43.66177" lon="1.23721">
        <ele>186.8</ele>
        <time>2025-10-18T08:51:30Z</time>
      </trkpt>
      <trkpt lat="43.66177" lon="1.23727">
        <ele>186.8</ele>
        <time>2025-10-18T08:51:31Z</time>
      </trkpt>
      <trkpt lat="43.66177" lon="1.23732">
        <ele>187</ele>
        <time>2025-10-18T08:51:32Z</time>
      </trkpt>
      <trkpt lat="43.66178" lon="1.23737">
        <ele>187.2</ele>
        <time>2025-10-18T08:51:33Z</time>
      </trkpt>
      <trkpt lat="43.66179" lon="1.23742">
        <ele>187.4</ele>
        <time>2025-10-18T08:51:34Z</time>
      </trkpt>
      <trkpt lat="43.6618" lon="1.23745">
        <ele>187.4</ele>
        <time>2025-10-18T08:51:35Z</time>
      </trkpt>
      <trkpt lat="43.6618" lon="1.23749">
        <ele>187.6</ele>
        <time>2025-10-18T08:51:36Z</time>
      </trkpt>
      <trkpt lat="43.6618" lon="1.23751">
        <ele>187.6</ele>
        <time>2025-10-18T08:51:37Z</time>
      </trkpt>
      <trkpt lat="43.66179" lon="1.23754">
        <ele>187.8</ele>
        <time>2025-10-18T08:51:38Z</time>
      </trkpt>
      <trkpt lat="43.66178" lon="1.23755">
        <ele>187.8</ele>
        <time>2025-10-18T08:51:39Z</time>
      </trkpt>
      <trkpt lat="43.66178" lon="1.23754">
        <ele>188</ele>
        <time>2025-10-18T08:51:40Z</time>
      </trkpt>
      <trkpt lat="43.66178" lon="1.23755">
        <ele>188</ele>
        <time>2025-10-18T08:51:41Z</time>
      </trkpt>
      <trkpt lat="43.66177" lon="1.23756">
        <ele>188</ele>
        <time>2025-10-18T08:51:42Z</time>
      </trkpt>
      <trkpt lat="43.66177" lon="1.23757">
        <ele>188</ele>
        <time>2025-10-18T08:51:43Z</time>
      </trkpt>
      <trkpt lat="43.66176" lon="1.23756">
        <ele>188</ele>
        <time>2025-10-18T08:51:44Z</time>
      </trkpt>
      <trkpt lat="43.66174" lon="1.23756">
        <ele>188</ele>
        <time>2025-10-18T08:51:45Z</time>
      </trkpt>
      <trkpt lat="43.66173" lon="1.23756">
        <ele>188</ele>
        <time>2025-10-18T08:51:46Z</time>
      </trkpt>
      <trkpt lat="43.66172" lon="1.23757">
        <ele>188.2</ele>
        <time>2025-10-18T08:51:47Z</time>
      </trkpt>
      <trkpt lat="43.6617" lon="1.23757">
        <ele>188</ele>
        <time>2025-10-18T08:51:48Z</time>
      </trkpt>
      <trkpt lat="43.66169" lon="1.23758">
        <ele>188</ele>
        <time>2025-10-18T08:51:49Z</time>
      </trkpt>
      <trkpt lat="43.66168" lon="1.23757">
        <ele>188</ele>
        <time>2025-10-18T08:51:50Z</time>
      </trkpt>
      <trkpt lat="43.66167" lon="1.23757">
        <ele>188</ele>
        <time>2025-10-18T08:51:51Z</time>
      </trkpt>
      <trkpt lat="43.66166" lon="1.23757">
        <ele>188.2</ele>
        <time>2025-10-18T08:51:52Z</time>
      </trkpt>
      <trkpt lat="43.66164" lon="1.23757">
        <ele>188.2</ele>
        <time>2025-10-18T08:51:53Z</time>
      </trkpt>
      <trkpt lat="43.66162" lon="1.23756">
        <ele>188.2</ele>
        <time>2025-10-18T08:51:54Z</time>
      </trkpt>
      <trkpt lat="43.66161" lon="1.23756">
        <ele>188.2</ele>
        <time>2025-10-18T08:51:55Z</time>
      </trkpt>
      <trkpt lat="43.66159" lon="1.23758">
        <ele>188.4</ele>
        <time>2025-10-18T08:51:56Z</time>
      </trkpt>
      <trkpt lat="43.66157" lon="1.23759">
        <ele>188.4</ele>
        <time>2025-10-18T08:51:57Z</time>
      </trkpt>
      <trkpt lat="43.66155" lon="1.2376">
        <ele>188.4</ele>
        <time>2025-10-18T08:51:58Z</time>
      </trkpt>
      <trkpt lat="43.66153" lon="1.23761">
        <ele>188.4</ele>
        <time>2025-10-18T08:51:59Z</time>
      </trkpt>
      <trkpt lat="43.66151" lon="1.23762">
        <ele>188.4</ele>
        <time>2025-10-18T08:52:00Z</time>
      </trkpt>
      <trkpt lat="43.66148" lon="1.23764">
        <ele>188.2</ele>
        <time>2025-10-18T08:52:01Z</time>
      </trkpt>
      <trkpt lat="43.66147" lon="1.23767">
        <ele>188.2</ele>
        <time>2025-10-18T08:52:02Z</time>
      </trkpt>
      <trkpt lat="43.66145" lon="1.2377">
        <ele>188.2</ele>
        <time>2025-10-18T08:52:03Z</time>
      </trkpt>
      <trkpt lat="43.66143" lon="1.23774">
        <ele>188</ele>
        <time>2025-10-18T08:52:04Z</time>
      </trkpt>
      <trkpt lat="43.66141" lon="1.23776">
        <ele>188</ele>
        <time>2025-10-18T08:52:05Z</time>
      </trkpt>
      <trkpt lat="43.66137" lon="1.23779">
        <ele>188</ele>
        <time>2025-10-18T08:52:06Z</time>
      </trkpt>
      <trkpt lat="43.66134" lon="1.2378">
        <ele>188</ele>
        <time>2025-10-18T08:52:07Z</time>
      </trkpt>
      <trkpt lat="43.6613" lon="1.23779">
        <ele>188</ele>
        <time>2025-10-18T08:52:08Z</time>
      </trkpt>
      <trkpt lat="43.66126" lon="1.2378">
        <ele>187.8</ele>
        <time>2025-10-18T08:52:09Z</time>
      </trkpt>
      <trkpt lat="43.66122" lon="1.23781">
        <ele>187.8</ele>
        <time>2025-10-18T08:52:10Z</time>
      </trkpt>
      <trkpt lat="43.66117" lon="1.23782">
        <ele>187.8</ele>
        <time>2025-10-18T08:52:11Z</time>
      </trkpt>
      <trkpt lat="43.66112" lon="1.23783">
        <ele>187.6</ele>
        <time>2025-10-18T08:52:12Z</time>
      </trkpt>
      <trkpt lat="43.66108" lon="1.23783">
        <ele>187.6</ele>
        <time>2025-10-18T08:52:13Z</time>
      </trkpt>
      <trkpt lat="43.66104" lon="1.23783">
        <ele>187.6</ele>
        <time>2025-10-18T08:52:14Z</time>
      </trkpt>
      <trkpt lat="43.66099" lon="1.23783">
        <ele>187.6</ele>
        <time>2025-10-18T08:52:15Z</time>
      </trkpt>
      <trkpt lat="43.66095" lon="1.23782">
        <ele>187.4</ele>
        <time>2025-10-18T08:52:16Z</time>
      </trkpt>
      <trkpt lat="43.6609" lon="1.23781">
        <ele>187.6</ele>
        <time>2025-10-18T08:52:17Z</time>
      </trkpt>
      <trkpt lat="43.66084" lon="1.2378">
        <ele>187.6</ele>
        <time>2025-10-18T08:52:18Z</time>
      </trkpt>
      <trkpt lat="43.66079" lon="1.23777">
        <ele>187.6</ele>
        <time>2025-10-18T08:52:19Z</time>
      </trkpt>
      <trkpt lat="43.66074" lon="1.23773">
        <ele>187.6</ele>
        <time>2025-10-18T08:52:20Z</time>
      </trkpt>
      <trkpt lat="43.66069" lon="1.2377">
        <ele>187.6</ele>
        <time>2025-10-18T08:52:21Z</time>
      </trkpt>
      <trkpt lat="43.66065" lon="1.23766">
        <ele>187.6</ele>
        <time>2025-10-18T08:52:22Z</time>
      </trkpt>
      <trkpt lat="43.6606" lon="1.23762">
        <ele>187.6</ele>
        <time>2025-10-18T08:52:23Z</time>
      </trkpt>
      <trkpt lat="43.66055" lon="1.23758">
        <ele>187.6</ele>
        <time>2025-10-18T08:52:24Z</time>
      </trkpt>
      <trkpt lat="43.6605" lon="1.23755">
        <ele>187.4</ele>
        <time>2025-10-18T08:52:25Z</time>
      </trkpt>
      <trkpt lat="43.66045" lon="1.23752">
        <ele>187.4</ele>
        <time>2025-10-18T08:52:26Z</time>
      </trkpt>
      <trkpt lat="43.6604" lon="1.23749">
        <ele>187.2</ele>
        <time>2025-10-18T08:52:27Z</time>
      </trkpt>
      <trkpt lat="43.66034" lon="1.23747">
        <ele>187.2</ele>
        <time>2025-10-18T08:52:28Z</time>
      </trkpt>
      <trkpt lat="43.66029" lon="1.23744">
        <ele>187</ele>
        <time>2025-10-18T08:52:29Z</time>
      </trkpt>
      <trkpt lat="43.66024" lon="1.23741">
        <ele>186.8</ele>
        <time>2025-10-18T08:52:30Z</time>
      </trkpt>
      <trkpt lat="43.6602" lon="1.23736">
        <ele>186.8</ele>
        <time>2025-10-18T08:52:31Z</time>
      </trkpt>
      <trkpt lat="43.66016" lon="1.23731">
        <ele>186.6</ele>
        <time>2025-10-18T08:52:32Z</time>
      </trkpt>
      <trkpt lat="43.66011" lon="1.23726">
        <ele>186.8</ele>
        <time>2025-10-18T08:52:33Z</time>
      </trkpt>
      <trkpt lat="43.66006" lon="1.23721">
        <ele>186.8</ele>
        <time>2025-10-18T08:52:34Z</time>
      </trkpt>
      <trkpt lat="43.66001" lon="1.23716">
        <ele>187</ele>
        <time>2025-10-18T08:52:35Z</time>
      </trkpt>
      <trkpt lat="43.65997" lon="1.23711">
        <ele>187</ele>
        <time>2025-10-18T08:52:36Z</time>
      </trkpt>
      <trkpt lat="43.65993" lon="1.23706">
        <ele>187.2</ele>
        <time>2025-10-18T08:52:37Z</time>
      </trkpt>
      <trkpt lat="43.65989" lon="1.237">
        <ele>187.4</ele>
        <time>2025-10-18T08:52:38Z</time>
      </trkpt>
      <trkpt lat="43.65986" lon="1.23695">
        <ele>187.4</ele>
        <time>2025-10-18T08:52:39Z</time>
      </trkpt>
      <trkpt lat="43.65982" lon="1.2369">
        <ele>187.6</ele>
        <time>2025-10-18T08:52:40Z</time>
      </trkpt>
      <trkpt lat="43.65977" lon="1.23685">
        <ele>187.8</ele>
        <time>2025-10-18T08:52:41Z</time>
      </trkpt>
      <trkpt lat="43.65973" lon="1.23681">
        <ele>188</ele>
        <time>2025-10-18T08:52:42Z</time>
      </trkpt>
      <trkpt lat="43.65968" lon="1.23676">
        <ele>188.2</ele>
        <time>2025-10-18T08:52:43Z</time>
      </trkpt>
      <trkpt lat="43.65964" lon="1.23672">
        <ele>188.4</ele>
        <time>2025-10-18T08:52:44Z</time>
      </trkpt>
      <trkpt lat="43.6596" lon="1.23668">
        <ele>188.4</ele>
        <time>2025-10-18T08:52:45Z</time>
      </trkpt>
      <trkpt lat="43.65956" lon="1.23663">
        <ele>188.6</ele>
        <time>2025-10-18T08:52:46Z</time>
      </trkpt>
      <trkpt lat="43.65953" lon="1.23658">
        <ele>188.8</ele>
        <time>2025-10-18T08:52:47Z</time>
      </trkpt>
      <trkpt lat="43.6595" lon="1.23653">
        <ele>188.8</ele>
        <time>2025-10-18T08:52:48Z</time>
      </trkpt>
      <trkpt lat="43.65947" lon="1.23648">
        <ele>188.8</ele>
        <time>2025-10-18T08:52:49Z</time>
      </trkpt>
      <trkpt lat="43.65942" lon="1.23644">
        <ele>189</ele>
        <time>2025-10-18T08:52:50Z</time>
      </trkpt>
      <trkpt lat="43.65938" lon="1.2364">
        <ele>189</ele>
        <time>2025-10-18T08:52:51Z</time>
      </trkpt>
      <trkpt lat="43.65933" lon="1.23638">
        <ele>189</ele>
        <time>2025-10-18T08:52:52Z</time>
      </trkpt>
      <trkpt lat="43.65928" lon="1.23636">
        <ele>189</ele>
        <time>2025-10-18T08:52:53Z</time>
      </trkpt>
      <trkpt lat="43.65923" lon="1.23634">
        <ele>189.2</ele>
        <time>2025-10-18T08:52:54Z</time>
      </trkpt>
      <trkpt lat="43.65918" lon="1.23631">
        <ele>189.2</ele>
        <time>2025-10-18T08:52:55Z</time>
      </trkpt>
      <trkpt lat="43.65913" lon="1.23628">
        <ele>189.2</ele>
        <time>2025-10-18T08:52:56Z</time>
      </trkpt>
      <trkpt lat="43.65908" lon="1.23625">
        <ele>189.2</ele>
        <time>2025-10-18T08:52:57Z</time>
      </trkpt>
      <trkpt lat="43.65904" lon="1.2362">
        <ele>189.2</ele>
        <time>2025-10-18T08:52:58Z</time>
      </trkpt>
      <trkpt lat="43.659" lon="1.23616">
        <ele>189.2</ele>
        <time>2025-10-18T08:52:59Z</time>
      </trkpt>
      <trkpt lat="43.65897" lon="1.23611">
        <ele>189.2</ele>
        <time>2025-10-18T08:53:00Z</time>
      </trkpt>
      <trkpt lat="43.65893" lon="1.23606">
        <ele>189.2</ele>
        <time>2025-10-18T08:53:01Z</time>
      </trkpt>
      <trkpt lat="43.65889" lon="1.23602">
        <ele>189.2</ele>
        <time>2025-10-18T08:53:02Z</time>
      </trkpt>
      <trkpt lat="43.65884" lon="1.23598">
        <ele>189.2</ele>
        <time>2025-10-18T08:53:03Z</time>
      </trkpt>
      <trkpt lat="43.65879" lon="1.23594">
        <ele>189</ele>
        <time>2025-10-18T08:53:04Z</time>
      </trkpt>
      <trkpt lat="43.65875" lon="1.23591">
        <ele>189</ele>
        <time>2025-10-18T08:53:05Z</time>
      </trkpt>
      <trkpt lat="43.6587" lon="1.23587">
        <ele>189.2</ele>
        <time>2025-10-18T08:53:06Z</time>
      </trkpt>
      <trkpt lat="43.65865" lon="1.23583">
        <ele>189.2</ele>
        <time>2025-10-18T08:53:07Z</time>
      </trkpt>
      <trkpt lat="43.65862" lon="1.23577">
        <ele>189.2</ele>
        <time>2025-10-18T08:53:08Z</time>
      </trkpt>
      <trkpt lat="43.65858" lon="1.23572">
        <ele>189.2</ele>
        <time>2025-10-18T08:53:09Z</time>
      </trkpt>
      <trkpt lat="43.65853" lon="1.23566">
        <ele>189</ele>
        <time>2025-10-18T08:53:10Z</time>
      </trkpt>
      <trkpt lat="43.6585" lon="1.2356">
        <ele>189</ele>
        <time>2025-10-18T08:53:11Z</time>
      </trkpt>
      <trkpt lat="43.65845" lon="1.23555">
        <ele>189</ele>
        <time>2025-10-18T08:53:12Z</time>
      </trkpt>
      <trkpt lat="43.65841" lon="1.2355">
        <ele>189</ele>
        <time>2025-10-18T08:53:13Z</time>
      </trkpt>
      <trkpt lat="43.65836" lon="1.23544">
        <ele>189</ele>
        <time>2025-10-18T08:53:14Z</time>
      </trkpt>
      <trkpt lat="43.65832" lon="1.23539">
        <ele>189.2</ele>
        <time>2025-10-18T08:53:15Z</time>
      </trkpt>
      <trkpt lat="43.65827" lon="1.23534">
        <ele>189.2</ele>
        <time>2025-10-18T08:53:16Z</time>
      </trkpt>
      <trkpt lat="43.65824" lon="1.23527">
        <ele>189.2</ele>
        <time>2025-10-18T08:53:17Z</time>
      </trkpt>
      <trkpt lat="43.6582" lon="1.23522">
        <ele>189.2</ele>
        <time>2025-10-18T08:53:18Z</time>
      </trkpt>
      <trkpt lat="43.65815" lon="1.23516">
        <ele>189.2</ele>
        <time>2025-10-18T08:53:19Z</time>
      </trkpt>
      <trkpt lat="43.65811" lon="1.2351">
        <ele>189.2</ele>
        <time>2025-10-18T08:53:20Z</time>
      </trkpt>
      <trkpt lat="43.65808" lon="1.23505">
        <ele>189.2</ele>
        <time>2025-10-18T08:53:21Z</time>
      </trkpt>
      <trkpt lat="43.65804" lon="1.23499">
        <ele>189.2</ele>
        <time>2025-10-18T08:53:22Z</time>
      </trkpt>
      <trkpt lat="43.658" lon="1.23494">
        <ele>189.2</ele>
        <time>2025-10-18T08:53:23Z</time>
      </trkpt>
      <trkpt lat="43.65796" lon="1.23488">
        <ele>189.4</ele>
        <time>2025-10-18T08:53:24Z</time>
      </trkpt>
      <trkpt lat="43.65793" lon="1.23482">
        <ele>189.4</ele>
        <time>2025-10-18T08:53:25Z</time>
      </trkpt>
      <trkpt lat="43.6579" lon="1.23476">
        <ele>189.2</ele>
        <time>2025-10-18T08:53:26Z</time>
      </trkpt>
      <trkpt lat="43.65786" lon="1.2347">
        <ele>189.2</ele>
        <time>2025-10-18T08:53:27Z</time>
      </trkpt>
      <trkpt lat="43.65782" lon="1.23465">
        <ele>189.2</ele>
        <time>2025-10-18T08:53:28Z</time>
      </trkpt>
      <trkpt lat="43.6578" lon="1.2346">
        <ele>189.2</ele>
        <time>2025-10-18T08:53:29Z</time>
      </trkpt>
      <trkpt lat="43.65776" lon="1.23454">
        <ele>189.2</ele>
        <time>2025-10-18T08:53:30Z</time>
      </trkpt>
      <trkpt lat="43.65772" lon="1.23449">
        <ele>189.2</ele>
        <time>2025-10-18T08:53:31Z</time>
      </trkpt>
      <trkpt lat="43.65769" lon="1.23443">
        <ele>189.4</ele>
        <time>2025-10-18T08:53:32Z</time>
      </trkpt>
      <trkpt lat="43.65765" lon="1.23438">
        <ele>189.4</ele>
        <time>2025-10-18T08:53:33Z</time>
      </trkpt>
      <trkpt lat="43.65761" lon="1.23433">
        <ele>189.4</ele>
        <time>2025-10-18T08:53:34Z</time>
      </trkpt>
      <trkpt lat="43.65757" lon="1.23428">
        <ele>189.4</ele>
        <time>2025-10-18T08:53:35Z</time>
      </trkpt>
      <trkpt lat="43.65753" lon="1.23424">
        <ele>189.4</ele>
        <time>2025-10-18T08:53:36Z</time>
      </trkpt>
      <trkpt lat="43.65749" lon="1.2342">
        <ele>189.6</ele>
        <time>2025-10-18T08:53:37Z</time>
      </trkpt>
      <trkpt lat="43.65745" lon="1.23416">
        <ele>189.8</ele>
        <time>2025-10-18T08:53:38Z</time>
      </trkpt>
      <trkpt lat="43.65742" lon="1.2341">
        <ele>189.8</ele>
        <time>2025-10-18T08:53:39Z</time>
      </trkpt>
      <trkpt lat="43.65738" lon="1.23405">
        <ele>189.8</ele>
        <time>2025-10-18T08:53:40Z</time>
      </trkpt>
      <trkpt lat="43.65735" lon="1.23399">
        <ele>189.8</ele>
        <time>2025-10-18T08:53:41Z</time>
      </trkpt>
      <trkpt lat="43.65731" lon="1.23394">
        <ele>189.8</ele>
        <time>2025-10-18T08:53:42Z</time>
      </trkpt>
      <trkpt lat="43.65727" lon="1.23389">
        <ele>189.8</ele>
        <time>2025-10-18T08:53:43Z</time>
      </trkpt>
      <trkpt lat="43.65724" lon="1.23384">
        <ele>189.8</ele>
        <time>2025-10-18T08:53:44Z</time>
      </trkpt>
      <trkpt lat="43.6572" lon="1.23378">
        <ele>189.8</ele>
        <time>2025-10-18T08:53:45Z</time>
      </trkpt>
      <trkpt lat="43.65716" lon="1.23372">
        <ele>190</ele>
        <time>2025-10-18T08:53:46Z</time>
      </trkpt>
      <trkpt lat="43.65711" lon="1.23367">
        <ele>190</ele>
        <time>2025-10-18T08:53:47Z</time>
      </trkpt>
      <trkpt lat="43.65707" lon="1.23361">
        <ele>190.2</ele>
        <time>2025-10-18T08:53:48Z</time>
      </trkpt>
      <trkpt lat="43.65703" lon="1.23356">
        <ele>190.2</ele>
        <time>2025-10-18T08:53:49Z</time>
      </trkpt>
      <trkpt lat="43.65699" lon="1.23351">
        <ele>190.4</ele>
        <time>2025-10-18T08:53:50Z</time>
      </trkpt>
      <trkpt lat="43.65696" lon="1.23346">
        <ele>190.6</ele>
        <time>2025-10-18T08:53:51Z</time>
      </trkpt>
      <trkpt lat="43.65693" lon="1.23341">
        <ele>190.6</ele>
        <time>2025-10-18T08:53:52Z</time>
      </trkpt>
      <trkpt lat="43.65689" lon="1.23336">
        <ele>190.8</ele>
        <time>2025-10-18T08:53:53Z</time>
      </trkpt>
      <trkpt lat="43.65685" lon="1.23331">
        <ele>190.6</ele>
        <time>2025-10-18T08:53:54Z</time>
      </trkpt>
      <trkpt lat="43.65682" lon="1.23326">
        <ele>190.6</ele>
        <time>2025-10-18T08:53:55Z</time>
      </trkpt>
      <trkpt lat="43.65679" lon="1.23321">
        <ele>190.6</ele>
        <time>2025-10-18T08:53:56Z</time>
      </trkpt>
      <trkpt lat="43.65676" lon="1.23315">
        <ele>190.6</ele>
        <time>2025-10-18T08:53:57Z</time>
      </trkpt>
      <trkpt lat="43.65673" lon="1.2331">
        <ele>190.6</ele>
        <time>2025-10-18T08:53:58Z</time>
      </trkpt>
      <trkpt lat="43.6567" lon="1.23305">
        <ele>190.8</ele>
        <time>2025-10-18T08:53:59Z</time>
      </trkpt>
      <trkpt lat="43.65667" lon="1.23299">
        <ele>190.8</ele>
        <time>2025-10-18T08:54:00Z</time>
      </trkpt>
      <trkpt lat="43.65665" lon="1.23293">
        <ele>190.8</ele>
        <time>2025-10-18T08:54:01Z</time>
      </trkpt>
      <trkpt lat="43.65663" lon="1.23287">
        <ele>191</ele>
        <time>2025-10-18T08:54:02Z</time>
      </trkpt>
      <trkpt lat="43.65662" lon="1.23281">
        <ele>191.2</ele>
        <time>2025-10-18T08:54:03Z</time>
      </trkpt>
      <trkpt lat="43.6566" lon="1.23275">
        <ele>191.2</ele>
        <time>2025-10-18T08:54:04Z</time>
      </trkpt>
      <trkpt lat="43.65658" lon="1.23269">
        <ele>191.2</ele>
        <time>2025-10-18T08:54:05Z</time>
      </trkpt>
      <trkpt lat="43.65656" lon="1.23263">
        <ele>191.2</ele>
        <time>2025-10-18T08:54:06Z</time>
      </trkpt>
      <trkpt lat="43.65652" lon="1.23257">
        <ele>191.2</ele>
        <time>2025-10-18T08:54:07Z</time>
      </trkpt>
      <trkpt lat="43.65649" lon="1.2325">
        <ele>191</ele>
        <time>2025-10-18T08:54:08Z</time>
      </trkpt>
      <trkpt lat="43.65646" lon="1.23244">
        <ele>190.8</ele>
        <time>2025-10-18T08:54:09Z</time>
      </trkpt>
      <trkpt lat="43.65642" lon="1.23236">
        <ele>190.6</ele>
        <time>2025-10-18T08:54:10Z</time>
      </trkpt>
      <trkpt lat="43.65639" lon="1.23229">
        <ele>190.4</ele>
        <time>2025-10-18T08:54:11Z</time>
      </trkpt>
      <trkpt lat="43.65635" lon="1.23222">
        <ele>190.4</ele>
        <time>2025-10-18T08:54:12Z</time>
      </trkpt>
      <trkpt lat="43.65631" lon="1.23215">
        <ele>190.2</ele>
        <time>2025-10-18T08:54:13Z</time>
      </trkpt>
      <trkpt lat="43.65627" lon="1.23208">
        <ele>190</ele>
        <time>2025-10-18T08:54:14Z</time>
      </trkpt>
      <trkpt lat="43.65624" lon="1.23201">
        <ele>190</ele>
        <time>2025-10-18T08:54:15Z</time>
      </trkpt>
      <trkpt lat="43.65621" lon="1.23194">
        <ele>190</ele>
        <time>2025-10-18T08:54:16Z</time>
      </trkpt>
      <trkpt lat="43.65618" lon="1.23187">
        <ele>190</ele>
        <time>2025-10-18T08:54:17Z</time>
      </trkpt>
      <trkpt lat="43.65615" lon="1.2318">
        <ele>190</ele>
        <time>2025-10-18T08:54:18Z</time>
      </trkpt>
      <trkpt lat="43.65612" lon="1.23172">
        <ele>190</ele>
        <time>2025-10-18T08:54:19Z</time>
      </trkpt>
      <trkpt lat="43.6561" lon="1.23164">
        <ele>190</ele>
        <time>2025-10-18T08:54:20Z</time>
      </trkpt>
      <trkpt lat="43.65607" lon="1.23157">
        <ele>190</ele>
        <time>2025-10-18T08:54:21Z</time>
      </trkpt>
      <trkpt lat="43.65604" lon="1.2315">
        <ele>190</ele>
        <time>2025-10-18T08:54:22Z</time>
      </trkpt>
      <trkpt lat="43.656" lon="1.23143">
        <ele>190</ele>
        <time>2025-10-18T08:54:23Z</time>
      </trkpt>
      <trkpt lat="43.65597" lon="1.23137">
        <ele>190</ele>
        <time>2025-10-18T08:54:24Z</time>
      </trkpt>
      <trkpt lat="43.65594" lon="1.23131">
        <ele>190.2</ele>
        <time>2025-10-18T08:54:25Z</time>
      </trkpt>
      <trkpt lat="43.65592" lon="1.23124">
        <ele>190.2</ele>
        <time>2025-10-18T08:54:26Z</time>
      </trkpt>
      <trkpt lat="43.6559" lon="1.23118">
        <ele>190.2</ele>
        <time>2025-10-18T08:54:27Z</time>
      </trkpt>
      <trkpt lat="43.65587" lon="1.23111">
        <ele>190.2</ele>
        <time>2025-10-18T08:54:28Z</time>
      </trkpt>
      <trkpt lat="43.65585" lon="1.23104">
        <ele>190.2</ele>
        <time>2025-10-18T08:54:29Z</time>
      </trkpt>
      <trkpt lat="43.65582" lon="1.23098">
        <ele>190</ele>
        <time>2025-10-18T08:54:30Z</time>
      </trkpt>
      <trkpt lat="43.65578" lon="1.23092">
        <ele>190</ele>
        <time>2025-10-18T08:54:31Z</time>
      </trkpt>
      <trkpt lat="43.65576" lon="1.23086">
        <ele>190</ele>
        <time>2025-10-18T08:54:32Z</time>
      </trkpt>
      <trkpt lat="43.65573" lon="1.23079">
        <ele>190</ele>
        <time>2025-10-18T08:54:33Z</time>
      </trkpt>
      <trkpt lat="43.65571" lon="1.23073">
        <ele>190</ele>
        <time>2025-10-18T08:54:34Z</time>
      </trkpt>
      <trkpt lat="43.65568" lon="1.23067">
        <ele>190</ele>
        <time>2025-10-18T08:54:35Z</time>
      </trkpt>
      <trkpt lat="43.65566" lon="1.23061">
        <ele>190</ele>
        <time>2025-10-18T08:54:36Z</time>
      </trkpt>
      <trkpt lat="43.65564" lon="1.23054">
        <ele>190</ele>
        <time>2025-10-18T08:54:37Z</time>
      </trkpt>
      <trkpt lat="43.65561" lon="1.23047">
        <ele>190</ele>
        <time>2025-10-18T08:54:38Z</time>
      </trkpt>
      <trkpt lat="43.65559" lon="1.2304">
        <ele>190</ele>
        <time>2025-10-18T08:54:39Z</time>
      </trkpt>
      <trkpt lat="43.65557" lon="1.23033">
        <ele>190.2</ele>
        <time>2025-10-18T08:54:40Z</time>
      </trkpt>
      <trkpt lat="43.65554" lon="1.23027">
        <ele>190.2</ele>
        <time>2025-10-18T08:54:41Z</time>
      </trkpt>
      <trkpt lat="43.65552" lon="1.23022">
        <ele>190.4</ele>
        <time>2025-10-18T08:54:42Z</time>
      </trkpt>
      <trkpt lat="43.65549" lon="1.23016">
        <ele>190.4</ele>
        <time>2025-10-18T08:54:43Z</time>
      </trkpt>
      <trkpt lat="43.65546" lon="1.2301">
        <ele>190.4</ele>
        <time>2025-10-18T08:54:44Z</time>
      </trkpt>
      <trkpt lat="43.65543" lon="1.23004">
        <ele>190.6</ele>
        <time>2025-10-18T08:54:45Z</time>
      </trkpt>
      <trkpt lat="43.65541" lon="1.22998">
        <ele>190.6</ele>
        <time>2025-10-18T08:54:46Z</time>
      </trkpt>
      <trkpt lat="43.65538" lon="1.22992">
        <ele>190.4</ele>
        <time>2025-10-18T08:54:47Z</time>
      </trkpt>
      <trkpt lat="43.65535" lon="1.22986">
        <ele>190.6</ele>
        <time>2025-10-18T08:54:48Z</time>
      </trkpt>
      <trkpt lat="43.65532" lon="1.22979">
        <ele>190.6</ele>
        <time>2025-10-18T08:54:49Z</time>
      </trkpt>
      <trkpt lat="43.65529" lon="1.22973">
        <ele>190.6</ele>
        <time>2025-10-18T08:54:50Z</time>
      </trkpt>
      <trkpt lat="43.65526" lon="1.22966">
        <ele>190.4</ele>
        <time>2025-10-18T08:54:51Z</time>
      </trkpt>
      <trkpt lat="43.65523" lon="1.2296">
        <ele>190.4</ele>
        <time>2025-10-18T08:54:52Z</time>
      </trkpt>
      <trkpt lat="43.6552" lon="1.22953">
        <ele>190.2</ele>
        <time>2025-10-18T08:54:53Z</time>
      </trkpt>
      <trkpt lat="43.65517" lon="1.22946">
        <ele>190</ele>
        <time>2025-10-18T08:54:54Z</time>
      </trkpt>
      <trkpt lat="43.65514" lon="1.22938">
        <ele>189.8</ele>
        <time>2025-10-18T08:54:55Z</time>
      </trkpt>
      <trkpt lat="43.65512" lon="1.22931">
        <ele>189.8</ele>
        <time>2025-10-18T08:54:56Z</time>
      </trkpt>
      <trkpt lat="43.65509" lon="1.22924">
        <ele>189.8</ele>
        <time>2025-10-18T08:54:57Z</time>
      </trkpt>
      <trkpt lat="43.65506" lon="1.22918">
        <ele>189.6</ele>
        <time>2025-10-18T08:54:58Z</time>
      </trkpt>
      <trkpt lat="43.65503" lon="1.22912">
        <ele>189.6</ele>
        <time>2025-10-18T08:54:59Z</time>
      </trkpt>
      <trkpt lat="43.655" lon="1.22906">
        <ele>189.6</ele>
        <time>2025-10-18T08:55:00Z</time>
      </trkpt>
      <trkpt lat="43.65498" lon="1.229">
        <ele>189.6</ele>
        <time>2025-10-18T08:55:01Z</time>
      </trkpt>
      <trkpt lat="43.65494" lon="1.22894">
        <ele>189.6</ele>
        <time>2025-10-18T08:55:02Z</time>
      </trkpt>
      <trkpt lat="43.65491" lon="1.22888">
        <ele>189.8</ele>
        <time>2025-10-18T08:55:03Z</time>
      </trkpt>
      <trkpt lat="43.65488" lon="1.22882">
        <ele>189.8</ele>
        <time>2025-10-18T08:55:04Z</time>
      </trkpt>
      <trkpt lat="43.65485" lon="1.22875">
        <ele>189.8</ele>
        <time>2025-10-18T08:55:05Z</time>
      </trkpt>
      <trkpt lat="43.65483" lon="1.22869">
        <ele>190</ele>
        <time>2025-10-18T08:55:06Z</time>
      </trkpt>
      <trkpt lat="43.6548" lon="1.22862">
        <ele>190</ele>
        <time>2025-10-18T08:55:07Z</time>
      </trkpt>
      <trkpt lat="43.65477" lon="1.22856">
        <ele>190</ele>
        <time>2025-10-18T08:55:08Z</time>
      </trkpt>
      <trkpt lat="43.65474" lon="1.22849">
        <ele>190.2</ele>
        <time>2025-10-18T08:55:09Z</time>
      </trkpt>
      <trkpt lat="43.65471" lon="1.22843">
        <ele>190.2</ele>
        <time>2025-10-18T08:55:10Z</time>
      </trkpt>
      <trkpt lat="43.65468" lon="1.22837">
        <ele>190.2</ele>
        <time>2025-10-18T08:55:11Z</time>
      </trkpt>
      <trkpt lat="43.65465" lon="1.22831">
        <ele>190.4</ele>
        <time>2025-10-18T08:55:12Z</time>
      </trkpt>
      <trkpt lat="43.65461" lon="1.22825">
        <ele>190.4</ele>
        <time>2025-10-18T08:55:13Z</time>
      </trkpt>
      <trkpt lat="43.65458" lon="1.22819">
        <ele>190.4</ele>
        <time>2025-10-18T08:55:14Z</time>
      </trkpt>
      <trkpt lat="43.65455" lon="1.22812">
        <ele>190.4</ele>
        <time>2025-10-18T08:55:15Z</time>
      </trkpt>
      <trkpt lat="43.65452" lon="1.22804">
        <ele>190.4</ele>
        <time>2025-10-18T08:55:16Z</time>
      </trkpt>
      <trkpt lat="43.65449" lon="1.22798">
        <ele>190.4</ele>
        <time>2025-10-18T08:55:17Z</time>
      </trkpt>
      <trkpt lat="43.65446" lon="1.22792">
        <ele>190.4</ele>
        <time>2025-10-18T08:55:18Z</time>
      </trkpt>
      <trkpt lat="43.65443" lon="1.22785">
        <ele>190.6</ele>
        <time>2025-10-18T08:55:19Z</time>
      </trkpt>
      <trkpt lat="43.6544" lon="1.22779">
        <ele>190.6</ele>
        <time>2025-10-18T08:55:20Z</time>
      </trkpt>
      <trkpt lat="43.65437" lon="1.22772">
        <ele>190.6</ele>
        <time>2025-10-18T08:55:21Z</time>
      </trkpt>
      <trkpt lat="43.65434" lon="1.22765">
        <ele>190.8</ele>
        <time>2025-10-18T08:55:22Z</time>
      </trkpt>
      <trkpt lat="43.65431" lon="1.22758">
        <ele>190.8</ele>
        <time>2025-10-18T08:55:23Z</time>
      </trkpt>
      <trkpt lat="43.65429" lon="1.22751">
        <ele>190.8</ele>
        <time>2025-10-18T08:55:24Z</time>
      </trkpt>
      <trkpt lat="43.65426" lon="1.22745">
        <ele>191</ele>
        <time>2025-10-18T08:55:25Z</time>
      </trkpt>
      <trkpt lat="43.65423" lon="1.22738">
        <ele>191</ele>
        <time>2025-10-18T08:55:26Z</time>
      </trkpt>
      <trkpt lat="43.65421" lon="1.22731">
        <ele>191</ele>
        <time>2025-10-18T08:55:27Z</time>
      </trkpt>
      <trkpt lat="43.65417" lon="1.22725">
        <ele>191.2</ele>
        <time>2025-10-18T08:55:28Z</time>
      </trkpt>
      <trkpt lat="43.65414" lon="1.22719">
        <ele>191.2</ele>
        <time>2025-10-18T08:55:29Z</time>
      </trkpt>
      <trkpt lat="43.65411" lon="1.22713">
        <ele>191.2</ele>
        <time>2025-10-18T08:55:30Z</time>
      </trkpt>
      <trkpt lat="43.65408" lon="1.22706">
        <ele>191.4</ele>
        <time>2025-10-18T08:55:31Z</time>
      </trkpt>
      <trkpt lat="43.65406" lon="1.22698">
        <ele>191.4</ele>
        <time>2025-10-18T08:55:32Z</time>
      </trkpt>
      <trkpt lat="43.65403" lon="1.22691">
        <ele>191.6</ele>
        <time>2025-10-18T08:55:33Z</time>
      </trkpt>
      <trkpt lat="43.654" lon="1.22684">
        <ele>191.6</ele>
        <time>2025-10-18T08:55:34Z</time>
      </trkpt>
      <trkpt lat="43.65398" lon="1.22678">
        <ele>191.6</ele>
        <time>2025-10-18T08:55:35Z</time>
      </trkpt>
      <trkpt lat="43.65394" lon="1.22671">
        <ele>191.6</ele>
        <time>2025-10-18T08:55:36Z</time>
      </trkpt>
      <trkpt lat="43.65391" lon="1.22664">
        <ele>191.8</ele>
        <time>2025-10-18T08:55:37Z</time>
      </trkpt>
      <trkpt lat="43.65388" lon="1.22658">
        <ele>191.8</ele>
        <time>2025-10-18T08:55:38Z</time>
      </trkpt>
      <trkpt lat="43.65386" lon="1.22651">
        <ele>192</ele>
        <time>2025-10-18T08:55:39Z</time>
      </trkpt>
      <trkpt lat="43.65383" lon="1.22644">
        <ele>192</ele>
        <time>2025-10-18T08:55:40Z</time>
      </trkpt>
      <trkpt lat="43.6538" lon="1.22638">
        <ele>192.2</ele>
        <time>2025-10-18T08:55:41Z</time>
      </trkpt>
      <trkpt lat="43.65377" lon="1.22631">
        <ele>192.2</ele>
        <time>2025-10-18T08:55:42Z</time>
      </trkpt>
      <trkpt lat="43.65374" lon="1.22625">
        <ele>192.2</ele>
        <time>2025-10-18T08:55:43Z</time>
      </trkpt>
      <trkpt lat="43.65371" lon="1.22618">
        <ele>192.2</ele>
        <time>2025-10-18T08:55:44Z</time>
      </trkpt>
      <trkpt lat="43.65368" lon="1.2261">
        <ele>192.2</ele>
        <time>2025-10-18T08:55:45Z</time>
      </trkpt>
      <trkpt lat="43.65365" lon="1.22603">
        <ele>192.2</ele>
        <time>2025-10-18T08:55:46Z</time>
      </trkpt>
      <trkpt lat="43.65361" lon="1.22597">
        <ele>192.2</ele>
        <time>2025-10-18T08:55:47Z</time>
      </trkpt>
      <trkpt lat="43.65359" lon="1.2259">
        <ele>192.2</ele>
        <time>2025-10-18T08:55:48Z</time>
      </trkpt>
      <trkpt lat="43.65356" lon="1.22583">
        <ele>192</ele>
        <time>2025-10-18T08:55:49Z</time>
      </trkpt>
      <trkpt lat="43.65353" lon="1.22576">
        <ele>192</ele>
        <time>2025-10-18T08:55:50Z</time>
      </trkpt>
      <trkpt lat="43.6535" lon="1.22568">
        <ele>192</ele>
        <time>2025-10-18T08:55:51Z</time>
      </trkpt>
      <trkpt lat="43.65347" lon="1.22561">
        <ele>192</ele>
        <time>2025-10-18T08:55:52Z</time>
      </trkpt>
      <trkpt lat="43.65344" lon="1.22555">
        <ele>192</ele>
        <time>2025-10-18T08:55:53Z</time>
      </trkpt>
      <trkpt lat="43.65342" lon="1.22548">
        <ele>192</ele>
        <time>2025-10-18T08:55:54Z</time>
      </trkpt>
      <trkpt lat="43.65339" lon="1.22541">
        <ele>192.2</ele>
        <time>2025-10-18T08:55:55Z</time>
      </trkpt>
      <trkpt lat="43.65336" lon="1.22535">
        <ele>192.2</ele>
        <time>2025-10-18T08:55:56Z</time>
      </trkpt>
      <trkpt lat="43.65334" lon="1.22529">
        <ele>192</ele>
        <time>2025-10-18T08:55:57Z</time>
      </trkpt>
      <trkpt lat="43.65331" lon="1.22523">
        <ele>192</ele>
        <time>2025-10-18T08:55:58Z</time>
      </trkpt>
      <trkpt lat="43.65327" lon="1.22516">
        <ele>192</ele>
        <time>2025-10-18T08:55:59Z</time>
      </trkpt>
      <trkpt lat="43.65324" lon="1.22509">
        <ele>192</ele>
        <time>2025-10-18T08:56:00Z</time>
      </trkpt>
      <trkpt lat="43.65321" lon="1.22503">
        <ele>192</ele>
        <time>2025-10-18T08:56:01Z</time>
      </trkpt>
      <trkpt lat="43.65318" lon="1.22497">
        <ele>192</ele>
        <time>2025-10-18T08:56:02Z</time>
      </trkpt>
      <trkpt lat="43.65315" lon="1.22491">
        <ele>192.2</ele>
        <time>2025-10-18T08:56:03Z</time>
      </trkpt>
      <trkpt lat="43.65313" lon="1.22484">
        <ele>192.2</ele>
        <time>2025-10-18T08:56:04Z</time>
      </trkpt>
      <trkpt lat="43.6531" lon="1.22477">
        <ele>192.2</ele>
        <time>2025-10-18T08:56:05Z</time>
      </trkpt>
      <trkpt lat="43.65307" lon="1.22471">
        <ele>192.2</ele>
        <time>2025-10-18T08:56:06Z</time>
      </trkpt>
      <trkpt lat="43.65305" lon="1.22465">
        <ele>192.2</ele>
        <time>2025-10-18T08:56:07Z</time>
      </trkpt>
      <trkpt lat="43.65303" lon="1.22459">
        <ele>192.2</ele>
        <time>2025-10-18T08:56:08Z</time>
      </trkpt>
      <trkpt lat="43.653" lon="1.22452">
        <ele>192.4</ele>
        <time>2025-10-18T08:56:09Z</time>
      </trkpt>
      <trkpt lat="43.65297" lon="1.22446">
        <ele>192.4</ele>
        <time>2025-10-18T08:56:10Z</time>
      </trkpt>
      <trkpt lat="43.65295" lon="1.22439">
        <ele>192.6</ele>
        <time>2025-10-18T08:56:11Z</time>
      </trkpt>
      <trkpt lat="43.65292" lon="1.22432">
        <ele>192.6</ele>
        <time>2025-10-18T08:56:12Z</time>
      </trkpt>
      <trkpt lat="43.65289" lon="1.22426">
        <ele>192.6</ele>
        <time>2025-10-18T08:56:13Z</time>
      </trkpt>
      <trkpt lat="43.65285" lon="1.22419">
        <ele>192.8</ele>
        <time>2025-10-18T08:56:14Z</time>
      </trkpt>
      <trkpt lat="43.65282" lon="1.22413">
        <ele>192.8</ele>
        <time>2025-10-18T08:56:15Z</time>
      </trkpt>
      <trkpt lat="43.65279" lon="1.22406">
        <ele>192.8</ele>
        <time>2025-10-18T08:56:16Z</time>
      </trkpt>
      <trkpt lat="43.65277" lon="1.22399">
        <ele>193</ele>
        <time>2025-10-18T08:56:17Z</time>
      </trkpt>
      <trkpt lat="43.65275" lon="1.22393">
        <ele>193</ele>
        <time>2025-10-18T08:56:18Z</time>
      </trkpt>
      <trkpt lat="43.65272" lon="1.22387">
        <ele>193.2</ele>
        <time>2025-10-18T08:56:19Z</time>
      </trkpt>
      <trkpt lat="43.65269" lon="1.22381">
        <ele>193.2</ele>
        <time>2025-10-18T08:56:20Z</time>
      </trkpt>
      <trkpt lat="43.65266" lon="1.22374">
        <ele>193.4</ele>
        <time>2025-10-18T08:56:21Z</time>
      </trkpt>
      <trkpt lat="43.65263" lon="1.22368">
        <ele>193.4</ele>
        <time>2025-10-18T08:56:22Z</time>
      </trkpt>
      <trkpt lat="43.6526" lon="1.22361">
        <ele>193.4</ele>
        <time>2025-10-18T08:56:23Z</time>
      </trkpt>
      <trkpt lat="43.65258" lon="1.22354">
        <ele>193.4</ele>
        <time>2025-10-18T08:56:24Z</time>
      </trkpt>
      <trkpt lat="43.65255" lon="1.22348">
        <ele>193.4</ele>
        <time>2025-10-18T08:56:25Z</time>
      </trkpt>
      <trkpt lat="43.65252" lon="1.22341">
        <ele>193.2</ele>
        <time>2025-10-18T08:56:26Z</time>
      </trkpt>
      <trkpt lat="43.65249" lon="1.22335">
        <ele>193.2</ele>
        <time>2025-10-18T08:56:27Z</time>
      </trkpt>
      <trkpt lat="43.65247" lon="1.22328">
        <ele>193.2</ele>
        <time>2025-10-18T08:56:28Z</time>
      </trkpt>
      <trkpt lat="43.65244" lon="1.22321">
        <ele>193.2</ele>
        <time>2025-10-18T08:56:29Z</time>
      </trkpt>
      <trkpt lat="43.65241" lon="1.22315">
        <ele>193.4</ele>
        <time>2025-10-18T08:56:30Z</time>
      </trkpt>
      <trkpt lat="43.65239" lon="1.22308">
        <ele>193.4</ele>
        <time>2025-10-18T08:56:31Z</time>
      </trkpt>
      <trkpt lat="43.65237" lon="1.22302">
        <ele>193.4</ele>
        <time>2025-10-18T08:56:32Z</time>
      </trkpt>
      <trkpt lat="43.65235" lon="1.22296">
        <ele>193.6</ele>
        <time>2025-10-18T08:56:33Z</time>
      </trkpt>
      <trkpt lat="43.65234" lon="1.2229">
        <ele>193.6</ele>
        <time>2025-10-18T08:56:34Z</time>
      </trkpt>
      <trkpt lat="43.65232" lon="1.22285">
        <ele>193.6</ele>
        <time>2025-10-18T08:56:35Z</time>
      </trkpt>
      <trkpt lat="43.6523" lon="1.22281">
        <ele>193.6</ele>
        <time>2025-10-18T08:56:36Z</time>
      </trkpt>
      <trkpt lat="43.65228" lon="1.22276">
        <ele>193.6</ele>
        <time>2025-10-18T08:56:37Z</time>
      </trkpt>
      <trkpt lat="43.65226" lon="1.22271">
        <ele>193.6</ele>
        <time>2025-10-18T08:56:38Z</time>
      </trkpt>
      <trkpt lat="43.65224" lon="1.22266">
        <ele>193.4</ele>
        <time>2025-10-18T08:56:39Z</time>
      </trkpt>
      <trkpt lat="43.65222" lon="1.22259">
        <ele>193.6</ele>
        <time>2025-10-18T08:56:40Z</time>
      </trkpt>
      <trkpt lat="43.6522" lon="1.22253">
        <ele>193.4</ele>
        <time>2025-10-18T08:56:41Z</time>
      </trkpt>
      <trkpt lat="43.65217" lon="1.22247">
        <ele>193.4</ele>
        <time>2025-10-18T08:56:42Z</time>
      </trkpt>
      <trkpt lat="43.65214" lon="1.2224">
        <ele>193.6</ele>
        <time>2025-10-18T08:56:43Z</time>
      </trkpt>
      <trkpt lat="43.65211" lon="1.22233">
        <ele>193.6</ele>
        <time>2025-10-18T08:56:44Z</time>
      </trkpt>
      <trkpt lat="43.65209" lon="1.22226">
        <ele>193.6</ele>
        <time>2025-10-18T08:56:45Z</time>
      </trkpt>
      <trkpt lat="43.65207" lon="1.22219">
        <ele>193.8</ele>
        <time>2025-10-18T08:56:46Z</time>
      </trkpt>
      <trkpt lat="43.65205" lon="1.22212">
        <ele>194</ele>
        <time>2025-10-18T08:56:47Z</time>
      </trkpt>
      <trkpt lat="43.65203" lon="1.22204">
        <ele>194</ele>
        <time>2025-10-18T08:56:48Z</time>
      </trkpt>
      <trkpt lat="43.652" lon="1.22198">
        <ele>194</ele>
        <time>2025-10-18T08:56:49Z</time>
      </trkpt>
      <trkpt lat="43.65197" lon="1.22191">
        <ele>194.2</ele>
        <time>2025-10-18T08:56:50Z</time>
      </trkpt>
      <trkpt lat="43.65195" lon="1.22184">
        <ele>194.2</ele>
        <time>2025-10-18T08:56:51Z</time>
      </trkpt>
      <trkpt lat="43.65192" lon="1.22176">
        <ele>194.4</ele>
        <time>2025-10-18T08:56:52Z</time>
      </trkpt>
      <trkpt lat="43.6519" lon="1.22169">
        <ele>194.4</ele>
        <time>2025-10-18T08:56:53Z</time>
      </trkpt>
      <trkpt lat="43.65187" lon="1.22162">
        <ele>194.6</ele>
        <time>2025-10-18T08:56:54Z</time>
      </trkpt>
      <trkpt lat="43.65185" lon="1.22155">
        <ele>194.8</ele>
        <time>2025-10-18T08:56:55Z</time>
      </trkpt>
      <trkpt lat="43.65183" lon="1.22148">
        <ele>194.8</ele>
        <time>2025-10-18T08:56:56Z</time>
      </trkpt>
      <trkpt lat="43.65181" lon="1.22141">
        <ele>194.8</ele>
        <time>2025-10-18T08:56:57Z</time>
      </trkpt>
      <trkpt lat="43.65179" lon="1.22135">
        <ele>195</ele>
        <time>2025-10-18T08:56:58Z</time>
      </trkpt>
      <trkpt lat="43.65176" lon="1.22128">
        <ele>195</ele>
        <time>2025-10-18T08:56:59Z</time>
      </trkpt>
      <trkpt lat="43.65174" lon="1.22121">
        <ele>195</ele>
        <time>2025-10-18T08:57:00Z</time>
      </trkpt>
      <trkpt lat="43.65171" lon="1.22114">
        <ele>195.2</ele>
        <time>2025-10-18T08:57:01Z</time>
      </trkpt>
      <trkpt lat="43.65169" lon="1.22108">
        <ele>195.2</ele>
        <time>2025-10-18T08:57:02Z</time>
      </trkpt>
      <trkpt lat="43.65166" lon="1.22101">
        <ele>195.2</ele>
        <time>2025-10-18T08:57:03Z</time>
      </trkpt>
      <trkpt lat="43.65164" lon="1.22095">
        <ele>195.4</ele>
        <time>2025-10-18T08:57:04Z</time>
      </trkpt>
      <trkpt lat="43.65161" lon="1.22087">
        <ele>195.4</ele>
        <time>2025-10-18T08:57:05Z</time>
      </trkpt>
      <trkpt lat="43.65159" lon="1.22081">
        <ele>195.4</ele>
        <time>2025-10-18T08:57:06Z</time>
      </trkpt>
      <trkpt lat="43.65156" lon="1.22074">
        <ele>195.6</ele>
        <time>2025-10-18T08:57:07Z</time>
      </trkpt>
      <trkpt lat="43.65153" lon="1.22067">
        <ele>195.6</ele>
        <time>2025-10-18T08:57:08Z</time>
      </trkpt>
      <trkpt lat="43.6515" lon="1.2206">
        <ele>195.6</ele>
        <time>2025-10-18T08:57:09Z</time>
      </trkpt>
      <trkpt lat="43.65147" lon="1.22053">
        <ele>195.8</ele>
        <time>2025-10-18T08:57:10Z</time>
      </trkpt>
      <trkpt lat="43.65144" lon="1.22047">
        <ele>195.8</ele>
        <time>2025-10-18T08:57:11Z</time>
      </trkpt>
      <trkpt lat="43.65142" lon="1.2204">
        <ele>196</ele>
        <time>2025-10-18T08:57:12Z</time>
      </trkpt>
      <trkpt lat="43.6514" lon="1.22032">
        <ele>196.2</ele>
        <time>2025-10-18T08:57:13Z</time>
      </trkpt>
      <trkpt lat="43.65138" lon="1.22026">
        <ele>196.2</ele>
        <time>2025-10-18T08:57:14Z</time>
      </trkpt>
      <trkpt lat="43.65136" lon="1.2202">
        <ele>196.2</ele>
        <time>2025-10-18T08:57:15Z</time>
      </trkpt>
      <trkpt lat="43.65133" lon="1.22013">
        <ele>196.2</ele>
        <time>2025-10-18T08:57:16Z</time>
      </trkpt>
      <trkpt lat="43.65132" lon="1.22006">
        <ele>196.4</ele>
        <time>2025-10-18T08:57:17Z</time>
      </trkpt>
      <trkpt lat="43.65129" lon="1.22">
        <ele>196.4</ele>
        <time>2025-10-18T08:57:18Z</time>
      </trkpt>
      <trkpt lat="43.65127" lon="1.21993">
        <ele>196.4</ele>
        <time>2025-10-18T08:57:19Z</time>
      </trkpt>
      <trkpt lat="43.65124" lon="1.21987">
        <ele>196.4</ele>
        <time>2025-10-18T08:57:20Z</time>
      </trkpt>
      <trkpt lat="43.65122" lon="1.2198">
        <ele>196.6</ele>
        <time>2025-10-18T08:57:21Z</time>
      </trkpt>
      <trkpt lat="43.65119" lon="1.21974">
        <ele>196.6</ele>
        <time>2025-10-18T08:57:22Z</time>
      </trkpt>
      <trkpt lat="43.65117" lon="1.21968">
        <ele>196.8</ele>
        <time>2025-10-18T08:57:23Z</time>
      </trkpt>
      <trkpt lat="43.65115" lon="1.21962">
        <ele>196.8</ele>
        <time>2025-10-18T08:57:24Z</time>
      </trkpt>
      <trkpt lat="43.65112" lon="1.21955">
        <ele>197</ele>
        <time>2025-10-18T08:57:25Z</time>
      </trkpt>
      <trkpt lat="43.6511" lon="1.21948">
        <ele>197.2</ele>
        <time>2025-10-18T08:57:26Z</time>
      </trkpt>
      <trkpt lat="43.65107" lon="1.21942">
        <ele>197.4</ele>
        <time>2025-10-18T08:57:27Z</time>
      </trkpt>
      <trkpt lat="43.65105" lon="1.21936">
        <ele>197.4</ele>
        <time>2025-10-18T08:57:28Z</time>
      </trkpt>
      <trkpt lat="43.65102" lon="1.21929">
        <ele>197.6</ele>
        <time>2025-10-18T08:57:29Z</time>
      </trkpt>
      <trkpt lat="43.651" lon="1.21923">
        <ele>197.8</ele>
        <time>2025-10-18T08:57:30Z</time>
      </trkpt>
      <trkpt lat="43.65098" lon="1.21917">
        <ele>198</ele>
        <time>2025-10-18T08:57:31Z</time>
      </trkpt>
      <trkpt lat="43.65096" lon="1.21911">
        <ele>198</ele>
        <time>2025-10-18T08:57:32Z</time>
      </trkpt>
      <trkpt lat="43.65094" lon="1.21905">
        <ele>198.2</ele>
        <time>2025-10-18T08:57:33Z</time>
      </trkpt>
      <trkpt lat="43.65092" lon="1.21899">
        <ele>198.4</ele>
        <time>2025-10-18T08:57:34Z</time>
      </trkpt>
      <trkpt lat="43.65089" lon="1.21893">
        <ele>198.6</ele>
        <time>2025-10-18T08:57:35Z</time>
      </trkpt>
      <trkpt lat="43.65086" lon="1.21888">
        <ele>198.6</ele>
        <time>2025-10-18T08:57:36Z</time>
      </trkpt>
      <trkpt lat="43.65083" lon="1.21882">
        <ele>198.8</ele>
        <time>2025-10-18T08:57:37Z</time>
      </trkpt>
      <trkpt lat="43.65081" lon="1.21876">
        <ele>198.8</ele>
        <time>2025-10-18T08:57:38Z</time>
      </trkpt>
      <trkpt lat="43.65078" lon="1.2187">
        <ele>198.8</ele>
        <time>2025-10-18T08:57:39Z</time>
      </trkpt>
      <trkpt lat="43.65075" lon="1.21864">
        <ele>198.8</ele>
        <time>2025-10-18T08:57:40Z</time>
      </trkpt>
      <trkpt lat="43.65072" lon="1.21857">
        <ele>199</ele>
        <time>2025-10-18T08:57:41Z</time>
      </trkpt>
      <trkpt lat="43.65069" lon="1.21851">
        <ele>199.4</ele>
        <time>2025-10-18T08:57:42Z</time>
      </trkpt>
      <trkpt lat="43.65067" lon="1.21845">
        <ele>199.6</ele>
        <time>2025-10-18T08:57:43Z</time>
      </trkpt>
      <trkpt lat="43.65065" lon="1.21838">
        <ele>199.8</ele>
        <time>2025-10-18T08:57:44Z</time>
      </trkpt>
      <trkpt lat="43.65064" lon="1.21833">
        <ele>200</ele>
        <time>2025-10-18T08:57:45Z</time>
      </trkpt>
      <trkpt lat="43.65063" lon="1.21827">
        <ele>200.4</ele>
        <time>2025-10-18T08:57:46Z</time>
      </trkpt>
      <trkpt lat="43.65061" lon="1.21823">
        <ele>200.6</ele>
        <time>2025-10-18T08:57:47Z</time>
      </trkpt>
      <trkpt lat="43.65059" lon="1.21818">
        <ele>200.8</ele>
        <time>2025-10-18T08:57:48Z</time>
      </trkpt>
      <trkpt lat="43.65057" lon="1.21814">
        <ele>201.2</ele>
        <time>2025-10-18T08:57:49Z</time>
      </trkpt>
      <trkpt lat="43.65055" lon="1.21809">
        <ele>201.4</ele>
        <time>2025-10-18T08:57:50Z</time>
      </trkpt>
      <trkpt lat="43.65054" lon="1.21804">
        <ele>201.6</ele>
        <time>2025-10-18T08:57:51Z</time>
      </trkpt>
      <trkpt lat="43.65052" lon="1.21799">
        <ele>201.8</ele>
        <time>2025-10-18T08:57:52Z</time>
      </trkpt>
      <trkpt lat="43.6505" lon="1.21792">
        <ele>202</ele>
        <time>2025-10-18T08:57:53Z</time>
      </trkpt>
      <trkpt lat="43.65048" lon="1.21787">
        <ele>202</ele>
        <time>2025-10-18T08:57:54Z</time>
      </trkpt>
      <trkpt lat="43.65046" lon="1.21781">
        <ele>202.2</ele>
        <time>2025-10-18T08:57:55Z</time>
      </trkpt>
      <trkpt lat="43.65044" lon="1.21776">
        <ele>202.2</ele>
        <time>2025-10-18T08:57:56Z</time>
      </trkpt>
      <trkpt lat="43.65042" lon="1.2177">
        <ele>202.4</ele>
        <time>2025-10-18T08:57:57Z</time>
      </trkpt>
      <trkpt lat="43.6504" lon="1.21765">
        <ele>202.6</ele>
        <time>2025-10-18T08:57:58Z</time>
      </trkpt>
      <trkpt lat="43.65038" lon="1.2176">
        <ele>202.8</ele>
        <time>2025-10-18T08:57:59Z</time>
      </trkpt>
      <trkpt lat="43.65037" lon="1.21755">
        <ele>202.8</ele>
        <time>2025-10-18T08:58:00Z</time>
      </trkpt>
      <trkpt lat="43.65035" lon="1.21751">
        <ele>203</ele>
        <time>2025-10-18T08:58:01Z</time>
      </trkpt>
      <trkpt lat="43.65033" lon="1.21746">
        <ele>203</ele>
        <time>2025-10-18T08:58:02Z</time>
      </trkpt>
      <trkpt lat="43.65031" lon="1.21741">
        <ele>203.2</ele>
        <time>2025-10-18T08:58:03Z</time>
      </trkpt>
      <trkpt lat="43.65029" lon="1.21736">
        <ele>203.4</ele>
        <time>2025-10-18T08:58:04Z</time>
      </trkpt>
      <trkpt lat="43.65027" lon="1.21731">
        <ele>203.6</ele>
        <time>2025-10-18T08:58:05Z</time>
      </trkpt>
      <trkpt lat="43.65025" lon="1.21726">
        <ele>203.8</ele>
        <time>2025-10-18T08:58:06Z</time>
      </trkpt>
      <trkpt lat="43.65022" lon="1.21723">
        <ele>204</ele>
        <time>2025-10-18T08:58:07Z</time>
      </trkpt>
      <trkpt lat="43.65021" lon="1.21719">
        <ele>204</ele>
        <time>2025-10-18T08:58:08Z</time>
      </trkpt>
      <trkpt lat="43.65019" lon="1.21715">
        <ele>204.4</ele>
        <time>2025-10-18T08:58:09Z</time>
      </trkpt>
      <trkpt lat="43.65017" lon="1.21712">
        <ele>204.6</ele>
        <time>2025-10-18T08:58:10Z</time>
      </trkpt>
      <trkpt lat="43.65016" lon="1.21707">
        <ele>204.6</ele>
        <time>2025-10-18T08:58:11Z</time>
      </trkpt>
      <trkpt lat="43.65015" lon="1.21703">
        <ele>204.8</ele>
        <time>2025-10-18T08:58:12Z</time>
      </trkpt>
      <trkpt lat="43.65013" lon="1.21698">
        <ele>205</ele>
        <time>2025-10-18T08:58:13Z</time>
      </trkpt>
      <trkpt lat="43.65012" lon="1.21694">
        <ele>205.2</ele>
        <time>2025-10-18T08:58:14Z</time>
      </trkpt>
      <trkpt lat="43.6501" lon="1.2169">
        <ele>205.2</ele>
        <time>2025-10-18T08:58:15Z</time>
      </trkpt>
      <trkpt lat="43.65008" lon="1.21687">
        <ele>205.2</ele>
        <time>2025-10-18T08:58:16Z</time>
      </trkpt>
      <trkpt lat="43.65006" lon="1.21683">
        <ele>205.4</ele>
        <time>2025-10-18T08:58:17Z</time>
      </trkpt>
      <trkpt lat="43.65004" lon="1.2168">
        <ele>205.6</ele>
        <time>2025-10-18T08:58:18Z</time>
      </trkpt>
      <trkpt lat="43.65003" lon="1.21677">
        <ele>205.6</ele>
        <time>2025-10-18T08:58:19Z</time>
      </trkpt>
      <trkpt lat="43.65002" lon="1.21675">
        <ele>205.8</ele>
        <time>2025-10-18T08:58:20Z</time>
      </trkpt>
      <trkpt lat="43.65001" lon="1.21673">
        <ele>205.8</ele>
        <time>2025-10-18T08:58:21Z</time>
      </trkpt>
      <trkpt lat="43.65" lon="1.21671">
        <ele>206</ele>
        <time>2025-10-18T08:58:22Z</time>
      </trkpt>
      <trkpt lat="43.64999" lon="1.21669">
        <ele>206</ele>
        <time>2025-10-18T08:58:23Z</time>
      </trkpt>
      <trkpt lat="43.64996" lon="1.21669">
        <ele>206</ele>
        <time>2025-10-18T08:58:24Z</time>
      </trkpt>
      <trkpt lat="43.64993" lon="1.21671">
        <ele>206</ele>
        <time>2025-10-18T08:58:25Z</time>
      </trkpt>
      <trkpt lat="43.6499" lon="1.21673">
        <ele>206</ele>
        <time>2025-10-18T08:58:26Z</time>
      </trkpt>
      <trkpt lat="43.64987" lon="1.21674">
        <ele>205.8</ele>
        <time>2025-10-18T08:58:27Z</time>
      </trkpt>
      <trkpt lat="43.64983" lon="1.21677">
        <ele>205.8</ele>
        <time>2025-10-18T08:58:28Z</time>
      </trkpt>
      <trkpt lat="43.6498" lon="1.2168">
        <ele>205.8</ele>
        <time>2025-10-18T08:58:29Z</time>
      </trkpt>
      <trkpt lat="43.64977" lon="1.21684">
        <ele>205.8</ele>
        <time>2025-10-18T08:58:30Z</time>
      </trkpt>
      <trkpt lat="43.64973" lon="1.21687">
        <ele>205.8</ele>
        <time>2025-10-18T08:58:31Z</time>
      </trkpt>
      <trkpt lat="43.64969" lon="1.2169">
        <ele>205.8</ele>
        <time>2025-10-18T08:58:32Z</time>
      </trkpt>
      <trkpt lat="43.64966" lon="1.21693">
        <ele>206</ele>
        <time>2025-10-18T08:58:33Z</time>
      </trkpt>
      <trkpt lat="43.64962" lon="1.21694">
        <ele>206</ele>
        <time>2025-10-18T08:58:34Z</time>
      </trkpt>
      <trkpt lat="43.64958" lon="1.21694">
        <ele>206</ele>
        <time>2025-10-18T08:58:35Z</time>
      </trkpt>
      <trkpt lat="43.64955" lon="1.21691">
        <ele>206.2</ele>
        <time>2025-10-18T08:58:36Z</time>
      </trkpt>
      <trkpt lat="43.64951" lon="1.2169">
        <ele>206.2</ele>
        <time>2025-10-18T08:58:37Z</time>
      </trkpt>
      <trkpt lat="43.64946" lon="1.21689">
        <ele>206.2</ele>
        <time>2025-10-18T08:58:38Z</time>
      </trkpt>
      <trkpt lat="43.64942" lon="1.21689">
        <ele>206.2</ele>
        <time>2025-10-18T08:58:39Z</time>
      </trkpt>
      <trkpt lat="43.64938" lon="1.2169">
        <ele>206.2</ele>
        <time>2025-10-18T08:58:40Z</time>
      </trkpt>
      <trkpt lat="43.64934" lon="1.21689">
        <ele>206.2</ele>
        <time>2025-10-18T08:58:41Z</time>
      </trkpt>
      <trkpt lat="43.64931" lon="1.21686">
        <ele>206.6</ele>
        <time>2025-10-18T08:58:42Z</time>
      </trkpt>
      <trkpt lat="43.64928" lon="1.21683">
        <ele>206.6</ele>
        <time>2025-10-18T08:58:43Z</time>
      </trkpt>
      <trkpt lat="43.64924" lon="1.2168">
        <ele>206.8</ele>
        <time>2025-10-18T08:58:44Z</time>
      </trkpt>
      <trkpt lat="43.6492" lon="1.21678">
        <ele>206.8</ele>
        <time>2025-10-18T08:58:45Z</time>
      </trkpt>
      <trkpt lat="43.64916" lon="1.21677">
        <ele>206.8</ele>
        <time>2025-10-18T08:58:46Z</time>
      </trkpt>
      <trkpt lat="43.64912" lon="1.21677">
        <ele>207</ele>
        <time>2025-10-18T08:58:47Z</time>
      </trkpt>
      <trkpt lat="43.64907" lon="1.21677">
        <ele>207</ele>
        <time>2025-10-18T08:58:48Z</time>
      </trkpt>
      <trkpt lat="43.64903" lon="1.21675">
        <ele>207.2</ele>
        <time>2025-10-18T08:58:49Z</time>
      </trkpt>
      <trkpt lat="43.64899" lon="1.21673">
        <ele>207.2</ele>
        <time>2025-10-18T08:58:50Z</time>
      </trkpt>
      <trkpt lat="43.64894" lon="1.21671">
        <ele>207.2</ele>
        <time>2025-10-18T08:58:51Z</time>
      </trkpt>
      <trkpt lat="43.6489" lon="1.21669">
        <ele>207.4</ele>
        <time>2025-10-18T08:58:52Z</time>
      </trkpt>
      <trkpt lat="43.64886" lon="1.21667">
        <ele>207.6</ele>
        <time>2025-10-18T08:58:53Z</time>
      </trkpt>
      <trkpt lat="43.64882" lon="1.21664">
        <ele>207.6</ele>
        <time>2025-10-18T08:58:54Z</time>
      </trkpt>
      <trkpt lat="43.64878" lon="1.21661">
        <ele>207.8</ele>
        <time>2025-10-18T08:58:55Z</time>
      </trkpt>
      <trkpt lat="43.64874" lon="1.2166">
        <ele>207.8</ele>
        <time>2025-10-18T08:58:56Z</time>
      </trkpt>
      <trkpt lat="43.6487" lon="1.2166">
        <ele>207.8</ele>
        <time>2025-10-18T08:58:57Z</time>
      </trkpt>
      <trkpt lat="43.64867" lon="1.21662">
        <ele>208</ele>
        <time>2025-10-18T08:58:58Z</time>
      </trkpt>
      <trkpt lat="43.64864" lon="1.21665">
        <ele>208</ele>
        <time>2025-10-18T08:58:59Z</time>
      </trkpt>
      <trkpt lat="43.64861" lon="1.21668">
        <ele>208</ele>
        <time>2025-10-18T08:59:00Z</time>
      </trkpt>
      <trkpt lat="43.64857" lon="1.21671">
        <ele>207.8</ele>
        <time>2025-10-18T08:59:01Z</time>
      </trkpt>
      <trkpt lat="43.64854" lon="1.21674">
        <ele>207.8</ele>
        <time>2025-10-18T08:59:02Z</time>
      </trkpt>
      <trkpt lat="43.6485" lon="1.21678">
        <ele>207.8</ele>
        <time>2025-10-18T08:59:03Z</time>
      </trkpt>
      <trkpt lat="43.64847" lon="1.21682">
        <ele>207.8</ele>
        <time>2025-10-18T08:59:04Z</time>
      </trkpt>
      <trkpt lat="43.64843" lon="1.21686">
        <ele>208</ele>
        <time>2025-10-18T08:59:05Z</time>
      </trkpt>
      <trkpt lat="43.6484" lon="1.2169">
        <ele>208</ele>
        <time>2025-10-18T08:59:06Z</time>
      </trkpt>
      <trkpt lat="43.64836" lon="1.21693">
        <ele>208</ele>
        <time>2025-10-18T08:59:07Z</time>
      </trkpt>
      <trkpt lat="43.64833" lon="1.21696">
        <ele>208</ele>
        <time>2025-10-18T08:59:08Z</time>
      </trkpt>
      <trkpt lat="43.6483" lon="1.21699">
        <ele>208</ele>
        <time>2025-10-18T08:59:09Z</time>
      </trkpt>
      <trkpt lat="43.64826" lon="1.21703">
        <ele>208</ele>
        <time>2025-10-18T08:59:10Z</time>
      </trkpt>
      <trkpt lat="43.64822" lon="1.21707">
        <ele>208</ele>
        <time>2025-10-18T08:59:11Z</time>
      </trkpt>
      <trkpt lat="43.64818" lon="1.21711">
        <ele>208</ele>
        <time>2025-10-18T08:59:12Z</time>
      </trkpt>
      <trkpt lat="43.64814" lon="1.21715">
        <ele>208</ele>
        <time>2025-10-18T08:59:13Z</time>
      </trkpt>
      <trkpt lat="43.6481" lon="1.21718">
        <ele>208</ele>
        <time>2025-10-18T08:59:14Z</time>
      </trkpt>
      <trkpt lat="43.64806" lon="1.21721">
        <ele>208</ele>
        <time>2025-10-18T08:59:15Z</time>
      </trkpt>
      <trkpt lat="43.64803" lon="1.21725">
        <ele>208</ele>
        <time>2025-10-18T08:59:16Z</time>
      </trkpt>
      <trkpt lat="43.648" lon="1.21729">
        <ele>208</ele>
        <time>2025-10-18T08:59:17Z</time>
      </trkpt>
      <trkpt lat="43.64798" lon="1.21732">
        <ele>208</ele>
        <time>2025-10-18T08:59:18Z</time>
      </trkpt>
      <trkpt lat="43.64794" lon="1.21736">
        <ele>208</ele>
        <time>2025-10-18T08:59:19Z</time>
      </trkpt>
      <trkpt lat="43.64791" lon="1.21739">
        <ele>207.8</ele>
        <time>2025-10-18T08:59:20Z</time>
      </trkpt>
      <trkpt lat="43.64787" lon="1.21743">
        <ele>207.6</ele>
        <time>2025-10-18T08:59:21Z</time>
      </trkpt>
      <trkpt lat="43.64782" lon="1.21747">
        <ele>207.6</ele>
        <time>2025-10-18T08:59:22Z</time>
      </trkpt>
      <trkpt lat="43.64779" lon="1.21751">
        <ele>207.6</ele>
        <time>2025-10-18T08:59:23Z</time>
      </trkpt>
      <trkpt lat="43.64775" lon="1.21755">
        <ele>207.4</ele>
        <time>2025-10-18T08:59:24Z</time>
      </trkpt>
      <trkpt lat="43.64771" lon="1.21758">
        <ele>207.6</ele>
        <time>2025-10-18T08:59:25Z</time>
      </trkpt>
      <trkpt lat="43.64767" lon="1.21762">
        <ele>207.6</ele>
        <time>2025-10-18T08:59:26Z</time>
      </trkpt>
      <trkpt lat="43.64763" lon="1.21766">
        <ele>207.6</ele>
        <time>2025-10-18T08:59:27Z</time>
      </trkpt>
      <trkpt lat="43.64759" lon="1.21769">
        <ele>207.6</ele>
        <time>2025-10-18T08:59:28Z</time>
      </trkpt>
      <trkpt lat="43.64755" lon="1.21774">
        <ele>207.8</ele>
        <time>2025-10-18T08:59:29Z</time>
      </trkpt>
      <trkpt lat="43.64752" lon="1.21778">
        <ele>207.8</ele>
        <time>2025-10-18T08:59:30Z</time>
      </trkpt>
      <trkpt lat="43.64748" lon="1.21782">
        <ele>207.8</ele>
        <time>2025-10-18T08:59:31Z</time>
      </trkpt>
      <trkpt lat="43.64744" lon="1.21787">
        <ele>207.6</ele>
        <time>2025-10-18T08:59:32Z</time>
      </trkpt>
      <trkpt lat="43.6474" lon="1.21791">
        <ele>207.6</ele>
        <time>2025-10-18T08:59:33Z</time>
      </trkpt>
      <trkpt lat="43.64736" lon="1.21795">
        <ele>207.6</ele>
        <time>2025-10-18T08:59:34Z</time>
      </trkpt>
      <trkpt lat="43.64733" lon="1.21799">
        <ele>207.6</ele>
        <time>2025-10-18T08:59:35Z</time>
      </trkpt>
      <trkpt lat="43.64729" lon="1.21803">
        <ele>207.6</ele>
        <time>2025-10-18T08:59:36Z</time>
      </trkpt>
      <trkpt lat="43.64725" lon="1.21807">
        <ele>207.8</ele>
        <time>2025-10-18T08:59:37Z</time>
      </trkpt>
      <trkpt lat="43.64721" lon="1.21812">
        <ele>207.8</ele>
        <time>2025-10-18T08:59:38Z</time>
      </trkpt>
      <trkpt lat="43.64717" lon="1.21816">
        <ele>207.8</ele>
        <time>2025-10-18T08:59:39Z</time>
      </trkpt>
      <trkpt lat="43.64713" lon="1.21821">
        <ele>207.6</ele>
        <time>2025-10-18T08:59:40Z</time>
      </trkpt>
      <trkpt lat="43.64709" lon="1.21825">
        <ele>207.6</ele>
        <time>2025-10-18T08:59:41Z</time>
      </trkpt>
      <trkpt lat="43.64705" lon="1.21829">
        <ele>207.6</ele>
        <time>2025-10-18T08:59:42Z</time>
      </trkpt>
      <trkpt lat="43.64701" lon="1.21833">
        <ele>207.6</ele>
        <time>2025-10-18T08:59:43Z</time>
      </trkpt>
      <trkpt lat="43.64696" lon="1.21837">
        <ele>207.6</ele>
        <time>2025-10-18T08:59:44Z</time>
      </trkpt>
      <trkpt lat="43.64691" lon="1.21842">
        <ele>207.8</ele>
        <time>2025-10-18T08:59:45Z</time>
      </trkpt>
      <trkpt lat="43.64687" lon="1.21846">
        <ele>207.8</ele>
        <time>2025-10-18T08:59:46Z</time>
      </trkpt>
      <trkpt lat="43.64682" lon="1.21851">
        <ele>207.8</ele>
        <time>2025-10-18T08:59:47Z</time>
      </trkpt>
      <trkpt lat="43.64678" lon="1.21855">
        <ele>207.8</ele>
        <time>2025-10-18T08:59:48Z</time>
      </trkpt>
      <trkpt lat="43.64674" lon="1.21859">
        <ele>207.8</ele>
        <time>2025-10-18T08:59:49Z</time>
      </trkpt>
      <trkpt lat="43.64669" lon="1.21863">
        <ele>207.6</ele>
        <time>2025-10-18T08:59:50Z</time>
      </trkpt>
      <trkpt lat="43.64665" lon="1.21868">
        <ele>207.6</ele>
        <time>2025-10-18T08:59:51Z</time>
      </trkpt>
      <trkpt lat="43.6466" lon="1.21873">
        <ele>207.6</ele>
        <time>2025-10-18T08:59:52Z</time>
      </trkpt>
      <trkpt lat="43.64656" lon="1.21877">
        <ele>207.6</ele>
        <time>2025-10-18T08:59:53Z</time>
      </trkpt>
      <trkpt lat="43.64651" lon="1.21882">
        <ele>207.4</ele>
        <time>2025-10-18T08:59:54Z</time>
      </trkpt>
      <trkpt lat="43.64647" lon="1.21886">
        <ele>207.4</ele>
        <time>2025-10-18T08:59:55Z</time>
      </trkpt>
      <trkpt lat="43.64643" lon="1.21892">
        <ele>207.4</ele>
        <time>2025-10-18T08:59:56Z</time>
      </trkpt>
      <trkpt lat="43.64639" lon="1.21897">
        <ele>207.4</ele>
        <time>2025-10-18T08:59:57Z</time>
      </trkpt>
      <trkpt lat="43.64635" lon="1.21901">
        <ele>207.4</ele>
        <time>2025-10-18T08:59:58Z</time>
      </trkpt>
      <trkpt lat="43.6463" lon="1.21905">
        <ele>207.4</ele>
        <time>2025-10-18T08:59:59Z</time>
      </trkpt>
      <trkpt lat="43.64625" lon="1.2191">
        <ele>207.6</ele>
        <time>2025-10-18T09:00:00Z</time>
      </trkpt>
      <trkpt lat="43.64621" lon="1.21915">
        <ele>207.6</ele>
        <time>2025-10-18T09:00:01Z</time>
      </trkpt>
      <trkpt lat="43.64616" lon="1.2192">
        <ele>207.8</ele>
        <time>2025-10-18T09:00:02Z</time>
      </trkpt>
      <trkpt lat="43.64611" lon="1.21925">
        <ele>207.8</ele>
        <time>2025-10-18T09:00:03Z</time>
      </trkpt>
      <trkpt lat="43.64606" lon="1.2193">
        <ele>207.8</ele>
        <time>2025-10-18T09:00:04Z</time>
      </trkpt>
      <trkpt lat="43.64602" lon="1.21934">
        <ele>207.8</ele>
        <time>2025-10-18T09:00:05Z</time>
      </trkpt>
      <trkpt lat="43.64597" lon="1.21939">
        <ele>208</ele>
        <time>2025-10-18T09:00:06Z</time>
      </trkpt>
      <trkpt lat="43.64592" lon="1.21944">
        <ele>208</ele>
        <time>2025-10-18T09:00:07Z</time>
      </trkpt>
      <trkpt lat="43.64588" lon="1.21949">
        <ele>208</ele>
        <time>2025-10-18T09:00:08Z</time>
      </trkpt>
      <trkpt lat="43.64584" lon="1.21954">
        <ele>208.2</ele>
        <time>2025-10-18T09:00:09Z</time>
      </trkpt>
      <trkpt lat="43.64579" lon="1.21959">
        <ele>208.2</ele>
        <time>2025-10-18T09:00:10Z</time>
      </trkpt>
      <trkpt lat="43.64574" lon="1.21963">
        <ele>208</ele>
        <time>2025-10-18T09:00:11Z</time>
      </trkpt>
      <trkpt lat="43.6457" lon="1.21967">
        <ele>208.2</ele>
        <time>2025-10-18T09:00:12Z</time>
      </trkpt>
      <trkpt lat="43.64565" lon="1.21971">
        <ele>208</ele>
        <time>2025-10-18T09:00:13Z</time>
      </trkpt>
      <trkpt lat="43.6456" lon="1.21975">
        <ele>208.2</ele>
        <time>2025-10-18T09:00:14Z</time>
      </trkpt>
      <trkpt lat="43.64556" lon="1.21981">
        <ele>208.2</ele>
        <time>2025-10-18T09:00:15Z</time>
      </trkpt>
      <trkpt lat="43.64552" lon="1.21986">
        <ele>208.2</ele>
        <time>2025-10-18T09:00:16Z</time>
      </trkpt>
      <trkpt lat="43.64547" lon="1.21991">
        <ele>208.2</ele>
        <time>2025-10-18T09:00:17Z</time>
      </trkpt>
      <trkpt lat="43.64542" lon="1.21996">
        <ele>208.2</ele>
        <time>2025-10-18T09:00:18Z</time>
      </trkpt>
      <trkpt lat="43.64538" lon="1.22001">
        <ele>208.2</ele>
        <time>2025-10-18T09:00:19Z</time>
      </trkpt>
      <trkpt lat="43.64534" lon="1.22005">
        <ele>208.2</ele>
        <time>2025-10-18T09:00:20Z</time>
      </trkpt>
      <trkpt lat="43.64529" lon="1.2201">
        <ele>208.2</ele>
        <time>2025-10-18T09:00:21Z</time>
      </trkpt>
      <trkpt lat="43.64525" lon="1.22015">
        <ele>208.2</ele>
        <time>2025-10-18T09:00:22Z</time>
      </trkpt>
      <trkpt lat="43.6452" lon="1.22019">
        <ele>208.2</ele>
        <time>2025-10-18T09:00:23Z</time>
      </trkpt>
      <trkpt lat="43.64516" lon="1.22023">
        <ele>208.2</ele>
        <time>2025-10-18T09:00:24Z</time>
      </trkpt>
      <trkpt lat="43.64512" lon="1.22027">
        <ele>208.2</ele>
        <time>2025-10-18T09:00:25Z</time>
      </trkpt>
      <trkpt lat="43.64507" lon="1.22031">
        <ele>208.2</ele>
        <time>2025-10-18T09:00:26Z</time>
      </trkpt>
      <trkpt lat="43.64503" lon="1.22036">
        <ele>208.2</ele>
        <time>2025-10-18T09:00:27Z</time>
      </trkpt>
      <trkpt lat="43.64498" lon="1.22041">
        <ele>208.2</ele>
        <time>2025-10-18T09:00:28Z</time>
      </trkpt>
      <trkpt lat="43.64494" lon="1.22046">
        <ele>208.2</ele>
        <time>2025-10-18T09:00:29Z</time>
      </trkpt>
      <trkpt lat="43.6449" lon="1.22051">
        <ele>208.4</ele>
        <time>2025-10-18T09:00:30Z</time>
      </trkpt>
      <trkpt lat="43.64485" lon="1.22056">
        <ele>208.4</ele>
        <time>2025-10-18T09:00:31Z</time>
      </trkpt>
      <trkpt lat="43.6448" lon="1.22061">
        <ele>208.4</ele>
        <time>2025-10-18T09:00:32Z</time>
      </trkpt>
      <trkpt lat="43.64476" lon="1.22065">
        <ele>208.4</ele>
        <time>2025-10-18T09:00:33Z</time>
      </trkpt>
      <trkpt lat="43.64471" lon="1.22069">
        <ele>208.4</ele>
        <time>2025-10-18T09:00:34Z</time>
      </trkpt>
      <trkpt lat="43.64466" lon="1.22073">
        <ele>208.6</ele>
        <time>2025-10-18T09:00:35Z</time>
      </trkpt>
      <trkpt lat="43.64461" lon="1.22078">
        <ele>208.6</ele>
        <time>2025-10-18T09:00:36Z</time>
      </trkpt>
      <trkpt lat="43.64456" lon="1.22082">
        <ele>208.6</ele>
        <time>2025-10-18T09:00:37Z</time>
      </trkpt>
      <trkpt lat="43.64452" lon="1.22088">
        <ele>208.8</ele>
        <time>2025-10-18T09:00:38Z</time>
      </trkpt>
      <trkpt lat="43.64447" lon="1.22093">
        <ele>208.8</ele>
        <time>2025-10-18T09:00:39Z</time>
      </trkpt>
      <trkpt lat="43.64443" lon="1.22097">
        <ele>209</ele>
        <time>2025-10-18T09:00:40Z</time>
      </trkpt>
      <trkpt lat="43.64439" lon="1.22101">
        <ele>209</ele>
        <time>2025-10-18T09:00:41Z</time>
      </trkpt>
      <trkpt lat="43.64434" lon="1.22105">
        <ele>209.2</ele>
        <time>2025-10-18T09:00:42Z</time>
      </trkpt>
      <trkpt lat="43.6443" lon="1.2211">
        <ele>209</ele>
        <time>2025-10-18T09:00:43Z</time>
      </trkpt>
      <trkpt lat="43.64426" lon="1.22115">
        <ele>209</ele>
        <time>2025-10-18T09:00:44Z</time>
      </trkpt>
      <trkpt lat="43.64422" lon="1.2212">
        <ele>209</ele>
        <time>2025-10-18T09:00:45Z</time>
      </trkpt>
      <trkpt lat="43.64418" lon="1.22125">
        <ele>209</ele>
        <time>2025-10-18T09:00:46Z</time>
      </trkpt>
      <trkpt lat="43.64413" lon="1.22129">
        <ele>208.8</ele>
        <time>2025-10-18T09:00:47Z</time>
      </trkpt>
      <trkpt lat="43.64408" lon="1.22134">
        <ele>208.6</ele>
        <time>2025-10-18T09:00:48Z</time>
      </trkpt>
      <trkpt lat="43.64404" lon="1.22139">
        <ele>208.6</ele>
        <time>2025-10-18T09:00:49Z</time>
      </trkpt>
      <trkpt lat="43.64399" lon="1.22143">
        <ele>208.6</ele>
        <time>2025-10-18T09:00:50Z</time>
      </trkpt>
      <trkpt lat="43.64395" lon="1.22147">
        <ele>208.4</ele>
        <time>2025-10-18T09:00:51Z</time>
      </trkpt>
      <trkpt lat="43.64392" lon="1.2215">
        <ele>208.6</ele>
        <time>2025-10-18T09:00:52Z</time>
      </trkpt>
      <trkpt lat="43.6439" lon="1.22152">
        <ele>208.8</ele>
        <time>2025-10-18T09:00:53Z</time>
      </trkpt>
      <trkpt lat="43.64388" lon="1.22155">
        <ele>209</ele>
        <time>2025-10-18T09:00:54Z</time>
      </trkpt>
      <trkpt lat="43.64385" lon="1.22157">
        <ele>209</ele>
        <time>2025-10-18T09:00:55Z</time>
      </trkpt>
      <trkpt lat="43.64382" lon="1.22159">
        <ele>209.2</ele>
        <time>2025-10-18T09:00:56Z</time>
      </trkpt>
      <trkpt lat="43.64379" lon="1.22162">
        <ele>209.2</ele>
        <time>2025-10-18T09:00:57Z</time>
      </trkpt>
      <trkpt lat="43.64376" lon="1.22166">
        <ele>209.2</ele>
        <time>2025-10-18T09:00:58Z</time>
      </trkpt>
      <trkpt lat="43.64373" lon="1.22169">
        <ele>209.2</ele>
        <time>2025-10-18T09:00:59Z</time>
      </trkpt>
      <trkpt lat="43.6437" lon="1.22173">
        <ele>209.2</ele>
        <time>2025-10-18T09:01:00Z</time>
      </trkpt>
      <trkpt lat="43.64367" lon="1.22175">
        <ele>209.2</ele>
        <time>2025-10-18T09:01:01Z</time>
      </trkpt>
      <trkpt lat="43.64364" lon="1.22178">
        <ele>209.2</ele>
        <time>2025-10-18T09:01:02Z</time>
      </trkpt>
      <trkpt lat="43.64361" lon="1.22182">
        <ele>209.2</ele>
        <time>2025-10-18T09:01:03Z</time>
      </trkpt>
      <trkpt lat="43.64358" lon="1.22185">
        <ele>209.2</ele>
        <time>2025-10-18T09:01:04Z</time>
      </trkpt>
      <trkpt lat="43.64355" lon="1.22189">
        <ele>209.2</ele>
        <time>2025-10-18T09:01:05Z</time>
      </trkpt>
      <trkpt lat="43.64353" lon="1.22192">
        <ele>209.2</ele>
        <time>2025-10-18T09:01:06Z</time>
      </trkpt>
      <trkpt lat="43.6435" lon="1.22195">
        <ele>209.4</ele>
        <time>2025-10-18T09:01:07Z</time>
      </trkpt>
      <trkpt lat="43.64348" lon="1.22197">
        <ele>209.4</ele>
        <time>2025-10-18T09:01:08Z</time>
      </trkpt>
      <trkpt lat="43.64345" lon="1.222">
        <ele>209.4</ele>
        <time>2025-10-18T09:01:09Z</time>
      </trkpt>
      <trkpt lat="43.64342" lon="1.22203">
        <ele>209.4</ele>
        <time>2025-10-18T09:01:10Z</time>
      </trkpt>
      <trkpt lat="43.64339" lon="1.22206">
        <ele>209.4</ele>
        <time>2025-10-18T09:01:11Z</time>
      </trkpt>
      <trkpt lat="43.64335" lon="1.22209">
        <ele>209.4</ele>
        <time>2025-10-18T09:01:12Z</time>
      </trkpt>
      <trkpt lat="43.64332" lon="1.22212">
        <ele>209.4</ele>
        <time>2025-10-18T09:01:13Z</time>
      </trkpt>
      <trkpt lat="43.64329" lon="1.22215">
        <ele>209.2</ele>
        <time>2025-10-18T09:01:14Z</time>
      </trkpt>
      <trkpt lat="43.64326" lon="1.22219">
        <ele>209.2</ele>
        <time>2025-10-18T09:01:15Z</time>
      </trkpt>
      <trkpt lat="43.64324" lon="1.22221">
        <ele>209</ele>
        <time>2025-10-18T09:01:16Z</time>
      </trkpt>
      <trkpt lat="43.64321" lon="1.22225">
        <ele>209</ele>
        <time>2025-10-18T09:01:17Z</time>
      </trkpt>
      <trkpt lat="43.64318" lon="1.22227">
        <ele>209</ele>
        <time>2025-10-18T09:01:18Z</time>
      </trkpt>
      <trkpt lat="43.64316" lon="1.2223">
        <ele>209</ele>
        <time>2025-10-18T09:01:19Z</time>
      </trkpt>
      <trkpt lat="43.64314" lon="1.22233">
        <ele>209.2</ele>
        <time>2025-10-18T09:01:20Z</time>
      </trkpt>
      <trkpt lat="43.64311" lon="1.22236">
        <ele>209.2</ele>
        <time>2025-10-18T09:01:21Z</time>
      </trkpt>
      <trkpt lat="43.64309" lon="1.22239">
        <ele>209.2</ele>
        <time>2025-10-18T09:01:22Z</time>
      </trkpt>
      <trkpt lat="43.64305" lon="1.22242">
        <ele>209.2</ele>
        <time>2025-10-18T09:01:23Z</time>
      </trkpt>
      <trkpt lat="43.64302" lon="1.22245">
        <ele>209.2</ele>
        <time>2025-10-18T09:01:24Z</time>
      </trkpt>
      <trkpt lat="43.643" lon="1.22248">
        <ele>209.2</ele>
        <time>2025-10-18T09:01:25Z</time>
      </trkpt>
      <trkpt lat="43.64297" lon="1.22251">
        <ele>209.4</ele>
        <time>2025-10-18T09:01:26Z</time>
      </trkpt>
      <trkpt lat="43.64293" lon="1.22254">
        <ele>209.4</ele>
        <time>2025-10-18T09:01:27Z</time>
      </trkpt>
      <trkpt lat="43.64291" lon="1.22256">
        <ele>209.4</ele>
        <time>2025-10-18T09:01:28Z</time>
      </trkpt>
      <trkpt lat="43.64288" lon="1.22259">
        <ele>209.4</ele>
        <time>2025-10-18T09:01:29Z</time>
      </trkpt>
      <trkpt lat="43.64286" lon="1.22261">
        <ele>209.4</ele>
        <time>2025-10-18T09:01:30Z</time>
      </trkpt>
      <trkpt lat="43.64284" lon="1.22264">
        <ele>209.6</ele>
        <time>2025-10-18T09:01:31Z</time>
      </trkpt>
      <trkpt lat="43.64281" lon="1.22267">
        <ele>209.4</ele>
        <time>2025-10-18T09:01:32Z</time>
      </trkpt>
      <trkpt lat="43.64278" lon="1.2227">
        <ele>209.4</ele>
        <time>2025-10-18T09:01:33Z</time>
      </trkpt>
      <trkpt lat="43.64275" lon="1.22273">
        <ele>209.4</ele>
        <time>2025-10-18T09:01:34Z</time>
      </trkpt>
      <trkpt lat="43.64271" lon="1.22277">
        <ele>209.2</ele>
        <time>2025-10-18T09:01:35Z</time>
      </trkpt>
      <trkpt lat="43.64268" lon="1.22279">
        <ele>209.2</ele>
        <time>2025-10-18T09:01:36Z</time>
      </trkpt>
      <trkpt lat="43.64266" lon="1.22282">
        <ele>209.2</ele>
        <time>2025-10-18T09:01:37Z</time>
      </trkpt>
      <trkpt lat="43.64264" lon="1.22284">
        <ele>209.2</ele>
        <time>2025-10-18T09:01:38Z</time>
      </trkpt>
      <trkpt lat="43.64264" lon="1.22286">
        <ele>209.2</ele>
        <time>2025-10-18T09:01:39Z</time>
      </trkpt>
      <trkpt lat="43.64263" lon="1.22287">
        <ele>209.2</ele>
        <time>2025-10-18T09:01:40Z</time>
      </trkpt>
      <trkpt lat="43.64262" lon="1.22287">
        <ele>209.4</ele>
        <time>2025-10-18T09:01:41Z</time>
      </trkpt>
      <trkpt lat="43.64262" lon="1.22287">
        <ele>209.4</ele>
        <time>2025-10-18T09:01:42Z</time>
      </trkpt>
      <trkpt lat="43.64257" lon="1.22295">
        <ele>209.2</ele>
        <time>2025-10-18T09:04:43Z</time>
      </trkpt>
      <trkpt lat="43.64256" lon="1.22296">
        <ele>209.2</ele>
        <time>2025-10-18T09:04:44Z</time>
      </trkpt>
      <trkpt lat="43.64254" lon="1.22297">
        <ele>209.2</ele>
        <time>2025-10-18T09:04:45Z</time>
      </trkpt>
      <trkpt lat="43.64253" lon="1.22298">
        <ele>209.4</ele>
        <time>2025-10-18T09:04:46Z</time>
      </trkpt>
      <trkpt lat="43.64251" lon="1.22299">
        <ele>209.4</ele>
        <time>2025-10-18T09:04:47Z</time>
      </trkpt>
      <trkpt lat="43.6425" lon="1.223">
        <ele>209.4</ele>
        <time>2025-10-18T09:04:48Z</time>
      </trkpt>
      <trkpt lat="43.64247" lon="1.22301">
        <ele>209.2</ele>
        <time>2025-10-18T09:04:49Z</time>
      </trkpt>
      <trkpt lat="43.64246" lon="1.22302">
        <ele>209.4</ele>
        <time>2025-10-18T09:04:50Z</time>
      </trkpt>
      <trkpt lat="43.64244" lon="1.22303">
        <ele>209.4</ele>
        <time>2025-10-18T09:04:51Z</time>
      </trkpt>
      <trkpt lat="43.64243" lon="1.22305">
        <ele>209.4</ele>
        <time>2025-10-18T09:04:52Z</time>
      </trkpt>
      <trkpt lat="43.64242" lon="1.22306">
        <ele>209.6</ele>
        <time>2025-10-18T09:04:53Z</time>
      </trkpt>
      <trkpt lat="43.64241" lon="1.22308">
        <ele>209.6</ele>
        <time>2025-10-18T09:04:54Z</time>
      </trkpt>
      <trkpt lat="43.6424" lon="1.22308">
        <ele>209.8</ele>
        <time>2025-10-18T09:04:55Z</time>
      </trkpt>
      <trkpt lat="43.64239" lon="1.22309">
        <ele>209.8</ele>
        <time>2025-10-18T09:04:56Z</time>
      </trkpt>
      <trkpt lat="43.64237" lon="1.22311">
        <ele>210</ele>
        <time>2025-10-18T09:04:57Z</time>
      </trkpt>
      <trkpt lat="43.64235" lon="1.22313">
        <ele>209.8</ele>
        <time>2025-10-18T09:04:58Z</time>
      </trkpt>
      <trkpt lat="43.64233" lon="1.22315">
        <ele>209.8</ele>
        <time>2025-10-18T09:04:59Z</time>
      </trkpt>
      <trkpt lat="43.64232" lon="1.22317">
        <ele>209.6</ele>
        <time>2025-10-18T09:05:00Z</time>
      </trkpt>
      <trkpt lat="43.6423" lon="1.22319">
        <ele>209.6</ele>
        <time>2025-10-18T09:05:01Z</time>
      </trkpt>
      <trkpt lat="43.64229" lon="1.22321">
        <ele>209.6</ele>
        <time>2025-10-18T09:05:02Z</time>
      </trkpt>
      <trkpt lat="43.64228" lon="1.22322">
        <ele>209.6</ele>
        <time>2025-10-18T09:05:03Z</time>
      </trkpt>
      <trkpt lat="43.64226" lon="1.22323">
        <ele>209.6</ele>
        <time>2025-10-18T09:05:04Z</time>
      </trkpt>
      <trkpt lat="43.64224" lon="1.22324">
        <ele>209.6</ele>
        <time>2025-10-18T09:05:05Z</time>
      </trkpt>
      <trkpt lat="43.64223" lon="1.22325">
        <ele>209.8</ele>
        <time>2025-10-18T09:05:06Z</time>
      </trkpt>
      <trkpt lat="43.64221" lon="1.22326">
        <ele>209.8</ele>
        <time>2025-10-18T09:05:07Z</time>
      </trkpt>
      <trkpt lat="43.64219" lon="1.22326">
        <ele>209.8</ele>
        <time>2025-10-18T09:05:08Z</time>
      </trkpt>
      <trkpt lat="43.64217" lon="1.22327">
        <ele>210</ele>
        <time>2025-10-18T09:05:09Z</time>
      </trkpt>
      <trkpt lat="43.64214" lon="1.2233">
        <ele>209.8</ele>
        <time>2025-10-18T09:05:10Z</time>
      </trkpt>
      <trkpt lat="43.64212" lon="1.22334">
        <ele>209.8</ele>
        <time>2025-10-18T09:05:11Z</time>
      </trkpt>
      <trkpt lat="43.6421" lon="1.22337">
        <ele>209.6</ele>
        <time>2025-10-18T09:05:12Z</time>
      </trkpt>
      <trkpt lat="43.64208" lon="1.22339">
        <ele>209.6</ele>
        <time>2025-10-18T09:05:13Z</time>
      </trkpt>
      <trkpt lat="43.64204" lon="1.22339">
        <ele>209.6</ele>
        <time>2025-10-18T09:05:14Z</time>
      </trkpt>
      <trkpt lat="43.64201" lon="1.22339">
        <ele>209.6</ele>
        <time>2025-10-18T09:05:15Z</time>
      </trkpt>
      <trkpt lat="43.64198" lon="1.22339">
        <ele>209.8</ele>
        <time>2025-10-18T09:05:16Z</time>
      </trkpt>
      <trkpt lat="43.64196" lon="1.2234">
        <ele>209.8</ele>
        <time>2025-10-18T09:05:17Z</time>
      </trkpt>
      <trkpt lat="43.64193" lon="1.22343">
        <ele>209.8</ele>
        <time>2025-10-18T09:05:18Z</time>
      </trkpt>
      <trkpt lat="43.64191" lon="1.22346">
        <ele>209.6</ele>
        <time>2025-10-18T09:05:19Z</time>
      </trkpt>
      <trkpt lat="43.64189" lon="1.22349">
        <ele>209.6</ele>
        <time>2025-10-18T09:05:20Z</time>
      </trkpt>
      <trkpt lat="43.64186" lon="1.22351">
        <ele>209.6</ele>
        <time>2025-10-18T09:05:21Z</time>
      </trkpt>
      <trkpt lat="43.64184" lon="1.22354">
        <ele>209.6</ele>
        <time>2025-10-18T09:05:22Z</time>
      </trkpt>
      <trkpt lat="43.64181" lon="1.22356">
        <ele>209.6</ele>
        <time>2025-10-18T09:05:23Z</time>
      </trkpt>
      <trkpt lat="43.64178" lon="1.22359">
        <ele>209.8</ele>
        <time>2025-10-18T09:05:24Z</time>
      </trkpt>
      <trkpt lat="43.64175" lon="1.22362">
        <ele>209.8</ele>
        <time>2025-10-18T09:05:25Z</time>
      </trkpt>
      <trkpt lat="43.64171" lon="1.22364">
        <ele>209.8</ele>
        <time>2025-10-18T09:05:26Z</time>
      </trkpt>
      <trkpt lat="43.64167" lon="1.22367">
        <ele>209.6</ele>
        <time>2025-10-18T09:05:27Z</time>
      </trkpt>
      <trkpt lat="43.64163" lon="1.22368">
        <ele>209.4</ele>
        <time>2025-10-18T09:05:28Z</time>
      </trkpt>
      <trkpt lat="43.64159" lon="1.22368">
        <ele>209.4</ele>
        <time>2025-10-18T09:05:29Z</time>
      </trkpt>
      <trkpt lat="43.64154" lon="1.22368">
        <ele>209.2</ele>
        <time>2025-10-18T09:05:30Z</time>
      </trkpt>
      <trkpt lat="43.6415" lon="1.22371">
        <ele>209</ele>
        <time>2025-10-18T09:05:31Z</time>
      </trkpt>
      <trkpt lat="43.64146" lon="1.22374">
        <ele>208.8</ele>
        <time>2025-10-18T09:05:32Z</time>
      </trkpt>
      <trkpt lat="43.64142" lon="1.22378">
        <ele>208.8</ele>
        <time>2025-10-18T09:05:33Z</time>
      </trkpt>
      <trkpt lat="43.64139" lon="1.22381">
        <ele>208.6</ele>
        <time>2025-10-18T09:05:34Z</time>
      </trkpt>
      <trkpt lat="43.64137" lon="1.22386">
        <ele>208.4</ele>
        <time>2025-10-18T09:05:35Z</time>
      </trkpt>
      <trkpt lat="43.64135" lon="1.22393">
        <ele>208.2</ele>
        <time>2025-10-18T09:05:36Z</time>
      </trkpt>
      <trkpt lat="43.64134" lon="1.224">
        <ele>208</ele>
        <time>2025-10-18T09:05:37Z</time>
      </trkpt>
      <trkpt lat="43.64134" lon="1.22408">
        <ele>207.8</ele>
        <time>2025-10-18T09:05:38Z</time>
      </trkpt>
      <trkpt lat="43.64133" lon="1.22416">
        <ele>207.8</ele>
        <time>2025-10-18T09:05:39Z</time>
      </trkpt>
      <trkpt lat="43.64131" lon="1.22424">
        <ele>207.6</ele>
        <time>2025-10-18T09:05:40Z</time>
      </trkpt>
      <trkpt lat="43.64131" lon="1.22432">
        <ele>207.6</ele>
        <time>2025-10-18T09:05:41Z</time>
      </trkpt>
      <trkpt lat="43.64131" lon="1.22441">
        <ele>207.6</ele>
        <time>2025-10-18T09:05:42Z</time>
      </trkpt>
      <trkpt lat="43.64131" lon="1.22449">
        <ele>207.4</ele>
        <time>2025-10-18T09:05:43Z</time>
      </trkpt>
      <trkpt lat="43.64131" lon="1.22457">
        <ele>207.4</ele>
        <time>2025-10-18T09:05:44Z</time>
      </trkpt>
      <trkpt lat="43.64131" lon="1.22465">
        <ele>207.2</ele>
        <time>2025-10-18T09:05:45Z</time>
      </trkpt>
      <trkpt lat="43.64131" lon="1.22472">
        <ele>207.2</ele>
        <time>2025-10-18T09:05:46Z</time>
      </trkpt>
      <trkpt lat="43.6413" lon="1.2248">
        <ele>207.2</ele>
        <time>2025-10-18T09:05:47Z</time>
      </trkpt>
      <trkpt lat="43.6413" lon="1.22488">
        <ele>207.2</ele>
        <time>2025-10-18T09:05:48Z</time>
      </trkpt>
      <trkpt lat="43.6413" lon="1.22495">
        <ele>207.2</ele>
        <time>2025-10-18T09:05:49Z</time>
      </trkpt>
      <trkpt lat="43.64128" lon="1.22502">
        <ele>207.2</ele>
        <time>2025-10-18T09:05:50Z</time>
      </trkpt>
      <trkpt lat="43.64126" lon="1.22509">
        <ele>207.4</ele>
        <time>2025-10-18T09:05:51Z</time>
      </trkpt>
      <trkpt lat="43.64125" lon="1.22515">
        <ele>207.4</ele>
        <time>2025-10-18T09:05:52Z</time>
      </trkpt>
      <trkpt lat="43.64124" lon="1.22522">
        <ele>207.4</ele>
        <time>2025-10-18T09:05:53Z</time>
      </trkpt>
      <trkpt lat="43.64123" lon="1.22529">
        <ele>207.6</ele>
        <time>2025-10-18T09:05:54Z</time>
      </trkpt>
      <trkpt lat="43.64123" lon="1.22535">
        <ele>207.6</ele>
        <time>2025-10-18T09:05:55Z</time>
      </trkpt>
      <trkpt lat="43.64122" lon="1.22541">
        <ele>207.8</ele>
        <time>2025-10-18T09:05:56Z</time>
      </trkpt>
      <trkpt lat="43.64121" lon="1.22547">
        <ele>207.8</ele>
        <time>2025-10-18T09:05:57Z</time>
      </trkpt>
      <trkpt lat="43.64121" lon="1.22554">
        <ele>208</ele>
        <time>2025-10-18T09:05:58Z</time>
      </trkpt>
      <trkpt lat="43.64121" lon="1.2256">
        <ele>208</ele>
        <time>2025-10-18T09:05:59Z</time>
      </trkpt>
      <trkpt lat="43.64121" lon="1.22567">
        <ele>208</ele>
        <time>2025-10-18T09:06:00Z</time>
      </trkpt>
      <trkpt lat="43.6412" lon="1.22573">
        <ele>208.2</ele>
        <time>2025-10-18T09:06:01Z</time>
      </trkpt>
      <trkpt lat="43.64119" lon="1.22579">
        <ele>208</ele>
        <time>2025-10-18T09:06:02Z</time>
      </trkpt>
      <trkpt lat="43.64116" lon="1.22583">
        <ele>208.2</ele>
        <time>2025-10-18T09:06:03Z</time>
      </trkpt>
      <trkpt lat="43.64113" lon="1.22586">
        <ele>208.2</ele>
        <time>2025-10-18T09:06:04Z</time>
      </trkpt>
      <trkpt lat="43.64109" lon="1.2259">
        <ele>208</ele>
        <time>2025-10-18T09:06:05Z</time>
      </trkpt>
      <trkpt lat="43.64104" lon="1.22592">
        <ele>208</ele>
        <time>2025-10-18T09:06:06Z</time>
      </trkpt>
      <trkpt lat="43.641" lon="1.22595">
        <ele>207.8</ele>
        <time>2025-10-18T09:06:07Z</time>
      </trkpt>
      <trkpt lat="43.64095" lon="1.22597">
        <ele>207.6</ele>
        <time>2025-10-18T09:06:08Z</time>
      </trkpt>
      <trkpt lat="43.64091" lon="1.22601">
        <ele>207.4</ele>
        <time>2025-10-18T09:06:09Z</time>
      </trkpt>
      <trkpt lat="43.64086" lon="1.22605">
        <ele>207.4</ele>
        <time>2025-10-18T09:06:10Z</time>
      </trkpt>
      <trkpt lat="43.64082" lon="1.2261">
        <ele>207.2</ele>
        <time>2025-10-18T09:06:11Z</time>
      </trkpt>
      <trkpt lat="43.64079" lon="1.22616">
        <ele>207</ele>
        <time>2025-10-18T09:06:12Z</time>
      </trkpt>
      <trkpt lat="43.64077" lon="1.22622">
        <ele>206.8</ele>
        <time>2025-10-18T09:06:13Z</time>
      </trkpt>
      <trkpt lat="43.64075" lon="1.22629">
        <ele>206.6</ele>
        <time>2025-10-18T09:06:14Z</time>
      </trkpt>
      <trkpt lat="43.64074" lon="1.22636">
        <ele>206.4</ele>
        <time>2025-10-18T09:06:15Z</time>
      </trkpt>
      <trkpt lat="43.64073" lon="1.22642">
        <ele>206.2</ele>
        <time>2025-10-18T09:06:16Z</time>
      </trkpt>
      <trkpt lat="43.64073" lon="1.22648">
        <ele>206.2</ele>
        <time>2025-10-18T09:06:17Z</time>
      </trkpt>
      <trkpt lat="43.64073" lon="1.22655">
        <ele>206</ele>
        <time>2025-10-18T09:06:18Z</time>
      </trkpt>
      <trkpt lat="43.64073" lon="1.22663">
        <ele>206</ele>
        <time>2025-10-18T09:06:19Z</time>
      </trkpt>
      <trkpt lat="43.64073" lon="1.2267">
        <ele>206</ele>
        <time>2025-10-18T09:06:20Z</time>
      </trkpt>
      <trkpt lat="43.64072" lon="1.22678">
        <ele>205.8</ele>
        <time>2025-10-18T09:06:21Z</time>
      </trkpt>
      <trkpt lat="43.64072" lon="1.22686">
        <ele>205.8</ele>
        <time>2025-10-18T09:06:22Z</time>
      </trkpt>
      <trkpt lat="43.64073" lon="1.22694">
        <ele>205.6</ele>
        <time>2025-10-18T09:06:23Z</time>
      </trkpt>
      <trkpt lat="43.64074" lon="1.22702">
        <ele>205.6</ele>
        <time>2025-10-18T09:06:24Z</time>
      </trkpt>
      <trkpt lat="43.64075" lon="1.2271">
        <ele>205.6</ele>
        <time>2025-10-18T09:06:25Z</time>
      </trkpt>
      <trkpt lat="43.64077" lon="1.22717">
        <ele>205.6</ele>
        <time>2025-10-18T09:06:26Z</time>
      </trkpt>
      <trkpt lat="43.64077" lon="1.22725">
        <ele>205.4</ele>
        <time>2025-10-18T09:06:27Z</time>
      </trkpt>
      <trkpt lat="43.64076" lon="1.22733">
        <ele>205.4</ele>
        <time>2025-10-18T09:06:28Z</time>
      </trkpt>
      <trkpt lat="43.64076" lon="1.2274">
        <ele>205.4</ele>
        <time>2025-10-18T09:06:29Z</time>
      </trkpt>
      <trkpt lat="43.64076" lon="1.22747">
        <ele>205.4</ele>
        <time>2025-10-18T09:06:30Z</time>
      </trkpt>
      <trkpt lat="43.64076" lon="1.22754">
        <ele>205.2</ele>
        <time>2025-10-18T09:06:31Z</time>
      </trkpt>
      <trkpt lat="43.64076" lon="1.22761">
        <ele>205.2</ele>
        <time>2025-10-18T09:06:32Z</time>
      </trkpt>
      <trkpt lat="43.64076" lon="1.22767">
        <ele>205.4</ele>
        <time>2025-10-18T09:06:33Z</time>
      </trkpt>
      <trkpt lat="43.64076" lon="1.22774">
        <ele>205.4</ele>
        <time>2025-10-18T09:06:34Z</time>
      </trkpt>
      <trkpt lat="43.64075" lon="1.2278">
        <ele>205.6</ele>
        <time>2025-10-18T09:06:35Z</time>
      </trkpt>
      <trkpt lat="43.64075" lon="1.22787">
        <ele>205.8</ele>
        <time>2025-10-18T09:06:36Z</time>
      </trkpt>
      <trkpt lat="43.64074" lon="1.22794">
        <ele>205.8</ele>
        <time>2025-10-18T09:06:37Z</time>
      </trkpt>
      <trkpt lat="43.64074" lon="1.22801">
        <ele>205.8</ele>
        <time>2025-10-18T09:06:38Z</time>
      </trkpt>
      <trkpt lat="43.64074" lon="1.22807">
        <ele>205.8</ele>
        <time>2025-10-18T09:06:39Z</time>
      </trkpt>
      <trkpt lat="43.64074" lon="1.22813">
        <ele>205.6</ele>
        <time>2025-10-18T09:06:40Z</time>
      </trkpt>
      <trkpt lat="43.64075" lon="1.2282">
        <ele>205.6</ele>
        <time>2025-10-18T09:06:41Z</time>
      </trkpt>
      <trkpt lat="43.64076" lon="1.22827">
        <ele>205.6</ele>
        <time>2025-10-18T09:06:42Z</time>
      </trkpt>
      <trkpt lat="43.64077" lon="1.22832">
        <ele>205.6</ele>
        <time>2025-10-18T09:06:43Z</time>
      </trkpt>
      <trkpt lat="43.64077" lon="1.22839">
        <ele>205.4</ele>
        <time>2025-10-18T09:06:44Z</time>
      </trkpt>
      <trkpt lat="43.64078" lon="1.22845">
        <ele>205.4</ele>
        <time>2025-10-18T09:06:45Z</time>
      </trkpt>
      <trkpt lat="43.6408" lon="1.2285">
        <ele>205.2</ele>
        <time>2025-10-18T09:06:46Z</time>
      </trkpt>
      <trkpt lat="43.6408" lon="1.22856">
        <ele>205.4</ele>
        <time>2025-10-18T09:06:47Z</time>
      </trkpt>
      <trkpt lat="43.64081" lon="1.22861">
        <ele>205.4</ele>
        <time>2025-10-18T09:06:48Z</time>
      </trkpt>
      <trkpt lat="43.64081" lon="1.22866">
        <ele>205.6</ele>
        <time>2025-10-18T09:06:49Z</time>
      </trkpt>
      <trkpt lat="43.64082" lon="1.22871">
        <ele>205.8</ele>
        <time>2025-10-18T09:06:50Z</time>
      </trkpt>
      <trkpt lat="43.64082" lon="1.22876">
        <ele>205.8</ele>
        <time>2025-10-18T09:06:51Z</time>
      </trkpt>
      <trkpt lat="43.64082" lon="1.22882">
        <ele>206</ele>
        <time>2025-10-18T09:06:52Z</time>
      </trkpt>
      <trkpt lat="43.64081" lon="1.22889">
        <ele>206</ele>
        <time>2025-10-18T09:06:53Z</time>
      </trkpt>
      <trkpt lat="43.64081" lon="1.22895">
        <ele>206</ele>
        <time>2025-10-18T09:06:54Z</time>
      </trkpt>
      <trkpt lat="43.64081" lon="1.22902">
        <ele>206</ele>
        <time>2025-10-18T09:06:55Z</time>
      </trkpt>
      <trkpt lat="43.64081" lon="1.2291">
        <ele>206</ele>
        <time>2025-10-18T09:06:56Z</time>
      </trkpt>
      <trkpt lat="43.64082" lon="1.22917">
        <ele>206</ele>
        <time>2025-10-18T09:06:57Z</time>
      </trkpt>
      <trkpt lat="43.64083" lon="1.22923">
        <ele>206</ele>
        <time>2025-10-18T09:06:58Z</time>
      </trkpt>
      <trkpt lat="43.64084" lon="1.22928">
        <ele>206.2</ele>
        <time>2025-10-18T09:06:59Z</time>
      </trkpt>
      <trkpt lat="43.64086" lon="1.22932">
        <ele>206.4</ele>
        <time>2025-10-18T09:07:00Z</time>
      </trkpt>
      <trkpt lat="43.64088" lon="1.22935">
        <ele>206.6</ele>
        <time>2025-10-18T09:07:01Z</time>
      </trkpt>
      <trkpt lat="43.6409" lon="1.2294">
        <ele>206.8</ele>
        <time>2025-10-18T09:07:02Z</time>
      </trkpt>
      <trkpt lat="43.64093" lon="1.22944">
        <ele>207.2</ele>
        <time>2025-10-18T09:07:03Z</time>
      </trkpt>
      <trkpt lat="43.64095" lon="1.22946">
        <ele>207.6</ele>
        <time>2025-10-18T09:07:04Z</time>
      </trkpt>
      <trkpt lat="43.64097" lon="1.22949">
        <ele>207.8</ele>
        <time>2025-10-18T09:07:05Z</time>
      </trkpt>
      <trkpt lat="43.64099" lon="1.22952">
        <ele>208</ele>
        <time>2025-10-18T09:07:06Z</time>
      </trkpt>
      <trkpt lat="43.64101" lon="1.22954">
        <ele>208</ele>
        <time>2025-10-18T09:07:07Z</time>
      </trkpt>
      <trkpt lat="43.64103" lon="1.22957">
        <ele>208.2</ele>
        <time>2025-10-18T09:07:08Z</time>
      </trkpt>
      <trkpt lat="43.64104" lon="1.22962">
        <ele>208.2</ele>
        <time>2025-10-18T09:07:09Z</time>
      </trkpt>
      <trkpt lat="43.64103" lon="1.22966">
        <ele>208.2</ele>
        <time>2025-10-18T09:07:10Z</time>
      </trkpt>
      <trkpt lat="43.64102" lon="1.2297">
        <ele>208.2</ele>
        <time>2025-10-18T09:07:11Z</time>
      </trkpt>
      <trkpt lat="43.64102" lon="1.22975">
        <ele>208</ele>
        <time>2025-10-18T09:07:12Z</time>
      </trkpt>
      <trkpt lat="43.641" lon="1.2298">
        <ele>208</ele>
        <time>2025-10-18T09:07:13Z</time>
      </trkpt>
      <trkpt lat="43.64099" lon="1.22985">
        <ele>207.8</ele>
        <time>2025-10-18T09:07:14Z</time>
      </trkpt>
      <trkpt lat="43.64098" lon="1.2299">
        <ele>207.8</ele>
        <time>2025-10-18T09:07:15Z</time>
      </trkpt>
      <trkpt lat="43.64097" lon="1.22996">
        <ele>207.8</ele>
        <time>2025-10-18T09:07:16Z</time>
      </trkpt>
      <trkpt lat="43.64095" lon="1.23002">
        <ele>207.8</ele>
        <time>2025-10-18T09:07:17Z</time>
      </trkpt>
      <trkpt lat="43.64094" lon="1.23008">
        <ele>207.6</ele>
        <time>2025-10-18T09:07:18Z</time>
      </trkpt>
      <trkpt lat="43.64093" lon="1.23013">
        <ele>207.6</ele>
        <time>2025-10-18T09:07:19Z</time>
      </trkpt>
      <trkpt lat="43.64092" lon="1.23019">
        <ele>207.6</ele>
        <time>2025-10-18T09:07:20Z</time>
      </trkpt>
      <trkpt lat="43.64091" lon="1.23025">
        <ele>207.4</ele>
        <time>2025-10-18T09:07:21Z</time>
      </trkpt>
      <trkpt lat="43.64089" lon="1.23031">
        <ele>207.4</ele>
        <time>2025-10-18T09:07:22Z</time>
      </trkpt>
      <trkpt lat="43.64086" lon="1.23036">
        <ele>207.2</ele>
        <time>2025-10-18T09:07:23Z</time>
      </trkpt>
      <trkpt lat="43.64082" lon="1.23041">
        <ele>207.2</ele>
        <time>2025-10-18T09:07:24Z</time>
      </trkpt>
      <trkpt lat="43.64079" lon="1.23044">
        <ele>207</ele>
        <time>2025-10-18T09:07:25Z</time>
      </trkpt>
      <trkpt lat="43.64077" lon="1.23046">
        <ele>207</ele>
        <time>2025-10-18T09:07:26Z</time>
      </trkpt>
      <trkpt lat="43.64074" lon="1.23048">
        <ele>206.8</ele>
        <time>2025-10-18T09:07:27Z</time>
      </trkpt>
      <trkpt lat="43.64073" lon="1.23049">
        <ele>206.8</ele>
        <time>2025-10-18T09:07:28Z</time>
      </trkpt>
      <trkpt lat="43.64072" lon="1.2305">
        <ele>206.8</ele>
        <time>2025-10-18T09:07:29Z</time>
      </trkpt>
      <trkpt lat="43.64072" lon="1.2305">
        <ele>206.8</ele>
        <time>2025-10-18T09:07:30Z</time>
      </trkpt>
      <trkpt lat="43.64071" lon="1.23052">
        <ele>206.8</ele>
        <time>2025-10-18T09:07:31Z</time>
      </trkpt>
      <trkpt lat="43.64072" lon="1.23053">
        <ele>206.8</ele>
        <time>2025-10-18T09:07:32Z</time>
      </trkpt>
      <trkpt lat="43.64072" lon="1.23055">
        <ele>206.8</ele>
        <time>2025-10-18T09:07:33Z</time>
      </trkpt>
      <trkpt lat="43.64071" lon="1.23058">
        <ele>206.8</ele>
        <time>2025-10-18T09:07:34Z</time>
      </trkpt>
      <trkpt lat="43.6407" lon="1.23062">
        <ele>206.8</ele>
        <time>2025-10-18T09:07:35Z</time>
      </trkpt>
      <trkpt lat="43.64069" lon="1.23064">
        <ele>206.8</ele>
        <time>2025-10-18T09:07:36Z</time>
      </trkpt>
      <trkpt lat="43.64068" lon="1.23067">
        <ele>206.6</ele>
        <time>2025-10-18T09:07:37Z</time>
      </trkpt>
      <trkpt lat="43.64068" lon="1.2307">
        <ele>206.6</ele>
        <time>2025-10-18T09:07:38Z</time>
      </trkpt>
      <trkpt lat="43.64068" lon="1.23075">
        <ele>206.4</ele>
        <time>2025-10-18T09:07:39Z</time>
      </trkpt>
      <trkpt lat="43.64069" lon="1.23082">
        <ele>206.2</ele>
        <time>2025-10-18T09:07:40Z</time>
      </trkpt>
      <trkpt lat="43.6407" lon="1.23089">
        <ele>206</ele>
        <time>2025-10-18T09:07:41Z</time>
      </trkpt>
      <trkpt lat="43.64073" lon="1.23096">
        <ele>205.6</ele>
        <time>2025-10-18T09:07:42Z</time>
      </trkpt>
      <trkpt lat="43.64076" lon="1.23102">
        <ele>205.4</ele>
        <time>2025-10-18T09:07:43Z</time>
      </trkpt>
      <trkpt lat="43.64079" lon="1.23108">
        <ele>205.2</ele>
        <time>2025-10-18T09:07:44Z</time>
      </trkpt>
      <trkpt lat="43.64082" lon="1.23114">
        <ele>205.2</ele>
        <time>2025-10-18T09:07:45Z</time>
      </trkpt>
      <trkpt lat="43.64085" lon="1.2312">
        <ele>205.2</ele>
        <time>2025-10-18T09:07:46Z</time>
      </trkpt>
      <trkpt lat="43.64088" lon="1.23126">
        <ele>205.2</ele>
        <time>2025-10-18T09:07:47Z</time>
      </trkpt>
      <trkpt lat="43.64092" lon="1.23132">
        <ele>205.2</ele>
        <time>2025-10-18T09:07:48Z</time>
      </trkpt>
      <trkpt lat="43.64095" lon="1.23137">
        <ele>205.2</ele>
        <time>2025-10-18T09:07:49Z</time>
      </trkpt>
      <trkpt lat="43.64099" lon="1.23143">
        <ele>205.2</ele>
        <time>2025-10-18T09:07:50Z</time>
      </trkpt>
      <trkpt lat="43.64103" lon="1.2315">
        <ele>205</ele>
        <time>2025-10-18T09:07:51Z</time>
      </trkpt>
      <trkpt lat="43.64107" lon="1.23157">
        <ele>205</ele>
        <time>2025-10-18T09:07:52Z</time>
      </trkpt>
      <trkpt lat="43.64111" lon="1.23164">
        <ele>205</ele>
        <time>2025-10-18T09:07:53Z</time>
      </trkpt>
      <trkpt lat="43.64116" lon="1.2317">
        <ele>204.8</ele>
        <time>2025-10-18T09:07:54Z</time>
      </trkpt>
      <trkpt lat="43.6412" lon="1.23178">
        <ele>204.8</ele>
        <time>2025-10-18T09:07:55Z</time>
      </trkpt>
      <trkpt lat="43.64124" lon="1.23185">
        <ele>204.8</ele>
        <time>2025-10-18T09:07:56Z</time>
      </trkpt>
      <trkpt lat="43.64128" lon="1.23193">
        <ele>204.8</ele>
        <time>2025-10-18T09:07:57Z</time>
      </trkpt>
      <trkpt lat="43.64132" lon="1.232">
        <ele>204.8</ele>
        <time>2025-10-18T09:07:58Z</time>
      </trkpt>
      <trkpt lat="43.64137" lon="1.23207">
        <ele>204.8</ele>
        <time>2025-10-18T09:07:59Z</time>
      </trkpt>
      <trkpt lat="43.64142" lon="1.23215">
        <ele>204.6</ele>
        <time>2025-10-18T09:08:00Z</time>
      </trkpt>
      <trkpt lat="43.64147" lon="1.23224">
        <ele>204.6</ele>
        <time>2025-10-18T09:08:01Z</time>
      </trkpt>
      <trkpt lat="43.64153" lon="1.23232">
        <ele>204.6</ele>
        <time>2025-10-18T09:08:02Z</time>
      </trkpt>
      <trkpt lat="43.64158" lon="1.2324">
        <ele>204.6</ele>
        <time>2025-10-18T09:08:03Z</time>
      </trkpt>
      <trkpt lat="43.64163" lon="1.23248">
        <ele>204.4</ele>
        <time>2025-10-18T09:08:04Z</time>
      </trkpt>
      <trkpt lat="43.64167" lon="1.23256">
        <ele>204.4</ele>
        <time>2025-10-18T09:08:05Z</time>
      </trkpt>
      <trkpt lat="43.64172" lon="1.23264">
        <ele>204.4</ele>
        <time>2025-10-18T09:08:06Z</time>
      </trkpt>
      <trkpt lat="43.64178" lon="1.23272">
        <ele>204.2</ele>
        <time>2025-10-18T09:08:07Z</time>
      </trkpt>
      <trkpt lat="43.64182" lon="1.2328">
        <ele>204.2</ele>
        <time>2025-10-18T09:08:08Z</time>
      </trkpt>
      <trkpt lat="43.64188" lon="1.23288">
        <ele>204.2</ele>
        <time>2025-10-18T09:08:09Z</time>
      </trkpt>
      <trkpt lat="43.64193" lon="1.23297">
        <ele>204</ele>
        <time>2025-10-18T09:08:10Z</time>
      </trkpt>
      <trkpt lat="43.64198" lon="1.23305">
        <ele>204</ele>
        <time>2025-10-18T09:08:11Z</time>
      </trkpt>
      <trkpt lat="43.64203" lon="1.23314">
        <ele>203.8</ele>
        <time>2025-10-18T09:08:12Z</time>
      </trkpt>
      <trkpt lat="43.64209" lon="1.23322">
        <ele>203.8</ele>
        <time>2025-10-18T09:08:13Z</time>
      </trkpt>
      <trkpt lat="43.64214" lon="1.2333">
        <ele>203.6</ele>
        <time>2025-10-18T09:08:14Z</time>
      </trkpt>
      <trkpt lat="43.64219" lon="1.23338">
        <ele>203.6</ele>
        <time>2025-10-18T09:08:15Z</time>
      </trkpt>
      <trkpt lat="43.64223" lon="1.23345">
        <ele>203.4</ele>
        <time>2025-10-18T09:08:16Z</time>
      </trkpt>
      <trkpt lat="43.64228" lon="1.23352">
        <ele>203.4</ele>
        <time>2025-10-18T09:08:17Z</time>
      </trkpt>
      <trkpt lat="43.64232" lon="1.23359">
        <ele>203.4</ele>
        <time>2025-10-18T09:08:18Z</time>
      </trkpt>
      <trkpt lat="43.64236" lon="1.23366">
        <ele>203.4</ele>
        <time>2025-10-18T09:08:19Z</time>
      </trkpt>
      <trkpt lat="43.64239" lon="1.23371">
        <ele>203.4</ele>
        <time>2025-10-18T09:08:20Z</time>
      </trkpt>
      <trkpt lat="43.64242" lon="1.23371">
        <ele>203.4</ele>
        <time>2025-10-18T09:08:21Z</time>
      </trkpt>
      <trkpt lat="43.64244" lon="1.23369">
        <ele>203.6</ele>
        <time>2025-10-18T09:08:22Z</time>
      </trkpt>
      <trkpt lat="43.64248" lon="1.23365">
        <ele>203.6</ele>
        <time>2025-10-18T09:08:23Z</time>
      </trkpt>
      <trkpt lat="43.64252" lon="1.2336">
        <ele>203.6</ele>
        <time>2025-10-18T09:08:24Z</time>
      </trkpt>
      <trkpt lat="43.64257" lon="1.23354">
        <ele>203.4</ele>
        <time>2025-10-18T09:08:25Z</time>
      </trkpt>
      <trkpt lat="43.64263" lon="1.23348">
        <ele>203.4</ele>
        <time>2025-10-18T09:08:26Z</time>
      </trkpt>
      <trkpt lat="43.64269" lon="1.23343">
        <ele>203.2</ele>
        <time>2025-10-18T09:08:27Z</time>
      </trkpt>
      <trkpt lat="43.64275" lon="1.23336">
        <ele>203</ele>
        <time>2025-10-18T09:08:28Z</time>
      </trkpt>
      <trkpt lat="43.6428" lon="1.2333">
        <ele>202.8</ele>
        <time>2025-10-18T09:08:29Z</time>
      </trkpt>
      <trkpt lat="43.64286" lon="1.23324">
        <ele>202.8</ele>
        <time>2025-10-18T09:08:30Z</time>
      </trkpt>
      <trkpt lat="43.64292" lon="1.23318">
        <ele>202.4</ele>
        <time>2025-10-18T09:08:31Z</time>
      </trkpt>
      <trkpt lat="43.64297" lon="1.23311">
        <ele>202.4</ele>
        <time>2025-10-18T09:08:32Z</time>
      </trkpt>
      <trkpt lat="43.64303" lon="1.23305">
        <ele>202.2</ele>
        <time>2025-10-18T09:08:33Z</time>
      </trkpt>
      <trkpt lat="43.64308" lon="1.23298">
        <ele>202</ele>
        <time>2025-10-18T09:08:34Z</time>
      </trkpt>
      <trkpt lat="43.64314" lon="1.23292">
        <ele>201.8</ele>
        <time>2025-10-18T09:08:35Z</time>
      </trkpt>
      <trkpt lat="43.64319" lon="1.23286">
        <ele>201.8</ele>
        <time>2025-10-18T09:08:36Z</time>
      </trkpt>
      <trkpt lat="43.64324" lon="1.23279">
        <ele>201.8</ele>
        <time>2025-10-18T09:08:37Z</time>
      </trkpt>
      <trkpt lat="43.6433" lon="1.23273">
        <ele>201.8</ele>
        <time>2025-10-18T09:08:38Z</time>
      </trkpt>
      <trkpt lat="43.64335" lon="1.23267">
        <ele>201.8</ele>
        <time>2025-10-18T09:08:39Z</time>
      </trkpt>
      <trkpt lat="43.6434" lon="1.23261">
        <ele>201.6</ele>
        <time>2025-10-18T09:08:40Z</time>
      </trkpt>
      <trkpt lat="43.64345" lon="1.23255">
        <ele>201.8</ele>
        <time>2025-10-18T09:08:41Z</time>
      </trkpt>
      <trkpt lat="43.64349" lon="1.2325">
        <ele>201.8</ele>
        <time>2025-10-18T09:08:42Z</time>
      </trkpt>
      <trkpt lat="43.64353" lon="1.23247">
        <ele>202</ele>
        <time>2025-10-18T09:08:43Z</time>
      </trkpt>
      <trkpt lat="43.64357" lon="1.23247">
        <ele>202.4</ele>
        <time>2025-10-18T09:08:44Z</time>
      </trkpt>
      <trkpt lat="43.64359" lon="1.2325">
        <ele>202.6</ele>
        <time>2025-10-18T09:08:45Z</time>
      </trkpt>
      <trkpt lat="43.64362" lon="1.23254">
        <ele>202.8</ele>
        <time>2025-10-18T09:08:46Z</time>
      </trkpt>
      <trkpt lat="43.64364" lon="1.23257">
        <ele>203</ele>
        <time>2025-10-18T09:08:47Z</time>
      </trkpt>
      <trkpt lat="43.64367" lon="1.23259">
        <ele>203</ele>
        <time>2025-10-18T09:08:48Z</time>
      </trkpt>
      <trkpt lat="43.6437" lon="1.23261">
        <ele>203</ele>
        <time>2025-10-18T09:08:49Z</time>
      </trkpt>
      <trkpt lat="43.64372" lon="1.23263">
        <ele>203</ele>
        <time>2025-10-18T09:08:50Z</time>
      </trkpt>
      <trkpt lat="43.64375" lon="1.23264">
        <ele>203</ele>
        <time>2025-10-18T09:08:51Z</time>
      </trkpt>
      <trkpt lat="43.64378" lon="1.23264">
        <ele>203</ele>
        <time>2025-10-18T09:08:52Z</time>
      </trkpt>
      <trkpt lat="43.64382" lon="1.23265">
        <ele>203</ele>
        <time>2025-10-18T09:08:53Z</time>
      </trkpt>
      <trkpt lat="43.64386" lon="1.23267">
        <ele>202.8</ele>
        <time>2025-10-18T09:08:54Z</time>
      </trkpt>
      <trkpt lat="43.6439" lon="1.23272">
        <ele>202.6</ele>
        <time>2025-10-18T09:08:55Z</time>
      </trkpt>
      <trkpt lat="43.64393" lon="1.23277">
        <ele>202.6</ele>
        <time>2025-10-18T09:08:56Z</time>
      </trkpt>
      <trkpt lat="43.64396" lon="1.23284">
        <ele>202.4</ele>
        <time>2025-10-18T09:08:57Z</time>
      </trkpt>
      <trkpt lat="43.64401" lon="1.2329">
        <ele>202.2</ele>
        <time>2025-10-18T09:08:58Z</time>
      </trkpt>
      <trkpt lat="43.64405" lon="1.23297">
        <ele>202</ele>
        <time>2025-10-18T09:08:59Z</time>
      </trkpt>
      <trkpt lat="43.64408" lon="1.23305">
        <ele>201.8</ele>
        <time>2025-10-18T09:09:00Z</time>
      </trkpt>
      <trkpt lat="43.64412" lon="1.23312">
        <ele>201.8</ele>
        <time>2025-10-18T09:09:01Z</time>
      </trkpt>
      <trkpt lat="43.64416" lon="1.2332">
        <ele>201.8</ele>
        <time>2025-10-18T09:09:02Z</time>
      </trkpt>
      <trkpt lat="43.6442" lon="1.23326">
        <ele>201.8</ele>
        <time>2025-10-18T09:09:03Z</time>
      </trkpt>
      <trkpt lat="43.64425" lon="1.23333">
        <ele>201.6</ele>
        <time>2025-10-18T09:09:04Z</time>
      </trkpt>
      <trkpt lat="43.6443" lon="1.2334">
        <ele>201.6</ele>
        <time>2025-10-18T09:09:05Z</time>
      </trkpt>
      <trkpt lat="43.64435" lon="1.23347">
        <ele>201.6</ele>
        <time>2025-10-18T09:09:06Z</time>
      </trkpt>
      <trkpt lat="43.64439" lon="1.23354">
        <ele>201.6</ele>
        <time>2025-10-18T09:09:07Z</time>
      </trkpt>
      <trkpt lat="43.64443" lon="1.23362">
        <ele>201.6</ele>
        <time>2025-10-18T09:09:08Z</time>
      </trkpt>
      <trkpt lat="43.64447" lon="1.23368">
        <ele>201.6</ele>
        <time>2025-10-18T09:09:09Z</time>
      </trkpt>
      <trkpt lat="43.64451" lon="1.23376">
        <ele>201.4</ele>
        <time>2025-10-18T09:09:10Z</time>
      </trkpt>
      <trkpt lat="43.64455" lon="1.23383">
        <ele>201.4</ele>
        <time>2025-10-18T09:09:11Z</time>
      </trkpt>
      <trkpt lat="43.6446" lon="1.23391">
        <ele>201.4</ele>
        <time>2025-10-18T09:09:12Z</time>
      </trkpt>
      <trkpt lat="43.64464" lon="1.23398">
        <ele>201.2</ele>
        <time>2025-10-18T09:09:13Z</time>
      </trkpt>
      <trkpt lat="43.64469" lon="1.23406">
        <ele>201</ele>
        <time>2025-10-18T09:09:14Z</time>
      </trkpt>
      <trkpt lat="43.64473" lon="1.23413">
        <ele>200.4</ele>
        <time>2025-10-18T09:09:15Z</time>
      </trkpt>
      <trkpt lat="43.64477" lon="1.23421">
        <ele>200.2</ele>
        <time>2025-10-18T09:09:16Z</time>
      </trkpt>
      <trkpt lat="43.64481" lon="1.23428">
        <ele>199.8</ele>
        <time>2025-10-18T09:09:17Z</time>
      </trkpt>
      <trkpt lat="43.64485" lon="1.23434">
        <ele>199.6</ele>
        <time>2025-10-18T09:09:18Z</time>
      </trkpt>
      <trkpt lat="43.64489" lon="1.2344">
        <ele>199.6</ele>
        <time>2025-10-18T09:09:19Z</time>
      </trkpt>
      <trkpt lat="43.64492" lon="1.23446">
        <ele>199.4</ele>
        <time>2025-10-18T09:09:20Z</time>
      </trkpt>
      <trkpt lat="43.64495" lon="1.2345">
        <ele>199.2</ele>
        <time>2025-10-18T09:09:21Z</time>
      </trkpt>
      <trkpt lat="43.64498" lon="1.23455">
        <ele>199</ele>
        <time>2025-10-18T09:09:22Z</time>
      </trkpt>
      <trkpt lat="43.64501" lon="1.2346">
        <ele>198.8</ele>
        <time>2025-10-18T09:09:23Z</time>
      </trkpt>
      <trkpt lat="43.64504" lon="1.23466">
        <ele>198.4</ele>
        <time>2025-10-18T09:09:24Z</time>
      </trkpt>
      <trkpt lat="43.64507" lon="1.23472">
        <ele>198</ele>
        <time>2025-10-18T09:09:25Z</time>
      </trkpt>
      <trkpt lat="43.64511" lon="1.23477">
        <ele>197.6</ele>
        <time>2025-10-18T09:09:26Z</time>
      </trkpt>
      <trkpt lat="43.64514" lon="1.23482">
        <ele>197.2</ele>
        <time>2025-10-18T09:09:27Z</time>
      </trkpt>
      <trkpt lat="43.64516" lon="1.23488">
        <ele>196.8</ele>
        <time>2025-10-18T09:09:28Z</time>
      </trkpt>
      <trkpt lat="43.64519" lon="1.23495">
        <ele>196.4</ele>
        <time>2025-10-18T09:09:29Z</time>
      </trkpt>
      <trkpt lat="43.64522" lon="1.23501">
        <ele>196</ele>
        <time>2025-10-18T09:09:30Z</time>
      </trkpt>
      <trkpt lat="43.64526" lon="1.23507">
        <ele>195.6</ele>
        <time>2025-10-18T09:09:31Z</time>
      </trkpt>
      <trkpt lat="43.64529" lon="1.23515">
        <ele>195.2</ele>
        <time>2025-10-18T09:09:32Z</time>
      </trkpt>
      <trkpt lat="43.64533" lon="1.23523">
        <ele>195</ele>
        <time>2025-10-18T09:09:33Z</time>
      </trkpt>
      <trkpt lat="43.64537" lon="1.23531">
        <ele>194.8</ele>
        <time>2025-10-18T09:09:34Z</time>
      </trkpt>
      <trkpt lat="43.64542" lon="1.2354">
        <ele>194.4</ele>
        <time>2025-10-18T09:09:35Z</time>
      </trkpt>
      <trkpt lat="43.64547" lon="1.23549">
        <ele>193.8</ele>
        <time>2025-10-18T09:09:36Z</time>
      </trkpt>
      <trkpt lat="43.64552" lon="1.23558">
        <ele>193.4</ele>
        <time>2025-10-18T09:09:37Z</time>
      </trkpt>
      <trkpt lat="43.64557" lon="1.23566">
        <ele>193.2</ele>
        <time>2025-10-18T09:09:38Z</time>
      </trkpt>
      <trkpt lat="43.64562" lon="1.23575">
        <ele>192.8</ele>
        <time>2025-10-18T09:09:39Z</time>
      </trkpt>
      <trkpt lat="43.64567" lon="1.23584">
        <ele>192.6</ele>
        <time>2025-10-18T09:09:40Z</time>
      </trkpt>
      <trkpt lat="43.64572" lon="1.23593">
        <ele>192.6</ele>
        <time>2025-10-18T09:09:41Z</time>
      </trkpt>
      <trkpt lat="43.64578" lon="1.23603">
        <ele>192.2</ele>
        <time>2025-10-18T09:09:42Z</time>
      </trkpt>
      <trkpt lat="43.64583" lon="1.23612">
        <ele>192.2</ele>
        <time>2025-10-18T09:09:43Z</time>
      </trkpt>
      <trkpt lat="43.64589" lon="1.23621">
        <ele>192</ele>
        <time>2025-10-18T09:09:44Z</time>
      </trkpt>
      <trkpt lat="43.64594" lon="1.23631">
        <ele>192.2</ele>
        <time>2025-10-18T09:09:45Z</time>
      </trkpt>
      <trkpt lat="43.646" lon="1.23642">
        <ele>192.2</ele>
        <time>2025-10-18T09:09:46Z</time>
      </trkpt>
      <trkpt lat="43.64606" lon="1.23652">
        <ele>192</ele>
        <time>2025-10-18T09:09:47Z</time>
      </trkpt>
      <trkpt lat="43.64611" lon="1.23661">
        <ele>192</ele>
        <time>2025-10-18T09:09:48Z</time>
      </trkpt>
      <trkpt lat="43.64617" lon="1.23671">
        <ele>191.8</ele>
        <time>2025-10-18T09:09:49Z</time>
      </trkpt>
      <trkpt lat="43.64622" lon="1.23681">
        <ele>191.8</ele>
        <time>2025-10-18T09:09:50Z</time>
      </trkpt>
      <trkpt lat="43.64628" lon="1.23691">
        <ele>191.6</ele>
        <time>2025-10-18T09:09:51Z</time>
      </trkpt>
      <trkpt lat="43.64633" lon="1.23699">
        <ele>191.6</ele>
        <time>2025-10-18T09:09:52Z</time>
      </trkpt>
      <trkpt lat="43.64638" lon="1.23708">
        <ele>191.4</ele>
        <time>2025-10-18T09:09:53Z</time>
      </trkpt>
      <trkpt lat="43.64642" lon="1.23716">
        <ele>191.6</ele>
        <time>2025-10-18T09:09:54Z</time>
      </trkpt>
      <trkpt lat="43.64644" lon="1.23723">
        <ele>191.6</ele>
        <time>2025-10-18T09:09:55Z</time>
      </trkpt>
      <trkpt lat="43.64644" lon="1.23729">
        <ele>191.8</ele>
        <time>2025-10-18T09:09:56Z</time>
      </trkpt>
      <trkpt lat="43.64642" lon="1.23734">
        <ele>192</ele>
        <time>2025-10-18T09:09:57Z</time>
      </trkpt>
      <trkpt lat="43.64639" lon="1.23739">
        <ele>192.2</ele>
        <time>2025-10-18T09:09:58Z</time>
      </trkpt>
      <trkpt lat="43.64636" lon="1.23744">
        <ele>192.4</ele>
        <time>2025-10-18T09:09:59Z</time>
      </trkpt>
      <trkpt lat="43.64632" lon="1.23749">
        <ele>192.6</ele>
        <time>2025-10-18T09:10:00Z</time>
      </trkpt>
      <trkpt lat="43.64629" lon="1.23753">
        <ele>192.6</ele>
        <time>2025-10-18T09:10:01Z</time>
      </trkpt>
      <trkpt lat="43.64626" lon="1.23757">
        <ele>192.4</ele>
        <time>2025-10-18T09:10:02Z</time>
      </trkpt>
      <trkpt lat="43.64626" lon="1.23763">
        <ele>192.4</ele>
        <time>2025-10-18T09:10:03Z</time>
      </trkpt>
      <trkpt lat="43.64627" lon="1.23768">
        <ele>192.6</ele>
        <time>2025-10-18T09:10:04Z</time>
      </trkpt>
      <trkpt lat="43.6463" lon="1.23772">
        <ele>192.6</ele>
        <time>2025-10-18T09:10:05Z</time>
      </trkpt>
      <trkpt lat="43.64632" lon="1.23777">
        <ele>192.8</ele>
        <time>2025-10-18T09:10:06Z</time>
      </trkpt>
      <trkpt lat="43.64635" lon="1.23784">
        <ele>192.8</ele>
        <time>2025-10-18T09:10:07Z</time>
      </trkpt>
      <trkpt lat="43.64639" lon="1.23791">
        <ele>192.8</ele>
        <time>2025-10-18T09:10:08Z</time>
      </trkpt>
      <trkpt lat="43.64643" lon="1.23799">
        <ele>192.8</ele>
        <time>2025-10-18T09:10:09Z</time>
      </trkpt>
      <trkpt lat="43.64647" lon="1.23807">
        <ele>192.6</ele>
        <time>2025-10-18T09:10:10Z</time>
      </trkpt>
      <trkpt lat="43.64651" lon="1.23815">
        <ele>192.4</ele>
        <time>2025-10-18T09:10:11Z</time>
      </trkpt>
      <trkpt lat="43.64655" lon="1.23823">
        <ele>192.4</ele>
        <time>2025-10-18T09:10:12Z</time>
      </trkpt>
      <trkpt lat="43.64659" lon="1.23832">
        <ele>192.2</ele>
        <time>2025-10-18T09:10:13Z</time>
      </trkpt>
      <trkpt lat="43.64663" lon="1.23841">
        <ele>192</ele>
        <time>2025-10-18T09:10:14Z</time>
      </trkpt>
      <trkpt lat="43.64667" lon="1.23849">
        <ele>191.6</ele>
        <time>2025-10-18T09:10:15Z</time>
      </trkpt>
      <trkpt lat="43.64672" lon="1.23858">
        <ele>191.6</ele>
        <time>2025-10-18T09:10:16Z</time>
      </trkpt>
      <trkpt lat="43.64677" lon="1.23867">
        <ele>191.4</ele>
        <time>2025-10-18T09:10:17Z</time>
      </trkpt>
      <trkpt lat="43.64681" lon="1.23875">
        <ele>191.4</ele>
        <time>2025-10-18T09:10:18Z</time>
      </trkpt>
      <trkpt lat="43.64686" lon="1.23884">
        <ele>191.4</ele>
        <time>2025-10-18T09:10:19Z</time>
      </trkpt>
      <trkpt lat="43.64691" lon="1.23893">
        <ele>191.4</ele>
        <time>2025-10-18T09:10:20Z</time>
      </trkpt>
      <trkpt lat="43.64697" lon="1.23902">
        <ele>191.4</ele>
        <time>2025-10-18T09:10:21Z</time>
      </trkpt>
      <trkpt lat="43.64702" lon="1.23912">
        <ele>191.6</ele>
        <time>2025-10-18T09:10:22Z</time>
      </trkpt>
      <trkpt lat="43.64707" lon="1.23922">
        <ele>191.6</ele>
        <time>2025-10-18T09:10:23Z</time>
      </trkpt>
      <trkpt lat="43.64712" lon="1.2393">
        <ele>191.6</ele>
        <time>2025-10-18T09:10:24Z</time>
      </trkpt>
      <trkpt lat="43.64716" lon="1.23938">
        <ele>191.6</ele>
        <time>2025-10-18T09:10:25Z</time>
      </trkpt>
      <trkpt lat="43.64722" lon="1.23947">
        <ele>191.6</ele>
        <time>2025-10-18T09:10:26Z</time>
      </trkpt>
      <trkpt lat="43.64726" lon="1.23955">
        <ele>191.8</ele>
        <time>2025-10-18T09:10:27Z</time>
      </trkpt>
      <trkpt lat="43.64731" lon="1.23964">
        <ele>191.8</ele>
        <time>2025-10-18T09:10:28Z</time>
      </trkpt>
      <trkpt lat="43.64736" lon="1.23973">
        <ele>191.8</ele>
        <time>2025-10-18T09:10:29Z</time>
      </trkpt>
      <trkpt lat="43.6474" lon="1.2398">
        <ele>192</ele>
        <time>2025-10-18T09:10:30Z</time>
      </trkpt>
      <trkpt lat="43.64745" lon="1.23989">
        <ele>192</ele>
        <time>2025-10-18T09:10:31Z</time>
      </trkpt>
      <trkpt lat="43.64748" lon="1.23995">
        <ele>191.8</ele>
        <time>2025-10-18T09:10:32Z</time>
      </trkpt>
      <trkpt lat="43.64751" lon="1.23999">
        <ele>192</ele>
        <time>2025-10-18T09:10:33Z</time>
      </trkpt>
      <trkpt lat="43.64755" lon="1.24001">
        <ele>192.2</ele>
        <time>2025-10-18T09:10:34Z</time>
      </trkpt>
      <trkpt lat="43.64757" lon="1.23999">
        <ele>192.4</ele>
        <time>2025-10-18T09:10:35Z</time>
      </trkpt>
      <trkpt lat="43.6476" lon="1.23998">
        <ele>192.8</ele>
        <time>2025-10-18T09:10:36Z</time>
      </trkpt>
      <trkpt lat="43.64762" lon="1.23996">
        <ele>193</ele>
        <time>2025-10-18T09:10:37Z</time>
      </trkpt>
      <trkpt lat="43.64764" lon="1.23995">
        <ele>193</ele>
        <time>2025-10-18T09:10:38Z</time>
      </trkpt>
      <trkpt lat="43.64765" lon="1.23994">
        <ele>193</ele>
        <time>2025-10-18T09:10:39Z</time>
      </trkpt>
      <trkpt lat="43.64767" lon="1.23992">
        <ele>193.2</ele>
        <time>2025-10-18T09:10:40Z</time>
      </trkpt>
      <trkpt lat="43.64768" lon="1.23991">
        <ele>193.2</ele>
        <time>2025-10-18T09:10:41Z</time>
      </trkpt>
      <trkpt lat="43.64769" lon="1.2399">
        <ele>193.4</ele>
        <time>2025-10-18T09:10:42Z</time>
      </trkpt>
      <trkpt lat="43.64769" lon="1.23989">
        <ele>193.4</ele>
        <time>2025-10-18T09:10:43Z</time>
      </trkpt>
      <trkpt lat="43.6477" lon="1.23989">
        <ele>193.4</ele>
        <time>2025-10-18T09:10:44Z</time>
      </trkpt>
      <trkpt lat="43.64767" lon="1.23994">
        <ele>193.2</ele>
        <time>2025-10-18T09:11:02Z</time>
      </trkpt>
      <trkpt lat="43.64766" lon="1.23996">
        <ele>193.2</ele>
        <time>2025-10-18T09:11:03Z</time>
      </trkpt>
      <trkpt lat="43.64765" lon="1.23997">
        <ele>193.2</ele>
        <time>2025-10-18T09:11:04Z</time>
      </trkpt>
      <trkpt lat="43.64762" lon="1.23999">
        <ele>193.2</ele>
        <time>2025-10-18T09:11:05Z</time>
      </trkpt>
      <trkpt lat="43.6476" lon="1.24001">
        <ele>193</ele>
        <time>2025-10-18T09:11:06Z</time>
      </trkpt>
      <trkpt lat="43.64757" lon="1.24002">
        <ele>193</ele>
        <time>2025-10-18T09:11:07Z</time>
      </trkpt>
      <trkpt lat="43.64755" lon="1.24004">
        <ele>193</ele>
        <time>2025-10-18T09:11:08Z</time>
      </trkpt>
      <trkpt lat="43.64752" lon="1.24008">
        <ele>192.8</ele>
        <time>2025-10-18T09:11:09Z</time>
      </trkpt>
      <trkpt lat="43.64749" lon="1.24011">
        <ele>192.8</ele>
        <time>2025-10-18T09:11:10Z</time>
      </trkpt>
      <trkpt lat="43.64746" lon="1.24016">
        <ele>192.6</ele>
        <time>2025-10-18T09:11:11Z</time>
      </trkpt>
      <trkpt lat="43.64742" lon="1.2402">
        <ele>192.6</ele>
        <time>2025-10-18T09:11:12Z</time>
      </trkpt>
      <trkpt lat="43.64738" lon="1.24024">
        <ele>192.6</ele>
        <time>2025-10-18T09:11:13Z</time>
      </trkpt>
      <trkpt lat="43.64734" lon="1.24028">
        <ele>192.4</ele>
        <time>2025-10-18T09:11:14Z</time>
      </trkpt>
      <trkpt lat="43.6473" lon="1.24033">
        <ele>192.4</ele>
        <time>2025-10-18T09:11:15Z</time>
      </trkpt>
      <trkpt lat="43.64727" lon="1.24037">
        <ele>192.4</ele>
        <time>2025-10-18T09:11:16Z</time>
      </trkpt>
      <trkpt lat="43.64722" lon="1.24042">
        <ele>192.4</ele>
        <time>2025-10-18T09:11:17Z</time>
      </trkpt>
      <trkpt lat="43.64718" lon="1.24048">
        <ele>192.4</ele>
        <time>2025-10-18T09:11:18Z</time>
      </trkpt>
      <trkpt lat="43.64714" lon="1.24054">
        <ele>192.4</ele>
        <time>2025-10-18T09:11:19Z</time>
      </trkpt>
      <trkpt lat="43.64709" lon="1.24057">
        <ele>192.4</ele>
        <time>2025-10-18T09:11:20Z</time>
      </trkpt>
      <trkpt lat="43.64704" lon="1.24062">
        <ele>192.4</ele>
        <time>2025-10-18T09:11:21Z</time>
      </trkpt>
      <trkpt lat="43.64699" lon="1.24067">
        <ele>192.4</ele>
        <time>2025-10-18T09:11:22Z</time>
      </trkpt>
      <trkpt lat="43.64694" lon="1.24073">
        <ele>192.2</ele>
        <time>2025-10-18T09:11:23Z</time>
      </trkpt>
      <trkpt lat="43.64688" lon="1.24078">
        <ele>192.2</ele>
        <time>2025-10-18T09:11:24Z</time>
      </trkpt>
      <trkpt lat="43.64684" lon="1.24083">
        <ele>192.2</ele>
        <time>2025-10-18T09:11:25Z</time>
      </trkpt>
      <trkpt lat="43.64678" lon="1.24089">
        <ele>192</ele>
        <time>2025-10-18T09:11:26Z</time>
      </trkpt>
      <trkpt lat="43.64673" lon="1.24093">
        <ele>191.8</ele>
        <time>2025-10-18T09:11:27Z</time>
      </trkpt>
      <trkpt lat="43.64668" lon="1.24099">
        <ele>191.8</ele>
        <time>2025-10-18T09:11:28Z</time>
      </trkpt>
      <trkpt lat="43.64662" lon="1.24104">
        <ele>191.8</ele>
        <time>2025-10-18T09:11:29Z</time>
      </trkpt>
      <trkpt lat="43.64657" lon="1.24109">
        <ele>191.8</ele>
        <time>2025-10-18T09:11:30Z</time>
      </trkpt>
      <trkpt lat="43.64651" lon="1.24115">
        <ele>191.8</ele>
        <time>2025-10-18T09:11:31Z</time>
      </trkpt>
      <trkpt lat="43.64645" lon="1.2412">
        <ele>191.8</ele>
        <time>2025-10-18T09:11:32Z</time>
      </trkpt>
      <trkpt lat="43.64639" lon="1.24126">
        <ele>191.8</ele>
        <time>2025-10-18T09:11:33Z</time>
      </trkpt>
      <trkpt lat="43.64634" lon="1.24132">
        <ele>191.6</ele>
        <time>2025-10-18T09:11:34Z</time>
      </trkpt>
      <trkpt lat="43.64628" lon="1.24138">
        <ele>191.6</ele>
        <time>2025-10-18T09:11:35Z</time>
      </trkpt>
      <trkpt lat="43.64624" lon="1.24145">
        <ele>191.4</ele>
        <time>2025-10-18T09:11:36Z</time>
      </trkpt>
      <trkpt lat="43.64619" lon="1.24151">
        <ele>191.4</ele>
        <time>2025-10-18T09:11:37Z</time>
      </trkpt>
      <trkpt lat="43.64614" lon="1.24156">
        <ele>191.4</ele>
        <time>2025-10-18T09:11:38Z</time>
      </trkpt>
      <trkpt lat="43.64609" lon="1.24162">
        <ele>191.4</ele>
        <time>2025-10-18T09:11:39Z</time>
      </trkpt>
      <trkpt lat="43.64603" lon="1.24168">
        <ele>191.4</ele>
        <time>2025-10-18T09:11:40Z</time>
      </trkpt>
      <trkpt lat="43.64598" lon="1.24174">
        <ele>191.2</ele>
        <time>2025-10-18T09:11:41Z</time>
      </trkpt>
      <trkpt lat="43.64591" lon="1.2418">
        <ele>191</ele>
        <time>2025-10-18T09:11:42Z</time>
      </trkpt>
      <trkpt lat="43.64585" lon="1.24187">
        <ele>190.8</ele>
        <time>2025-10-18T09:11:43Z</time>
      </trkpt>
      <trkpt lat="43.64579" lon="1.24193">
        <ele>190.4</ele>
        <time>2025-10-18T09:11:44Z</time>
      </trkpt>
      <trkpt lat="43.64573" lon="1.24199">
        <ele>190.2</ele>
        <time>2025-10-18T09:11:45Z</time>
      </trkpt>
      <trkpt lat="43.64568" lon="1.24205">
        <ele>190</ele>
        <time>2025-10-18T09:11:46Z</time>
      </trkpt>
      <trkpt lat="43.64562" lon="1.24211">
        <ele>189.8</ele>
        <time>2025-10-18T09:11:47Z</time>
      </trkpt>
      <trkpt lat="43.64556" lon="1.24217">
        <ele>189.6</ele>
        <time>2025-10-18T09:11:48Z</time>
      </trkpt>
      <trkpt lat="43.6455" lon="1.24224">
        <ele>189.4</ele>
        <time>2025-10-18T09:11:49Z</time>
      </trkpt>
      <trkpt lat="43.64544" lon="1.2423">
        <ele>189.4</ele>
        <time>2025-10-18T09:11:50Z</time>
      </trkpt>
      <trkpt lat="43.64537" lon="1.24236">
        <ele>189.2</ele>
        <time>2025-10-18T09:11:51Z</time>
      </trkpt>
      <trkpt lat="43.64531" lon="1.24242">
        <ele>189</ele>
        <time>2025-10-18T09:11:52Z</time>
      </trkpt>
      <trkpt lat="43.64525" lon="1.24248">
        <ele>189</ele>
        <time>2025-10-18T09:11:53Z</time>
      </trkpt>
      <trkpt lat="43.6452" lon="1.24253">
        <ele>189</ele>
        <time>2025-10-18T09:11:54Z</time>
      </trkpt>
      <trkpt lat="43.64514" lon="1.24258">
        <ele>189</ele>
        <time>2025-10-18T09:11:55Z</time>
      </trkpt>
      <trkpt lat="43.64509" lon="1.24263">
        <ele>188.8</ele>
        <time>2025-10-18T09:11:56Z</time>
      </trkpt>
      <trkpt lat="43.64505" lon="1.24269">
        <ele>189</ele>
        <time>2025-10-18T09:11:57Z</time>
      </trkpt>
      <trkpt lat="43.645" lon="1.24275">
        <ele>189</ele>
        <time>2025-10-18T09:11:58Z</time>
      </trkpt>
      <trkpt lat="43.64496" lon="1.2428">
        <ele>189</ele>
        <time>2025-10-18T09:11:59Z</time>
      </trkpt>
      <trkpt lat="43.64491" lon="1.24285">
        <ele>188.8</ele>
        <time>2025-10-18T09:12:00Z</time>
      </trkpt>
      <trkpt lat="43.64486" lon="1.2429">
        <ele>188.8</ele>
        <time>2025-10-18T09:12:01Z</time>
      </trkpt>
      <trkpt lat="43.64481" lon="1.24296">
        <ele>188.8</ele>
        <time>2025-10-18T09:12:02Z</time>
      </trkpt>
      <trkpt lat="43.64477" lon="1.24302">
        <ele>188.8</ele>
        <time>2025-10-18T09:12:03Z</time>
      </trkpt>
      <trkpt lat="43.64472" lon="1.24307">
        <ele>188.8</ele>
        <time>2025-10-18T09:12:04Z</time>
      </trkpt>
      <trkpt lat="43.64469" lon="1.24312">
        <ele>189</ele>
        <time>2025-10-18T09:12:05Z</time>
      </trkpt>
      <trkpt lat="43.64466" lon="1.24315">
        <ele>189</ele>
        <time>2025-10-18T09:12:06Z</time>
      </trkpt>
      <trkpt lat="43.64463" lon="1.24318">
        <ele>189.2</ele>
        <time>2025-10-18T09:12:07Z</time>
      </trkpt>
      <trkpt lat="43.64461" lon="1.2432">
        <ele>189.2</ele>
        <time>2025-10-18T09:12:08Z</time>
      </trkpt>
      <trkpt lat="43.64458" lon="1.24323">
        <ele>189.4</ele>
        <time>2025-10-18T09:12:09Z</time>
      </trkpt>
      <trkpt lat="43.64456" lon="1.24325">
        <ele>189.4</ele>
        <time>2025-10-18T09:12:10Z</time>
      </trkpt>
      <trkpt lat="43.64453" lon="1.24328">
        <ele>189.4</ele>
        <time>2025-10-18T09:12:11Z</time>
      </trkpt>
      <trkpt lat="43.64449" lon="1.24332">
        <ele>189.4</ele>
        <time>2025-10-18T09:12:12Z</time>
      </trkpt>
      <trkpt lat="43.64445" lon="1.24336">
        <ele>189.2</ele>
        <time>2025-10-18T09:12:13Z</time>
      </trkpt>
      <trkpt lat="43.64441" lon="1.24338">
        <ele>189</ele>
        <time>2025-10-18T09:12:14Z</time>
      </trkpt>
      <trkpt lat="43.64437" lon="1.2434">
        <ele>189</ele>
        <time>2025-10-18T09:12:15Z</time>
      </trkpt>
      <trkpt lat="43.64432" lon="1.24341">
        <ele>188.8</ele>
        <time>2025-10-18T09:12:16Z</time>
      </trkpt>
      <trkpt lat="43.64428" lon="1.24339">
        <ele>188.8</ele>
        <time>2025-10-18T09:12:17Z</time>
      </trkpt>
      <trkpt lat="43.64425" lon="1.24335">
        <ele>188.8</ele>
        <time>2025-10-18T09:12:18Z</time>
      </trkpt>
      <trkpt lat="43.64423" lon="1.2433">
        <ele>189</ele>
        <time>2025-10-18T09:12:19Z</time>
      </trkpt>
      <trkpt lat="43.64421" lon="1.24325">
        <ele>189</ele>
        <time>2025-10-18T09:12:20Z</time>
      </trkpt>
      <trkpt lat="43.64419" lon="1.24319">
        <ele>189</ele>
        <time>2025-10-18T09:12:21Z</time>
      </trkpt>
      <trkpt lat="43.64416" lon="1.24313">
        <ele>189</ele>
        <time>2025-10-18T09:12:22Z</time>
      </trkpt>
      <trkpt lat="43.64413" lon="1.24305">
        <ele>189</ele>
        <time>2025-10-18T09:12:23Z</time>
      </trkpt>
      <trkpt lat="43.64411" lon="1.24298">
        <ele>189</ele>
        <time>2025-10-18T09:12:24Z</time>
      </trkpt>
      <trkpt lat="43.64407" lon="1.24291">
        <ele>188.8</ele>
        <time>2025-10-18T09:12:25Z</time>
      </trkpt>
      <trkpt lat="43.64404" lon="1.24283">
        <ele>188.8</ele>
        <time>2025-10-18T09:12:26Z</time>
      </trkpt>
      <trkpt lat="43.644" lon="1.24275">
        <ele>188.8</ele>
        <time>2025-10-18T09:12:27Z</time>
      </trkpt>
      <trkpt lat="43.64398" lon="1.24266">
        <ele>188.6</ele>
        <time>2025-10-18T09:12:28Z</time>
      </trkpt>
      <trkpt lat="43.64395" lon="1.24256">
        <ele>188.4</ele>
        <time>2025-10-18T09:12:29Z</time>
      </trkpt>
      <trkpt lat="43.64392" lon="1.24248">
        <ele>188.4</ele>
        <time>2025-10-18T09:12:30Z</time>
      </trkpt>
      <trkpt lat="43.64389" lon="1.24239">
        <ele>188.4</ele>
        <time>2025-10-18T09:12:31Z</time>
      </trkpt>
      <trkpt lat="43.64385" lon="1.2423">
        <ele>188.2</ele>
        <time>2025-10-18T09:12:32Z</time>
      </trkpt>
      <trkpt lat="43.64382" lon="1.24222">
        <ele>188.2</ele>
        <time>2025-10-18T09:12:33Z</time>
      </trkpt>
      <trkpt lat="43.64379" lon="1.24213">
        <ele>188.2</ele>
        <time>2025-10-18T09:12:34Z</time>
      </trkpt>
      <trkpt lat="43.64376" lon="1.24205">
        <ele>188.2</ele>
        <time>2025-10-18T09:12:35Z</time>
      </trkpt>
      <trkpt lat="43.64373" lon="1.24197">
        <ele>188.2</ele>
        <time>2025-10-18T09:12:36Z</time>
      </trkpt>
      <trkpt lat="43.6437" lon="1.24189">
        <ele>188.4</ele>
        <time>2025-10-18T09:12:37Z</time>
      </trkpt>
      <trkpt lat="43.64368" lon="1.24181">
        <ele>188.6</ele>
        <time>2025-10-18T09:12:38Z</time>
      </trkpt>
      <trkpt lat="43.64365" lon="1.24173">
        <ele>188.6</ele>
        <time>2025-10-18T09:12:39Z</time>
      </trkpt>
      <trkpt lat="43.64362" lon="1.24166">
        <ele>188.8</ele>
        <time>2025-10-18T09:12:40Z</time>
      </trkpt>
      <trkpt lat="43.64359" lon="1.24159">
        <ele>189</ele>
        <time>2025-10-18T09:12:41Z</time>
      </trkpt>
      <trkpt lat="43.64356" lon="1.24152">
        <ele>189.2</ele>
        <time>2025-10-18T09:12:42Z</time>
      </trkpt>
      <trkpt lat="43.64354" lon="1.24145">
        <ele>189.2</ele>
        <time>2025-10-18T09:12:43Z</time>
      </trkpt>
      <trkpt lat="43.64351" lon="1.24138">
        <ele>189.2</ele>
        <time>2025-10-18T09:12:44Z</time>
      </trkpt>
      <trkpt lat="43.64349" lon="1.24132">
        <ele>189.2</ele>
        <time>2025-10-18T09:12:45Z</time>
      </trkpt>
      <trkpt lat="43.64346" lon="1.24125">
        <ele>189.2</ele>
        <time>2025-10-18T09:12:46Z</time>
      </trkpt>
      <trkpt lat="43.64344" lon="1.24119">
        <ele>189.4</ele>
        <time>2025-10-18T09:12:47Z</time>
      </trkpt>
      <trkpt lat="43.64342" lon="1.24112">
        <ele>189.4</ele>
        <time>2025-10-18T09:12:48Z</time>
      </trkpt>
      <trkpt lat="43.6434" lon="1.24105">
        <ele>189.6</ele>
        <time>2025-10-18T09:12:49Z</time>
      </trkpt>
      <trkpt lat="43.64337" lon="1.24098">
        <ele>189.8</ele>
        <time>2025-10-18T09:12:50Z</time>
      </trkpt>
      <trkpt lat="43.64334" lon="1.24091">
        <ele>190</ele>
        <time>2025-10-18T09:12:51Z</time>
      </trkpt>
      <trkpt lat="43.64331" lon="1.24084">
        <ele>190.2</ele>
        <time>2025-10-18T09:12:52Z</time>
      </trkpt>
      <trkpt lat="43.64328" lon="1.24076">
        <ele>190.4</ele>
        <time>2025-10-18T09:12:53Z</time>
      </trkpt>
      <trkpt lat="43.64325" lon="1.24069">
        <ele>190.6</ele>
        <time>2025-10-18T09:12:54Z</time>
      </trkpt>
      <trkpt lat="43.64322" lon="1.24061">
        <ele>190.6</ele>
        <time>2025-10-18T09:12:55Z</time>
      </trkpt>
      <trkpt lat="43.6432" lon="1.24054">
        <ele>190.8</ele>
        <time>2025-10-18T09:12:56Z</time>
      </trkpt>
      <trkpt lat="43.64317" lon="1.24047">
        <ele>190.8</ele>
        <time>2025-10-18T09:12:57Z</time>
      </trkpt>
      <trkpt lat="43.64315" lon="1.24039">
        <ele>190.8</ele>
        <time>2025-10-18T09:12:58Z</time>
      </trkpt>
      <trkpt lat="43.64312" lon="1.24032">
        <ele>190.8</ele>
        <time>2025-10-18T09:12:59Z</time>
      </trkpt>
      <trkpt lat="43.6431" lon="1.24024">
        <ele>190.8</ele>
        <time>2025-10-18T09:13:00Z</time>
      </trkpt>
      <trkpt lat="43.64308" lon="1.24017">
        <ele>190.8</ele>
        <time>2025-10-18T09:13:01Z</time>
      </trkpt>
      <trkpt lat="43.64306" lon="1.24011">
        <ele>190.8</ele>
        <time>2025-10-18T09:13:02Z</time>
      </trkpt>
      <trkpt lat="43.64303" lon="1.24003">
        <ele>190.8</ele>
        <time>2025-10-18T09:13:03Z</time>
      </trkpt>
      <trkpt lat="43.64301" lon="1.23996">
        <ele>190.8</ele>
        <time>2025-10-18T09:13:04Z</time>
      </trkpt>
      <trkpt lat="43.64299" lon="1.23989">
        <ele>191</ele>
        <time>2025-10-18T09:13:05Z</time>
      </trkpt>
      <trkpt lat="43.64296" lon="1.23982">
        <ele>191.2</ele>
        <time>2025-10-18T09:13:06Z</time>
      </trkpt>
      <trkpt lat="43.64294" lon="1.23976">
        <ele>191.2</ele>
        <time>2025-10-18T09:13:07Z</time>
      </trkpt>
      <trkpt lat="43.64291" lon="1.23969">
        <ele>191.2</ele>
        <time>2025-10-18T09:13:08Z</time>
      </trkpt>
      <trkpt lat="43.64288" lon="1.23962">
        <ele>191.4</ele>
        <time>2025-10-18T09:13:09Z</time>
      </trkpt>
      <trkpt lat="43.64285" lon="1.23955">
        <ele>191.6</ele>
        <time>2025-10-18T09:13:10Z</time>
      </trkpt>
      <trkpt lat="43.64283" lon="1.23947">
        <ele>191.6</ele>
        <time>2025-10-18T09:13:11Z</time>
      </trkpt>
      <trkpt lat="43.64281" lon="1.2394">
        <ele>191.8</ele>
        <time>2025-10-18T09:13:12Z</time>
      </trkpt>
      <trkpt lat="43.64278" lon="1.23934">
        <ele>191.8</ele>
        <time>2025-10-18T09:13:13Z</time>
      </trkpt>
      <trkpt lat="43.64275" lon="1.23925">
        <ele>191.8</ele>
        <time>2025-10-18T09:13:14Z</time>
      </trkpt>
      <trkpt lat="43.64273" lon="1.23918">
        <ele>191.8</ele>
        <time>2025-10-18T09:13:15Z</time>
      </trkpt>
      <trkpt lat="43.64271" lon="1.23911">
        <ele>191.8</ele>
        <time>2025-10-18T09:13:16Z</time>
      </trkpt>
      <trkpt lat="43.64268" lon="1.23904">
        <ele>191.6</ele>
        <time>2025-10-18T09:13:17Z</time>
      </trkpt>
      <trkpt lat="43.64265" lon="1.23897">
        <ele>191.6</ele>
        <time>2025-10-18T09:13:18Z</time>
      </trkpt>
      <trkpt lat="43.64262" lon="1.2389">
        <ele>191.6</ele>
        <time>2025-10-18T09:13:19Z</time>
      </trkpt>
      <trkpt lat="43.64259" lon="1.23883">
        <ele>191.6</ele>
        <time>2025-10-18T09:13:20Z</time>
      </trkpt>
      <trkpt lat="43.64257" lon="1.23876">
        <ele>191.6</ele>
        <time>2025-10-18T09:13:21Z</time>
      </trkpt>
      <trkpt lat="43.64254" lon="1.23869">
        <ele>192</ele>
        <time>2025-10-18T09:13:22Z</time>
      </trkpt>
      <trkpt lat="43.64251" lon="1.23862">
        <ele>192.2</ele>
        <time>2025-10-18T09:13:23Z</time>
      </trkpt>
      <trkpt lat="43.64248" lon="1.23854">
        <ele>192.4</ele>
        <time>2025-10-18T09:13:24Z</time>
      </trkpt>
      <trkpt lat="43.64246" lon="1.23847">
        <ele>192.6</ele>
        <time>2025-10-18T09:13:25Z</time>
      </trkpt>
      <trkpt lat="43.64243" lon="1.2384">
        <ele>192.6</ele>
        <time>2025-10-18T09:13:26Z</time>
      </trkpt>
      <trkpt lat="43.6424" lon="1.23833">
        <ele>192.8</ele>
        <time>2025-10-18T09:13:27Z</time>
      </trkpt>
      <trkpt lat="43.64238" lon="1.23825">
        <ele>193</ele>
        <time>2025-10-18T09:13:28Z</time>
      </trkpt>
      <trkpt lat="43.64236" lon="1.23818">
        <ele>193</ele>
        <time>2025-10-18T09:13:29Z</time>
      </trkpt>
      <trkpt lat="43.64234" lon="1.23811">
        <ele>193.2</ele>
        <time>2025-10-18T09:13:30Z</time>
      </trkpt>
      <trkpt lat="43.64232" lon="1.23806">
        <ele>193.2</ele>
        <time>2025-10-18T09:13:31Z</time>
      </trkpt>
      <trkpt lat="43.6423" lon="1.23799">
        <ele>193.2</ele>
        <time>2025-10-18T09:13:32Z</time>
      </trkpt>
      <trkpt lat="43.64227" lon="1.23793">
        <ele>193.4</ele>
        <time>2025-10-18T09:13:33Z</time>
      </trkpt>
      <trkpt lat="43.64224" lon="1.23786">
        <ele>193.4</ele>
        <time>2025-10-18T09:13:34Z</time>
      </trkpt>
      <trkpt lat="43.64221" lon="1.23778">
        <ele>193.4</ele>
        <time>2025-10-18T09:13:35Z</time>
      </trkpt>
      <trkpt lat="43.64219" lon="1.2377">
        <ele>193.6</ele>
        <time>2025-10-18T09:13:36Z</time>
      </trkpt>
      <trkpt lat="43.64216" lon="1.23763">
        <ele>193.8</ele>
        <time>2025-10-18T09:13:37Z</time>
      </trkpt>
      <trkpt lat="43.64214" lon="1.23756">
        <ele>193.8</ele>
        <time>2025-10-18T09:13:38Z</time>
      </trkpt>
      <trkpt lat="43.6421" lon="1.23749">
        <ele>194</ele>
        <time>2025-10-18T09:13:39Z</time>
      </trkpt>
      <trkpt lat="43.64208" lon="1.23741">
        <ele>194</ele>
        <time>2025-10-18T09:13:40Z</time>
      </trkpt>
      <trkpt lat="43.64205" lon="1.23734">
        <ele>194</ele>
        <time>2025-10-18T09:13:41Z</time>
      </trkpt>
      <trkpt lat="43.64202" lon="1.23726">
        <ele>194.2</ele>
        <time>2025-10-18T09:13:42Z</time>
      </trkpt>
      <trkpt lat="43.642" lon="1.23718">
        <ele>194.4</ele>
        <time>2025-10-18T09:13:43Z</time>
      </trkpt>
      <trkpt lat="43.64198" lon="1.23711">
        <ele>194.6</ele>
        <time>2025-10-18T09:13:44Z</time>
      </trkpt>
      <trkpt lat="43.64195" lon="1.23704">
        <ele>194.8</ele>
        <time>2025-10-18T09:13:45Z</time>
      </trkpt>
      <trkpt lat="43.64193" lon="1.23697">
        <ele>195</ele>
        <time>2025-10-18T09:13:46Z</time>
      </trkpt>
      <trkpt lat="43.6419" lon="1.2369">
        <ele>195.2</ele>
        <time>2025-10-18T09:13:47Z</time>
      </trkpt>
      <trkpt lat="43.64188" lon="1.23684">
        <ele>195.4</ele>
        <time>2025-10-18T09:13:48Z</time>
      </trkpt>
      <trkpt lat="43.64185" lon="1.23678">
        <ele>195.6</ele>
        <time>2025-10-18T09:13:49Z</time>
      </trkpt>
      <trkpt lat="43.64183" lon="1.23672">
        <ele>196</ele>
        <time>2025-10-18T09:13:50Z</time>
      </trkpt>
      <trkpt lat="43.64182" lon="1.23666">
        <ele>196.4</ele>
        <time>2025-10-18T09:13:51Z</time>
      </trkpt>
      <trkpt lat="43.6418" lon="1.2366">
        <ele>196.8</ele>
        <time>2025-10-18T09:13:52Z</time>
      </trkpt>
      <trkpt lat="43.64178" lon="1.23654">
        <ele>197</ele>
        <time>2025-10-18T09:13:53Z</time>
      </trkpt>
      <trkpt lat="43.64177" lon="1.23648">
        <ele>197.4</ele>
        <time>2025-10-18T09:13:54Z</time>
      </trkpt>
      <trkpt lat="43.64174" lon="1.23642">
        <ele>197.8</ele>
        <time>2025-10-18T09:13:55Z</time>
      </trkpt>
      <trkpt lat="43.64171" lon="1.23636">
        <ele>198.2</ele>
        <time>2025-10-18T09:13:56Z</time>
      </trkpt>
      <trkpt lat="43.64169" lon="1.2363">
        <ele>198.4</ele>
        <time>2025-10-18T09:13:57Z</time>
      </trkpt>
      <trkpt lat="43.64167" lon="1.23624">
        <ele>198.4</ele>
        <time>2025-10-18T09:13:58Z</time>
      </trkpt>
      <trkpt lat="43.64164" lon="1.23618">
        <ele>198.6</ele>
        <time>2025-10-18T09:13:59Z</time>
      </trkpt>
      <trkpt lat="43.64161" lon="1.23612">
        <ele>198.6</ele>
        <time>2025-10-18T09:14:00Z</time>
      </trkpt>
      <trkpt lat="43.6416" lon="1.23607">
        <ele>198.8</ele>
        <time>2025-10-18T09:14:01Z</time>
      </trkpt>
      <trkpt lat="43.64157" lon="1.23601">
        <ele>199</ele>
        <time>2025-10-18T09:14:02Z</time>
      </trkpt>
      <trkpt lat="43.64155" lon="1.23596">
        <ele>199.2</ele>
        <time>2025-10-18T09:14:03Z</time>
      </trkpt>
      <trkpt lat="43.64153" lon="1.2359">
        <ele>199.4</ele>
        <time>2025-10-18T09:14:04Z</time>
      </trkpt>
      <trkpt lat="43.64151" lon="1.23585">
        <ele>199.8</ele>
        <time>2025-10-18T09:14:05Z</time>
      </trkpt>
      <trkpt lat="43.64149" lon="1.23579">
        <ele>199.8</ele>
        <time>2025-10-18T09:14:06Z</time>
      </trkpt>
      <trkpt lat="43.64147" lon="1.23573">
        <ele>200.2</ele>
        <time>2025-10-18T09:14:07Z</time>
      </trkpt>
      <trkpt lat="43.64145" lon="1.23567">
        <ele>200.4</ele>
        <time>2025-10-18T09:14:08Z</time>
      </trkpt>
      <trkpt lat="43.64143" lon="1.23562">
        <ele>200.4</ele>
        <time>2025-10-18T09:14:09Z</time>
      </trkpt>
      <trkpt lat="43.64141" lon="1.23556">
        <ele>200.6</ele>
        <time>2025-10-18T09:14:10Z</time>
      </trkpt>
      <trkpt lat="43.64139" lon="1.2355">
        <ele>200.6</ele>
        <time>2025-10-18T09:14:11Z</time>
      </trkpt>
      <trkpt lat="43.64137" lon="1.23544">
        <ele>200.8</ele>
        <time>2025-10-18T09:14:12Z</time>
      </trkpt>
      <trkpt lat="43.64134" lon="1.23538">
        <ele>200.8</ele>
        <time>2025-10-18T09:14:13Z</time>
      </trkpt>
      <trkpt lat="43.64131" lon="1.23533">
        <ele>201</ele>
        <time>2025-10-18T09:14:14Z</time>
      </trkpt>
      <trkpt lat="43.64127" lon="1.23531">
        <ele>201</ele>
        <time>2025-10-18T09:14:15Z</time>
      </trkpt>
      <trkpt lat="43.64122" lon="1.23531">
        <ele>201</ele>
        <time>2025-10-18T09:14:16Z</time>
      </trkpt>
      <trkpt lat="43.64118" lon="1.23532">
        <ele>201</ele>
        <time>2025-10-18T09:14:17Z</time>
      </trkpt>
      <trkpt lat="43.64114" lon="1.23534">
        <ele>201.2</ele>
        <time>2025-10-18T09:14:18Z</time>
      </trkpt>
      <trkpt lat="43.64112" lon="1.23536">
        <ele>201.2</ele>
        <time>2025-10-18T09:14:19Z</time>
      </trkpt>
      <trkpt lat="43.64109" lon="1.23539">
        <ele>201.2</ele>
        <time>2025-10-18T09:14:20Z</time>
      </trkpt>
      <trkpt lat="43.64108" lon="1.2354">
        <ele>201.4</ele>
        <time>2025-10-18T09:14:21Z</time>
      </trkpt>
      <trkpt lat="43.64107" lon="1.23541">
        <ele>201.4</ele>
        <time>2025-10-18T09:14:22Z</time>
      </trkpt>
      <trkpt lat="43.64106" lon="1.23542">
        <ele>201.6</ele>
        <time>2025-10-18T09:14:23Z</time>
      </trkpt>
      <trkpt lat="43.64106" lon="1.23542">
        <ele>201.6</ele>
        <time>2025-10-18T09:14:24Z</time>
      </trkpt>
      <trkpt lat="43.64107" lon="1.23542">
        <ele>201.6</ele>
        <time>2025-10-18T09:14:25Z</time>
      </trkpt>
      <trkpt lat="43.64106" lon="1.23543">
        <ele>201.8</ele>
        <time>2025-10-18T09:14:26Z</time>
      </trkpt>
      <trkpt lat="43.64106" lon="1.23543">
        <ele>201.8</ele>
        <time>2025-10-18T09:14:27Z</time>
      </trkpt>
      <trkpt lat="43.64106" lon="1.23543">
        <ele>201.8</ele>
        <time>2025-10-18T09:14:28Z</time>
      </trkpt>
      <trkpt lat="43.64105" lon="1.23544">
        <ele>201.8</ele>
        <time>2025-10-18T09:14:29Z</time>
      </trkpt>
      <trkpt lat="43.64105" lon="1.23544">
        <ele>201.6</ele>
        <time>2025-10-18T09:14:30Z</time>
      </trkpt>
      <trkpt lat="43.64105" lon="1.23544">
        <ele>201.6</ele>
        <time>2025-10-18T09:14:31Z</time>
      </trkpt>
      <trkpt lat="43.64099" lon="1.2355">
        <ele>202</ele>
        <time>2025-10-18T09:15:49Z</time>
      </trkpt>
      <trkpt lat="43.64097" lon="1.23551">
        <ele>201.8</ele>
        <time>2025-10-18T09:15:50Z</time>
      </trkpt>
      <trkpt lat="43.64095" lon="1.23553">
        <ele>201.6</ele>
        <time>2025-10-18T09:15:51Z</time>
      </trkpt>
      <trkpt lat="43.64091" lon="1.23556">
        <ele>201.4</ele>
        <time>2025-10-18T09:15:52Z</time>
      </trkpt>
      <trkpt lat="43.64087" lon="1.2356">
        <ele>201.2</ele>
        <time>2025-10-18T09:15:53Z</time>
      </trkpt>
      <trkpt lat="43.64083" lon="1.23566">
        <ele>200.6</ele>
        <time>2025-10-18T09:15:54Z</time>
      </trkpt>
      <trkpt lat="43.64078" lon="1.23571">
        <ele>200.4</ele>
        <time>2025-10-18T09:15:55Z</time>
      </trkpt>
      <trkpt lat="43.64073" lon="1.23577">
        <ele>200</ele>
        <time>2025-10-18T09:15:56Z</time>
      </trkpt>
      <trkpt lat="43.64069" lon="1.23583">
        <ele>199.6</ele>
        <time>2025-10-18T09:15:57Z</time>
      </trkpt>
      <trkpt lat="43.64064" lon="1.23587">
        <ele>199.2</ele>
        <time>2025-10-18T09:15:58Z</time>
      </trkpt>
      <trkpt lat="43.64059" lon="1.23592">
        <ele>199</ele>
        <time>2025-10-18T09:15:59Z</time>
      </trkpt>
      <trkpt lat="43.64054" lon="1.23598">
        <ele>198.8</ele>
        <time>2025-10-18T09:16:00Z</time>
      </trkpt>
      <trkpt lat="43.64049" lon="1.23603">
        <ele>198.4</ele>
        <time>2025-10-18T09:16:01Z</time>
      </trkpt>
      <trkpt lat="43.64044" lon="1.23609">
        <ele>198.2</ele>
        <time>2025-10-18T09:16:02Z</time>
      </trkpt>
      <trkpt lat="43.64038" lon="1.23615">
        <ele>198</ele>
        <time>2025-10-18T09:16:03Z</time>
      </trkpt>
      <trkpt lat="43.64033" lon="1.23622">
        <ele>197.8</ele>
        <time>2025-10-18T09:16:04Z</time>
      </trkpt>
      <trkpt lat="43.64027" lon="1.23629">
        <ele>197.4</ele>
        <time>2025-10-18T09:16:05Z</time>
      </trkpt>
      <trkpt lat="43.64021" lon="1.23636">
        <ele>197</ele>
        <time>2025-10-18T09:16:06Z</time>
      </trkpt>
      <trkpt lat="43.64014" lon="1.23643">
        <ele>196.8</ele>
        <time>2025-10-18T09:16:07Z</time>
      </trkpt>
      <trkpt lat="43.64008" lon="1.23651">
        <ele>196.4</ele>
        <time>2025-10-18T09:16:08Z</time>
      </trkpt>
      <trkpt lat="43.64002" lon="1.23659">
        <ele>196.2</ele>
        <time>2025-10-18T09:16:09Z</time>
      </trkpt>
      <trkpt lat="43.63996" lon="1.23667">
        <ele>196</ele>
        <time>2025-10-18T09:16:10Z</time>
      </trkpt>
      <trkpt lat="43.63989" lon="1.23675">
        <ele>196</ele>
        <time>2025-10-18T09:16:11Z</time>
      </trkpt>
      <trkpt lat="43.63982" lon="1.23683">
        <ele>195.8</ele>
        <time>2025-10-18T09:16:12Z</time>
      </trkpt>
      <trkpt lat="43.63976" lon="1.23691">
        <ele>196</ele>
        <time>2025-10-18T09:16:13Z</time>
      </trkpt>
      <trkpt lat="43.63969" lon="1.23698">
        <ele>196.2</ele>
        <time>2025-10-18T09:16:14Z</time>
      </trkpt>
      <trkpt lat="43.63962" lon="1.23706">
        <ele>196</ele>
        <time>2025-10-18T09:16:15Z</time>
      </trkpt>
      <trkpt lat="43.63956" lon="1.23713">
        <ele>195.8</ele>
        <time>2025-10-18T09:16:16Z</time>
      </trkpt>
      <trkpt lat="43.63949" lon="1.2372">
        <ele>195.6</ele>
        <time>2025-10-18T09:16:17Z</time>
      </trkpt>
      <trkpt lat="43.63943" lon="1.23728">
        <ele>195.2</ele>
        <time>2025-10-18T09:16:18Z</time>
      </trkpt>
      <trkpt lat="43.63937" lon="1.23735">
        <ele>195</ele>
        <time>2025-10-18T09:16:19Z</time>
      </trkpt>
      <trkpt lat="43.63931" lon="1.23743">
        <ele>194.8</ele>
        <time>2025-10-18T09:16:20Z</time>
      </trkpt>
      <trkpt lat="43.63924" lon="1.23749">
        <ele>194.8</ele>
        <time>2025-10-18T09:16:21Z</time>
      </trkpt>
      <trkpt lat="43.63918" lon="1.23756">
        <ele>194.8</ele>
        <time>2025-10-18T09:16:22Z</time>
      </trkpt>
      <trkpt lat="43.63913" lon="1.23762">
        <ele>194.8</ele>
        <time>2025-10-18T09:16:23Z</time>
      </trkpt>
      <trkpt lat="43.63908" lon="1.23768">
        <ele>195</ele>
        <time>2025-10-18T09:16:24Z</time>
      </trkpt>
      <trkpt lat="43.63902" lon="1.23774">
        <ele>195</ele>
        <time>2025-10-18T09:16:25Z</time>
      </trkpt>
      <trkpt lat="43.63896" lon="1.23781">
        <ele>195</ele>
        <time>2025-10-18T09:16:26Z</time>
      </trkpt>
      <trkpt lat="43.6389" lon="1.23789">
        <ele>194.8</ele>
        <time>2025-10-18T09:16:27Z</time>
      </trkpt>
      <trkpt lat="43.63884" lon="1.23796">
        <ele>194.6</ele>
        <time>2025-10-18T09:16:28Z</time>
      </trkpt>
      <trkpt lat="43.63877" lon="1.23803">
        <ele>194.4</ele>
        <time>2025-10-18T09:16:29Z</time>
      </trkpt>
      <trkpt lat="43.63872" lon="1.23811">
        <ele>194.2</ele>
        <time>2025-10-18T09:16:30Z</time>
      </trkpt>
      <trkpt lat="43.63866" lon="1.23818">
        <ele>194</ele>
        <time>2025-10-18T09:16:31Z</time>
      </trkpt>
      <trkpt lat="43.63859" lon="1.23825">
        <ele>193.6</ele>
        <time>2025-10-18T09:16:32Z</time>
      </trkpt>
      <trkpt lat="43.63853" lon="1.23833">
        <ele>193.4</ele>
        <time>2025-10-18T09:16:33Z</time>
      </trkpt>
      <trkpt lat="43.63846" lon="1.2384">
        <ele>193.2</ele>
        <time>2025-10-18T09:16:34Z</time>
      </trkpt>
      <trkpt lat="43.63839" lon="1.23848">
        <ele>193</ele>
        <time>2025-10-18T09:16:35Z</time>
      </trkpt>
      <trkpt lat="43.63833" lon="1.23855">
        <ele>192.8</ele>
        <time>2025-10-18T09:16:36Z</time>
      </trkpt>
      <trkpt lat="43.63827" lon="1.23862">
        <ele>192.8</ele>
        <time>2025-10-18T09:16:37Z</time>
      </trkpt>
      <trkpt lat="43.63821" lon="1.23869">
        <ele>192.6</ele>
        <time>2025-10-18T09:16:38Z</time>
      </trkpt>
      <trkpt lat="43.63815" lon="1.23877">
        <ele>192.6</ele>
        <time>2025-10-18T09:16:39Z</time>
      </trkpt>
      <trkpt lat="43.63808" lon="1.23884">
        <ele>192.6</ele>
        <time>2025-10-18T09:16:40Z</time>
      </trkpt>
      <trkpt lat="43.63802" lon="1.23891">
        <ele>192.4</ele>
        <time>2025-10-18T09:16:41Z</time>
      </trkpt>
      <trkpt lat="43.63796" lon="1.23898">
        <ele>192.4</ele>
        <time>2025-10-18T09:16:42Z</time>
      </trkpt>
      <trkpt lat="43.6379" lon="1.23904">
        <ele>192.4</ele>
        <time>2025-10-18T09:16:43Z</time>
      </trkpt>
      <trkpt lat="43.63784" lon="1.23911">
        <ele>192.2</ele>
        <time>2025-10-18T09:16:44Z</time>
      </trkpt>
      <trkpt lat="43.63778" lon="1.23918">
        <ele>192.2</ele>
        <time>2025-10-18T09:16:45Z</time>
      </trkpt>
      <trkpt lat="43.63771" lon="1.23926">
        <ele>192.2</ele>
        <time>2025-10-18T09:16:46Z</time>
      </trkpt>
      <trkpt lat="43.63765" lon="1.23933">
        <ele>192.2</ele>
        <time>2025-10-18T09:16:47Z</time>
      </trkpt>
      <trkpt lat="43.63759" lon="1.2394">
        <ele>192</ele>
        <time>2025-10-18T09:16:48Z</time>
      </trkpt>
      <trkpt lat="43.63753" lon="1.23948">
        <ele>192</ele>
        <time>2025-10-18T09:16:49Z</time>
      </trkpt>
      <trkpt lat="43.63747" lon="1.23955">
        <ele>192</ele>
        <time>2025-10-18T09:16:50Z</time>
      </trkpt>
      <trkpt lat="43.63741" lon="1.23962">
        <ele>192</ele>
        <time>2025-10-18T09:16:51Z</time>
      </trkpt>
      <trkpt lat="43.63735" lon="1.23968">
        <ele>192</ele>
        <time>2025-10-18T09:16:52Z</time>
      </trkpt>
      <trkpt lat="43.63729" lon="1.23975">
        <ele>192</ele>
        <time>2025-10-18T09:16:53Z</time>
      </trkpt>
      <trkpt lat="43.63723" lon="1.23982">
        <ele>192</ele>
        <time>2025-10-18T09:16:54Z</time>
      </trkpt>
      <trkpt lat="43.63717" lon="1.23989">
        <ele>192</ele>
        <time>2025-10-18T09:16:55Z</time>
      </trkpt>
      <trkpt lat="43.63712" lon="1.23996">
        <ele>192</ele>
        <time>2025-10-18T09:16:56Z</time>
      </trkpt>
      <trkpt lat="43.63706" lon="1.24003">
        <ele>191.8</ele>
        <time>2025-10-18T09:16:57Z</time>
      </trkpt>
      <trkpt lat="43.63701" lon="1.2401">
        <ele>191.8</ele>
        <time>2025-10-18T09:16:58Z</time>
      </trkpt>
      <trkpt lat="43.63695" lon="1.24017">
        <ele>191.8</ele>
        <time>2025-10-18T09:16:59Z</time>
      </trkpt>
      <trkpt lat="43.63689" lon="1.24024">
        <ele>191.8</ele>
        <time>2025-10-18T09:17:00Z</time>
      </trkpt>
      <trkpt lat="43.63683" lon="1.2403">
        <ele>191.8</ele>
        <time>2025-10-18T09:17:01Z</time>
      </trkpt>
      <trkpt lat="43.63677" lon="1.24036">
        <ele>191.8</ele>
        <time>2025-10-18T09:17:02Z</time>
      </trkpt>
      <trkpt lat="43.63671" lon="1.24043">
        <ele>191.8</ele>
        <time>2025-10-18T09:17:03Z</time>
      </trkpt>
      <trkpt lat="43.63666" lon="1.24049">
        <ele>191.8</ele>
        <time>2025-10-18T09:17:04Z</time>
      </trkpt>
      <trkpt lat="43.63661" lon="1.24056">
        <ele>191.8</ele>
        <time>2025-10-18T09:17:05Z</time>
      </trkpt>
      <trkpt lat="43.63655" lon="1.24062">
        <ele>191.8</ele>
        <time>2025-10-18T09:17:06Z</time>
      </trkpt>
      <trkpt lat="43.6365" lon="1.24068">
        <ele>191.8</ele>
        <time>2025-10-18T09:17:07Z</time>
      </trkpt>
      <trkpt lat="43.63646" lon="1.24075">
        <ele>191.8</ele>
        <time>2025-10-18T09:17:08Z</time>
      </trkpt>
      <trkpt lat="43.63642" lon="1.24082">
        <ele>191.8</ele>
        <time>2025-10-18T09:17:09Z</time>
      </trkpt>
      <trkpt lat="43.6364" lon="1.24091">
        <ele>191.8</ele>
        <time>2025-10-18T09:17:10Z</time>
      </trkpt>
      <trkpt lat="43.6364" lon="1.24099">
        <ele>191.6</ele>
        <time>2025-10-18T09:17:11Z</time>
      </trkpt>
      <trkpt lat="43.63643" lon="1.24106">
        <ele>191.6</ele>
        <time>2025-10-18T09:17:12Z</time>
      </trkpt>
      <trkpt lat="43.63646" lon="1.24111">
        <ele>191.6</ele>
        <time>2025-10-18T09:17:13Z</time>
      </trkpt>
      <trkpt lat="43.63649" lon="1.24116">
        <ele>191.4</ele>
        <time>2025-10-18T09:17:14Z</time>
      </trkpt>
      <trkpt lat="43.63649" lon="1.24123">
        <ele>191.6</ele>
        <time>2025-10-18T09:17:15Z</time>
      </trkpt>
      <trkpt lat="43.63648" lon="1.2413">
        <ele>191.6</ele>
        <time>2025-10-18T09:17:16Z</time>
      </trkpt>
      <trkpt lat="43.63647" lon="1.24137">
        <ele>191.4</ele>
        <time>2025-10-18T09:17:17Z</time>
      </trkpt>
      <trkpt lat="43.63647" lon="1.24144">
        <ele>191.4</ele>
        <time>2025-10-18T09:17:18Z</time>
      </trkpt>
      <trkpt lat="43.63646" lon="1.24152">
        <ele>191.2</ele>
        <time>2025-10-18T09:17:19Z</time>
      </trkpt>
      <trkpt lat="43.63644" lon="1.24161">
        <ele>191</ele>
        <time>2025-10-18T09:17:20Z</time>
      </trkpt>
      <trkpt lat="43.63642" lon="1.24169">
        <ele>191</ele>
        <time>2025-10-18T09:17:21Z</time>
      </trkpt>
      <trkpt lat="43.63641" lon="1.24176">
        <ele>190.8</ele>
        <time>2025-10-18T09:17:22Z</time>
      </trkpt>
      <trkpt lat="43.6364" lon="1.24184">
        <ele>191</ele>
        <time>2025-10-18T09:17:23Z</time>
      </trkpt>
      <trkpt lat="43.63638" lon="1.24191">
        <ele>191</ele>
        <time>2025-10-18T09:17:24Z</time>
      </trkpt>
      <trkpt lat="43.63635" lon="1.24195">
        <ele>191.2</ele>
        <time>2025-10-18T09:17:25Z</time>
      </trkpt>
      <trkpt lat="43.63631" lon="1.24196">
        <ele>191.2</ele>
        <time>2025-10-18T09:17:26Z</time>
      </trkpt>
      <trkpt lat="43.63628" lon="1.24198">
        <ele>191.2</ele>
        <time>2025-10-18T09:17:27Z</time>
      </trkpt>
      <trkpt lat="43.63624" lon="1.242">
        <ele>191.2</ele>
        <time>2025-10-18T09:17:28Z</time>
      </trkpt>
      <trkpt lat="43.63623" lon="1.24204">
        <ele>191.2</ele>
        <time>2025-10-18T09:17:29Z</time>
      </trkpt>
      <trkpt lat="43.6362" lon="1.24205">
        <ele>191.2</ele>
        <time>2025-10-18T09:17:30Z</time>
      </trkpt>
      <trkpt lat="43.63616" lon="1.24206">
        <ele>191.2</ele>
        <time>2025-10-18T09:17:31Z</time>
      </trkpt>
      <trkpt lat="43.63611" lon="1.24206">
        <ele>191</ele>
        <time>2025-10-18T09:17:32Z</time>
      </trkpt>
      <trkpt lat="43.63606" lon="1.24205">
        <ele>191</ele>
        <time>2025-10-18T09:17:33Z</time>
      </trkpt>
      <trkpt lat="43.636" lon="1.24204">
        <ele>190.8</ele>
        <time>2025-10-18T09:17:34Z</time>
      </trkpt>
      <trkpt lat="43.63594" lon="1.24204">
        <ele>190.6</ele>
        <time>2025-10-18T09:17:35Z</time>
      </trkpt>
      <trkpt lat="43.63588" lon="1.24206">
        <ele>190.4</ele>
        <time>2025-10-18T09:17:36Z</time>
      </trkpt>
      <trkpt lat="43.63581" lon="1.24206">
        <ele>190.2</ele>
        <time>2025-10-18T09:17:37Z</time>
      </trkpt>
      <trkpt lat="43.63574" lon="1.24206">
        <ele>190.2</ele>
        <time>2025-10-18T09:17:38Z</time>
      </trkpt>
      <trkpt lat="43.63566" lon="1.24206">
        <ele>190</ele>
        <time>2025-10-18T09:17:39Z</time>
      </trkpt>
      <trkpt lat="43.63558" lon="1.24207">
        <ele>189.8</ele>
        <time>2025-10-18T09:17:40Z</time>
      </trkpt>
      <trkpt lat="43.6355" lon="1.24208">
        <ele>189.4</ele>
        <time>2025-10-18T09:17:41Z</time>
      </trkpt>
      <trkpt lat="43.63542" lon="1.24209">
        <ele>189.2</ele>
        <time>2025-10-18T09:17:42Z</time>
      </trkpt>
      <trkpt lat="43.63534" lon="1.24211">
        <ele>189</ele>
        <time>2025-10-18T09:17:43Z</time>
      </trkpt>
      <trkpt lat="43.63526" lon="1.24214">
        <ele>188.8</ele>
        <time>2025-10-18T09:17:44Z</time>
      </trkpt>
      <trkpt lat="43.63518" lon="1.24217">
        <ele>188.6</ele>
        <time>2025-10-18T09:17:45Z</time>
      </trkpt>
      <trkpt lat="43.63511" lon="1.2422">
        <ele>188.4</ele>
        <time>2025-10-18T09:17:46Z</time>
      </trkpt>
      <trkpt lat="43.63504" lon="1.24225">
        <ele>188.4</ele>
        <time>2025-10-18T09:17:47Z</time>
      </trkpt>
      <trkpt lat="43.63498" lon="1.24231">
        <ele>188.4</ele>
        <time>2025-10-18T09:17:48Z</time>
      </trkpt>
      <trkpt lat="43.63493" lon="1.24238">
        <ele>188.6</ele>
        <time>2025-10-18T09:17:49Z</time>
      </trkpt>
      <trkpt lat="43.63488" lon="1.24245">
        <ele>188.6</ele>
        <time>2025-10-18T09:17:50Z</time>
      </trkpt>
      <trkpt lat="43.63483" lon="1.24252">
        <ele>188.6</ele>
        <time>2025-10-18T09:17:51Z</time>
      </trkpt>
      <trkpt lat="43.63477" lon="1.24258">
        <ele>188.6</ele>
        <time>2025-10-18T09:17:52Z</time>
      </trkpt>
      <trkpt lat="43.63471" lon="1.24265">
        <ele>188.6</ele>
        <time>2025-10-18T09:17:53Z</time>
      </trkpt>
      <trkpt lat="43.63466" lon="1.2427">
        <ele>188.8</ele>
        <time>2025-10-18T09:17:54Z</time>
      </trkpt>
      <trkpt lat="43.6346" lon="1.24277">
        <ele>188.8</ele>
        <time>2025-10-18T09:17:55Z</time>
      </trkpt>
      <trkpt lat="43.63455" lon="1.24283">
        <ele>189</ele>
        <time>2025-10-18T09:17:56Z</time>
      </trkpt>
      <trkpt lat="43.6345" lon="1.2429">
        <ele>189</ele>
        <time>2025-10-18T09:17:57Z</time>
      </trkpt>
      <trkpt lat="43.63445" lon="1.24296">
        <ele>189</ele>
        <time>2025-10-18T09:17:58Z</time>
      </trkpt>
      <trkpt lat="43.63439" lon="1.24302">
        <ele>188.8</ele>
        <time>2025-10-18T09:17:59Z</time>
      </trkpt>
      <trkpt lat="43.63434" lon="1.24308">
        <ele>188.8</ele>
        <time>2025-10-18T09:18:00Z</time>
      </trkpt>
      <trkpt lat="43.6343" lon="1.24315">
        <ele>188.8</ele>
        <time>2025-10-18T09:18:01Z</time>
      </trkpt>
      <trkpt lat="43.63426" lon="1.24322">
        <ele>188.8</ele>
        <time>2025-10-18T09:18:02Z</time>
      </trkpt>
      <trkpt lat="43.63422" lon="1.24331">
        <ele>189</ele>
        <time>2025-10-18T09:18:03Z</time>
      </trkpt>
      <trkpt lat="43.63419" lon="1.24339">
        <ele>189</ele>
        <time>2025-10-18T09:18:04Z</time>
      </trkpt>
      <trkpt lat="43.63416" lon="1.24349">
        <ele>189</ele>
        <time>2025-10-18T09:18:05Z</time>
      </trkpt>
      <trkpt lat="43.63413" lon="1.24358">
        <ele>189</ele>
        <time>2025-10-18T09:18:06Z</time>
      </trkpt>
      <trkpt lat="43.6341" lon="1.24368">
        <ele>189</ele>
        <time>2025-10-18T09:18:07Z</time>
      </trkpt>
      <trkpt lat="43.63408" lon="1.24377">
        <ele>189.2</ele>
        <time>2025-10-18T09:18:08Z</time>
      </trkpt>
      <trkpt lat="43.63406" lon="1.24387">
        <ele>189.2</ele>
        <time>2025-10-18T09:18:09Z</time>
      </trkpt>
      <trkpt lat="43.63404" lon="1.24396">
        <ele>189.4</ele>
        <time>2025-10-18T09:18:10Z</time>
      </trkpt>
      <trkpt lat="43.63402" lon="1.24407">
        <ele>189.4</ele>
        <time>2025-10-18T09:18:11Z</time>
      </trkpt>
      <trkpt lat="43.63399" lon="1.24417">
        <ele>189.4</ele>
        <time>2025-10-18T09:18:12Z</time>
      </trkpt>
      <trkpt lat="43.63397" lon="1.24427">
        <ele>189.2</ele>
        <time>2025-10-18T09:18:13Z</time>
      </trkpt>
      <trkpt lat="43.63394" lon="1.24437">
        <ele>188.8</ele>
        <time>2025-10-18T09:18:14Z</time>
      </trkpt>
      <trkpt lat="43.63392" lon="1.24447">
        <ele>188.6</ele>
        <time>2025-10-18T09:18:15Z</time>
      </trkpt>
      <trkpt lat="43.63389" lon="1.24457">
        <ele>188.4</ele>
        <time>2025-10-18T09:18:16Z</time>
      </trkpt>
      <trkpt lat="43.63387" lon="1.24467">
        <ele>188.2</ele>
        <time>2025-10-18T09:18:17Z</time>
      </trkpt>
      <trkpt lat="43.63384" lon="1.24477">
        <ele>188.2</ele>
        <time>2025-10-18T09:18:18Z</time>
      </trkpt>
      <trkpt lat="43.63382" lon="1.24487">
        <ele>188.2</ele>
        <time>2025-10-18T09:18:19Z</time>
      </trkpt>
      <trkpt lat="43.63379" lon="1.24497">
        <ele>188.2</ele>
        <time>2025-10-18T09:18:20Z</time>
      </trkpt>
      <trkpt lat="43.63377" lon="1.24507">
        <ele>188.2</ele>
        <time>2025-10-18T09:18:21Z</time>
      </trkpt>
      <trkpt lat="43.63375" lon="1.24517">
        <ele>188.2</ele>
        <time>2025-10-18T09:18:22Z</time>
      </trkpt>
      <trkpt lat="43.63372" lon="1.24528">
        <ele>188.2</ele>
        <time>2025-10-18T09:18:23Z</time>
      </trkpt>
      <trkpt lat="43.6337" lon="1.24538">
        <ele>188.2</ele>
        <time>2025-10-18T09:18:24Z</time>
      </trkpt>
      <trkpt lat="43.63367" lon="1.24549">
        <ele>188.2</ele>
        <time>2025-10-18T09:18:25Z</time>
      </trkpt>
      <trkpt lat="43.63365" lon="1.24559">
        <ele>188.2</ele>
        <time>2025-10-18T09:18:26Z</time>
      </trkpt>
      <trkpt lat="43.63362" lon="1.24569">
        <ele>188.2</ele>
        <time>2025-10-18T09:18:27Z</time>
      </trkpt>
      <trkpt lat="43.6336" lon="1.24578">
        <ele>188.2</ele>
        <time>2025-10-18T09:18:28Z</time>
      </trkpt>
      <trkpt lat="43.63357" lon="1.24588">
        <ele>188.2</ele>
        <time>2025-10-18T09:18:29Z</time>
      </trkpt>
      <trkpt lat="43.63355" lon="1.24596">
        <ele>188</ele>
        <time>2025-10-18T09:18:30Z</time>
      </trkpt>
      <trkpt lat="43.63353" lon="1.24604">
        <ele>188</ele>
        <time>2025-10-18T09:18:31Z</time>
      </trkpt>
      <trkpt lat="43.63351" lon="1.24613">
        <ele>188</ele>
        <time>2025-10-18T09:18:32Z</time>
      </trkpt>
      <trkpt lat="43.63348" lon="1.24621">
        <ele>188.2</ele>
        <time>2025-10-18T09:18:33Z</time>
      </trkpt>
      <trkpt lat="43.63346" lon="1.24629">
        <ele>188.4</ele>
        <time>2025-10-18T09:18:34Z</time>
      </trkpt>
      <trkpt lat="43.63344" lon="1.24636">
        <ele>188.8</ele>
        <time>2025-10-18T09:18:35Z</time>
      </trkpt>
      <trkpt lat="43.63342" lon="1.24645">
        <ele>189.2</ele>
        <time>2025-10-18T09:18:36Z</time>
      </trkpt>
      <trkpt lat="43.6334" lon="1.24653">
        <ele>189.4</ele>
        <time>2025-10-18T09:18:37Z</time>
      </trkpt>
      <trkpt lat="43.63338" lon="1.24661">
        <ele>189.4</ele>
        <time>2025-10-18T09:18:38Z</time>
      </trkpt>
      <trkpt lat="43.63337" lon="1.2467">
        <ele>189.4</ele>
        <time>2025-10-18T09:18:39Z</time>
      </trkpt>
      <trkpt lat="43.63336" lon="1.24678">
        <ele>189.4</ele>
        <time>2025-10-18T09:18:40Z</time>
      </trkpt>
      <trkpt lat="43.63335" lon="1.24687">
        <ele>189.4</ele>
        <time>2025-10-18T09:18:41Z</time>
      </trkpt>
      <trkpt lat="43.63335" lon="1.24696">
        <ele>189.2</ele>
        <time>2025-10-18T09:18:42Z</time>
      </trkpt>
      <trkpt lat="43.63335" lon="1.24704">
        <ele>189.4</ele>
        <time>2025-10-18T09:18:43Z</time>
      </trkpt>
      <trkpt lat="43.63335" lon="1.24713">
        <ele>189.4</ele>
        <time>2025-10-18T09:18:44Z</time>
      </trkpt>
      <trkpt lat="43.63335" lon="1.24722">
        <ele>189.4</ele>
        <time>2025-10-18T09:18:45Z</time>
      </trkpt>
      <trkpt lat="43.63335" lon="1.24732">
        <ele>189.4</ele>
        <time>2025-10-18T09:18:46Z</time>
      </trkpt>
      <trkpt lat="43.63335" lon="1.24741">
        <ele>189.4</ele>
        <time>2025-10-18T09:18:47Z</time>
      </trkpt>
      <trkpt lat="43.63335" lon="1.2475">
        <ele>189.4</ele>
        <time>2025-10-18T09:18:48Z</time>
      </trkpt>
      <trkpt lat="43.63334" lon="1.24759">
        <ele>189.4</ele>
        <time>2025-10-18T09:18:49Z</time>
      </trkpt>
      <trkpt lat="43.63334" lon="1.24767">
        <ele>189.4</ele>
        <time>2025-10-18T09:18:50Z</time>
      </trkpt>
      <trkpt lat="43.63334" lon="1.24776">
        <ele>189.2</ele>
        <time>2025-10-18T09:18:51Z</time>
      </trkpt>
      <trkpt lat="43.63333" lon="1.24785">
        <ele>189.2</ele>
        <time>2025-10-18T09:18:52Z</time>
      </trkpt>
      <trkpt lat="43.63333" lon="1.24795">
        <ele>189</ele>
        <time>2025-10-18T09:18:53Z</time>
      </trkpt>
      <trkpt lat="43.63333" lon="1.24804">
        <ele>188.8</ele>
        <time>2025-10-18T09:18:54Z</time>
      </trkpt>
      <trkpt lat="43.63333" lon="1.24813">
        <ele>188.8</ele>
        <time>2025-10-18T09:18:55Z</time>
      </trkpt>
      <trkpt lat="43.63333" lon="1.24822">
        <ele>188.6</ele>
        <time>2025-10-18T09:18:56Z</time>
      </trkpt>
      <trkpt lat="43.63333" lon="1.24832">
        <ele>188.4</ele>
        <time>2025-10-18T09:18:57Z</time>
      </trkpt>
      <trkpt lat="43.63333" lon="1.24841">
        <ele>188.4</ele>
        <time>2025-10-18T09:18:58Z</time>
      </trkpt>
      <trkpt lat="43.63333" lon="1.24851">
        <ele>188.2</ele>
        <time>2025-10-18T09:18:59Z</time>
      </trkpt>
      <trkpt lat="43.63333" lon="1.24862">
        <ele>188.2</ele>
        <time>2025-10-18T09:19:00Z</time>
      </trkpt>
      <trkpt lat="43.63334" lon="1.24872">
        <ele>188.2</ele>
        <time>2025-10-18T09:19:01Z</time>
      </trkpt>
      <trkpt lat="43.63334" lon="1.24883">
        <ele>188</ele>
        <time>2025-10-18T09:19:02Z</time>
      </trkpt>
      <trkpt lat="43.63335" lon="1.24894">
        <ele>188</ele>
        <time>2025-10-18T09:19:03Z</time>
      </trkpt>
      <trkpt lat="43.63335" lon="1.24905">
        <ele>187.6</ele>
        <time>2025-10-18T09:19:04Z</time>
      </trkpt>
      <trkpt lat="43.63335" lon="1.24917">
        <ele>187.4</ele>
        <time>2025-10-18T09:19:05Z</time>
      </trkpt>
      <trkpt lat="43.63336" lon="1.24928">
        <ele>187</ele>
        <time>2025-10-18T09:19:06Z</time>
      </trkpt>
      <trkpt lat="43.63336" lon="1.2494">
        <ele>187</ele>
        <time>2025-10-18T09:19:07Z</time>
      </trkpt>
      <trkpt lat="43.63336" lon="1.24952">
        <ele>186.6</ele>
        <time>2025-10-18T09:19:08Z</time>
      </trkpt>
      <trkpt lat="43.63337" lon="1.24963">
        <ele>186.4</ele>
        <time>2025-10-18T09:19:09Z</time>
      </trkpt>
      <trkpt lat="43.63337" lon="1.24974">
        <ele>186.2</ele>
        <time>2025-10-18T09:19:10Z</time>
      </trkpt>
      <trkpt lat="43.63338" lon="1.24985">
        <ele>186.2</ele>
        <time>2025-10-18T09:19:11Z</time>
      </trkpt>
      <trkpt lat="43.63339" lon="1.24996">
        <ele>186.2</ele>
        <time>2025-10-18T09:19:12Z</time>
      </trkpt>
      <trkpt lat="43.63339" lon="1.25006">
        <ele>186.2</ele>
        <time>2025-10-18T09:19:13Z</time>
      </trkpt>
      <trkpt lat="43.6334" lon="1.25017">
        <ele>186.2</ele>
        <time>2025-10-18T09:19:14Z</time>
      </trkpt>
      <trkpt lat="43.6334" lon="1.25027">
        <ele>186.4</ele>
        <time>2025-10-18T09:19:15Z</time>
      </trkpt>
      <trkpt lat="43.6334" lon="1.25038">
        <ele>186.4</ele>
        <time>2025-10-18T09:19:16Z</time>
      </trkpt>
      <trkpt lat="43.6334" lon="1.25049">
        <ele>186.4</ele>
        <time>2025-10-18T09:19:17Z</time>
      </trkpt>
      <trkpt lat="43.63341" lon="1.25059">
        <ele>186.4</ele>
        <time>2025-10-18T09:19:18Z</time>
      </trkpt>
      <trkpt lat="43.63341" lon="1.25069">
        <ele>186.4</ele>
        <time>2025-10-18T09:19:19Z</time>
      </trkpt>
      <trkpt lat="43.63342" lon="1.2508">
        <ele>186.4</ele>
        <time>2025-10-18T09:19:20Z</time>
      </trkpt>
      <trkpt lat="43.63342" lon="1.25091">
        <ele>186.4</ele>
        <time>2025-10-18T09:19:21Z</time>
      </trkpt>
      <trkpt lat="43.63342" lon="1.25102">
        <ele>186.6</ele>
        <time>2025-10-18T09:19:22Z</time>
      </trkpt>
      <trkpt lat="43.63343" lon="1.25112">
        <ele>186.8</ele>
        <time>2025-10-18T09:19:23Z</time>
      </trkpt>
      <trkpt lat="43.63344" lon="1.25122">
        <ele>186.8</ele>
        <time>2025-10-18T09:19:24Z</time>
      </trkpt>
      <trkpt lat="43.63344" lon="1.25133">
        <ele>186.8</ele>
        <time>2025-10-18T09:19:25Z</time>
      </trkpt>
      <trkpt lat="43.63344" lon="1.25143">
        <ele>187</ele>
        <time>2025-10-18T09:19:26Z</time>
      </trkpt>
      <trkpt lat="43.63345" lon="1.25154">
        <ele>186.8</ele>
        <time>2025-10-18T09:19:27Z</time>
      </trkpt>
      <trkpt lat="43.63345" lon="1.25164">
        <ele>187</ele>
        <time>2025-10-18T09:19:28Z</time>
      </trkpt>
      <trkpt lat="43.63345" lon="1.25175">
        <ele>187</ele>
        <time>2025-10-18T09:19:29Z</time>
      </trkpt>
      <trkpt lat="43.63345" lon="1.25186">
        <ele>187.2</ele>
        <time>2025-10-18T09:19:30Z</time>
      </trkpt>
      <trkpt lat="43.63346" lon="1.25196">
        <ele>187.2</ele>
        <time>2025-10-18T09:19:31Z</time>
      </trkpt>
      <trkpt lat="43.63346" lon="1.25207">
        <ele>187</ele>
        <time>2025-10-18T09:19:32Z</time>
      </trkpt>
      <trkpt lat="43.63346" lon="1.25217">
        <ele>187</ele>
        <time>2025-10-18T09:19:33Z</time>
      </trkpt>
      <trkpt lat="43.63347" lon="1.25228">
        <ele>187</ele>
        <time>2025-10-18T09:19:34Z</time>
      </trkpt>
      <trkpt lat="43.63348" lon="1.25239">
        <ele>186.8</ele>
        <time>2025-10-18T09:19:35Z</time>
      </trkpt>
      <trkpt lat="43.6335" lon="1.2525">
        <ele>186.8</ele>
        <time>2025-10-18T09:19:36Z</time>
      </trkpt>
      <trkpt lat="43.63352" lon="1.2526">
        <ele>186.8</ele>
        <time>2025-10-18T09:19:37Z</time>
      </trkpt>
      <trkpt lat="43.63353" lon="1.25271">
        <ele>187</ele>
        <time>2025-10-18T09:19:38Z</time>
      </trkpt>
      <trkpt lat="43.63354" lon="1.25282">
        <ele>187</ele>
        <time>2025-10-18T09:19:39Z</time>
      </trkpt>
      <trkpt lat="43.63356" lon="1.25294">
        <ele>187.4</ele>
        <time>2025-10-18T09:19:40Z</time>
      </trkpt>
      <trkpt lat="43.63357" lon="1.25305">
        <ele>187.6</ele>
        <time>2025-10-18T09:19:41Z</time>
      </trkpt>
      <trkpt lat="43.63358" lon="1.25316">
        <ele>187.8</ele>
        <time>2025-10-18T09:19:42Z</time>
      </trkpt>
      <trkpt lat="43.6336" lon="1.25327">
        <ele>188</ele>
        <time>2025-10-18T09:19:43Z</time>
      </trkpt>
      <trkpt lat="43.63361" lon="1.25337">
        <ele>188.2</ele>
        <time>2025-10-18T09:19:44Z</time>
      </trkpt>
      <trkpt lat="43.63362" lon="1.25348">
        <ele>188.2</ele>
        <time>2025-10-18T09:19:45Z</time>
      </trkpt>
      <trkpt lat="43.63362" lon="1.2536">
        <ele>188.2</ele>
        <time>2025-10-18T09:19:46Z</time>
      </trkpt>
      <trkpt lat="43.63361" lon="1.25371">
        <ele>188</ele>
        <time>2025-10-18T09:19:47Z</time>
      </trkpt>
      <trkpt lat="43.6336" lon="1.25382">
        <ele>187.8</ele>
        <time>2025-10-18T09:19:48Z</time>
      </trkpt>
      <trkpt lat="43.63358" lon="1.25393">
        <ele>187.6</ele>
        <time>2025-10-18T09:19:49Z</time>
      </trkpt>
      <trkpt lat="43.63355" lon="1.25403">
        <ele>187.4</ele>
        <time>2025-10-18T09:19:50Z</time>
      </trkpt>
      <trkpt lat="43.63351" lon="1.25413">
        <ele>187.2</ele>
        <time>2025-10-18T09:19:51Z</time>
      </trkpt>
      <trkpt lat="43.63347" lon="1.25423">
        <ele>187.2</ele>
        <time>2025-10-18T09:19:52Z</time>
      </trkpt>
      <trkpt lat="43.63344" lon="1.25433">
        <ele>187</ele>
        <time>2025-10-18T09:19:53Z</time>
      </trkpt>
      <trkpt lat="43.6334" lon="1.25444">
        <ele>186.8</ele>
        <time>2025-10-18T09:19:54Z</time>
      </trkpt>
      <trkpt lat="43.63337" lon="1.25454">
        <ele>186.6</ele>
        <time>2025-10-18T09:19:55Z</time>
      </trkpt>
      <trkpt lat="43.63333" lon="1.25463">
        <ele>186.4</ele>
        <time>2025-10-18T09:19:56Z</time>
      </trkpt>
      <trkpt lat="43.63329" lon="1.25473">
        <ele>186.2</ele>
        <time>2025-10-18T09:19:57Z</time>
      </trkpt>
      <trkpt lat="43.63325" lon="1.25483">
        <ele>186.2</ele>
        <time>2025-10-18T09:19:58Z</time>
      </trkpt>
      <trkpt lat="43.63321" lon="1.25493">
        <ele>186.2</ele>
        <time>2025-10-18T09:19:59Z</time>
      </trkpt>
      <trkpt lat="43.63317" lon="1.25503">
        <ele>186</ele>
        <time>2025-10-18T09:20:00Z</time>
      </trkpt>
      <trkpt lat="43.63312" lon="1.25513">
        <ele>186</ele>
        <time>2025-10-18T09:20:01Z</time>
      </trkpt>
      <trkpt lat="43.63308" lon="1.25522">
        <ele>185.8</ele>
        <time>2025-10-18T09:20:02Z</time>
      </trkpt>
      <trkpt lat="43.63304" lon="1.25532">
        <ele>185.8</ele>
        <time>2025-10-18T09:20:03Z</time>
      </trkpt>
      <trkpt lat="43.633" lon="1.25542">
        <ele>185.8</ele>
        <time>2025-10-18T09:20:04Z</time>
      </trkpt>
      <trkpt lat="43.63295" lon="1.25552">
        <ele>186</ele>
        <time>2025-10-18T09:20:05Z</time>
      </trkpt>
      <trkpt lat="43.63291" lon="1.25561">
        <ele>186.2</ele>
        <time>2025-10-18T09:20:06Z</time>
      </trkpt>
      <trkpt lat="43.63287" lon="1.2557">
        <ele>186.4</ele>
        <time>2025-10-18T09:20:07Z</time>
      </trkpt>
      <trkpt lat="43.63283" lon="1.2558">
        <ele>186.6</ele>
        <time>2025-10-18T09:20:08Z</time>
      </trkpt>
      <trkpt lat="43.63279" lon="1.25589">
        <ele>186.8</ele>
        <time>2025-10-18T09:20:09Z</time>
      </trkpt>
      <trkpt lat="43.63275" lon="1.25599">
        <ele>187</ele>
        <time>2025-10-18T09:20:10Z</time>
      </trkpt>
      <trkpt lat="43.63272" lon="1.25608">
        <ele>187.4</ele>
        <time>2025-10-18T09:20:11Z</time>
      </trkpt>
      <trkpt lat="43.63267" lon="1.25618">
        <ele>187.6</ele>
        <time>2025-10-18T09:20:12Z</time>
      </trkpt>
      <trkpt lat="43.63263" lon="1.25627">
        <ele>187.6</ele>
        <time>2025-10-18T09:20:13Z</time>
      </trkpt>
      <trkpt lat="43.63259" lon="1.25636">
        <ele>187.8</ele>
        <time>2025-10-18T09:20:14Z</time>
      </trkpt>
      <trkpt lat="43.63256" lon="1.25646">
        <ele>187.8</ele>
        <time>2025-10-18T09:20:15Z</time>
      </trkpt>
      <trkpt lat="43.63252" lon="1.25656">
        <ele>188</ele>
        <time>2025-10-18T09:20:16Z</time>
      </trkpt>
      <trkpt lat="43.63248" lon="1.25666">
        <ele>188</ele>
        <time>2025-10-18T09:20:17Z</time>
      </trkpt>
      <trkpt lat="43.63244" lon="1.25676">
        <ele>188</ele>
        <time>2025-10-18T09:20:18Z</time>
      </trkpt>
      <trkpt lat="43.63241" lon="1.25686">
        <ele>187.8</ele>
        <time>2025-10-18T09:20:19Z</time>
      </trkpt>
      <trkpt lat="43.63238" lon="1.25697">
        <ele>187.8</ele>
        <time>2025-10-18T09:20:20Z</time>
      </trkpt>
      <trkpt lat="43.63234" lon="1.25707">
        <ele>187.6</ele>
        <time>2025-10-18T09:20:21Z</time>
      </trkpt>
      <trkpt lat="43.6323" lon="1.25717">
        <ele>187.6</ele>
        <time>2025-10-18T09:20:22Z</time>
      </trkpt>
      <trkpt lat="43.63227" lon="1.25728">
        <ele>187.8</ele>
        <time>2025-10-18T09:20:23Z</time>
      </trkpt>
      <trkpt lat="43.63224" lon="1.25738">
        <ele>188</ele>
        <time>2025-10-18T09:20:24Z</time>
      </trkpt>
      <trkpt lat="43.63221" lon="1.25747">
        <ele>188</ele>
        <time>2025-10-18T09:20:25Z</time>
      </trkpt>
      <trkpt lat="43.63218" lon="1.25757">
        <ele>188.2</ele>
        <time>2025-10-18T09:20:26Z</time>
      </trkpt>
      <trkpt lat="43.63216" lon="1.25767">
        <ele>188.2</ele>
        <time>2025-10-18T09:20:27Z</time>
      </trkpt>
      <trkpt lat="43.63213" lon="1.25776">
        <ele>188.4</ele>
        <time>2025-10-18T09:20:28Z</time>
      </trkpt>
      <trkpt lat="43.6321" lon="1.25786">
        <ele>188.4</ele>
        <time>2025-10-18T09:20:29Z</time>
      </trkpt>
      <trkpt lat="43.63207" lon="1.25796">
        <ele>188.4</ele>
        <time>2025-10-18T09:20:30Z</time>
      </trkpt>
      <trkpt lat="43.63204" lon="1.25805">
        <ele>188.6</ele>
        <time>2025-10-18T09:20:31Z</time>
      </trkpt>
      <trkpt lat="43.63202" lon="1.25815">
        <ele>188.4</ele>
        <time>2025-10-18T09:20:32Z</time>
      </trkpt>
      <trkpt lat="43.63199" lon="1.25826">
        <ele>188.4</ele>
        <time>2025-10-18T09:20:33Z</time>
      </trkpt>
      <trkpt lat="43.63197" lon="1.25837">
        <ele>188.4</ele>
        <time>2025-10-18T09:20:34Z</time>
      </trkpt>
      <trkpt lat="43.63195" lon="1.25848">
        <ele>188.2</ele>
        <time>2025-10-18T09:20:35Z</time>
      </trkpt>
      <trkpt lat="43.63193" lon="1.25859">
        <ele>188.2</ele>
        <time>2025-10-18T09:20:36Z</time>
      </trkpt>
      <trkpt lat="43.6319" lon="1.2587">
        <ele>188.2</ele>
        <time>2025-10-18T09:20:37Z</time>
      </trkpt>
      <trkpt lat="43.63188" lon="1.25881">
        <ele>188.2</ele>
        <time>2025-10-18T09:20:38Z</time>
      </trkpt>
      <trkpt lat="43.63186" lon="1.25892">
        <ele>188</ele>
        <time>2025-10-18T09:20:39Z</time>
      </trkpt>
      <trkpt lat="43.63184" lon="1.25903">
        <ele>188</ele>
        <time>2025-10-18T09:20:40Z</time>
      </trkpt>
      <trkpt lat="43.63181" lon="1.25914">
        <ele>187.8</ele>
        <time>2025-10-18T09:20:41Z</time>
      </trkpt>
      <trkpt lat="43.63179" lon="1.25925">
        <ele>187.8</ele>
        <time>2025-10-18T09:20:42Z</time>
      </trkpt>
      <trkpt lat="43.63177" lon="1.25936">
        <ele>187.6</ele>
        <time>2025-10-18T09:20:43Z</time>
      </trkpt>
      <trkpt lat="43.63174" lon="1.25946">
        <ele>187.8</ele>
        <time>2025-10-18T09:20:44Z</time>
      </trkpt>
      <trkpt lat="43.63172" lon="1.25957">
        <ele>187.8</ele>
        <time>2025-10-18T09:20:45Z</time>
      </trkpt>
      <trkpt lat="43.6317" lon="1.25967">
        <ele>187.8</ele>
        <time>2025-10-18T09:20:46Z</time>
      </trkpt>
      <trkpt lat="43.63168" lon="1.25978">
        <ele>187.8</ele>
        <time>2025-10-18T09:20:47Z</time>
      </trkpt>
      <trkpt lat="43.63166" lon="1.25988">
        <ele>188</ele>
        <time>2025-10-18T09:20:48Z</time>
      </trkpt>
      <trkpt lat="43.63163" lon="1.25999">
        <ele>188</ele>
        <time>2025-10-18T09:20:49Z</time>
      </trkpt>
      <trkpt lat="43.63161" lon="1.2601">
        <ele>188</ele>
        <time>2025-10-18T09:20:50Z</time>
      </trkpt>
      <trkpt lat="43.6316" lon="1.26021">
        <ele>188</ele>
        <time>2025-10-18T09:20:51Z</time>
      </trkpt>
      <trkpt lat="43.63158" lon="1.26031">
        <ele>188</ele>
        <time>2025-10-18T09:20:52Z</time>
      </trkpt>
      <trkpt lat="43.63157" lon="1.26042">
        <ele>187.8</ele>
        <time>2025-10-18T09:20:53Z</time>
      </trkpt>
      <trkpt lat="43.63155" lon="1.26052">
        <ele>187.8</ele>
        <time>2025-10-18T09:20:54Z</time>
      </trkpt>
      <trkpt lat="43.63154" lon="1.26062">
        <ele>188</ele>
        <time>2025-10-18T09:20:55Z</time>
      </trkpt>
      <trkpt lat="43.63153" lon="1.26073">
        <ele>188</ele>
        <time>2025-10-18T09:20:56Z</time>
      </trkpt>
      <trkpt lat="43.63152" lon="1.26085">
        <ele>188.2</ele>
        <time>2025-10-18T09:20:57Z</time>
      </trkpt>
      <trkpt lat="43.63152" lon="1.26096">
        <ele>188.2</ele>
        <time>2025-10-18T09:20:58Z</time>
      </trkpt>
      <trkpt lat="43.63151" lon="1.26108">
        <ele>188.4</ele>
        <time>2025-10-18T09:20:59Z</time>
      </trkpt>
      <trkpt lat="43.6315" lon="1.26119">
        <ele>188.4</ele>
        <time>2025-10-18T09:21:00Z</time>
      </trkpt>
      <trkpt lat="43.63149" lon="1.26131">
        <ele>188.4</ele>
        <time>2025-10-18T09:21:01Z</time>
      </trkpt>
      <trkpt lat="43.63148" lon="1.26142">
        <ele>188.2</ele>
        <time>2025-10-18T09:21:02Z</time>
      </trkpt>
      <trkpt lat="43.63147" lon="1.26154">
        <ele>188</ele>
        <time>2025-10-18T09:21:03Z</time>
      </trkpt>
      <trkpt lat="43.63147" lon="1.26165">
        <ele>187.8</ele>
        <time>2025-10-18T09:21:04Z</time>
      </trkpt>
      <trkpt lat="43.63146" lon="1.26176">
        <ele>187.6</ele>
        <time>2025-10-18T09:21:05Z</time>
      </trkpt>
      <trkpt lat="43.63145" lon="1.26186">
        <ele>187.6</ele>
        <time>2025-10-18T09:21:06Z</time>
      </trkpt>
      <trkpt lat="43.63145" lon="1.26196">
        <ele>187.6</ele>
        <time>2025-10-18T09:21:07Z</time>
      </trkpt>
      <trkpt lat="43.63144" lon="1.26204">
        <ele>187.6</ele>
        <time>2025-10-18T09:21:08Z</time>
      </trkpt>
      <trkpt lat="43.63144" lon="1.2621">
        <ele>187.8</ele>
        <time>2025-10-18T09:21:09Z</time>
      </trkpt>
      <trkpt lat="43.63144" lon="1.26216">
        <ele>187.8</ele>
        <time>2025-10-18T09:21:10Z</time>
      </trkpt>
      <trkpt lat="43.63143" lon="1.2622">
        <ele>188</ele>
        <time>2025-10-18T09:21:11Z</time>
      </trkpt>
      <trkpt lat="43.63141" lon="1.26224">
        <ele>188.2</ele>
        <time>2025-10-18T09:21:12Z</time>
      </trkpt>
      <trkpt lat="43.63138" lon="1.26225">
        <ele>188.2</ele>
        <time>2025-10-18T09:21:13Z</time>
      </trkpt>
      <trkpt lat="43.63136" lon="1.26224">
        <ele>188.4</ele>
        <time>2025-10-18T09:21:14Z</time>
      </trkpt>
      <trkpt lat="43.63133" lon="1.26222">
        <ele>188.6</ele>
        <time>2025-10-18T09:21:15Z</time>
      </trkpt>
      <trkpt lat="43.63131" lon="1.2622">
        <ele>188.8</ele>
        <time>2025-10-18T09:21:16Z</time>
      </trkpt>
      <trkpt lat="43.6313" lon="1.26218">
        <ele>188.8</ele>
        <time>2025-10-18T09:21:17Z</time>
      </trkpt>
      <trkpt lat="43.63128" lon="1.26216">
        <ele>189</ele>
        <time>2025-10-18T09:21:18Z</time>
      </trkpt>
      <trkpt lat="43.63127" lon="1.26215">
        <ele>189</ele>
        <time>2025-10-18T09:21:19Z</time>
      </trkpt>
      <trkpt lat="43.63125" lon="1.26213">
        <ele>189</ele>
        <time>2025-10-18T09:21:20Z</time>
      </trkpt>
      <trkpt lat="43.63124" lon="1.26211">
        <ele>189</ele>
        <time>2025-10-18T09:21:21Z</time>
      </trkpt>
      <trkpt lat="43.63122" lon="1.26211">
        <ele>189</ele>
        <time>2025-10-18T09:21:22Z</time>
      </trkpt>
      <trkpt lat="43.6312" lon="1.26209">
        <ele>189</ele>
        <time>2025-10-18T09:21:23Z</time>
      </trkpt>
      <trkpt lat="43.63119" lon="1.26208">
        <ele>189</ele>
        <time>2025-10-18T09:21:24Z</time>
      </trkpt>
      <trkpt lat="43.63116" lon="1.26207">
        <ele>189</ele>
        <time>2025-10-18T09:21:25Z</time>
      </trkpt>
      <trkpt lat="43.63115" lon="1.26205">
        <ele>189</ele>
        <time>2025-10-18T09:21:26Z</time>
      </trkpt>
      <trkpt lat="43.63113" lon="1.26204">
        <ele>189</ele>
        <time>2025-10-18T09:21:27Z</time>
      </trkpt>
      <trkpt lat="43.63112" lon="1.26202">
        <ele>189</ele>
        <time>2025-10-18T09:21:28Z</time>
      </trkpt>
      <trkpt lat="43.63111" lon="1.262">
        <ele>189</ele>
        <time>2025-10-18T09:21:29Z</time>
      </trkpt>
      <trkpt lat="43.6311" lon="1.26199">
        <ele>189</ele>
        <time>2025-10-18T09:21:30Z</time>
      </trkpt>
      <trkpt lat="43.63108" lon="1.26197">
        <ele>189</ele>
        <time>2025-10-18T09:21:31Z</time>
      </trkpt>
      <trkpt lat="43.63106" lon="1.26195">
        <ele>189.2</ele>
        <time>2025-10-18T09:21:32Z</time>
      </trkpt>
      <trkpt lat="43.63105" lon="1.26194">
        <ele>189.2</ele>
        <time>2025-10-18T09:21:33Z</time>
      </trkpt>
      <trkpt lat="43.63103" lon="1.26192">
        <ele>189.2</ele>
        <time>2025-10-18T09:21:34Z</time>
      </trkpt>
      <trkpt lat="43.63101" lon="1.2619">
        <ele>189.2</ele>
        <time>2025-10-18T09:21:35Z</time>
      </trkpt>
      <trkpt lat="43.631" lon="1.26188">
        <ele>189.2</ele>
        <time>2025-10-18T09:21:36Z</time>
      </trkpt>
      <trkpt lat="43.63098" lon="1.26186">
        <ele>189</ele>
        <time>2025-10-18T09:21:37Z</time>
      </trkpt>
      <trkpt lat="43.63096" lon="1.26184">
        <ele>189</ele>
        <time>2025-10-18T09:21:38Z</time>
      </trkpt>
      <trkpt lat="43.63094" lon="1.26183">
        <ele>188.8</ele>
        <time>2025-10-18T09:21:39Z</time>
      </trkpt>
      <trkpt lat="43.63092" lon="1.26181">
        <ele>188.8</ele>
        <time>2025-10-18T09:21:40Z</time>
      </trkpt>
      <trkpt lat="43.6309" lon="1.2618">
        <ele>188.8</ele>
        <time>2025-10-18T09:21:41Z</time>
      </trkpt>
      <trkpt lat="43.6309" lon="1.2618">
        <ele>188.8</ele>
        <time>2025-10-18T09:21:42Z</time>
      </trkpt>
      <trkpt lat="43.6309" lon="1.2618">
        <ele>188.8</ele>
        <time>2025-10-18T09:21:43Z</time>
      </trkpt>
      <trkpt lat="43.6309" lon="1.2618">
        <ele>188.8</ele>
        <time>2025-10-18T09:21:44Z</time>
      </trkpt>
      <trkpt lat="43.63086" lon="1.26177">
        <ele>188.8</ele>
        <time>2025-10-18T09:22:47Z</time>
      </trkpt>
      <trkpt lat="43.63084" lon="1.26176">
        <ele>188.8</ele>
        <time>2025-10-18T09:22:48Z</time>
      </trkpt>
      <trkpt lat="43.63083" lon="1.26174">
        <ele>188.8</ele>
        <time>2025-10-18T09:22:49Z</time>
      </trkpt>
      <trkpt lat="43.63081" lon="1.26172">
        <ele>188.8</ele>
        <time>2025-10-18T09:22:50Z</time>
      </trkpt>
      <trkpt lat="43.63079" lon="1.2617">
        <ele>188.8</ele>
        <time>2025-10-18T09:22:51Z</time>
      </trkpt>
      <trkpt lat="43.63076" lon="1.26168">
        <ele>188.8</ele>
        <time>2025-10-18T09:22:52Z</time>
      </trkpt>
      <trkpt lat="43.63074" lon="1.26166">
        <ele>188.6</ele>
        <time>2025-10-18T09:22:53Z</time>
      </trkpt>
      <trkpt lat="43.63072" lon="1.26163">
        <ele>188.6</ele>
        <time>2025-10-18T09:22:54Z</time>
      </trkpt>
      <trkpt lat="43.63069" lon="1.26161">
        <ele>188.6</ele>
        <time>2025-10-18T09:22:55Z</time>
      </trkpt>
      <trkpt lat="43.63066" lon="1.26158">
        <ele>188.6</ele>
        <time>2025-10-18T09:22:56Z</time>
      </trkpt>
      <trkpt lat="43.63063" lon="1.26156">
        <ele>188.6</ele>
        <time>2025-10-18T09:22:57Z</time>
      </trkpt>
      <trkpt lat="43.6306" lon="1.26152">
        <ele>188.6</ele>
        <time>2025-10-18T09:22:58Z</time>
      </trkpt>
      <trkpt lat="43.63056" lon="1.2615">
        <ele>188.6</ele>
        <time>2025-10-18T09:22:59Z</time>
      </trkpt>
      <trkpt lat="43.63053" lon="1.26146">
        <ele>188.6</ele>
        <time>2025-10-18T09:23:00Z</time>
      </trkpt>
      <trkpt lat="43.63049" lon="1.26142">
        <ele>188.4</ele>
        <time>2025-10-18T09:23:01Z</time>
      </trkpt>
      <trkpt lat="43.63045" lon="1.26139">
        <ele>188.4</ele>
        <time>2025-10-18T09:23:02Z</time>
      </trkpt>
      <trkpt lat="43.6304" lon="1.26135">
        <ele>188.2</ele>
        <time>2025-10-18T09:23:03Z</time>
      </trkpt>
      <trkpt lat="43.63036" lon="1.2613">
        <ele>188.2</ele>
        <time>2025-10-18T09:23:04Z</time>
      </trkpt>
      <trkpt lat="43.63031" lon="1.26126">
        <ele>188</ele>
        <time>2025-10-18T09:23:05Z</time>
      </trkpt>
      <trkpt lat="43.63027" lon="1.26122">
        <ele>188</ele>
        <time>2025-10-18T09:23:06Z</time>
      </trkpt>
      <trkpt lat="43.63022" lon="1.26117">
        <ele>188</ele>
        <time>2025-10-18T09:23:07Z</time>
      </trkpt>
      <trkpt lat="43.63016" lon="1.26112">
        <ele>188</ele>
        <time>2025-10-18T09:23:08Z</time>
      </trkpt>
      <trkpt lat="43.63011" lon="1.26108">
        <ele>187.8</ele>
        <time>2025-10-18T09:23:09Z</time>
      </trkpt>
      <trkpt lat="43.63005" lon="1.26103">
        <ele>187.8</ele>
        <time>2025-10-18T09:23:10Z</time>
      </trkpt>
      <trkpt lat="43.63" lon="1.26097">
        <ele>188</ele>
        <time>2025-10-18T09:23:11Z</time>
      </trkpt>
      <trkpt lat="43.62995" lon="1.26092">
        <ele>187.8</ele>
        <time>2025-10-18T09:23:12Z</time>
      </trkpt>
      <trkpt lat="43.62989" lon="1.26087">
        <ele>188</ele>
        <time>2025-10-18T09:23:13Z</time>
      </trkpt>
      <trkpt lat="43.62984" lon="1.26082">
        <ele>188</ele>
        <time>2025-10-18T09:23:14Z</time>
      </trkpt>
      <trkpt lat="43.62979" lon="1.26076">
        <ele>188</ele>
        <time>2025-10-18T09:23:15Z</time>
      </trkpt>
      <trkpt lat="43.62973" lon="1.26071">
        <ele>188</ele>
        <time>2025-10-18T09:23:16Z</time>
      </trkpt>
      <trkpt lat="43.62968" lon="1.26066">
        <ele>188</ele>
        <time>2025-10-18T09:23:17Z</time>
      </trkpt>
      <trkpt lat="43.62963" lon="1.26061">
        <ele>188.2</ele>
        <time>2025-10-18T09:23:18Z</time>
      </trkpt>
      <trkpt lat="43.62958" lon="1.26056">
        <ele>188.2</ele>
        <time>2025-10-18T09:23:19Z</time>
      </trkpt>
      <trkpt lat="43.62952" lon="1.26051">
        <ele>188.2</ele>
        <time>2025-10-18T09:23:20Z</time>
      </trkpt>
      <trkpt lat="43.62947" lon="1.26046">
        <ele>188.2</ele>
        <time>2025-10-18T09:23:21Z</time>
      </trkpt>
      <trkpt lat="43.62942" lon="1.26041">
        <ele>188.2</ele>
        <time>2025-10-18T09:23:22Z</time>
      </trkpt>
      <trkpt lat="43.62936" lon="1.26036">
        <ele>188</ele>
        <time>2025-10-18T09:23:23Z</time>
      </trkpt>
      <trkpt lat="43.6293" lon="1.2603">
        <ele>188</ele>
        <time>2025-10-18T09:23:24Z</time>
      </trkpt>
      <trkpt lat="43.62925" lon="1.26025">
        <ele>187.8</ele>
        <time>2025-10-18T09:23:25Z</time>
      </trkpt>
      <trkpt lat="43.62918" lon="1.26021">
        <ele>187.8</ele>
        <time>2025-10-18T09:23:26Z</time>
      </trkpt>
      <trkpt lat="43.62912" lon="1.26019">
        <ele>187.6</ele>
        <time>2025-10-18T09:23:27Z</time>
      </trkpt>
      <trkpt lat="43.62905" lon="1.26018">
        <ele>187.6</ele>
        <time>2025-10-18T09:23:28Z</time>
      </trkpt>
      <trkpt lat="43.62899" lon="1.26019">
        <ele>187.6</ele>
        <time>2025-10-18T09:23:29Z</time>
      </trkpt>
      <trkpt lat="43.62894" lon="1.26022">
        <ele>187.6</ele>
        <time>2025-10-18T09:23:30Z</time>
      </trkpt>
      <trkpt lat="43.62889" lon="1.26028">
        <ele>187.6</ele>
        <time>2025-10-18T09:23:31Z</time>
      </trkpt>
      <trkpt lat="43.62884" lon="1.26034">
        <ele>187.4</ele>
        <time>2025-10-18T09:23:32Z</time>
      </trkpt>
      <trkpt lat="43.6288" lon="1.2604">
        <ele>187.4</ele>
        <time>2025-10-18T09:23:33Z</time>
      </trkpt>
      <trkpt lat="43.62876" lon="1.26047">
        <ele>187.4</ele>
        <time>2025-10-18T09:23:34Z</time>
      </trkpt>
      <trkpt lat="43.62871" lon="1.26054">
        <ele>187.4</ele>
        <time>2025-10-18T09:23:35Z</time>
      </trkpt>
      <trkpt lat="43.62867" lon="1.26062">
        <ele>187.6</ele>
        <time>2025-10-18T09:23:36Z</time>
      </trkpt>
      <trkpt lat="43.62862" lon="1.26068">
        <ele>187.6</ele>
        <time>2025-10-18T09:23:37Z</time>
      </trkpt>
      <trkpt lat="43.62857" lon="1.26074">
        <ele>187.8</ele>
        <time>2025-10-18T09:23:38Z</time>
      </trkpt>
      <trkpt lat="43.62851" lon="1.26079">
        <ele>187.8</ele>
        <time>2025-10-18T09:23:39Z</time>
      </trkpt>
      <trkpt lat="43.62845" lon="1.26083">
        <ele>188</ele>
        <time>2025-10-18T09:23:40Z</time>
      </trkpt>
      <trkpt lat="43.62838" lon="1.26085">
        <ele>188</ele>
        <time>2025-10-18T09:23:41Z</time>
      </trkpt>
      <trkpt lat="43.62831" lon="1.26086">
        <ele>187.8</ele>
        <time>2025-10-18T09:23:42Z</time>
      </trkpt>
      <trkpt lat="43.62824" lon="1.26087">
        <ele>187.8</ele>
        <time>2025-10-18T09:23:43Z</time>
      </trkpt>
      <trkpt lat="43.62817" lon="1.26086">
        <ele>187.6</ele>
        <time>2025-10-18T09:23:44Z</time>
      </trkpt>
      <trkpt lat="43.62809" lon="1.26086">
        <ele>187.6</ele>
        <time>2025-10-18T09:23:45Z</time>
      </trkpt>
      <trkpt lat="43.62803" lon="1.26086">
        <ele>187.6</ele>
        <time>2025-10-18T09:23:46Z</time>
      </trkpt>
      <trkpt lat="43.62796" lon="1.26086">
        <ele>187.6</ele>
        <time>2025-10-18T09:23:47Z</time>
      </trkpt>
      <trkpt lat="43.62788" lon="1.26086">
        <ele>187.6</ele>
        <time>2025-10-18T09:23:48Z</time>
      </trkpt>
      <trkpt lat="43.62781" lon="1.26085">
        <ele>187.6</ele>
        <time>2025-10-18T09:23:49Z</time>
      </trkpt>
      <trkpt lat="43.62774" lon="1.26086">
        <ele>187.8</ele>
        <time>2025-10-18T09:23:50Z</time>
      </trkpt>
      <trkpt lat="43.62767" lon="1.26086">
        <ele>187.8</ele>
        <time>2025-10-18T09:23:51Z</time>
      </trkpt>
      <trkpt lat="43.6276" lon="1.26086">
        <ele>187.8</ele>
        <time>2025-10-18T09:23:52Z</time>
      </trkpt>
      <trkpt lat="43.62753" lon="1.26086">
        <ele>187.8</ele>
        <time>2025-10-18T09:23:53Z</time>
      </trkpt>
      <trkpt lat="43.62746" lon="1.26085">
        <ele>188</ele>
        <time>2025-10-18T09:23:54Z</time>
      </trkpt>
      <trkpt lat="43.62738" lon="1.26086">
        <ele>188.2</ele>
        <time>2025-10-18T09:23:55Z</time>
      </trkpt>
      <trkpt lat="43.62731" lon="1.26086">
        <ele>188.2</ele>
        <time>2025-10-18T09:23:56Z</time>
      </trkpt>
      <trkpt lat="43.62723" lon="1.26086">
        <ele>188.2</ele>
        <time>2025-10-18T09:23:57Z</time>
      </trkpt>
      <trkpt lat="43.62716" lon="1.26086">
        <ele>188.2</ele>
        <time>2025-10-18T09:23:58Z</time>
      </trkpt>
      <trkpt lat="43.62709" lon="1.26086">
        <ele>188.2</ele>
        <time>2025-10-18T09:23:59Z</time>
      </trkpt>
      <trkpt lat="43.62702" lon="1.26085">
        <ele>188.2</ele>
        <time>2025-10-18T09:24:00Z</time>
      </trkpt>
      <trkpt lat="43.62694" lon="1.26086">
        <ele>188.2</ele>
        <time>2025-10-18T09:24:01Z</time>
      </trkpt>
      <trkpt lat="43.62687" lon="1.26086">
        <ele>188.2</ele>
        <time>2025-10-18T09:24:02Z</time>
      </trkpt>
      <trkpt lat="43.6268" lon="1.26086">
        <ele>188.2</ele>
        <time>2025-10-18T09:24:03Z</time>
      </trkpt>
      <trkpt lat="43.62673" lon="1.26085">
        <ele>188.2</ele>
        <time>2025-10-18T09:24:04Z</time>
      </trkpt>
      <trkpt lat="43.62666" lon="1.26084">
        <ele>188.2</ele>
        <time>2025-10-18T09:24:05Z</time>
      </trkpt>
      <trkpt lat="43.62658" lon="1.26082">
        <ele>188</ele>
        <time>2025-10-18T09:24:06Z</time>
      </trkpt>
      <trkpt lat="43.62651" lon="1.26081">
        <ele>188</ele>
        <time>2025-10-18T09:24:07Z</time>
      </trkpt>
      <trkpt lat="43.62644" lon="1.26079">
        <ele>187.8</ele>
        <time>2025-10-18T09:24:08Z</time>
      </trkpt>
      <trkpt lat="43.62637" lon="1.26077">
        <ele>187.6</ele>
        <time>2025-10-18T09:24:09Z</time>
      </trkpt>
      <trkpt lat="43.6263" lon="1.26074">
        <ele>187.6</ele>
        <time>2025-10-18T09:24:10Z</time>
      </trkpt>
      <trkpt lat="43.62623" lon="1.26071">
        <ele>187.4</ele>
        <time>2025-10-18T09:24:11Z</time>
      </trkpt>
      <trkpt lat="43.62616" lon="1.26069">
        <ele>187.4</ele>
        <time>2025-10-18T09:24:12Z</time>
      </trkpt>
      <trkpt lat="43.62609" lon="1.26066">
        <ele>187.6</ele>
        <time>2025-10-18T09:24:13Z</time>
      </trkpt>
      <trkpt lat="43.62602" lon="1.26063">
        <ele>187.4</ele>
        <time>2025-10-18T09:24:14Z</time>
      </trkpt>
      <trkpt lat="43.62595" lon="1.2606">
        <ele>187.6</ele>
        <time>2025-10-18T09:24:15Z</time>
      </trkpt>
      <trkpt lat="43.62589" lon="1.26057">
        <ele>187.6</ele>
        <time>2025-10-18T09:24:16Z</time>
      </trkpt>
      <trkpt lat="43.62583" lon="1.26054">
        <ele>187.8</ele>
        <time>2025-10-18T09:24:17Z</time>
      </trkpt>
      <trkpt lat="43.62576" lon="1.26051">
        <ele>187.6</ele>
        <time>2025-10-18T09:24:18Z</time>
      </trkpt>
      <trkpt lat="43.6257" lon="1.26049">
        <ele>187.6</ele>
        <time>2025-10-18T09:24:19Z</time>
      </trkpt>
      <trkpt lat="43.62563" lon="1.26047">
        <ele>187.6</ele>
        <time>2025-10-18T09:24:20Z</time>
      </trkpt>
      <trkpt lat="43.62557" lon="1.26045">
        <ele>187.6</ele>
        <time>2025-10-18T09:24:21Z</time>
      </trkpt>
      <trkpt lat="43.6255" lon="1.26043">
        <ele>187.8</ele>
        <time>2025-10-18T09:24:22Z</time>
      </trkpt>
      <trkpt lat="43.62544" lon="1.2604">
        <ele>187.8</ele>
        <time>2025-10-18T09:24:23Z</time>
      </trkpt>
      <trkpt lat="43.62538" lon="1.26037">
        <ele>188</ele>
        <time>2025-10-18T09:24:24Z</time>
      </trkpt>
      <trkpt lat="43.62532" lon="1.26034">
        <ele>188</ele>
        <time>2025-10-18T09:24:25Z</time>
      </trkpt>
      <trkpt lat="43.62526" lon="1.26031">
        <ele>188</ele>
        <time>2025-10-18T09:24:26Z</time>
      </trkpt>
      <trkpt lat="43.6252" lon="1.26028">
        <ele>188</ele>
        <time>2025-10-18T09:24:27Z</time>
      </trkpt>
      <trkpt lat="43.62513" lon="1.26026">
        <ele>187.8</ele>
        <time>2025-10-18T09:24:28Z</time>
      </trkpt>
      <trkpt lat="43.62507" lon="1.26023">
        <ele>187.6</ele>
        <time>2025-10-18T09:24:29Z</time>
      </trkpt>
      <trkpt lat="43.62501" lon="1.2602">
        <ele>187.6</ele>
        <time>2025-10-18T09:24:30Z</time>
      </trkpt>
      <trkpt lat="43.62495" lon="1.26018">
        <ele>187.6</ele>
        <time>2025-10-18T09:24:31Z</time>
      </trkpt>
      <trkpt lat="43.62488" lon="1.26015">
        <ele>187.4</ele>
        <time>2025-10-18T09:24:32Z</time>
      </trkpt>
      <trkpt lat="43.62482" lon="1.26012">
        <ele>187.6</ele>
        <time>2025-10-18T09:24:33Z</time>
      </trkpt>
      <trkpt lat="43.62476" lon="1.2601">
        <ele>187.4</ele>
        <time>2025-10-18T09:24:34Z</time>
      </trkpt>
      <trkpt lat="43.6247" lon="1.26007">
        <ele>187.4</ele>
        <time>2025-10-18T09:24:35Z</time>
      </trkpt>
      <trkpt lat="43.62463" lon="1.26004">
        <ele>187.4</ele>
        <time>2025-10-18T09:24:36Z</time>
      </trkpt>
      <trkpt lat="43.62457" lon="1.26002">
        <ele>187.4</ele>
        <time>2025-10-18T09:24:37Z</time>
      </trkpt>
      <trkpt lat="43.62451" lon="1.26">
        <ele>187.4</ele>
        <time>2025-10-18T09:24:38Z</time>
      </trkpt>
      <trkpt lat="43.62445" lon="1.25998">
        <ele>187.6</ele>
        <time>2025-10-18T09:24:39Z</time>
      </trkpt>
      <trkpt lat="43.62438" lon="1.25996">
        <ele>187.6</ele>
        <time>2025-10-18T09:24:40Z</time>
      </trkpt>
      <trkpt lat="43.62432" lon="1.25993">
        <ele>187.6</ele>
        <time>2025-10-18T09:24:41Z</time>
      </trkpt>
      <trkpt lat="43.62427" lon="1.25991">
        <ele>187.8</ele>
        <time>2025-10-18T09:24:42Z</time>
      </trkpt>
      <trkpt lat="43.62422" lon="1.25988">
        <ele>187.8</ele>
        <time>2025-10-18T09:24:43Z</time>
      </trkpt>
      <trkpt lat="43.62417" lon="1.25986">
        <ele>187.6</ele>
        <time>2025-10-18T09:24:44Z</time>
      </trkpt>
      <trkpt lat="43.62412" lon="1.25984">
        <ele>187.6</ele>
        <time>2025-10-18T09:24:45Z</time>
      </trkpt>
      <trkpt lat="43.62409" lon="1.25983">
        <ele>187.8</ele>
        <time>2025-10-18T09:24:46Z</time>
      </trkpt>
      <trkpt lat="43.62405" lon="1.25981">
        <ele>187.8</ele>
        <time>2025-10-18T09:24:47Z</time>
      </trkpt>
      <trkpt lat="43.62404" lon="1.2598">
        <ele>187.8</ele>
        <time>2025-10-18T09:24:48Z</time>
      </trkpt>
      <trkpt lat="43.62402" lon="1.25979">
        <ele>188</ele>
        <time>2025-10-18T09:24:49Z</time>
      </trkpt>
      <trkpt lat="43.62401" lon="1.25978">
        <ele>188</ele>
        <time>2025-10-18T09:24:50Z</time>
      </trkpt>
      <trkpt lat="43.62401" lon="1.25978">
        <ele>188.2</ele>
        <time>2025-10-18T09:24:51Z</time>
      </trkpt>
      <trkpt lat="43.62401" lon="1.25978">
        <ele>188.4</ele>
        <time>2025-10-18T09:24:52Z</time>
      </trkpt>
      <trkpt lat="43.62395" lon="1.25975">
        <ele>188</ele>
        <time>2025-10-18T09:25:19Z</time>
      </trkpt>
      <trkpt lat="43.62394" lon="1.25975">
        <ele>188</ele>
        <time>2025-10-18T09:25:20Z</time>
      </trkpt>
      <trkpt lat="43.62392" lon="1.25973">
        <ele>188</ele>
        <time>2025-10-18T09:25:21Z</time>
      </trkpt>
      <trkpt lat="43.6239" lon="1.25971">
        <ele>187.8</ele>
        <time>2025-10-18T09:25:22Z</time>
      </trkpt>
      <trkpt lat="43.62387" lon="1.25968">
        <ele>187.8</ele>
        <time>2025-10-18T09:25:23Z</time>
      </trkpt>
      <trkpt lat="43.62384" lon="1.25965">
        <ele>187.6</ele>
        <time>2025-10-18T09:25:24Z</time>
      </trkpt>
      <trkpt lat="43.62381" lon="1.25961">
        <ele>187.4</ele>
        <time>2025-10-18T09:25:25Z</time>
      </trkpt>
      <trkpt lat="43.62378" lon="1.25957">
        <ele>187.2</ele>
        <time>2025-10-18T09:25:26Z</time>
      </trkpt>
      <trkpt lat="43.62374" lon="1.25952">
        <ele>187</ele>
        <time>2025-10-18T09:25:27Z</time>
      </trkpt>
      <trkpt lat="43.62371" lon="1.25949">
        <ele>186.8</ele>
        <time>2025-10-18T09:25:28Z</time>
      </trkpt>
      <trkpt lat="43.62367" lon="1.25944">
        <ele>186.8</ele>
        <time>2025-10-18T09:25:29Z</time>
      </trkpt>
      <trkpt lat="43.62363" lon="1.2594">
        <ele>186.6</ele>
        <time>2025-10-18T09:25:30Z</time>
      </trkpt>
      <trkpt lat="43.62359" lon="1.25937">
        <ele>186.4</ele>
        <time>2025-10-18T09:25:31Z</time>
      </trkpt>
      <trkpt lat="43.62354" lon="1.25934">
        <ele>186.4</ele>
        <time>2025-10-18T09:25:32Z</time>
      </trkpt>
      <trkpt lat="43.6235" lon="1.25931">
        <ele>186.2</ele>
        <time>2025-10-18T09:25:33Z</time>
      </trkpt>
      <trkpt lat="43.62345" lon="1.25928">
        <ele>186</ele>
        <time>2025-10-18T09:25:34Z</time>
      </trkpt>
      <trkpt lat="43.6234" lon="1.25927">
        <ele>186</ele>
        <time>2025-10-18T09:25:35Z</time>
      </trkpt>
      <trkpt lat="43.62335" lon="1.25925">
        <ele>186</ele>
        <time>2025-10-18T09:25:36Z</time>
      </trkpt>
      <trkpt lat="43.62329" lon="1.25924">
        <ele>186.2</ele>
        <time>2025-10-18T09:25:37Z</time>
      </trkpt>
      <trkpt lat="43.62323" lon="1.25922">
        <ele>186.2</ele>
        <time>2025-10-18T09:25:38Z</time>
      </trkpt>
      <trkpt lat="43.62316" lon="1.25921">
        <ele>186.2</ele>
        <time>2025-10-18T09:25:39Z</time>
      </trkpt>
      <trkpt lat="43.6231" lon="1.25919">
        <ele>186</ele>
        <time>2025-10-18T09:25:40Z</time>
      </trkpt>
      <trkpt lat="43.62303" lon="1.25917">
        <ele>185.8</ele>
        <time>2025-10-18T09:25:41Z</time>
      </trkpt>
      <trkpt lat="43.62296" lon="1.25913">
        <ele>185.4</ele>
        <time>2025-10-18T09:25:42Z</time>
      </trkpt>
      <trkpt lat="43.6229" lon="1.25907">
        <ele>185</ele>
        <time>2025-10-18T09:25:43Z</time>
      </trkpt>
      <trkpt lat="43.62284" lon="1.25899">
        <ele>184.6</ele>
        <time>2025-10-18T09:25:44Z</time>
      </trkpt>
      <trkpt lat="43.6228" lon="1.25891">
        <ele>184.2</ele>
        <time>2025-10-18T09:25:45Z</time>
      </trkpt>
      <trkpt lat="43.62276" lon="1.25881">
        <ele>184</ele>
        <time>2025-10-18T09:25:46Z</time>
      </trkpt>
      <trkpt lat="43.62272" lon="1.25871">
        <ele>183.8</ele>
        <time>2025-10-18T09:25:47Z</time>
      </trkpt>
      <trkpt lat="43.62268" lon="1.25862">
        <ele>183.6</ele>
        <time>2025-10-18T09:25:48Z</time>
      </trkpt>
      <trkpt lat="43.62265" lon="1.25852">
        <ele>183.6</ele>
        <time>2025-10-18T09:25:49Z</time>
      </trkpt>
      <trkpt lat="43.62262" lon="1.25843">
        <ele>183.4</ele>
        <time>2025-10-18T09:25:50Z</time>
      </trkpt>
      <trkpt lat="43.62259" lon="1.25833">
        <ele>183.2</ele>
        <time>2025-10-18T09:25:51Z</time>
      </trkpt>
      <trkpt lat="43.62257" lon="1.25822">
        <ele>182.8</ele>
        <time>2025-10-18T09:25:52Z</time>
      </trkpt>
      <trkpt lat="43.62254" lon="1.25813">
        <ele>182.8</ele>
        <time>2025-10-18T09:25:53Z</time>
      </trkpt>
      <trkpt lat="43.62251" lon="1.25802">
        <ele>182.8</ele>
        <time>2025-10-18T09:25:54Z</time>
      </trkpt>
      <trkpt lat="43.62247" lon="1.25792">
        <ele>182.8</ele>
        <time>2025-10-18T09:25:55Z</time>
      </trkpt>
      <trkpt lat="43.62242" lon="1.25781">
        <ele>183</ele>
        <time>2025-10-18T09:25:56Z</time>
      </trkpt>
      <trkpt lat="43.62238" lon="1.25771">
        <ele>183</ele>
        <time>2025-10-18T09:25:57Z</time>
      </trkpt>
      <trkpt lat="43.62235" lon="1.25762">
        <ele>182.8</ele>
        <time>2025-10-18T09:25:58Z</time>
      </trkpt>
      <trkpt lat="43.6223" lon="1.25752">
        <ele>182.8</ele>
        <time>2025-10-18T09:25:59Z</time>
      </trkpt>
      <trkpt lat="43.62226" lon="1.25743">
        <ele>182.4</ele>
        <time>2025-10-18T09:26:00Z</time>
      </trkpt>
      <trkpt lat="43.62221" lon="1.25735">
        <ele>182.2</ele>
        <time>2025-10-18T09:26:01Z</time>
      </trkpt>
      <trkpt lat="43.62216" lon="1.25726">
        <ele>182</ele>
        <time>2025-10-18T09:26:02Z</time>
      </trkpt>
      <trkpt lat="43.62211" lon="1.25717">
        <ele>181.8</ele>
        <time>2025-10-18T09:26:03Z</time>
      </trkpt>
      <trkpt lat="43.62206" lon="1.25707">
        <ele>181.6</ele>
        <time>2025-10-18T09:26:04Z</time>
      </trkpt>
      <trkpt lat="43.622" lon="1.25698">
        <ele>181.4</ele>
        <time>2025-10-18T09:26:05Z</time>
      </trkpt>
      <trkpt lat="43.62194" lon="1.2569">
        <ele>181.2</ele>
        <time>2025-10-18T09:26:06Z</time>
      </trkpt>
      <trkpt lat="43.62187" lon="1.25683">
        <ele>181</ele>
        <time>2025-10-18T09:26:07Z</time>
      </trkpt>
      <trkpt lat="43.62179" lon="1.25679">
        <ele>180.6</ele>
        <time>2025-10-18T09:26:08Z</time>
      </trkpt>
      <trkpt lat="43.62171" lon="1.25674">
        <ele>180.2</ele>
        <time>2025-10-18T09:26:09Z</time>
      </trkpt>
      <trkpt lat="43.62162" lon="1.25671">
        <ele>180</ele>
        <time>2025-10-18T09:26:10Z</time>
      </trkpt>
      <trkpt lat="43.62153" lon="1.25669">
        <ele>179.8</ele>
        <time>2025-10-18T09:26:11Z</time>
      </trkpt>
      <trkpt lat="43.62144" lon="1.25668">
        <ele>179.4</ele>
        <time>2025-10-18T09:26:12Z</time>
      </trkpt>
      <trkpt lat="43.62135" lon="1.25667">
        <ele>179.2</ele>
        <time>2025-10-18T09:26:13Z</time>
      </trkpt>
      <trkpt lat="43.62126" lon="1.25667">
        <ele>179</ele>
        <time>2025-10-18T09:26:14Z</time>
      </trkpt>
      <trkpt lat="43.62117" lon="1.25668">
        <ele>178.8</ele>
        <time>2025-10-18T09:26:15Z</time>
      </trkpt>
      <trkpt lat="43.62109" lon="1.25669">
        <ele>178.6</ele>
        <time>2025-10-18T09:26:16Z</time>
      </trkpt>
      <trkpt lat="43.621" lon="1.2567">
        <ele>178.4</ele>
        <time>2025-10-18T09:26:17Z</time>
      </trkpt>
      <trkpt lat="43.62092" lon="1.2567">
        <ele>178.2</ele>
        <time>2025-10-18T09:26:18Z</time>
      </trkpt>
      <trkpt lat="43.62084" lon="1.25668">
        <ele>178.2</ele>
        <time>2025-10-18T09:26:19Z</time>
      </trkpt>
      <trkpt lat="43.62075" lon="1.25666">
        <ele>178.2</ele>
        <time>2025-10-18T09:26:20Z</time>
      </trkpt>
      <trkpt lat="43.62066" lon="1.25664">
        <ele>178</ele>
        <time>2025-10-18T09:26:21Z</time>
      </trkpt>
      <trkpt lat="43.62058" lon="1.25663">
        <ele>178</ele>
        <time>2025-10-18T09:26:22Z</time>
      </trkpt>
      <trkpt lat="43.62049" lon="1.25661">
        <ele>178</ele>
        <time>2025-10-18T09:26:23Z</time>
      </trkpt>
      <trkpt lat="43.6204" lon="1.25659">
        <ele>177.8</ele>
        <time>2025-10-18T09:26:24Z</time>
      </trkpt>
      <trkpt lat="43.62032" lon="1.25659">
        <ele>177.8</ele>
        <time>2025-10-18T09:26:25Z</time>
      </trkpt>
      <trkpt lat="43.62023" lon="1.25658">
        <ele>177.8</ele>
        <time>2025-10-18T09:26:26Z</time>
      </trkpt>
      <trkpt lat="43.62015" lon="1.25658">
        <ele>177.6</ele>
        <time>2025-10-18T09:26:27Z</time>
      </trkpt>
      <trkpt lat="43.62007" lon="1.25659">
        <ele>177.4</ele>
        <time>2025-10-18T09:26:28Z</time>
      </trkpt>
      <trkpt lat="43.61998" lon="1.25661">
        <ele>177.2</ele>
        <time>2025-10-18T09:26:29Z</time>
      </trkpt>
      <trkpt lat="43.6199" lon="1.25664">
        <ele>176.8</ele>
        <time>2025-10-18T09:26:30Z</time>
      </trkpt>
      <trkpt lat="43.61982" lon="1.25667">
        <ele>176.6</ele>
        <time>2025-10-18T09:26:31Z</time>
      </trkpt>
      <trkpt lat="43.61974" lon="1.2567">
        <ele>176.4</ele>
        <time>2025-10-18T09:26:32Z</time>
      </trkpt>
      <trkpt lat="43.61966" lon="1.25673">
        <ele>176.4</ele>
        <time>2025-10-18T09:26:33Z</time>
      </trkpt>
      <trkpt lat="43.61958" lon="1.25676">
        <ele>176</ele>
        <time>2025-10-18T09:26:34Z</time>
      </trkpt>
      <trkpt lat="43.6195" lon="1.25679">
        <ele>175.6</ele>
        <time>2025-10-18T09:26:35Z</time>
      </trkpt>
      <trkpt lat="43.61942" lon="1.25681">
        <ele>175.2</ele>
        <time>2025-10-18T09:26:36Z</time>
      </trkpt>
      <trkpt lat="43.61933" lon="1.25683">
        <ele>174.8</ele>
        <time>2025-10-18T09:26:37Z</time>
      </trkpt>
      <trkpt lat="43.61925" lon="1.25687">
        <ele>174.6</ele>
        <time>2025-10-18T09:26:38Z</time>
      </trkpt>
      <trkpt lat="43.61918" lon="1.25691">
        <ele>174.2</ele>
        <time>2025-10-18T09:26:39Z</time>
      </trkpt>
      <trkpt lat="43.61911" lon="1.25696">
        <ele>174.2</ele>
        <time>2025-10-18T09:26:40Z</time>
      </trkpt>
      <trkpt lat="43.61904" lon="1.25703">
        <ele>173.8</ele>
        <time>2025-10-18T09:26:41Z</time>
      </trkpt>
      <trkpt lat="43.61897" lon="1.2571">
        <ele>173.6</ele>
        <time>2025-10-18T09:26:42Z</time>
      </trkpt>
      <trkpt lat="43.61891" lon="1.25717">
        <ele>173</ele>
        <time>2025-10-18T09:26:43Z</time>
      </trkpt>
      <trkpt lat="43.61884" lon="1.25725">
        <ele>172.6</ele>
        <time>2025-10-18T09:26:44Z</time>
      </trkpt>
      <trkpt lat="43.61879" lon="1.25732">
        <ele>172.4</ele>
        <time>2025-10-18T09:26:45Z</time>
      </trkpt>
      <trkpt lat="43.61872" lon="1.25738">
        <ele>172.2</ele>
        <time>2025-10-18T09:26:46Z</time>
      </trkpt>
      <trkpt lat="43.61865" lon="1.25742">
        <ele>172</ele>
        <time>2025-10-18T09:26:47Z</time>
      </trkpt>
      <trkpt lat="43.61858" lon="1.25745">
        <ele>171.6</ele>
        <time>2025-10-18T09:26:48Z</time>
      </trkpt>
      <trkpt lat="43.61852" lon="1.25747">
        <ele>171.4</ele>
        <time>2025-10-18T09:26:49Z</time>
      </trkpt>
      <trkpt lat="43.61846" lon="1.25752">
        <ele>171.2</ele>
        <time>2025-10-18T09:26:50Z</time>
      </trkpt>
      <trkpt lat="43.61843" lon="1.25759">
        <ele>171</ele>
        <time>2025-10-18T09:26:51Z</time>
      </trkpt>
      <trkpt lat="43.61842" lon="1.25767">
        <ele>170.6</ele>
        <time>2025-10-18T09:26:52Z</time>
      </trkpt>
      <trkpt lat="43.61842" lon="1.25776">
        <ele>170.2</ele>
        <time>2025-10-18T09:26:53Z</time>
      </trkpt>
      <trkpt lat="43.61844" lon="1.25786">
        <ele>169.8</ele>
        <time>2025-10-18T09:26:54Z</time>
      </trkpt>
      <trkpt lat="43.61845" lon="1.25797">
        <ele>169.4</ele>
        <time>2025-10-18T09:26:55Z</time>
      </trkpt>
      <trkpt lat="43.61848" lon="1.25809">
        <ele>169</ele>
        <time>2025-10-18T09:26:56Z</time>
      </trkpt>
      <trkpt lat="43.61851" lon="1.25821">
        <ele>168.6</ele>
        <time>2025-10-18T09:26:57Z</time>
      </trkpt>
      <trkpt lat="43.61855" lon="1.25833">
        <ele>168.4</ele>
        <time>2025-10-18T09:26:58Z</time>
      </trkpt>
      <trkpt lat="43.61859" lon="1.25844">
        <ele>168.2</ele>
        <time>2025-10-18T09:26:59Z</time>
      </trkpt>
      <trkpt lat="43.61864" lon="1.25855">
        <ele>168.2</ele>
        <time>2025-10-18T09:27:00Z</time>
      </trkpt>
      <trkpt lat="43.61869" lon="1.25865">
        <ele>168</ele>
        <time>2025-10-18T09:27:01Z</time>
      </trkpt>
      <trkpt lat="43.61874" lon="1.25876">
        <ele>168</ele>
        <time>2025-10-18T09:27:02Z</time>
      </trkpt>
      <trkpt lat="43.61878" lon="1.25887">
        <ele>168.2</ele>
        <time>2025-10-18T09:27:03Z</time>
      </trkpt>
      <trkpt lat="43.61883" lon="1.25899">
        <ele>168.4</ele>
        <time>2025-10-18T09:27:04Z</time>
      </trkpt>
      <trkpt lat="43.61887" lon="1.25911">
        <ele>168.6</ele>
        <time>2025-10-18T09:27:05Z</time>
      </trkpt>
      <trkpt lat="43.61891" lon="1.25924">
        <ele>169</ele>
        <time>2025-10-18T09:27:06Z</time>
      </trkpt>
      <trkpt lat="43.61895" lon="1.25937">
        <ele>169</ele>
        <time>2025-10-18T09:27:07Z</time>
      </trkpt>
      <trkpt lat="43.61899" lon="1.25949">
        <ele>169</ele>
        <time>2025-10-18T09:27:08Z</time>
      </trkpt>
      <trkpt lat="43.61902" lon="1.25962">
        <ele>169</ele>
        <time>2025-10-18T09:27:09Z</time>
      </trkpt>
      <trkpt lat="43.61905" lon="1.25976">
        <ele>168.8</ele>
        <time>2025-10-18T09:27:10Z</time>
      </trkpt>
      <trkpt lat="43.61907" lon="1.2599">
        <ele>168.4</ele>
        <time>2025-10-18T09:27:11Z</time>
      </trkpt>
      <trkpt lat="43.6191" lon="1.26003">
        <ele>168.2</ele>
        <time>2025-10-18T09:27:12Z</time>
      </trkpt>
      <trkpt lat="43.61911" lon="1.26017">
        <ele>168</ele>
        <time>2025-10-18T09:27:13Z</time>
      </trkpt>
      <trkpt lat="43.61912" lon="1.2603">
        <ele>167.8</ele>
        <time>2025-10-18T09:27:14Z</time>
      </trkpt>
      <trkpt lat="43.61914" lon="1.26044">
        <ele>167.6</ele>
        <time>2025-10-18T09:27:15Z</time>
      </trkpt>
      <trkpt lat="43.61915" lon="1.26057">
        <ele>167.4</ele>
        <time>2025-10-18T09:27:16Z</time>
      </trkpt>
      <trkpt lat="43.61917" lon="1.26071">
        <ele>167.2</ele>
        <time>2025-10-18T09:27:17Z</time>
      </trkpt>
      <trkpt lat="43.61918" lon="1.26084">
        <ele>167</ele>
        <time>2025-10-18T09:27:18Z</time>
      </trkpt>
      <trkpt lat="43.6192" lon="1.26097">
        <ele>166.8</ele>
        <time>2025-10-18T09:27:19Z</time>
      </trkpt>
      <trkpt lat="43.6192" lon="1.2611">
        <ele>166.6</ele>
        <time>2025-10-18T09:27:20Z</time>
      </trkpt>
      <trkpt lat="43.61921" lon="1.26123">
        <ele>166.4</ele>
        <time>2025-10-18T09:27:21Z</time>
      </trkpt>
      <trkpt lat="43.61922" lon="1.26134">
        <ele>166.2</ele>
        <time>2025-10-18T09:27:22Z</time>
      </trkpt>
      <trkpt lat="43.61923" lon="1.26145">
        <ele>166.4</ele>
        <time>2025-10-18T09:27:23Z</time>
      </trkpt>
      <trkpt lat="43.61924" lon="1.26155">
        <ele>166.6</ele>
        <time>2025-10-18T09:27:24Z</time>
      </trkpt>
      <trkpt lat="43.61925" lon="1.26165">
        <ele>166.8</ele>
        <time>2025-10-18T09:27:25Z</time>
      </trkpt>
      <trkpt lat="43.61927" lon="1.26173">
        <ele>167</ele>
        <time>2025-10-18T09:27:26Z</time>
      </trkpt>
      <trkpt lat="43.61927" lon="1.26181">
        <ele>167</ele>
        <time>2025-10-18T09:27:27Z</time>
      </trkpt>
      <trkpt lat="43.61928" lon="1.2619">
        <ele>167.2</ele>
        <time>2025-10-18T09:27:28Z</time>
      </trkpt>
      <trkpt lat="43.6193" lon="1.26199">
        <ele>167.2</ele>
        <time>2025-10-18T09:27:29Z</time>
      </trkpt>
      <trkpt lat="43.6193" lon="1.26207">
        <ele>167.2</ele>
        <time>2025-10-18T09:27:30Z</time>
      </trkpt>
      <trkpt lat="43.61931" lon="1.26216">
        <ele>167.2</ele>
        <time>2025-10-18T09:27:31Z</time>
      </trkpt>
      <trkpt lat="43.61933" lon="1.26225">
        <ele>167</ele>
        <time>2025-10-18T09:27:32Z</time>
      </trkpt>
      <trkpt lat="43.61933" lon="1.26234">
        <ele>167</ele>
        <time>2025-10-18T09:27:33Z</time>
      </trkpt>
      <trkpt lat="43.61934" lon="1.26243">
        <ele>166.8</ele>
        <time>2025-10-18T09:27:34Z</time>
      </trkpt>
      <trkpt lat="43.61935" lon="1.26254">
        <ele>166.8</ele>
        <time>2025-10-18T09:27:35Z</time>
      </trkpt>
      <trkpt lat="43.61936" lon="1.26264">
        <ele>166.6</ele>
        <time>2025-10-18T09:27:36Z</time>
      </trkpt>
      <trkpt lat="43.61936" lon="1.26273">
        <ele>166.6</ele>
        <time>2025-10-18T09:27:37Z</time>
      </trkpt>
      <trkpt lat="43.61936" lon="1.26282">
        <ele>166.6</ele>
        <time>2025-10-18T09:27:38Z</time>
      </trkpt>
      <trkpt lat="43.61936" lon="1.26289">
        <ele>166.8</ele>
        <time>2025-10-18T09:27:39Z</time>
      </trkpt>
      <trkpt lat="43.61936" lon="1.26294">
        <ele>167</ele>
        <time>2025-10-18T09:27:40Z</time>
      </trkpt>
      <trkpt lat="43.61938" lon="1.26299">
        <ele>167.2</ele>
        <time>2025-10-18T09:27:41Z</time>
      </trkpt>
      <trkpt lat="43.61941" lon="1.26302">
        <ele>167.4</ele>
        <time>2025-10-18T09:27:42Z</time>
      </trkpt>
      <trkpt lat="43.61943" lon="1.26303">
        <ele>167.6</ele>
        <time>2025-10-18T09:27:43Z</time>
      </trkpt>
      <trkpt lat="43.61946" lon="1.26302">
        <ele>167.8</ele>
        <time>2025-10-18T09:27:44Z</time>
      </trkpt>
      <trkpt lat="43.61949" lon="1.26301">
        <ele>168</ele>
        <time>2025-10-18T09:27:45Z</time>
      </trkpt>
      <trkpt lat="43.61953" lon="1.26299">
        <ele>168</ele>
        <time>2025-10-18T09:27:46Z</time>
      </trkpt>
      <trkpt lat="43.61956" lon="1.26298">
        <ele>168.2</ele>
        <time>2025-10-18T09:27:47Z</time>
      </trkpt>
      <trkpt lat="43.6196" lon="1.26296">
        <ele>168.2</ele>
        <time>2025-10-18T09:27:48Z</time>
      </trkpt>
      <trkpt lat="43.61965" lon="1.26296">
        <ele>168.2</ele>
        <time>2025-10-18T09:27:49Z</time>
      </trkpt>
      <trkpt lat="43.61969" lon="1.26297">
        <ele>168.4</ele>
        <time>2025-10-18T09:27:50Z</time>
      </trkpt>
      <trkpt lat="43.61973" lon="1.26301">
        <ele>168.4</ele>
        <time>2025-10-18T09:27:51Z</time>
      </trkpt>
      <trkpt lat="43.61977" lon="1.26307">
        <ele>168.4</ele>
        <time>2025-10-18T09:27:52Z</time>
      </trkpt>
      <trkpt lat="43.6198" lon="1.26314">
        <ele>168.2</ele>
        <time>2025-10-18T09:27:53Z</time>
      </trkpt>
      <trkpt lat="43.61983" lon="1.26323">
        <ele>168.2</ele>
        <time>2025-10-18T09:27:54Z</time>
      </trkpt>
      <trkpt lat="43.61985" lon="1.26333">
        <ele>167.8</ele>
        <time>2025-10-18T09:27:55Z</time>
      </trkpt>
      <trkpt lat="43.61987" lon="1.26343">
        <ele>167.4</ele>
        <time>2025-10-18T09:27:56Z</time>
      </trkpt>
      <trkpt lat="43.61989" lon="1.26353">
        <ele>167.2</ele>
        <time>2025-10-18T09:27:57Z</time>
      </trkpt>
      <trkpt lat="43.6199" lon="1.26363">
        <ele>166.6</ele>
        <time>2025-10-18T09:27:58Z</time>
      </trkpt>
      <trkpt lat="43.61993" lon="1.26374">
        <ele>166.2</ele>
        <time>2025-10-18T09:27:59Z</time>
      </trkpt>
      <trkpt lat="43.61994" lon="1.26384">
        <ele>165.8</ele>
        <time>2025-10-18T09:28:00Z</time>
      </trkpt>
      <trkpt lat="43.61997" lon="1.26394">
        <ele>165.4</ele>
        <time>2025-10-18T09:28:01Z</time>
      </trkpt>
      <trkpt lat="43.61998" lon="1.26405">
        <ele>165.2</ele>
        <time>2025-10-18T09:28:02Z</time>
      </trkpt>
      <trkpt lat="43.62" lon="1.26415">
        <ele>165</ele>
        <time>2025-10-18T09:28:03Z</time>
      </trkpt>
      <trkpt lat="43.62002" lon="1.26424">
        <ele>165</ele>
        <time>2025-10-18T09:28:04Z</time>
      </trkpt>
      <trkpt lat="43.62004" lon="1.26435">
        <ele>165.2</ele>
        <time>2025-10-18T09:28:05Z</time>
      </trkpt>
      <trkpt lat="43.62006" lon="1.26446">
        <ele>165.2</ele>
        <time>2025-10-18T09:28:06Z</time>
      </trkpt>
      <trkpt lat="43.62008" lon="1.26455">
        <ele>165.4</ele>
        <time>2025-10-18T09:28:07Z</time>
      </trkpt>
      <trkpt lat="43.62009" lon="1.26466">
        <ele>165.6</ele>
        <time>2025-10-18T09:28:08Z</time>
      </trkpt>
      <trkpt lat="43.62011" lon="1.26477">
        <ele>165.6</ele>
        <time>2025-10-18T09:28:09Z</time>
      </trkpt>
      <trkpt lat="43.62013" lon="1.26487">
        <ele>165.6</ele>
        <time>2025-10-18T09:28:10Z</time>
      </trkpt>
      <trkpt lat="43.62015" lon="1.26497">
        <ele>165.6</ele>
        <time>2025-10-18T09:28:11Z</time>
      </trkpt>
      <trkpt lat="43.62016" lon="1.26508">
        <ele>165.6</ele>
        <time>2025-10-18T09:28:12Z</time>
      </trkpt>
      <trkpt lat="43.62018" lon="1.26519">
        <ele>165.4</ele>
        <time>2025-10-18T09:28:13Z</time>
      </trkpt>
      <trkpt lat="43.6202" lon="1.26529">
        <ele>165.6</ele>
        <time>2025-10-18T09:28:14Z</time>
      </trkpt>
      <trkpt lat="43.62021" lon="1.26539">
        <ele>165.4</ele>
        <time>2025-10-18T09:28:15Z</time>
      </trkpt>
      <trkpt lat="43.62022" lon="1.26549">
        <ele>165.4</ele>
        <time>2025-10-18T09:28:16Z</time>
      </trkpt>
      <trkpt lat="43.62024" lon="1.2656">
        <ele>165.2</ele>
        <time>2025-10-18T09:28:17Z</time>
      </trkpt>
      <trkpt lat="43.62025" lon="1.2657">
        <ele>165</ele>
        <time>2025-10-18T09:28:18Z</time>
      </trkpt>
      <trkpt lat="43.62026" lon="1.26581">
        <ele>164.8</ele>
        <time>2025-10-18T09:28:19Z</time>
      </trkpt>
      <trkpt lat="43.62027" lon="1.26592">
        <ele>164.8</ele>
        <time>2025-10-18T09:28:20Z</time>
      </trkpt>
      <trkpt lat="43.62028" lon="1.26602">
        <ele>164.8</ele>
        <time>2025-10-18T09:28:21Z</time>
      </trkpt>
      <trkpt lat="43.62029" lon="1.26613">
        <ele>164.8</ele>
        <time>2025-10-18T09:28:22Z</time>
      </trkpt>
      <trkpt lat="43.62031" lon="1.26624">
        <ele>164.8</ele>
        <time>2025-10-18T09:28:23Z</time>
      </trkpt>
      <trkpt lat="43.62032" lon="1.26635">
        <ele>164.8</ele>
        <time>2025-10-18T09:28:24Z</time>
      </trkpt>
      <trkpt lat="43.62034" lon="1.26646">
        <ele>164.6</ele>
        <time>2025-10-18T09:28:25Z</time>
      </trkpt>
      <trkpt lat="43.62035" lon="1.26657">
        <ele>164.4</ele>
        <time>2025-10-18T09:28:26Z</time>
      </trkpt>
      <trkpt lat="43.62037" lon="1.26667">
        <ele>164.4</ele>
        <time>2025-10-18T09:28:27Z</time>
      </trkpt>
      <trkpt lat="43.62038" lon="1.26677">
        <ele>164.2</ele>
        <time>2025-10-18T09:28:28Z</time>
      </trkpt>
      <trkpt lat="43.6204" lon="1.26687">
        <ele>164.4</ele>
        <time>2025-10-18T09:28:29Z</time>
      </trkpt>
      <trkpt lat="43.62042" lon="1.26696">
        <ele>164.4</ele>
        <time>2025-10-18T09:28:30Z</time>
      </trkpt>
      <trkpt lat="43.62044" lon="1.26706">
        <ele>164.6</ele>
        <time>2025-10-18T09:28:31Z</time>
      </trkpt>
      <trkpt lat="43.62045" lon="1.26716">
        <ele>164.8</ele>
        <time>2025-10-18T09:28:32Z</time>
      </trkpt>
      <trkpt lat="43.62047" lon="1.26725">
        <ele>165</ele>
        <time>2025-10-18T09:28:33Z</time>
      </trkpt>
      <trkpt lat="43.62049" lon="1.26735">
        <ele>165.2</ele>
        <time>2025-10-18T09:28:34Z</time>
      </trkpt>
      <trkpt lat="43.6205" lon="1.26745">
        <ele>165.2</ele>
        <time>2025-10-18T09:28:35Z</time>
      </trkpt>
      <trkpt lat="43.62051" lon="1.26755">
        <ele>164.8</ele>
        <time>2025-10-18T09:28:36Z</time>
      </trkpt>
      <trkpt lat="43.62053" lon="1.26766">
        <ele>164.6</ele>
        <time>2025-10-18T09:28:37Z</time>
      </trkpt>
      <trkpt lat="43.62055" lon="1.26776">
        <ele>164.4</ele>
        <time>2025-10-18T09:28:38Z</time>
      </trkpt>
      <trkpt lat="43.62057" lon="1.26787">
        <ele>164.2</ele>
        <time>2025-10-18T09:28:39Z</time>
      </trkpt>
      <trkpt lat="43.62059" lon="1.26798">
        <ele>164</ele>
        <time>2025-10-18T09:28:40Z</time>
      </trkpt>
      <trkpt lat="43.6206" lon="1.26808">
        <ele>164</ele>
        <time>2025-10-18T09:28:41Z</time>
      </trkpt>
      <trkpt lat="43.62062" lon="1.26818">
        <ele>163.8</ele>
        <time>2025-10-18T09:28:42Z</time>
      </trkpt>
      <trkpt lat="43.62064" lon="1.26828">
        <ele>163.6</ele>
        <time>2025-10-18T09:28:43Z</time>
      </trkpt>
      <trkpt lat="43.62066" lon="1.26838">
        <ele>163.6</ele>
        <time>2025-10-18T09:28:44Z</time>
      </trkpt>
      <trkpt lat="43.62068" lon="1.2685">
        <ele>163.4</ele>
        <time>2025-10-18T09:28:45Z</time>
      </trkpt>
      <trkpt lat="43.6207" lon="1.26861">
        <ele>163.2</ele>
        <time>2025-10-18T09:28:46Z</time>
      </trkpt>
      <trkpt lat="43.62072" lon="1.26872">
        <ele>163</ele>
        <time>2025-10-18T09:28:47Z</time>
      </trkpt>
      <trkpt lat="43.62075" lon="1.26882">
        <ele>162.8</ele>
        <time>2025-10-18T09:28:48Z</time>
      </trkpt>
      <trkpt lat="43.62077" lon="1.26893">
        <ele>162.6</ele>
        <time>2025-10-18T09:28:49Z</time>
      </trkpt>
      <trkpt lat="43.62079" lon="1.26904">
        <ele>162.6</ele>
        <time>2025-10-18T09:28:50Z</time>
      </trkpt>
      <trkpt lat="43.62081" lon="1.26915">
        <ele>162.6</ele>
        <time>2025-10-18T09:28:51Z</time>
      </trkpt>
      <trkpt lat="43.62083" lon="1.26926">
        <ele>162.6</ele>
        <time>2025-10-18T09:28:52Z</time>
      </trkpt>
      <trkpt lat="43.62085" lon="1.26936">
        <ele>162.6</ele>
        <time>2025-10-18T09:28:53Z</time>
      </trkpt>
      <trkpt lat="43.62087" lon="1.26946">
        <ele>162.6</ele>
        <time>2025-10-18T09:28:54Z</time>
      </trkpt>
      <trkpt lat="43.62089" lon="1.26956">
        <ele>162.6</ele>
        <time>2025-10-18T09:28:55Z</time>
      </trkpt>
      <trkpt lat="43.62091" lon="1.26966">
        <ele>162.6</ele>
        <time>2025-10-18T09:28:56Z</time>
      </trkpt>
      <trkpt lat="43.62093" lon="1.26977">
        <ele>162.6</ele>
        <time>2025-10-18T09:28:57Z</time>
      </trkpt>
      <trkpt lat="43.62094" lon="1.26987">
        <ele>162.6</ele>
        <time>2025-10-18T09:28:58Z</time>
      </trkpt>
      <trkpt lat="43.62096" lon="1.26997">
        <ele>162.6</ele>
        <time>2025-10-18T09:28:59Z</time>
      </trkpt>
      <trkpt lat="43.62098" lon="1.27007">
        <ele>162.6</ele>
        <time>2025-10-18T09:29:00Z</time>
      </trkpt>
      <trkpt lat="43.621" lon="1.27017">
        <ele>162.6</ele>
        <time>2025-10-18T09:29:01Z</time>
      </trkpt>
      <trkpt lat="43.62101" lon="1.27027">
        <ele>162.6</ele>
        <time>2025-10-18T09:29:02Z</time>
      </trkpt>
      <trkpt lat="43.62104" lon="1.27037">
        <ele>162.4</ele>
        <time>2025-10-18T09:29:03Z</time>
      </trkpt>
      <trkpt lat="43.62105" lon="1.27047">
        <ele>162.4</ele>
        <time>2025-10-18T09:29:04Z</time>
      </trkpt>
      <trkpt lat="43.62107" lon="1.27056">
        <ele>162.4</ele>
        <time>2025-10-18T09:29:05Z</time>
      </trkpt>
      <trkpt lat="43.62108" lon="1.27066">
        <ele>162.4</ele>
        <time>2025-10-18T09:29:06Z</time>
      </trkpt>
      <trkpt lat="43.6211" lon="1.27075">
        <ele>162.4</ele>
        <time>2025-10-18T09:29:07Z</time>
      </trkpt>
      <trkpt lat="43.62112" lon="1.27084">
        <ele>162.4</ele>
        <time>2025-10-18T09:29:08Z</time>
      </trkpt>
      <trkpt lat="43.62113" lon="1.27093">
        <ele>162.6</ele>
        <time>2025-10-18T09:29:09Z</time>
      </trkpt>
      <trkpt lat="43.62115" lon="1.27103">
        <ele>162.8</ele>
        <time>2025-10-18T09:29:10Z</time>
      </trkpt>
      <trkpt lat="43.62117" lon="1.27112">
        <ele>162.8</ele>
        <time>2025-10-18T09:29:11Z</time>
      </trkpt>
      <trkpt lat="43.62118" lon="1.27121">
        <ele>163</ele>
        <time>2025-10-18T09:29:12Z</time>
      </trkpt>
      <trkpt lat="43.62119" lon="1.2713">
        <ele>163</ele>
        <time>2025-10-18T09:29:13Z</time>
      </trkpt>
      <trkpt lat="43.62121" lon="1.2714">
        <ele>162.6</ele>
        <time>2025-10-18T09:29:14Z</time>
      </trkpt>
      <trkpt lat="43.62122" lon="1.2715">
        <ele>162.2</ele>
        <time>2025-10-18T09:29:15Z</time>
      </trkpt>
      <trkpt lat="43.62124" lon="1.27161">
        <ele>162</ele>
        <time>2025-10-18T09:29:16Z</time>
      </trkpt>
      <trkpt lat="43.62127" lon="1.27171">
        <ele>161.6</ele>
        <time>2025-10-18T09:29:17Z</time>
      </trkpt>
      <trkpt lat="43.62129" lon="1.27181">
        <ele>161</ele>
        <time>2025-10-18T09:29:18Z</time>
      </trkpt>
      <trkpt lat="43.62131" lon="1.27192">
        <ele>160.8</ele>
        <time>2025-10-18T09:29:19Z</time>
      </trkpt>
      <trkpt lat="43.62131" lon="1.27202">
        <ele>160.6</ele>
        <time>2025-10-18T09:29:20Z</time>
      </trkpt>
      <trkpt lat="43.6213" lon="1.27212">
        <ele>160.6</ele>
        <time>2025-10-18T09:29:21Z</time>
      </trkpt>
      <trkpt lat="43.6213" lon="1.27222">
        <ele>160.8</ele>
        <time>2025-10-18T09:29:22Z</time>
      </trkpt>
      <trkpt lat="43.62129" lon="1.27232">
        <ele>160.8</ele>
        <time>2025-10-18T09:29:23Z</time>
      </trkpt>
      <trkpt lat="43.62129" lon="1.27241">
        <ele>160.8</ele>
        <time>2025-10-18T09:29:24Z</time>
      </trkpt>
      <trkpt lat="43.62129" lon="1.27251">
        <ele>161</ele>
        <time>2025-10-18T09:29:25Z</time>
      </trkpt>
      <trkpt lat="43.62129" lon="1.27261">
        <ele>161</ele>
        <time>2025-10-18T09:29:26Z</time>
      </trkpt>
      <trkpt lat="43.62129" lon="1.2727">
        <ele>161</ele>
        <time>2025-10-18T09:29:27Z</time>
      </trkpt>
      <trkpt lat="43.6213" lon="1.2728">
        <ele>161</ele>
        <time>2025-10-18T09:29:28Z</time>
      </trkpt>
      <trkpt lat="43.62131" lon="1.2729">
        <ele>161</ele>
        <time>2025-10-18T09:29:29Z</time>
      </trkpt>
      <trkpt lat="43.62133" lon="1.273">
        <ele>161.2</ele>
        <time>2025-10-18T09:29:30Z</time>
      </trkpt>
      <trkpt lat="43.62134" lon="1.27311">
        <ele>161</ele>
        <time>2025-10-18T09:29:31Z</time>
      </trkpt>
      <trkpt lat="43.62135" lon="1.27321">
        <ele>161</ele>
        <time>2025-10-18T09:29:32Z</time>
      </trkpt>
      <trkpt lat="43.62136" lon="1.27331">
        <ele>161</ele>
        <time>2025-10-18T09:29:33Z</time>
      </trkpt>
      <trkpt lat="43.62137" lon="1.27342">
        <ele>160.8</ele>
        <time>2025-10-18T09:29:34Z</time>
      </trkpt>
      <trkpt lat="43.62138" lon="1.27353">
        <ele>160.6</ele>
        <time>2025-10-18T09:29:35Z</time>
      </trkpt>
      <trkpt lat="43.6214" lon="1.27363">
        <ele>160.6</ele>
        <time>2025-10-18T09:29:36Z</time>
      </trkpt>
      <trkpt lat="43.62142" lon="1.27372">
        <ele>160.6</ele>
        <time>2025-10-18T09:29:37Z</time>
      </trkpt>
      <trkpt lat="43.62145" lon="1.27382">
        <ele>160.4</ele>
        <time>2025-10-18T09:29:38Z</time>
      </trkpt>
      <trkpt lat="43.62147" lon="1.27392">
        <ele>160.4</ele>
        <time>2025-10-18T09:29:39Z</time>
      </trkpt>
      <trkpt lat="43.62151" lon="1.27401">
        <ele>160.4</ele>
        <time>2025-10-18T09:29:40Z</time>
      </trkpt>
      <trkpt lat="43.62154" lon="1.2741">
        <ele>160.4</ele>
        <time>2025-10-18T09:29:41Z</time>
      </trkpt>
      <trkpt lat="43.62158" lon="1.27419">
        <ele>160.2</ele>
        <time>2025-10-18T09:29:42Z</time>
      </trkpt>
      <trkpt lat="43.62161" lon="1.27428">
        <ele>160</ele>
        <time>2025-10-18T09:29:43Z</time>
      </trkpt>
      <trkpt lat="43.62165" lon="1.27438">
        <ele>160</ele>
        <time>2025-10-18T09:29:44Z</time>
      </trkpt>
      <trkpt lat="43.62168" lon="1.27448">
        <ele>160</ele>
        <time>2025-10-18T09:29:45Z</time>
      </trkpt>
      <trkpt lat="43.62171" lon="1.27459">
        <ele>159.8</ele>
        <time>2025-10-18T09:29:46Z</time>
      </trkpt>
      <trkpt lat="43.62174" lon="1.27468">
        <ele>159.6</ele>
        <time>2025-10-18T09:29:47Z</time>
      </trkpt>
      <trkpt lat="43.62177" lon="1.27477">
        <ele>159.6</ele>
        <time>2025-10-18T09:29:48Z</time>
      </trkpt>
      <trkpt lat="43.62179" lon="1.27487">
        <ele>159.6</ele>
        <time>2025-10-18T09:29:49Z</time>
      </trkpt>
      <trkpt lat="43.62182" lon="1.27497">
        <ele>159.4</ele>
        <time>2025-10-18T09:29:50Z</time>
      </trkpt>
      <trkpt lat="43.62185" lon="1.27506">
        <ele>159.6</ele>
        <time>2025-10-18T09:29:51Z</time>
      </trkpt>
      <trkpt lat="43.62188" lon="1.27515">
        <ele>159.6</ele>
        <time>2025-10-18T09:29:52Z</time>
      </trkpt>
      <trkpt lat="43.62192" lon="1.27525">
        <ele>159.6</ele>
        <time>2025-10-18T09:29:53Z</time>
      </trkpt>
      <trkpt lat="43.62195" lon="1.27535">
        <ele>159.6</ele>
        <time>2025-10-18T09:29:54Z</time>
      </trkpt>
      <trkpt lat="43.62199" lon="1.27544">
        <ele>159.6</ele>
        <time>2025-10-18T09:29:55Z</time>
      </trkpt>
      <trkpt lat="43.62202" lon="1.27554">
        <ele>159.4</ele>
        <time>2025-10-18T09:29:56Z</time>
      </trkpt>
      <trkpt lat="43.62206" lon="1.27563">
        <ele>159.2</ele>
        <time>2025-10-18T09:29:57Z</time>
      </trkpt>
      <trkpt lat="43.62209" lon="1.27573">
        <ele>159</ele>
        <time>2025-10-18T09:29:58Z</time>
      </trkpt>
      <trkpt lat="43.62212" lon="1.27583">
        <ele>158.8</ele>
        <time>2025-10-18T09:29:59Z</time>
      </trkpt>
      <trkpt lat="43.62214" lon="1.27592">
        <ele>158.8</ele>
        <time>2025-10-18T09:30:00Z</time>
      </trkpt>
      <trkpt lat="43.62217" lon="1.27602">
        <ele>159</ele>
        <time>2025-10-18T09:30:01Z</time>
      </trkpt>
      <trkpt lat="43.62219" lon="1.2761">
        <ele>159.2</ele>
        <time>2025-10-18T09:30:02Z</time>
      </trkpt>
      <trkpt lat="43.6222" lon="1.27616">
        <ele>159.6</ele>
        <time>2025-10-18T09:30:03Z</time>
      </trkpt>
      <trkpt lat="43.62222" lon="1.27624">
        <ele>160</ele>
        <time>2025-10-18T09:30:04Z</time>
      </trkpt>
      <trkpt lat="43.62224" lon="1.27632">
        <ele>160.4</ele>
        <time>2025-10-18T09:30:05Z</time>
      </trkpt>
      <trkpt lat="43.62226" lon="1.27641">
        <ele>160.6</ele>
        <time>2025-10-18T09:30:06Z</time>
      </trkpt>
      <trkpt lat="43.62228" lon="1.27651">
        <ele>160.6</ele>
        <time>2025-10-18T09:30:07Z</time>
      </trkpt>
      <trkpt lat="43.62231" lon="1.2766">
        <ele>160.4</ele>
        <time>2025-10-18T09:30:08Z</time>
      </trkpt>
      <trkpt lat="43.62233" lon="1.2767">
        <ele>160.2</ele>
        <time>2025-10-18T09:30:09Z</time>
      </trkpt>
      <trkpt lat="43.62235" lon="1.27679">
        <ele>160</ele>
        <time>2025-10-18T09:30:10Z</time>
      </trkpt>
      <trkpt lat="43.62237" lon="1.27689">
        <ele>160</ele>
        <time>2025-10-18T09:30:11Z</time>
      </trkpt>
      <trkpt lat="43.62239" lon="1.27697">
        <ele>160</ele>
        <time>2025-10-18T09:30:12Z</time>
      </trkpt>
      <trkpt lat="43.62241" lon="1.27706">
        <ele>160</ele>
        <time>2025-10-18T09:30:13Z</time>
      </trkpt>
      <trkpt lat="43.62243" lon="1.27717">
        <ele>160</ele>
        <time>2025-10-18T09:30:14Z</time>
      </trkpt>
      <trkpt lat="43.62246" lon="1.27726">
        <ele>160.2</ele>
        <time>2025-10-18T09:30:15Z</time>
      </trkpt>
      <trkpt lat="43.62248" lon="1.27735">
        <ele>160.4</ele>
        <time>2025-10-18T09:30:16Z</time>
      </trkpt>
      <trkpt lat="43.6225" lon="1.27743">
        <ele>160.6</ele>
        <time>2025-10-18T09:30:17Z</time>
      </trkpt>
      <trkpt lat="43.62253" lon="1.27752">
        <ele>160.8</ele>
        <time>2025-10-18T09:30:18Z</time>
      </trkpt>
      <trkpt lat="43.62256" lon="1.27761">
        <ele>160.8</ele>
        <time>2025-10-18T09:30:19Z</time>
      </trkpt>
      <trkpt lat="43.62259" lon="1.2777">
        <ele>160.8</ele>
        <time>2025-10-18T09:30:20Z</time>
      </trkpt>
      <trkpt lat="43.62261" lon="1.2778">
        <ele>160.6</ele>
        <time>2025-10-18T09:30:21Z</time>
      </trkpt>
      <trkpt lat="43.62264" lon="1.27789">
        <ele>160.4</ele>
        <time>2025-10-18T09:30:22Z</time>
      </trkpt>
      <trkpt lat="43.62267" lon="1.27799">
        <ele>160.2</ele>
        <time>2025-10-18T09:30:23Z</time>
      </trkpt>
      <trkpt lat="43.6227" lon="1.27809">
        <ele>160.2</ele>
        <time>2025-10-18T09:30:24Z</time>
      </trkpt>
      <trkpt lat="43.62272" lon="1.27818">
        <ele>160</ele>
        <time>2025-10-18T09:30:25Z</time>
      </trkpt>
      <trkpt lat="43.62275" lon="1.27827">
        <ele>159.8</ele>
        <time>2025-10-18T09:30:26Z</time>
      </trkpt>
      <trkpt lat="43.62277" lon="1.27837">
        <ele>160</ele>
        <time>2025-10-18T09:30:27Z</time>
      </trkpt>
      <trkpt lat="43.6228" lon="1.27846">
        <ele>160</ele>
        <time>2025-10-18T09:30:28Z</time>
      </trkpt>
      <trkpt lat="43.62282" lon="1.27855">
        <ele>160.2</ele>
        <time>2025-10-18T09:30:29Z</time>
      </trkpt>
      <trkpt lat="43.62284" lon="1.27863">
        <ele>160.2</ele>
        <time>2025-10-18T09:30:30Z</time>
      </trkpt>
      <trkpt lat="43.62286" lon="1.27872">
        <ele>160.2</ele>
        <time>2025-10-18T09:30:31Z</time>
      </trkpt>
      <trkpt lat="43.62288" lon="1.27881">
        <ele>160.2</ele>
        <time>2025-10-18T09:30:32Z</time>
      </trkpt>
      <trkpt lat="43.62289" lon="1.27889">
        <ele>160.2</ele>
        <time>2025-10-18T09:30:33Z</time>
      </trkpt>
      <trkpt lat="43.62291" lon="1.27898">
        <ele>160.4</ele>
        <time>2025-10-18T09:30:34Z</time>
      </trkpt>
      <trkpt lat="43.62293" lon="1.27905">
        <ele>160.4</ele>
        <time>2025-10-18T09:30:35Z</time>
      </trkpt>
      <trkpt lat="43.62294" lon="1.27913">
        <ele>160.6</ele>
        <time>2025-10-18T09:30:36Z</time>
      </trkpt>
      <trkpt lat="43.62294" lon="1.2792">
        <ele>160.8</ele>
        <time>2025-10-18T09:30:37Z</time>
      </trkpt>
      <trkpt lat="43.62292" lon="1.27925">
        <ele>161</ele>
        <time>2025-10-18T09:30:38Z</time>
      </trkpt>
      <trkpt lat="43.62287" lon="1.27927">
        <ele>161</ele>
        <time>2025-10-18T09:30:39Z</time>
      </trkpt>
      <trkpt lat="43.62282" lon="1.27929">
        <ele>161</ele>
        <time>2025-10-18T09:30:40Z</time>
      </trkpt>
      <trkpt lat="43.62278" lon="1.27932">
        <ele>160.8</ele>
        <time>2025-10-18T09:30:41Z</time>
      </trkpt>
      <trkpt lat="43.62274" lon="1.27937">
        <ele>160.8</ele>
        <time>2025-10-18T09:30:42Z</time>
      </trkpt>
      <trkpt lat="43.62269" lon="1.27943">
        <ele>160.6</ele>
        <time>2025-10-18T09:30:43Z</time>
      </trkpt>
      <trkpt lat="43.62264" lon="1.27949">
        <ele>160</ele>
        <time>2025-10-18T09:30:44Z</time>
      </trkpt>
      <trkpt lat="43.62258" lon="1.27956">
        <ele>159.6</ele>
        <time>2025-10-18T09:30:45Z</time>
      </trkpt>
      <trkpt lat="43.62254" lon="1.27963">
        <ele>159.2</ele>
        <time>2025-10-18T09:30:46Z</time>
      </trkpt>
      <trkpt lat="43.6225" lon="1.27971">
        <ele>158.8</ele>
        <time>2025-10-18T09:30:47Z</time>
      </trkpt>
      <trkpt lat="43.62246" lon="1.27981">
        <ele>158.4</ele>
        <time>2025-10-18T09:30:48Z</time>
      </trkpt>
      <trkpt lat="43.62243" lon="1.2799">
        <ele>158</ele>
        <time>2025-10-18T09:30:49Z</time>
      </trkpt>
      <trkpt lat="43.62242" lon="1.27999">
        <ele>158</ele>
        <time>2025-10-18T09:30:50Z</time>
      </trkpt>
      <trkpt lat="43.6224" lon="1.28009">
        <ele>157.6</ele>
        <time>2025-10-18T09:30:51Z</time>
      </trkpt>
      <trkpt lat="43.62238" lon="1.28018">
        <ele>157.6</ele>
        <time>2025-10-18T09:30:52Z</time>
      </trkpt>
      <trkpt lat="43.62238" lon="1.28026">
        <ele>157.6</ele>
        <time>2025-10-18T09:30:53Z</time>
      </trkpt>
      <trkpt lat="43.62237" lon="1.28035">
        <ele>157.6</ele>
        <time>2025-10-18T09:30:54Z</time>
      </trkpt>
      <trkpt lat="43.62235" lon="1.28045">
        <ele>157.4</ele>
        <time>2025-10-18T09:30:55Z</time>
      </trkpt>
      <trkpt lat="43.62233" lon="1.28053">
        <ele>157.4</ele>
        <time>2025-10-18T09:30:56Z</time>
      </trkpt>
      <trkpt lat="43.62231" lon="1.28062">
        <ele>157.4</ele>
        <time>2025-10-18T09:30:57Z</time>
      </trkpt>
      <trkpt lat="43.62229" lon="1.2807">
        <ele>157.2</ele>
        <time>2025-10-18T09:30:58Z</time>
      </trkpt>
      <trkpt lat="43.62227" lon="1.2808">
        <ele>157.2</ele>
        <time>2025-10-18T09:30:59Z</time>
      </trkpt>
      <trkpt lat="43.62226" lon="1.28089">
        <ele>157.2</ele>
        <time>2025-10-18T09:31:00Z</time>
      </trkpt>
      <trkpt lat="43.62225" lon="1.28098">
        <ele>157.4</ele>
        <time>2025-10-18T09:31:01Z</time>
      </trkpt>
      <trkpt lat="43.62224" lon="1.28107">
        <ele>157.4</ele>
        <time>2025-10-18T09:31:02Z</time>
      </trkpt>
      <trkpt lat="43.62225" lon="1.28117">
        <ele>157.4</ele>
        <time>2025-10-18T09:31:03Z</time>
      </trkpt>
      <trkpt lat="43.62226" lon="1.28126">
        <ele>157.2</ele>
        <time>2025-10-18T09:31:04Z</time>
      </trkpt>
      <trkpt lat="43.62227" lon="1.28135">
        <ele>157.2</ele>
        <time>2025-10-18T09:31:05Z</time>
      </trkpt>
      <trkpt lat="43.62227" lon="1.28145">
        <ele>157</ele>
        <time>2025-10-18T09:31:06Z</time>
      </trkpt>
      <trkpt lat="43.62227" lon="1.28155">
        <ele>156.8</ele>
        <time>2025-10-18T09:31:07Z</time>
      </trkpt>
      <trkpt lat="43.62226" lon="1.28165">
        <ele>156.8</ele>
        <time>2025-10-18T09:31:08Z</time>
      </trkpt>
      <trkpt lat="43.62225" lon="1.28175">
        <ele>156.6</ele>
        <time>2025-10-18T09:31:09Z</time>
      </trkpt>
      <trkpt lat="43.62223" lon="1.28185">
        <ele>156.6</ele>
        <time>2025-10-18T09:31:10Z</time>
      </trkpt>
      <trkpt lat="43.62222" lon="1.28196">
        <ele>156.4</ele>
        <time>2025-10-18T09:31:11Z</time>
      </trkpt>
      <trkpt lat="43.62221" lon="1.28205">
        <ele>156.4</ele>
        <time>2025-10-18T09:31:12Z</time>
      </trkpt>
      <trkpt lat="43.62221" lon="1.28215">
        <ele>156.4</ele>
        <time>2025-10-18T09:31:13Z</time>
      </trkpt>
      <trkpt lat="43.6222" lon="1.28224">
        <ele>156.4</ele>
        <time>2025-10-18T09:31:14Z</time>
      </trkpt>
      <trkpt lat="43.6222" lon="1.28233">
        <ele>156.2</ele>
        <time>2025-10-18T09:31:15Z</time>
      </trkpt>
      <trkpt lat="43.62219" lon="1.28243">
        <ele>156.2</ele>
        <time>2025-10-18T09:31:16Z</time>
      </trkpt>
      <trkpt lat="43.62218" lon="1.28252">
        <ele>156.2</ele>
        <time>2025-10-18T09:31:17Z</time>
      </trkpt>
      <trkpt lat="43.62217" lon="1.28262">
        <ele>156.2</ele>
        <time>2025-10-18T09:31:18Z</time>
      </trkpt>
      <trkpt lat="43.62216" lon="1.28272">
        <ele>156.2</ele>
        <time>2025-10-18T09:31:19Z</time>
      </trkpt>
      <trkpt lat="43.62216" lon="1.28281">
        <ele>156</ele>
        <time>2025-10-18T09:31:20Z</time>
      </trkpt>
      <trkpt lat="43.62215" lon="1.28291">
        <ele>156</ele>
        <time>2025-10-18T09:31:21Z</time>
      </trkpt>
      <trkpt lat="43.62214" lon="1.28301">
        <ele>155.8</ele>
        <time>2025-10-18T09:31:22Z</time>
      </trkpt>
      <trkpt lat="43.62213" lon="1.28311">
        <ele>155.8</ele>
        <time>2025-10-18T09:31:23Z</time>
      </trkpt>
      <trkpt lat="43.62212" lon="1.28321">
        <ele>155.6</ele>
        <time>2025-10-18T09:31:24Z</time>
      </trkpt>
      <trkpt lat="43.62212" lon="1.2833">
        <ele>155.6</ele>
        <time>2025-10-18T09:31:25Z</time>
      </trkpt>
      <trkpt lat="43.62211" lon="1.2834">
        <ele>155.4</ele>
        <time>2025-10-18T09:31:26Z</time>
      </trkpt>
      <trkpt lat="43.62211" lon="1.2835">
        <ele>155.4</ele>
        <time>2025-10-18T09:31:27Z</time>
      </trkpt>
      <trkpt lat="43.6221" lon="1.28359">
        <ele>155.2</ele>
        <time>2025-10-18T09:31:28Z</time>
      </trkpt>
      <trkpt lat="43.6221" lon="1.28369">
        <ele>155.2</ele>
        <time>2025-10-18T09:31:29Z</time>
      </trkpt>
      <trkpt lat="43.6221" lon="1.28378">
        <ele>155.2</ele>
        <time>2025-10-18T09:31:30Z</time>
      </trkpt>
      <trkpt lat="43.6221" lon="1.28388">
        <ele>155</ele>
        <time>2025-10-18T09:31:31Z</time>
      </trkpt>
      <trkpt lat="43.6221" lon="1.28397">
        <ele>155</ele>
        <time>2025-10-18T09:31:32Z</time>
      </trkpt>
      <trkpt lat="43.62209" lon="1.28406">
        <ele>155</ele>
        <time>2025-10-18T09:31:33Z</time>
      </trkpt>
      <trkpt lat="43.62209" lon="1.28416">
        <ele>154.8</ele>
        <time>2025-10-18T09:31:34Z</time>
      </trkpt>
      <trkpt lat="43.62209" lon="1.28425">
        <ele>154.6</ele>
        <time>2025-10-18T09:31:35Z</time>
      </trkpt>
      <trkpt lat="43.62209" lon="1.28435">
        <ele>154.6</ele>
        <time>2025-10-18T09:31:36Z</time>
      </trkpt>
      <trkpt lat="43.62209" lon="1.28444">
        <ele>154.6</ele>
        <time>2025-10-18T09:31:37Z</time>
      </trkpt>
      <trkpt lat="43.62209" lon="1.28454">
        <ele>154.4</ele>
        <time>2025-10-18T09:31:38Z</time>
      </trkpt>
      <trkpt lat="43.62209" lon="1.28463">
        <ele>154.6</ele>
        <time>2025-10-18T09:31:39Z</time>
      </trkpt>
      <trkpt lat="43.6221" lon="1.28473">
        <ele>154.6</ele>
        <time>2025-10-18T09:31:40Z</time>
      </trkpt>
      <trkpt lat="43.62211" lon="1.28482">
        <ele>154.6</ele>
        <time>2025-10-18T09:31:41Z</time>
      </trkpt>
      <trkpt lat="43.62213" lon="1.28492">
        <ele>154.4</ele>
        <time>2025-10-18T09:31:42Z</time>
      </trkpt>
      <trkpt lat="43.62214" lon="1.28501">
        <ele>154.6</ele>
        <time>2025-10-18T09:31:43Z</time>
      </trkpt>
      <trkpt lat="43.62217" lon="1.2851">
        <ele>154.6</ele>
        <time>2025-10-18T09:31:44Z</time>
      </trkpt>
      <trkpt lat="43.62219" lon="1.28518">
        <ele>154.6</ele>
        <time>2025-10-18T09:31:45Z</time>
      </trkpt>
      <trkpt lat="43.62222" lon="1.28527">
        <ele>154.8</ele>
        <time>2025-10-18T09:31:46Z</time>
      </trkpt>
      <trkpt lat="43.62225" lon="1.28535">
        <ele>155</ele>
        <time>2025-10-18T09:31:47Z</time>
      </trkpt>
      <trkpt lat="43.62228" lon="1.28543">
        <ele>155.2</ele>
        <time>2025-10-18T09:31:48Z</time>
      </trkpt>
      <trkpt lat="43.62232" lon="1.2855">
        <ele>155.4</ele>
        <time>2025-10-18T09:31:49Z</time>
      </trkpt>
      <trkpt lat="43.62235" lon="1.28556">
        <ele>155.8</ele>
        <time>2025-10-18T09:31:50Z</time>
      </trkpt>
      <trkpt lat="43.62239" lon="1.28562">
        <ele>156</ele>
        <time>2025-10-18T09:31:51Z</time>
      </trkpt>
      <trkpt lat="43.62242" lon="1.28569">
        <ele>156.2</ele>
        <time>2025-10-18T09:31:52Z</time>
      </trkpt>
      <trkpt lat="43.62247" lon="1.28575">
        <ele>156.4</ele>
        <time>2025-10-18T09:31:53Z</time>
      </trkpt>
      <trkpt lat="43.62251" lon="1.2858">
        <ele>156.4</ele>
        <time>2025-10-18T09:31:54Z</time>
      </trkpt>
      <trkpt lat="43.62254" lon="1.28586">
        <ele>156.6</ele>
        <time>2025-10-18T09:31:55Z</time>
      </trkpt>
      <trkpt lat="43.62258" lon="1.28592">
        <ele>156.6</ele>
        <time>2025-10-18T09:31:56Z</time>
      </trkpt>
      <trkpt lat="43.62262" lon="1.28598">
        <ele>156.6</ele>
        <time>2025-10-18T09:31:57Z</time>
      </trkpt>
      <trkpt lat="43.62266" lon="1.28604">
        <ele>156.6</ele>
        <time>2025-10-18T09:31:58Z</time>
      </trkpt>
      <trkpt lat="43.62269" lon="1.28611">
        <ele>156.6</ele>
        <time>2025-10-18T09:31:59Z</time>
      </trkpt>
      <trkpt lat="43.62271" lon="1.28618">
        <ele>156.6</ele>
        <time>2025-10-18T09:32:00Z</time>
      </trkpt>
      <trkpt lat="43.62271" lon="1.28625">
        <ele>156.6</ele>
        <time>2025-10-18T09:32:01Z</time>
      </trkpt>
      <trkpt lat="43.62272" lon="1.28632">
        <ele>156.6</ele>
        <time>2025-10-18T09:32:02Z</time>
      </trkpt>
      <trkpt lat="43.62271" lon="1.2864">
        <ele>156.6</ele>
        <time>2025-10-18T09:32:03Z</time>
      </trkpt>
      <trkpt lat="43.6227" lon="1.28647">
        <ele>156.8</ele>
        <time>2025-10-18T09:32:04Z</time>
      </trkpt>
      <trkpt lat="43.62269" lon="1.28655">
        <ele>156.8</ele>
        <time>2025-10-18T09:32:05Z</time>
      </trkpt>
      <trkpt lat="43.62267" lon="1.28662">
        <ele>156.8</ele>
        <time>2025-10-18T09:32:06Z</time>
      </trkpt>
      <trkpt lat="43.62265" lon="1.28668">
        <ele>156.8</ele>
        <time>2025-10-18T09:32:07Z</time>
      </trkpt>
      <trkpt lat="43.62262" lon="1.28675">
        <ele>156.6</ele>
        <time>2025-10-18T09:32:08Z</time>
      </trkpt>
      <trkpt lat="43.6226" lon="1.28683">
        <ele>156.2</ele>
        <time>2025-10-18T09:32:09Z</time>
      </trkpt>
      <trkpt lat="43.6226" lon="1.28691">
        <ele>155.6</ele>
        <time>2025-10-18T09:32:10Z</time>
      </trkpt>
      <trkpt lat="43.6226" lon="1.28699">
        <ele>155</ele>
        <time>2025-10-18T09:32:11Z</time>
      </trkpt>
      <trkpt lat="43.6226" lon="1.28707">
        <ele>154.4</ele>
        <time>2025-10-18T09:32:12Z</time>
      </trkpt>
      <trkpt lat="43.62261" lon="1.28714">
        <ele>154.2</ele>
        <time>2025-10-18T09:32:13Z</time>
      </trkpt>
      <trkpt lat="43.62262" lon="1.28719">
        <ele>154.2</ele>
        <time>2025-10-18T09:32:14Z</time>
      </trkpt>
      <trkpt lat="43.62263" lon="1.28723">
        <ele>154.6</ele>
        <time>2025-10-18T09:32:15Z</time>
      </trkpt>
      <trkpt lat="43.62262" lon="1.28726">
        <ele>154.8</ele>
        <time>2025-10-18T09:32:16Z</time>
      </trkpt>
      <trkpt lat="43.62262" lon="1.28729">
        <ele>155.2</ele>
        <time>2025-10-18T09:32:17Z</time>
      </trkpt>
      <trkpt lat="43.62261" lon="1.28733">
        <ele>155.6</ele>
        <time>2025-10-18T09:32:18Z</time>
      </trkpt>
      <trkpt lat="43.6226" lon="1.28739">
        <ele>155.8</ele>
        <time>2025-10-18T09:32:19Z</time>
      </trkpt>
      <trkpt lat="43.6226" lon="1.28745">
        <ele>156</ele>
        <time>2025-10-18T09:32:20Z</time>
      </trkpt>
      <trkpt lat="43.62259" lon="1.28751">
        <ele>156</ele>
        <time>2025-10-18T09:32:21Z</time>
      </trkpt>
      <trkpt lat="43.62259" lon="1.28757">
        <ele>156</ele>
        <time>2025-10-18T09:32:22Z</time>
      </trkpt>
      <trkpt lat="43.62257" lon="1.28762">
        <ele>156</ele>
        <time>2025-10-18T09:32:23Z</time>
      </trkpt>
      <trkpt lat="43.62256" lon="1.28767">
        <ele>155.8</ele>
        <time>2025-10-18T09:32:24Z</time>
      </trkpt>
      <trkpt lat="43.62257" lon="1.28771">
        <ele>156</ele>
        <time>2025-10-18T09:32:25Z</time>
      </trkpt>
      <trkpt lat="43.62258" lon="1.28775">
        <ele>156</ele>
        <time>2025-10-18T09:32:26Z</time>
      </trkpt>
      <trkpt lat="43.62257" lon="1.2878">
        <ele>156</ele>
        <time>2025-10-18T09:32:27Z</time>
      </trkpt>
      <trkpt lat="43.62257" lon="1.28786">
        <ele>156</ele>
        <time>2025-10-18T09:32:28Z</time>
      </trkpt>
      <trkpt lat="43.62256" lon="1.28793">
        <ele>155.8</ele>
        <time>2025-10-18T09:32:29Z</time>
      </trkpt>
      <trkpt lat="43.62256" lon="1.28801">
        <ele>155.6</ele>
        <time>2025-10-18T09:32:30Z</time>
      </trkpt>
      <trkpt lat="43.62255" lon="1.28808">
        <ele>155.4</ele>
        <time>2025-10-18T09:32:31Z</time>
      </trkpt>
      <trkpt lat="43.62255" lon="1.28817">
        <ele>155.2</ele>
        <time>2025-10-18T09:32:32Z</time>
      </trkpt>
      <trkpt lat="43.62254" lon="1.28825">
        <ele>155.2</ele>
        <time>2025-10-18T09:32:33Z</time>
      </trkpt>
      <trkpt lat="43.62254" lon="1.28833">
        <ele>155</ele>
        <time>2025-10-18T09:32:34Z</time>
      </trkpt>
      <trkpt lat="43.62253" lon="1.28842">
        <ele>155</ele>
        <time>2025-10-18T09:32:35Z</time>
      </trkpt>
      <trkpt lat="43.62252" lon="1.28849">
        <ele>154.8</ele>
        <time>2025-10-18T09:32:36Z</time>
      </trkpt>
      <trkpt lat="43.62251" lon="1.28856">
        <ele>155</ele>
        <time>2025-10-18T09:32:37Z</time>
      </trkpt>
      <trkpt lat="43.62251" lon="1.28861">
        <ele>155</ele>
        <time>2025-10-18T09:32:38Z</time>
      </trkpt>
      <trkpt lat="43.6225" lon="1.28866">
        <ele>155</ele>
        <time>2025-10-18T09:32:39Z</time>
      </trkpt>
      <trkpt lat="43.6225" lon="1.2887">
        <ele>155.2</ele>
        <time>2025-10-18T09:32:40Z</time>
      </trkpt>
      <trkpt lat="43.6225" lon="1.28875">
        <ele>155.4</ele>
        <time>2025-10-18T09:32:41Z</time>
      </trkpt>
      <trkpt lat="43.6225" lon="1.28882">
        <ele>155.4</ele>
        <time>2025-10-18T09:32:42Z</time>
      </trkpt>
      <trkpt lat="43.6225" lon="1.28888">
        <ele>155.4</ele>
        <time>2025-10-18T09:32:43Z</time>
      </trkpt>
      <trkpt lat="43.6225" lon="1.28895">
        <ele>155.4</ele>
        <time>2025-10-18T09:32:44Z</time>
      </trkpt>
      <trkpt lat="43.62249" lon="1.28902">
        <ele>155.2</ele>
        <time>2025-10-18T09:32:45Z</time>
      </trkpt>
      <trkpt lat="43.6225" lon="1.28909">
        <ele>155.2</ele>
        <time>2025-10-18T09:32:46Z</time>
      </trkpt>
      <trkpt lat="43.62249" lon="1.28917">
        <ele>155</ele>
        <time>2025-10-18T09:32:47Z</time>
      </trkpt>
      <trkpt lat="43.62249" lon="1.28924">
        <ele>155</ele>
        <time>2025-10-18T09:32:48Z</time>
      </trkpt>
      <trkpt lat="43.6225" lon="1.28931">
        <ele>155</ele>
        <time>2025-10-18T09:32:49Z</time>
      </trkpt>
      <trkpt lat="43.6225" lon="1.28938">
        <ele>155</ele>
        <time>2025-10-18T09:32:50Z</time>
      </trkpt>
      <trkpt lat="43.6225" lon="1.28945">
        <ele>155</ele>
        <time>2025-10-18T09:32:51Z</time>
      </trkpt>
      <trkpt lat="43.6225" lon="1.28953">
        <ele>155</ele>
        <time>2025-10-18T09:32:52Z</time>
      </trkpt>
      <trkpt lat="43.6225" lon="1.28959">
        <ele>155</ele>
        <time>2025-10-18T09:32:53Z</time>
      </trkpt>
      <trkpt lat="43.6225" lon="1.28966">
        <ele>155</ele>
        <time>2025-10-18T09:32:54Z</time>
      </trkpt>
      <trkpt lat="43.6225" lon="1.28973">
        <ele>155</ele>
        <time>2025-10-18T09:32:55Z</time>
      </trkpt>
      <trkpt lat="43.6225" lon="1.28979">
        <ele>155</ele>
        <time>2025-10-18T09:32:56Z</time>
      </trkpt>
      <trkpt lat="43.6225" lon="1.28986">
        <ele>155</ele>
        <time>2025-10-18T09:32:57Z</time>
      </trkpt>
      <trkpt lat="43.6225" lon="1.28993">
        <ele>155</ele>
        <time>2025-10-18T09:32:58Z</time>
      </trkpt>
      <trkpt lat="43.62252" lon="1.29">
        <ele>155</ele>
        <time>2025-10-18T09:32:59Z</time>
      </trkpt>
      <trkpt lat="43.62255" lon="1.29006">
        <ele>155</ele>
        <time>2025-10-18T09:33:00Z</time>
      </trkpt>
      <trkpt lat="43.62258" lon="1.29013">
        <ele>155</ele>
        <time>2025-10-18T09:33:01Z</time>
      </trkpt>
      <trkpt lat="43.62261" lon="1.29018">
        <ele>155</ele>
        <time>2025-10-18T09:33:02Z</time>
      </trkpt>
      <trkpt lat="43.62264" lon="1.29024">
        <ele>155.2</ele>
        <time>2025-10-18T09:33:03Z</time>
      </trkpt>
      <trkpt lat="43.62267" lon="1.2903">
        <ele>155.4</ele>
        <time>2025-10-18T09:33:04Z</time>
      </trkpt>
      <trkpt lat="43.62269" lon="1.29036">
        <ele>155.4</ele>
        <time>2025-10-18T09:33:05Z</time>
      </trkpt>
      <trkpt lat="43.62271" lon="1.29042">
        <ele>155.6</ele>
        <time>2025-10-18T09:33:06Z</time>
      </trkpt>
      <trkpt lat="43.62274" lon="1.29047">
        <ele>155.8</ele>
        <time>2025-10-18T09:33:07Z</time>
      </trkpt>
      <trkpt lat="43.62277" lon="1.29054">
        <ele>156</ele>
        <time>2025-10-18T09:33:08Z</time>
      </trkpt>
      <trkpt lat="43.6228" lon="1.29061">
        <ele>156</ele>
        <time>2025-10-18T09:33:09Z</time>
      </trkpt>
      <trkpt lat="43.62284" lon="1.29068">
        <ele>156</ele>
        <time>2025-10-18T09:33:10Z</time>
      </trkpt>
      <trkpt lat="43.62288" lon="1.29075">
        <ele>155.8</ele>
        <time>2025-10-18T09:33:11Z</time>
      </trkpt>
      <trkpt lat="43.62292" lon="1.29082">
        <ele>155.8</ele>
        <time>2025-10-18T09:33:12Z</time>
      </trkpt>
      <trkpt lat="43.62296" lon="1.2909">
        <ele>155.6</ele>
        <time>2025-10-18T09:33:13Z</time>
      </trkpt>
      <trkpt lat="43.62301" lon="1.29098">
        <ele>155.2</ele>
        <time>2025-10-18T09:33:14Z</time>
      </trkpt>
      <trkpt lat="43.62305" lon="1.29106">
        <ele>155</ele>
        <time>2025-10-18T09:33:15Z</time>
      </trkpt>
      <trkpt lat="43.62309" lon="1.29113">
        <ele>154.8</ele>
        <time>2025-10-18T09:33:16Z</time>
      </trkpt>
      <trkpt lat="43.62314" lon="1.29122">
        <ele>154.6</ele>
        <time>2025-10-18T09:33:17Z</time>
      </trkpt>
      <trkpt lat="43.62318" lon="1.2913">
        <ele>154.4</ele>
        <time>2025-10-18T09:33:18Z</time>
      </trkpt>
      <trkpt lat="43.62324" lon="1.29138">
        <ele>154.4</ele>
        <time>2025-10-18T09:33:19Z</time>
      </trkpt>
      <trkpt lat="43.62328" lon="1.29147">
        <ele>154.4</ele>
        <time>2025-10-18T09:33:20Z</time>
      </trkpt>
      <trkpt lat="43.62333" lon="1.29155">
        <ele>154.4</ele>
        <time>2025-10-18T09:33:21Z</time>
      </trkpt>
      <trkpt lat="43.62337" lon="1.29164">
        <ele>154.2</ele>
        <time>2025-10-18T09:33:22Z</time>
      </trkpt>
      <trkpt lat="43.62341" lon="1.29174">
        <ele>154.2</ele>
        <time>2025-10-18T09:33:23Z</time>
      </trkpt>
      <trkpt lat="43.62345" lon="1.29183">
        <ele>154</ele>
        <time>2025-10-18T09:33:24Z</time>
      </trkpt>
      <trkpt lat="43.62348" lon="1.29192">
        <ele>154</ele>
        <time>2025-10-18T09:33:25Z</time>
      </trkpt>
      <trkpt lat="43.62352" lon="1.29201">
        <ele>154</ele>
        <time>2025-10-18T09:33:26Z</time>
      </trkpt>
      <trkpt lat="43.62355" lon="1.29209">
        <ele>154</ele>
        <time>2025-10-18T09:33:27Z</time>
      </trkpt>
      <trkpt lat="43.62358" lon="1.29217">
        <ele>154.2</ele>
        <time>2025-10-18T09:33:28Z</time>
      </trkpt>
      <trkpt lat="43.6236" lon="1.29225">
        <ele>154.4</ele>
        <time>2025-10-18T09:33:29Z</time>
      </trkpt>
      <trkpt lat="43.62363" lon="1.29233">
        <ele>154.6</ele>
        <time>2025-10-18T09:33:30Z</time>
      </trkpt>
      <trkpt lat="43.62365" lon="1.29242">
        <ele>154.8</ele>
        <time>2025-10-18T09:33:31Z</time>
      </trkpt>
      <trkpt lat="43.62366" lon="1.2925">
        <ele>155</ele>
        <time>2025-10-18T09:33:32Z</time>
      </trkpt>
      <trkpt lat="43.62367" lon="1.29259">
        <ele>155</ele>
        <time>2025-10-18T09:33:33Z</time>
      </trkpt>
      <trkpt lat="43.62368" lon="1.29268">
        <ele>155</ele>
        <time>2025-10-18T09:33:34Z</time>
      </trkpt>
      <trkpt lat="43.62369" lon="1.29277">
        <ele>155.2</ele>
        <time>2025-10-18T09:33:35Z</time>
      </trkpt>
      <trkpt lat="43.6237" lon="1.29286">
        <ele>155.2</ele>
        <time>2025-10-18T09:33:36Z</time>
      </trkpt>
      <trkpt lat="43.6237" lon="1.29295">
        <ele>155.4</ele>
        <time>2025-10-18T09:33:37Z</time>
      </trkpt>
      <trkpt lat="43.62371" lon="1.29304">
        <ele>155.4</ele>
        <time>2025-10-18T09:33:38Z</time>
      </trkpt>
      <trkpt lat="43.62372" lon="1.29313">
        <ele>155.6</ele>
        <time>2025-10-18T09:33:39Z</time>
      </trkpt>
      <trkpt lat="43.62373" lon="1.29322">
        <ele>156</ele>
        <time>2025-10-18T09:33:40Z</time>
      </trkpt>
      <trkpt lat="43.62375" lon="1.2933">
        <ele>156.2</ele>
        <time>2025-10-18T09:33:41Z</time>
      </trkpt>
      <trkpt lat="43.62377" lon="1.29339">
        <ele>156.6</ele>
        <time>2025-10-18T09:33:42Z</time>
      </trkpt>
      <trkpt lat="43.62379" lon="1.29347">
        <ele>156.6</ele>
        <time>2025-10-18T09:33:43Z</time>
      </trkpt>
      <trkpt lat="43.6238" lon="1.29356">
        <ele>156.8</ele>
        <time>2025-10-18T09:33:44Z</time>
      </trkpt>
      <trkpt lat="43.62382" lon="1.29364">
        <ele>157</ele>
        <time>2025-10-18T09:33:45Z</time>
      </trkpt>
      <trkpt lat="43.62383" lon="1.29373">
        <ele>157.2</ele>
        <time>2025-10-18T09:33:46Z</time>
      </trkpt>
      <trkpt lat="43.62385" lon="1.29381">
        <ele>157.2</ele>
        <time>2025-10-18T09:33:47Z</time>
      </trkpt>
      <trkpt lat="43.62387" lon="1.2939">
        <ele>157.6</ele>
        <time>2025-10-18T09:33:48Z</time>
      </trkpt>
      <trkpt lat="43.62388" lon="1.29398">
        <ele>157.8</ele>
        <time>2025-10-18T09:33:49Z</time>
      </trkpt>
      <trkpt lat="43.62389" lon="1.29407">
        <ele>157.8</ele>
        <time>2025-10-18T09:33:50Z</time>
      </trkpt>
      <trkpt lat="43.62389" lon="1.29415">
        <ele>158</ele>
        <time>2025-10-18T09:33:51Z</time>
      </trkpt>
      <trkpt lat="43.6239" lon="1.29423">
        <ele>158.2</ele>
        <time>2025-10-18T09:33:52Z</time>
      </trkpt>
      <trkpt lat="43.62392" lon="1.29431">
        <ele>158.2</ele>
        <time>2025-10-18T09:33:53Z</time>
      </trkpt>
      <trkpt lat="43.62393" lon="1.2944">
        <ele>158.2</ele>
        <time>2025-10-18T09:33:54Z</time>
      </trkpt>
      <trkpt lat="43.62396" lon="1.2945">
        <ele>158</ele>
        <time>2025-10-18T09:33:55Z</time>
      </trkpt>
      <trkpt lat="43.62398" lon="1.2946">
        <ele>158</ele>
        <time>2025-10-18T09:33:56Z</time>
      </trkpt>
      <trkpt lat="43.624" lon="1.29469">
        <ele>157.8</ele>
        <time>2025-10-18T09:33:57Z</time>
      </trkpt>
      <trkpt lat="43.62403" lon="1.29479">
        <ele>157.6</ele>
        <time>2025-10-18T09:33:58Z</time>
      </trkpt>
      <trkpt lat="43.62406" lon="1.29489">
        <ele>157.4</ele>
        <time>2025-10-18T09:33:59Z</time>
      </trkpt>
      <trkpt lat="43.6241" lon="1.29499">
        <ele>157</ele>
        <time>2025-10-18T09:34:00Z</time>
      </trkpt>
      <trkpt lat="43.62414" lon="1.29508">
        <ele>156.8</ele>
        <time>2025-10-18T09:34:01Z</time>
      </trkpt>
      <trkpt lat="43.62418" lon="1.29518">
        <ele>156.4</ele>
        <time>2025-10-18T09:34:02Z</time>
      </trkpt>
      <trkpt lat="43.62423" lon="1.29528">
        <ele>156</ele>
        <time>2025-10-18T09:34:03Z</time>
      </trkpt>
      <trkpt lat="43.62427" lon="1.29537">
        <ele>155.8</ele>
        <time>2025-10-18T09:34:04Z</time>
      </trkpt>
      <trkpt lat="43.62431" lon="1.29545">
        <ele>155.4</ele>
        <time>2025-10-18T09:34:05Z</time>
      </trkpt>
      <trkpt lat="43.62435" lon="1.29554">
        <ele>155</ele>
        <time>2025-10-18T09:34:06Z</time>
      </trkpt>
      <trkpt lat="43.6244" lon="1.29564">
        <ele>154.6</ele>
        <time>2025-10-18T09:34:07Z</time>
      </trkpt>
      <trkpt lat="43.62444" lon="1.29573">
        <ele>154.2</ele>
        <time>2025-10-18T09:34:08Z</time>
      </trkpt>
      <trkpt lat="43.62449" lon="1.29582">
        <ele>154</ele>
        <time>2025-10-18T09:34:09Z</time>
      </trkpt>
      <trkpt lat="43.62454" lon="1.29591">
        <ele>153.8</ele>
        <time>2025-10-18T09:34:10Z</time>
      </trkpt>
      <trkpt lat="43.62459" lon="1.296">
        <ele>153.8</ele>
        <time>2025-10-18T09:34:11Z</time>
      </trkpt>
      <trkpt lat="43.62464" lon="1.29609">
        <ele>153.6</ele>
        <time>2025-10-18T09:34:12Z</time>
      </trkpt>
      <trkpt lat="43.6247" lon="1.29618">
        <ele>153.6</ele>
        <time>2025-10-18T09:34:13Z</time>
      </trkpt>
      <trkpt lat="43.62476" lon="1.29626">
        <ele>153.6</ele>
        <time>2025-10-18T09:34:14Z</time>
      </trkpt>
      <trkpt lat="43.62482" lon="1.29633">
        <ele>153.6</ele>
        <time>2025-10-18T09:34:15Z</time>
      </trkpt>
      <trkpt lat="43.62488" lon="1.29641">
        <ele>153.6</ele>
        <time>2025-10-18T09:34:16Z</time>
      </trkpt>
      <trkpt lat="43.62494" lon="1.29649">
        <ele>153.4</ele>
        <time>2025-10-18T09:34:17Z</time>
      </trkpt>
      <trkpt lat="43.62501" lon="1.29656">
        <ele>153.2</ele>
        <time>2025-10-18T09:34:18Z</time>
      </trkpt>
      <trkpt lat="43.62507" lon="1.29664">
        <ele>153.2</ele>
        <time>2025-10-18T09:34:19Z</time>
      </trkpt>
      <trkpt lat="43.62514" lon="1.29671">
        <ele>153</ele>
        <time>2025-10-18T09:34:20Z</time>
      </trkpt>
      <trkpt lat="43.6252" lon="1.29678">
        <ele>153</ele>
        <time>2025-10-18T09:34:21Z</time>
      </trkpt>
      <trkpt lat="43.62525" lon="1.29685">
        <ele>152.8</ele>
        <time>2025-10-18T09:34:22Z</time>
      </trkpt>
      <trkpt lat="43.62532" lon="1.29692">
        <ele>152.8</ele>
        <time>2025-10-18T09:34:23Z</time>
      </trkpt>
      <trkpt lat="43.62538" lon="1.29699">
        <ele>152.8</ele>
        <time>2025-10-18T09:34:24Z</time>
      </trkpt>
      <trkpt lat="43.62544" lon="1.29706">
        <ele>152.6</ele>
        <time>2025-10-18T09:34:25Z</time>
      </trkpt>
      <trkpt lat="43.6255" lon="1.29713">
        <ele>152.6</ele>
        <time>2025-10-18T09:34:26Z</time>
      </trkpt>
      <trkpt lat="43.62556" lon="1.2972">
        <ele>152.4</ele>
        <time>2025-10-18T09:34:27Z</time>
      </trkpt>
      <trkpt lat="43.62562" lon="1.29726">
        <ele>152.4</ele>
        <time>2025-10-18T09:34:28Z</time>
      </trkpt>
      <trkpt lat="43.62568" lon="1.29733">
        <ele>152.4</ele>
        <time>2025-10-18T09:34:29Z</time>
      </trkpt>
      <trkpt lat="43.62575" lon="1.2974">
        <ele>152.4</ele>
        <time>2025-10-18T09:34:30Z</time>
      </trkpt>
      <trkpt lat="43.62581" lon="1.29746">
        <ele>152.4</ele>
        <time>2025-10-18T09:34:31Z</time>
      </trkpt>
      <trkpt lat="43.62588" lon="1.29752">
        <ele>152.4</ele>
        <time>2025-10-18T09:34:32Z</time>
      </trkpt>
      <trkpt lat="43.62595" lon="1.29759">
        <ele>152.6</ele>
        <time>2025-10-18T09:34:33Z</time>
      </trkpt>
      <trkpt lat="43.62601" lon="1.29765">
        <ele>152.6</ele>
        <time>2025-10-18T09:34:34Z</time>
      </trkpt>
      <trkpt lat="43.62607" lon="1.29772">
        <ele>152.6</ele>
        <time>2025-10-18T09:34:35Z</time>
      </trkpt>
      <trkpt lat="43.62614" lon="1.29778">
        <ele>152.6</ele>
        <time>2025-10-18T09:34:36Z</time>
      </trkpt>
      <trkpt lat="43.6262" lon="1.29784">
        <ele>152.6</ele>
        <time>2025-10-18T09:34:37Z</time>
      </trkpt>
      <trkpt lat="43.62627" lon="1.2979">
        <ele>152.4</ele>
        <time>2025-10-18T09:34:38Z</time>
      </trkpt>
      <trkpt lat="43.62634" lon="1.29797">
        <ele>152.4</ele>
        <time>2025-10-18T09:34:39Z</time>
      </trkpt>
      <trkpt lat="43.62642" lon="1.29804">
        <ele>152.4</ele>
        <time>2025-10-18T09:34:40Z</time>
      </trkpt>
      <trkpt lat="43.62649" lon="1.2981">
        <ele>152.4</ele>
        <time>2025-10-18T09:34:41Z</time>
      </trkpt>
      <trkpt lat="43.62657" lon="1.29816">
        <ele>152.4</ele>
        <time>2025-10-18T09:34:42Z</time>
      </trkpt>
      <trkpt lat="43.62664" lon="1.29822">
        <ele>152.2</ele>
        <time>2025-10-18T09:34:43Z</time>
      </trkpt>
      <trkpt lat="43.62672" lon="1.29828">
        <ele>152.2</ele>
        <time>2025-10-18T09:34:44Z</time>
      </trkpt>
      <trkpt lat="43.62679" lon="1.29835">
        <ele>152</ele>
        <time>2025-10-18T09:34:45Z</time>
      </trkpt>
      <trkpt lat="43.62686" lon="1.29842">
        <ele>151.6</ele>
        <time>2025-10-18T09:34:46Z</time>
      </trkpt>
      <trkpt lat="43.62692" lon="1.2985">
        <ele>151.6</ele>
        <time>2025-10-18T09:34:47Z</time>
      </trkpt>
      <trkpt lat="43.62698" lon="1.29858">
        <ele>151.4</ele>
        <time>2025-10-18T09:34:48Z</time>
      </trkpt>
      <trkpt lat="43.62704" lon="1.29867">
        <ele>151.4</ele>
        <time>2025-10-18T09:34:49Z</time>
      </trkpt>
      <trkpt lat="43.6271" lon="1.29875">
        <ele>151.2</ele>
        <time>2025-10-18T09:34:50Z</time>
      </trkpt>
      <trkpt lat="43.62716" lon="1.29883">
        <ele>151.2</ele>
        <time>2025-10-18T09:34:51Z</time>
      </trkpt>
      <trkpt lat="43.62722" lon="1.29892">
        <ele>151</ele>
        <time>2025-10-18T09:34:52Z</time>
      </trkpt>
      <trkpt lat="43.62728" lon="1.299">
        <ele>150.8</ele>
        <time>2025-10-18T09:34:53Z</time>
      </trkpt>
      <trkpt lat="43.62733" lon="1.29909">
        <ele>150.8</ele>
        <time>2025-10-18T09:34:54Z</time>
      </trkpt>
      <trkpt lat="43.62739" lon="1.29918">
        <ele>150.6</ele>
        <time>2025-10-18T09:34:55Z</time>
      </trkpt>
      <trkpt lat="43.62745" lon="1.29926">
        <ele>150.6</ele>
        <time>2025-10-18T09:34:56Z</time>
      </trkpt>
      <trkpt lat="43.62751" lon="1.29935">
        <ele>150.4</ele>
        <time>2025-10-18T09:34:57Z</time>
      </trkpt>
      <trkpt lat="43.62757" lon="1.29944">
        <ele>150.6</ele>
        <time>2025-10-18T09:34:58Z</time>
      </trkpt>
      <trkpt lat="43.62762" lon="1.29952">
        <ele>150.6</ele>
        <time>2025-10-18T09:34:59Z</time>
      </trkpt>
      <trkpt lat="43.62768" lon="1.2996">
        <ele>150.6</ele>
        <time>2025-10-18T09:35:00Z</time>
      </trkpt>
      <trkpt lat="43.62773" lon="1.29968">
        <ele>151</ele>
        <time>2025-10-18T09:35:01Z</time>
      </trkpt>
      <trkpt lat="43.62778" lon="1.29976">
        <ele>151.2</ele>
        <time>2025-10-18T09:35:02Z</time>
      </trkpt>
      <trkpt lat="43.62783" lon="1.29983">
        <ele>151</ele>
        <time>2025-10-18T09:35:03Z</time>
      </trkpt>
      <trkpt lat="43.62788" lon="1.2999">
        <ele>150.6</ele>
        <time>2025-10-18T09:35:04Z</time>
      </trkpt>
      <trkpt lat="43.62793" lon="1.29996">
        <ele>150.6</ele>
        <time>2025-10-18T09:35:05Z</time>
      </trkpt>
      <trkpt lat="43.62798" lon="1.30003">
        <ele>150.2</ele>
        <time>2025-10-18T09:35:06Z</time>
      </trkpt>
      <trkpt lat="43.62804" lon="1.30009">
        <ele>150</ele>
        <time>2025-10-18T09:35:07Z</time>
      </trkpt>
      <trkpt lat="43.6281" lon="1.30014">
        <ele>150</ele>
        <time>2025-10-18T09:35:08Z</time>
      </trkpt>
      <trkpt lat="43.62814" lon="1.3002">
        <ele>150</ele>
        <time>2025-10-18T09:35:09Z</time>
      </trkpt>
      <trkpt lat="43.62816" lon="1.30027">
        <ele>150</ele>
        <time>2025-10-18T09:35:10Z</time>
      </trkpt>
      <trkpt lat="43.62815" lon="1.30034">
        <ele>150</ele>
        <time>2025-10-18T09:35:11Z</time>
      </trkpt>
      <trkpt lat="43.62814" lon="1.30041">
        <ele>150</ele>
        <time>2025-10-18T09:35:12Z</time>
      </trkpt>
      <trkpt lat="43.62811" lon="1.30047">
        <ele>150</ele>
        <time>2025-10-18T09:35:13Z</time>
      </trkpt>
      <trkpt lat="43.62809" lon="1.30053">
        <ele>150</ele>
        <time>2025-10-18T09:35:14Z</time>
      </trkpt>
      <trkpt lat="43.62806" lon="1.30059">
        <ele>149.8</ele>
        <time>2025-10-18T09:35:15Z</time>
      </trkpt>
      <trkpt lat="43.62803" lon="1.30066">
        <ele>149.8</ele>
        <time>2025-10-18T09:35:16Z</time>
      </trkpt>
      <trkpt lat="43.628" lon="1.30074">
        <ele>149.8</ele>
        <time>2025-10-18T09:35:17Z</time>
      </trkpt>
      <trkpt lat="43.62798" lon="1.30081">
        <ele>149.8</ele>
        <time>2025-10-18T09:35:18Z</time>
      </trkpt>
      <trkpt lat="43.62795" lon="1.30088">
        <ele>149.6</ele>
        <time>2025-10-18T09:35:19Z</time>
      </trkpt>
      <trkpt lat="43.62792" lon="1.30096">
        <ele>149.6</ele>
        <time>2025-10-18T09:35:20Z</time>
      </trkpt>
      <trkpt lat="43.6279" lon="1.30103">
        <ele>149.4</ele>
        <time>2025-10-18T09:35:21Z</time>
      </trkpt>
      <trkpt lat="43.62788" lon="1.3011">
        <ele>149.6</ele>
        <time>2025-10-18T09:35:22Z</time>
      </trkpt>
      <trkpt lat="43.62785" lon="1.30117">
        <ele>149.4</ele>
        <time>2025-10-18T09:35:23Z</time>
      </trkpt>
      <trkpt lat="43.62783" lon="1.30124">
        <ele>149.4</ele>
        <time>2025-10-18T09:35:24Z</time>
      </trkpt>
      <trkpt lat="43.62781" lon="1.30129">
        <ele>149.6</ele>
        <time>2025-10-18T09:35:25Z</time>
      </trkpt>
      <trkpt lat="43.62779" lon="1.30134">
        <ele>149.8</ele>
        <time>2025-10-18T09:35:26Z</time>
      </trkpt>
      <trkpt lat="43.62777" lon="1.30139">
        <ele>149.8</ele>
        <time>2025-10-18T09:35:27Z</time>
      </trkpt>
      <trkpt lat="43.62774" lon="1.30143">
        <ele>150</ele>
        <time>2025-10-18T09:35:28Z</time>
      </trkpt>
      <trkpt lat="43.62771" lon="1.30146">
        <ele>150</ele>
        <time>2025-10-18T09:35:29Z</time>
      </trkpt>
      <trkpt lat="43.62768" lon="1.30149">
        <ele>150.2</ele>
        <time>2025-10-18T09:35:30Z</time>
      </trkpt>
      <trkpt lat="43.62767" lon="1.30153">
        <ele>150.4</ele>
        <time>2025-10-18T09:35:31Z</time>
      </trkpt>
      <trkpt lat="43.62765" lon="1.30157">
        <ele>150.4</ele>
        <time>2025-10-18T09:35:32Z</time>
      </trkpt>
      <trkpt lat="43.62764" lon="1.30161">
        <ele>150.8</ele>
        <time>2025-10-18T09:35:33Z</time>
      </trkpt>
      <trkpt lat="43.62763" lon="1.30163">
        <ele>151.2</ele>
        <time>2025-10-18T09:35:34Z</time>
      </trkpt>
      <trkpt lat="43.62761" lon="1.30165">
        <ele>151.6</ele>
        <time>2025-10-18T09:35:35Z</time>
      </trkpt>
      <trkpt lat="43.62759" lon="1.30167">
        <ele>152</ele>
        <time>2025-10-18T09:35:36Z</time>
      </trkpt>
      <trkpt lat="43.62757" lon="1.3017">
        <ele>152.6</ele>
        <time>2025-10-18T09:35:37Z</time>
      </trkpt>
      <trkpt lat="43.62755" lon="1.30174">
        <ele>152.8</ele>
        <time>2025-10-18T09:35:38Z</time>
      </trkpt>
      <trkpt lat="43.62752" lon="1.30177">
        <ele>152.8</ele>
        <time>2025-10-18T09:35:39Z</time>
      </trkpt>
      <trkpt lat="43.62749" lon="1.30182">
        <ele>152.8</ele>
        <time>2025-10-18T09:35:40Z</time>
      </trkpt>
      <trkpt lat="43.62746" lon="1.30188">
        <ele>152.4</ele>
        <time>2025-10-18T09:35:41Z</time>
      </trkpt>
      <trkpt lat="43.62743" lon="1.30195">
        <ele>151.8</ele>
        <time>2025-10-18T09:35:42Z</time>
      </trkpt>
      <trkpt lat="43.62739" lon="1.30202">
        <ele>151.2</ele>
        <time>2025-10-18T09:35:43Z</time>
      </trkpt>
      <trkpt lat="43.62736" lon="1.30207">
        <ele>151</ele>
        <time>2025-10-18T09:35:44Z</time>
      </trkpt>
      <trkpt lat="43.62733" lon="1.30213">
        <ele>150.6</ele>
        <time>2025-10-18T09:35:45Z</time>
      </trkpt>
      <trkpt lat="43.6273" lon="1.30219">
        <ele>150.8</ele>
        <time>2025-10-18T09:35:46Z</time>
      </trkpt>
      <trkpt lat="43.62726" lon="1.30224">
        <ele>150.8</ele>
        <time>2025-10-18T09:35:47Z</time>
      </trkpt>
      <trkpt lat="43.62722" lon="1.30229">
        <ele>151</ele>
        <time>2025-10-18T09:35:48Z</time>
      </trkpt>
      <trkpt lat="43.62719" lon="1.30234">
        <ele>151.2</ele>
        <time>2025-10-18T09:35:49Z</time>
      </trkpt>
      <trkpt lat="43.62716" lon="1.30238">
        <ele>151.6</ele>
        <time>2025-10-18T09:35:50Z</time>
      </trkpt>
      <trkpt lat="43.62713" lon="1.30242">
        <ele>151.8</ele>
        <time>2025-10-18T09:35:51Z</time>
      </trkpt>
      <trkpt lat="43.6271" lon="1.30246">
        <ele>152.2</ele>
        <time>2025-10-18T09:35:52Z</time>
      </trkpt>
      <trkpt lat="43.62708" lon="1.30249">
        <ele>152.8</ele>
        <time>2025-10-18T09:35:53Z</time>
      </trkpt>
      <trkpt lat="43.62706" lon="1.30252">
        <ele>153.2</ele>
        <time>2025-10-18T09:35:54Z</time>
      </trkpt>
      <trkpt lat="43.62704" lon="1.30255">
        <ele>153.6</ele>
        <time>2025-10-18T09:35:55Z</time>
      </trkpt>
      <trkpt lat="43.62702" lon="1.30257">
        <ele>154</ele>
        <time>2025-10-18T09:35:56Z</time>
      </trkpt>
      <trkpt lat="43.627" lon="1.3026">
        <ele>154.4</ele>
        <time>2025-10-18T09:35:57Z</time>
      </trkpt>
      <trkpt lat="43.62697" lon="1.30264">
        <ele>154.6</ele>
        <time>2025-10-18T09:35:58Z</time>
      </trkpt>
      <trkpt lat="43.62694" lon="1.30269">
        <ele>154.8</ele>
        <time>2025-10-18T09:35:59Z</time>
      </trkpt>
      <trkpt lat="43.62691" lon="1.30273">
        <ele>155</ele>
        <time>2025-10-18T09:36:00Z</time>
      </trkpt>
      <trkpt lat="43.62687" lon="1.30277">
        <ele>155</ele>
        <time>2025-10-18T09:36:01Z</time>
      </trkpt>
      <trkpt lat="43.62684" lon="1.30281">
        <ele>155</ele>
        <time>2025-10-18T09:36:02Z</time>
      </trkpt>
      <trkpt lat="43.62681" lon="1.30284">
        <ele>155.2</ele>
        <time>2025-10-18T09:36:03Z</time>
      </trkpt>
      <trkpt lat="43.62678" lon="1.30288">
        <ele>155.4</ele>
        <time>2025-10-18T09:36:04Z</time>
      </trkpt>
      <trkpt lat="43.62675" lon="1.30291">
        <ele>155.8</ele>
        <time>2025-10-18T09:36:05Z</time>
      </trkpt>
      <trkpt lat="43.62672" lon="1.30294">
        <ele>156</ele>
        <time>2025-10-18T09:36:06Z</time>
      </trkpt>
      <trkpt lat="43.6267" lon="1.30297">
        <ele>156.2</ele>
        <time>2025-10-18T09:36:07Z</time>
      </trkpt>
      <trkpt lat="43.62668" lon="1.303">
        <ele>156.4</ele>
        <time>2025-10-18T09:36:08Z</time>
      </trkpt>
      <trkpt lat="43.62665" lon="1.30303">
        <ele>156.6</ele>
        <time>2025-10-18T09:36:09Z</time>
      </trkpt>
      <trkpt lat="43.62663" lon="1.30306">
        <ele>157</ele>
        <time>2025-10-18T09:36:10Z</time>
      </trkpt>
      <trkpt lat="43.6266" lon="1.30308">
        <ele>157.2</ele>
        <time>2025-10-18T09:36:11Z</time>
      </trkpt>
      <trkpt lat="43.62658" lon="1.30311">
        <ele>157.4</ele>
        <time>2025-10-18T09:36:12Z</time>
      </trkpt>
      <trkpt lat="43.62656" lon="1.30314">
        <ele>157.8</ele>
        <time>2025-10-18T09:36:13Z</time>
      </trkpt>
      <trkpt lat="43.62655" lon="1.30316">
        <ele>158</ele>
        <time>2025-10-18T09:36:14Z</time>
      </trkpt>
      <trkpt lat="43.62654" lon="1.30319">
        <ele>158.4</ele>
        <time>2025-10-18T09:36:15Z</time>
      </trkpt>
      <trkpt lat="43.62654" lon="1.30322">
        <ele>158.8</ele>
        <time>2025-10-18T09:36:16Z</time>
      </trkpt>
      <trkpt lat="43.62654" lon="1.30326">
        <ele>159</ele>
        <time>2025-10-18T09:36:17Z</time>
      </trkpt>
      <trkpt lat="43.62653" lon="1.30329">
        <ele>159.4</ele>
        <time>2025-10-18T09:36:18Z</time>
      </trkpt>
      <trkpt lat="43.62653" lon="1.30332">
        <ele>159.8</ele>
        <time>2025-10-18T09:36:19Z</time>
      </trkpt>
      <trkpt lat="43.62654" lon="1.30334">
        <ele>160</ele>
        <time>2025-10-18T09:36:20Z</time>
      </trkpt>
      <trkpt lat="43.62654" lon="1.30338">
        <ele>160.4</ele>
        <time>2025-10-18T09:36:21Z</time>
      </trkpt>
      <trkpt lat="43.62654" lon="1.30342">
        <ele>160.8</ele>
        <time>2025-10-18T09:36:22Z</time>
      </trkpt>
      <trkpt lat="43.62653" lon="1.30344">
        <ele>161</ele>
        <time>2025-10-18T09:36:23Z</time>
      </trkpt>
      <trkpt lat="43.62652" lon="1.30347">
        <ele>161.2</ele>
        <time>2025-10-18T09:36:24Z</time>
      </trkpt>
      <trkpt lat="43.62652" lon="1.3035">
        <ele>161.4</ele>
        <time>2025-10-18T09:36:25Z</time>
      </trkpt>
      <trkpt lat="43.62653" lon="1.30352">
        <ele>161.8</ele>
        <time>2025-10-18T09:36:26Z</time>
      </trkpt>
      <trkpt lat="43.62653" lon="1.30355">
        <ele>162.2</ele>
        <time>2025-10-18T09:36:27Z</time>
      </trkpt>
      <trkpt lat="43.62653" lon="1.30358">
        <ele>162.4</ele>
        <time>2025-10-18T09:36:28Z</time>
      </trkpt>
      <trkpt lat="43.62654" lon="1.3036">
        <ele>162.8</ele>
        <time>2025-10-18T09:36:29Z</time>
      </trkpt>
      <trkpt lat="43.62653" lon="1.30362">
        <ele>163.2</ele>
        <time>2025-10-18T09:36:30Z</time>
      </trkpt>
      <trkpt lat="43.62653" lon="1.30364">
        <ele>163.4</ele>
        <time>2025-10-18T09:36:31Z</time>
      </trkpt>
      <trkpt lat="43.62653" lon="1.30366">
        <ele>163.8</ele>
        <time>2025-10-18T09:36:32Z</time>
      </trkpt>
      <trkpt lat="43.62653" lon="1.30368">
        <ele>164.2</ele>
        <time>2025-10-18T09:36:33Z</time>
      </trkpt>
      <trkpt lat="43.62652" lon="1.30371">
        <ele>164.4</ele>
        <time>2025-10-18T09:36:34Z</time>
      </trkpt>
      <trkpt lat="43.62652" lon="1.30374">
        <ele>164.6</ele>
        <time>2025-10-18T09:36:35Z</time>
      </trkpt>
      <trkpt lat="43.62652" lon="1.30377">
        <ele>165</ele>
        <time>2025-10-18T09:36:36Z</time>
      </trkpt>
      <trkpt lat="43.62652" lon="1.30379">
        <ele>165.2</ele>
        <time>2025-10-18T09:36:37Z</time>
      </trkpt>
      <trkpt lat="43.62652" lon="1.30381">
        <ele>165.6</ele>
        <time>2025-10-18T09:36:38Z</time>
      </trkpt>
      <trkpt lat="43.62651" lon="1.30384">
        <ele>166</ele>
        <time>2025-10-18T09:36:39Z</time>
      </trkpt>
      <trkpt lat="43.62651" lon="1.30386">
        <ele>166.4</ele>
        <time>2025-10-18T09:36:40Z</time>
      </trkpt>
      <trkpt lat="43.62651" lon="1.30388">
        <ele>166.6</ele>
        <time>2025-10-18T09:36:41Z</time>
      </trkpt>
      <trkpt lat="43.62651" lon="1.30391">
        <ele>167</ele>
        <time>2025-10-18T09:36:42Z</time>
      </trkpt>
      <trkpt lat="43.62651" lon="1.30394">
        <ele>167.4</ele>
        <time>2025-10-18T09:36:43Z</time>
      </trkpt>
      <trkpt lat="43.6265" lon="1.30396">
        <ele>167.8</ele>
        <time>2025-10-18T09:36:44Z</time>
      </trkpt>
      <trkpt lat="43.62649" lon="1.30398">
        <ele>168.2</ele>
        <time>2025-10-18T09:36:45Z</time>
      </trkpt>
      <trkpt lat="43.62648" lon="1.30399">
        <ele>168.4</ele>
        <time>2025-10-18T09:36:46Z</time>
      </trkpt>
      <trkpt lat="43.62647" lon="1.30402">
        <ele>168.8</ele>
        <time>2025-10-18T09:36:47Z</time>
      </trkpt>
      <trkpt lat="43.62646" lon="1.30404">
        <ele>169.2</ele>
        <time>2025-10-18T09:36:48Z</time>
      </trkpt>
      <trkpt lat="43.62646" lon="1.30407">
        <ele>169.8</ele>
        <time>2025-10-18T09:36:49Z</time>
      </trkpt>
      <trkpt lat="43.62646" lon="1.30409">
        <ele>170</ele>
        <time>2025-10-18T09:36:50Z</time>
      </trkpt>
      <trkpt lat="43.62646" lon="1.30412">
        <ele>170.6</ele>
        <time>2025-10-18T09:36:51Z</time>
      </trkpt>
      <trkpt lat="43.62647" lon="1.30414">
        <ele>171</ele>
        <time>2025-10-18T09:36:52Z</time>
      </trkpt>
      <trkpt lat="43.62647" lon="1.30416">
        <ele>171.2</ele>
        <time>2025-10-18T09:36:53Z</time>
      </trkpt>
      <trkpt lat="43.62647" lon="1.30418">
        <ele>171.6</ele>
        <time>2025-10-18T09:36:54Z</time>
      </trkpt>
      <trkpt lat="43.62647" lon="1.30421">
        <ele>172</ele>
        <time>2025-10-18T09:36:55Z</time>
      </trkpt>
      <trkpt lat="43.62646" lon="1.30423">
        <ele>172.2</ele>
        <time>2025-10-18T09:36:56Z</time>
      </trkpt>
      <trkpt lat="43.62646" lon="1.30426">
        <ele>172.4</ele>
        <time>2025-10-18T09:36:57Z</time>
      </trkpt>
      <trkpt lat="43.62646" lon="1.30428">
        <ele>172.8</ele>
        <time>2025-10-18T09:36:58Z</time>
      </trkpt>
      <trkpt lat="43.62645" lon="1.30431">
        <ele>173</ele>
        <time>2025-10-18T09:36:59Z</time>
      </trkpt>
      <trkpt lat="43.62644" lon="1.30433">
        <ele>173.4</ele>
        <time>2025-10-18T09:37:00Z</time>
      </trkpt>
      <trkpt lat="43.62644" lon="1.30436">
        <ele>173.8</ele>
        <time>2025-10-18T09:37:01Z</time>
      </trkpt>
      <trkpt lat="43.62643" lon="1.30438">
        <ele>174</ele>
        <time>2025-10-18T09:37:02Z</time>
      </trkpt>
      <trkpt lat="43.62643" lon="1.3044">
        <ele>174.2</ele>
        <time>2025-10-18T09:37:03Z</time>
      </trkpt>
      <trkpt lat="43.62642" lon="1.30443">
        <ele>174.6</ele>
        <time>2025-10-18T09:37:04Z</time>
      </trkpt>
      <trkpt lat="43.62642" lon="1.30445">
        <ele>174.8</ele>
        <time>2025-10-18T09:37:05Z</time>
      </trkpt>
      <trkpt lat="43.62641" lon="1.30448">
        <ele>175.2</ele>
        <time>2025-10-18T09:37:06Z</time>
      </trkpt>
      <trkpt lat="43.62641" lon="1.30451">
        <ele>175.4</ele>
        <time>2025-10-18T09:37:07Z</time>
      </trkpt>
      <trkpt lat="43.6264" lon="1.30453">
        <ele>175.6</ele>
        <time>2025-10-18T09:37:08Z</time>
      </trkpt>
      <trkpt lat="43.6264" lon="1.30456">
        <ele>175.8</ele>
        <time>2025-10-18T09:37:09Z</time>
      </trkpt>
      <trkpt lat="43.6264" lon="1.30459">
        <ele>175.8</ele>
        <time>2025-10-18T09:37:10Z</time>
      </trkpt>
      <trkpt lat="43.62639" lon="1.30462">
        <ele>176</ele>
        <time>2025-10-18T09:37:11Z</time>
      </trkpt>
      <trkpt lat="43.62639" lon="1.30466">
        <ele>176.4</ele>
        <time>2025-10-18T09:37:12Z</time>
      </trkpt>
      <trkpt lat="43.62639" lon="1.30469">
        <ele>176.6</ele>
        <time>2025-10-18T09:37:13Z</time>
      </trkpt>
      <trkpt lat="43.6264" lon="1.30472">
        <ele>176.6</ele>
        <time>2025-10-18T09:37:14Z</time>
      </trkpt>
      <trkpt lat="43.6264" lon="1.30474">
        <ele>176.8</ele>
        <time>2025-10-18T09:37:15Z</time>
      </trkpt>
      <trkpt lat="43.6264" lon="1.30477">
        <ele>176.8</ele>
        <time>2025-10-18T09:37:16Z</time>
      </trkpt>
      <trkpt lat="43.62641" lon="1.3048">
        <ele>177</ele>
        <time>2025-10-18T09:37:17Z</time>
      </trkpt>
      <trkpt lat="43.62642" lon="1.30483">
        <ele>177.2</ele>
        <time>2025-10-18T09:37:18Z</time>
      </trkpt>
      <trkpt lat="43.62643" lon="1.30484">
        <ele>177.2</ele>
        <time>2025-10-18T09:37:19Z</time>
      </trkpt>
      <trkpt lat="43.62644" lon="1.30486">
        <ele>177.4</ele>
        <time>2025-10-18T09:37:20Z</time>
      </trkpt>
      <trkpt lat="43.62644" lon="1.30488">
        <ele>177.4</ele>
        <time>2025-10-18T09:37:21Z</time>
      </trkpt>
      <trkpt lat="43.62645" lon="1.3049">
        <ele>177.4</ele>
        <time>2025-10-18T09:37:22Z</time>
      </trkpt>
      <trkpt lat="43.62646" lon="1.30493">
        <ele>177.4</ele>
        <time>2025-10-18T09:37:23Z</time>
      </trkpt>
      <trkpt lat="43.62647" lon="1.30496">
        <ele>177.4</ele>
        <time>2025-10-18T09:37:24Z</time>
      </trkpt>
      <trkpt lat="43.62647" lon="1.30498">
        <ele>177.4</ele>
        <time>2025-10-18T09:37:25Z</time>
      </trkpt>
      <trkpt lat="43.62648" lon="1.305">
        <ele>177.2</ele>
        <time>2025-10-18T09:37:26Z</time>
      </trkpt>
      <trkpt lat="43.62648" lon="1.30501">
        <ele>177.2</ele>
        <time>2025-10-18T09:37:27Z</time>
      </trkpt>
      <trkpt lat="43.62648" lon="1.30501">
        <ele>177.2</ele>
        <time>2025-10-18T09:37:28Z</time>
      </trkpt>
      <trkpt lat="43.62648" lon="1.30501">
        <ele>177.2</ele>
        <time>2025-10-18T09:37:29Z</time>
      </trkpt>
      <trkpt lat="43.6265" lon="1.30507">
        <ele>176.8</ele>
        <time>2025-10-18T09:37:59Z</time>
      </trkpt>
      <trkpt lat="43.62651" lon="1.3051">
        <ele>176.8</ele>
        <time>2025-10-18T09:38:00Z</time>
      </trkpt>
      <trkpt lat="43.62652" lon="1.30514">
        <ele>176.8</ele>
        <time>2025-10-18T09:38:01Z</time>
      </trkpt>
      <trkpt lat="43.62653" lon="1.30516">
        <ele>176.8</ele>
        <time>2025-10-18T09:38:02Z</time>
      </trkpt>
      <trkpt lat="43.62654" lon="1.30519">
        <ele>176.6</ele>
        <time>2025-10-18T09:38:03Z</time>
      </trkpt>
      <trkpt lat="43.62655" lon="1.3052">
        <ele>176.4</ele>
        <time>2025-10-18T09:38:04Z</time>
      </trkpt>
      <trkpt lat="43.62656" lon="1.30523">
        <ele>176.4</ele>
        <time>2025-10-18T09:38:05Z</time>
      </trkpt>
      <trkpt lat="43.62657" lon="1.30525">
        <ele>176.2</ele>
        <time>2025-10-18T09:38:06Z</time>
      </trkpt>
      <trkpt lat="43.62657" lon="1.30528">
        <ele>176</ele>
        <time>2025-10-18T09:38:07Z</time>
      </trkpt>
      <trkpt lat="43.62658" lon="1.30531">
        <ele>175.8</ele>
        <time>2025-10-18T09:38:08Z</time>
      </trkpt>
      <trkpt lat="43.6266" lon="1.30535">
        <ele>175.6</ele>
        <time>2025-10-18T09:38:09Z</time>
      </trkpt>
      <trkpt lat="43.62661" lon="1.30539">
        <ele>175.2</ele>
        <time>2025-10-18T09:38:10Z</time>
      </trkpt>
      <trkpt lat="43.62663" lon="1.30545">
        <ele>175</ele>
        <time>2025-10-18T09:38:11Z</time>
      </trkpt>
      <trkpt lat="43.62665" lon="1.30551">
        <ele>174.8</ele>
        <time>2025-10-18T09:38:12Z</time>
      </trkpt>
      <trkpt lat="43.62667" lon="1.30558">
        <ele>174.2</ele>
        <time>2025-10-18T09:38:13Z</time>
      </trkpt>
      <trkpt lat="43.62669" lon="1.30566">
        <ele>173.2</ele>
        <time>2025-10-18T09:38:14Z</time>
      </trkpt>
      <trkpt lat="43.62671" lon="1.30575">
        <ele>172.8</ele>
        <time>2025-10-18T09:38:15Z</time>
      </trkpt>
      <trkpt lat="43.62672" lon="1.30582">
        <ele>172.2</ele>
        <time>2025-10-18T09:38:16Z</time>
      </trkpt>
      <trkpt lat="43.62674" lon="1.30588">
        <ele>171.8</ele>
        <time>2025-10-18T09:38:17Z</time>
      </trkpt>
      <trkpt lat="43.62675" lon="1.30595">
        <ele>171.8</ele>
        <time>2025-10-18T09:38:18Z</time>
      </trkpt>
      <trkpt lat="43.62676" lon="1.30601">
        <ele>171.8</ele>
        <time>2025-10-18T09:38:19Z</time>
      </trkpt>
      <trkpt lat="43.62677" lon="1.30606">
        <ele>172</ele>
        <time>2025-10-18T09:38:20Z</time>
      </trkpt>
      <trkpt lat="43.62679" lon="1.30613">
        <ele>172.4</ele>
        <time>2025-10-18T09:38:21Z</time>
      </trkpt>
      <trkpt lat="43.6268" lon="1.30619">
        <ele>172.6</ele>
        <time>2025-10-18T09:38:22Z</time>
      </trkpt>
      <trkpt lat="43.62681" lon="1.30626">
        <ele>172.8</ele>
        <time>2025-10-18T09:38:23Z</time>
      </trkpt>
      <trkpt lat="43.62681" lon="1.30632">
        <ele>173</ele>
        <time>2025-10-18T09:38:24Z</time>
      </trkpt>
      <trkpt lat="43.62682" lon="1.30639">
        <ele>173.2</ele>
        <time>2025-10-18T09:38:25Z</time>
      </trkpt>
      <trkpt lat="43.62683" lon="1.30645">
        <ele>173.6</ele>
        <time>2025-10-18T09:38:26Z</time>
      </trkpt>
      <trkpt lat="43.62684" lon="1.30651">
        <ele>174</ele>
        <time>2025-10-18T09:38:27Z</time>
      </trkpt>
      <trkpt lat="43.62684" lon="1.30657">
        <ele>174.4</ele>
        <time>2025-10-18T09:38:28Z</time>
      </trkpt>
      <trkpt lat="43.62683" lon="1.30662">
        <ele>175</ele>
        <time>2025-10-18T09:38:29Z</time>
      </trkpt>
      <trkpt lat="43.62683" lon="1.30668">
        <ele>175.4</ele>
        <time>2025-10-18T09:38:30Z</time>
      </trkpt>
      <trkpt lat="43.62683" lon="1.30673">
        <ele>176</ele>
        <time>2025-10-18T09:38:31Z</time>
      </trkpt>
      <trkpt lat="43.62683" lon="1.30679">
        <ele>176.6</ele>
        <time>2025-10-18T09:38:32Z</time>
      </trkpt>
      <trkpt lat="43.62682" lon="1.30685">
        <ele>177</ele>
        <time>2025-10-18T09:38:33Z</time>
      </trkpt>
      <trkpt lat="43.62681" lon="1.30688">
        <ele>177.6</ele>
        <time>2025-10-18T09:38:34Z</time>
      </trkpt>
      <trkpt lat="43.62681" lon="1.30693">
        <ele>178</ele>
        <time>2025-10-18T09:38:35Z</time>
      </trkpt>
      <trkpt lat="43.62679" lon="1.307">
        <ele>178.2</ele>
        <time>2025-10-18T09:38:36Z</time>
      </trkpt>
      <trkpt lat="43.62675" lon="1.30705">
        <ele>178.2</ele>
        <time>2025-10-18T09:38:37Z</time>
      </trkpt>
      <trkpt lat="43.6267" lon="1.30706">
        <ele>178.2</ele>
        <time>2025-10-18T09:38:38Z</time>
      </trkpt>
      <trkpt lat="43.62666" lon="1.30704">
        <ele>178</ele>
        <time>2025-10-18T09:38:39Z</time>
      </trkpt>
      <trkpt lat="43.62661" lon="1.30702">
        <ele>177.6</ele>
        <time>2025-10-18T09:38:40Z</time>
      </trkpt>
      <trkpt lat="43.62657" lon="1.30704">
        <ele>177.6</ele>
        <time>2025-10-18T09:38:41Z</time>
      </trkpt>
      <trkpt lat="43.62654" lon="1.30708">
        <ele>177.6</ele>
        <time>2025-10-18T09:38:42Z</time>
      </trkpt>
      <trkpt lat="43.62649" lon="1.3071">
        <ele>177.6</ele>
        <time>2025-10-18T09:38:43Z</time>
      </trkpt>
      <trkpt lat="43.62644" lon="1.30713">
        <ele>177.4</ele>
        <time>2025-10-18T09:38:44Z</time>
      </trkpt>
      <trkpt lat="43.6264" lon="1.30716">
        <ele>177.4</ele>
        <time>2025-10-18T09:38:45Z</time>
      </trkpt>
      <trkpt lat="43.62635" lon="1.30719">
        <ele>177.4</ele>
        <time>2025-10-18T09:38:46Z</time>
      </trkpt>
      <trkpt lat="43.6263" lon="1.30721">
        <ele>177.4</ele>
        <time>2025-10-18T09:38:47Z</time>
      </trkpt>
      <trkpt lat="43.62624" lon="1.30723">
        <ele>177.6</ele>
        <time>2025-10-18T09:38:48Z</time>
      </trkpt>
      <trkpt lat="43.6262" lon="1.30724">
        <ele>177.6</ele>
        <time>2025-10-18T09:38:49Z</time>
      </trkpt>
      <trkpt lat="43.62615" lon="1.30725">
        <ele>177.6</ele>
        <time>2025-10-18T09:38:50Z</time>
      </trkpt>
      <trkpt lat="43.6261" lon="1.30726">
        <ele>177.8</ele>
        <time>2025-10-18T09:38:51Z</time>
      </trkpt>
      <trkpt lat="43.62604" lon="1.30728">
        <ele>177.8</ele>
        <time>2025-10-18T09:38:52Z</time>
      </trkpt>
      <trkpt lat="43.62599" lon="1.30731">
        <ele>178</ele>
        <time>2025-10-18T09:38:53Z</time>
      </trkpt>
      <trkpt lat="43.62594" lon="1.30733">
        <ele>178</ele>
        <time>2025-10-18T09:38:54Z</time>
      </trkpt>
      <trkpt lat="43.62589" lon="1.30734">
        <ele>178</ele>
        <time>2025-10-18T09:38:55Z</time>
      </trkpt>
      <trkpt lat="43.62583" lon="1.30736">
        <ele>178.2</ele>
        <time>2025-10-18T09:38:56Z</time>
      </trkpt>
      <trkpt lat="43.62579" lon="1.3074">
        <ele>178.2</ele>
        <time>2025-10-18T09:38:57Z</time>
      </trkpt>
      <trkpt lat="43.62575" lon="1.30745">
        <ele>178.2</ele>
        <time>2025-10-18T09:38:58Z</time>
      </trkpt>
      <trkpt lat="43.6257" lon="1.30749">
        <ele>178.2</ele>
        <time>2025-10-18T09:38:59Z</time>
      </trkpt>
      <trkpt lat="43.62565" lon="1.30752">
        <ele>178.2</ele>
        <time>2025-10-18T09:39:00Z</time>
      </trkpt>
      <trkpt lat="43.6256" lon="1.30756">
        <ele>178.4</ele>
        <time>2025-10-18T09:39:01Z</time>
      </trkpt>
      <trkpt lat="43.62555" lon="1.30759">
        <ele>178.4</ele>
        <time>2025-10-18T09:39:02Z</time>
      </trkpt>
      <trkpt lat="43.6255" lon="1.30761">
        <ele>178.2</ele>
        <time>2025-10-18T09:39:03Z</time>
      </trkpt>
      <trkpt lat="43.62544" lon="1.30763">
        <ele>178.2</ele>
        <time>2025-10-18T09:39:04Z</time>
      </trkpt>
      <trkpt lat="43.62538" lon="1.30765">
        <ele>178.2</ele>
        <time>2025-10-18T09:39:05Z</time>
      </trkpt>
      <trkpt lat="43.62535" lon="1.30769">
        <ele>178.2</ele>
        <time>2025-10-18T09:39:06Z</time>
      </trkpt>
      <trkpt lat="43.62534" lon="1.30776">
        <ele>178.2</ele>
        <time>2025-10-18T09:39:07Z</time>
      </trkpt>
      <trkpt lat="43.62534" lon="1.3078">
        <ele>178.4</ele>
        <time>2025-10-18T09:39:08Z</time>
      </trkpt>
      <trkpt lat="43.62534" lon="1.30786">
        <ele>178.6</ele>
        <time>2025-10-18T09:39:09Z</time>
      </trkpt>
      <trkpt lat="43.62537" lon="1.30793">
        <ele>178.8</ele>
        <time>2025-10-18T09:39:10Z</time>
      </trkpt>
      <trkpt lat="43.6254" lon="1.30798">
        <ele>178.8</ele>
        <time>2025-10-18T09:39:11Z</time>
      </trkpt>
      <trkpt lat="43.62544" lon="1.30803">
        <ele>178.6</ele>
        <time>2025-10-18T09:39:12Z</time>
      </trkpt>
      <trkpt lat="43.62548" lon="1.30809">
        <ele>178.4</ele>
        <time>2025-10-18T09:39:13Z</time>
      </trkpt>
      <trkpt lat="43.62552" lon="1.30816">
        <ele>178.2</ele>
        <time>2025-10-18T09:39:14Z</time>
      </trkpt>
      <trkpt lat="43.62555" lon="1.30823">
        <ele>178</ele>
        <time>2025-10-18T09:39:15Z</time>
      </trkpt>
      <trkpt lat="43.62557" lon="1.30831">
        <ele>177.8</ele>
        <time>2025-10-18T09:39:16Z</time>
      </trkpt>
      <trkpt lat="43.62557" lon="1.3084">
        <ele>177.8</ele>
        <time>2025-10-18T09:39:17Z</time>
      </trkpt>
      <trkpt lat="43.62558" lon="1.30848">
        <ele>177.8</ele>
        <time>2025-10-18T09:39:18Z</time>
      </trkpt>
      <trkpt lat="43.62557" lon="1.30856">
        <ele>177.8</ele>
        <time>2025-10-18T09:39:19Z</time>
      </trkpt>
      <trkpt lat="43.62555" lon="1.30864">
        <ele>177.6</ele>
        <time>2025-10-18T09:39:20Z</time>
      </trkpt>
      <trkpt lat="43.62552" lon="1.30871">
        <ele>177.4</ele>
        <time>2025-10-18T09:39:21Z</time>
      </trkpt>
      <trkpt lat="43.62549" lon="1.30879">
        <ele>177.4</ele>
        <time>2025-10-18T09:39:22Z</time>
      </trkpt>
      <trkpt lat="43.62545" lon="1.30885">
        <ele>177.2</ele>
        <time>2025-10-18T09:39:23Z</time>
      </trkpt>
      <trkpt lat="43.6254" lon="1.30888">
        <ele>177.2</ele>
        <time>2025-10-18T09:39:24Z</time>
      </trkpt>
      <trkpt lat="43.62534" lon="1.30888">
        <ele>177</ele>
        <time>2025-10-18T09:39:25Z</time>
      </trkpt>
      <trkpt lat="43.62529" lon="1.30887">
        <ele>177</ele>
        <time>2025-10-18T09:39:26Z</time>
      </trkpt>
      <trkpt lat="43.62523" lon="1.30885">
        <ele>177</ele>
        <time>2025-10-18T09:39:27Z</time>
      </trkpt>
      <trkpt lat="43.62517" lon="1.30884">
        <ele>177</ele>
        <time>2025-10-18T09:39:28Z</time>
      </trkpt>
      <trkpt lat="43.62511" lon="1.30883">
        <ele>176.8</ele>
        <time>2025-10-18T09:39:29Z</time>
      </trkpt>
      <trkpt lat="43.62505" lon="1.30883">
        <ele>176.8</ele>
        <time>2025-10-18T09:39:30Z</time>
      </trkpt>
      <trkpt lat="43.62499" lon="1.30881">
        <ele>176.8</ele>
        <time>2025-10-18T09:39:31Z</time>
      </trkpt>
      <trkpt lat="43.62493" lon="1.3088">
        <ele>176.8</ele>
        <time>2025-10-18T09:39:32Z</time>
      </trkpt>
      <trkpt lat="43.62487" lon="1.30879">
        <ele>177</ele>
        <time>2025-10-18T09:39:33Z</time>
      </trkpt>
      <trkpt lat="43.62481" lon="1.30879">
        <ele>177</ele>
        <time>2025-10-18T09:39:34Z</time>
      </trkpt>
      <trkpt lat="43.62474" lon="1.30879">
        <ele>177.2</ele>
        <time>2025-10-18T09:39:35Z</time>
      </trkpt>
      <trkpt lat="43.62468" lon="1.3088">
        <ele>177.2</ele>
        <time>2025-10-18T09:39:36Z</time>
      </trkpt>
      <trkpt lat="43.62462" lon="1.30882">
        <ele>177.2</ele>
        <time>2025-10-18T09:39:37Z</time>
      </trkpt>
      <trkpt lat="43.62455" lon="1.30883">
        <ele>177.2</ele>
        <time>2025-10-18T09:39:38Z</time>
      </trkpt>
      <trkpt lat="43.62449" lon="1.30885">
        <ele>177.2</ele>
        <time>2025-10-18T09:39:39Z</time>
      </trkpt>
      <trkpt lat="43.62442" lon="1.30887">
        <ele>177.2</ele>
        <time>2025-10-18T09:39:40Z</time>
      </trkpt>
      <trkpt lat="43.62436" lon="1.30888">
        <ele>177.2</ele>
        <time>2025-10-18T09:39:41Z</time>
      </trkpt>
      <trkpt lat="43.62429" lon="1.3089">
        <ele>177.4</ele>
        <time>2025-10-18T09:39:42Z</time>
      </trkpt>
      <trkpt lat="43.62423" lon="1.30892">
        <ele>177.4</ele>
        <time>2025-10-18T09:39:43Z</time>
      </trkpt>
      <trkpt lat="43.62417" lon="1.30893">
        <ele>177.4</ele>
        <time>2025-10-18T09:39:44Z</time>
      </trkpt>
      <trkpt lat="43.6241" lon="1.30894">
        <ele>177.4</ele>
        <time>2025-10-18T09:39:45Z</time>
      </trkpt>
      <trkpt lat="43.62404" lon="1.30896">
        <ele>177.4</ele>
        <time>2025-10-18T09:39:46Z</time>
      </trkpt>
      <trkpt lat="43.62397" lon="1.30896">
        <ele>177.4</ele>
        <time>2025-10-18T09:39:47Z</time>
      </trkpt>
      <trkpt lat="43.6239" lon="1.30897">
        <ele>177.4</ele>
        <time>2025-10-18T09:39:48Z</time>
      </trkpt>
      <trkpt lat="43.62384" lon="1.30898">
        <ele>177.4</ele>
        <time>2025-10-18T09:39:49Z</time>
      </trkpt>
      <trkpt lat="43.62378" lon="1.30899">
        <ele>177.8</ele>
        <time>2025-10-18T09:39:50Z</time>
      </trkpt>
      <trkpt lat="43.62371" lon="1.309">
        <ele>178.2</ele>
        <time>2025-10-18T09:39:51Z</time>
      </trkpt>
      <trkpt lat="43.62365" lon="1.30901">
        <ele>178.4</ele>
        <time>2025-10-18T09:39:52Z</time>
      </trkpt>
      <trkpt lat="43.62358" lon="1.30902">
        <ele>178.6</ele>
        <time>2025-10-18T09:39:53Z</time>
      </trkpt>
      <trkpt lat="43.62351" lon="1.30904">
        <ele>178.6</ele>
        <time>2025-10-18T09:39:54Z</time>
      </trkpt>
      <trkpt lat="43.62344" lon="1.30905">
        <ele>178.6</ele>
        <time>2025-10-18T09:39:55Z</time>
      </trkpt>
      <trkpt lat="43.62338" lon="1.30907">
        <ele>178.6</ele>
        <time>2025-10-18T09:39:56Z</time>
      </trkpt>
      <trkpt lat="43.62332" lon="1.30909">
        <ele>178.6</ele>
        <time>2025-10-18T09:39:57Z</time>
      </trkpt>
      <trkpt lat="43.62325" lon="1.30912">
        <ele>178.6</ele>
        <time>2025-10-18T09:39:58Z</time>
      </trkpt>
      <trkpt lat="43.62319" lon="1.30914">
        <ele>178.6</ele>
        <time>2025-10-18T09:39:59Z</time>
      </trkpt>
      <trkpt lat="43.62313" lon="1.30917">
        <ele>178.6</ele>
        <time>2025-10-18T09:40:00Z</time>
      </trkpt>
      <trkpt lat="43.62307" lon="1.30921">
        <ele>178.4</ele>
        <time>2025-10-18T09:40:01Z</time>
      </trkpt>
      <trkpt lat="43.62301" lon="1.30925">
        <ele>178.2</ele>
        <time>2025-10-18T09:40:02Z</time>
      </trkpt>
      <trkpt lat="43.62296" lon="1.30929">
        <ele>178.2</ele>
        <time>2025-10-18T09:40:03Z</time>
      </trkpt>
      <trkpt lat="43.62289" lon="1.30933">
        <ele>178.2</ele>
        <time>2025-10-18T09:40:04Z</time>
      </trkpt>
      <trkpt lat="43.62283" lon="1.30936">
        <ele>178.2</ele>
        <time>2025-10-18T09:40:05Z</time>
      </trkpt>
      <trkpt lat="43.62277" lon="1.3094">
        <ele>178.2</ele>
        <time>2025-10-18T09:40:06Z</time>
      </trkpt>
      <trkpt lat="43.62271" lon="1.30943">
        <ele>178.4</ele>
        <time>2025-10-18T09:40:07Z</time>
      </trkpt>
      <trkpt lat="43.62264" lon="1.30946">
        <ele>178.2</ele>
        <time>2025-10-18T09:40:08Z</time>
      </trkpt>
      <trkpt lat="43.62258" lon="1.3095">
        <ele>178.2</ele>
        <time>2025-10-18T09:40:09Z</time>
      </trkpt>
      <trkpt lat="43.62252" lon="1.30953">
        <ele>178.2</ele>
        <time>2025-10-18T09:40:10Z</time>
      </trkpt>
      <trkpt lat="43.62246" lon="1.30958">
        <ele>178.2</ele>
        <time>2025-10-18T09:40:11Z</time>
      </trkpt>
      <trkpt lat="43.6224" lon="1.30962">
        <ele>178.2</ele>
        <time>2025-10-18T09:40:12Z</time>
      </trkpt>
      <trkpt lat="43.62234" lon="1.30968">
        <ele>178.2</ele>
        <time>2025-10-18T09:40:13Z</time>
      </trkpt>
      <trkpt lat="43.62228" lon="1.30973">
        <ele>178.4</ele>
        <time>2025-10-18T09:40:14Z</time>
      </trkpt>
      <trkpt lat="43.62223" lon="1.30978">
        <ele>178.4</ele>
        <time>2025-10-18T09:40:15Z</time>
      </trkpt>
      <trkpt lat="43.62217" lon="1.30984">
        <ele>178.2</ele>
        <time>2025-10-18T09:40:16Z</time>
      </trkpt>
      <trkpt lat="43.62212" lon="1.3099">
        <ele>178.2</ele>
        <time>2025-10-18T09:40:17Z</time>
      </trkpt>
      <trkpt lat="43.62208" lon="1.30997">
        <ele>178.2</ele>
        <time>2025-10-18T09:40:18Z</time>
      </trkpt>
      <trkpt lat="43.62204" lon="1.31005">
        <ele>178</ele>
        <time>2025-10-18T09:40:19Z</time>
      </trkpt>
      <trkpt lat="43.62202" lon="1.31013">
        <ele>177.8</ele>
        <time>2025-10-18T09:40:20Z</time>
      </trkpt>
      <trkpt lat="43.622" lon="1.31022">
        <ele>177.6</ele>
        <time>2025-10-18T09:40:21Z</time>
      </trkpt>
      <trkpt lat="43.62198" lon="1.3103">
        <ele>177.6</ele>
        <time>2025-10-18T09:40:22Z</time>
      </trkpt>
      <trkpt lat="43.62197" lon="1.31039">
        <ele>177.2</ele>
        <time>2025-10-18T09:40:23Z</time>
      </trkpt>
      <trkpt lat="43.62194" lon="1.31048">
        <ele>176.8</ele>
        <time>2025-10-18T09:40:24Z</time>
      </trkpt>
      <trkpt lat="43.6219" lon="1.31055">
        <ele>176.4</ele>
        <time>2025-10-18T09:40:25Z</time>
      </trkpt>
      <trkpt lat="43.62185" lon="1.31062">
        <ele>176</ele>
        <time>2025-10-18T09:40:26Z</time>
      </trkpt>
      <trkpt lat="43.6218" lon="1.31068">
        <ele>175.6</ele>
        <time>2025-10-18T09:40:27Z</time>
      </trkpt>
      <trkpt lat="43.62174" lon="1.31073">
        <ele>174.6</ele>
        <time>2025-10-18T09:40:28Z</time>
      </trkpt>
      <trkpt lat="43.62167" lon="1.31077">
        <ele>173.8</ele>
        <time>2025-10-18T09:40:29Z</time>
      </trkpt>
      <trkpt lat="43.62159" lon="1.3108">
        <ele>173</ele>
        <time>2025-10-18T09:40:30Z</time>
      </trkpt>
      <trkpt lat="43.62153" lon="1.31083">
        <ele>172.4</ele>
        <time>2025-10-18T09:40:31Z</time>
      </trkpt>
      <trkpt lat="43.62149" lon="1.31086">
        <ele>172.2</ele>
        <time>2025-10-18T09:40:32Z</time>
      </trkpt>
      <trkpt lat="43.62147" lon="1.3109">
        <ele>172</ele>
        <time>2025-10-18T09:40:33Z</time>
      </trkpt>
      <trkpt lat="43.62145" lon="1.31092">
        <ele>172</ele>
        <time>2025-10-18T09:40:34Z</time>
      </trkpt>
      <trkpt lat="43.62143" lon="1.31095">
        <ele>172</ele>
        <time>2025-10-18T09:40:35Z</time>
      </trkpt>
      <trkpt lat="43.62141" lon="1.31098">
        <ele>172</ele>
        <time>2025-10-18T09:40:36Z</time>
      </trkpt>
      <trkpt lat="43.62139" lon="1.31101">
        <ele>172.2</ele>
        <time>2025-10-18T09:40:37Z</time>
      </trkpt>
      <trkpt lat="43.62137" lon="1.31104">
        <ele>172.2</ele>
        <time>2025-10-18T09:40:38Z</time>
      </trkpt>
      <trkpt lat="43.62136" lon="1.31107">
        <ele>172</ele>
        <time>2025-10-18T09:40:39Z</time>
      </trkpt>
      <trkpt lat="43.62135" lon="1.31109">
        <ele>171.8</ele>
        <time>2025-10-18T09:40:40Z</time>
      </trkpt>
      <trkpt lat="43.62135" lon="1.31109">
        <ele>171.8</ele>
        <time>2025-10-18T09:40:41Z</time>
      </trkpt>
      <trkpt lat="43.62135" lon="1.31109">
        <ele>171.8</ele>
        <time>2025-10-18T09:40:42Z</time>
      </trkpt>
      <trkpt lat="43.62129" lon="1.31114">
        <ele>171.8</ele>
        <time>2025-10-18T09:41:15Z</time>
      </trkpt>
      <trkpt lat="43.62127" lon="1.31117">
        <ele>171.6</ele>
        <time>2025-10-18T09:41:16Z</time>
      </trkpt>
      <trkpt lat="43.62126" lon="1.31121">
        <ele>171.4</ele>
        <time>2025-10-18T09:41:17Z</time>
      </trkpt>
      <trkpt lat="43.62125" lon="1.31125">
        <ele>171.2</ele>
        <time>2025-10-18T09:41:18Z</time>
      </trkpt>
      <trkpt lat="43.62123" lon="1.3113">
        <ele>170.8</ele>
        <time>2025-10-18T09:41:19Z</time>
      </trkpt>
      <trkpt lat="43.62122" lon="1.31136">
        <ele>170.4</ele>
        <time>2025-10-18T09:41:20Z</time>
      </trkpt>
      <trkpt lat="43.62121" lon="1.31141">
        <ele>170.2</ele>
        <time>2025-10-18T09:41:21Z</time>
      </trkpt>
      <trkpt lat="43.62119" lon="1.31148">
        <ele>169.8</ele>
        <time>2025-10-18T09:41:22Z</time>
      </trkpt>
      <trkpt lat="43.62117" lon="1.31155">
        <ele>169.6</ele>
        <time>2025-10-18T09:41:23Z</time>
      </trkpt>
      <trkpt lat="43.62115" lon="1.31162">
        <ele>169.2</ele>
        <time>2025-10-18T09:41:24Z</time>
      </trkpt>
      <trkpt lat="43.62113" lon="1.31169">
        <ele>169</ele>
        <time>2025-10-18T09:41:25Z</time>
      </trkpt>
      <trkpt lat="43.6211" lon="1.31178">
        <ele>168.8</ele>
        <time>2025-10-18T09:41:26Z</time>
      </trkpt>
      <trkpt lat="43.62108" lon="1.31186">
        <ele>168.6</ele>
        <time>2025-10-18T09:41:27Z</time>
      </trkpt>
      <trkpt lat="43.62105" lon="1.31195">
        <ele>168.4</ele>
        <time>2025-10-18T09:41:28Z</time>
      </trkpt>
      <trkpt lat="43.62103" lon="1.31203">
        <ele>168</ele>
        <time>2025-10-18T09:41:29Z</time>
      </trkpt>
      <trkpt lat="43.62101" lon="1.31212">
        <ele>167.6</ele>
        <time>2025-10-18T09:41:30Z</time>
      </trkpt>
      <trkpt lat="43.62098" lon="1.3122">
        <ele>167.4</ele>
        <time>2025-10-18T09:41:31Z</time>
      </trkpt>
      <trkpt lat="43.62096" lon="1.31228">
        <ele>167.4</ele>
        <time>2025-10-18T09:41:32Z</time>
      </trkpt>
      <trkpt lat="43.62094" lon="1.31236">
        <ele>167.2</ele>
        <time>2025-10-18T09:41:33Z</time>
      </trkpt>
      <trkpt lat="43.62091" lon="1.31242">
        <ele>167.2</ele>
        <time>2025-10-18T09:41:34Z</time>
      </trkpt>
      <trkpt lat="43.62089" lon="1.31249">
        <ele>167.2</ele>
        <time>2025-10-18T09:41:35Z</time>
      </trkpt>
      <trkpt lat="43.62087" lon="1.31256">
        <ele>167.2</ele>
        <time>2025-10-18T09:41:36Z</time>
      </trkpt>
      <trkpt lat="43.62086" lon="1.31264">
        <ele>167.2</ele>
        <time>2025-10-18T09:41:37Z</time>
      </trkpt>
      <trkpt lat="43.62084" lon="1.31272">
        <ele>167.2</ele>
        <time>2025-10-18T09:41:38Z</time>
      </trkpt>
      <trkpt lat="43.62082" lon="1.3128">
        <ele>167.2</ele>
        <time>2025-10-18T09:41:39Z</time>
      </trkpt>
      <trkpt lat="43.6208" lon="1.3129">
        <ele>167</ele>
        <time>2025-10-18T09:41:40Z</time>
      </trkpt>
      <trkpt lat="43.62079" lon="1.31299">
        <ele>166.6</ele>
        <time>2025-10-18T09:41:41Z</time>
      </trkpt>
      <trkpt lat="43.62078" lon="1.31309">
        <ele>166.4</ele>
        <time>2025-10-18T09:41:42Z</time>
      </trkpt>
      <trkpt lat="43.62076" lon="1.31318">
        <ele>166</ele>
        <time>2025-10-18T09:41:43Z</time>
      </trkpt>
      <trkpt lat="43.62074" lon="1.31328">
        <ele>165.4</ele>
        <time>2025-10-18T09:41:44Z</time>
      </trkpt>
      <trkpt lat="43.62071" lon="1.31337">
        <ele>165</ele>
        <time>2025-10-18T09:41:45Z</time>
      </trkpt>
      <trkpt lat="43.62068" lon="1.31345">
        <ele>164.6</ele>
        <time>2025-10-18T09:41:46Z</time>
      </trkpt>
      <trkpt lat="43.62065" lon="1.31353">
        <ele>164.2</ele>
        <time>2025-10-18T09:41:47Z</time>
      </trkpt>
      <trkpt lat="43.62062" lon="1.31362">
        <ele>164</ele>
        <time>2025-10-18T09:41:48Z</time>
      </trkpt>
      <trkpt lat="43.6206" lon="1.31371">
        <ele>164</ele>
        <time>2025-10-18T09:41:49Z</time>
      </trkpt>
      <trkpt lat="43.62058" lon="1.31379">
        <ele>164</ele>
        <time>2025-10-18T09:41:50Z</time>
      </trkpt>
      <trkpt lat="43.62055" lon="1.31388">
        <ele>163.8</ele>
        <time>2025-10-18T09:41:51Z</time>
      </trkpt>
      <trkpt lat="43.62054" lon="1.31396">
        <ele>164</ele>
        <time>2025-10-18T09:41:52Z</time>
      </trkpt>
      <trkpt lat="43.62052" lon="1.31404">
        <ele>164</ele>
        <time>2025-10-18T09:41:53Z</time>
      </trkpt>
      <trkpt lat="43.6205" lon="1.31411">
        <ele>164.2</ele>
        <time>2025-10-18T09:41:54Z</time>
      </trkpt>
      <trkpt lat="43.62047" lon="1.31418">
        <ele>164.6</ele>
        <time>2025-10-18T09:41:55Z</time>
      </trkpt>
      <trkpt lat="43.62042" lon="1.31422">
        <ele>164.8</ele>
        <time>2025-10-18T09:41:56Z</time>
      </trkpt>
      <trkpt lat="43.62037" lon="1.31424">
        <ele>165</ele>
        <time>2025-10-18T09:41:57Z</time>
      </trkpt>
      <trkpt lat="43.62032" lon="1.31425">
        <ele>165.2</ele>
        <time>2025-10-18T09:41:58Z</time>
      </trkpt>
      <trkpt lat="43.62027" lon="1.31426">
        <ele>165</ele>
        <time>2025-10-18T09:41:59Z</time>
      </trkpt>
      <trkpt lat="43.62021" lon="1.31428">
        <ele>165</ele>
        <time>2025-10-18T09:42:00Z</time>
      </trkpt>
      <trkpt lat="43.62015" lon="1.3143">
        <ele>165</ele>
        <time>2025-10-18T09:42:01Z</time>
      </trkpt>
      <trkpt lat="43.62008" lon="1.31431">
        <ele>165</ele>
        <time>2025-10-18T09:42:02Z</time>
      </trkpt>
      <trkpt lat="43.62001" lon="1.31433">
        <ele>165</ele>
        <time>2025-10-18T09:42:03Z</time>
      </trkpt>
      <trkpt lat="43.61995" lon="1.31433">
        <ele>165</ele>
        <time>2025-10-18T09:42:04Z</time>
      </trkpt>
      <trkpt lat="43.61989" lon="1.31432">
        <ele>165.2</ele>
        <time>2025-10-18T09:42:05Z</time>
      </trkpt>
      <trkpt lat="43.61983" lon="1.31432">
        <ele>165.2</ele>
        <time>2025-10-18T09:42:06Z</time>
      </trkpt>
      <trkpt lat="43.61976" lon="1.31431">
        <ele>165.2</ele>
        <time>2025-10-18T09:42:07Z</time>
      </trkpt>
      <trkpt lat="43.6197" lon="1.3143">
        <ele>165</ele>
        <time>2025-10-18T09:42:08Z</time>
      </trkpt>
      <trkpt lat="43.61964" lon="1.31429">
        <ele>165</ele>
        <time>2025-10-18T09:42:09Z</time>
      </trkpt>
      <trkpt lat="43.61958" lon="1.31429">
        <ele>164.8</ele>
        <time>2025-10-18T09:42:10Z</time>
      </trkpt>
      <trkpt lat="43.61951" lon="1.31428">
        <ele>164.8</ele>
        <time>2025-10-18T09:42:11Z</time>
      </trkpt>
      <trkpt lat="43.61945" lon="1.31428">
        <ele>165</ele>
        <time>2025-10-18T09:42:12Z</time>
      </trkpt>
      <trkpt lat="43.61939" lon="1.3143">
        <ele>165</ele>
        <time>2025-10-18T09:42:13Z</time>
      </trkpt>
      <trkpt lat="43.61934" lon="1.31434">
        <ele>165.2</ele>
        <time>2025-10-18T09:42:14Z</time>
      </trkpt>
      <trkpt lat="43.61928" lon="1.31438">
        <ele>165.2</ele>
        <time>2025-10-18T09:42:15Z</time>
      </trkpt>
      <trkpt lat="43.61922" lon="1.31443">
        <ele>165.2</ele>
        <time>2025-10-18T09:42:16Z</time>
      </trkpt>
      <trkpt lat="43.61917" lon="1.31447">
        <ele>165.2</ele>
        <time>2025-10-18T09:42:17Z</time>
      </trkpt>
      <trkpt lat="43.61911" lon="1.31451">
        <ele>165.2</ele>
        <time>2025-10-18T09:42:18Z</time>
      </trkpt>
      <trkpt lat="43.61906" lon="1.31454">
        <ele>165.2</ele>
        <time>2025-10-18T09:42:19Z</time>
      </trkpt>
      <trkpt lat="43.619" lon="1.31458">
        <ele>165.2</ele>
        <time>2025-10-18T09:42:20Z</time>
      </trkpt>
      <trkpt lat="43.61894" lon="1.31462">
        <ele>165.4</ele>
        <time>2025-10-18T09:42:21Z</time>
      </trkpt>
      <trkpt lat="43.61889" lon="1.31467">
        <ele>165.4</ele>
        <time>2025-10-18T09:42:22Z</time>
      </trkpt>
      <trkpt lat="43.61883" lon="1.31471">
        <ele>165.8</ele>
        <time>2025-10-18T09:42:23Z</time>
      </trkpt>
      <trkpt lat="43.61878" lon="1.31474">
        <ele>165.8</ele>
        <time>2025-10-18T09:42:24Z</time>
      </trkpt>
      <trkpt lat="43.61872" lon="1.31477">
        <ele>166</ele>
        <time>2025-10-18T09:42:25Z</time>
      </trkpt>
      <trkpt lat="43.61866" lon="1.31479">
        <ele>166</ele>
        <time>2025-10-18T09:42:26Z</time>
      </trkpt>
      <trkpt lat="43.61861" lon="1.31482">
        <ele>166</ele>
        <time>2025-10-18T09:42:27Z</time>
      </trkpt>
      <trkpt lat="43.61855" lon="1.31485">
        <ele>166</ele>
        <time>2025-10-18T09:42:28Z</time>
      </trkpt>
      <trkpt lat="43.61849" lon="1.31488">
        <ele>166.2</ele>
        <time>2025-10-18T09:42:29Z</time>
      </trkpt>
      <trkpt lat="43.61843" lon="1.31491">
        <ele>166.2</ele>
        <time>2025-10-18T09:42:30Z</time>
      </trkpt>
      <trkpt lat="43.61838" lon="1.31494">
        <ele>166.4</ele>
        <time>2025-10-18T09:42:31Z</time>
      </trkpt>
      <trkpt lat="43.61832" lon="1.31498">
        <ele>166.4</ele>
        <time>2025-10-18T09:42:32Z</time>
      </trkpt>
      <trkpt lat="43.61826" lon="1.31501">
        <ele>166.6</ele>
        <time>2025-10-18T09:42:33Z</time>
      </trkpt>
      <trkpt lat="43.6182" lon="1.31503">
        <ele>167</ele>
        <time>2025-10-18T09:42:34Z</time>
      </trkpt>
      <trkpt lat="43.61815" lon="1.31506">
        <ele>167.2</ele>
        <time>2025-10-18T09:42:35Z</time>
      </trkpt>
      <trkpt lat="43.61809" lon="1.31509">
        <ele>167.6</ele>
        <time>2025-10-18T09:42:36Z</time>
      </trkpt>
      <trkpt lat="43.61803" lon="1.31511">
        <ele>168</ele>
        <time>2025-10-18T09:42:37Z</time>
      </trkpt>
      <trkpt lat="43.61798" lon="1.31514">
        <ele>168.2</ele>
        <time>2025-10-18T09:42:38Z</time>
      </trkpt>
      <trkpt lat="43.61793" lon="1.31517">
        <ele>168.4</ele>
        <time>2025-10-18T09:42:39Z</time>
      </trkpt>
      <trkpt lat="43.61788" lon="1.31519">
        <ele>168.6</ele>
        <time>2025-10-18T09:42:40Z</time>
      </trkpt>
      <trkpt lat="43.61783" lon="1.31521">
        <ele>168.6</ele>
        <time>2025-10-18T09:42:41Z</time>
      </trkpt>
      <trkpt lat="43.61779" lon="1.31523">
        <ele>168.8</ele>
        <time>2025-10-18T09:42:42Z</time>
      </trkpt>
      <trkpt lat="43.61775" lon="1.31524">
        <ele>169</ele>
        <time>2025-10-18T09:42:43Z</time>
      </trkpt>
      <trkpt lat="43.61771" lon="1.31524">
        <ele>169</ele>
        <time>2025-10-18T09:42:44Z</time>
      </trkpt>
      <trkpt lat="43.61765" lon="1.31525">
        <ele>169.2</ele>
        <time>2025-10-18T09:42:45Z</time>
      </trkpt>
      <trkpt lat="43.6176" lon="1.31526">
        <ele>169</ele>
        <time>2025-10-18T09:42:46Z</time>
      </trkpt>
      <trkpt lat="43.61754" lon="1.31527">
        <ele>168.6</ele>
        <time>2025-10-18T09:42:47Z</time>
      </trkpt>
      <trkpt lat="43.61748" lon="1.31529">
        <ele>168</ele>
        <time>2025-10-18T09:42:48Z</time>
      </trkpt>
      <trkpt lat="43.61743" lon="1.31531">
        <ele>167.6</ele>
        <time>2025-10-18T09:42:49Z</time>
      </trkpt>
      <trkpt lat="43.61737" lon="1.31533">
        <ele>167.2</ele>
        <time>2025-10-18T09:42:50Z</time>
      </trkpt>
      <trkpt lat="43.61733" lon="1.31536">
        <ele>167.2</ele>
        <time>2025-10-18T09:42:51Z</time>
      </trkpt>
      <trkpt lat="43.61728" lon="1.31538">
        <ele>167.2</ele>
        <time>2025-10-18T09:42:52Z</time>
      </trkpt>
      <trkpt lat="43.61723" lon="1.3154">
        <ele>167.6</ele>
        <time>2025-10-18T09:42:53Z</time>
      </trkpt>
      <trkpt lat="43.61719" lon="1.31541">
        <ele>168</ele>
        <time>2025-10-18T09:42:54Z</time>
      </trkpt>
      <trkpt lat="43.61714" lon="1.31542">
        <ele>168.2</ele>
        <time>2025-10-18T09:42:55Z</time>
      </trkpt>
      <trkpt lat="43.6171" lon="1.31544">
        <ele>168.4</ele>
        <time>2025-10-18T09:42:56Z</time>
      </trkpt>
      <trkpt lat="43.61705" lon="1.31545">
        <ele>168.6</ele>
        <time>2025-10-18T09:42:57Z</time>
      </trkpt>
      <trkpt lat="43.61701" lon="1.31546">
        <ele>168.6</ele>
        <time>2025-10-18T09:42:58Z</time>
      </trkpt>
      <trkpt lat="43.61695" lon="1.31548">
        <ele>168.6</ele>
        <time>2025-10-18T09:42:59Z</time>
      </trkpt>
      <trkpt lat="43.6169" lon="1.31549">
        <ele>168.6</ele>
        <time>2025-10-18T09:43:00Z</time>
      </trkpt>
      <trkpt lat="43.61685" lon="1.31551">
        <ele>168.8</ele>
        <time>2025-10-18T09:43:01Z</time>
      </trkpt>
      <trkpt lat="43.61679" lon="1.31552">
        <ele>169</ele>
        <time>2025-10-18T09:43:02Z</time>
      </trkpt>
      <trkpt lat="43.61674" lon="1.31554">
        <ele>169</ele>
        <time>2025-10-18T09:43:03Z</time>
      </trkpt>
      <trkpt lat="43.61668" lon="1.31556">
        <ele>169.2</ele>
        <time>2025-10-18T09:43:04Z</time>
      </trkpt>
      <trkpt lat="43.61662" lon="1.31557">
        <ele>169.2</ele>
        <time>2025-10-18T09:43:05Z</time>
      </trkpt>
      <trkpt lat="43.61656" lon="1.31559">
        <ele>169.4</ele>
        <time>2025-10-18T09:43:06Z</time>
      </trkpt>
      <trkpt lat="43.61651" lon="1.31562">
        <ele>169.6</ele>
        <time>2025-10-18T09:43:07Z</time>
      </trkpt>
      <trkpt lat="43.61647" lon="1.31567">
        <ele>169.6</ele>
        <time>2025-10-18T09:43:08Z</time>
      </trkpt>
      <trkpt lat="43.61642" lon="1.3157">
        <ele>169.8</ele>
        <time>2025-10-18T09:43:09Z</time>
      </trkpt>
      <trkpt lat="43.61636" lon="1.31573">
        <ele>170.2</ele>
        <time>2025-10-18T09:43:10Z</time>
      </trkpt>
      <trkpt lat="43.61631" lon="1.31577">
        <ele>170.2</ele>
        <time>2025-10-18T09:43:11Z</time>
      </trkpt>
      <trkpt lat="43.61625" lon="1.31581">
        <ele>170.2</ele>
        <time>2025-10-18T09:43:12Z</time>
      </trkpt>
      <trkpt lat="43.6162" lon="1.31586">
        <ele>170.2</ele>
        <time>2025-10-18T09:43:13Z</time>
      </trkpt>
      <trkpt lat="43.61615" lon="1.31591">
        <ele>170.2</ele>
        <time>2025-10-18T09:43:14Z</time>
      </trkpt>
      <trkpt lat="43.6161" lon="1.31596">
        <ele>170</ele>
        <time>2025-10-18T09:43:15Z</time>
      </trkpt>
      <trkpt lat="43.61605" lon="1.316">
        <ele>170</ele>
        <time>2025-10-18T09:43:16Z</time>
      </trkpt>
      <trkpt lat="43.616" lon="1.31606">
        <ele>169.8</ele>
        <time>2025-10-18T09:43:17Z</time>
      </trkpt>
      <trkpt lat="43.61595" lon="1.3161">
        <ele>169.6</ele>
        <time>2025-10-18T09:43:18Z</time>
      </trkpt>
      <trkpt lat="43.61589" lon="1.31614">
        <ele>169.4</ele>
        <time>2025-10-18T09:43:19Z</time>
      </trkpt>
      <trkpt lat="43.61584" lon="1.31618">
        <ele>169.4</ele>
        <time>2025-10-18T09:43:20Z</time>
      </trkpt>
      <trkpt lat="43.61578" lon="1.31621">
        <ele>169.2</ele>
        <time>2025-10-18T09:43:21Z</time>
      </trkpt>
      <trkpt lat="43.61571" lon="1.31625">
        <ele>169.2</ele>
        <time>2025-10-18T09:43:22Z</time>
      </trkpt>
      <trkpt lat="43.61566" lon="1.31629">
        <ele>169.4</ele>
        <time>2025-10-18T09:43:23Z</time>
      </trkpt>
      <trkpt lat="43.6156" lon="1.31632">
        <ele>169.4</ele>
        <time>2025-10-18T09:43:24Z</time>
      </trkpt>
      <trkpt lat="43.61554" lon="1.31637">
        <ele>169.4</ele>
        <time>2025-10-18T09:43:25Z</time>
      </trkpt>
      <trkpt lat="43.61549" lon="1.3164">
        <ele>169.6</ele>
        <time>2025-10-18T09:43:26Z</time>
      </trkpt>
      <trkpt lat="43.61543" lon="1.31643">
        <ele>169.8</ele>
        <time>2025-10-18T09:43:27Z</time>
      </trkpt>
      <trkpt lat="43.61537" lon="1.31645">
        <ele>169.8</ele>
        <time>2025-10-18T09:43:28Z</time>
      </trkpt>
      <trkpt lat="43.61531" lon="1.31647">
        <ele>170</ele>
        <time>2025-10-18T09:43:29Z</time>
      </trkpt>
      <trkpt lat="43.61525" lon="1.3165">
        <ele>170.4</ele>
        <time>2025-10-18T09:43:30Z</time>
      </trkpt>
      <trkpt lat="43.61519" lon="1.31653">
        <ele>170.6</ele>
        <time>2025-10-18T09:43:31Z</time>
      </trkpt>
      <trkpt lat="43.61514" lon="1.31657">
        <ele>170.6</ele>
        <time>2025-10-18T09:43:32Z</time>
      </trkpt>
      <trkpt lat="43.61508" lon="1.31662">
        <ele>170.8</ele>
        <time>2025-10-18T09:43:33Z</time>
      </trkpt>
      <trkpt lat="43.61503" lon="1.31666">
        <ele>170.8</ele>
        <time>2025-10-18T09:43:34Z</time>
      </trkpt>
      <trkpt lat="43.61498" lon="1.31671">
        <ele>171.2</ele>
        <time>2025-10-18T09:43:35Z</time>
      </trkpt>
      <trkpt lat="43.61493" lon="1.31676">
        <ele>171.2</ele>
        <time>2025-10-18T09:43:36Z</time>
      </trkpt>
      <trkpt lat="43.61488" lon="1.31681">
        <ele>171.4</ele>
        <time>2025-10-18T09:43:37Z</time>
      </trkpt>
      <trkpt lat="43.61485" lon="1.31688">
        <ele>171.6</ele>
        <time>2025-10-18T09:43:38Z</time>
      </trkpt>
      <trkpt lat="43.61482" lon="1.31695">
        <ele>171.8</ele>
        <time>2025-10-18T09:43:39Z</time>
      </trkpt>
      <trkpt lat="43.6148" lon="1.31702">
        <ele>172</ele>
        <time>2025-10-18T09:43:40Z</time>
      </trkpt>
      <trkpt lat="43.61478" lon="1.31708">
        <ele>172</ele>
        <time>2025-10-18T09:43:41Z</time>
      </trkpt>
      <trkpt lat="43.61476" lon="1.31715">
        <ele>172.2</ele>
        <time>2025-10-18T09:43:42Z</time>
      </trkpt>
      <trkpt lat="43.61475" lon="1.31722">
        <ele>172.4</ele>
        <time>2025-10-18T09:43:43Z</time>
      </trkpt>
      <trkpt lat="43.61473" lon="1.31729">
        <ele>172.6</ele>
        <time>2025-10-18T09:43:44Z</time>
      </trkpt>
      <trkpt lat="43.61471" lon="1.31736">
        <ele>172.8</ele>
        <time>2025-10-18T09:43:45Z</time>
      </trkpt>
      <trkpt lat="43.61469" lon="1.31742">
        <ele>173.2</ele>
        <time>2025-10-18T09:43:46Z</time>
      </trkpt>
      <trkpt lat="43.61467" lon="1.31748">
        <ele>173.4</ele>
        <time>2025-10-18T09:43:47Z</time>
      </trkpt>
      <trkpt lat="43.61465" lon="1.31755">
        <ele>173.6</ele>
        <time>2025-10-18T09:43:48Z</time>
      </trkpt>
      <trkpt lat="43.61464" lon="1.31761">
        <ele>173.8</ele>
        <time>2025-10-18T09:43:49Z</time>
      </trkpt>
      <trkpt lat="43.61464" lon="1.31767">
        <ele>174</ele>
        <time>2025-10-18T09:43:50Z</time>
      </trkpt>
      <trkpt lat="43.61462" lon="1.31773">
        <ele>174.4</ele>
        <time>2025-10-18T09:43:51Z</time>
      </trkpt>
      <trkpt lat="43.61461" lon="1.31779">
        <ele>174.8</ele>
        <time>2025-10-18T09:43:52Z</time>
      </trkpt>
      <trkpt lat="43.61459" lon="1.31785">
        <ele>175</ele>
        <time>2025-10-18T09:43:53Z</time>
      </trkpt>
      <trkpt lat="43.61457" lon="1.31791">
        <ele>175.4</ele>
        <time>2025-10-18T09:43:54Z</time>
      </trkpt>
      <trkpt lat="43.61455" lon="1.31797">
        <ele>175.8</ele>
        <time>2025-10-18T09:43:55Z</time>
      </trkpt>
      <trkpt lat="43.61453" lon="1.31803">
        <ele>176</ele>
        <time>2025-10-18T09:43:56Z</time>
      </trkpt>
      <trkpt lat="43.61451" lon="1.31808">
        <ele>176.2</ele>
        <time>2025-10-18T09:43:57Z</time>
      </trkpt>
      <trkpt lat="43.61449" lon="1.31814">
        <ele>176.6</ele>
        <time>2025-10-18T09:43:58Z</time>
      </trkpt>
      <trkpt lat="43.61447" lon="1.3182">
        <ele>176.6</ele>
        <time>2025-10-18T09:43:59Z</time>
      </trkpt>
      <trkpt lat="43.61444" lon="1.31825">
        <ele>176.8</ele>
        <time>2025-10-18T09:44:00Z</time>
      </trkpt>
      <trkpt lat="43.61442" lon="1.3183">
        <ele>176.8</ele>
        <time>2025-10-18T09:44:01Z</time>
      </trkpt>
      <trkpt lat="43.61441" lon="1.31836">
        <ele>177</ele>
        <time>2025-10-18T09:44:02Z</time>
      </trkpt>
      <trkpt lat="43.6144" lon="1.31841">
        <ele>177.2</ele>
        <time>2025-10-18T09:44:03Z</time>
      </trkpt>
      <trkpt lat="43.61437" lon="1.31846">
        <ele>177.6</ele>
        <time>2025-10-18T09:44:04Z</time>
      </trkpt>
      <trkpt lat="43.61435" lon="1.31851">
        <ele>178</ele>
        <time>2025-10-18T09:44:05Z</time>
      </trkpt>
      <trkpt lat="43.61433" lon="1.31855">
        <ele>178.2</ele>
        <time>2025-10-18T09:44:06Z</time>
      </trkpt>
      <trkpt lat="43.61432" lon="1.3186">
        <ele>178.6</ele>
        <time>2025-10-18T09:44:07Z</time>
      </trkpt>
      <trkpt lat="43.6143" lon="1.31865">
        <ele>178.8</ele>
        <time>2025-10-18T09:44:08Z</time>
      </trkpt>
      <trkpt lat="43.6143" lon="1.3187">
        <ele>179.2</ele>
        <time>2025-10-18T09:44:09Z</time>
      </trkpt>
      <trkpt lat="43.61429" lon="1.31876">
        <ele>179.6</ele>
        <time>2025-10-18T09:44:10Z</time>
      </trkpt>
      <trkpt lat="43.61428" lon="1.31882">
        <ele>179.8</ele>
        <time>2025-10-18T09:44:11Z</time>
      </trkpt>
      <trkpt lat="43.61427" lon="1.31887">
        <ele>179.8</ele>
        <time>2025-10-18T09:44:12Z</time>
      </trkpt>
      <trkpt lat="43.61426" lon="1.31893">
        <ele>180</ele>
        <time>2025-10-18T09:44:13Z</time>
      </trkpt>
      <trkpt lat="43.61425" lon="1.31899">
        <ele>180</ele>
        <time>2025-10-18T09:44:14Z</time>
      </trkpt>
      <trkpt lat="43.61424" lon="1.31905">
        <ele>180.2</ele>
        <time>2025-10-18T09:44:15Z</time>
      </trkpt>
      <trkpt lat="43.61423" lon="1.31911">
        <ele>180.4</ele>
        <time>2025-10-18T09:44:16Z</time>
      </trkpt>
      <trkpt lat="43.61422" lon="1.31916">
        <ele>180.4</ele>
        <time>2025-10-18T09:44:17Z</time>
      </trkpt>
      <trkpt lat="43.61421" lon="1.3192">
        <ele>180.4</ele>
        <time>2025-10-18T09:44:18Z</time>
      </trkpt>
      <trkpt lat="43.61418" lon="1.31922">
        <ele>180.6</ele>
        <time>2025-10-18T09:44:19Z</time>
      </trkpt>
      <trkpt lat="43.61415" lon="1.31923">
        <ele>180.8</ele>
        <time>2025-10-18T09:44:20Z</time>
      </trkpt>
      <trkpt lat="43.61411" lon="1.31924">
        <ele>180.8</ele>
        <time>2025-10-18T09:44:21Z</time>
      </trkpt>
      <trkpt lat="43.61407" lon="1.31925">
        <ele>181</ele>
        <time>2025-10-18T09:44:22Z</time>
      </trkpt>
      <trkpt lat="43.61402" lon="1.31926">
        <ele>180.8</ele>
        <time>2025-10-18T09:44:23Z</time>
      </trkpt>
      <trkpt lat="43.61397" lon="1.31929">
        <ele>180.8</ele>
        <time>2025-10-18T09:44:24Z</time>
      </trkpt>
      <trkpt lat="43.61392" lon="1.31933">
        <ele>180.6</ele>
        <time>2025-10-18T09:44:25Z</time>
      </trkpt>
      <trkpt lat="43.61388" lon="1.31938">
        <ele>180.4</ele>
        <time>2025-10-18T09:44:26Z</time>
      </trkpt>
      <trkpt lat="43.61385" lon="1.31945">
        <ele>180.4</ele>
        <time>2025-10-18T09:44:27Z</time>
      </trkpt>
      <trkpt lat="43.61383" lon="1.31952">
        <ele>180.2</ele>
        <time>2025-10-18T09:44:28Z</time>
      </trkpt>
      <trkpt lat="43.61381" lon="1.31959">
        <ele>180.2</ele>
        <time>2025-10-18T09:44:29Z</time>
      </trkpt>
      <trkpt lat="43.61379" lon="1.31965">
        <ele>180.2</ele>
        <time>2025-10-18T09:44:30Z</time>
      </trkpt>
      <trkpt lat="43.61377" lon="1.31973">
        <ele>180.2</ele>
        <time>2025-10-18T09:44:31Z</time>
      </trkpt>
      <trkpt lat="43.61375" lon="1.3198">
        <ele>180.2</ele>
        <time>2025-10-18T09:44:32Z</time>
      </trkpt>
      <trkpt lat="43.61374" lon="1.31988">
        <ele>180.2</ele>
        <time>2025-10-18T09:44:33Z</time>
      </trkpt>
      <trkpt lat="43.61372" lon="1.31995">
        <ele>180.2</ele>
        <time>2025-10-18T09:44:34Z</time>
      </trkpt>
      <trkpt lat="43.6137" lon="1.32003">
        <ele>180.4</ele>
        <time>2025-10-18T09:44:35Z</time>
      </trkpt>
      <trkpt lat="43.61368" lon="1.32011">
        <ele>180.6</ele>
        <time>2025-10-18T09:44:36Z</time>
      </trkpt>
      <trkpt lat="43.61366" lon="1.32019">
        <ele>180.8</ele>
        <time>2025-10-18T09:44:37Z</time>
      </trkpt>
      <trkpt lat="43.61363" lon="1.32026">
        <ele>181</ele>
        <time>2025-10-18T09:44:38Z</time>
      </trkpt>
      <trkpt lat="43.61361" lon="1.32034">
        <ele>181.2</ele>
        <time>2025-10-18T09:44:39Z</time>
      </trkpt>
      <trkpt lat="43.61358" lon="1.32043">
        <ele>181.2</ele>
        <time>2025-10-18T09:44:40Z</time>
      </trkpt>
      <trkpt lat="43.61356" lon="1.32051">
        <ele>181.2</ele>
        <time>2025-10-18T09:44:41Z</time>
      </trkpt>
      <trkpt lat="43.61354" lon="1.32059">
        <ele>181.2</ele>
        <time>2025-10-18T09:44:42Z</time>
      </trkpt>
      <trkpt lat="43.61351" lon="1.32067">
        <ele>181.2</ele>
        <time>2025-10-18T09:44:43Z</time>
      </trkpt>
      <trkpt lat="43.61349" lon="1.32076">
        <ele>181</ele>
        <time>2025-10-18T09:44:44Z</time>
      </trkpt>
      <trkpt lat="43.61346" lon="1.32084">
        <ele>181</ele>
        <time>2025-10-18T09:44:45Z</time>
      </trkpt>
      <trkpt lat="43.61343" lon="1.32092">
        <ele>181</ele>
        <time>2025-10-18T09:44:46Z</time>
      </trkpt>
      <trkpt lat="43.61341" lon="1.32101">
        <ele>180.8</ele>
        <time>2025-10-18T09:44:47Z</time>
      </trkpt>
      <trkpt lat="43.61339" lon="1.32109">
        <ele>180.8</ele>
        <time>2025-10-18T09:44:48Z</time>
      </trkpt>
      <trkpt lat="43.61337" lon="1.32118">
        <ele>180.8</ele>
        <time>2025-10-18T09:44:49Z</time>
      </trkpt>
      <trkpt lat="43.61335" lon="1.32126">
        <ele>180.8</ele>
        <time>2025-10-18T09:44:50Z</time>
      </trkpt>
      <trkpt lat="43.61334" lon="1.32135">
        <ele>180.8</ele>
        <time>2025-10-18T09:44:51Z</time>
      </trkpt>
      <trkpt lat="43.61332" lon="1.32143">
        <ele>180.8</ele>
        <time>2025-10-18T09:44:52Z</time>
      </trkpt>
      <trkpt lat="43.61331" lon="1.32152">
        <ele>180.8</ele>
        <time>2025-10-18T09:44:53Z</time>
      </trkpt>
      <trkpt lat="43.61331" lon="1.3216">
        <ele>181</ele>
        <time>2025-10-18T09:44:54Z</time>
      </trkpt>
      <trkpt lat="43.6133" lon="1.32169">
        <ele>181</ele>
        <time>2025-10-18T09:44:55Z</time>
      </trkpt>
      <trkpt lat="43.61329" lon="1.32176">
        <ele>181.2</ele>
        <time>2025-10-18T09:44:56Z</time>
      </trkpt>
      <trkpt lat="43.61327" lon="1.32185">
        <ele>181.2</ele>
        <time>2025-10-18T09:44:57Z</time>
      </trkpt>
      <trkpt lat="43.61326" lon="1.32193">
        <ele>181.2</ele>
        <time>2025-10-18T09:44:58Z</time>
      </trkpt>
      <trkpt lat="43.61324" lon="1.32201">
        <ele>181.2</ele>
        <time>2025-10-18T09:44:59Z</time>
      </trkpt>
      <trkpt lat="43.61322" lon="1.32208">
        <ele>181.2</ele>
        <time>2025-10-18T09:45:00Z</time>
      </trkpt>
      <trkpt lat="43.61321" lon="1.32214">
        <ele>181.4</ele>
        <time>2025-10-18T09:45:01Z</time>
      </trkpt>
      <trkpt lat="43.6132" lon="1.3222">
        <ele>181.6</ele>
        <time>2025-10-18T09:45:02Z</time>
      </trkpt>
      <trkpt lat="43.61317" lon="1.32224">
        <ele>181.6</ele>
        <time>2025-10-18T09:45:03Z</time>
      </trkpt>
      <trkpt lat="43.61316" lon="1.32228">
        <ele>181.8</ele>
        <time>2025-10-18T09:45:04Z</time>
      </trkpt>
      <trkpt lat="43.61314" lon="1.32233">
        <ele>181.8</ele>
        <time>2025-10-18T09:45:05Z</time>
      </trkpt>
      <trkpt lat="43.61314" lon="1.32236">
        <ele>181.8</ele>
        <time>2025-10-18T09:45:06Z</time>
      </trkpt>
      <trkpt lat="43.61314" lon="1.32238">
        <ele>181.8</ele>
        <time>2025-10-18T09:45:07Z</time>
      </trkpt>
      <trkpt lat="43.61314" lon="1.3224">
        <ele>181.8</ele>
        <time>2025-10-18T09:45:08Z</time>
      </trkpt>
      <trkpt lat="43.61312" lon="1.32241">
        <ele>181.8</ele>
        <time>2025-10-18T09:45:09Z</time>
      </trkpt>
      <trkpt lat="43.6131" lon="1.32242">
        <ele>181.8</ele>
        <time>2025-10-18T09:45:10Z</time>
      </trkpt>
      <trkpt lat="43.61307" lon="1.32243">
        <ele>182</ele>
        <time>2025-10-18T09:45:11Z</time>
      </trkpt>
      <trkpt lat="43.61305" lon="1.32247">
        <ele>181.8</ele>
        <time>2025-10-18T09:45:12Z</time>
      </trkpt>
      <trkpt lat="43.61305" lon="1.32252">
        <ele>181.8</ele>
        <time>2025-10-18T09:45:13Z</time>
      </trkpt>
      <trkpt lat="43.61306" lon="1.32258">
        <ele>181.8</ele>
        <time>2025-10-18T09:45:14Z</time>
      </trkpt>
      <trkpt lat="43.61306" lon="1.32264">
        <ele>181.8</ele>
        <time>2025-10-18T09:45:15Z</time>
      </trkpt>
      <trkpt lat="43.61304" lon="1.3227">
        <ele>181.6</ele>
        <time>2025-10-18T09:45:16Z</time>
      </trkpt>
      <trkpt lat="43.613" lon="1.32274">
        <ele>181.6</ele>
        <time>2025-10-18T09:45:17Z</time>
      </trkpt>
      <trkpt lat="43.61295" lon="1.32275">
        <ele>181.4</ele>
        <time>2025-10-18T09:45:18Z</time>
      </trkpt>
      <trkpt lat="43.61291" lon="1.32272">
        <ele>181.2</ele>
        <time>2025-10-18T09:45:19Z</time>
      </trkpt>
      <trkpt lat="43.61286" lon="1.32269">
        <ele>181</ele>
        <time>2025-10-18T09:45:20Z</time>
      </trkpt>
      <trkpt lat="43.6128" lon="1.32266">
        <ele>180.8</ele>
        <time>2025-10-18T09:45:21Z</time>
      </trkpt>
      <trkpt lat="43.61274" lon="1.32263">
        <ele>180.6</ele>
        <time>2025-10-18T09:45:22Z</time>
      </trkpt>
      <trkpt lat="43.61268" lon="1.3226">
        <ele>180.4</ele>
        <time>2025-10-18T09:45:23Z</time>
      </trkpt>
      <trkpt lat="43.61262" lon="1.32258">
        <ele>180</ele>
        <time>2025-10-18T09:45:24Z</time>
      </trkpt>
      <trkpt lat="43.61256" lon="1.32255">
        <ele>179.8</ele>
        <time>2025-10-18T09:45:25Z</time>
      </trkpt>
      <trkpt lat="43.6125" lon="1.32253">
        <ele>179.8</ele>
        <time>2025-10-18T09:45:26Z</time>
      </trkpt>
      <trkpt lat="43.61245" lon="1.32252">
        <ele>179.8</ele>
        <time>2025-10-18T09:45:27Z</time>
      </trkpt>
      <trkpt lat="43.6124" lon="1.32247">
        <ele>179.8</ele>
        <time>2025-10-18T09:45:28Z</time>
      </trkpt>
      <trkpt lat="43.61238" lon="1.3224">
        <ele>180</ele>
        <time>2025-10-18T09:45:29Z</time>
      </trkpt>
      <trkpt lat="43.61238" lon="1.32232">
        <ele>180.2</ele>
        <time>2025-10-18T09:45:30Z</time>
      </trkpt>
      <trkpt lat="43.61238" lon="1.32225">
        <ele>180.2</ele>
        <time>2025-10-18T09:45:31Z</time>
      </trkpt>
      <trkpt lat="43.6124" lon="1.32218">
        <ele>180.4</ele>
        <time>2025-10-18T09:45:32Z</time>
      </trkpt>
      <trkpt lat="43.61242" lon="1.32211">
        <ele>180.6</ele>
        <time>2025-10-18T09:45:33Z</time>
      </trkpt>
      <trkpt lat="43.61244" lon="1.32203">
        <ele>180.6</ele>
        <time>2025-10-18T09:45:34Z</time>
      </trkpt>
      <trkpt lat="43.61245" lon="1.32196">
        <ele>180.8</ele>
        <time>2025-10-18T09:45:35Z</time>
      </trkpt>
      <trkpt lat="43.61245" lon="1.32189">
        <ele>181</ele>
        <time>2025-10-18T09:45:36Z</time>
      </trkpt>
      <trkpt lat="43.61242" lon="1.32184">
        <ele>181</ele>
        <time>2025-10-18T09:45:37Z</time>
      </trkpt>
      <trkpt lat="43.61239" lon="1.3218">
        <ele>181.2</ele>
        <time>2025-10-18T09:45:38Z</time>
      </trkpt>
      <trkpt lat="43.61239" lon="1.32173">
        <ele>181.2</ele>
        <time>2025-10-18T09:45:39Z</time>
      </trkpt>
      <trkpt lat="43.6124" lon="1.32165">
        <ele>181</ele>
        <time>2025-10-18T09:45:40Z</time>
      </trkpt>
      <trkpt lat="43.6124" lon="1.32156">
        <ele>180.6</ele>
        <time>2025-10-18T09:45:41Z</time>
      </trkpt>
      <trkpt lat="43.61241" lon="1.32147">
        <ele>180.2</ele>
        <time>2025-10-18T09:45:42Z</time>
      </trkpt>
      <trkpt lat="43.61241" lon="1.32136">
        <ele>179.6</ele>
        <time>2025-10-18T09:45:43Z</time>
      </trkpt>
      <trkpt lat="43.61241" lon="1.32126">
        <ele>179.2</ele>
        <time>2025-10-18T09:45:44Z</time>
      </trkpt>
      <trkpt lat="43.61242" lon="1.32116">
        <ele>178.6</ele>
        <time>2025-10-18T09:45:45Z</time>
      </trkpt>
      <trkpt lat="43.61243" lon="1.32105">
        <ele>178.4</ele>
        <time>2025-10-18T09:45:46Z</time>
      </trkpt>
      <trkpt lat="43.61243" lon="1.32094">
        <ele>178.2</ele>
        <time>2025-10-18T09:45:47Z</time>
      </trkpt>
      <trkpt lat="43.61243" lon="1.32083">
        <ele>178.2</ele>
        <time>2025-10-18T09:45:48Z</time>
      </trkpt>
      <trkpt lat="43.61243" lon="1.32071">
        <ele>178.2</ele>
        <time>2025-10-18T09:45:49Z</time>
      </trkpt>
      <trkpt lat="43.61243" lon="1.32059">
        <ele>178</ele>
        <time>2025-10-18T09:45:50Z</time>
      </trkpt>
      <trkpt lat="43.61242" lon="1.32048">
        <ele>178</ele>
        <time>2025-10-18T09:45:51Z</time>
      </trkpt>
      <trkpt lat="43.61241" lon="1.32037">
        <ele>178</ele>
        <time>2025-10-18T09:45:52Z</time>
      </trkpt>
      <trkpt lat="43.61238" lon="1.32026">
        <ele>178</ele>
        <time>2025-10-18T09:45:53Z</time>
      </trkpt>
      <trkpt lat="43.61235" lon="1.32016">
        <ele>177.8</ele>
        <time>2025-10-18T09:45:54Z</time>
      </trkpt>
      <trkpt lat="43.61233" lon="1.32006">
        <ele>178</ele>
        <time>2025-10-18T09:45:55Z</time>
      </trkpt>
      <trkpt lat="43.6123" lon="1.31996">
        <ele>178</ele>
        <time>2025-10-18T09:45:56Z</time>
      </trkpt>
      <trkpt lat="43.61227" lon="1.31985">
        <ele>178</ele>
        <time>2025-10-18T09:45:57Z</time>
      </trkpt>
      <trkpt lat="43.61224" lon="1.31974">
        <ele>178</ele>
        <time>2025-10-18T09:45:58Z</time>
      </trkpt>
      <trkpt lat="43.61223" lon="1.31962">
        <ele>177.8</ele>
        <time>2025-10-18T09:45:59Z</time>
      </trkpt>
      <trkpt lat="43.61224" lon="1.3195">
        <ele>177.6</ele>
        <time>2025-10-18T09:46:00Z</time>
      </trkpt>
      <trkpt lat="43.61224" lon="1.31938">
        <ele>177.4</ele>
        <time>2025-10-18T09:46:01Z</time>
      </trkpt>
      <trkpt lat="43.61224" lon="1.31927">
        <ele>177.2</ele>
        <time>2025-10-18T09:46:02Z</time>
      </trkpt>
      <trkpt lat="43.61225" lon="1.31916">
        <ele>176.8</ele>
        <time>2025-10-18T09:46:03Z</time>
      </trkpt>
      <trkpt lat="43.61225" lon="1.31904">
        <ele>176.4</ele>
        <time>2025-10-18T09:46:04Z</time>
      </trkpt>
      <trkpt lat="43.61225" lon="1.31893">
        <ele>176.2</ele>
        <time>2025-10-18T09:46:05Z</time>
      </trkpt>
      <trkpt lat="43.61224" lon="1.31883">
        <ele>176</ele>
        <time>2025-10-18T09:46:06Z</time>
      </trkpt>
      <trkpt lat="43.61223" lon="1.31875">
        <ele>176</ele>
        <time>2025-10-18T09:46:07Z</time>
      </trkpt>
      <trkpt lat="43.61223" lon="1.31868">
        <ele>176</ele>
        <time>2025-10-18T09:46:08Z</time>
      </trkpt>
      <trkpt lat="43.61226" lon="1.31864">
        <ele>176.4</ele>
        <time>2025-10-18T09:46:09Z</time>
      </trkpt>
      <trkpt lat="43.61227" lon="1.31863">
        <ele>176.6</ele>
        <time>2025-10-18T09:46:10Z</time>
      </trkpt>
      <trkpt lat="43.61229" lon="1.31862">
        <ele>177</ele>
        <time>2025-10-18T09:46:11Z</time>
      </trkpt>
      <trkpt lat="43.61232" lon="1.3186">
        <ele>177.2</ele>
        <time>2025-10-18T09:46:12Z</time>
      </trkpt>
      <trkpt lat="43.61234" lon="1.31856">
        <ele>177.4</ele>
        <time>2025-10-18T09:46:13Z</time>
      </trkpt>
      <trkpt lat="43.61236" lon="1.31852">
        <ele>177.4</ele>
        <time>2025-10-18T09:46:14Z</time>
      </trkpt>
      <trkpt lat="43.61238" lon="1.31846">
        <ele>177.2</ele>
        <time>2025-10-18T09:46:15Z</time>
      </trkpt>
      <trkpt lat="43.61239" lon="1.3184">
        <ele>177.2</ele>
        <time>2025-10-18T09:46:16Z</time>
      </trkpt>
      <trkpt lat="43.61241" lon="1.31833">
        <ele>177.2</ele>
        <time>2025-10-18T09:46:17Z</time>
      </trkpt>
      <trkpt lat="43.61242" lon="1.31826">
        <ele>177.2</ele>
        <time>2025-10-18T09:46:18Z</time>
      </trkpt>
      <trkpt lat="43.61243" lon="1.31819">
        <ele>177</ele>
        <time>2025-10-18T09:46:19Z</time>
      </trkpt>
      <trkpt lat="43.61244" lon="1.31812">
        <ele>176.8</ele>
        <time>2025-10-18T09:46:20Z</time>
      </trkpt>
      <trkpt lat="43.61245" lon="1.31806">
        <ele>176.8</ele>
        <time>2025-10-18T09:46:21Z</time>
      </trkpt>
      <trkpt lat="43.61246" lon="1.31798">
        <ele>176.8</ele>
        <time>2025-10-18T09:46:22Z</time>
      </trkpt>
      <trkpt lat="43.61247" lon="1.3179">
        <ele>176.6</ele>
        <time>2025-10-18T09:46:23Z</time>
      </trkpt>
      <trkpt lat="43.61248" lon="1.31783">
        <ele>176.6</ele>
        <time>2025-10-18T09:46:24Z</time>
      </trkpt>
      <trkpt lat="43.61249" lon="1.31775">
        <ele>176.6</ele>
        <time>2025-10-18T09:46:25Z</time>
      </trkpt>
      <trkpt lat="43.6125" lon="1.31766">
        <ele>176.6</ele>
        <time>2025-10-18T09:46:26Z</time>
      </trkpt>
      <trkpt lat="43.61251" lon="1.31758">
        <ele>176.6</ele>
        <time>2025-10-18T09:46:27Z</time>
      </trkpt>
      <trkpt lat="43.61252" lon="1.31749">
        <ele>176.6</ele>
        <time>2025-10-18T09:46:28Z</time>
      </trkpt>
      <trkpt lat="43.61253" lon="1.3174">
        <ele>176.4</ele>
        <time>2025-10-18T09:46:29Z</time>
      </trkpt>
      <trkpt lat="43.61254" lon="1.31731">
        <ele>176.4</ele>
        <time>2025-10-18T09:46:30Z</time>
      </trkpt>
      <trkpt lat="43.61254" lon="1.31721">
        <ele>176.4</ele>
        <time>2025-10-18T09:46:31Z</time>
      </trkpt>
      <trkpt lat="43.61255" lon="1.31711">
        <ele>176.4</ele>
        <time>2025-10-18T09:46:32Z</time>
      </trkpt>
      <trkpt lat="43.61256" lon="1.31702">
        <ele>176.2</ele>
        <time>2025-10-18T09:46:33Z</time>
      </trkpt>
      <trkpt lat="43.61257" lon="1.31692">
        <ele>176</ele>
        <time>2025-10-18T09:46:34Z</time>
      </trkpt>
      <trkpt lat="43.61258" lon="1.31681">
        <ele>176</ele>
        <time>2025-10-18T09:46:35Z</time>
      </trkpt>
      <trkpt lat="43.61259" lon="1.3167">
        <ele>176</ele>
        <time>2025-10-18T09:46:36Z</time>
      </trkpt>
      <trkpt lat="43.61259" lon="1.31659">
        <ele>176</ele>
        <time>2025-10-18T09:46:37Z</time>
      </trkpt>
      <trkpt lat="43.61259" lon="1.31649">
        <ele>176</ele>
        <time>2025-10-18T09:46:38Z</time>
      </trkpt>
      <trkpt lat="43.61259" lon="1.31639">
        <ele>176.2</ele>
        <time>2025-10-18T09:46:39Z</time>
      </trkpt>
      <trkpt lat="43.61259" lon="1.31629">
        <ele>176.2</ele>
        <time>2025-10-18T09:46:40Z</time>
      </trkpt>
      <trkpt lat="43.61259" lon="1.31619">
        <ele>176.6</ele>
        <time>2025-10-18T09:46:41Z</time>
      </trkpt>
      <trkpt lat="43.61258" lon="1.31609">
        <ele>176.8</ele>
        <time>2025-10-18T09:46:42Z</time>
      </trkpt>
      <trkpt lat="43.61257" lon="1.316">
        <ele>177.2</ele>
        <time>2025-10-18T09:46:43Z</time>
      </trkpt>
      <trkpt lat="43.61256" lon="1.31591">
        <ele>177.4</ele>
        <time>2025-10-18T09:46:44Z</time>
      </trkpt>
      <trkpt lat="43.61254" lon="1.31582">
        <ele>178</ele>
        <time>2025-10-18T09:46:45Z</time>
      </trkpt>
      <trkpt lat="43.61252" lon="1.31573">
        <ele>178.2</ele>
        <time>2025-10-18T09:46:46Z</time>
      </trkpt>
      <trkpt lat="43.61251" lon="1.31564">
        <ele>178.8</ele>
        <time>2025-10-18T09:46:47Z</time>
      </trkpt>
      <trkpt lat="43.61249" lon="1.31555">
        <ele>179.4</ele>
        <time>2025-10-18T09:46:48Z</time>
      </trkpt>
      <trkpt lat="43.61247" lon="1.31546">
        <ele>179.8</ele>
        <time>2025-10-18T09:46:49Z</time>
      </trkpt>
      <trkpt lat="43.61244" lon="1.31537">
        <ele>180.2</ele>
        <time>2025-10-18T09:46:50Z</time>
      </trkpt>
      <trkpt lat="43.61242" lon="1.31527">
        <ele>180.6</ele>
        <time>2025-10-18T09:46:51Z</time>
      </trkpt>
      <trkpt lat="43.6124" lon="1.31518">
        <ele>180.8</ele>
        <time>2025-10-18T09:46:52Z</time>
      </trkpt>
      <trkpt lat="43.61238" lon="1.31508">
        <ele>181</ele>
        <time>2025-10-18T09:46:53Z</time>
      </trkpt>
      <trkpt lat="43.61236" lon="1.31498">
        <ele>181</ele>
        <time>2025-10-18T09:46:54Z</time>
      </trkpt>
      <trkpt lat="43.61234" lon="1.31488">
        <ele>181.2</ele>
        <time>2025-10-18T09:46:55Z</time>
      </trkpt>
      <trkpt lat="43.61233" lon="1.31478">
        <ele>181.2</ele>
        <time>2025-10-18T09:46:56Z</time>
      </trkpt>
      <trkpt lat="43.61232" lon="1.31468">
        <ele>181.2</ele>
        <time>2025-10-18T09:46:57Z</time>
      </trkpt>
      <trkpt lat="43.61231" lon="1.31458">
        <ele>181.2</ele>
        <time>2025-10-18T09:46:58Z</time>
      </trkpt>
      <trkpt lat="43.6123" lon="1.31447">
        <ele>181.2</ele>
        <time>2025-10-18T09:46:59Z</time>
      </trkpt>
      <trkpt lat="43.61229" lon="1.31437">
        <ele>181.4</ele>
        <time>2025-10-18T09:47:00Z</time>
      </trkpt>
      <trkpt lat="43.61229" lon="1.31427">
        <ele>181.6</ele>
        <time>2025-10-18T09:47:01Z</time>
      </trkpt>
      <trkpt lat="43.61229" lon="1.31417">
        <ele>181.8</ele>
        <time>2025-10-18T09:47:02Z</time>
      </trkpt>
      <trkpt lat="43.6123" lon="1.31407">
        <ele>182</ele>
        <time>2025-10-18T09:47:03Z</time>
      </trkpt>
      <trkpt lat="43.6123" lon="1.31397">
        <ele>182</ele>
        <time>2025-10-18T09:47:04Z</time>
      </trkpt>
      <trkpt lat="43.6123" lon="1.31386">
        <ele>182</ele>
        <time>2025-10-18T09:47:05Z</time>
      </trkpt>
      <trkpt lat="43.61231" lon="1.31376">
        <ele>182</ele>
        <time>2025-10-18T09:47:06Z</time>
      </trkpt>
      <trkpt lat="43.61232" lon="1.31366">
        <ele>182</ele>
        <time>2025-10-18T09:47:07Z</time>
      </trkpt>
      <trkpt lat="43.61233" lon="1.31357">
        <ele>182</ele>
        <time>2025-10-18T09:47:08Z</time>
      </trkpt>
      <trkpt lat="43.61233" lon="1.31347">
        <ele>182</ele>
        <time>2025-10-18T09:47:09Z</time>
      </trkpt>
      <trkpt lat="43.61234" lon="1.31337">
        <ele>182</ele>
        <time>2025-10-18T09:47:10Z</time>
      </trkpt>
      <trkpt lat="43.61235" lon="1.31328">
        <ele>181.8</ele>
        <time>2025-10-18T09:47:11Z</time>
      </trkpt>
      <trkpt lat="43.61235" lon="1.31319">
        <ele>181.8</ele>
        <time>2025-10-18T09:47:12Z</time>
      </trkpt>
      <trkpt lat="43.61236" lon="1.3131">
        <ele>181.8</ele>
        <time>2025-10-18T09:47:13Z</time>
      </trkpt>
      <trkpt lat="43.61237" lon="1.31302">
        <ele>181.6</ele>
        <time>2025-10-18T09:47:14Z</time>
      </trkpt>
      <trkpt lat="43.61238" lon="1.31297">
        <ele>181.6</ele>
        <time>2025-10-18T09:47:15Z</time>
      </trkpt>
      <trkpt lat="43.6124" lon="1.31295">
        <ele>181.8</ele>
        <time>2025-10-18T09:47:16Z</time>
      </trkpt>
      <trkpt lat="43.61243" lon="1.31294">
        <ele>182</ele>
        <time>2025-10-18T09:47:17Z</time>
      </trkpt>
      <trkpt lat="43.61246" lon="1.31293">
        <ele>182</ele>
        <time>2025-10-18T09:47:18Z</time>
      </trkpt>
      <trkpt lat="43.61249" lon="1.31291">
        <ele>182.2</ele>
        <time>2025-10-18T09:47:19Z</time>
      </trkpt>
      <trkpt lat="43.61252" lon="1.31287">
        <ele>182.4</ele>
        <time>2025-10-18T09:47:20Z</time>
      </trkpt>
      <trkpt lat="43.61256" lon="1.31285">
        <ele>182.4</ele>
        <time>2025-10-18T09:47:21Z</time>
      </trkpt>
      <trkpt lat="43.6126" lon="1.31283">
        <ele>182.2</ele>
        <time>2025-10-18T09:47:22Z</time>
      </trkpt>
      <trkpt lat="43.61265" lon="1.31281">
        <ele>182.2</ele>
        <time>2025-10-18T09:47:23Z</time>
      </trkpt>
      <trkpt lat="43.6127" lon="1.31279">
        <ele>182.2</ele>
        <time>2025-10-18T09:47:24Z</time>
      </trkpt>
      <trkpt lat="43.61275" lon="1.31279">
        <ele>182</ele>
        <time>2025-10-18T09:47:25Z</time>
      </trkpt>
      <trkpt lat="43.61278" lon="1.31279">
        <ele>181.8</ele>
        <time>2025-10-18T09:47:26Z</time>
      </trkpt>
      <trkpt lat="43.61281" lon="1.3128">
        <ele>181.6</ele>
        <time>2025-10-18T09:47:27Z</time>
      </trkpt>
      <trkpt lat="43.61283" lon="1.31281">
        <ele>181.4</ele>
        <time>2025-10-18T09:47:28Z</time>
      </trkpt>
      <trkpt lat="43.61286" lon="1.31281">
        <ele>181.2</ele>
        <time>2025-10-18T09:47:29Z</time>
      </trkpt>
      <trkpt lat="43.61288" lon="1.31283">
        <ele>181</ele>
        <time>2025-10-18T09:47:30Z</time>
      </trkpt>
      <trkpt lat="43.61292" lon="1.31285">
        <ele>180.6</ele>
        <time>2025-10-18T09:47:31Z</time>
      </trkpt>
      <trkpt lat="43.61297" lon="1.31288">
        <ele>180.2</ele>
        <time>2025-10-18T09:47:32Z</time>
      </trkpt>
      <trkpt lat="43.61301" lon="1.31294">
        <ele>179.8</ele>
        <time>2025-10-18T09:47:33Z</time>
      </trkpt>
      <trkpt lat="43.61307" lon="1.31301">
        <ele>179</ele>
        <time>2025-10-18T09:47:34Z</time>
      </trkpt>
      <trkpt lat="43.61313" lon="1.31308">
        <ele>178.2</ele>
        <time>2025-10-18T09:47:35Z</time>
      </trkpt>
      <trkpt lat="43.61319" lon="1.31316">
        <ele>177.6</ele>
        <time>2025-10-18T09:47:36Z</time>
      </trkpt>
      <trkpt lat="43.61326" lon="1.31324">
        <ele>176.8</ele>
        <time>2025-10-18T09:47:37Z</time>
      </trkpt>
      <trkpt lat="43.61333" lon="1.31331">
        <ele>176</ele>
        <time>2025-10-18T09:47:38Z</time>
      </trkpt>
      <trkpt lat="43.6134" lon="1.31338">
        <ele>175.2</ele>
        <time>2025-10-18T09:47:39Z</time>
      </trkpt>
      <trkpt lat="43.61347" lon="1.31344">
        <ele>174.6</ele>
        <time>2025-10-18T09:47:40Z</time>
      </trkpt>
      <trkpt lat="43.61354" lon="1.3135">
        <ele>174.2</ele>
        <time>2025-10-18T09:47:41Z</time>
      </trkpt>
      <trkpt lat="43.61362" lon="1.31354">
        <ele>173.8</ele>
        <time>2025-10-18T09:47:42Z</time>
      </trkpt>
      <trkpt lat="43.61369" lon="1.31358">
        <ele>173.6</ele>
        <time>2025-10-18T09:47:43Z</time>
      </trkpt>
      <trkpt lat="43.61377" lon="1.31361">
        <ele>173.6</ele>
        <time>2025-10-18T09:47:44Z</time>
      </trkpt>
      <trkpt lat="43.61385" lon="1.31363">
        <ele>173.4</ele>
        <time>2025-10-18T09:47:45Z</time>
      </trkpt>
      <trkpt lat="43.61393" lon="1.31365">
        <ele>173.4</ele>
        <time>2025-10-18T09:47:46Z</time>
      </trkpt>
      <trkpt lat="43.61401" lon="1.31366">
        <ele>173.4</ele>
        <time>2025-10-18T09:47:47Z</time>
      </trkpt>
      <trkpt lat="43.61407" lon="1.31365">
        <ele>173.8</ele>
        <time>2025-10-18T09:47:48Z</time>
      </trkpt>
      <trkpt lat="43.61414" lon="1.31363">
        <ele>174.2</ele>
        <time>2025-10-18T09:47:49Z</time>
      </trkpt>
      <trkpt lat="43.6142" lon="1.3136">
        <ele>174.8</ele>
        <time>2025-10-18T09:47:50Z</time>
      </trkpt>
      <trkpt lat="43.61424" lon="1.31355">
        <ele>175.6</ele>
        <time>2025-10-18T09:47:51Z</time>
      </trkpt>
      <trkpt lat="43.61428" lon="1.31349">
        <ele>176.2</ele>
        <time>2025-10-18T09:47:52Z</time>
      </trkpt>
      <trkpt lat="43.61431" lon="1.31341">
        <ele>176.6</ele>
        <time>2025-10-18T09:47:53Z</time>
      </trkpt>
      <trkpt lat="43.61435" lon="1.31333">
        <ele>176.8</ele>
        <time>2025-10-18T09:47:54Z</time>
      </trkpt>
      <trkpt lat="43.61438" lon="1.31324">
        <ele>176.6</ele>
        <time>2025-10-18T09:47:55Z</time>
      </trkpt>
      <trkpt lat="43.61439" lon="1.31315">
        <ele>176.4</ele>
        <time>2025-10-18T09:47:56Z</time>
      </trkpt>
      <trkpt lat="43.61437" lon="1.31306">
        <ele>176</ele>
        <time>2025-10-18T09:47:57Z</time>
      </trkpt>
      <trkpt lat="43.61434" lon="1.31298">
        <ele>175.8</ele>
        <time>2025-10-18T09:47:58Z</time>
      </trkpt>
      <trkpt lat="43.6143" lon="1.3129">
        <ele>175.4</ele>
        <time>2025-10-18T09:47:59Z</time>
      </trkpt>
      <trkpt lat="43.61425" lon="1.31284">
        <ele>175.2</ele>
        <time>2025-10-18T09:48:00Z</time>
      </trkpt>
      <trkpt lat="43.6142" lon="1.3128">
        <ele>174.8</ele>
        <time>2025-10-18T09:48:01Z</time>
      </trkpt>
      <trkpt lat="43.61413" lon="1.31278">
        <ele>174.6</ele>
        <time>2025-10-18T09:48:02Z</time>
      </trkpt>
      <trkpt lat="43.61406" lon="1.3128">
        <ele>174.4</ele>
        <time>2025-10-18T09:48:03Z</time>
      </trkpt>
      <trkpt lat="43.614" lon="1.31285">
        <ele>174.4</ele>
        <time>2025-10-18T09:48:04Z</time>
      </trkpt>
      <trkpt lat="43.61395" lon="1.3129">
        <ele>174.2</ele>
        <time>2025-10-18T09:48:05Z</time>
      </trkpt>
      <trkpt lat="43.61389" lon="1.31293">
        <ele>174</ele>
        <time>2025-10-18T09:48:06Z</time>
      </trkpt>
      <trkpt lat="43.61382" lon="1.31292">
        <ele>174</ele>
        <time>2025-10-18T09:48:07Z</time>
      </trkpt>
      <trkpt lat="43.61377" lon="1.31287">
        <ele>174</ele>
        <time>2025-10-18T09:48:08Z</time>
      </trkpt>
      <trkpt lat="43.61373" lon="1.31281">
        <ele>174</ele>
        <time>2025-10-18T09:48:09Z</time>
      </trkpt>
      <trkpt lat="43.61369" lon="1.31275">
        <ele>174.2</ele>
        <time>2025-10-18T09:48:10Z</time>
      </trkpt>
      <trkpt lat="43.61366" lon="1.31267">
        <ele>174.2</ele>
        <time>2025-10-18T09:48:11Z</time>
      </trkpt>
      <trkpt lat="43.61362" lon="1.3126">
        <ele>174.2</ele>
        <time>2025-10-18T09:48:12Z</time>
      </trkpt>
      <trkpt lat="43.61357" lon="1.31254">
        <ele>174</ele>
        <time>2025-10-18T09:48:13Z</time>
      </trkpt>
      <trkpt lat="43.61353" lon="1.31247">
        <ele>174</ele>
        <time>2025-10-18T09:48:14Z</time>
      </trkpt>
      <trkpt lat="43.61348" lon="1.31242">
        <ele>173.8</ele>
        <time>2025-10-18T09:48:15Z</time>
      </trkpt>
      <trkpt lat="43.61343" lon="1.31236">
        <ele>173.8</ele>
        <time>2025-10-18T09:48:16Z</time>
      </trkpt>
      <trkpt lat="43.61339" lon="1.31228">
        <ele>174.2</ele>
        <time>2025-10-18T09:48:17Z</time>
      </trkpt>
      <trkpt lat="43.61339" lon="1.31221">
        <ele>174.4</ele>
        <time>2025-10-18T09:48:18Z</time>
      </trkpt>
      <trkpt lat="43.61338" lon="1.31213">
        <ele>174.8</ele>
        <time>2025-10-18T09:48:19Z</time>
      </trkpt>
      <trkpt lat="43.61337" lon="1.31206">
        <ele>175.4</ele>
        <time>2025-10-18T09:48:20Z</time>
      </trkpt>
      <trkpt lat="43.61335" lon="1.31198">
        <ele>175.8</ele>
        <time>2025-10-18T09:48:21Z</time>
      </trkpt>
      <trkpt lat="43.61332" lon="1.31192">
        <ele>176.2</ele>
        <time>2025-10-18T09:48:22Z</time>
      </trkpt>
      <trkpt lat="43.61329" lon="1.31185">
        <ele>176.6</ele>
        <time>2025-10-18T09:48:23Z</time>
      </trkpt>
      <trkpt lat="43.61325" lon="1.31178">
        <ele>176.8</ele>
        <time>2025-10-18T09:48:24Z</time>
      </trkpt>
      <trkpt lat="43.61322" lon="1.31171">
        <ele>177</ele>
        <time>2025-10-18T09:48:25Z</time>
      </trkpt>
      <trkpt lat="43.61318" lon="1.31165">
        <ele>177.2</ele>
        <time>2025-10-18T09:48:26Z</time>
      </trkpt>
      <trkpt lat="43.61313" lon="1.31161">
        <ele>177.4</ele>
        <time>2025-10-18T09:48:27Z</time>
      </trkpt>
      <trkpt lat="43.61308" lon="1.31158">
        <ele>177.4</ele>
        <time>2025-10-18T09:48:28Z</time>
      </trkpt>
      <trkpt lat="43.61302" lon="1.31157">
        <ele>177.2</ele>
        <time>2025-10-18T09:48:29Z</time>
      </trkpt>
      <trkpt lat="43.61297" lon="1.3116">
        <ele>177</ele>
        <time>2025-10-18T09:48:30Z</time>
      </trkpt>
      <trkpt lat="43.6129" lon="1.31162">
        <ele>176.8</ele>
        <time>2025-10-18T09:48:31Z</time>
      </trkpt>
      <trkpt lat="43.61284" lon="1.31163">
        <ele>176.6</ele>
        <time>2025-10-18T09:48:32Z</time>
      </trkpt>
      <trkpt lat="43.61278" lon="1.31164">
        <ele>176.6</ele>
        <time>2025-10-18T09:48:33Z</time>
      </trkpt>
      <trkpt lat="43.61271" lon="1.31165">
        <ele>176.6</ele>
        <time>2025-10-18T09:48:34Z</time>
      </trkpt>
      <trkpt lat="43.61266" lon="1.31166">
        <ele>176.8</ele>
        <time>2025-10-18T09:48:35Z</time>
      </trkpt>
      <trkpt lat="43.6126" lon="1.31167">
        <ele>177</ele>
        <time>2025-10-18T09:48:36Z</time>
      </trkpt>
      <trkpt lat="43.61257" lon="1.31167">
        <ele>177.4</ele>
        <time>2025-10-18T09:48:37Z</time>
      </trkpt>
      <trkpt lat="43.61253" lon="1.31167">
        <ele>177.8</ele>
        <time>2025-10-18T09:48:38Z</time>
      </trkpt>
      <trkpt lat="43.6125" lon="1.31168">
        <ele>178.2</ele>
        <time>2025-10-18T09:48:39Z</time>
      </trkpt>
      <trkpt lat="43.61247" lon="1.31168">
        <ele>178.4</ele>
        <time>2025-10-18T09:48:40Z</time>
      </trkpt>
      <trkpt lat="43.61245" lon="1.31168">
        <ele>178.8</ele>
        <time>2025-10-18T09:48:41Z</time>
      </trkpt>
      <trkpt lat="43.61242" lon="1.31168">
        <ele>179</ele>
        <time>2025-10-18T09:48:42Z</time>
      </trkpt>
      <trkpt lat="43.61239" lon="1.31167">
        <ele>179.2</ele>
        <time>2025-10-18T09:48:43Z</time>
      </trkpt>
      <trkpt lat="43.61237" lon="1.31166">
        <ele>179.2</ele>
        <time>2025-10-18T09:48:44Z</time>
      </trkpt>
      <trkpt lat="43.61235" lon="1.31165">
        <ele>179.4</ele>
        <time>2025-10-18T09:48:45Z</time>
      </trkpt>
      <trkpt lat="43.61233" lon="1.31165">
        <ele>179.6</ele>
        <time>2025-10-18T09:48:46Z</time>
      </trkpt>
      <trkpt lat="43.6123" lon="1.31164">
        <ele>179.6</ele>
        <time>2025-10-18T09:48:47Z</time>
      </trkpt>
      <trkpt lat="43.61227" lon="1.31164">
        <ele>179.8</ele>
        <time>2025-10-18T09:48:48Z</time>
      </trkpt>
      <trkpt lat="43.61223" lon="1.31163">
        <ele>180</ele>
        <time>2025-10-18T09:48:49Z</time>
      </trkpt>
      <trkpt lat="43.61219" lon="1.31161">
        <ele>180</ele>
        <time>2025-10-18T09:48:50Z</time>
      </trkpt>
      <trkpt lat="43.61215" lon="1.3116">
        <ele>180.2</ele>
        <time>2025-10-18T09:48:51Z</time>
      </trkpt>
      <trkpt lat="43.61211" lon="1.31159">
        <ele>180.2</ele>
        <time>2025-10-18T09:48:52Z</time>
      </trkpt>
      <trkpt lat="43.61208" lon="1.31157">
        <ele>180.4</ele>
        <time>2025-10-18T09:48:53Z</time>
      </trkpt>
      <trkpt lat="43.61205" lon="1.31155">
        <ele>180.6</ele>
        <time>2025-10-18T09:48:54Z</time>
      </trkpt>
      <trkpt lat="43.61201" lon="1.31153">
        <ele>181</ele>
        <time>2025-10-18T09:48:55Z</time>
      </trkpt>
      <trkpt lat="43.61197" lon="1.31151">
        <ele>181.4</ele>
        <time>2025-10-18T09:48:56Z</time>
      </trkpt>
      <trkpt lat="43.61193" lon="1.3115">
        <ele>181.8</ele>
        <time>2025-10-18T09:48:57Z</time>
      </trkpt>
      <trkpt lat="43.61189" lon="1.31148">
        <ele>182.2</ele>
        <time>2025-10-18T09:48:58Z</time>
      </trkpt>
      <trkpt lat="43.61185" lon="1.31147">
        <ele>182.4</ele>
        <time>2025-10-18T09:48:59Z</time>
      </trkpt>
      <trkpt lat="43.61181" lon="1.31147">
        <ele>182.8</ele>
        <time>2025-10-18T09:49:00Z</time>
      </trkpt>
      <trkpt lat="43.61177" lon="1.31147">
        <ele>182.8</ele>
        <time>2025-10-18T09:49:01Z</time>
      </trkpt>
      <trkpt lat="43.61172" lon="1.31147">
        <ele>183</ele>
        <time>2025-10-18T09:49:02Z</time>
      </trkpt>
      <trkpt lat="43.61168" lon="1.31148">
        <ele>183.2</ele>
        <time>2025-10-18T09:49:03Z</time>
      </trkpt>
      <trkpt lat="43.61164" lon="1.3115">
        <ele>183.4</ele>
        <time>2025-10-18T09:49:04Z</time>
      </trkpt>
      <trkpt lat="43.6116" lon="1.31151">
        <ele>183.8</ele>
        <time>2025-10-18T09:49:05Z</time>
      </trkpt>
      <trkpt lat="43.61156" lon="1.31153">
        <ele>184.2</ele>
        <time>2025-10-18T09:49:06Z</time>
      </trkpt>
      <trkpt lat="43.61153" lon="1.31154">
        <ele>184.6</ele>
        <time>2025-10-18T09:49:07Z</time>
      </trkpt>
      <trkpt lat="43.61149" lon="1.31156">
        <ele>185</ele>
        <time>2025-10-18T09:49:08Z</time>
      </trkpt>
      <trkpt lat="43.61145" lon="1.31157">
        <ele>185.6</ele>
        <time>2025-10-18T09:49:09Z</time>
      </trkpt>
      <trkpt lat="43.61141" lon="1.31157">
        <ele>186.2</ele>
        <time>2025-10-18T09:49:10Z</time>
      </trkpt>
      <trkpt lat="43.61138" lon="1.31157">
        <ele>186.8</ele>
        <time>2025-10-18T09:49:11Z</time>
      </trkpt>
      <trkpt lat="43.61134" lon="1.31156">
        <ele>187.2</ele>
        <time>2025-10-18T09:49:12Z</time>
      </trkpt>
      <trkpt lat="43.6113" lon="1.31155">
        <ele>187.4</ele>
        <time>2025-10-18T09:49:13Z</time>
      </trkpt>
      <trkpt lat="43.61125" lon="1.31154">
        <ele>187.6</ele>
        <time>2025-10-18T09:49:14Z</time>
      </trkpt>
      <trkpt lat="43.61121" lon="1.31152">
        <ele>187.8</ele>
        <time>2025-10-18T09:49:15Z</time>
      </trkpt>
      <trkpt lat="43.61117" lon="1.3115">
        <ele>187.8</ele>
        <time>2025-10-18T09:49:16Z</time>
      </trkpt>
      <trkpt lat="43.61112" lon="1.31149">
        <ele>187.8</ele>
        <time>2025-10-18T09:49:17Z</time>
      </trkpt>
      <trkpt lat="43.61107" lon="1.31147">
        <ele>187.8</ele>
        <time>2025-10-18T09:49:18Z</time>
      </trkpt>
      <trkpt lat="43.61102" lon="1.31145">
        <ele>187.8</ele>
        <time>2025-10-18T09:49:19Z</time>
      </trkpt>
      <trkpt lat="43.61096" lon="1.31143">
        <ele>187.6</ele>
        <time>2025-10-18T09:49:20Z</time>
      </trkpt>
      <trkpt lat="43.6109" lon="1.31143">
        <ele>187.8</ele>
        <time>2025-10-18T09:49:21Z</time>
      </trkpt>
      <trkpt lat="43.61085" lon="1.31143">
        <ele>187.8</ele>
        <time>2025-10-18T09:49:22Z</time>
      </trkpt>
      <trkpt lat="43.6108" lon="1.31145">
        <ele>187.6</ele>
        <time>2025-10-18T09:49:23Z</time>
      </trkpt>
      <trkpt lat="43.61075" lon="1.31147">
        <ele>187.6</ele>
        <time>2025-10-18T09:49:24Z</time>
      </trkpt>
      <trkpt lat="43.6107" lon="1.31151">
        <ele>187.6</ele>
        <time>2025-10-18T09:49:25Z</time>
      </trkpt>
      <trkpt lat="43.61065" lon="1.31155">
        <ele>187.6</ele>
        <time>2025-10-18T09:49:26Z</time>
      </trkpt>
      <trkpt lat="43.61061" lon="1.3116">
        <ele>187.6</ele>
        <time>2025-10-18T09:49:27Z</time>
      </trkpt>
      <trkpt lat="43.61057" lon="1.31165">
        <ele>187.6</ele>
        <time>2025-10-18T09:49:28Z</time>
      </trkpt>
      <trkpt lat="43.61053" lon="1.31171">
        <ele>187.6</ele>
        <time>2025-10-18T09:49:29Z</time>
      </trkpt>
      <trkpt lat="43.61049" lon="1.31177">
        <ele>187.6</ele>
        <time>2025-10-18T09:49:30Z</time>
      </trkpt>
      <trkpt lat="43.61045" lon="1.31183">
        <ele>187.6</ele>
        <time>2025-10-18T09:49:31Z</time>
      </trkpt>
      <trkpt lat="43.6104" lon="1.31189">
        <ele>187.6</ele>
        <time>2025-10-18T09:49:32Z</time>
      </trkpt>
      <trkpt lat="43.61036" lon="1.31195">
        <ele>187.6</ele>
        <time>2025-10-18T09:49:33Z</time>
      </trkpt>
      <trkpt lat="43.61031" lon="1.31201">
        <ele>187.4</ele>
        <time>2025-10-18T09:49:34Z</time>
      </trkpt>
      <trkpt lat="43.61027" lon="1.31207">
        <ele>187.2</ele>
        <time>2025-10-18T09:49:35Z</time>
      </trkpt>
      <trkpt lat="43.61023" lon="1.31213">
        <ele>187.2</ele>
        <time>2025-10-18T09:49:36Z</time>
      </trkpt>
      <trkpt lat="43.61018" lon="1.3122">
        <ele>187</ele>
        <time>2025-10-18T09:49:37Z</time>
      </trkpt>
      <trkpt lat="43.61014" lon="1.31226">
        <ele>187</ele>
        <time>2025-10-18T09:49:38Z</time>
      </trkpt>
      <trkpt lat="43.61009" lon="1.31233">
        <ele>187</ele>
        <time>2025-10-18T09:49:39Z</time>
      </trkpt>
      <trkpt lat="43.61006" lon="1.31239">
        <ele>187</ele>
        <time>2025-10-18T09:49:40Z</time>
      </trkpt>
      <trkpt lat="43.61003" lon="1.31245">
        <ele>187.2</ele>
        <time>2025-10-18T09:49:41Z</time>
      </trkpt>
      <trkpt lat="43.61" lon="1.31251">
        <ele>187.4</ele>
        <time>2025-10-18T09:49:42Z</time>
      </trkpt>
      <trkpt lat="43.60997" lon="1.31257">
        <ele>187.8</ele>
        <time>2025-10-18T09:49:43Z</time>
      </trkpt>
      <trkpt lat="43.60993" lon="1.31263">
        <ele>187.8</ele>
        <time>2025-10-18T09:49:44Z</time>
      </trkpt>
      <trkpt lat="43.60988" lon="1.3127">
        <ele>187.6</ele>
        <time>2025-10-18T09:49:45Z</time>
      </trkpt>
      <trkpt lat="43.60983" lon="1.31275">
        <ele>187.4</ele>
        <time>2025-10-18T09:49:46Z</time>
      </trkpt>
      <trkpt lat="43.60979" lon="1.31281">
        <ele>187.2</ele>
        <time>2025-10-18T09:49:47Z</time>
      </trkpt>
      <trkpt lat="43.60974" lon="1.31287">
        <ele>187</ele>
        <time>2025-10-18T09:49:48Z</time>
      </trkpt>
      <trkpt lat="43.6097" lon="1.31292">
        <ele>186.8</ele>
        <time>2025-10-18T09:49:49Z</time>
      </trkpt>
      <trkpt lat="43.60966" lon="1.31297">
        <ele>187</ele>
        <time>2025-10-18T09:49:50Z</time>
      </trkpt>
      <trkpt lat="43.60962" lon="1.31301">
        <ele>187.2</ele>
        <time>2025-10-18T09:49:51Z</time>
      </trkpt>
      <trkpt lat="43.60959" lon="1.31305">
        <ele>187.6</ele>
        <time>2025-10-18T09:49:52Z</time>
      </trkpt>
      <trkpt lat="43.60955" lon="1.31308">
        <ele>188</ele>
        <time>2025-10-18T09:49:53Z</time>
      </trkpt>
      <trkpt lat="43.6095" lon="1.31309">
        <ele>188.2</ele>
        <time>2025-10-18T09:49:54Z</time>
      </trkpt>
      <trkpt lat="43.60945" lon="1.31309">
        <ele>188</ele>
        <time>2025-10-18T09:49:55Z</time>
      </trkpt>
      <trkpt lat="43.60939" lon="1.31309">
        <ele>187.6</ele>
        <time>2025-10-18T09:49:56Z</time>
      </trkpt>
      <trkpt lat="43.60933" lon="1.31309">
        <ele>186.8</ele>
        <time>2025-10-18T09:49:57Z</time>
      </trkpt>
      <trkpt lat="43.60928" lon="1.31309">
        <ele>185.6</ele>
        <time>2025-10-18T09:49:58Z</time>
      </trkpt>
      <trkpt lat="43.60922" lon="1.31309">
        <ele>184.6</ele>
        <time>2025-10-18T09:49:59Z</time>
      </trkpt>
      <trkpt lat="43.60917" lon="1.31312">
        <ele>183.6</ele>
        <time>2025-10-18T09:50:00Z</time>
      </trkpt>
      <trkpt lat="43.60911" lon="1.31314">
        <ele>182.8</ele>
        <time>2025-10-18T09:50:01Z</time>
      </trkpt>
      <trkpt lat="43.60905" lon="1.31314">
        <ele>181.8</ele>
        <time>2025-10-18T09:50:02Z</time>
      </trkpt>
      <trkpt lat="43.60898" lon="1.31312">
        <ele>181</ele>
        <time>2025-10-18T09:50:03Z</time>
      </trkpt>
      <trkpt lat="43.60891" lon="1.3131">
        <ele>180.4</ele>
        <time>2025-10-18T09:50:04Z</time>
      </trkpt>
      <trkpt lat="43.60886" lon="1.31308">
        <ele>179.8</ele>
        <time>2025-10-18T09:50:05Z</time>
      </trkpt>
      <trkpt lat="43.60882" lon="1.31307">
        <ele>179.2</ele>
        <time>2025-10-18T09:50:06Z</time>
      </trkpt>
      <trkpt lat="43.60879" lon="1.31308">
        <ele>178.8</ele>
        <time>2025-10-18T09:50:07Z</time>
      </trkpt>
      <trkpt lat="43.60876" lon="1.31311">
        <ele>178.6</ele>
        <time>2025-10-18T09:50:08Z</time>
      </trkpt>
      <trkpt lat="43.60875" lon="1.31315">
        <ele>178.4</ele>
        <time>2025-10-18T09:50:09Z</time>
      </trkpt>
      <trkpt lat="43.60873" lon="1.31318">
        <ele>178.4</ele>
        <time>2025-10-18T09:50:10Z</time>
      </trkpt>
      <trkpt lat="43.6087" lon="1.31318">
        <ele>178.6</ele>
        <time>2025-10-18T09:50:11Z</time>
      </trkpt>
      <trkpt lat="43.60868" lon="1.31316">
        <ele>178.8</ele>
        <time>2025-10-18T09:50:12Z</time>
      </trkpt>
      <trkpt lat="43.60866" lon="1.31313">
        <ele>178.8</ele>
        <time>2025-10-18T09:50:13Z</time>
      </trkpt>
      <trkpt lat="43.60862" lon="1.3131">
        <ele>179</ele>
        <time>2025-10-18T09:50:14Z</time>
      </trkpt>
      <trkpt lat="43.60858" lon="1.31306">
        <ele>179</ele>
        <time>2025-10-18T09:50:15Z</time>
      </trkpt>
      <trkpt lat="43.60854" lon="1.31303">
        <ele>179</ele>
        <time>2025-10-18T09:50:16Z</time>
      </trkpt>
      <trkpt lat="43.60851" lon="1.31299">
        <ele>179</ele>
        <time>2025-10-18T09:50:17Z</time>
      </trkpt>
      <trkpt lat="43.60847" lon="1.31296">
        <ele>179</ele>
        <time>2025-10-18T09:50:18Z</time>
      </trkpt>
      <trkpt lat="43.60843" lon="1.31293">
        <ele>178.8</ele>
        <time>2025-10-18T09:50:19Z</time>
      </trkpt>
      <trkpt lat="43.60838" lon="1.3129">
        <ele>179</ele>
        <time>2025-10-18T09:50:20Z</time>
      </trkpt>
      <trkpt lat="43.60834" lon="1.31287">
        <ele>179</ele>
        <time>2025-10-18T09:50:21Z</time>
      </trkpt>
      <trkpt lat="43.6083" lon="1.31283">
        <ele>179</ele>
        <time>2025-10-18T09:50:22Z</time>
      </trkpt>
      <trkpt lat="43.60825" lon="1.3128">
        <ele>179</ele>
        <time>2025-10-18T09:50:23Z</time>
      </trkpt>
      <trkpt lat="43.6082" lon="1.31277">
        <ele>179</ele>
        <time>2025-10-18T09:50:24Z</time>
      </trkpt>
      <trkpt lat="43.60815" lon="1.31275">
        <ele>179.2</ele>
        <time>2025-10-18T09:50:25Z</time>
      </trkpt>
      <trkpt lat="43.60811" lon="1.31273">
        <ele>179.2</ele>
        <time>2025-10-18T09:50:26Z</time>
      </trkpt>
      <trkpt lat="43.60806" lon="1.3127">
        <ele>179.2</ele>
        <time>2025-10-18T09:50:27Z</time>
      </trkpt>
      <trkpt lat="43.60801" lon="1.31269">
        <ele>179.2</ele>
        <time>2025-10-18T09:50:28Z</time>
      </trkpt>
      <trkpt lat="43.60795" lon="1.31267">
        <ele>179.2</ele>
        <time>2025-10-18T09:50:29Z</time>
      </trkpt>
      <trkpt lat="43.60791" lon="1.31264">
        <ele>179.2</ele>
        <time>2025-10-18T09:50:30Z</time>
      </trkpt>
      <trkpt lat="43.60786" lon="1.31261">
        <ele>179.2</ele>
        <time>2025-10-18T09:50:31Z</time>
      </trkpt>
      <trkpt lat="43.60781" lon="1.31259">
        <ele>179.2</ele>
        <time>2025-10-18T09:50:32Z</time>
      </trkpt>
      <trkpt lat="43.60777" lon="1.31257">
        <ele>179.2</ele>
        <time>2025-10-18T09:50:33Z</time>
      </trkpt>
      <trkpt lat="43.60772" lon="1.31254">
        <ele>179.4</ele>
        <time>2025-10-18T09:50:34Z</time>
      </trkpt>
      <trkpt lat="43.60767" lon="1.31252">
        <ele>179.4</ele>
        <time>2025-10-18T09:50:35Z</time>
      </trkpt>
      <trkpt lat="43.60763" lon="1.31249">
        <ele>179.4</ele>
        <time>2025-10-18T09:50:36Z</time>
      </trkpt>
      <trkpt lat="43.60758" lon="1.31246">
        <ele>179.2</ele>
        <time>2025-10-18T09:50:37Z</time>
      </trkpt>
      <trkpt lat="43.60752" lon="1.31243">
        <ele>179.2</ele>
        <time>2025-10-18T09:50:38Z</time>
      </trkpt>
      <trkpt lat="43.60747" lon="1.3124">
        <ele>179.2</ele>
        <time>2025-10-18T09:50:39Z</time>
      </trkpt>
      <trkpt lat="43.60741" lon="1.31237">
        <ele>179.2</ele>
        <time>2025-10-18T09:50:40Z</time>
      </trkpt>
      <trkpt lat="43.60735" lon="1.31234">
        <ele>179.2</ele>
        <time>2025-10-18T09:50:41Z</time>
      </trkpt>
      <trkpt lat="43.60729" lon="1.3123">
        <ele>179.2</ele>
        <time>2025-10-18T09:50:42Z</time>
      </trkpt>
      <trkpt lat="43.60724" lon="1.31227">
        <ele>179.2</ele>
        <time>2025-10-18T09:50:43Z</time>
      </trkpt>
      <trkpt lat="43.60718" lon="1.31225">
        <ele>179.2</ele>
        <time>2025-10-18T09:50:44Z</time>
      </trkpt>
      <trkpt lat="43.60712" lon="1.31224">
        <ele>179.2</ele>
        <time>2025-10-18T09:50:45Z</time>
      </trkpt>
      <trkpt lat="43.60707" lon="1.31222">
        <ele>179.4</ele>
        <time>2025-10-18T09:50:46Z</time>
      </trkpt>
      <trkpt lat="43.60703" lon="1.3122">
        <ele>179.4</ele>
        <time>2025-10-18T09:50:47Z</time>
      </trkpt>
      <trkpt lat="43.60698" lon="1.31218">
        <ele>179.4</ele>
        <time>2025-10-18T09:50:48Z</time>
      </trkpt>
      <trkpt lat="43.60693" lon="1.31217">
        <ele>179.6</ele>
        <time>2025-10-18T09:50:49Z</time>
      </trkpt>
      <trkpt lat="43.60689" lon="1.31217">
        <ele>179.8</ele>
        <time>2025-10-18T09:50:50Z</time>
      </trkpt>
      <trkpt lat="43.60684" lon="1.31218">
        <ele>179.8</ele>
        <time>2025-10-18T09:50:51Z</time>
      </trkpt>
      <trkpt lat="43.6068" lon="1.31222">
        <ele>180</ele>
        <time>2025-10-18T09:50:52Z</time>
      </trkpt>
      <trkpt lat="43.60678" lon="1.31225">
        <ele>180.4</ele>
        <time>2025-10-18T09:50:53Z</time>
      </trkpt>
      <trkpt lat="43.60677" lon="1.31229">
        <ele>180.8</ele>
        <time>2025-10-18T09:50:54Z</time>
      </trkpt>
      <trkpt lat="43.60677" lon="1.31232">
        <ele>181.2</ele>
        <time>2025-10-18T09:50:55Z</time>
      </trkpt>
      <trkpt lat="43.60677" lon="1.31236">
        <ele>181.8</ele>
        <time>2025-10-18T09:50:56Z</time>
      </trkpt>
      <trkpt lat="43.60676" lon="1.3124">
        <ele>182.2</ele>
        <time>2025-10-18T09:50:57Z</time>
      </trkpt>
      <trkpt lat="43.60675" lon="1.31244">
        <ele>182.6</ele>
        <time>2025-10-18T09:50:58Z</time>
      </trkpt>
      <trkpt lat="43.60674" lon="1.31248">
        <ele>183.2</ele>
        <time>2025-10-18T09:50:59Z</time>
      </trkpt>
      <trkpt lat="43.60674" lon="1.31253">
        <ele>183.4</ele>
        <time>2025-10-18T09:51:00Z</time>
      </trkpt>
      <trkpt lat="43.60674" lon="1.31258">
        <ele>183.6</ele>
        <time>2025-10-18T09:51:01Z</time>
      </trkpt>
      <trkpt lat="43.60675" lon="1.31263">
        <ele>183.8</ele>
        <time>2025-10-18T09:51:02Z</time>
      </trkpt>
      <trkpt lat="43.60677" lon="1.31266">
        <ele>183.8</ele>
        <time>2025-10-18T09:51:03Z</time>
      </trkpt>
      <trkpt lat="43.6068" lon="1.31268">
        <ele>184</ele>
        <time>2025-10-18T09:51:04Z</time>
      </trkpt>
      <trkpt lat="43.60683" lon="1.3127">
        <ele>184</ele>
        <time>2025-10-18T09:51:05Z</time>
      </trkpt>
      <trkpt lat="43.60687" lon="1.31272">
        <ele>183.8</ele>
        <time>2025-10-18T09:51:06Z</time>
      </trkpt>
      <trkpt lat="43.60691" lon="1.31273">
        <ele>183.8</ele>
        <time>2025-10-18T09:51:07Z</time>
      </trkpt>
      <trkpt lat="43.60696" lon="1.31275">
        <ele>183.6</ele>
        <time>2025-10-18T09:51:08Z</time>
      </trkpt>
      <trkpt lat="43.60702" lon="1.31277">
        <ele>183.4</ele>
        <time>2025-10-18T09:51:09Z</time>
      </trkpt>
      <trkpt lat="43.60707" lon="1.3128">
        <ele>183.2</ele>
        <time>2025-10-18T09:51:10Z</time>
      </trkpt>
      <trkpt lat="43.60713" lon="1.31283">
        <ele>183</ele>
        <time>2025-10-18T09:51:11Z</time>
      </trkpt>
      <trkpt lat="43.60718" lon="1.31286">
        <ele>183</ele>
        <time>2025-10-18T09:51:12Z</time>
      </trkpt>
      <trkpt lat="43.60723" lon="1.31287">
        <ele>182.8</ele>
        <time>2025-10-18T09:51:13Z</time>
      </trkpt>
      <trkpt lat="43.60729" lon="1.31289">
        <ele>182.8</ele>
        <time>2025-10-18T09:51:14Z</time>
      </trkpt>
      <trkpt lat="43.60732" lon="1.31294">
        <ele>182.8</ele>
        <time>2025-10-18T09:51:15Z</time>
      </trkpt>
      <trkpt lat="43.60733" lon="1.31301">
        <ele>182.8</ele>
        <time>2025-10-18T09:51:16Z</time>
      </trkpt>
      <trkpt lat="43.60732" lon="1.31307">
        <ele>182.8</ele>
        <time>2025-10-18T09:51:17Z</time>
      </trkpt>
      <trkpt lat="43.6073" lon="1.31314">
        <ele>182.8</ele>
        <time>2025-10-18T09:51:18Z</time>
      </trkpt>
      <trkpt lat="43.60729" lon="1.31321">
        <ele>182.8</ele>
        <time>2025-10-18T09:51:19Z</time>
      </trkpt>
      <trkpt lat="43.60728" lon="1.31327">
        <ele>182.6</ele>
        <time>2025-10-18T09:51:20Z</time>
      </trkpt>
      <trkpt lat="43.60727" lon="1.31334">
        <ele>182.6</ele>
        <time>2025-10-18T09:51:21Z</time>
      </trkpt>
      <trkpt lat="43.60726" lon="1.31341">
        <ele>182.6</ele>
        <time>2025-10-18T09:51:22Z</time>
      </trkpt>
      <trkpt lat="43.60725" lon="1.31347">
        <ele>182.4</ele>
        <time>2025-10-18T09:51:23Z</time>
      </trkpt>
      <trkpt lat="43.60722" lon="1.31352">
        <ele>182.4</ele>
        <time>2025-10-18T09:51:24Z</time>
      </trkpt>
      <trkpt lat="43.60718" lon="1.31355">
        <ele>182.4</ele>
        <time>2025-10-18T09:51:25Z</time>
      </trkpt>
      <trkpt lat="43.60713" lon="1.31356">
        <ele>182.6</ele>
        <time>2025-10-18T09:51:26Z</time>
      </trkpt>
      <trkpt lat="43.60709" lon="1.31355">
        <ele>182.8</ele>
        <time>2025-10-18T09:51:27Z</time>
      </trkpt>
      <trkpt lat="43.60705" lon="1.31355">
        <ele>183</ele>
        <time>2025-10-18T09:51:28Z</time>
      </trkpt>
      <trkpt lat="43.607" lon="1.31354">
        <ele>183</ele>
        <time>2025-10-18T09:51:29Z</time>
      </trkpt>
      <trkpt lat="43.60696" lon="1.31352">
        <ele>183</ele>
        <time>2025-10-18T09:51:30Z</time>
      </trkpt>
      <trkpt lat="43.60694" lon="1.31349">
        <ele>183</ele>
        <time>2025-10-18T09:51:31Z</time>
      </trkpt>
      <trkpt lat="43.60692" lon="1.31345">
        <ele>183.2</ele>
        <time>2025-10-18T09:51:32Z</time>
      </trkpt>
      <trkpt lat="43.60692" lon="1.31339">
        <ele>183</ele>
        <time>2025-10-18T09:51:33Z</time>
      </trkpt>
      <trkpt lat="43.60693" lon="1.31333">
        <ele>183</ele>
        <time>2025-10-18T09:51:34Z</time>
      </trkpt>
      <trkpt lat="43.60693" lon="1.31325">
        <ele>183</ele>
        <time>2025-10-18T09:51:35Z</time>
      </trkpt>
      <trkpt lat="43.60692" lon="1.31317">
        <ele>182.8</ele>
        <time>2025-10-18T09:51:36Z</time>
      </trkpt>
      <trkpt lat="43.6069" lon="1.31312">
        <ele>182.6</ele>
        <time>2025-10-18T09:51:37Z</time>
      </trkpt>
      <trkpt lat="43.60686" lon="1.31309">
        <ele>182.4</ele>
        <time>2025-10-18T09:51:38Z</time>
      </trkpt>
      <trkpt lat="43.60681" lon="1.31308">
        <ele>182.2</ele>
        <time>2025-10-18T09:51:39Z</time>
      </trkpt>
      <trkpt lat="43.60675" lon="1.31309">
        <ele>181.6</ele>
        <time>2025-10-18T09:51:40Z</time>
      </trkpt>
      <trkpt lat="43.60669" lon="1.3131">
        <ele>181.2</ele>
        <time>2025-10-18T09:51:41Z</time>
      </trkpt>
      <trkpt lat="43.60663" lon="1.3131">
        <ele>180.8</ele>
        <time>2025-10-18T09:51:42Z</time>
      </trkpt>
      <trkpt lat="43.60657" lon="1.31309">
        <ele>180.4</ele>
        <time>2025-10-18T09:51:43Z</time>
      </trkpt>
      <trkpt lat="43.60651" lon="1.31306">
        <ele>180.2</ele>
        <time>2025-10-18T09:51:44Z</time>
      </trkpt>
      <trkpt lat="43.60644" lon="1.31303">
        <ele>180</ele>
        <time>2025-10-18T09:51:45Z</time>
      </trkpt>
      <trkpt lat="43.60639" lon="1.31301">
        <ele>179.8</ele>
        <time>2025-10-18T09:51:46Z</time>
      </trkpt>
      <trkpt lat="43.60633" lon="1.3131">
        <ele>180</ele>
        <time>2025-10-18T09:51:47Z</time>
      </trkpt>
      <trkpt lat="43.60631" lon="1.3131">
        <ele>180.2</ele>
        <time>2025-10-18T09:51:48Z</time>
      </trkpt>
      <trkpt lat="43.60628" lon="1.3131">
        <ele>180.6</ele>
        <time>2025-10-18T09:51:49Z</time>
      </trkpt>
      <trkpt lat="43.60626" lon="1.31312">
        <ele>181.2</ele>
        <time>2025-10-18T09:51:50Z</time>
      </trkpt>
      <trkpt lat="43.60625" lon="1.31314">
        <ele>181.8</ele>
        <time>2025-10-18T09:51:51Z</time>
      </trkpt>
      <trkpt lat="43.60626" lon="1.31317">
        <ele>182.4</ele>
        <time>2025-10-18T09:51:52Z</time>
      </trkpt>
      <trkpt lat="43.60627" lon="1.31321">
        <ele>182.8</ele>
        <time>2025-10-18T09:51:53Z</time>
      </trkpt>
      <trkpt lat="43.60629" lon="1.31326">
        <ele>183.2</ele>
        <time>2025-10-18T09:51:54Z</time>
      </trkpt>
      <trkpt lat="43.60631" lon="1.31331">
        <ele>183.2</ele>
        <time>2025-10-18T09:51:55Z</time>
      </trkpt>
      <trkpt lat="43.60633" lon="1.31337">
        <ele>183.2</ele>
        <time>2025-10-18T09:51:56Z</time>
      </trkpt>
      <trkpt lat="43.60635" lon="1.31343">
        <ele>183.4</ele>
        <time>2025-10-18T09:51:57Z</time>
      </trkpt>
      <trkpt lat="43.60637" lon="1.31349">
        <ele>183.2</ele>
        <time>2025-10-18T09:51:58Z</time>
      </trkpt>
      <trkpt lat="43.60639" lon="1.31355">
        <ele>183.4</ele>
        <time>2025-10-18T09:51:59Z</time>
      </trkpt>
      <trkpt lat="43.60641" lon="1.31361">
        <ele>183.4</ele>
        <time>2025-10-18T09:52:00Z</time>
      </trkpt>
      <trkpt lat="43.60642" lon="1.31367">
        <ele>183.4</ele>
        <time>2025-10-18T09:52:01Z</time>
      </trkpt>
      <trkpt lat="43.60643" lon="1.31374">
        <ele>183.4</ele>
        <time>2025-10-18T09:52:02Z</time>
      </trkpt>
      <trkpt lat="43.60643" lon="1.31382">
        <ele>183.4</ele>
        <time>2025-10-18T09:52:03Z</time>
      </trkpt>
      <trkpt lat="43.60643" lon="1.31389">
        <ele>183.4</ele>
        <time>2025-10-18T09:52:04Z</time>
      </trkpt>
      <trkpt lat="43.60644" lon="1.31396">
        <ele>183.2</ele>
        <time>2025-10-18T09:52:05Z</time>
      </trkpt>
      <trkpt lat="43.60644" lon="1.31404">
        <ele>183</ele>
        <time>2025-10-18T09:52:06Z</time>
      </trkpt>
      <trkpt lat="43.60643" lon="1.31411">
        <ele>183</ele>
        <time>2025-10-18T09:52:07Z</time>
      </trkpt>
      <trkpt lat="43.60641" lon="1.31419">
        <ele>183</ele>
        <time>2025-10-18T09:52:08Z</time>
      </trkpt>
      <trkpt lat="43.60637" lon="1.31425">
        <ele>183</ele>
        <time>2025-10-18T09:52:09Z</time>
      </trkpt>
      <trkpt lat="43.60634" lon="1.31432">
        <ele>183</ele>
        <time>2025-10-18T09:52:10Z</time>
      </trkpt>
      <trkpt lat="43.60632" lon="1.3144">
        <ele>183</ele>
        <time>2025-10-18T09:52:11Z</time>
      </trkpt>
      <trkpt lat="43.60632" lon="1.31448">
        <ele>183</ele>
        <time>2025-10-18T09:52:12Z</time>
      </trkpt>
      <trkpt lat="43.60633" lon="1.31456">
        <ele>183</ele>
        <time>2025-10-18T09:52:13Z</time>
      </trkpt>
      <trkpt lat="43.60635" lon="1.31464">
        <ele>182.8</ele>
        <time>2025-10-18T09:52:14Z</time>
      </trkpt>
      <trkpt lat="43.60636" lon="1.31471">
        <ele>183</ele>
        <time>2025-10-18T09:52:15Z</time>
      </trkpt>
      <trkpt lat="43.60635" lon="1.31478">
        <ele>183</ele>
        <time>2025-10-18T09:52:16Z</time>
      </trkpt>
      <trkpt lat="43.60636" lon="1.31484">
        <ele>183</ele>
        <time>2025-10-18T09:52:17Z</time>
      </trkpt>
      <trkpt lat="43.60635" lon="1.31491">
        <ele>183</ele>
        <time>2025-10-18T09:52:18Z</time>
      </trkpt>
      <trkpt lat="43.60635" lon="1.31498">
        <ele>183</ele>
        <time>2025-10-18T09:52:19Z</time>
      </trkpt>
      <trkpt lat="43.60635" lon="1.31506">
        <ele>182.8</ele>
        <time>2025-10-18T09:52:20Z</time>
      </trkpt>
      <trkpt lat="43.60635" lon="1.31513">
        <ele>182.6</ele>
        <time>2025-10-18T09:52:21Z</time>
      </trkpt>
      <trkpt lat="43.60635" lon="1.31521">
        <ele>182.4</ele>
        <time>2025-10-18T09:52:22Z</time>
      </trkpt>
      <trkpt lat="43.60636" lon="1.31529">
        <ele>182.4</ele>
        <time>2025-10-18T09:52:23Z</time>
      </trkpt>
      <trkpt lat="43.60636" lon="1.31537">
        <ele>182.4</ele>
        <time>2025-10-18T09:52:24Z</time>
      </trkpt>
      <trkpt lat="43.60637" lon="1.31545">
        <ele>182.2</ele>
        <time>2025-10-18T09:52:25Z</time>
      </trkpt>
      <trkpt lat="43.60637" lon="1.31554">
        <ele>182.2</ele>
        <time>2025-10-18T09:52:26Z</time>
      </trkpt>
      <trkpt lat="43.60638" lon="1.31562">
        <ele>182.4</ele>
        <time>2025-10-18T09:52:27Z</time>
      </trkpt>
      <trkpt lat="43.60639" lon="1.31571">
        <ele>182.6</ele>
        <time>2025-10-18T09:52:28Z</time>
      </trkpt>
      <trkpt lat="43.6064" lon="1.31579">
        <ele>182.6</ele>
        <time>2025-10-18T09:52:29Z</time>
      </trkpt>
      <trkpt lat="43.6064" lon="1.31588">
        <ele>182.4</ele>
        <time>2025-10-18T09:52:30Z</time>
      </trkpt>
      <trkpt lat="43.6064" lon="1.31597">
        <ele>182.4</ele>
        <time>2025-10-18T09:52:31Z</time>
      </trkpt>
      <trkpt lat="43.60641" lon="1.31606">
        <ele>182.2</ele>
        <time>2025-10-18T09:52:32Z</time>
      </trkpt>
      <trkpt lat="43.60641" lon="1.31615">
        <ele>182.2</ele>
        <time>2025-10-18T09:52:33Z</time>
      </trkpt>
      <trkpt lat="43.60642" lon="1.31624">
        <ele>182</ele>
        <time>2025-10-18T09:52:34Z</time>
      </trkpt>
      <trkpt lat="43.60643" lon="1.31633">
        <ele>181.8</ele>
        <time>2025-10-18T09:52:35Z</time>
      </trkpt>
      <trkpt lat="43.60643" lon="1.31642">
        <ele>181.8</ele>
        <time>2025-10-18T09:52:36Z</time>
      </trkpt>
      <trkpt lat="43.60644" lon="1.31651">
        <ele>181.8</ele>
        <time>2025-10-18T09:52:37Z</time>
      </trkpt>
      <trkpt lat="43.60644" lon="1.3166">
        <ele>181.8</ele>
        <time>2025-10-18T09:52:38Z</time>
      </trkpt>
      <trkpt lat="43.60645" lon="1.31669">
        <ele>181.8</ele>
        <time>2025-10-18T09:52:39Z</time>
      </trkpt>
      <trkpt lat="43.60645" lon="1.31677">
        <ele>181.8</ele>
        <time>2025-10-18T09:52:40Z</time>
      </trkpt>
      <trkpt lat="43.60646" lon="1.31686">
        <ele>181.6</ele>
        <time>2025-10-18T09:52:41Z</time>
      </trkpt>
      <trkpt lat="43.60646" lon="1.31695">
        <ele>181.6</ele>
        <time>2025-10-18T09:52:42Z</time>
      </trkpt>
      <trkpt lat="43.60646" lon="1.31704">
        <ele>181.6</ele>
        <time>2025-10-18T09:52:43Z</time>
      </trkpt>
      <trkpt lat="43.60647" lon="1.31713">
        <ele>181.8</ele>
        <time>2025-10-18T09:52:44Z</time>
      </trkpt>
      <trkpt lat="43.60648" lon="1.31722">
        <ele>182</ele>
        <time>2025-10-18T09:52:45Z</time>
      </trkpt>
      <trkpt lat="43.60649" lon="1.31731">
        <ele>182.2</ele>
        <time>2025-10-18T09:52:46Z</time>
      </trkpt>
      <trkpt lat="43.60649" lon="1.3174">
        <ele>182.4</ele>
        <time>2025-10-18T09:52:47Z</time>
      </trkpt>
      <trkpt lat="43.60652" lon="1.31749">
        <ele>182.6</ele>
        <time>2025-10-18T09:52:48Z</time>
      </trkpt>
      <trkpt lat="43.60654" lon="1.31758">
        <ele>182.6</ele>
        <time>2025-10-18T09:52:49Z</time>
      </trkpt>
      <trkpt lat="43.60658" lon="1.31765">
        <ele>182.6</ele>
        <time>2025-10-18T09:52:50Z</time>
      </trkpt>
      <trkpt lat="43.60661" lon="1.31774">
        <ele>182.6</ele>
        <time>2025-10-18T09:52:51Z</time>
      </trkpt>
      <trkpt lat="43.60663" lon="1.31782">
        <ele>182.4</ele>
        <time>2025-10-18T09:52:52Z</time>
      </trkpt>
      <trkpt lat="43.60664" lon="1.31791">
        <ele>182.4</ele>
        <time>2025-10-18T09:52:53Z</time>
      </trkpt>
      <trkpt lat="43.60665" lon="1.318">
        <ele>182.4</ele>
        <time>2025-10-18T09:52:54Z</time>
      </trkpt>
      <trkpt lat="43.60665" lon="1.31809">
        <ele>182.4</ele>
        <time>2025-10-18T09:52:55Z</time>
      </trkpt>
      <trkpt lat="43.60665" lon="1.31819">
        <ele>182.4</ele>
        <time>2025-10-18T09:52:56Z</time>
      </trkpt>
      <trkpt lat="43.60666" lon="1.31827">
        <ele>182.4</ele>
        <time>2025-10-18T09:52:57Z</time>
      </trkpt>
      <trkpt lat="43.60666" lon="1.31836">
        <ele>182.4</ele>
        <time>2025-10-18T09:52:58Z</time>
      </trkpt>
      <trkpt lat="43.60667" lon="1.31845">
        <ele>182.6</ele>
        <time>2025-10-18T09:52:59Z</time>
      </trkpt>
      <trkpt lat="43.60668" lon="1.31854">
        <ele>182.8</ele>
        <time>2025-10-18T09:53:00Z</time>
      </trkpt>
      <trkpt lat="43.60669" lon="1.31863">
        <ele>183</ele>
        <time>2025-10-18T09:53:01Z</time>
      </trkpt>
      <trkpt lat="43.60669" lon="1.31873">
        <ele>183.2</ele>
        <time>2025-10-18T09:53:02Z</time>
      </trkpt>
      <trkpt lat="43.6067" lon="1.31882">
        <ele>183.2</ele>
        <time>2025-10-18T09:53:03Z</time>
      </trkpt>
      <trkpt lat="43.60671" lon="1.31891">
        <ele>183.4</ele>
        <time>2025-10-18T09:53:04Z</time>
      </trkpt>
      <trkpt lat="43.60672" lon="1.31899">
        <ele>183.4</ele>
        <time>2025-10-18T09:53:05Z</time>
      </trkpt>
      <trkpt lat="43.60673" lon="1.31907">
        <ele>183.6</ele>
        <time>2025-10-18T09:53:06Z</time>
      </trkpt>
      <trkpt lat="43.60672" lon="1.31915">
        <ele>183.6</ele>
        <time>2025-10-18T09:53:07Z</time>
      </trkpt>
      <trkpt lat="43.6067" lon="1.31923">
        <ele>183.4</ele>
        <time>2025-10-18T09:53:08Z</time>
      </trkpt>
      <trkpt lat="43.60667" lon="1.31929">
        <ele>183.4</ele>
        <time>2025-10-18T09:53:09Z</time>
      </trkpt>
      <trkpt lat="43.60664" lon="1.31935">
        <ele>183.4</ele>
        <time>2025-10-18T09:53:10Z</time>
      </trkpt>
      <trkpt lat="43.60662" lon="1.31942">
        <ele>183.6</ele>
        <time>2025-10-18T09:53:11Z</time>
      </trkpt>
      <trkpt lat="43.60662" lon="1.31951">
        <ele>183.8</ele>
        <time>2025-10-18T09:53:12Z</time>
      </trkpt>
      <trkpt lat="43.60662" lon="1.3196">
        <ele>183.8</ele>
        <time>2025-10-18T09:53:13Z</time>
      </trkpt>
      <trkpt lat="43.60662" lon="1.31968">
        <ele>184</ele>
        <time>2025-10-18T09:53:14Z</time>
      </trkpt>
      <trkpt lat="43.60663" lon="1.31976">
        <ele>184</ele>
        <time>2025-10-18T09:53:15Z</time>
      </trkpt>
      <trkpt lat="43.60663" lon="1.31985">
        <ele>184.2</ele>
        <time>2025-10-18T09:53:16Z</time>
      </trkpt>
      <trkpt lat="43.60664" lon="1.31994">
        <ele>184</ele>
        <time>2025-10-18T09:53:17Z</time>
      </trkpt>
      <trkpt lat="43.60665" lon="1.32002">
        <ele>184</ele>
        <time>2025-10-18T09:53:18Z</time>
      </trkpt>
      <trkpt lat="43.60664" lon="1.3201">
        <ele>184</ele>
        <time>2025-10-18T09:53:19Z</time>
      </trkpt>
      <trkpt lat="43.60663" lon="1.32016">
        <ele>184</ele>
        <time>2025-10-18T09:53:20Z</time>
      </trkpt>
      <trkpt lat="43.60661" lon="1.32023">
        <ele>183.8</ele>
        <time>2025-10-18T09:53:21Z</time>
      </trkpt>
      <trkpt lat="43.6066" lon="1.32029">
        <ele>184</ele>
        <time>2025-10-18T09:53:22Z</time>
      </trkpt>
      <trkpt lat="43.60661" lon="1.32035">
        <ele>184</ele>
        <time>2025-10-18T09:53:23Z</time>
      </trkpt>
      <trkpt lat="43.60662" lon="1.32041">
        <ele>184.2</ele>
        <time>2025-10-18T09:53:24Z</time>
      </trkpt>
      <trkpt lat="43.60663" lon="1.32046">
        <ele>184.2</ele>
        <time>2025-10-18T09:53:25Z</time>
      </trkpt>
      <trkpt lat="43.60663" lon="1.32051">
        <ele>184.2</ele>
        <time>2025-10-18T09:53:26Z</time>
      </trkpt>
      <trkpt lat="43.60663" lon="1.32057">
        <ele>184</ele>
        <time>2025-10-18T09:53:27Z</time>
      </trkpt>
      <trkpt lat="43.60663" lon="1.32062">
        <ele>184</ele>
        <time>2025-10-18T09:53:28Z</time>
      </trkpt>
      <trkpt lat="43.60662" lon="1.32068">
        <ele>184</ele>
        <time>2025-10-18T09:53:29Z</time>
      </trkpt>
      <trkpt lat="43.60662" lon="1.32075">
        <ele>184.2</ele>
        <time>2025-10-18T09:53:30Z</time>
      </trkpt>
      <trkpt lat="43.60662" lon="1.32082">
        <ele>184.2</ele>
        <time>2025-10-18T09:53:31Z</time>
      </trkpt>
      <trkpt lat="43.60661" lon="1.32089">
        <ele>184.2</ele>
        <time>2025-10-18T09:53:32Z</time>
      </trkpt>
      <trkpt lat="43.60662" lon="1.32098">
        <ele>184.2</ele>
        <time>2025-10-18T09:53:33Z</time>
      </trkpt>
      <trkpt lat="43.60662" lon="1.32106">
        <ele>184.2</ele>
        <time>2025-10-18T09:53:34Z</time>
      </trkpt>
      <trkpt lat="43.60663" lon="1.32115">
        <ele>184.2</ele>
        <time>2025-10-18T09:53:35Z</time>
      </trkpt>
      <trkpt lat="43.60663" lon="1.32123">
        <ele>184.2</ele>
        <time>2025-10-18T09:53:36Z</time>
      </trkpt>
      <trkpt lat="43.60664" lon="1.32132">
        <ele>184</ele>
        <time>2025-10-18T09:53:37Z</time>
      </trkpt>
      <trkpt lat="43.60665" lon="1.32141">
        <ele>184</ele>
        <time>2025-10-18T09:53:38Z</time>
      </trkpt>
      <trkpt lat="43.60667" lon="1.32149">
        <ele>183.8</ele>
        <time>2025-10-18T09:53:39Z</time>
      </trkpt>
      <trkpt lat="43.60669" lon="1.32158">
        <ele>183.6</ele>
        <time>2025-10-18T09:53:40Z</time>
      </trkpt>
      <trkpt lat="43.6067" lon="1.32166">
        <ele>183.4</ele>
        <time>2025-10-18T09:53:41Z</time>
      </trkpt>
      <trkpt lat="43.60672" lon="1.32175">
        <ele>183.2</ele>
        <time>2025-10-18T09:53:42Z</time>
      </trkpt>
      <trkpt lat="43.60673" lon="1.32183">
        <ele>183.2</ele>
        <time>2025-10-18T09:53:43Z</time>
      </trkpt>
      <trkpt lat="43.60675" lon="1.32192">
        <ele>183</ele>
        <time>2025-10-18T09:53:44Z</time>
      </trkpt>
      <trkpt lat="43.60677" lon="1.322">
        <ele>183</ele>
        <time>2025-10-18T09:53:45Z</time>
      </trkpt>
      <trkpt lat="43.60678" lon="1.32209">
        <ele>182.8</ele>
        <time>2025-10-18T09:53:46Z</time>
      </trkpt>
      <trkpt lat="43.60678" lon="1.32218">
        <ele>182.8</ele>
        <time>2025-10-18T09:53:47Z</time>
      </trkpt>
      <trkpt lat="43.60678" lon="1.32227">
        <ele>182.8</ele>
        <time>2025-10-18T09:53:48Z</time>
      </trkpt>
      <trkpt lat="43.60678" lon="1.32236">
        <ele>182.6</ele>
        <time>2025-10-18T09:53:49Z</time>
      </trkpt>
      <trkpt lat="43.60678" lon="1.32244">
        <ele>182.4</ele>
        <time>2025-10-18T09:53:50Z</time>
      </trkpt>
      <trkpt lat="43.60677" lon="1.32253">
        <ele>182.2</ele>
        <time>2025-10-18T09:53:51Z</time>
      </trkpt>
      <trkpt lat="43.60677" lon="1.32263">
        <ele>182.2</ele>
        <time>2025-10-18T09:53:52Z</time>
      </trkpt>
      <trkpt lat="43.60678" lon="1.32272">
        <ele>182</ele>
        <time>2025-10-18T09:53:53Z</time>
      </trkpt>
      <trkpt lat="43.60678" lon="1.32281">
        <ele>182</ele>
        <time>2025-10-18T09:53:54Z</time>
      </trkpt>
      <trkpt lat="43.60678" lon="1.3229">
        <ele>182</ele>
        <time>2025-10-18T09:53:55Z</time>
      </trkpt>
      <trkpt lat="43.60677" lon="1.32299">
        <ele>182</ele>
        <time>2025-10-18T09:53:56Z</time>
      </trkpt>
      <trkpt lat="43.60677" lon="1.32308">
        <ele>182</ele>
        <time>2025-10-18T09:53:57Z</time>
      </trkpt>
      <trkpt lat="43.60677" lon="1.32318">
        <ele>182</ele>
        <time>2025-10-18T09:53:58Z</time>
      </trkpt>
      <trkpt lat="43.60678" lon="1.32327">
        <ele>182</ele>
        <time>2025-10-18T09:53:59Z</time>
      </trkpt>
      <trkpt lat="43.60678" lon="1.32336">
        <ele>182</ele>
        <time>2025-10-18T09:54:00Z</time>
      </trkpt>
      <trkpt lat="43.60677" lon="1.32345">
        <ele>182</ele>
        <time>2025-10-18T09:54:01Z</time>
      </trkpt>
      <trkpt lat="43.60673" lon="1.32352">
        <ele>182</ele>
        <time>2025-10-18T09:54:02Z</time>
      </trkpt>
      <trkpt lat="43.60668" lon="1.32355">
        <ele>182</ele>
        <time>2025-10-18T09:54:03Z</time>
      </trkpt>
      <trkpt lat="43.60663" lon="1.32354">
        <ele>182.2</ele>
        <time>2025-10-18T09:54:04Z</time>
      </trkpt>
      <trkpt lat="43.60657" lon="1.32355">
        <ele>182.2</ele>
        <time>2025-10-18T09:54:05Z</time>
      </trkpt>
      <trkpt lat="43.6065" lon="1.32355">
        <ele>182.2</ele>
        <time>2025-10-18T09:54:06Z</time>
      </trkpt>
      <trkpt lat="43.60643" lon="1.32357">
        <ele>182.4</ele>
        <time>2025-10-18T09:54:07Z</time>
      </trkpt>
      <trkpt lat="43.60637" lon="1.32358">
        <ele>182.4</ele>
        <time>2025-10-18T09:54:08Z</time>
      </trkpt>
      <trkpt lat="43.6063" lon="1.32359">
        <ele>182.4</ele>
        <time>2025-10-18T09:54:09Z</time>
      </trkpt>
      <trkpt lat="43.60624" lon="1.3236">
        <ele>182.4</ele>
        <time>2025-10-18T09:54:10Z</time>
      </trkpt>
      <trkpt lat="43.60617" lon="1.3236">
        <ele>182.2</ele>
        <time>2025-10-18T09:54:11Z</time>
      </trkpt>
      <trkpt lat="43.6061" lon="1.32361">
        <ele>182.2</ele>
        <time>2025-10-18T09:54:12Z</time>
      </trkpt>
      <trkpt lat="43.60603" lon="1.32361">
        <ele>182.2</ele>
        <time>2025-10-18T09:54:13Z</time>
      </trkpt>
      <trkpt lat="43.60597" lon="1.32362">
        <ele>182.2</ele>
        <time>2025-10-18T09:54:14Z</time>
      </trkpt>
      <trkpt lat="43.6059" lon="1.32363">
        <ele>182.2</ele>
        <time>2025-10-18T09:54:15Z</time>
      </trkpt>
      <trkpt lat="43.60583" lon="1.32364">
        <ele>182.2</ele>
        <time>2025-10-18T09:54:16Z</time>
      </trkpt>
      <trkpt lat="43.60577" lon="1.32365">
        <ele>182.2</ele>
        <time>2025-10-18T09:54:17Z</time>
      </trkpt>
      <trkpt lat="43.60571" lon="1.32366">
        <ele>182.4</ele>
        <time>2025-10-18T09:54:18Z</time>
      </trkpt>
      <trkpt lat="43.60565" lon="1.32367">
        <ele>182.4</ele>
        <time>2025-10-18T09:54:19Z</time>
      </trkpt>
      <trkpt lat="43.60559" lon="1.32368">
        <ele>182.6</ele>
        <time>2025-10-18T09:54:20Z</time>
      </trkpt>
      <trkpt lat="43.60554" lon="1.3237">
        <ele>182.6</ele>
        <time>2025-10-18T09:54:21Z</time>
      </trkpt>
      <trkpt lat="43.60549" lon="1.3237">
        <ele>182.8</ele>
        <time>2025-10-18T09:54:22Z</time>
      </trkpt>
      <trkpt lat="43.60544" lon="1.32368">
        <ele>183</ele>
        <time>2025-10-18T09:54:23Z</time>
      </trkpt>
      <trkpt lat="43.60539" lon="1.32366">
        <ele>183.2</ele>
        <time>2025-10-18T09:54:24Z</time>
      </trkpt>
      <trkpt lat="43.60533" lon="1.32365">
        <ele>183.2</ele>
        <time>2025-10-18T09:54:25Z</time>
      </trkpt>
      <trkpt lat="43.60528" lon="1.32366">
        <ele>183</ele>
        <time>2025-10-18T09:54:26Z</time>
      </trkpt>
      <trkpt lat="43.60523" lon="1.3237">
        <ele>183</ele>
        <time>2025-10-18T09:54:27Z</time>
      </trkpt>
      <trkpt lat="43.60519" lon="1.32375">
        <ele>182.8</ele>
        <time>2025-10-18T09:54:28Z</time>
      </trkpt>
      <trkpt lat="43.60516" lon="1.32381">
        <ele>182.8</ele>
        <time>2025-10-18T09:54:29Z</time>
      </trkpt>
      <trkpt lat="43.60513" lon="1.32387">
        <ele>182.8</ele>
        <time>2025-10-18T09:54:30Z</time>
      </trkpt>
      <trkpt lat="43.6051" lon="1.32393">
        <ele>183</ele>
        <time>2025-10-18T09:54:31Z</time>
      </trkpt>
      <trkpt lat="43.60509" lon="1.324">
        <ele>183</ele>
        <time>2025-10-18T09:54:32Z</time>
      </trkpt>
      <trkpt lat="43.60509" lon="1.32408">
        <ele>183.2</ele>
        <time>2025-10-18T09:54:33Z</time>
      </trkpt>
      <trkpt lat="43.60509" lon="1.32416">
        <ele>183.2</ele>
        <time>2025-10-18T09:54:34Z</time>
      </trkpt>
      <trkpt lat="43.6051" lon="1.32423">
        <ele>183.2</ele>
        <time>2025-10-18T09:54:35Z</time>
      </trkpt>
      <trkpt lat="43.6051" lon="1.32431">
        <ele>183.2</ele>
        <time>2025-10-18T09:54:36Z</time>
      </trkpt>
      <trkpt lat="43.60511" lon="1.3244">
        <ele>183</ele>
        <time>2025-10-18T09:54:37Z</time>
      </trkpt>
      <trkpt lat="43.60512" lon="1.32448">
        <ele>182.8</ele>
        <time>2025-10-18T09:54:38Z</time>
      </trkpt>
      <trkpt lat="43.60512" lon="1.32457">
        <ele>182.6</ele>
        <time>2025-10-18T09:54:39Z</time>
      </trkpt>
      <trkpt lat="43.60512" lon="1.32466">
        <ele>182.6</ele>
        <time>2025-10-18T09:54:40Z</time>
      </trkpt>
      <trkpt lat="43.60512" lon="1.32475">
        <ele>182.4</ele>
        <time>2025-10-18T09:54:41Z</time>
      </trkpt>
      <trkpt lat="43.60512" lon="1.32484">
        <ele>182.4</ele>
        <time>2025-10-18T09:54:42Z</time>
      </trkpt>
      <trkpt lat="43.60512" lon="1.32493">
        <ele>182.4</ele>
        <time>2025-10-18T09:54:43Z</time>
      </trkpt>
      <trkpt lat="43.60511" lon="1.32502">
        <ele>182.2</ele>
        <time>2025-10-18T09:54:44Z</time>
      </trkpt>
      <trkpt lat="43.6051" lon="1.32511">
        <ele>182</ele>
        <time>2025-10-18T09:54:45Z</time>
      </trkpt>
      <trkpt lat="43.60509" lon="1.32519">
        <ele>182</ele>
        <time>2025-10-18T09:54:46Z</time>
      </trkpt>
      <trkpt lat="43.60507" lon="1.32528">
        <ele>181.8</ele>
        <time>2025-10-18T09:54:47Z</time>
      </trkpt>
      <trkpt lat="43.60506" lon="1.32537">
        <ele>181.8</ele>
        <time>2025-10-18T09:54:48Z</time>
      </trkpt>
      <trkpt lat="43.60504" lon="1.32546">
        <ele>181.8</ele>
        <time>2025-10-18T09:54:49Z</time>
      </trkpt>
      <trkpt lat="43.60502" lon="1.32555">
        <ele>181.6</ele>
        <time>2025-10-18T09:54:50Z</time>
      </trkpt>
      <trkpt lat="43.60501" lon="1.32564">
        <ele>181.8</ele>
        <time>2025-10-18T09:54:51Z</time>
      </trkpt>
      <trkpt lat="43.60499" lon="1.32573">
        <ele>181.8</ele>
        <time>2025-10-18T09:54:52Z</time>
      </trkpt>
      <trkpt lat="43.60498" lon="1.32581">
        <ele>181.6</ele>
        <time>2025-10-18T09:54:53Z</time>
      </trkpt>
      <trkpt lat="43.60496" lon="1.3259">
        <ele>181.6</ele>
        <time>2025-10-18T09:54:54Z</time>
      </trkpt>
      <trkpt lat="43.60494" lon="1.32599">
        <ele>181.6</ele>
        <time>2025-10-18T09:54:55Z</time>
      </trkpt>
      <trkpt lat="43.60493" lon="1.32607">
        <ele>181.6</ele>
        <time>2025-10-18T09:54:56Z</time>
      </trkpt>
      <trkpt lat="43.60491" lon="1.32616">
        <ele>181.6</ele>
        <time>2025-10-18T09:54:57Z</time>
      </trkpt>
      <trkpt lat="43.60489" lon="1.32625">
        <ele>181.8</ele>
        <time>2025-10-18T09:54:58Z</time>
      </trkpt>
      <trkpt lat="43.60487" lon="1.32634">
        <ele>181.8</ele>
        <time>2025-10-18T09:54:59Z</time>
      </trkpt>
      <trkpt lat="43.60486" lon="1.32642">
        <ele>181.8</ele>
        <time>2025-10-18T09:55:00Z</time>
      </trkpt>
      <trkpt lat="43.60484" lon="1.32651">
        <ele>181.8</ele>
        <time>2025-10-18T09:55:01Z</time>
      </trkpt>
      <trkpt lat="43.60483" lon="1.32659">
        <ele>181.8</ele>
        <time>2025-10-18T09:55:02Z</time>
      </trkpt>
      <trkpt lat="43.60482" lon="1.32668">
        <ele>181.8</ele>
        <time>2025-10-18T09:55:03Z</time>
      </trkpt>
      <trkpt lat="43.6048" lon="1.32676">
        <ele>182</ele>
        <time>2025-10-18T09:55:04Z</time>
      </trkpt>
      <trkpt lat="43.60479" lon="1.32685">
        <ele>182</ele>
        <time>2025-10-18T09:55:05Z</time>
      </trkpt>
      <trkpt lat="43.60477" lon="1.32694">
        <ele>182</ele>
        <time>2025-10-18T09:55:06Z</time>
      </trkpt>
      <trkpt lat="43.60476" lon="1.32703">
        <ele>181.8</ele>
        <time>2025-10-18T09:55:07Z</time>
      </trkpt>
      <trkpt lat="43.60474" lon="1.32712">
        <ele>181.8</ele>
        <time>2025-10-18T09:55:08Z</time>
      </trkpt>
      <trkpt lat="43.60472" lon="1.3272">
        <ele>181.6</ele>
        <time>2025-10-18T09:55:09Z</time>
      </trkpt>
      <trkpt lat="43.6047" lon="1.32729">
        <ele>181.6</ele>
        <time>2025-10-18T09:55:10Z</time>
      </trkpt>
      <trkpt lat="43.60466" lon="1.32735">
        <ele>181.6</ele>
        <time>2025-10-18T09:55:11Z</time>
      </trkpt>
      <trkpt lat="43.60462" lon="1.32741">
        <ele>181.8</ele>
        <time>2025-10-18T09:55:12Z</time>
      </trkpt>
      <trkpt lat="43.60459" lon="1.32747">
        <ele>181.8</ele>
        <time>2025-10-18T09:55:13Z</time>
      </trkpt>
      <trkpt lat="43.60456" lon="1.32755">
        <ele>182</ele>
        <time>2025-10-18T09:55:14Z</time>
      </trkpt>
      <trkpt lat="43.60454" lon="1.32762">
        <ele>182.2</ele>
        <time>2025-10-18T09:55:15Z</time>
      </trkpt>
      <trkpt lat="43.60453" lon="1.32771">
        <ele>182.4</ele>
        <time>2025-10-18T09:55:16Z</time>
      </trkpt>
      <trkpt lat="43.60451" lon="1.32779">
        <ele>182.4</ele>
        <time>2025-10-18T09:55:17Z</time>
      </trkpt>
      <trkpt lat="43.6045" lon="1.32788">
        <ele>182.6</ele>
        <time>2025-10-18T09:55:18Z</time>
      </trkpt>
      <trkpt lat="43.60448" lon="1.32796">
        <ele>182.4</ele>
        <time>2025-10-18T09:55:19Z</time>
      </trkpt>
      <trkpt lat="43.60445" lon="1.32804">
        <ele>182.4</ele>
        <time>2025-10-18T09:55:20Z</time>
      </trkpt>
      <trkpt lat="43.60443" lon="1.32813">
        <ele>182.4</ele>
        <time>2025-10-18T09:55:21Z</time>
      </trkpt>
      <trkpt lat="43.6044" lon="1.32821">
        <ele>182.2</ele>
        <time>2025-10-18T09:55:22Z</time>
      </trkpt>
      <trkpt lat="43.60437" lon="1.32829">
        <ele>182.2</ele>
        <time>2025-10-18T09:55:23Z</time>
      </trkpt>
      <trkpt lat="43.60435" lon="1.32836">
        <ele>182.2</ele>
        <time>2025-10-18T09:55:24Z</time>
      </trkpt>
      <trkpt lat="43.60434" lon="1.32843">
        <ele>182.2</ele>
        <time>2025-10-18T09:55:25Z</time>
      </trkpt>
      <trkpt lat="43.60433" lon="1.32849">
        <ele>182.2</ele>
        <time>2025-10-18T09:55:26Z</time>
      </trkpt>
      <trkpt lat="43.60433" lon="1.32854">
        <ele>182.2</ele>
        <time>2025-10-18T09:55:27Z</time>
      </trkpt>
      <trkpt lat="43.60432" lon="1.32856">
        <ele>182.4</ele>
        <time>2025-10-18T09:55:28Z</time>
      </trkpt>
      <trkpt lat="43.6043" lon="1.32856">
        <ele>182.6</ele>
        <time>2025-10-18T09:55:29Z</time>
      </trkpt>
      <trkpt lat="43.60428" lon="1.32859">
        <ele>183</ele>
        <time>2025-10-18T09:55:30Z</time>
      </trkpt>
      <trkpt lat="43.60428" lon="1.32863">
        <ele>183.2</ele>
        <time>2025-10-18T09:55:31Z</time>
      </trkpt>
      <trkpt lat="43.60427" lon="1.32868">
        <ele>183.4</ele>
        <time>2025-10-18T09:55:32Z</time>
      </trkpt>
      <trkpt lat="43.60425" lon="1.32873">
        <ele>183.4</ele>
        <time>2025-10-18T09:55:33Z</time>
      </trkpt>
      <trkpt lat="43.60424" lon="1.32879">
        <ele>183.4</ele>
        <time>2025-10-18T09:55:34Z</time>
      </trkpt>
      <trkpt lat="43.60422" lon="1.32885">
        <ele>183.4</ele>
        <time>2025-10-18T09:55:35Z</time>
      </trkpt>
      <trkpt lat="43.6042" lon="1.32891">
        <ele>183.4</ele>
        <time>2025-10-18T09:55:36Z</time>
      </trkpt>
      <trkpt lat="43.60418" lon="1.32898">
        <ele>183.2</ele>
        <time>2025-10-18T09:55:37Z</time>
      </trkpt>
      <trkpt lat="43.60416" lon="1.32904">
        <ele>183.2</ele>
        <time>2025-10-18T09:55:38Z</time>
      </trkpt>
      <trkpt lat="43.60414" lon="1.32911">
        <ele>183</ele>
        <time>2025-10-18T09:55:39Z</time>
      </trkpt>
      <trkpt lat="43.60412" lon="1.32918">
        <ele>182.8</ele>
        <time>2025-10-18T09:55:40Z</time>
      </trkpt>
      <trkpt lat="43.6041" lon="1.32924">
        <ele>182.6</ele>
        <time>2025-10-18T09:55:41Z</time>
      </trkpt>
      <trkpt lat="43.60408" lon="1.32932">
        <ele>182.4</ele>
        <time>2025-10-18T09:55:42Z</time>
      </trkpt>
      <trkpt lat="43.60406" lon="1.32939">
        <ele>182.4</ele>
        <time>2025-10-18T09:55:43Z</time>
      </trkpt>
      <trkpt lat="43.60404" lon="1.32946">
        <ele>182.2</ele>
        <time>2025-10-18T09:55:44Z</time>
      </trkpt>
      <trkpt lat="43.60402" lon="1.32954">
        <ele>182.2</ele>
        <time>2025-10-18T09:55:45Z</time>
      </trkpt>
      <trkpt lat="43.604" lon="1.32962">
        <ele>182.4</ele>
        <time>2025-10-18T09:55:46Z</time>
      </trkpt>
      <trkpt lat="43.60399" lon="1.32969">
        <ele>182.4</ele>
        <time>2025-10-18T09:55:47Z</time>
      </trkpt>
      <trkpt lat="43.60397" lon="1.32977">
        <ele>182.4</ele>
        <time>2025-10-18T09:55:48Z</time>
      </trkpt>
      <trkpt lat="43.60394" lon="1.32984">
        <ele>182.4</ele>
        <time>2025-10-18T09:55:49Z</time>
      </trkpt>
      <trkpt lat="43.60392" lon="1.32992">
        <ele>182.4</ele>
        <time>2025-10-18T09:55:50Z</time>
      </trkpt>
      <trkpt lat="43.60391" lon="1.32999">
        <ele>182.4</ele>
        <time>2025-10-18T09:55:51Z</time>
      </trkpt>
      <trkpt lat="43.60389" lon="1.33004">
        <ele>182.4</ele>
        <time>2025-10-18T09:55:52Z</time>
      </trkpt>
      <trkpt lat="43.60388" lon="1.3301">
        <ele>182.6</ele>
        <time>2025-10-18T09:55:53Z</time>
      </trkpt>
      <trkpt lat="43.60387" lon="1.33015">
        <ele>182.6</ele>
        <time>2025-10-18T09:55:54Z</time>
      </trkpt>
      <trkpt lat="43.60385" lon="1.3302">
        <ele>182.8</ele>
        <time>2025-10-18T09:55:55Z</time>
      </trkpt>
      <trkpt lat="43.60383" lon="1.33025">
        <ele>183</ele>
        <time>2025-10-18T09:55:56Z</time>
      </trkpt>
      <trkpt lat="43.60381" lon="1.3303">
        <ele>183.2</ele>
        <time>2025-10-18T09:55:57Z</time>
      </trkpt>
      <trkpt lat="43.60378" lon="1.33035">
        <ele>183.4</ele>
        <time>2025-10-18T09:55:58Z</time>
      </trkpt>
      <trkpt lat="43.60376" lon="1.33041">
        <ele>183.4</ele>
        <time>2025-10-18T09:55:59Z</time>
      </trkpt>
      <trkpt lat="43.60374" lon="1.33046">
        <ele>183.4</ele>
        <time>2025-10-18T09:56:00Z</time>
      </trkpt>
      <trkpt lat="43.60372" lon="1.33052">
        <ele>183.4</ele>
        <time>2025-10-18T09:56:01Z</time>
      </trkpt>
      <trkpt lat="43.6037" lon="1.33059">
        <ele>183.6</ele>
        <time>2025-10-18T09:56:02Z</time>
      </trkpt>
      <trkpt lat="43.60369" lon="1.33065">
        <ele>183.6</ele>
        <time>2025-10-18T09:56:03Z</time>
      </trkpt>
      <trkpt lat="43.60368" lon="1.33071">
        <ele>183.8</ele>
        <time>2025-10-18T09:56:04Z</time>
      </trkpt>
      <trkpt lat="43.60368" lon="1.33077">
        <ele>184</ele>
        <time>2025-10-18T09:56:05Z</time>
      </trkpt>
      <trkpt lat="43.60367" lon="1.33084">
        <ele>184</ele>
        <time>2025-10-18T09:56:06Z</time>
      </trkpt>
      <trkpt lat="43.60367" lon="1.3309">
        <ele>183.8</ele>
        <time>2025-10-18T09:56:07Z</time>
      </trkpt>
      <trkpt lat="43.60367" lon="1.33097">
        <ele>183.8</ele>
        <time>2025-10-18T09:56:08Z</time>
      </trkpt>
      <trkpt lat="43.60366" lon="1.33104">
        <ele>183.6</ele>
        <time>2025-10-18T09:56:09Z</time>
      </trkpt>
      <trkpt lat="43.60365" lon="1.33111">
        <ele>183.4</ele>
        <time>2025-10-18T09:56:10Z</time>
      </trkpt>
      <trkpt lat="43.60364" lon="1.33118">
        <ele>183.2</ele>
        <time>2025-10-18T09:56:11Z</time>
      </trkpt>
      <trkpt lat="43.60363" lon="1.33125">
        <ele>183.2</ele>
        <time>2025-10-18T09:56:12Z</time>
      </trkpt>
      <trkpt lat="43.60361" lon="1.33132">
        <ele>183.2</ele>
        <time>2025-10-18T09:56:13Z</time>
      </trkpt>
      <trkpt lat="43.6036" lon="1.33139">
        <ele>183.2</ele>
        <time>2025-10-18T09:56:14Z</time>
      </trkpt>
      <trkpt lat="43.60359" lon="1.33147">
        <ele>183.2</ele>
        <time>2025-10-18T09:56:15Z</time>
      </trkpt>
      <trkpt lat="43.60358" lon="1.33155">
        <ele>183.2</ele>
        <time>2025-10-18T09:56:16Z</time>
      </trkpt>
      <trkpt lat="43.60356" lon="1.33162">
        <ele>183.2</ele>
        <time>2025-10-18T09:56:17Z</time>
      </trkpt>
      <trkpt lat="43.60355" lon="1.3317">
        <ele>183.2</ele>
        <time>2025-10-18T09:56:18Z</time>
      </trkpt>
      <trkpt lat="43.60354" lon="1.33178">
        <ele>183</ele>
        <time>2025-10-18T09:56:19Z</time>
      </trkpt>
      <trkpt lat="43.60352" lon="1.33186">
        <ele>183</ele>
        <time>2025-10-18T09:56:20Z</time>
      </trkpt>
      <trkpt lat="43.6035" lon="1.3319">
        <ele>183</ele>
        <time>2025-10-18T09:56:21Z</time>
      </trkpt>
      <trkpt lat="43.60348" lon="1.33192">
        <ele>183.2</ele>
        <time>2025-10-18T09:56:22Z</time>
      </trkpt>
      <trkpt lat="43.60348" lon="1.33192">
        <ele>183.4</ele>
        <time>2025-10-18T09:56:23Z</time>
      </trkpt>
      <trkpt lat="43.60348" lon="1.33192">
        <ele>183.8</ele>
        <time>2025-10-18T09:56:24Z</time>
      </trkpt>
      <trkpt lat="43.60349" lon="1.33188">
        <ele>184.4</ele>
        <time>2025-10-18T09:56:27Z</time>
      </trkpt>
      <trkpt lat="43.6035" lon="1.33186">
        <ele>184.4</ele>
        <time>2025-10-18T09:56:28Z</time>
      </trkpt>
      <trkpt lat="43.60352" lon="1.33183">
        <ele>184.2</ele>
        <time>2025-10-18T09:56:29Z</time>
      </trkpt>
      <trkpt lat="43.60353" lon="1.33178">
        <ele>184.2</ele>
        <time>2025-10-18T09:56:30Z</time>
      </trkpt>
      <trkpt lat="43.60354" lon="1.33172">
        <ele>184</ele>
        <time>2025-10-18T09:56:31Z</time>
      </trkpt>
      <trkpt lat="43.60355" lon="1.33167">
        <ele>184</ele>
        <time>2025-10-18T09:56:32Z</time>
      </trkpt>
      <trkpt lat="43.60356" lon="1.33161">
        <ele>184</ele>
        <time>2025-10-18T09:56:33Z</time>
      </trkpt>
      <trkpt lat="43.60357" lon="1.33155">
        <ele>184</ele>
        <time>2025-10-18T09:56:34Z</time>
      </trkpt>
      <trkpt lat="43.60358" lon="1.33149">
        <ele>184</ele>
        <time>2025-10-18T09:56:35Z</time>
      </trkpt>
      <trkpt lat="43.60359" lon="1.33142">
        <ele>184</ele>
        <time>2025-10-18T09:56:36Z</time>
      </trkpt>
      <trkpt lat="43.6036" lon="1.33136">
        <ele>183.8</ele>
        <time>2025-10-18T09:56:37Z</time>
      </trkpt>
      <trkpt lat="43.60361" lon="1.3313">
        <ele>183.8</ele>
        <time>2025-10-18T09:56:38Z</time>
      </trkpt>
      <trkpt lat="43.60363" lon="1.33123">
        <ele>183.8</ele>
        <time>2025-10-18T09:56:39Z</time>
      </trkpt>
      <trkpt lat="43.60365" lon="1.33117">
        <ele>183.8</ele>
        <time>2025-10-18T09:56:40Z</time>
      </trkpt>
      <trkpt lat="43.60366" lon="1.33109">
        <ele>183.8</ele>
        <time>2025-10-18T09:56:41Z</time>
      </trkpt>
      <trkpt lat="43.60367" lon="1.33102">
        <ele>183.8</ele>
        <time>2025-10-18T09:56:42Z</time>
      </trkpt>
      <trkpt lat="43.60368" lon="1.33094">
        <ele>183.8</ele>
        <time>2025-10-18T09:56:43Z</time>
      </trkpt>
      <trkpt lat="43.60368" lon="1.33087">
        <ele>183.8</ele>
        <time>2025-10-18T09:56:44Z</time>
      </trkpt>
      <trkpt lat="43.60368" lon="1.3308">
        <ele>183.8</ele>
        <time>2025-10-18T09:56:45Z</time>
      </trkpt>
      <trkpt lat="43.60368" lon="1.33071">
        <ele>183.8</ele>
        <time>2025-10-18T09:56:46Z</time>
      </trkpt>
      <trkpt lat="43.60368" lon="1.33063">
        <ele>183.8</ele>
        <time>2025-10-18T09:56:47Z</time>
      </trkpt>
      <trkpt lat="43.60371" lon="1.33054">
        <ele>183.8</ele>
        <time>2025-10-18T09:56:48Z</time>
      </trkpt>
      <trkpt lat="43.60374" lon="1.33046">
        <ele>183.6</ele>
        <time>2025-10-18T09:56:49Z</time>
      </trkpt>
      <trkpt lat="43.60377" lon="1.3304">
        <ele>183.6</ele>
        <time>2025-10-18T09:56:50Z</time>
      </trkpt>
      <trkpt lat="43.60381" lon="1.33033">
        <ele>183.4</ele>
        <time>2025-10-18T09:56:51Z</time>
      </trkpt>
      <trkpt lat="43.60383" lon="1.33028">
        <ele>183.4</ele>
        <time>2025-10-18T09:56:52Z</time>
      </trkpt>
      <trkpt lat="43.60382" lon="1.33025">
        <ele>183.4</ele>
        <time>2025-10-18T09:56:53Z</time>
      </trkpt>
      <trkpt lat="43.6038" lon="1.33022">
        <ele>183.6</ele>
        <time>2025-10-18T09:56:54Z</time>
      </trkpt>
      <trkpt lat="43.60378" lon="1.33019">
        <ele>183.8</ele>
        <time>2025-10-18T09:56:55Z</time>
      </trkpt>
      <trkpt lat="43.60375" lon="1.33015">
        <ele>184</ele>
        <time>2025-10-18T09:56:56Z</time>
      </trkpt>
      <trkpt lat="43.60372" lon="1.33011">
        <ele>184</ele>
        <time>2025-10-18T09:56:57Z</time>
      </trkpt>
      <trkpt lat="43.60368" lon="1.33006">
        <ele>184</ele>
        <time>2025-10-18T09:56:58Z</time>
      </trkpt>
      <trkpt lat="43.60364" lon="1.33001">
        <ele>183.8</ele>
        <time>2025-10-18T09:56:59Z</time>
      </trkpt>
      <trkpt lat="43.6036" lon="1.32996">
        <ele>183.6</ele>
        <time>2025-10-18T09:57:00Z</time>
      </trkpt>
      <trkpt lat="43.60356" lon="1.32992">
        <ele>183.4</ele>
        <time>2025-10-18T09:57:01Z</time>
      </trkpt>
      <trkpt lat="43.60351" lon="1.32988">
        <ele>183.4</ele>
        <time>2025-10-18T09:57:02Z</time>
      </trkpt>
      <trkpt lat="43.60347" lon="1.32983">
        <ele>183.4</ele>
        <time>2025-10-18T09:57:03Z</time>
      </trkpt>
      <trkpt lat="43.60342" lon="1.32978">
        <ele>183.2</ele>
        <time>2025-10-18T09:57:04Z</time>
      </trkpt>
      <trkpt lat="43.60337" lon="1.32973">
        <ele>183.2</ele>
        <time>2025-10-18T09:57:05Z</time>
      </trkpt>
      <trkpt lat="43.60332" lon="1.32967">
        <ele>183.2</ele>
        <time>2025-10-18T09:57:06Z</time>
      </trkpt>
      <trkpt lat="43.60327" lon="1.32962">
        <ele>183</ele>
        <time>2025-10-18T09:57:07Z</time>
      </trkpt>
      <trkpt lat="43.60323" lon="1.32956">
        <ele>183</ele>
        <time>2025-10-18T09:57:08Z</time>
      </trkpt>
      <trkpt lat="43.60318" lon="1.32952">
        <ele>183</ele>
        <time>2025-10-18T09:57:09Z</time>
      </trkpt>
      <trkpt lat="43.60313" lon="1.32947">
        <ele>183</ele>
        <time>2025-10-18T09:57:10Z</time>
      </trkpt>
      <trkpt lat="43.60309" lon="1.32942">
        <ele>183</ele>
        <time>2025-10-18T09:57:11Z</time>
      </trkpt>
      <trkpt lat="43.60305" lon="1.32937">
        <ele>183</ele>
        <time>2025-10-18T09:57:12Z</time>
      </trkpt>
      <trkpt lat="43.60303" lon="1.32933">
        <ele>183.2</ele>
        <time>2025-10-18T09:57:13Z</time>
      </trkpt>
      <trkpt lat="43.60301" lon="1.3293">
        <ele>183.4</ele>
        <time>2025-10-18T09:57:14Z</time>
      </trkpt>
      <trkpt lat="43.603" lon="1.32928">
        <ele>183.8</ele>
        <time>2025-10-18T09:57:15Z</time>
      </trkpt>
      <trkpt lat="43.60299" lon="1.32925">
        <ele>184</ele>
        <time>2025-10-18T09:57:16Z</time>
      </trkpt>
      <trkpt lat="43.60299" lon="1.32921">
        <ele>184.2</ele>
        <time>2025-10-18T09:57:17Z</time>
      </trkpt>
      <trkpt lat="43.603" lon="1.32916">
        <ele>184.2</ele>
        <time>2025-10-18T09:57:18Z</time>
      </trkpt>
      <trkpt lat="43.603" lon="1.3291">
        <ele>184.2</ele>
        <time>2025-10-18T09:57:19Z</time>
      </trkpt>
      <trkpt lat="43.603" lon="1.32904">
        <ele>184.2</ele>
        <time>2025-10-18T09:57:20Z</time>
      </trkpt>
      <trkpt lat="43.60299" lon="1.32897">
        <ele>184.2</ele>
        <time>2025-10-18T09:57:21Z</time>
      </trkpt>
      <trkpt lat="43.60297" lon="1.3289">
        <ele>184</ele>
        <time>2025-10-18T09:57:22Z</time>
      </trkpt>
      <trkpt lat="43.60294" lon="1.32884">
        <ele>183.8</ele>
        <time>2025-10-18T09:57:23Z</time>
      </trkpt>
      <trkpt lat="43.60289" lon="1.32879">
        <ele>183.6</ele>
        <time>2025-10-18T09:57:24Z</time>
      </trkpt>
      <trkpt lat="43.60285" lon="1.32874">
        <ele>183.6</ele>
        <time>2025-10-18T09:57:25Z</time>
      </trkpt>
      <trkpt lat="43.6028" lon="1.32869">
        <ele>183.4</ele>
        <time>2025-10-18T09:57:26Z</time>
      </trkpt>
      <trkpt lat="43.60276" lon="1.32865">
        <ele>183.4</ele>
        <time>2025-10-18T09:57:27Z</time>
      </trkpt>
      <trkpt lat="43.60272" lon="1.3286">
        <ele>183.6</ele>
        <time>2025-10-18T09:57:28Z</time>
      </trkpt>
      <trkpt lat="43.60267" lon="1.32854">
        <ele>183.6</ele>
        <time>2025-10-18T09:57:29Z</time>
      </trkpt>
      <trkpt lat="43.60262" lon="1.32849">
        <ele>183.6</ele>
        <time>2025-10-18T09:57:30Z</time>
      </trkpt>
      <trkpt lat="43.60257" lon="1.32844">
        <ele>183.6</ele>
        <time>2025-10-18T09:57:31Z</time>
      </trkpt>
      <trkpt lat="43.60252" lon="1.32839">
        <ele>183.4</ele>
        <time>2025-10-18T09:57:32Z</time>
      </trkpt>
      <trkpt lat="43.60246" lon="1.32834">
        <ele>183.2</ele>
        <time>2025-10-18T09:57:33Z</time>
      </trkpt>
      <trkpt lat="43.60241" lon="1.32828">
        <ele>183.2</ele>
        <time>2025-10-18T09:57:34Z</time>
      </trkpt>
      <trkpt lat="43.60236" lon="1.32823">
        <ele>183</ele>
        <time>2025-10-18T09:57:35Z</time>
      </trkpt>
      <trkpt lat="43.6023" lon="1.32817">
        <ele>183</ele>
        <time>2025-10-18T09:57:36Z</time>
      </trkpt>
      <trkpt lat="43.60225" lon="1.32812">
        <ele>183</ele>
        <time>2025-10-18T09:57:37Z</time>
      </trkpt>
      <trkpt lat="43.6022" lon="1.32807">
        <ele>183</ele>
        <time>2025-10-18T09:57:38Z</time>
      </trkpt>
      <trkpt lat="43.60214" lon="1.32801">
        <ele>183.2</ele>
        <time>2025-10-18T09:57:39Z</time>
      </trkpt>
      <trkpt lat="43.60209" lon="1.32795">
        <ele>183.2</ele>
        <time>2025-10-18T09:57:40Z</time>
      </trkpt>
      <trkpt lat="43.60204" lon="1.32789">
        <ele>183.4</ele>
        <time>2025-10-18T09:57:41Z</time>
      </trkpt>
      <trkpt lat="43.60199" lon="1.32783">
        <ele>183.4</ele>
        <time>2025-10-18T09:57:42Z</time>
      </trkpt>
      <trkpt lat="43.60193" lon="1.32776">
        <ele>183.4</ele>
        <time>2025-10-18T09:57:43Z</time>
      </trkpt>
      <trkpt lat="43.60188" lon="1.32771">
        <ele>183.2</ele>
        <time>2025-10-18T09:57:44Z</time>
      </trkpt>
      <trkpt lat="43.60183" lon="1.32766">
        <ele>183.2</ele>
        <time>2025-10-18T09:57:45Z</time>
      </trkpt>
      <trkpt lat="43.60178" lon="1.32761">
        <ele>183</ele>
        <time>2025-10-18T09:57:46Z</time>
      </trkpt>
      <trkpt lat="43.60174" lon="1.32755">
        <ele>183</ele>
        <time>2025-10-18T09:57:47Z</time>
      </trkpt>
      <trkpt lat="43.60169" lon="1.3275">
        <ele>183</ele>
        <time>2025-10-18T09:57:48Z</time>
      </trkpt>
      <trkpt lat="43.60163" lon="1.32744">
        <ele>183</ele>
        <time>2025-10-18T09:57:49Z</time>
      </trkpt>
      <trkpt lat="43.60158" lon="1.32739">
        <ele>183</ele>
        <time>2025-10-18T09:57:50Z</time>
      </trkpt>
      <trkpt lat="43.60152" lon="1.32734">
        <ele>183</ele>
        <time>2025-10-18T09:57:51Z</time>
      </trkpt>
      <trkpt lat="43.60147" lon="1.32729">
        <ele>183</ele>
        <time>2025-10-18T09:57:52Z</time>
      </trkpt>
      <trkpt lat="43.60142" lon="1.32724">
        <ele>183</ele>
        <time>2025-10-18T09:57:53Z</time>
      </trkpt>
      <trkpt lat="43.60137" lon="1.32719">
        <ele>182.8</ele>
        <time>2025-10-18T09:57:54Z</time>
      </trkpt>
      <trkpt lat="43.60132" lon="1.32713">
        <ele>182.6</ele>
        <time>2025-10-18T09:57:55Z</time>
      </trkpt>
      <trkpt lat="43.60127" lon="1.32708">
        <ele>182.6</ele>
        <time>2025-10-18T09:57:56Z</time>
      </trkpt>
      <trkpt lat="43.60122" lon="1.32702">
        <ele>182.4</ele>
        <time>2025-10-18T09:57:57Z</time>
      </trkpt>
      <trkpt lat="43.60117" lon="1.32698">
        <ele>182.4</ele>
        <time>2025-10-18T09:57:58Z</time>
      </trkpt>
      <trkpt lat="43.60113" lon="1.32694">
        <ele>182.4</ele>
        <time>2025-10-18T09:57:59Z</time>
      </trkpt>
      <trkpt lat="43.60108" lon="1.32694">
        <ele>182.6</ele>
        <time>2025-10-18T09:58:00Z</time>
      </trkpt>
      <trkpt lat="43.60105" lon="1.32694">
        <ele>182.8</ele>
        <time>2025-10-18T09:58:01Z</time>
      </trkpt>
      <trkpt lat="43.60102" lon="1.32697">
        <ele>183.2</ele>
        <time>2025-10-18T09:58:02Z</time>
      </trkpt>
      <trkpt lat="43.60099" lon="1.327">
        <ele>183.4</ele>
        <time>2025-10-18T09:58:03Z</time>
      </trkpt>
      <trkpt lat="43.60096" lon="1.32703">
        <ele>183.6</ele>
        <time>2025-10-18T09:58:04Z</time>
      </trkpt>
      <trkpt lat="43.60094" lon="1.32707">
        <ele>183.8</ele>
        <time>2025-10-18T09:58:05Z</time>
      </trkpt>
      <trkpt lat="43.60091" lon="1.32711">
        <ele>183.8</ele>
        <time>2025-10-18T09:58:06Z</time>
      </trkpt>
      <trkpt lat="43.60088" lon="1.32716">
        <ele>183.8</ele>
        <time>2025-10-18T09:58:07Z</time>
      </trkpt>
      <trkpt lat="43.60086" lon="1.32721">
        <ele>183.8</ele>
        <time>2025-10-18T09:58:08Z</time>
      </trkpt>
      <trkpt lat="43.60084" lon="1.32726">
        <ele>184</ele>
        <time>2025-10-18T09:58:09Z</time>
      </trkpt>
      <trkpt lat="43.60081" lon="1.32728">
        <ele>184.2</ele>
        <time>2025-10-18T09:58:10Z</time>
      </trkpt>
      <trkpt lat="43.60078" lon="1.32729">
        <ele>184.4</ele>
        <time>2025-10-18T09:58:11Z</time>
      </trkpt>
      <trkpt lat="43.60076" lon="1.32728">
        <ele>184.4</ele>
        <time>2025-10-18T09:58:12Z</time>
      </trkpt>
      <trkpt lat="43.60075" lon="1.32725">
        <ele>184.6</ele>
        <time>2025-10-18T09:58:13Z</time>
      </trkpt>
      <trkpt lat="43.60072" lon="1.32723">
        <ele>184.8</ele>
        <time>2025-10-18T09:58:14Z</time>
      </trkpt>
      <trkpt lat="43.60069" lon="1.3272">
        <ele>184.8</ele>
        <time>2025-10-18T09:58:15Z</time>
      </trkpt>
      <trkpt lat="43.60068" lon="1.32717">
        <ele>184.6</ele>
        <time>2025-10-18T09:58:16Z</time>
      </trkpt>
      <trkpt lat="43.60065" lon="1.32714">
        <ele>184.6</ele>
        <time>2025-10-18T09:58:17Z</time>
      </trkpt>
      <trkpt lat="43.60063" lon="1.32713">
        <ele>184.6</ele>
        <time>2025-10-18T09:58:18Z</time>
      </trkpt>
      <trkpt lat="43.6006" lon="1.32714">
        <ele>184.6</ele>
        <time>2025-10-18T09:58:19Z</time>
      </trkpt>
      <trkpt lat="43.60058" lon="1.32716">
        <ele>184.8</ele>
        <time>2025-10-18T09:58:20Z</time>
      </trkpt>
      <trkpt lat="43.60056" lon="1.32718">
        <ele>184.8</ele>
        <time>2025-10-18T09:58:21Z</time>
      </trkpt>
      <trkpt lat="43.60055" lon="1.32721">
        <ele>184.8</ele>
        <time>2025-10-18T09:58:22Z</time>
      </trkpt>
      <trkpt lat="43.60057" lon="1.32723">
        <ele>184.8</ele>
        <time>2025-10-18T09:58:23Z</time>
      </trkpt>
      <trkpt lat="43.60059" lon="1.32724">
        <ele>184.8</ele>
        <time>2025-10-18T09:58:24Z</time>
      </trkpt>
      <trkpt lat="43.60061" lon="1.32725">
        <ele>185</ele>
        <time>2025-10-18T09:58:25Z</time>
      </trkpt>
      <trkpt lat="43.60064" lon="1.32727">
        <ele>185</ele>
        <time>2025-10-18T09:58:26Z</time>
      </trkpt>
      <trkpt lat="43.60067" lon="1.32729">
        <ele>185</ele>
        <time>2025-10-18T09:58:27Z</time>
      </trkpt>
      <trkpt lat="43.60071" lon="1.32733">
        <ele>185</ele>
        <time>2025-10-18T09:58:28Z</time>
      </trkpt>
      <trkpt lat="43.60074" lon="1.32737">
        <ele>185</ele>
        <time>2025-10-18T09:58:29Z</time>
      </trkpt>
      <trkpt lat="43.60078" lon="1.32741">
        <ele>185</ele>
        <time>2025-10-18T09:58:30Z</time>
      </trkpt>
      <trkpt lat="43.60083" lon="1.32744">
        <ele>185</ele>
        <time>2025-10-18T09:58:31Z</time>
      </trkpt>
      <trkpt lat="43.60087" lon="1.32749">
        <ele>184.8</ele>
        <time>2025-10-18T09:58:32Z</time>
      </trkpt>
      <trkpt lat="43.60088" lon="1.32756">
        <ele>184.6</ele>
        <time>2025-10-18T09:58:33Z</time>
      </trkpt>
      <trkpt lat="43.60088" lon="1.32764">
        <ele>184.4</ele>
        <time>2025-10-18T09:58:34Z</time>
      </trkpt>
      <trkpt lat="43.60087" lon="1.32771">
        <ele>184.2</ele>
        <time>2025-10-18T09:58:35Z</time>
      </trkpt>
      <trkpt lat="43.60084" lon="1.32778">
        <ele>184</ele>
        <time>2025-10-18T09:58:36Z</time>
      </trkpt>
      <trkpt lat="43.60082" lon="1.32786">
        <ele>183.8</ele>
        <time>2025-10-18T09:58:37Z</time>
      </trkpt>
      <trkpt lat="43.60078" lon="1.32793">
        <ele>183.6</ele>
        <time>2025-10-18T09:58:38Z</time>
      </trkpt>
      <trkpt lat="43.60074" lon="1.328">
        <ele>183.4</ele>
        <time>2025-10-18T09:58:39Z</time>
      </trkpt>
      <trkpt lat="43.6007" lon="1.32806">
        <ele>183.2</ele>
        <time>2025-10-18T09:58:40Z</time>
      </trkpt>
      <trkpt lat="43.60066" lon="1.32813">
        <ele>183.4</ele>
        <time>2025-10-18T09:58:41Z</time>
      </trkpt>
      <trkpt lat="43.60062" lon="1.3282">
        <ele>183.4</ele>
        <time>2025-10-18T09:58:42Z</time>
      </trkpt>
      <trkpt lat="43.60057" lon="1.32827">
        <ele>183.4</ele>
        <time>2025-10-18T09:58:43Z</time>
      </trkpt>
      <trkpt lat="43.60053" lon="1.32833">
        <ele>183.4</ele>
        <time>2025-10-18T09:58:44Z</time>
      </trkpt>
      <trkpt lat="43.60049" lon="1.3284">
        <ele>183.6</ele>
        <time>2025-10-18T09:58:45Z</time>
      </trkpt>
      <trkpt lat="43.60045" lon="1.32845">
        <ele>183.6</ele>
        <time>2025-10-18T09:58:46Z</time>
      </trkpt>
      <trkpt lat="43.60042" lon="1.32849">
        <ele>183.8</ele>
        <time>2025-10-18T09:58:47Z</time>
      </trkpt>
      <trkpt lat="43.6004" lon="1.32854">
        <ele>183.8</ele>
        <time>2025-10-18T09:58:48Z</time>
      </trkpt>
      <trkpt lat="43.60039" lon="1.32859">
        <ele>184</ele>
        <time>2025-10-18T09:58:49Z</time>
      </trkpt>
      <trkpt lat="43.60038" lon="1.32865">
        <ele>184.2</ele>
        <time>2025-10-18T09:58:50Z</time>
      </trkpt>
      <trkpt lat="43.60038" lon="1.3287">
        <ele>184.2</ele>
        <time>2025-10-18T09:58:51Z</time>
      </trkpt>
      <trkpt lat="43.60037" lon="1.32875">
        <ele>184.4</ele>
        <time>2025-10-18T09:58:52Z</time>
      </trkpt>
      <trkpt lat="43.60036" lon="1.32879">
        <ele>184.4</ele>
        <time>2025-10-18T09:58:53Z</time>
      </trkpt>
      <trkpt lat="43.60037" lon="1.32882">
        <ele>184.4</ele>
        <time>2025-10-18T09:58:54Z</time>
      </trkpt>
      <trkpt lat="43.60039" lon="1.32883">
        <ele>184.6</ele>
        <time>2025-10-18T09:58:55Z</time>
      </trkpt>
      <trkpt lat="43.6004" lon="1.3288">
        <ele>184.8</ele>
        <time>2025-10-18T09:58:56Z</time>
      </trkpt>
      <trkpt lat="43.6004" lon="1.32876">
        <ele>185</ele>
        <time>2025-10-18T09:58:57Z</time>
      </trkpt>
      <trkpt lat="43.6004" lon="1.32872">
        <ele>185</ele>
        <time>2025-10-18T09:58:58Z</time>
      </trkpt>
      <trkpt lat="43.6004" lon="1.32867">
        <ele>185</ele>
        <time>2025-10-18T09:58:59Z</time>
      </trkpt>
      <trkpt lat="43.60042" lon="1.3286">
        <ele>185</ele>
        <time>2025-10-18T09:59:00Z</time>
      </trkpt>
      <trkpt lat="43.60044" lon="1.32854">
        <ele>185</ele>
        <time>2025-10-18T09:59:01Z</time>
      </trkpt>
      <trkpt lat="43.60046" lon="1.32847">
        <ele>185</ele>
        <time>2025-10-18T09:59:02Z</time>
      </trkpt>
      <trkpt lat="43.60047" lon="1.32841">
        <ele>184.8</ele>
        <time>2025-10-18T09:59:03Z</time>
      </trkpt>
      <trkpt lat="43.60047" lon="1.32837">
        <ele>184.8</ele>
        <time>2025-10-18T09:59:04Z</time>
      </trkpt>
      <trkpt lat="43.60046" lon="1.32833">
        <ele>184.8</ele>
        <time>2025-10-18T09:59:05Z</time>
      </trkpt>
      <trkpt lat="43.60044" lon="1.32829">
        <ele>184.6</ele>
        <time>2025-10-18T09:59:06Z</time>
      </trkpt>
      <trkpt lat="43.60041" lon="1.32826">
        <ele>184.6</ele>
        <time>2025-10-18T09:59:07Z</time>
      </trkpt>
      <trkpt lat="43.60037" lon="1.32822">
        <ele>184.4</ele>
        <time>2025-10-18T09:59:08Z</time>
      </trkpt>
      <trkpt lat="43.60033" lon="1.32817">
        <ele>184.2</ele>
        <time>2025-10-18T09:59:09Z</time>
      </trkpt>
      <trkpt lat="43.60029" lon="1.32813">
        <ele>184</ele>
        <time>2025-10-18T09:59:10Z</time>
      </trkpt>
      <trkpt lat="43.60024" lon="1.32809">
        <ele>183.8</ele>
        <time>2025-10-18T09:59:11Z</time>
      </trkpt>
      <trkpt lat="43.60019" lon="1.32805">
        <ele>183.6</ele>
        <time>2025-10-18T09:59:12Z</time>
      </trkpt>
      <trkpt lat="43.60014" lon="1.32801">
        <ele>183.4</ele>
        <time>2025-10-18T09:59:13Z</time>
      </trkpt>
      <trkpt lat="43.6001" lon="1.32798">
        <ele>183.4</ele>
        <time>2025-10-18T09:59:14Z</time>
      </trkpt>
      <trkpt lat="43.60007" lon="1.32796">
        <ele>183.6</ele>
        <time>2025-10-18T09:59:15Z</time>
      </trkpt>
      <trkpt lat="43.60004" lon="1.32795">
        <ele>183.8</ele>
        <time>2025-10-18T09:59:16Z</time>
      </trkpt>
      <trkpt lat="43.60004" lon="1.32794">
        <ele>184.2</ele>
        <time>2025-10-18T09:59:17Z</time>
      </trkpt>
      <trkpt lat="43.60004" lon="1.32792">
        <ele>184.4</ele>
        <time>2025-10-18T09:59:18Z</time>
      </trkpt>
      <trkpt lat="43.60004" lon="1.32791">
        <ele>184.6</ele>
        <time>2025-10-18T09:59:19Z</time>
      </trkpt>
      <trkpt lat="43.60003" lon="1.3279">
        <ele>184.8</ele>
        <time>2025-10-18T09:59:20Z</time>
      </trkpt>
      <trkpt lat="43.60001" lon="1.32791">
        <ele>184.8</ele>
        <time>2025-10-18T09:59:21Z</time>
      </trkpt>
      <trkpt lat="43.59999" lon="1.32791">
        <ele>184.8</ele>
        <time>2025-10-18T09:59:22Z</time>
      </trkpt>
      <trkpt lat="43.59996" lon="1.3279">
        <ele>184.8</ele>
        <time>2025-10-18T09:59:23Z</time>
      </trkpt>
      <trkpt lat="43.59992" lon="1.32789">
        <ele>184.6</ele>
        <time>2025-10-18T09:59:24Z</time>
      </trkpt>
      <trkpt lat="43.59989" lon="1.32787">
        <ele>184.4</ele>
        <time>2025-10-18T09:59:25Z</time>
      </trkpt>
      <trkpt lat="43.59985" lon="1.32785">
        <ele>184.2</ele>
        <time>2025-10-18T09:59:26Z</time>
      </trkpt>
      <trkpt lat="43.59981" lon="1.32781">
        <ele>184</ele>
        <time>2025-10-18T09:59:27Z</time>
      </trkpt>
      <trkpt lat="43.59978" lon="1.32778">
        <ele>183.8</ele>
        <time>2025-10-18T09:59:28Z</time>
      </trkpt>
      <trkpt lat="43.59975" lon="1.32773">
        <ele>183.6</ele>
        <time>2025-10-18T09:59:29Z</time>
      </trkpt>
      <trkpt lat="43.59971" lon="1.32769">
        <ele>183.6</ele>
        <time>2025-10-18T09:59:30Z</time>
      </trkpt>
      <trkpt lat="43.59967" lon="1.32766">
        <ele>183.4</ele>
        <time>2025-10-18T09:59:31Z</time>
      </trkpt>
      <trkpt lat="43.59962" lon="1.32762">
        <ele>183.4</ele>
        <time>2025-10-18T09:59:32Z</time>
      </trkpt>
      <trkpt lat="43.59957" lon="1.32758">
        <ele>183.2</ele>
        <time>2025-10-18T09:59:33Z</time>
      </trkpt>
      <trkpt lat="43.59952" lon="1.32755">
        <ele>183.2</ele>
        <time>2025-10-18T09:59:34Z</time>
      </trkpt>
      <trkpt lat="43.59946" lon="1.32751">
        <ele>183.2</ele>
        <time>2025-10-18T09:59:35Z</time>
      </trkpt>
      <trkpt lat="43.59941" lon="1.32748">
        <ele>183.2</ele>
        <time>2025-10-18T09:59:36Z</time>
      </trkpt>
      <trkpt lat="43.59935" lon="1.32745">
        <ele>183</ele>
        <time>2025-10-18T09:59:37Z</time>
      </trkpt>
      <trkpt lat="43.5993" lon="1.32743">
        <ele>182.8</ele>
        <time>2025-10-18T09:59:38Z</time>
      </trkpt>
      <trkpt lat="43.59924" lon="1.3274">
        <ele>182.6</ele>
        <time>2025-10-18T09:59:39Z</time>
      </trkpt>
      <trkpt lat="43.59918" lon="1.32737">
        <ele>182.4</ele>
        <time>2025-10-18T09:59:40Z</time>
      </trkpt>
      <trkpt lat="43.59913" lon="1.32733">
        <ele>182</ele>
        <time>2025-10-18T09:59:41Z</time>
      </trkpt>
      <trkpt lat="43.59907" lon="1.32729">
        <ele>181.8</ele>
        <time>2025-10-18T09:59:42Z</time>
      </trkpt>
      <trkpt lat="43.599" lon="1.32726">
        <ele>181.4</ele>
        <time>2025-10-18T09:59:43Z</time>
      </trkpt>
      <trkpt lat="43.59894" lon="1.32723">
        <ele>181.2</ele>
        <time>2025-10-18T09:59:44Z</time>
      </trkpt>
      <trkpt lat="43.59889" lon="1.32721">
        <ele>181.2</ele>
        <time>2025-10-18T09:59:45Z</time>
      </trkpt>
      <trkpt lat="43.59886" lon="1.32718">
        <ele>181</ele>
        <time>2025-10-18T09:59:46Z</time>
      </trkpt>
      <trkpt lat="43.59883" lon="1.32716">
        <ele>181</ele>
        <time>2025-10-18T09:59:47Z</time>
      </trkpt>
      <trkpt lat="43.5988" lon="1.32713">
        <ele>181</ele>
        <time>2025-10-18T09:59:48Z</time>
      </trkpt>
      <trkpt lat="43.59876" lon="1.32712">
        <ele>181.2</ele>
        <time>2025-10-18T09:59:49Z</time>
      </trkpt>
      <trkpt lat="43.59873" lon="1.32714">
        <ele>181.2</ele>
        <time>2025-10-18T09:59:50Z</time>
      </trkpt>
      <trkpt lat="43.59873" lon="1.32718">
        <ele>181</ele>
        <time>2025-10-18T09:59:51Z</time>
      </trkpt>
      <trkpt lat="43.59875" lon="1.32721">
        <ele>181</ele>
        <time>2025-10-18T09:59:52Z</time>
      </trkpt>
      <trkpt lat="43.59877" lon="1.3272">
        <ele>180.8</ele>
        <time>2025-10-18T09:59:53Z</time>
      </trkpt>
      <trkpt lat="43.59879" lon="1.32717">
        <ele>181</ele>
        <time>2025-10-18T09:59:54Z</time>
      </trkpt>
      <trkpt lat="43.59879" lon="1.32713">
        <ele>181</ele>
        <time>2025-10-18T09:59:55Z</time>
      </trkpt>
      <trkpt lat="43.59879" lon="1.32707">
        <ele>181</ele>
        <time>2025-10-18T09:59:56Z</time>
      </trkpt>
      <trkpt lat="43.59878" lon="1.32701">
        <ele>181.2</ele>
        <time>2025-10-18T09:59:57Z</time>
      </trkpt>
      <trkpt lat="43.59877" lon="1.32696">
        <ele>181.2</ele>
        <time>2025-10-18T09:59:58Z</time>
      </trkpt>
      <trkpt lat="43.59875" lon="1.32689">
        <ele>181.2</ele>
        <time>2025-10-18T09:59:59Z</time>
      </trkpt>
      <trkpt lat="43.59873" lon="1.32682">
        <ele>181.4</ele>
        <time>2025-10-18T10:00:00Z</time>
      </trkpt>
      <trkpt lat="43.59872" lon="1.32675">
        <ele>181.4</ele>
        <time>2025-10-18T10:00:01Z</time>
      </trkpt>
      <trkpt lat="43.59871" lon="1.32668">
        <ele>181.4</ele>
        <time>2025-10-18T10:00:02Z</time>
      </trkpt>
      <trkpt lat="43.59869" lon="1.3266">
        <ele>181.6</ele>
        <time>2025-10-18T10:00:03Z</time>
      </trkpt>
      <trkpt lat="43.59867" lon="1.32652">
        <ele>181.6</ele>
        <time>2025-10-18T10:00:04Z</time>
      </trkpt>
      <trkpt lat="43.59866" lon="1.32645">
        <ele>181.6</ele>
        <time>2025-10-18T10:00:05Z</time>
      </trkpt>
      <trkpt lat="43.59864" lon="1.32637">
        <ele>181.6</ele>
        <time>2025-10-18T10:00:06Z</time>
      </trkpt>
      <trkpt lat="43.59863" lon="1.3263">
        <ele>181.6</ele>
        <time>2025-10-18T10:00:07Z</time>
      </trkpt>
      <trkpt lat="43.59862" lon="1.32623">
        <ele>181.6</ele>
        <time>2025-10-18T10:00:08Z</time>
      </trkpt>
      <trkpt lat="43.59859" lon="1.32617">
        <ele>181.8</ele>
        <time>2025-10-18T10:00:09Z</time>
      </trkpt>
      <trkpt lat="43.59857" lon="1.32617">
        <ele>182</ele>
        <time>2025-10-18T10:00:10Z</time>
      </trkpt>
      <trkpt lat="43.59855" lon="1.32619">
        <ele>182.2</ele>
        <time>2025-10-18T10:00:11Z</time>
      </trkpt>
      <trkpt lat="43.59853" lon="1.3262">
        <ele>182.4</ele>
        <time>2025-10-18T10:00:12Z</time>
      </trkpt>
      <trkpt lat="43.59849" lon="1.32621">
        <ele>182.4</ele>
        <time>2025-10-18T10:00:13Z</time>
      </trkpt>
      <trkpt lat="43.59846" lon="1.32622">
        <ele>182.6</ele>
        <time>2025-10-18T10:00:14Z</time>
      </trkpt>
      <trkpt lat="43.59842" lon="1.32624">
        <ele>182.6</ele>
        <time>2025-10-18T10:00:15Z</time>
      </trkpt>
      <trkpt lat="43.59837" lon="1.32625">
        <ele>182.2</ele>
        <time>2025-10-18T10:00:16Z</time>
      </trkpt>
      <trkpt lat="43.59833" lon="1.32627">
        <ele>182</ele>
        <time>2025-10-18T10:00:17Z</time>
      </trkpt>
      <trkpt lat="43.59829" lon="1.3263">
        <ele>181.8</ele>
        <time>2025-10-18T10:00:18Z</time>
      </trkpt>
      <trkpt lat="43.59828" lon="1.32633">
        <ele>181.6</ele>
        <time>2025-10-18T10:00:19Z</time>
      </trkpt>
      <trkpt lat="43.59829" lon="1.32637">
        <ele>181.4</ele>
        <time>2025-10-18T10:00:20Z</time>
      </trkpt>
      <trkpt lat="43.59828" lon="1.32642">
        <ele>181.2</ele>
        <time>2025-10-18T10:00:21Z</time>
      </trkpt>
      <trkpt lat="43.59826" lon="1.32648">
        <ele>180.8</ele>
        <time>2025-10-18T10:00:22Z</time>
      </trkpt>
      <trkpt lat="43.59825" lon="1.32654">
        <ele>180.6</ele>
        <time>2025-10-18T10:00:23Z</time>
      </trkpt>
      <trkpt lat="43.59823" lon="1.3266">
        <ele>180.4</ele>
        <time>2025-10-18T10:00:24Z</time>
      </trkpt>
      <trkpt lat="43.5982" lon="1.32666">
        <ele>180</ele>
        <time>2025-10-18T10:00:25Z</time>
      </trkpt>
      <trkpt lat="43.59818" lon="1.32672">
        <ele>179.6</ele>
        <time>2025-10-18T10:00:26Z</time>
      </trkpt>
      <trkpt lat="43.59815" lon="1.32679">
        <ele>179.4</ele>
        <time>2025-10-18T10:00:27Z</time>
      </trkpt>
      <trkpt lat="43.59814" lon="1.32685">
        <ele>179.4</ele>
        <time>2025-10-18T10:00:28Z</time>
      </trkpt>
      <trkpt lat="43.59812" lon="1.32691">
        <ele>179.6</ele>
        <time>2025-10-18T10:00:29Z</time>
      </trkpt>
      <trkpt lat="43.5981" lon="1.32698">
        <ele>179.8</ele>
        <time>2025-10-18T10:00:30Z</time>
      </trkpt>
      <trkpt lat="43.59808" lon="1.32705">
        <ele>180</ele>
        <time>2025-10-18T10:00:31Z</time>
      </trkpt>
      <trkpt lat="43.59806" lon="1.32712">
        <ele>180.4</ele>
        <time>2025-10-18T10:00:32Z</time>
      </trkpt>
      <trkpt lat="43.59805" lon="1.3272">
        <ele>180.6</ele>
        <time>2025-10-18T10:00:33Z</time>
      </trkpt>
      <trkpt lat="43.59804" lon="1.32729">
        <ele>180.8</ele>
        <time>2025-10-18T10:00:34Z</time>
      </trkpt>
      <trkpt lat="43.59803" lon="1.32737">
        <ele>181</ele>
        <time>2025-10-18T10:00:35Z</time>
      </trkpt>
      <trkpt lat="43.59803" lon="1.32745">
        <ele>181.2</ele>
        <time>2025-10-18T10:00:36Z</time>
      </trkpt>
      <trkpt lat="43.59802" lon="1.32754">
        <ele>181.2</ele>
        <time>2025-10-18T10:00:37Z</time>
      </trkpt>
      <trkpt lat="43.59801" lon="1.32762">
        <ele>181.2</ele>
        <time>2025-10-18T10:00:38Z</time>
      </trkpt>
      <trkpt lat="43.598" lon="1.3277">
        <ele>181.2</ele>
        <time>2025-10-18T10:00:39Z</time>
      </trkpt>
      <trkpt lat="43.59798" lon="1.32777">
        <ele>181.4</ele>
        <time>2025-10-18T10:00:40Z</time>
      </trkpt>
      <trkpt lat="43.59797" lon="1.32785">
        <ele>181.6</ele>
        <time>2025-10-18T10:00:41Z</time>
      </trkpt>
      <trkpt lat="43.59795" lon="1.32791">
        <ele>181.8</ele>
        <time>2025-10-18T10:00:42Z</time>
      </trkpt>
      <trkpt lat="43.59793" lon="1.32798">
        <ele>182.2</ele>
        <time>2025-10-18T10:00:43Z</time>
      </trkpt>
      <trkpt lat="43.59791" lon="1.32804">
        <ele>182.4</ele>
        <time>2025-10-18T10:00:44Z</time>
      </trkpt>
      <trkpt lat="43.59789" lon="1.32811">
        <ele>182.6</ele>
        <time>2025-10-18T10:00:45Z</time>
      </trkpt>
      <trkpt lat="43.59787" lon="1.32818">
        <ele>182.6</ele>
        <time>2025-10-18T10:00:46Z</time>
      </trkpt>
      <trkpt lat="43.59786" lon="1.32826">
        <ele>182.6</ele>
        <time>2025-10-18T10:00:47Z</time>
      </trkpt>
      <trkpt lat="43.59787" lon="1.32833">
        <ele>182.4</ele>
        <time>2025-10-18T10:00:48Z</time>
      </trkpt>
      <trkpt lat="43.5979" lon="1.3284">
        <ele>182.2</ele>
        <time>2025-10-18T10:00:49Z</time>
      </trkpt>
      <trkpt lat="43.59793" lon="1.32846">
        <ele>182</ele>
        <time>2025-10-18T10:00:50Z</time>
      </trkpt>
      <trkpt lat="43.59795" lon="1.32853">
        <ele>181.8</ele>
        <time>2025-10-18T10:00:51Z</time>
      </trkpt>
      <trkpt lat="43.59796" lon="1.3286">
        <ele>181.8</ele>
        <time>2025-10-18T10:00:52Z</time>
      </trkpt>
      <trkpt lat="43.59796" lon="1.32863">
        <ele>181.8</ele>
        <time>2025-10-18T10:00:53Z</time>
      </trkpt>
      <trkpt lat="43.59796" lon="1.32865">
        <ele>181.8</ele>
        <time>2025-10-18T10:00:54Z</time>
      </trkpt>
      <trkpt lat="43.59795" lon="1.32867">
        <ele>181.8</ele>
        <time>2025-10-18T10:00:55Z</time>
      </trkpt>
      <trkpt lat="43.59795" lon="1.32868">
        <ele>182</ele>
        <time>2025-10-18T10:00:56Z</time>
      </trkpt>
      <trkpt lat="43.59794" lon="1.3287">
        <ele>182</ele>
        <time>2025-10-18T10:00:57Z</time>
      </trkpt>
      <trkpt lat="43.59793" lon="1.32873">
        <ele>181.8</ele>
        <time>2025-10-18T10:00:58Z</time>
      </trkpt>
      <trkpt lat="43.59794" lon="1.32877">
        <ele>181.8</ele>
        <time>2025-10-18T10:00:59Z</time>
      </trkpt>
      <trkpt lat="43.59796" lon="1.32882">
        <ele>181.8</ele>
        <time>2025-10-18T10:01:00Z</time>
      </trkpt>
      <trkpt lat="43.59798" lon="1.32885">
        <ele>181.8</ele>
        <time>2025-10-18T10:01:01Z</time>
      </trkpt>
      <trkpt lat="43.59802" lon="1.32888">
        <ele>181.6</ele>
        <time>2025-10-18T10:01:02Z</time>
      </trkpt>
      <trkpt lat="43.59806" lon="1.32891">
        <ele>181.4</ele>
        <time>2025-10-18T10:01:03Z</time>
      </trkpt>
      <trkpt lat="43.5981" lon="1.32894">
        <ele>181.2</ele>
        <time>2025-10-18T10:01:04Z</time>
      </trkpt>
      <trkpt lat="43.59815" lon="1.32898">
        <ele>181</ele>
        <time>2025-10-18T10:01:05Z</time>
      </trkpt>
      <trkpt lat="43.5982" lon="1.32903">
        <ele>180.8</ele>
        <time>2025-10-18T10:01:06Z</time>
      </trkpt>
      <trkpt lat="43.59825" lon="1.32907">
        <ele>180.6</ele>
        <time>2025-10-18T10:01:07Z</time>
      </trkpt>
      <trkpt lat="43.5983" lon="1.32911">
        <ele>180.4</ele>
        <time>2025-10-18T10:01:08Z</time>
      </trkpt>
      <trkpt lat="43.59835" lon="1.32916">
        <ele>180.2</ele>
        <time>2025-10-18T10:01:09Z</time>
      </trkpt>
      <trkpt lat="43.5984" lon="1.32919">
        <ele>180.2</ele>
        <time>2025-10-18T10:01:10Z</time>
      </trkpt>
      <trkpt lat="43.59844" lon="1.32923">
        <ele>180.2</ele>
        <time>2025-10-18T10:01:11Z</time>
      </trkpt>
      <trkpt lat="43.59847" lon="1.32927">
        <ele>180</ele>
        <time>2025-10-18T10:01:12Z</time>
      </trkpt>
      <trkpt lat="43.5985" lon="1.32931">
        <ele>180</ele>
        <time>2025-10-18T10:01:13Z</time>
      </trkpt>
      <trkpt lat="43.59853" lon="1.32938">
        <ele>180</ele>
        <time>2025-10-18T10:01:14Z</time>
      </trkpt>
      <trkpt lat="43.59855" lon="1.32944">
        <ele>180.2</ele>
        <time>2025-10-18T10:01:15Z</time>
      </trkpt>
      <trkpt lat="43.59857" lon="1.3295">
        <ele>180</ele>
        <time>2025-10-18T10:01:16Z</time>
      </trkpt>
      <trkpt lat="43.59858" lon="1.32956">
        <ele>180.2</ele>
        <time>2025-10-18T10:01:17Z</time>
      </trkpt>
      <trkpt lat="43.59858" lon="1.32963">
        <ele>180</ele>
        <time>2025-10-18T10:01:18Z</time>
      </trkpt>
      <trkpt lat="43.59857" lon="1.3297">
        <ele>180.2</ele>
        <time>2025-10-18T10:01:19Z</time>
      </trkpt>
      <trkpt lat="43.59857" lon="1.32976">
        <ele>180</ele>
        <time>2025-10-18T10:01:20Z</time>
      </trkpt>
      <trkpt lat="43.59856" lon="1.32983">
        <ele>180.2</ele>
        <time>2025-10-18T10:01:21Z</time>
      </trkpt>
      <trkpt lat="43.59856" lon="1.32991">
        <ele>180.2</ele>
        <time>2025-10-18T10:01:22Z</time>
      </trkpt>
      <trkpt lat="43.59856" lon="1.32998">
        <ele>180.2</ele>
        <time>2025-10-18T10:01:23Z</time>
      </trkpt>
      <trkpt lat="43.59856" lon="1.33005">
        <ele>180.2</ele>
        <time>2025-10-18T10:01:24Z</time>
      </trkpt>
      <trkpt lat="43.59855" lon="1.33013">
        <ele>180.2</ele>
        <time>2025-10-18T10:01:25Z</time>
      </trkpt>
      <trkpt lat="43.59854" lon="1.3302">
        <ele>180.2</ele>
        <time>2025-10-18T10:01:26Z</time>
      </trkpt>
      <trkpt lat="43.59854" lon="1.33028">
        <ele>180.4</ele>
        <time>2025-10-18T10:01:27Z</time>
      </trkpt>
      <trkpt lat="43.59854" lon="1.33035">
        <ele>180.4</ele>
        <time>2025-10-18T10:01:28Z</time>
      </trkpt>
      <trkpt lat="43.59853" lon="1.33043">
        <ele>180.4</ele>
        <time>2025-10-18T10:01:29Z</time>
      </trkpt>
      <trkpt lat="43.59852" lon="1.3305">
        <ele>180.6</ele>
        <time>2025-10-18T10:01:30Z</time>
      </trkpt>
      <trkpt lat="43.59851" lon="1.33057">
        <ele>180.6</ele>
        <time>2025-10-18T10:01:31Z</time>
      </trkpt>
      <trkpt lat="43.5985" lon="1.33066">
        <ele>180.4</ele>
        <time>2025-10-18T10:01:32Z</time>
      </trkpt>
      <trkpt lat="43.59849" lon="1.33075">
        <ele>180.2</ele>
        <time>2025-10-18T10:01:33Z</time>
      </trkpt>
      <trkpt lat="43.59848" lon="1.33083">
        <ele>180</ele>
        <time>2025-10-18T10:01:34Z</time>
      </trkpt>
      <trkpt lat="43.59847" lon="1.33092">
        <ele>180</ele>
        <time>2025-10-18T10:01:35Z</time>
      </trkpt>
      <trkpt lat="43.59845" lon="1.33101">
        <ele>180</ele>
        <time>2025-10-18T10:01:36Z</time>
      </trkpt>
      <trkpt lat="43.59845" lon="1.33109">
        <ele>180</ele>
        <time>2025-10-18T10:01:37Z</time>
      </trkpt>
      <trkpt lat="43.59843" lon="1.33116">
        <ele>180.2</ele>
        <time>2025-10-18T10:01:38Z</time>
      </trkpt>
      <trkpt lat="43.59839" lon="1.33122">
        <ele>180.2</ele>
        <time>2025-10-18T10:01:39Z</time>
      </trkpt>
      <trkpt lat="43.59834" lon="1.33126">
        <ele>180.2</ele>
        <time>2025-10-18T10:01:40Z</time>
      </trkpt>
      <trkpt lat="43.59828" lon="1.33132">
        <ele>179.8</ele>
        <time>2025-10-18T10:01:41Z</time>
      </trkpt>
      <trkpt lat="43.59823" lon="1.33139">
        <ele>179.2</ele>
        <time>2025-10-18T10:01:42Z</time>
      </trkpt>
      <trkpt lat="43.59819" lon="1.33147">
        <ele>178.4</ele>
        <time>2025-10-18T10:01:43Z</time>
      </trkpt>
      <trkpt lat="43.59817" lon="1.33155">
        <ele>177.4</ele>
        <time>2025-10-18T10:01:44Z</time>
      </trkpt>
      <trkpt lat="43.59817" lon="1.33165">
        <ele>176.6</ele>
        <time>2025-10-18T10:01:45Z</time>
      </trkpt>
      <trkpt lat="43.59817" lon="1.33174">
        <ele>176.2</ele>
        <time>2025-10-18T10:01:46Z</time>
      </trkpt>
      <trkpt lat="43.59817" lon="1.33183">
        <ele>175.8</ele>
        <time>2025-10-18T10:01:47Z</time>
      </trkpt>
      <trkpt lat="43.59818" lon="1.33192">
        <ele>175.6</ele>
        <time>2025-10-18T10:01:48Z</time>
      </trkpt>
      <trkpt lat="43.5982" lon="1.332">
        <ele>175.6</ele>
        <time>2025-10-18T10:01:49Z</time>
      </trkpt>
      <trkpt lat="43.59822" lon="1.33208">
        <ele>175.6</ele>
        <time>2025-10-18T10:01:50Z</time>
      </trkpt>
      <trkpt lat="43.59825" lon="1.33216">
        <ele>175.8</ele>
        <time>2025-10-18T10:01:51Z</time>
      </trkpt>
      <trkpt lat="43.59828" lon="1.33223">
        <ele>176</ele>
        <time>2025-10-18T10:01:52Z</time>
      </trkpt>
      <trkpt lat="43.59831" lon="1.33231">
        <ele>176</ele>
        <time>2025-10-18T10:01:53Z</time>
      </trkpt>
      <trkpt lat="43.59834" lon="1.33238">
        <ele>176.2</ele>
        <time>2025-10-18T10:01:54Z</time>
      </trkpt>
      <trkpt lat="43.59836" lon="1.33246">
        <ele>176</ele>
        <time>2025-10-18T10:01:55Z</time>
      </trkpt>
      <trkpt lat="43.59838" lon="1.33255">
        <ele>176</ele>
        <time>2025-10-18T10:01:56Z</time>
      </trkpt>
      <trkpt lat="43.5984" lon="1.33264">
        <ele>176</ele>
        <time>2025-10-18T10:01:57Z</time>
      </trkpt>
      <trkpt lat="43.59841" lon="1.33273">
        <ele>176</ele>
        <time>2025-10-18T10:01:58Z</time>
      </trkpt>
      <trkpt lat="43.59843" lon="1.33281">
        <ele>176</ele>
        <time>2025-10-18T10:01:59Z</time>
      </trkpt>
      <trkpt lat="43.59844" lon="1.33288">
        <ele>176</ele>
        <time>2025-10-18T10:02:00Z</time>
      </trkpt>
      <trkpt lat="43.59844" lon="1.33297">
        <ele>176.2</ele>
        <time>2025-10-18T10:02:01Z</time>
      </trkpt>
      <trkpt lat="43.59844" lon="1.33304">
        <ele>176.4</ele>
        <time>2025-10-18T10:02:02Z</time>
      </trkpt>
      <trkpt lat="43.59843" lon="1.33311">
        <ele>176.6</ele>
        <time>2025-10-18T10:02:03Z</time>
      </trkpt>
      <trkpt lat="43.59841" lon="1.33317">
        <ele>176.8</ele>
        <time>2025-10-18T10:02:04Z</time>
      </trkpt>
      <trkpt lat="43.59839" lon="1.33324">
        <ele>177</ele>
        <time>2025-10-18T10:02:05Z</time>
      </trkpt>
      <trkpt lat="43.59838" lon="1.33331">
        <ele>177.2</ele>
        <time>2025-10-18T10:02:06Z</time>
      </trkpt>
      <trkpt lat="43.59835" lon="1.33337">
        <ele>177.6</ele>
        <time>2025-10-18T10:02:07Z</time>
      </trkpt>
      <trkpt lat="43.59832" lon="1.33342">
        <ele>177.8</ele>
        <time>2025-10-18T10:02:08Z</time>
      </trkpt>
      <trkpt lat="43.59829" lon="1.33346">
        <ele>178.2</ele>
        <time>2025-10-18T10:02:09Z</time>
      </trkpt>
      <trkpt lat="43.59829" lon="1.33351">
        <ele>178.6</ele>
        <time>2025-10-18T10:02:10Z</time>
      </trkpt>
      <trkpt lat="43.59829" lon="1.33354">
        <ele>179.2</ele>
        <time>2025-10-18T10:02:11Z</time>
      </trkpt>
      <trkpt lat="43.5983" lon="1.33359">
        <ele>179.6</ele>
        <time>2025-10-18T10:02:12Z</time>
      </trkpt>
      <trkpt lat="43.59831" lon="1.33364">
        <ele>180</ele>
        <time>2025-10-18T10:02:13Z</time>
      </trkpt>
      <trkpt lat="43.59832" lon="1.33369">
        <ele>180.2</ele>
        <time>2025-10-18T10:02:14Z</time>
      </trkpt>
      <trkpt lat="43.59833" lon="1.33375">
        <ele>180.4</ele>
        <time>2025-10-18T10:02:15Z</time>
      </trkpt>
      <trkpt lat="43.59834" lon="1.33381">
        <ele>180.4</ele>
        <time>2025-10-18T10:02:16Z</time>
      </trkpt>
      <trkpt lat="43.59834" lon="1.33388">
        <ele>180.4</ele>
        <time>2025-10-18T10:02:17Z</time>
      </trkpt>
      <trkpt lat="43.59835" lon="1.33395">
        <ele>180.4</ele>
        <time>2025-10-18T10:02:18Z</time>
      </trkpt>
      <trkpt lat="43.59835" lon="1.33402">
        <ele>180.4</ele>
        <time>2025-10-18T10:02:19Z</time>
      </trkpt>
      <trkpt lat="43.59837" lon="1.3341">
        <ele>180.4</ele>
        <time>2025-10-18T10:02:20Z</time>
      </trkpt>
      <trkpt lat="43.5984" lon="1.33416">
        <ele>180</ele>
        <time>2025-10-18T10:02:21Z</time>
      </trkpt>
      <trkpt lat="43.59844" lon="1.33421">
        <ele>179.8</ele>
        <time>2025-10-18T10:02:22Z</time>
      </trkpt>
      <trkpt lat="43.59848" lon="1.33427">
        <ele>179.2</ele>
        <time>2025-10-18T10:02:23Z</time>
      </trkpt>
      <trkpt lat="43.59854" lon="1.33434">
        <ele>178.4</ele>
        <time>2025-10-18T10:02:24Z</time>
      </trkpt>
      <trkpt lat="43.59859" lon="1.33442">
        <ele>178</ele>
        <time>2025-10-18T10:02:25Z</time>
      </trkpt>
      <trkpt lat="43.59866" lon="1.3345">
        <ele>176.8</ele>
        <time>2025-10-18T10:02:26Z</time>
      </trkpt>
      <trkpt lat="43.59873" lon="1.33458">
        <ele>175.8</ele>
        <time>2025-10-18T10:02:27Z</time>
      </trkpt>
      <trkpt lat="43.59879" lon="1.33467">
        <ele>175</ele>
        <time>2025-10-18T10:02:28Z</time>
      </trkpt>
      <trkpt lat="43.59883" lon="1.33477">
        <ele>174.2</ele>
        <time>2025-10-18T10:02:29Z</time>
      </trkpt>
      <trkpt lat="43.59889" lon="1.33486">
        <ele>173.8</ele>
        <time>2025-10-18T10:02:30Z</time>
      </trkpt>
      <trkpt lat="43.59894" lon="1.33495">
        <ele>173.4</ele>
        <time>2025-10-18T10:02:31Z</time>
      </trkpt>
      <trkpt lat="43.59899" lon="1.33503">
        <ele>173.2</ele>
        <time>2025-10-18T10:02:32Z</time>
      </trkpt>
      <trkpt lat="43.59903" lon="1.33513">
        <ele>173</ele>
        <time>2025-10-18T10:02:33Z</time>
      </trkpt>
      <trkpt lat="43.59906" lon="1.33523">
        <ele>172.8</ele>
        <time>2025-10-18T10:02:34Z</time>
      </trkpt>
      <trkpt lat="43.5991" lon="1.33533">
        <ele>172.6</ele>
        <time>2025-10-18T10:02:35Z</time>
      </trkpt>
      <trkpt lat="43.59913" lon="1.33543">
        <ele>172.4</ele>
        <time>2025-10-18T10:02:36Z</time>
      </trkpt>
      <trkpt lat="43.59915" lon="1.33552">
        <ele>172.2</ele>
        <time>2025-10-18T10:02:37Z</time>
      </trkpt>
      <trkpt lat="43.59916" lon="1.33562">
        <ele>172.2</ele>
        <time>2025-10-18T10:02:38Z</time>
      </trkpt>
      <trkpt lat="43.59917" lon="1.33572">
        <ele>172</ele>
        <time>2025-10-18T10:02:39Z</time>
      </trkpt>
      <trkpt lat="43.59919" lon="1.33582">
        <ele>172.2</ele>
        <time>2025-10-18T10:02:40Z</time>
      </trkpt>
      <trkpt lat="43.5992" lon="1.33593">
        <ele>172.2</ele>
        <time>2025-10-18T10:02:41Z</time>
      </trkpt>
      <trkpt lat="43.59922" lon="1.33603">
        <ele>172.2</ele>
        <time>2025-10-18T10:02:42Z</time>
      </trkpt>
      <trkpt lat="43.59923" lon="1.33613">
        <ele>172.2</ele>
        <time>2025-10-18T10:02:43Z</time>
      </trkpt>
      <trkpt lat="43.59923" lon="1.33623">
        <ele>172.2</ele>
        <time>2025-10-18T10:02:44Z</time>
      </trkpt>
      <trkpt lat="43.59924" lon="1.33633">
        <ele>172.2</ele>
        <time>2025-10-18T10:02:45Z</time>
      </trkpt>
      <trkpt lat="43.59925" lon="1.33643">
        <ele>172.2</ele>
        <time>2025-10-18T10:02:46Z</time>
      </trkpt>
      <trkpt lat="43.59926" lon="1.33652">
        <ele>172.2</ele>
        <time>2025-10-18T10:02:47Z</time>
      </trkpt>
      <trkpt lat="43.59928" lon="1.33661">
        <ele>172.2</ele>
        <time>2025-10-18T10:02:48Z</time>
      </trkpt>
      <trkpt lat="43.5993" lon="1.33671">
        <ele>172.2</ele>
        <time>2025-10-18T10:02:49Z</time>
      </trkpt>
      <trkpt lat="43.59931" lon="1.33679">
        <ele>172.4</ele>
        <time>2025-10-18T10:02:50Z</time>
      </trkpt>
      <trkpt lat="43.59932" lon="1.33685">
        <ele>172.4</ele>
        <time>2025-10-18T10:02:51Z</time>
      </trkpt>
      <trkpt lat="43.59934" lon="1.33688">
        <ele>172.4</ele>
        <time>2025-10-18T10:02:52Z</time>
      </trkpt>
      <trkpt lat="43.59937" lon="1.33688">
        <ele>172.6</ele>
        <time>2025-10-18T10:02:53Z</time>
      </trkpt>
      <trkpt lat="43.5994" lon="1.33685">
        <ele>172.8</ele>
        <time>2025-10-18T10:02:54Z</time>
      </trkpt>
      <trkpt lat="43.59943" lon="1.33683">
        <ele>173</ele>
        <time>2025-10-18T10:02:55Z</time>
      </trkpt>
      <trkpt lat="43.59946" lon="1.33683">
        <ele>173.2</ele>
        <time>2025-10-18T10:02:56Z</time>
      </trkpt>
      <trkpt lat="43.59948" lon="1.33687">
        <ele>173.4</ele>
        <time>2025-10-18T10:02:57Z</time>
      </trkpt>
      <trkpt lat="43.59949" lon="1.33691">
        <ele>173.4</ele>
        <time>2025-10-18T10:02:58Z</time>
      </trkpt>
      <trkpt lat="43.59951" lon="1.33697">
        <ele>173.4</ele>
        <time>2025-10-18T10:02:59Z</time>
      </trkpt>
      <trkpt lat="43.59952" lon="1.33703">
        <ele>173.2</ele>
        <time>2025-10-18T10:03:00Z</time>
      </trkpt>
      <trkpt lat="43.59953" lon="1.3371">
        <ele>173.2</ele>
        <time>2025-10-18T10:03:01Z</time>
      </trkpt>
      <trkpt lat="43.59953" lon="1.33719">
        <ele>173</ele>
        <time>2025-10-18T10:03:02Z</time>
      </trkpt>
      <trkpt lat="43.59953" lon="1.33728">
        <ele>172.8</ele>
        <time>2025-10-18T10:03:03Z</time>
      </trkpt>
      <trkpt lat="43.59954" lon="1.33736">
        <ele>172.8</ele>
        <time>2025-10-18T10:03:04Z</time>
      </trkpt>
      <trkpt lat="43.59955" lon="1.33745">
        <ele>172.4</ele>
        <time>2025-10-18T10:03:05Z</time>
      </trkpt>
      <trkpt lat="43.59956" lon="1.33754">
        <ele>172.4</ele>
        <time>2025-10-18T10:03:06Z</time>
      </trkpt>
      <trkpt lat="43.59957" lon="1.33762">
        <ele>172.2</ele>
        <time>2025-10-18T10:03:07Z</time>
      </trkpt>
      <trkpt lat="43.59959" lon="1.3377">
        <ele>172</ele>
        <time>2025-10-18T10:03:08Z</time>
      </trkpt>
      <trkpt lat="43.59961" lon="1.33778">
        <ele>171.8</ele>
        <time>2025-10-18T10:03:09Z</time>
      </trkpt>
      <trkpt lat="43.59963" lon="1.33787">
        <ele>171.6</ele>
        <time>2025-10-18T10:03:10Z</time>
      </trkpt>
      <trkpt lat="43.59964" lon="1.33796">
        <ele>171.6</ele>
        <time>2025-10-18T10:03:11Z</time>
      </trkpt>
      <trkpt lat="43.59966" lon="1.33805">
        <ele>171.4</ele>
        <time>2025-10-18T10:03:12Z</time>
      </trkpt>
      <trkpt lat="43.59968" lon="1.33814">
        <ele>171.2</ele>
        <time>2025-10-18T10:03:13Z</time>
      </trkpt>
      <trkpt lat="43.59969" lon="1.33823">
        <ele>171.2</ele>
        <time>2025-10-18T10:03:14Z</time>
      </trkpt>
      <trkpt lat="43.5997" lon="1.33832">
        <ele>171</ele>
        <time>2025-10-18T10:03:15Z</time>
      </trkpt>
      <trkpt lat="43.59973" lon="1.3384">
        <ele>170.8</ele>
        <time>2025-10-18T10:03:16Z</time>
      </trkpt>
      <trkpt lat="43.59976" lon="1.33845">
        <ele>170.8</ele>
        <time>2025-10-18T10:03:17Z</time>
      </trkpt>
      <trkpt lat="43.5998" lon="1.3385">
        <ele>170.8</ele>
        <time>2025-10-18T10:03:18Z</time>
      </trkpt>
      <trkpt lat="43.59985" lon="1.33855">
        <ele>171</ele>
        <time>2025-10-18T10:03:19Z</time>
      </trkpt>
      <trkpt lat="43.59989" lon="1.3386">
        <ele>171</ele>
        <time>2025-10-18T10:03:20Z</time>
      </trkpt>
      <trkpt lat="43.59992" lon="1.33867">
        <ele>171.2</ele>
        <time>2025-10-18T10:03:21Z</time>
      </trkpt>
      <trkpt lat="43.59995" lon="1.33875">
        <ele>171.4</ele>
        <time>2025-10-18T10:03:22Z</time>
      </trkpt>
      <trkpt lat="43.59998" lon="1.33883">
        <ele>171.6</ele>
        <time>2025-10-18T10:03:23Z</time>
      </trkpt>
      <trkpt lat="43.6" lon="1.3389">
        <ele>171.6</ele>
        <time>2025-10-18T10:03:24Z</time>
      </trkpt>
      <trkpt lat="43.60002" lon="1.33899">
        <ele>171.6</ele>
        <time>2025-10-18T10:03:25Z</time>
      </trkpt>
      <trkpt lat="43.60006" lon="1.33906">
        <ele>171.6</ele>
        <time>2025-10-18T10:03:26Z</time>
      </trkpt>
      <trkpt lat="43.6001" lon="1.33911">
        <ele>171.4</ele>
        <time>2025-10-18T10:03:27Z</time>
      </trkpt>
      <trkpt lat="43.60015" lon="1.33915">
        <ele>171.4</ele>
        <time>2025-10-18T10:03:28Z</time>
      </trkpt>
      <trkpt lat="43.6002" lon="1.33918">
        <ele>171.4</ele>
        <time>2025-10-18T10:03:29Z</time>
      </trkpt>
      <trkpt lat="43.60025" lon="1.33922">
        <ele>171.4</ele>
        <time>2025-10-18T10:03:30Z</time>
      </trkpt>
      <trkpt lat="43.6003" lon="1.33924">
        <ele>171.6</ele>
        <time>2025-10-18T10:03:31Z</time>
      </trkpt>
      <trkpt lat="43.60035" lon="1.33927">
        <ele>171.8</ele>
        <time>2025-10-18T10:03:32Z</time>
      </trkpt>
      <trkpt lat="43.60039" lon="1.33931">
        <ele>172.2</ele>
        <time>2025-10-18T10:03:33Z</time>
      </trkpt>
      <trkpt lat="43.60041" lon="1.33935">
        <ele>172.6</ele>
        <time>2025-10-18T10:03:34Z</time>
      </trkpt>
      <trkpt lat="43.60042" lon="1.33939">
        <ele>173.2</ele>
        <time>2025-10-18T10:03:35Z</time>
      </trkpt>
      <trkpt lat="43.60041" lon="1.33943">
        <ele>173.6</ele>
        <time>2025-10-18T10:03:36Z</time>
      </trkpt>
      <trkpt lat="43.60039" lon="1.33945">
        <ele>174</ele>
        <time>2025-10-18T10:03:37Z</time>
      </trkpt>
      <trkpt lat="43.60036" lon="1.33946">
        <ele>174.4</ele>
        <time>2025-10-18T10:03:38Z</time>
      </trkpt>
      <trkpt lat="43.60032" lon="1.33948">
        <ele>174.6</ele>
        <time>2025-10-18T10:03:39Z</time>
      </trkpt>
      <trkpt lat="43.60029" lon="1.3395">
        <ele>174.6</ele>
        <time>2025-10-18T10:03:40Z</time>
      </trkpt>
      <trkpt lat="43.60025" lon="1.33951">
        <ele>174.4</ele>
        <time>2025-10-18T10:03:41Z</time>
      </trkpt>
      <trkpt lat="43.6002" lon="1.33951">
        <ele>174.2</ele>
        <time>2025-10-18T10:03:42Z</time>
      </trkpt>
      <trkpt lat="43.60015" lon="1.33951">
        <ele>174</ele>
        <time>2025-10-18T10:03:43Z</time>
      </trkpt>
      <trkpt lat="43.60011" lon="1.3395">
        <ele>173.8</ele>
        <time>2025-10-18T10:03:44Z</time>
      </trkpt>
      <trkpt lat="43.60006" lon="1.33949">
        <ele>173.8</ele>
        <time>2025-10-18T10:03:45Z</time>
      </trkpt>
      <trkpt lat="43.60002" lon="1.33949">
        <ele>173.8</ele>
        <time>2025-10-18T10:03:46Z</time>
      </trkpt>
      <trkpt lat="43.59998" lon="1.33952">
        <ele>173.8</ele>
        <time>2025-10-18T10:03:47Z</time>
      </trkpt>
      <trkpt lat="43.59997" lon="1.33956">
        <ele>174</ele>
        <time>2025-10-18T10:03:48Z</time>
      </trkpt>
      <trkpt lat="43.59998" lon="1.3396">
        <ele>174.2</ele>
        <time>2025-10-18T10:03:49Z</time>
      </trkpt>
      <trkpt lat="43.59999" lon="1.33966">
        <ele>174.2</ele>
        <time>2025-10-18T10:03:50Z</time>
      </trkpt>
      <trkpt lat="43.60002" lon="1.33972">
        <ele>174.2</ele>
        <time>2025-10-18T10:03:51Z</time>
      </trkpt>
      <trkpt lat="43.60006" lon="1.33975">
        <ele>174</ele>
        <time>2025-10-18T10:03:52Z</time>
      </trkpt>
      <trkpt lat="43.60011" lon="1.33978">
        <ele>173.6</ele>
        <time>2025-10-18T10:03:53Z</time>
      </trkpt>
      <trkpt lat="43.60018" lon="1.33983">
        <ele>173</ele>
        <time>2025-10-18T10:03:54Z</time>
      </trkpt>
      <trkpt lat="43.60024" lon="1.3399">
        <ele>172.4</ele>
        <time>2025-10-18T10:03:55Z</time>
      </trkpt>
      <trkpt lat="43.60028" lon="1.34">
        <ele>171.6</ele>
        <time>2025-10-18T10:03:56Z</time>
      </trkpt>
      <trkpt lat="43.60029" lon="1.34009">
        <ele>170.8</ele>
        <time>2025-10-18T10:03:57Z</time>
      </trkpt>
      <trkpt lat="43.60031" lon="1.34019">
        <ele>170.2</ele>
        <time>2025-10-18T10:03:58Z</time>
      </trkpt>
      <trkpt lat="43.60032" lon="1.34029">
        <ele>169.8</ele>
        <time>2025-10-18T10:03:59Z</time>
      </trkpt>
      <trkpt lat="43.60033" lon="1.34039">
        <ele>169.4</ele>
        <time>2025-10-18T10:04:00Z</time>
      </trkpt>
      <trkpt lat="43.60034" lon="1.34048">
        <ele>169.4</ele>
        <time>2025-10-18T10:04:01Z</time>
      </trkpt>
      <trkpt lat="43.60035" lon="1.34057">
        <ele>169.4</ele>
        <time>2025-10-18T10:04:02Z</time>
      </trkpt>
      <trkpt lat="43.60035" lon="1.34066">
        <ele>169.4</ele>
        <time>2025-10-18T10:04:03Z</time>
      </trkpt>
      <trkpt lat="43.60034" lon="1.34074">
        <ele>169.6</ele>
        <time>2025-10-18T10:04:04Z</time>
      </trkpt>
      <trkpt lat="43.60033" lon="1.34083">
        <ele>169.8</ele>
        <time>2025-10-18T10:04:05Z</time>
      </trkpt>
      <trkpt lat="43.60033" lon="1.34091">
        <ele>170.2</ele>
        <time>2025-10-18T10:04:06Z</time>
      </trkpt>
      <trkpt lat="43.60034" lon="1.34099">
        <ele>170.4</ele>
        <time>2025-10-18T10:04:07Z</time>
      </trkpt>
      <trkpt lat="43.60037" lon="1.34107">
        <ele>170.8</ele>
        <time>2025-10-18T10:04:08Z</time>
      </trkpt>
      <trkpt lat="43.6004" lon="1.34113">
        <ele>171.2</ele>
        <time>2025-10-18T10:04:09Z</time>
      </trkpt>
      <trkpt lat="43.60044" lon="1.3412">
        <ele>171.4</ele>
        <time>2025-10-18T10:04:10Z</time>
      </trkpt>
      <trkpt lat="43.60047" lon="1.34126">
        <ele>171.4</ele>
        <time>2025-10-18T10:04:11Z</time>
      </trkpt>
      <trkpt lat="43.60051" lon="1.34133">
        <ele>171.4</ele>
        <time>2025-10-18T10:04:12Z</time>
      </trkpt>
      <trkpt lat="43.60054" lon="1.34141">
        <ele>171.4</ele>
        <time>2025-10-18T10:04:13Z</time>
      </trkpt>
      <trkpt lat="43.60057" lon="1.34149">
        <ele>171.2</ele>
        <time>2025-10-18T10:04:14Z</time>
      </trkpt>
      <trkpt lat="43.60059" lon="1.34158">
        <ele>171</ele>
        <time>2025-10-18T10:04:15Z</time>
      </trkpt>
      <trkpt lat="43.60061" lon="1.34166">
        <ele>171</ele>
        <time>2025-10-18T10:04:16Z</time>
      </trkpt>
      <trkpt lat="43.60064" lon="1.34174">
        <ele>171</ele>
        <time>2025-10-18T10:04:17Z</time>
      </trkpt>
      <trkpt lat="43.60067" lon="1.34182">
        <ele>170.8</ele>
        <time>2025-10-18T10:04:18Z</time>
      </trkpt>
      <trkpt lat="43.6007" lon="1.34191">
        <ele>170.8</ele>
        <time>2025-10-18T10:04:19Z</time>
      </trkpt>
      <trkpt lat="43.60073" lon="1.34199">
        <ele>170.8</ele>
        <time>2025-10-18T10:04:20Z</time>
      </trkpt>
      <trkpt lat="43.60075" lon="1.34207">
        <ele>170.8</ele>
        <time>2025-10-18T10:04:21Z</time>
      </trkpt>
      <trkpt lat="43.60076" lon="1.34216">
        <ele>170.8</ele>
        <time>2025-10-18T10:04:22Z</time>
      </trkpt>
      <trkpt lat="43.60075" lon="1.34225">
        <ele>170.8</ele>
        <time>2025-10-18T10:04:23Z</time>
      </trkpt>
      <trkpt lat="43.60072" lon="1.34233">
        <ele>170.8</ele>
        <time>2025-10-18T10:04:24Z</time>
      </trkpt>
      <trkpt lat="43.60069" lon="1.3424">
        <ele>171</ele>
        <time>2025-10-18T10:04:25Z</time>
      </trkpt>
      <trkpt lat="43.60065" lon="1.34247">
        <ele>171</ele>
        <time>2025-10-18T10:04:26Z</time>
      </trkpt>
      <trkpt lat="43.60061" lon="1.34253">
        <ele>171.2</ele>
        <time>2025-10-18T10:04:27Z</time>
      </trkpt>
      <trkpt lat="43.60058" lon="1.3426">
        <ele>171.2</ele>
        <time>2025-10-18T10:04:28Z</time>
      </trkpt>
      <trkpt lat="43.60055" lon="1.34267">
        <ele>171.4</ele>
        <time>2025-10-18T10:04:29Z</time>
      </trkpt>
      <trkpt lat="43.60053" lon="1.34275">
        <ele>171.4</ele>
        <time>2025-10-18T10:04:30Z</time>
      </trkpt>
      <trkpt lat="43.60051" lon="1.34282">
        <ele>171.4</ele>
        <time>2025-10-18T10:04:31Z</time>
      </trkpt>
      <trkpt lat="43.60049" lon="1.3429">
        <ele>171.6</ele>
        <time>2025-10-18T10:04:32Z</time>
      </trkpt>
      <trkpt lat="43.60048" lon="1.34296">
        <ele>171.6</ele>
        <time>2025-10-18T10:04:33Z</time>
      </trkpt>
      <trkpt lat="43.60047" lon="1.34302">
        <ele>171.8</ele>
        <time>2025-10-18T10:04:34Z</time>
      </trkpt>
      <trkpt lat="43.60046" lon="1.34308">
        <ele>172.2</ele>
        <time>2025-10-18T10:04:35Z</time>
      </trkpt>
      <trkpt lat="43.60046" lon="1.34314">
        <ele>172.4</ele>
        <time>2025-10-18T10:04:36Z</time>
      </trkpt>
      <trkpt lat="43.60047" lon="1.34322">
        <ele>172.6</ele>
        <time>2025-10-18T10:04:37Z</time>
      </trkpt>
      <trkpt lat="43.60049" lon="1.34329">
        <ele>172.8</ele>
        <time>2025-10-18T10:04:38Z</time>
      </trkpt>
      <trkpt lat="43.60052" lon="1.34336">
        <ele>172.8</ele>
        <time>2025-10-18T10:04:39Z</time>
      </trkpt>
      <trkpt lat="43.60054" lon="1.34344">
        <ele>172.8</ele>
        <time>2025-10-18T10:04:40Z</time>
      </trkpt>
      <trkpt lat="43.60057" lon="1.34351">
        <ele>172.6</ele>
        <time>2025-10-18T10:04:41Z</time>
      </trkpt>
      <trkpt lat="43.6006" lon="1.34359">
        <ele>172.2</ele>
        <time>2025-10-18T10:04:42Z</time>
      </trkpt>
      <trkpt lat="43.60064" lon="1.34367">
        <ele>171.8</ele>
        <time>2025-10-18T10:04:43Z</time>
      </trkpt>
      <trkpt lat="43.60068" lon="1.34375">
        <ele>171.4</ele>
        <time>2025-10-18T10:04:44Z</time>
      </trkpt>
      <trkpt lat="43.60072" lon="1.34383">
        <ele>171</ele>
        <time>2025-10-18T10:04:45Z</time>
      </trkpt>
      <trkpt lat="43.60076" lon="1.34391">
        <ele>170.8</ele>
        <time>2025-10-18T10:04:46Z</time>
      </trkpt>
      <trkpt lat="43.60081" lon="1.34398">
        <ele>170.6</ele>
        <time>2025-10-18T10:04:47Z</time>
      </trkpt>
      <trkpt lat="43.60085" lon="1.34407">
        <ele>170</ele>
        <time>2025-10-18T10:04:48Z</time>
      </trkpt>
      <trkpt lat="43.60089" lon="1.34416">
        <ele>169.4</ele>
        <time>2025-10-18T10:04:49Z</time>
      </trkpt>
      <trkpt lat="43.60092" lon="1.34426">
        <ele>169</ele>
        <time>2025-10-18T10:04:50Z</time>
      </trkpt>
      <trkpt lat="43.60094" lon="1.34435">
        <ele>168.2</ele>
        <time>2025-10-18T10:04:51Z</time>
      </trkpt>
      <trkpt lat="43.60094" lon="1.34445">
        <ele>167.8</ele>
        <time>2025-10-18T10:04:52Z</time>
      </trkpt>
      <trkpt lat="43.60093" lon="1.34456">
        <ele>167.4</ele>
        <time>2025-10-18T10:04:53Z</time>
      </trkpt>
      <trkpt lat="43.60093" lon="1.34466">
        <ele>167</ele>
        <time>2025-10-18T10:04:54Z</time>
      </trkpt>
      <trkpt lat="43.60093" lon="1.34474">
        <ele>166.8</ele>
        <time>2025-10-18T10:04:55Z</time>
      </trkpt>
      <trkpt lat="43.60093" lon="1.3448">
        <ele>166.6</ele>
        <time>2025-10-18T10:04:56Z</time>
      </trkpt>
      <trkpt lat="43.60094" lon="1.34484">
        <ele>166.6</ele>
        <time>2025-10-18T10:04:57Z</time>
      </trkpt>
      <trkpt lat="43.60096" lon="1.34486">
        <ele>166.8</ele>
        <time>2025-10-18T10:04:58Z</time>
      </trkpt>
      <trkpt lat="43.60098" lon="1.34489">
        <ele>166.8</ele>
        <time>2025-10-18T10:04:59Z</time>
      </trkpt>
      <trkpt lat="43.60101" lon="1.34493">
        <ele>167</ele>
        <time>2025-10-18T10:05:00Z</time>
      </trkpt>
      <trkpt lat="43.60103" lon="1.34499">
        <ele>166.8</ele>
        <time>2025-10-18T10:05:01Z</time>
      </trkpt>
      <trkpt lat="43.60102" lon="1.34507">
        <ele>166.6</ele>
        <time>2025-10-18T10:05:02Z</time>
      </trkpt>
      <trkpt lat="43.60101" lon="1.34515">
        <ele>166.2</ele>
        <time>2025-10-18T10:05:03Z</time>
      </trkpt>
      <trkpt lat="43.60103" lon="1.34524">
        <ele>165.6</ele>
        <time>2025-10-18T10:05:04Z</time>
      </trkpt>
      <trkpt lat="43.60104" lon="1.34534">
        <ele>165</ele>
        <time>2025-10-18T10:05:05Z</time>
      </trkpt>
      <trkpt lat="43.60104" lon="1.34544">
        <ele>164.4</ele>
        <time>2025-10-18T10:05:06Z</time>
      </trkpt>
      <trkpt lat="43.60103" lon="1.34554">
        <ele>163.8</ele>
        <time>2025-10-18T10:05:07Z</time>
      </trkpt>
      <trkpt lat="43.60103" lon="1.34564">
        <ele>163.2</ele>
        <time>2025-10-18T10:05:08Z</time>
      </trkpt>
      <trkpt lat="43.60102" lon="1.34574">
        <ele>162.8</ele>
        <time>2025-10-18T10:05:09Z</time>
      </trkpt>
      <trkpt lat="43.60102" lon="1.34582">
        <ele>162.6</ele>
        <time>2025-10-18T10:05:10Z</time>
      </trkpt>
      <trkpt lat="43.60103" lon="1.34588">
        <ele>162.6</ele>
        <time>2025-10-18T10:05:11Z</time>
      </trkpt>
      <trkpt lat="43.60105" lon="1.34592">
        <ele>162.6</ele>
        <time>2025-10-18T10:05:12Z</time>
      </trkpt>
      <trkpt lat="43.60107" lon="1.34593">
        <ele>162.6</ele>
        <time>2025-10-18T10:05:13Z</time>
      </trkpt>
      <trkpt lat="43.60109" lon="1.34594">
        <ele>162.8</ele>
        <time>2025-10-18T10:05:14Z</time>
      </trkpt>
      <trkpt lat="43.60112" lon="1.34595">
        <ele>162.8</ele>
        <time>2025-10-18T10:05:15Z</time>
      </trkpt>
      <trkpt lat="43.60115" lon="1.34596">
        <ele>163</ele>
        <time>2025-10-18T10:05:16Z</time>
      </trkpt>
      <trkpt lat="43.60119" lon="1.34598">
        <ele>162.8</ele>
        <time>2025-10-18T10:05:17Z</time>
      </trkpt>
      <trkpt lat="43.60123" lon="1.34599">
        <ele>162.8</ele>
        <time>2025-10-18T10:05:18Z</time>
      </trkpt>
      <trkpt lat="43.60125" lon="1.34602">
        <ele>162.8</ele>
        <time>2025-10-18T10:05:19Z</time>
      </trkpt>
      <trkpt lat="43.60124" lon="1.34606">
        <ele>162.6</ele>
        <time>2025-10-18T10:05:20Z</time>
      </trkpt>
      <trkpt lat="43.60123" lon="1.34611">
        <ele>162.4</ele>
        <time>2025-10-18T10:05:21Z</time>
      </trkpt>
      <trkpt lat="43.60122" lon="1.34617">
        <ele>162</ele>
        <time>2025-10-18T10:05:22Z</time>
      </trkpt>
      <trkpt lat="43.60121" lon="1.34624">
        <ele>161.8</ele>
        <time>2025-10-18T10:05:23Z</time>
      </trkpt>
      <trkpt lat="43.6012" lon="1.3463">
        <ele>161.4</ele>
        <time>2025-10-18T10:05:24Z</time>
      </trkpt>
      <trkpt lat="43.60119" lon="1.34637">
        <ele>161</ele>
        <time>2025-10-18T10:05:25Z</time>
      </trkpt>
      <trkpt lat="43.60118" lon="1.34645">
        <ele>160.6</ele>
        <time>2025-10-18T10:05:26Z</time>
      </trkpt>
      <trkpt lat="43.60117" lon="1.34653">
        <ele>160.4</ele>
        <time>2025-10-18T10:05:27Z</time>
      </trkpt>
      <trkpt lat="43.60117" lon="1.34662">
        <ele>160</ele>
        <time>2025-10-18T10:05:28Z</time>
      </trkpt>
      <trkpt lat="43.60115" lon="1.34671">
        <ele>159.8</ele>
        <time>2025-10-18T10:05:29Z</time>
      </trkpt>
      <trkpt lat="43.60115" lon="1.3468">
        <ele>159.6</ele>
        <time>2025-10-18T10:05:30Z</time>
      </trkpt>
      <trkpt lat="43.60114" lon="1.34689">
        <ele>159.6</ele>
        <time>2025-10-18T10:05:31Z</time>
      </trkpt>
      <trkpt lat="43.60113" lon="1.34696">
        <ele>159.6</ele>
        <time>2025-10-18T10:05:32Z</time>
      </trkpt>
      <trkpt lat="43.60113" lon="1.34703">
        <ele>159.6</ele>
        <time>2025-10-18T10:05:33Z</time>
      </trkpt>
      <trkpt lat="43.60113" lon="1.34707">
        <ele>160</ele>
        <time>2025-10-18T10:05:34Z</time>
      </trkpt>
      <trkpt lat="43.60116" lon="1.3471">
        <ele>160</ele>
        <time>2025-10-18T10:05:35Z</time>
      </trkpt>
      <trkpt lat="43.60119" lon="1.34714">
        <ele>160.2</ele>
        <time>2025-10-18T10:05:36Z</time>
      </trkpt>
      <trkpt lat="43.60122" lon="1.34717">
        <ele>160.2</ele>
        <time>2025-10-18T10:05:37Z</time>
      </trkpt>
      <trkpt lat="43.60125" lon="1.34719">
        <ele>160.2</ele>
        <time>2025-10-18T10:05:38Z</time>
      </trkpt>
      <trkpt lat="43.60129" lon="1.34724">
        <ele>160.2</ele>
        <time>2025-10-18T10:05:39Z</time>
      </trkpt>
      <trkpt lat="43.60133" lon="1.34728">
        <ele>160.2</ele>
        <time>2025-10-18T10:05:40Z</time>
      </trkpt>
      <trkpt lat="43.60136" lon="1.34733">
        <ele>160.2</ele>
        <time>2025-10-18T10:05:41Z</time>
      </trkpt>
      <trkpt lat="43.6014" lon="1.34737">
        <ele>160.2</ele>
        <time>2025-10-18T10:05:42Z</time>
      </trkpt>
      <trkpt lat="43.60142" lon="1.34741">
        <ele>160.2</ele>
        <time>2025-10-18T10:05:43Z</time>
      </trkpt>
      <trkpt lat="43.60146" lon="1.34742">
        <ele>160.2</ele>
        <time>2025-10-18T10:05:44Z</time>
      </trkpt>
      <trkpt lat="43.60149" lon="1.3474">
        <ele>160.2</ele>
        <time>2025-10-18T10:05:45Z</time>
      </trkpt>
      <trkpt lat="43.60153" lon="1.34738">
        <ele>160.4</ele>
        <time>2025-10-18T10:05:46Z</time>
      </trkpt>
      <trkpt lat="43.60156" lon="1.34735">
        <ele>160.4</ele>
        <time>2025-10-18T10:05:47Z</time>
      </trkpt>
      <trkpt lat="43.60158" lon="1.34732">
        <ele>160.4</ele>
        <time>2025-10-18T10:05:48Z</time>
      </trkpt>
      <trkpt lat="43.6016" lon="1.34728">
        <ele>160.4</ele>
        <time>2025-10-18T10:05:49Z</time>
      </trkpt>
      <trkpt lat="43.60163" lon="1.34727">
        <ele>160.4</ele>
        <time>2025-10-18T10:05:50Z</time>
      </trkpt>
      <trkpt lat="43.60165" lon="1.34726">
        <ele>160.6</ele>
        <time>2025-10-18T10:05:51Z</time>
      </trkpt>
      <trkpt lat="43.60167" lon="1.34724">
        <ele>160.6</ele>
        <time>2025-10-18T10:05:52Z</time>
      </trkpt>
      <trkpt lat="43.60168" lon="1.34723">
        <ele>160.6</ele>
        <time>2025-10-18T10:05:53Z</time>
      </trkpt>
      <trkpt lat="43.60168" lon="1.34721">
        <ele>160.6</ele>
        <time>2025-10-18T10:05:54Z</time>
      </trkpt>
      <trkpt lat="43.60166" lon="1.34719">
        <ele>160.6</ele>
        <time>2025-10-18T10:05:55Z</time>
      </trkpt>
      <trkpt lat="43.60164" lon="1.3472">
        <ele>160.6</ele>
        <time>2025-10-18T10:05:56Z</time>
      </trkpt>
      <trkpt lat="43.60163" lon="1.34724">
        <ele>160.4</ele>
        <time>2025-10-18T10:05:57Z</time>
      </trkpt>
      <trkpt lat="43.60162" lon="1.34727">
        <ele>160.4</ele>
        <time>2025-10-18T10:05:58Z</time>
      </trkpt>
      <trkpt lat="43.60159" lon="1.34731">
        <ele>160.2</ele>
        <time>2025-10-18T10:05:59Z</time>
      </trkpt>
      <trkpt lat="43.60157" lon="1.34734">
        <ele>160.2</ele>
        <time>2025-10-18T10:06:00Z</time>
      </trkpt>
      <trkpt lat="43.60154" lon="1.34737">
        <ele>160</ele>
        <time>2025-10-18T10:06:01Z</time>
      </trkpt>
      <trkpt lat="43.6015" lon="1.34738">
        <ele>159.8</ele>
        <time>2025-10-18T10:06:02Z</time>
      </trkpt>
      <trkpt lat="43.60147" lon="1.34738">
        <ele>159.8</ele>
        <time>2025-10-18T10:06:03Z</time>
      </trkpt>
      <trkpt lat="43.60143" lon="1.34735">
        <ele>159.8</ele>
        <time>2025-10-18T10:06:04Z</time>
      </trkpt>
      <trkpt lat="43.60139" lon="1.34732">
        <ele>159.6</ele>
        <time>2025-10-18T10:06:05Z</time>
      </trkpt>
      <trkpt lat="43.60136" lon="1.34727">
        <ele>159.6</ele>
        <time>2025-10-18T10:06:06Z</time>
      </trkpt>
      <trkpt lat="43.60133" lon="1.34723">
        <ele>159.4</ele>
        <time>2025-10-18T10:06:07Z</time>
      </trkpt>
      <trkpt lat="43.60128" lon="1.34719">
        <ele>159.4</ele>
        <time>2025-10-18T10:06:08Z</time>
      </trkpt>
      <trkpt lat="43.60124" lon="1.34715">
        <ele>159.2</ele>
        <time>2025-10-18T10:06:09Z</time>
      </trkpt>
      <trkpt lat="43.60119" lon="1.34714">
        <ele>159.2</ele>
        <time>2025-10-18T10:06:10Z</time>
      </trkpt>
      <trkpt lat="43.60115" lon="1.34716">
        <ele>159.2</ele>
        <time>2025-10-18T10:06:11Z</time>
      </trkpt>
      <trkpt lat="43.60114" lon="1.34719">
        <ele>159.4</ele>
        <time>2025-10-18T10:06:12Z</time>
      </trkpt>
      <trkpt lat="43.60114" lon="1.34725">
        <ele>159.4</ele>
        <time>2025-10-18T10:06:13Z</time>
      </trkpt>
      <trkpt lat="43.60113" lon="1.34731">
        <ele>159.6</ele>
        <time>2025-10-18T10:06:14Z</time>
      </trkpt>
      <trkpt lat="43.60112" lon="1.34738">
        <ele>159.6</ele>
        <time>2025-10-18T10:06:15Z</time>
      </trkpt>
      <trkpt lat="43.60111" lon="1.34745">
        <ele>159.4</ele>
        <time>2025-10-18T10:06:16Z</time>
      </trkpt>
      <trkpt lat="43.60111" lon="1.34754">
        <ele>159.2</ele>
        <time>2025-10-18T10:06:17Z</time>
      </trkpt>
      <trkpt lat="43.6011" lon="1.34761">
        <ele>159</ele>
        <time>2025-10-18T10:06:18Z</time>
      </trkpt>
      <trkpt lat="43.60109" lon="1.3477">
        <ele>158.8</ele>
        <time>2025-10-18T10:06:19Z</time>
      </trkpt>
      <trkpt lat="43.60108" lon="1.34778">
        <ele>158.6</ele>
        <time>2025-10-18T10:06:20Z</time>
      </trkpt>
      <trkpt lat="43.60107" lon="1.34786">
        <ele>158.6</ele>
        <time>2025-10-18T10:06:21Z</time>
      </trkpt>
      <trkpt lat="43.60106" lon="1.34795">
        <ele>158.6</ele>
        <time>2025-10-18T10:06:22Z</time>
      </trkpt>
      <trkpt lat="43.60105" lon="1.34803">
        <ele>158.4</ele>
        <time>2025-10-18T10:06:23Z</time>
      </trkpt>
      <trkpt lat="43.60105" lon="1.34812">
        <ele>158.4</ele>
        <time>2025-10-18T10:06:24Z</time>
      </trkpt>
      <trkpt lat="43.60105" lon="1.34821">
        <ele>158.4</ele>
        <time>2025-10-18T10:06:25Z</time>
      </trkpt>
      <trkpt lat="43.60104" lon="1.3483">
        <ele>158.2</ele>
        <time>2025-10-18T10:06:26Z</time>
      </trkpt>
      <trkpt lat="43.60103" lon="1.34839">
        <ele>158</ele>
        <time>2025-10-18T10:06:27Z</time>
      </trkpt>
      <trkpt lat="43.60102" lon="1.34848">
        <ele>157.8</ele>
        <time>2025-10-18T10:06:28Z</time>
      </trkpt>
      <trkpt lat="43.60101" lon="1.34858">
        <ele>157.8</ele>
        <time>2025-10-18T10:06:29Z</time>
      </trkpt>
      <trkpt lat="43.601" lon="1.34867">
        <ele>157.6</ele>
        <time>2025-10-18T10:06:30Z</time>
      </trkpt>
      <trkpt lat="43.60099" lon="1.34876">
        <ele>157.6</ele>
        <time>2025-10-18T10:06:31Z</time>
      </trkpt>
      <trkpt lat="43.60099" lon="1.34885">
        <ele>157.6</ele>
        <time>2025-10-18T10:06:32Z</time>
      </trkpt>
      <trkpt lat="43.60099" lon="1.34893">
        <ele>157.6</ele>
        <time>2025-10-18T10:06:33Z</time>
      </trkpt>
      <trkpt lat="43.60098" lon="1.34902">
        <ele>157.6</ele>
        <time>2025-10-18T10:06:34Z</time>
      </trkpt>
      <trkpt lat="43.601" lon="1.3491">
        <ele>157.6</ele>
        <time>2025-10-18T10:06:35Z</time>
      </trkpt>
      <trkpt lat="43.60102" lon="1.34918">
        <ele>157.6</ele>
        <time>2025-10-18T10:06:36Z</time>
      </trkpt>
      <trkpt lat="43.60103" lon="1.34927">
        <ele>157.4</ele>
        <time>2025-10-18T10:06:37Z</time>
      </trkpt>
      <trkpt lat="43.60105" lon="1.34935">
        <ele>157.4</ele>
        <time>2025-10-18T10:06:38Z</time>
      </trkpt>
      <trkpt lat="43.60106" lon="1.34943">
        <ele>157.4</ele>
        <time>2025-10-18T10:06:39Z</time>
      </trkpt>
      <trkpt lat="43.60105" lon="1.34952">
        <ele>157.2</ele>
        <time>2025-10-18T10:06:40Z</time>
      </trkpt>
      <trkpt lat="43.60102" lon="1.3496">
        <ele>157.2</ele>
        <time>2025-10-18T10:06:41Z</time>
      </trkpt>
      <trkpt lat="43.601" lon="1.34967">
        <ele>157</ele>
        <time>2025-10-18T10:06:42Z</time>
      </trkpt>
      <trkpt lat="43.60098" lon="1.34975">
        <ele>157</ele>
        <time>2025-10-18T10:06:43Z</time>
      </trkpt>
      <trkpt lat="43.60097" lon="1.34984">
        <ele>156.8</ele>
        <time>2025-10-18T10:06:44Z</time>
      </trkpt>
      <trkpt lat="43.60096" lon="1.34992">
        <ele>156.8</ele>
        <time>2025-10-18T10:06:45Z</time>
      </trkpt>
      <trkpt lat="43.60094" lon="1.34999">
        <ele>156.6</ele>
        <time>2025-10-18T10:06:46Z</time>
      </trkpt>
      <trkpt lat="43.60093" lon="1.35006">
        <ele>156.4</ele>
        <time>2025-10-18T10:06:47Z</time>
      </trkpt>
      <trkpt lat="43.60092" lon="1.35013">
        <ele>156.4</ele>
        <time>2025-10-18T10:06:48Z</time>
      </trkpt>
      <trkpt lat="43.60091" lon="1.3502">
        <ele>156.4</ele>
        <time>2025-10-18T10:06:49Z</time>
      </trkpt>
      <trkpt lat="43.60089" lon="1.35028">
        <ele>156.4</ele>
        <time>2025-10-18T10:06:50Z</time>
      </trkpt>
      <trkpt lat="43.60088" lon="1.35035">
        <ele>156.4</ele>
        <time>2025-10-18T10:06:51Z</time>
      </trkpt>
      <trkpt lat="43.60087" lon="1.35041">
        <ele>156.4</ele>
        <time>2025-10-18T10:06:52Z</time>
      </trkpt>
      <trkpt lat="43.60087" lon="1.35048">
        <ele>156.6</ele>
        <time>2025-10-18T10:06:53Z</time>
      </trkpt>
      <trkpt lat="43.60086" lon="1.35055">
        <ele>156.6</ele>
        <time>2025-10-18T10:06:54Z</time>
      </trkpt>
      <trkpt lat="43.60086" lon="1.35063">
        <ele>156.6</ele>
        <time>2025-10-18T10:06:55Z</time>
      </trkpt>
      <trkpt lat="43.60086" lon="1.3507">
        <ele>156.6</ele>
        <time>2025-10-18T10:06:56Z</time>
      </trkpt>
      <trkpt lat="43.60085" lon="1.35077">
        <ele>156.6</ele>
        <time>2025-10-18T10:06:57Z</time>
      </trkpt>
      <trkpt lat="43.60085" lon="1.35084">
        <ele>156.6</ele>
        <time>2025-10-18T10:06:58Z</time>
      </trkpt>
      <trkpt lat="43.60085" lon="1.35091">
        <ele>156.6</ele>
        <time>2025-10-18T10:06:59Z</time>
      </trkpt>
      <trkpt lat="43.60085" lon="1.35096">
        <ele>156.6</ele>
        <time>2025-10-18T10:07:00Z</time>
      </trkpt>
      <trkpt lat="43.60086" lon="1.351">
        <ele>156.6</ele>
        <time>2025-10-18T10:07:01Z</time>
      </trkpt>
      <trkpt lat="43.60089" lon="1.35103">
        <ele>156.6</ele>
        <time>2025-10-18T10:07:02Z</time>
      </trkpt>
      <trkpt lat="43.60093" lon="1.35105">
        <ele>156.8</ele>
        <time>2025-10-18T10:07:03Z</time>
      </trkpt>
      <trkpt lat="43.60097" lon="1.35105">
        <ele>156.8</ele>
        <time>2025-10-18T10:07:04Z</time>
      </trkpt>
      <trkpt lat="43.60102" lon="1.35107">
        <ele>157</ele>
        <time>2025-10-18T10:07:05Z</time>
      </trkpt>
      <trkpt lat="43.60108" lon="1.35106">
        <ele>157.2</ele>
        <time>2025-10-18T10:07:06Z</time>
      </trkpt>
      <trkpt lat="43.60113" lon="1.35107">
        <ele>157.2</ele>
        <time>2025-10-18T10:07:07Z</time>
      </trkpt>
      <trkpt lat="43.60118" lon="1.35107">
        <ele>157.2</ele>
        <time>2025-10-18T10:07:08Z</time>
      </trkpt>
      <trkpt lat="43.60123" lon="1.3511">
        <ele>157.2</ele>
        <time>2025-10-18T10:07:09Z</time>
      </trkpt>
      <trkpt lat="43.60126" lon="1.35117">
        <ele>157.2</ele>
        <time>2025-10-18T10:07:10Z</time>
      </trkpt>
      <trkpt lat="43.60128" lon="1.35124">
        <ele>157.2</ele>
        <time>2025-10-18T10:07:11Z</time>
      </trkpt>
      <trkpt lat="43.60129" lon="1.35132">
        <ele>157</ele>
        <time>2025-10-18T10:07:12Z</time>
      </trkpt>
      <trkpt lat="43.60129" lon="1.3514">
        <ele>157</ele>
        <time>2025-10-18T10:07:13Z</time>
      </trkpt>
      <trkpt lat="43.60129" lon="1.35148">
        <ele>156.8</ele>
        <time>2025-10-18T10:07:14Z</time>
      </trkpt>
      <trkpt lat="43.60131" lon="1.35156">
        <ele>156.8</ele>
        <time>2025-10-18T10:07:15Z</time>
      </trkpt>
      <trkpt lat="43.60134" lon="1.35163">
        <ele>156.6</ele>
        <time>2025-10-18T10:07:16Z</time>
      </trkpt>
      <trkpt lat="43.60138" lon="1.35169">
        <ele>156.6</ele>
        <time>2025-10-18T10:07:17Z</time>
      </trkpt>
      <trkpt lat="43.60142" lon="1.35175">
        <ele>156.6</ele>
        <time>2025-10-18T10:07:18Z</time>
      </trkpt>
      <trkpt lat="43.60147" lon="1.35181">
        <ele>156.6</ele>
        <time>2025-10-18T10:07:19Z</time>
      </trkpt>
      <trkpt lat="43.60152" lon="1.35187">
        <ele>156.6</ele>
        <time>2025-10-18T10:07:20Z</time>
      </trkpt>
      <trkpt lat="43.60158" lon="1.35193">
        <ele>156.4</ele>
        <time>2025-10-18T10:07:21Z</time>
      </trkpt>
      <trkpt lat="43.60163" lon="1.35197">
        <ele>156.4</ele>
        <time>2025-10-18T10:07:22Z</time>
      </trkpt>
      <trkpt lat="43.60169" lon="1.35203">
        <ele>156.2</ele>
        <time>2025-10-18T10:07:23Z</time>
      </trkpt>
      <trkpt lat="43.60174" lon="1.35209">
        <ele>156</ele>
        <time>2025-10-18T10:07:24Z</time>
      </trkpt>
      <trkpt lat="43.60179" lon="1.35216">
        <ele>156</ele>
        <time>2025-10-18T10:07:25Z</time>
      </trkpt>
      <trkpt lat="43.60182" lon="1.35225">
        <ele>155.8</ele>
        <time>2025-10-18T10:07:26Z</time>
      </trkpt>
      <trkpt lat="43.60183" lon="1.35234">
        <ele>155.6</ele>
        <time>2025-10-18T10:07:27Z</time>
      </trkpt>
      <trkpt lat="43.60183" lon="1.35244">
        <ele>155.6</ele>
        <time>2025-10-18T10:07:28Z</time>
      </trkpt>
      <trkpt lat="43.60183" lon="1.35254">
        <ele>155.6</ele>
        <time>2025-10-18T10:07:29Z</time>
      </trkpt>
      <trkpt lat="43.60183" lon="1.35263">
        <ele>155.6</ele>
        <time>2025-10-18T10:07:30Z</time>
      </trkpt>
      <trkpt lat="43.60183" lon="1.35273">
        <ele>155.6</ele>
        <time>2025-10-18T10:07:31Z</time>
      </trkpt>
      <trkpt lat="43.60183" lon="1.35283">
        <ele>155.6</ele>
        <time>2025-10-18T10:07:32Z</time>
      </trkpt>
      <trkpt lat="43.60183" lon="1.35292">
        <ele>155.6</ele>
        <time>2025-10-18T10:07:33Z</time>
      </trkpt>
      <trkpt lat="43.60181" lon="1.35302">
        <ele>155.4</ele>
        <time>2025-10-18T10:07:34Z</time>
      </trkpt>
      <trkpt lat="43.60179" lon="1.3531">
        <ele>155.4</ele>
        <time>2025-10-18T10:07:35Z</time>
      </trkpt>
      <trkpt lat="43.60176" lon="1.35319">
        <ele>155.2</ele>
        <time>2025-10-18T10:07:36Z</time>
      </trkpt>
      <trkpt lat="43.60174" lon="1.35326">
        <ele>155.2</ele>
        <time>2025-10-18T10:07:37Z</time>
      </trkpt>
      <trkpt lat="43.60175" lon="1.35335">
        <ele>155</ele>
        <time>2025-10-18T10:07:38Z</time>
      </trkpt>
      <trkpt lat="43.60175" lon="1.35343">
        <ele>155</ele>
        <time>2025-10-18T10:07:39Z</time>
      </trkpt>
      <trkpt lat="43.60178" lon="1.3535">
        <ele>155</ele>
        <time>2025-10-18T10:07:40Z</time>
      </trkpt>
      <trkpt lat="43.60179" lon="1.35355">
        <ele>155</ele>
        <time>2025-10-18T10:07:41Z</time>
      </trkpt>
      <trkpt lat="43.60177" lon="1.3536">
        <ele>155.2</ele>
        <time>2025-10-18T10:07:42Z</time>
      </trkpt>
      <trkpt lat="43.60175" lon="1.35364">
        <ele>155.6</ele>
        <time>2025-10-18T10:07:43Z</time>
      </trkpt>
      <trkpt lat="43.60172" lon="1.35369">
        <ele>155.8</ele>
        <time>2025-10-18T10:07:44Z</time>
      </trkpt>
      <trkpt lat="43.60169" lon="1.35373">
        <ele>155.8</ele>
        <time>2025-10-18T10:07:45Z</time>
      </trkpt>
      <trkpt lat="43.60166" lon="1.35378">
        <ele>156</ele>
        <time>2025-10-18T10:07:46Z</time>
      </trkpt>
      <trkpt lat="43.60164" lon="1.35385">
        <ele>156</ele>
        <time>2025-10-18T10:07:47Z</time>
      </trkpt>
      <trkpt lat="43.60161" lon="1.35391">
        <ele>155.8</ele>
        <time>2025-10-18T10:07:48Z</time>
      </trkpt>
      <trkpt lat="43.60158" lon="1.35398">
        <ele>155.8</ele>
        <time>2025-10-18T10:07:49Z</time>
      </trkpt>
      <trkpt lat="43.60154" lon="1.35404">
        <ele>155.8</ele>
        <time>2025-10-18T10:07:50Z</time>
      </trkpt>
      <trkpt lat="43.60151" lon="1.35411">
        <ele>155.6</ele>
        <time>2025-10-18T10:07:51Z</time>
      </trkpt>
      <trkpt lat="43.60148" lon="1.35418">
        <ele>155.6</ele>
        <time>2025-10-18T10:07:52Z</time>
      </trkpt>
      <trkpt lat="43.60144" lon="1.35425">
        <ele>155.4</ele>
        <time>2025-10-18T10:07:53Z</time>
      </trkpt>
      <trkpt lat="43.60141" lon="1.35432">
        <ele>155.2</ele>
        <time>2025-10-18T10:07:54Z</time>
      </trkpt>
      <trkpt lat="43.60138" lon="1.3544">
        <ele>155</ele>
        <time>2025-10-18T10:07:55Z</time>
      </trkpt>
      <trkpt lat="43.60135" lon="1.35447">
        <ele>154.8</ele>
        <time>2025-10-18T10:07:56Z</time>
      </trkpt>
      <trkpt lat="43.60132" lon="1.35454">
        <ele>154.6</ele>
        <time>2025-10-18T10:07:57Z</time>
      </trkpt>
      <trkpt lat="43.60129" lon="1.35462">
        <ele>154.2</ele>
        <time>2025-10-18T10:07:58Z</time>
      </trkpt>
      <trkpt lat="43.60126" lon="1.3547">
        <ele>154.2</ele>
        <time>2025-10-18T10:07:59Z</time>
      </trkpt>
      <trkpt lat="43.60125" lon="1.35479">
        <ele>154.2</ele>
        <time>2025-10-18T10:08:00Z</time>
      </trkpt>
      <trkpt lat="43.60125" lon="1.35488">
        <ele>154.2</ele>
        <time>2025-10-18T10:08:01Z</time>
      </trkpt>
      <trkpt lat="43.60126" lon="1.35496">
        <ele>154.2</ele>
        <time>2025-10-18T10:08:02Z</time>
      </trkpt>
      <trkpt lat="43.60126" lon="1.35503">
        <ele>154.4</ele>
        <time>2025-10-18T10:08:03Z</time>
      </trkpt>
      <trkpt lat="43.60124" lon="1.35508">
        <ele>154.4</ele>
        <time>2025-10-18T10:08:04Z</time>
      </trkpt>
      <trkpt lat="43.6012" lon="1.35513">
        <ele>154.6</ele>
        <time>2025-10-18T10:08:05Z</time>
      </trkpt>
      <trkpt lat="43.60116" lon="1.35516">
        <ele>154.6</ele>
        <time>2025-10-18T10:08:06Z</time>
      </trkpt>
      <trkpt lat="43.60112" lon="1.35521">
        <ele>154.8</ele>
        <time>2025-10-18T10:08:07Z</time>
      </trkpt>
      <trkpt lat="43.6011" lon="1.35527">
        <ele>155</ele>
        <time>2025-10-18T10:08:08Z</time>
      </trkpt>
      <trkpt lat="43.60107" lon="1.35532">
        <ele>155</ele>
        <time>2025-10-18T10:08:09Z</time>
      </trkpt>
      <trkpt lat="43.60103" lon="1.35537">
        <ele>154.8</ele>
        <time>2025-10-18T10:08:10Z</time>
      </trkpt>
      <trkpt lat="43.601" lon="1.35542">
        <ele>154.8</ele>
        <time>2025-10-18T10:08:11Z</time>
      </trkpt>
      <trkpt lat="43.60096" lon="1.35547">
        <ele>154.8</ele>
        <time>2025-10-18T10:08:12Z</time>
      </trkpt>
      <trkpt lat="43.60092" lon="1.35553">
        <ele>154.6</ele>
        <time>2025-10-18T10:08:13Z</time>
      </trkpt>
      <trkpt lat="43.60088" lon="1.3556">
        <ele>154.6</ele>
        <time>2025-10-18T10:08:14Z</time>
      </trkpt>
      <trkpt lat="43.60084" lon="1.35566">
        <ele>154.6</ele>
        <time>2025-10-18T10:08:15Z</time>
      </trkpt>
      <trkpt lat="43.6008" lon="1.35574">
        <ele>154.4</ele>
        <time>2025-10-18T10:08:16Z</time>
      </trkpt>
      <trkpt lat="43.60077" lon="1.35581">
        <ele>154.2</ele>
        <time>2025-10-18T10:08:17Z</time>
      </trkpt>
      <trkpt lat="43.60074" lon="1.35589">
        <ele>154.2</ele>
        <time>2025-10-18T10:08:18Z</time>
      </trkpt>
      <trkpt lat="43.6007" lon="1.35597">
        <ele>154</ele>
        <time>2025-10-18T10:08:19Z</time>
      </trkpt>
      <trkpt lat="43.60066" lon="1.35604">
        <ele>153.8</ele>
        <time>2025-10-18T10:08:20Z</time>
      </trkpt>
      <trkpt lat="43.60062" lon="1.35611">
        <ele>153.8</ele>
        <time>2025-10-18T10:08:21Z</time>
      </trkpt>
      <trkpt lat="43.60057" lon="1.35619">
        <ele>153.8</ele>
        <time>2025-10-18T10:08:22Z</time>
      </trkpt>
      <trkpt lat="43.60053" lon="1.35626">
        <ele>153.6</ele>
        <time>2025-10-18T10:08:23Z</time>
      </trkpt>
      <trkpt lat="43.60048" lon="1.35633">
        <ele>153.6</ele>
        <time>2025-10-18T10:08:24Z</time>
      </trkpt>
      <trkpt lat="43.60044" lon="1.35641">
        <ele>153.6</ele>
        <time>2025-10-18T10:08:25Z</time>
      </trkpt>
      <trkpt lat="43.6004" lon="1.35648">
        <ele>153.6</ele>
        <time>2025-10-18T10:08:26Z</time>
      </trkpt>
      <trkpt lat="43.60036" lon="1.35656">
        <ele>153.6</ele>
        <time>2025-10-18T10:08:27Z</time>
      </trkpt>
      <trkpt lat="43.60033" lon="1.35664">
        <ele>153.6</ele>
        <time>2025-10-18T10:08:28Z</time>
      </trkpt>
      <trkpt lat="43.60029" lon="1.35672">
        <ele>153.6</ele>
        <time>2025-10-18T10:08:29Z</time>
      </trkpt>
      <trkpt lat="43.60026" lon="1.3568">
        <ele>153.6</ele>
        <time>2025-10-18T10:08:30Z</time>
      </trkpt>
      <trkpt lat="43.60023" lon="1.35689">
        <ele>153.6</ele>
        <time>2025-10-18T10:08:31Z</time>
      </trkpt>
      <trkpt lat="43.6002" lon="1.35698">
        <ele>153.8</ele>
        <time>2025-10-18T10:08:32Z</time>
      </trkpt>
      <trkpt lat="43.60018" lon="1.35706">
        <ele>153.8</ele>
        <time>2025-10-18T10:08:33Z</time>
      </trkpt>
      <trkpt lat="43.60017" lon="1.35715">
        <ele>153.8</ele>
        <time>2025-10-18T10:08:34Z</time>
      </trkpt>
      <trkpt lat="43.60017" lon="1.35725">
        <ele>154</ele>
        <time>2025-10-18T10:08:35Z</time>
      </trkpt>
      <trkpt lat="43.60019" lon="1.35732">
        <ele>154</ele>
        <time>2025-10-18T10:08:36Z</time>
      </trkpt>
      <trkpt lat="43.6002" lon="1.35739">
        <ele>154.2</ele>
        <time>2025-10-18T10:08:37Z</time>
      </trkpt>
      <trkpt lat="43.6002" lon="1.35747">
        <ele>154.4</ele>
        <time>2025-10-18T10:08:38Z</time>
      </trkpt>
      <trkpt lat="43.60021" lon="1.35755">
        <ele>154.6</ele>
        <time>2025-10-18T10:08:39Z</time>
      </trkpt>
      <trkpt lat="43.60022" lon="1.35762">
        <ele>154.6</ele>
        <time>2025-10-18T10:08:40Z</time>
      </trkpt>
      <trkpt lat="43.60022" lon="1.35768">
        <ele>154.8</ele>
        <time>2025-10-18T10:08:41Z</time>
      </trkpt>
      <trkpt lat="43.6002" lon="1.35773">
        <ele>155</ele>
        <time>2025-10-18T10:08:42Z</time>
      </trkpt>
      <trkpt lat="43.60017" lon="1.35778">
        <ele>155</ele>
        <time>2025-10-18T10:08:43Z</time>
      </trkpt>
      <trkpt lat="43.60014" lon="1.35784">
        <ele>155</ele>
        <time>2025-10-18T10:08:44Z</time>
      </trkpt>
      <trkpt lat="43.60009" lon="1.35787">
        <ele>155</ele>
        <time>2025-10-18T10:08:45Z</time>
      </trkpt>
      <trkpt lat="43.60004" lon="1.35787">
        <ele>155</ele>
        <time>2025-10-18T10:08:46Z</time>
      </trkpt>
      <trkpt lat="43.59999" lon="1.35786">
        <ele>155</ele>
        <time>2025-10-18T10:08:47Z</time>
      </trkpt>
      <trkpt lat="43.59993" lon="1.35785">
        <ele>154.8</ele>
        <time>2025-10-18T10:08:48Z</time>
      </trkpt>
      <trkpt lat="43.59988" lon="1.35787">
        <ele>154.8</ele>
        <time>2025-10-18T10:08:49Z</time>
      </trkpt>
      <trkpt lat="43.59983" lon="1.35792">
        <ele>154.6</ele>
        <time>2025-10-18T10:08:50Z</time>
      </trkpt>
      <trkpt lat="43.59978" lon="1.35797">
        <ele>154.4</ele>
        <time>2025-10-18T10:08:51Z</time>
      </trkpt>
      <trkpt lat="43.59975" lon="1.35804">
        <ele>154.2</ele>
        <time>2025-10-18T10:08:52Z</time>
      </trkpt>
      <trkpt lat="43.59972" lon="1.35811">
        <ele>154</ele>
        <time>2025-10-18T10:08:53Z</time>
      </trkpt>
      <trkpt lat="43.59969" lon="1.35818">
        <ele>153.8</ele>
        <time>2025-10-18T10:08:54Z</time>
      </trkpt>
      <trkpt lat="43.59966" lon="1.35826">
        <ele>153.6</ele>
        <time>2025-10-18T10:08:55Z</time>
      </trkpt>
      <trkpt lat="43.59963" lon="1.35834">
        <ele>153.4</ele>
        <time>2025-10-18T10:08:56Z</time>
      </trkpt>
      <trkpt lat="43.59959" lon="1.35842">
        <ele>153.4</ele>
        <time>2025-10-18T10:08:57Z</time>
      </trkpt>
      <trkpt lat="43.59955" lon="1.3585">
        <ele>153.2</ele>
        <time>2025-10-18T10:08:58Z</time>
      </trkpt>
      <trkpt lat="43.59951" lon="1.35858">
        <ele>153.2</ele>
        <time>2025-10-18T10:08:59Z</time>
      </trkpt>
      <trkpt lat="43.59947" lon="1.35866">
        <ele>153</ele>
        <time>2025-10-18T10:09:00Z</time>
      </trkpt>
      <trkpt lat="43.59944" lon="1.35874">
        <ele>153</ele>
        <time>2025-10-18T10:09:01Z</time>
      </trkpt>
      <trkpt lat="43.5994" lon="1.35882">
        <ele>152.8</ele>
        <time>2025-10-18T10:09:02Z</time>
      </trkpt>
      <trkpt lat="43.59936" lon="1.3589">
        <ele>152.4</ele>
        <time>2025-10-18T10:09:03Z</time>
      </trkpt>
      <trkpt lat="43.59932" lon="1.35898">
        <ele>152.2</ele>
        <time>2025-10-18T10:09:04Z</time>
      </trkpt>
      <trkpt lat="43.59929" lon="1.35906">
        <ele>152.2</ele>
        <time>2025-10-18T10:09:05Z</time>
      </trkpt>
      <trkpt lat="43.59926" lon="1.35915">
        <ele>152</ele>
        <time>2025-10-18T10:09:06Z</time>
      </trkpt>
      <trkpt lat="43.59923" lon="1.35923">
        <ele>152</ele>
        <time>2025-10-18T10:09:07Z</time>
      </trkpt>
      <trkpt lat="43.59919" lon="1.35931">
        <ele>152</ele>
        <time>2025-10-18T10:09:08Z</time>
      </trkpt>
      <trkpt lat="43.59915" lon="1.35939">
        <ele>152.2</ele>
        <time>2025-10-18T10:09:09Z</time>
      </trkpt>
      <trkpt lat="43.59912" lon="1.35947">
        <ele>152.4</ele>
        <time>2025-10-18T10:09:10Z</time>
      </trkpt>
      <trkpt lat="43.59909" lon="1.35956">
        <ele>152.4</ele>
        <time>2025-10-18T10:09:11Z</time>
      </trkpt>
      <trkpt lat="43.59905" lon="1.35964">
        <ele>152.6</ele>
        <time>2025-10-18T10:09:12Z</time>
      </trkpt>
      <trkpt lat="43.59902" lon="1.35972">
        <ele>152.6</ele>
        <time>2025-10-18T10:09:13Z</time>
      </trkpt>
      <trkpt lat="43.59899" lon="1.35981">
        <ele>152.8</ele>
        <time>2025-10-18T10:09:14Z</time>
      </trkpt>
      <trkpt lat="43.59895" lon="1.35989">
        <ele>152.6</ele>
        <time>2025-10-18T10:09:15Z</time>
      </trkpt>
      <trkpt lat="43.59891" lon="1.35997">
        <ele>152.6</ele>
        <time>2025-10-18T10:09:16Z</time>
      </trkpt>
      <trkpt lat="43.59888" lon="1.36005">
        <ele>152.6</ele>
        <time>2025-10-18T10:09:17Z</time>
      </trkpt>
      <trkpt lat="43.59884" lon="1.36013">
        <ele>152.4</ele>
        <time>2025-10-18T10:09:18Z</time>
      </trkpt>
      <trkpt lat="43.5988" lon="1.36021">
        <ele>152.4</ele>
        <time>2025-10-18T10:09:19Z</time>
      </trkpt>
      <trkpt lat="43.59876" lon="1.36029">
        <ele>152.6</ele>
        <time>2025-10-18T10:09:20Z</time>
      </trkpt>
      <trkpt lat="43.59872" lon="1.36037">
        <ele>152.6</ele>
        <time>2025-10-18T10:09:21Z</time>
      </trkpt>
      <trkpt lat="43.59869" lon="1.36046">
        <ele>152.8</ele>
        <time>2025-10-18T10:09:22Z</time>
      </trkpt>
      <trkpt lat="43.59866" lon="1.36054">
        <ele>152.8</ele>
        <time>2025-10-18T10:09:23Z</time>
      </trkpt>
      <trkpt lat="43.59863" lon="1.36062">
        <ele>153</ele>
        <time>2025-10-18T10:09:24Z</time>
      </trkpt>
      <trkpt lat="43.59861" lon="1.3607">
        <ele>153</ele>
        <time>2025-10-18T10:09:25Z</time>
      </trkpt>
      <trkpt lat="43.59861" lon="1.36079">
        <ele>153</ele>
        <time>2025-10-18T10:09:26Z</time>
      </trkpt>
      <trkpt lat="43.59862" lon="1.36086">
        <ele>153</ele>
        <time>2025-10-18T10:09:27Z</time>
      </trkpt>
      <trkpt lat="43.59864" lon="1.36094">
        <ele>153.2</ele>
        <time>2025-10-18T10:09:28Z</time>
      </trkpt>
      <trkpt lat="43.59865" lon="1.36101">
        <ele>153.4</ele>
        <time>2025-10-18T10:09:29Z</time>
      </trkpt>
      <trkpt lat="43.59869" lon="1.36107">
        <ele>153.6</ele>
        <time>2025-10-18T10:09:30Z</time>
      </trkpt>
      <trkpt lat="43.5987" lon="1.36113">
        <ele>153.6</ele>
        <time>2025-10-18T10:09:31Z</time>
      </trkpt>
      <trkpt lat="43.59869" lon="1.36119">
        <ele>153.8</ele>
        <time>2025-10-18T10:09:32Z</time>
      </trkpt>
      <trkpt lat="43.59867" lon="1.36124">
        <ele>153.8</ele>
        <time>2025-10-18T10:09:33Z</time>
      </trkpt>
      <trkpt lat="43.59864" lon="1.36129">
        <ele>153.8</ele>
        <time>2025-10-18T10:09:34Z</time>
      </trkpt>
      <trkpt lat="43.5986" lon="1.36134">
        <ele>153.8</ele>
        <time>2025-10-18T10:09:35Z</time>
      </trkpt>
      <trkpt lat="43.59856" lon="1.36137">
        <ele>154</ele>
        <time>2025-10-18T10:09:36Z</time>
      </trkpt>
      <trkpt lat="43.59851" lon="1.36139">
        <ele>154</ele>
        <time>2025-10-18T10:09:37Z</time>
      </trkpt>
      <trkpt lat="43.59846" lon="1.36141">
        <ele>154.2</ele>
        <time>2025-10-18T10:09:38Z</time>
      </trkpt>
      <trkpt lat="43.59841" lon="1.36143">
        <ele>154.4</ele>
        <time>2025-10-18T10:09:39Z</time>
      </trkpt>
      <trkpt lat="43.59836" lon="1.36145">
        <ele>154.6</ele>
        <time>2025-10-18T10:09:40Z</time>
      </trkpt>
      <trkpt lat="43.59831" lon="1.36148">
        <ele>154.6</ele>
        <time>2025-10-18T10:09:41Z</time>
      </trkpt>
      <trkpt lat="43.59828" lon="1.36153">
        <ele>154.6</ele>
        <time>2025-10-18T10:09:42Z</time>
      </trkpt>
      <trkpt lat="43.59828" lon="1.36158">
        <ele>154.8</ele>
        <time>2025-10-18T10:09:43Z</time>
      </trkpt>
      <trkpt lat="43.59828" lon="1.36164">
        <ele>154.8</ele>
        <time>2025-10-18T10:09:44Z</time>
      </trkpt>
      <trkpt lat="43.59828" lon="1.3617">
        <ele>154.8</ele>
        <time>2025-10-18T10:09:45Z</time>
      </trkpt>
      <trkpt lat="43.59827" lon="1.36177">
        <ele>154.6</ele>
        <time>2025-10-18T10:09:46Z</time>
      </trkpt>
      <trkpt lat="43.59826" lon="1.36184">
        <ele>154.4</ele>
        <time>2025-10-18T10:09:47Z</time>
      </trkpt>
      <trkpt lat="43.59824" lon="1.36191">
        <ele>154.2</ele>
        <time>2025-10-18T10:09:48Z</time>
      </trkpt>
      <trkpt lat="43.59821" lon="1.36197">
        <ele>154</ele>
        <time>2025-10-18T10:09:49Z</time>
      </trkpt>
      <trkpt lat="43.59819" lon="1.36203">
        <ele>154</ele>
        <time>2025-10-18T10:09:50Z</time>
      </trkpt>
      <trkpt lat="43.59816" lon="1.3621">
        <ele>154</ele>
        <time>2025-10-18T10:09:51Z</time>
      </trkpt>
      <trkpt lat="43.59814" lon="1.36216">
        <ele>154</ele>
        <time>2025-10-18T10:09:52Z</time>
      </trkpt>
      <trkpt lat="43.59811" lon="1.36223">
        <ele>154</ele>
        <time>2025-10-18T10:09:53Z</time>
      </trkpt>
      <trkpt lat="43.59808" lon="1.3623">
        <ele>154</ele>
        <time>2025-10-18T10:09:54Z</time>
      </trkpt>
      <trkpt lat="43.59805" lon="1.36236">
        <ele>154</ele>
        <time>2025-10-18T10:09:55Z</time>
      </trkpt>
      <trkpt lat="43.59803" lon="1.36243">
        <ele>154</ele>
        <time>2025-10-18T10:09:56Z</time>
      </trkpt>
      <trkpt lat="43.598" lon="1.3625">
        <ele>154.2</ele>
        <time>2025-10-18T10:09:57Z</time>
      </trkpt>
      <trkpt lat="43.59798" lon="1.36257">
        <ele>154.2</ele>
        <time>2025-10-18T10:09:58Z</time>
      </trkpt>
      <trkpt lat="43.59795" lon="1.36263">
        <ele>154.4</ele>
        <time>2025-10-18T10:09:59Z</time>
      </trkpt>
      <trkpt lat="43.59793" lon="1.3627">
        <ele>154.4</ele>
        <time>2025-10-18T10:10:00Z</time>
      </trkpt>
      <trkpt lat="43.5979" lon="1.36278">
        <ele>154.6</ele>
        <time>2025-10-18T10:10:01Z</time>
      </trkpt>
      <trkpt lat="43.59788" lon="1.36286">
        <ele>154.4</ele>
        <time>2025-10-18T10:10:02Z</time>
      </trkpt>
      <trkpt lat="43.59788" lon="1.36294">
        <ele>154.4</ele>
        <time>2025-10-18T10:10:03Z</time>
      </trkpt>
      <trkpt lat="43.5979" lon="1.36302">
        <ele>154.4</ele>
        <time>2025-10-18T10:10:04Z</time>
      </trkpt>
      <trkpt lat="43.59794" lon="1.36308">
        <ele>154.4</ele>
        <time>2025-10-18T10:10:05Z</time>
      </trkpt>
      <trkpt lat="43.59799" lon="1.36313">
        <ele>154.4</ele>
        <time>2025-10-18T10:10:06Z</time>
      </trkpt>
      <trkpt lat="43.59804" lon="1.36318">
        <ele>154.2</ele>
        <time>2025-10-18T10:10:07Z</time>
      </trkpt>
      <trkpt lat="43.59809" lon="1.36323">
        <ele>154.2</ele>
        <time>2025-10-18T10:10:08Z</time>
      </trkpt>
      <trkpt lat="43.59814" lon="1.36328">
        <ele>154</ele>
        <time>2025-10-18T10:10:09Z</time>
      </trkpt>
      <trkpt lat="43.5982" lon="1.36332">
        <ele>153.8</ele>
        <time>2025-10-18T10:10:10Z</time>
      </trkpt>
      <trkpt lat="43.59825" lon="1.36337">
        <ele>153.6</ele>
        <time>2025-10-18T10:10:11Z</time>
      </trkpt>
      <trkpt lat="43.59831" lon="1.36342">
        <ele>153.6</ele>
        <time>2025-10-18T10:10:12Z</time>
      </trkpt>
      <trkpt lat="43.59836" lon="1.36347">
        <ele>153.6</ele>
        <time>2025-10-18T10:10:13Z</time>
      </trkpt>
      <trkpt lat="43.59841" lon="1.36353">
        <ele>153.6</ele>
        <time>2025-10-18T10:10:14Z</time>
      </trkpt>
      <trkpt lat="43.59847" lon="1.36357">
        <ele>153.6</ele>
        <time>2025-10-18T10:10:15Z</time>
      </trkpt>
      <trkpt lat="43.59852" lon="1.36362">
        <ele>153.6</ele>
        <time>2025-10-18T10:10:16Z</time>
      </trkpt>
      <trkpt lat="43.59858" lon="1.36367">
        <ele>153.6</ele>
        <time>2025-10-18T10:10:17Z</time>
      </trkpt>
      <trkpt lat="43.59864" lon="1.3637">
        <ele>153.8</ele>
        <time>2025-10-18T10:10:18Z</time>
      </trkpt>
      <trkpt lat="43.5987" lon="1.36374">
        <ele>153.8</ele>
        <time>2025-10-18T10:10:19Z</time>
      </trkpt>
      <trkpt lat="43.59877" lon="1.36377">
        <ele>154</ele>
        <time>2025-10-18T10:10:20Z</time>
      </trkpt>
      <trkpt lat="43.59883" lon="1.36381">
        <ele>154</ele>
        <time>2025-10-18T10:10:21Z</time>
      </trkpt>
      <trkpt lat="43.59889" lon="1.36384">
        <ele>154</ele>
        <time>2025-10-18T10:10:22Z</time>
      </trkpt>
      <trkpt lat="43.59895" lon="1.36387">
        <ele>154.2</ele>
        <time>2025-10-18T10:10:23Z</time>
      </trkpt>
      <trkpt lat="43.59902" lon="1.3639">
        <ele>154.2</ele>
        <time>2025-10-18T10:10:24Z</time>
      </trkpt>
      <trkpt lat="43.59908" lon="1.36393">
        <ele>154.2</ele>
        <time>2025-10-18T10:10:25Z</time>
      </trkpt>
      <trkpt lat="43.59914" lon="1.36396">
        <ele>154.2</ele>
        <time>2025-10-18T10:10:26Z</time>
      </trkpt>
      <trkpt lat="43.5992" lon="1.36399">
        <ele>154</ele>
        <time>2025-10-18T10:10:27Z</time>
      </trkpt>
      <trkpt lat="43.59926" lon="1.36402">
        <ele>154</ele>
        <time>2025-10-18T10:10:28Z</time>
      </trkpt>
      <trkpt lat="43.59933" lon="1.36405">
        <ele>154</ele>
        <time>2025-10-18T10:10:29Z</time>
      </trkpt>
      <trkpt lat="43.59939" lon="1.36408">
        <ele>153.8</ele>
        <time>2025-10-18T10:10:30Z</time>
      </trkpt>
      <trkpt lat="43.59946" lon="1.36412">
        <ele>153.8</ele>
        <time>2025-10-18T10:10:31Z</time>
      </trkpt>
      <trkpt lat="43.59952" lon="1.36415">
        <ele>153.6</ele>
        <time>2025-10-18T10:10:32Z</time>
      </trkpt>
      <trkpt lat="43.59958" lon="1.36418">
        <ele>153.6</ele>
        <time>2025-10-18T10:10:33Z</time>
      </trkpt>
      <trkpt lat="43.59965" lon="1.3642">
        <ele>153.6</ele>
        <time>2025-10-18T10:10:34Z</time>
      </trkpt>
      <trkpt lat="43.59971" lon="1.36424">
        <ele>153.6</ele>
        <time>2025-10-18T10:10:35Z</time>
      </trkpt>
      <trkpt lat="43.59978" lon="1.36427">
        <ele>153.8</ele>
        <time>2025-10-18T10:10:36Z</time>
      </trkpt>
      <trkpt lat="43.59984" lon="1.36431">
        <ele>153.8</ele>
        <time>2025-10-18T10:10:37Z</time>
      </trkpt>
      <trkpt lat="43.5999" lon="1.36435">
        <ele>153.6</ele>
        <time>2025-10-18T10:10:38Z</time>
      </trkpt>
      <trkpt lat="43.59997" lon="1.36437">
        <ele>153.6</ele>
        <time>2025-10-18T10:10:39Z</time>
      </trkpt>
      <trkpt lat="43.60004" lon="1.3644">
        <ele>153.4</ele>
        <time>2025-10-18T10:10:40Z</time>
      </trkpt>
      <trkpt lat="43.6001" lon="1.36443">
        <ele>153.4</ele>
        <time>2025-10-18T10:10:41Z</time>
      </trkpt>
      <trkpt lat="43.60016" lon="1.36447">
        <ele>153.6</ele>
        <time>2025-10-18T10:10:42Z</time>
      </trkpt>
      <trkpt lat="43.60022" lon="1.3645">
        <ele>153.6</ele>
        <time>2025-10-18T10:10:43Z</time>
      </trkpt>
      <trkpt lat="43.60028" lon="1.36454">
        <ele>153.6</ele>
        <time>2025-10-18T10:10:44Z</time>
      </trkpt>
      <trkpt lat="43.60035" lon="1.36457">
        <ele>153.6</ele>
        <time>2025-10-18T10:10:45Z</time>
      </trkpt>
      <trkpt lat="43.60041" lon="1.36461">
        <ele>153.6</ele>
        <time>2025-10-18T10:10:46Z</time>
      </trkpt>
      <trkpt lat="43.60048" lon="1.36465">
        <ele>153.6</ele>
        <time>2025-10-18T10:10:47Z</time>
      </trkpt>
      <trkpt lat="43.60054" lon="1.36469">
        <ele>153.4</ele>
        <time>2025-10-18T10:10:48Z</time>
      </trkpt>
      <trkpt lat="43.60061" lon="1.36472">
        <ele>153.4</ele>
        <time>2025-10-18T10:10:49Z</time>
      </trkpt>
      <trkpt lat="43.60067" lon="1.36475">
        <ele>153.6</ele>
        <time>2025-10-18T10:10:50Z</time>
      </trkpt>
      <trkpt lat="43.60074" lon="1.36479">
        <ele>153.6</ele>
        <time>2025-10-18T10:10:51Z</time>
      </trkpt>
      <trkpt lat="43.6008" lon="1.36483">
        <ele>153.8</ele>
        <time>2025-10-18T10:10:52Z</time>
      </trkpt>
      <trkpt lat="43.60086" lon="1.36486">
        <ele>153.8</ele>
        <time>2025-10-18T10:10:53Z</time>
      </trkpt>
      <trkpt lat="43.60092" lon="1.36489">
        <ele>154</ele>
        <time>2025-10-18T10:10:54Z</time>
      </trkpt>
      <trkpt lat="43.60098" lon="1.36492">
        <ele>154</ele>
        <time>2025-10-18T10:10:55Z</time>
      </trkpt>
      <trkpt lat="43.60104" lon="1.36496">
        <ele>154.2</ele>
        <time>2025-10-18T10:10:56Z</time>
      </trkpt>
      <trkpt lat="43.60109" lon="1.36502">
        <ele>154.2</ele>
        <time>2025-10-18T10:10:57Z</time>
      </trkpt>
      <trkpt lat="43.60113" lon="1.36509">
        <ele>154.4</ele>
        <time>2025-10-18T10:10:58Z</time>
      </trkpt>
      <trkpt lat="43.60117" lon="1.36515">
        <ele>154.4</ele>
        <time>2025-10-18T10:10:59Z</time>
      </trkpt>
      <trkpt lat="43.60121" lon="1.36522">
        <ele>154.4</ele>
        <time>2025-10-18T10:11:00Z</time>
      </trkpt>
      <trkpt lat="43.60122" lon="1.36529">
        <ele>154.2</ele>
        <time>2025-10-18T10:11:01Z</time>
      </trkpt>
      <trkpt lat="43.6012" lon="1.36536">
        <ele>154.2</ele>
        <time>2025-10-18T10:11:02Z</time>
      </trkpt>
      <trkpt lat="43.60118" lon="1.36542">
        <ele>154</ele>
        <time>2025-10-18T10:11:03Z</time>
      </trkpt>
      <trkpt lat="43.60117" lon="1.36549">
        <ele>154</ele>
        <time>2025-10-18T10:11:04Z</time>
      </trkpt>
      <trkpt lat="43.60116" lon="1.36555">
        <ele>153.8</ele>
        <time>2025-10-18T10:11:05Z</time>
      </trkpt>
      <trkpt lat="43.60115" lon="1.36562">
        <ele>153.6</ele>
        <time>2025-10-18T10:11:06Z</time>
      </trkpt>
      <trkpt lat="43.60114" lon="1.3657">
        <ele>153.4</ele>
        <time>2025-10-18T10:11:07Z</time>
      </trkpt>
      <trkpt lat="43.60112" lon="1.36578">
        <ele>153.2</ele>
        <time>2025-10-18T10:11:08Z</time>
      </trkpt>
      <trkpt lat="43.6011" lon="1.36586">
        <ele>153</ele>
        <time>2025-10-18T10:11:09Z</time>
      </trkpt>
      <trkpt lat="43.60108" lon="1.36595">
        <ele>153</ele>
        <time>2025-10-18T10:11:10Z</time>
      </trkpt>
      <trkpt lat="43.60106" lon="1.36603">
        <ele>153</ele>
        <time>2025-10-18T10:11:11Z</time>
      </trkpt>
      <trkpt lat="43.60104" lon="1.3661">
        <ele>153</ele>
        <time>2025-10-18T10:11:12Z</time>
      </trkpt>
      <trkpt lat="43.60102" lon="1.36618">
        <ele>153.2</ele>
        <time>2025-10-18T10:11:13Z</time>
      </trkpt>
      <trkpt lat="43.601" lon="1.36626">
        <ele>153.2</ele>
        <time>2025-10-18T10:11:14Z</time>
      </trkpt>
      <trkpt lat="43.60098" lon="1.36635">
        <ele>153.4</ele>
        <time>2025-10-18T10:11:15Z</time>
      </trkpt>
      <trkpt lat="43.60096" lon="1.36643">
        <ele>153.2</ele>
        <time>2025-10-18T10:11:16Z</time>
      </trkpt>
      <trkpt lat="43.60094" lon="1.36651">
        <ele>153.2</ele>
        <time>2025-10-18T10:11:17Z</time>
      </trkpt>
      <trkpt lat="43.60092" lon="1.36659">
        <ele>153.2</ele>
        <time>2025-10-18T10:11:18Z</time>
      </trkpt>
      <trkpt lat="43.6009" lon="1.36666">
        <ele>153</ele>
        <time>2025-10-18T10:11:19Z</time>
      </trkpt>
      <trkpt lat="43.60087" lon="1.36674">
        <ele>152.8</ele>
        <time>2025-10-18T10:11:20Z</time>
      </trkpt>
      <trkpt lat="43.60085" lon="1.36682">
        <ele>152.6</ele>
        <time>2025-10-18T10:11:21Z</time>
      </trkpt>
      <trkpt lat="43.60084" lon="1.3669">
        <ele>152.4</ele>
        <time>2025-10-18T10:11:22Z</time>
      </trkpt>
      <trkpt lat="43.60082" lon="1.36699">
        <ele>152.4</ele>
        <time>2025-10-18T10:11:23Z</time>
      </trkpt>
      <trkpt lat="43.6008" lon="1.36707">
        <ele>152.4</ele>
        <time>2025-10-18T10:11:24Z</time>
      </trkpt>
      <trkpt lat="43.60078" lon="1.36715">
        <ele>152.4</ele>
        <time>2025-10-18T10:11:25Z</time>
      </trkpt>
      <trkpt lat="43.60076" lon="1.36724">
        <ele>152.4</ele>
        <time>2025-10-18T10:11:26Z</time>
      </trkpt>
      <trkpt lat="43.60074" lon="1.36733">
        <ele>152.6</ele>
        <time>2025-10-18T10:11:27Z</time>
      </trkpt>
      <trkpt lat="43.60072" lon="1.36742">
        <ele>152.8</ele>
        <time>2025-10-18T10:11:28Z</time>
      </trkpt>
      <trkpt lat="43.6007" lon="1.3675">
        <ele>152.8</ele>
        <time>2025-10-18T10:11:29Z</time>
      </trkpt>
      <trkpt lat="43.60068" lon="1.36759">
        <ele>153</ele>
        <time>2025-10-18T10:11:30Z</time>
      </trkpt>
      <trkpt lat="43.60066" lon="1.36768">
        <ele>152.8</ele>
        <time>2025-10-18T10:11:31Z</time>
      </trkpt>
      <trkpt lat="43.60064" lon="1.36777">
        <ele>152.8</ele>
        <time>2025-10-18T10:11:32Z</time>
      </trkpt>
      <trkpt lat="43.60062" lon="1.36786">
        <ele>152.6</ele>
        <time>2025-10-18T10:11:33Z</time>
      </trkpt>
      <trkpt lat="43.6006" lon="1.36795">
        <ele>152.6</ele>
        <time>2025-10-18T10:11:34Z</time>
      </trkpt>
      <trkpt lat="43.60058" lon="1.36803">
        <ele>152.6</ele>
        <time>2025-10-18T10:11:35Z</time>
      </trkpt>
      <trkpt lat="43.60056" lon="1.36812">
        <ele>152.6</ele>
        <time>2025-10-18T10:11:36Z</time>
      </trkpt>
      <trkpt lat="43.60054" lon="1.36822">
        <ele>152.4</ele>
        <time>2025-10-18T10:11:37Z</time>
      </trkpt>
      <trkpt lat="43.60052" lon="1.36831">
        <ele>152.4</ele>
        <time>2025-10-18T10:11:38Z</time>
      </trkpt>
      <trkpt lat="43.6005" lon="1.3684">
        <ele>152.6</ele>
        <time>2025-10-18T10:11:39Z</time>
      </trkpt>
      <trkpt lat="43.60048" lon="1.36849">
        <ele>152.6</ele>
        <time>2025-10-18T10:11:40Z</time>
      </trkpt>
      <trkpt lat="43.60046" lon="1.36857">
        <ele>152.8</ele>
        <time>2025-10-18T10:11:41Z</time>
      </trkpt>
      <trkpt lat="43.60044" lon="1.36866">
        <ele>153</ele>
        <time>2025-10-18T10:11:42Z</time>
      </trkpt>
      <trkpt lat="43.60041" lon="1.36875">
        <ele>153</ele>
        <time>2025-10-18T10:11:43Z</time>
      </trkpt>
      <trkpt lat="43.6004" lon="1.36884">
        <ele>152.8</ele>
        <time>2025-10-18T10:11:44Z</time>
      </trkpt>
      <trkpt lat="43.60038" lon="1.36893">
        <ele>152.8</ele>
        <time>2025-10-18T10:11:45Z</time>
      </trkpt>
      <trkpt lat="43.60036" lon="1.36902">
        <ele>152.6</ele>
        <time>2025-10-18T10:11:46Z</time>
      </trkpt>
      <trkpt lat="43.60034" lon="1.36911">
        <ele>152.6</ele>
        <time>2025-10-18T10:11:47Z</time>
      </trkpt>
      <trkpt lat="43.60032" lon="1.36919">
        <ele>152.6</ele>
        <time>2025-10-18T10:11:48Z</time>
      </trkpt>
      <trkpt lat="43.6003" lon="1.36928">
        <ele>152.6</ele>
        <time>2025-10-18T10:11:49Z</time>
      </trkpt>
      <trkpt lat="43.60028" lon="1.36937">
        <ele>152.6</ele>
        <time>2025-10-18T10:11:50Z</time>
      </trkpt>
      <trkpt lat="43.60025" lon="1.36945">
        <ele>152.6</ele>
        <time>2025-10-18T10:11:51Z</time>
      </trkpt>
      <trkpt lat="43.60023" lon="1.36954">
        <ele>152.8</ele>
        <time>2025-10-18T10:11:52Z</time>
      </trkpt>
      <trkpt lat="43.60021" lon="1.36963">
        <ele>152.8</ele>
        <time>2025-10-18T10:11:53Z</time>
      </trkpt>
      <trkpt lat="43.60019" lon="1.36972">
        <ele>152.8</ele>
        <time>2025-10-18T10:11:54Z</time>
      </trkpt>
      <trkpt lat="43.60017" lon="1.36981">
        <ele>153</ele>
        <time>2025-10-18T10:11:55Z</time>
      </trkpt>
      <trkpt lat="43.60014" lon="1.36991">
        <ele>153</ele>
        <time>2025-10-18T10:11:56Z</time>
      </trkpt>
      <trkpt lat="43.60012" lon="1.37001">
        <ele>153</ele>
        <time>2025-10-18T10:11:57Z</time>
      </trkpt>
      <trkpt lat="43.60009" lon="1.3701">
        <ele>153</ele>
        <time>2025-10-18T10:11:58Z</time>
      </trkpt>
      <trkpt lat="43.60007" lon="1.3702">
        <ele>152.8</ele>
        <time>2025-10-18T10:11:59Z</time>
      </trkpt>
      <trkpt lat="43.60005" lon="1.3703">
        <ele>152.8</ele>
        <time>2025-10-18T10:12:00Z</time>
      </trkpt>
      <trkpt lat="43.60003" lon="1.37039">
        <ele>152.6</ele>
        <time>2025-10-18T10:12:01Z</time>
      </trkpt>
      <trkpt lat="43.60001" lon="1.37049">
        <ele>152.4</ele>
        <time>2025-10-18T10:12:02Z</time>
      </trkpt>
      <trkpt lat="43.59999" lon="1.37058">
        <ele>152.2</ele>
        <time>2025-10-18T10:12:03Z</time>
      </trkpt>
      <trkpt lat="43.59997" lon="1.37067">
        <ele>152</ele>
        <time>2025-10-18T10:12:04Z</time>
      </trkpt>
      <trkpt lat="43.59995" lon="1.37076">
        <ele>151.8</ele>
        <time>2025-10-18T10:12:05Z</time>
      </trkpt>
      <trkpt lat="43.59994" lon="1.37085">
        <ele>151.4</ele>
        <time>2025-10-18T10:12:06Z</time>
      </trkpt>
      <trkpt lat="43.59992" lon="1.37095">
        <ele>151</ele>
        <time>2025-10-18T10:12:07Z</time>
      </trkpt>
      <trkpt lat="43.59988" lon="1.37102">
        <ele>150.8</ele>
        <time>2025-10-18T10:12:08Z</time>
      </trkpt>
      <trkpt lat="43.59985" lon="1.37109">
        <ele>150.4</ele>
        <time>2025-10-18T10:12:09Z</time>
      </trkpt>
      <trkpt lat="43.59981" lon="1.37115">
        <ele>150.4</ele>
        <time>2025-10-18T10:12:10Z</time>
      </trkpt>
      <trkpt lat="43.59976" lon="1.37121">
        <ele>150.4</ele>
        <time>2025-10-18T10:12:11Z</time>
      </trkpt>
      <trkpt lat="43.59973" lon="1.37127">
        <ele>150.6</ele>
        <time>2025-10-18T10:12:12Z</time>
      </trkpt>
      <trkpt lat="43.5997" lon="1.37134">
        <ele>150.8</ele>
        <time>2025-10-18T10:12:13Z</time>
      </trkpt>
      <trkpt lat="43.59967" lon="1.37143">
        <ele>150.8</ele>
        <time>2025-10-18T10:12:14Z</time>
      </trkpt>
      <trkpt lat="43.59965" lon="1.37151">
        <ele>150.6</ele>
        <time>2025-10-18T10:12:15Z</time>
      </trkpt>
      <trkpt lat="43.59964" lon="1.3716">
        <ele>150.4</ele>
        <time>2025-10-18T10:12:16Z</time>
      </trkpt>
      <trkpt lat="43.59964" lon="1.37169">
        <ele>150.2</ele>
        <time>2025-10-18T10:12:17Z</time>
      </trkpt>
      <trkpt lat="43.59963" lon="1.37179">
        <ele>150</ele>
        <time>2025-10-18T10:12:18Z</time>
      </trkpt>
      <trkpt lat="43.59962" lon="1.37188">
        <ele>149.8</ele>
        <time>2025-10-18T10:12:19Z</time>
      </trkpt>
      <trkpt lat="43.59961" lon="1.37197">
        <ele>149.4</ele>
        <time>2025-10-18T10:12:20Z</time>
      </trkpt>
      <trkpt lat="43.59959" lon="1.37205">
        <ele>149.2</ele>
        <time>2025-10-18T10:12:21Z</time>
      </trkpt>
      <trkpt lat="43.59957" lon="1.37214">
        <ele>149.2</ele>
        <time>2025-10-18T10:12:22Z</time>
      </trkpt>
      <trkpt lat="43.59955" lon="1.37223">
        <ele>149</ele>
        <time>2025-10-18T10:12:23Z</time>
      </trkpt>
      <trkpt lat="43.59954" lon="1.3723">
        <ele>149.2</ele>
        <time>2025-10-18T10:12:24Z</time>
      </trkpt>
      <trkpt lat="43.59953" lon="1.37238">
        <ele>149.2</ele>
        <time>2025-10-18T10:12:25Z</time>
      </trkpt>
      <trkpt lat="43.5995" lon="1.37243">
        <ele>149.4</ele>
        <time>2025-10-18T10:12:26Z</time>
      </trkpt>
      <trkpt lat="43.59947" lon="1.37247">
        <ele>149.6</ele>
        <time>2025-10-18T10:12:27Z</time>
      </trkpt>
      <trkpt lat="43.59944" lon="1.3725">
        <ele>149.8</ele>
        <time>2025-10-18T10:12:28Z</time>
      </trkpt>
      <trkpt lat="43.59942" lon="1.37252">
        <ele>149.8</ele>
        <time>2025-10-18T10:12:29Z</time>
      </trkpt>
      <trkpt lat="43.59941" lon="1.37255">
        <ele>150</ele>
        <time>2025-10-18T10:12:30Z</time>
      </trkpt>
      <trkpt lat="43.59941" lon="1.37258">
        <ele>150.2</ele>
        <time>2025-10-18T10:12:31Z</time>
      </trkpt>
      <trkpt lat="43.59942" lon="1.3726">
        <ele>150.2</ele>
        <time>2025-10-18T10:12:32Z</time>
      </trkpt>
      <trkpt lat="43.59943" lon="1.3726">
        <ele>150.4</ele>
        <time>2025-10-18T10:12:33Z</time>
      </trkpt>
      <trkpt lat="43.59945" lon="1.37261">
        <ele>150.4</ele>
        <time>2025-10-18T10:12:34Z</time>
      </trkpt>
      <trkpt lat="43.59948" lon="1.37264">
        <ele>150.4</ele>
        <time>2025-10-18T10:12:35Z</time>
      </trkpt>
      <trkpt lat="43.59949" lon="1.37268">
        <ele>150.2</ele>
        <time>2025-10-18T10:12:36Z</time>
      </trkpt>
      <trkpt lat="43.59951" lon="1.37274">
        <ele>150</ele>
        <time>2025-10-18T10:12:37Z</time>
      </trkpt>
      <trkpt lat="43.5995" lon="1.3728">
        <ele>149.8</ele>
        <time>2025-10-18T10:12:38Z</time>
      </trkpt>
      <trkpt lat="43.59948" lon="1.37287">
        <ele>149.6</ele>
        <time>2025-10-18T10:12:39Z</time>
      </trkpt>
      <trkpt lat="43.59946" lon="1.37294">
        <ele>149.4</ele>
        <time>2025-10-18T10:12:40Z</time>
      </trkpt>
      <trkpt lat="43.59944" lon="1.37302">
        <ele>149</ele>
        <time>2025-10-18T10:12:41Z</time>
      </trkpt>
      <trkpt lat="43.59942" lon="1.3731">
        <ele>148.6</ele>
        <time>2025-10-18T10:12:42Z</time>
      </trkpt>
      <trkpt lat="43.5994" lon="1.37319">
        <ele>148.4</ele>
        <time>2025-10-18T10:12:43Z</time>
      </trkpt>
      <trkpt lat="43.59938" lon="1.37328">
        <ele>148</ele>
        <time>2025-10-18T10:12:44Z</time>
      </trkpt>
      <trkpt lat="43.59936" lon="1.37337">
        <ele>147.6</ele>
        <time>2025-10-18T10:12:45Z</time>
      </trkpt>
      <trkpt lat="43.59934" lon="1.37347">
        <ele>147</ele>
        <time>2025-10-18T10:12:46Z</time>
      </trkpt>
      <trkpt lat="43.59932" lon="1.37356">
        <ele>146.6</ele>
        <time>2025-10-18T10:12:47Z</time>
      </trkpt>
      <trkpt lat="43.5993" lon="1.37366">
        <ele>145.8</ele>
        <time>2025-10-18T10:12:48Z</time>
      </trkpt>
      <trkpt lat="43.59927" lon="1.37374">
        <ele>145.4</ele>
        <time>2025-10-18T10:12:49Z</time>
      </trkpt>
      <trkpt lat="43.59925" lon="1.37382">
        <ele>145.2</ele>
        <time>2025-10-18T10:12:50Z</time>
      </trkpt>
      <trkpt lat="43.59923" lon="1.37391">
        <ele>144.8</ele>
        <time>2025-10-18T10:12:51Z</time>
      </trkpt>
      <trkpt lat="43.5992" lon="1.37399">
        <ele>144.6</ele>
        <time>2025-10-18T10:12:52Z</time>
      </trkpt>
      <trkpt lat="43.59918" lon="1.37408">
        <ele>144.6</ele>
        <time>2025-10-18T10:12:53Z</time>
      </trkpt>
      <trkpt lat="43.59916" lon="1.37417">
        <ele>144.6</ele>
        <time>2025-10-18T10:12:54Z</time>
      </trkpt>
      <trkpt lat="43.59913" lon="1.37426">
        <ele>144.6</ele>
        <time>2025-10-18T10:12:55Z</time>
      </trkpt>
      <trkpt lat="43.59911" lon="1.37436">
        <ele>144.4</ele>
        <time>2025-10-18T10:12:56Z</time>
      </trkpt>
      <trkpt lat="43.59909" lon="1.37446">
        <ele>144.6</ele>
        <time>2025-10-18T10:12:57Z</time>
      </trkpt>
      <trkpt lat="43.59907" lon="1.37456">
        <ele>144.4</ele>
        <time>2025-10-18T10:12:58Z</time>
      </trkpt>
      <trkpt lat="43.59905" lon="1.37465">
        <ele>144.4</ele>
        <time>2025-10-18T10:12:59Z</time>
      </trkpt>
      <trkpt lat="43.59903" lon="1.37475">
        <ele>144.4</ele>
        <time>2025-10-18T10:13:00Z</time>
      </trkpt>
      <trkpt lat="43.59901" lon="1.37485">
        <ele>144.4</ele>
        <time>2025-10-18T10:13:01Z</time>
      </trkpt>
      <trkpt lat="43.59899" lon="1.37494">
        <ele>144.4</ele>
        <time>2025-10-18T10:13:02Z</time>
      </trkpt>
      <trkpt lat="43.59897" lon="1.37504">
        <ele>144.4</ele>
        <time>2025-10-18T10:13:03Z</time>
      </trkpt>
      <trkpt lat="43.59895" lon="1.37514">
        <ele>144.4</ele>
        <time>2025-10-18T10:13:04Z</time>
      </trkpt>
      <trkpt lat="43.59893" lon="1.37524">
        <ele>144.4</ele>
        <time>2025-10-18T10:13:05Z</time>
      </trkpt>
      <trkpt lat="43.59891" lon="1.37533">
        <ele>144.4</ele>
        <time>2025-10-18T10:13:06Z</time>
      </trkpt>
      <trkpt lat="43.59889" lon="1.37541">
        <ele>144.4</ele>
        <time>2025-10-18T10:13:07Z</time>
      </trkpt>
      <trkpt lat="43.59885" lon="1.37547">
        <ele>144.4</ele>
        <time>2025-10-18T10:13:08Z</time>
      </trkpt>
      <trkpt lat="43.59881" lon="1.37549">
        <ele>144.4</ele>
        <time>2025-10-18T10:13:09Z</time>
      </trkpt>
      <trkpt lat="43.59876" lon="1.37549">
        <ele>144.4</ele>
        <time>2025-10-18T10:13:10Z</time>
      </trkpt>
      <trkpt lat="43.59871" lon="1.37549">
        <ele>144.6</ele>
        <time>2025-10-18T10:13:11Z</time>
      </trkpt>
      <trkpt lat="43.59867" lon="1.37546">
        <ele>144.6</ele>
        <time>2025-10-18T10:13:12Z</time>
      </trkpt>
      <trkpt lat="43.59864" lon="1.37542">
        <ele>144.6</ele>
        <time>2025-10-18T10:13:13Z</time>
      </trkpt>
      <trkpt lat="43.59861" lon="1.37536">
        <ele>144.6</ele>
        <time>2025-10-18T10:13:14Z</time>
      </trkpt>
      <trkpt lat="43.59858" lon="1.37531">
        <ele>144.6</ele>
        <time>2025-10-18T10:13:15Z</time>
      </trkpt>
      <trkpt lat="43.59856" lon="1.37525">
        <ele>144.4</ele>
        <time>2025-10-18T10:13:16Z</time>
      </trkpt>
      <trkpt lat="43.59854" lon="1.37519">
        <ele>144.4</ele>
        <time>2025-10-18T10:13:17Z</time>
      </trkpt>
      <trkpt lat="43.59851" lon="1.37514">
        <ele>144.4</ele>
        <time>2025-10-18T10:13:18Z</time>
      </trkpt>
      <trkpt lat="43.59846" lon="1.37512">
        <ele>144.4</ele>
        <time>2025-10-18T10:13:19Z</time>
      </trkpt>
      <trkpt lat="43.59841" lon="1.3751">
        <ele>144.4</ele>
        <time>2025-10-18T10:13:20Z</time>
      </trkpt>
      <trkpt lat="43.59836" lon="1.37509">
        <ele>144.2</ele>
        <time>2025-10-18T10:13:21Z</time>
      </trkpt>
      <trkpt lat="43.59831" lon="1.37505">
        <ele>144.2</ele>
        <time>2025-10-18T10:13:22Z</time>
      </trkpt>
      <trkpt lat="43.59826" lon="1.37501">
        <ele>144.2</ele>
        <time>2025-10-18T10:13:23Z</time>
      </trkpt>
      <trkpt lat="43.59822" lon="1.37496">
        <ele>144.2</ele>
        <time>2025-10-18T10:13:24Z</time>
      </trkpt>
      <trkpt lat="43.59819" lon="1.37494">
        <ele>144.4</ele>
        <time>2025-10-18T10:13:25Z</time>
      </trkpt>
      <trkpt lat="43.59815" lon="1.37493">
        <ele>144.6</ele>
        <time>2025-10-18T10:13:26Z</time>
      </trkpt>
      <trkpt lat="43.59814" lon="1.37496">
        <ele>144.6</ele>
        <time>2025-10-18T10:13:27Z</time>
      </trkpt>
      <trkpt lat="43.59813" lon="1.375">
        <ele>144.8</ele>
        <time>2025-10-18T10:13:28Z</time>
      </trkpt>
      <trkpt lat="43.59811" lon="1.37505">
        <ele>144.8</ele>
        <time>2025-10-18T10:13:29Z</time>
      </trkpt>
      <trkpt lat="43.59809" lon="1.37511">
        <ele>144.8</ele>
        <time>2025-10-18T10:13:30Z</time>
      </trkpt>
      <trkpt lat="43.59807" lon="1.37516">
        <ele>144.8</ele>
        <time>2025-10-18T10:13:31Z</time>
      </trkpt>
      <trkpt lat="43.59805" lon="1.37522">
        <ele>144.6</ele>
        <time>2025-10-18T10:13:32Z</time>
      </trkpt>
      <trkpt lat="43.59802" lon="1.37528">
        <ele>144.4</ele>
        <time>2025-10-18T10:13:33Z</time>
      </trkpt>
      <trkpt lat="43.59799" lon="1.37532">
        <ele>144.4</ele>
        <time>2025-10-18T10:13:34Z</time>
      </trkpt>
      <trkpt lat="43.59794" lon="1.37537">
        <ele>144.4</ele>
        <time>2025-10-18T10:13:35Z</time>
      </trkpt>
      <trkpt lat="43.59789" lon="1.37541">
        <ele>144.4</ele>
        <time>2025-10-18T10:13:36Z</time>
      </trkpt>
      <trkpt lat="43.59784" lon="1.37546">
        <ele>144.4</ele>
        <time>2025-10-18T10:13:37Z</time>
      </trkpt>
      <trkpt lat="43.5978" lon="1.37551">
        <ele>144.4</ele>
        <time>2025-10-18T10:13:38Z</time>
      </trkpt>
      <trkpt lat="43.59775" lon="1.37553">
        <ele>144.4</ele>
        <time>2025-10-18T10:13:39Z</time>
      </trkpt>
      <trkpt lat="43.59769" lon="1.37556">
        <ele>144.4</ele>
        <time>2025-10-18T10:13:40Z</time>
      </trkpt>
      <trkpt lat="43.59764" lon="1.3756">
        <ele>144.2</ele>
        <time>2025-10-18T10:13:41Z</time>
      </trkpt>
      <trkpt lat="43.59758" lon="1.37564">
        <ele>144.2</ele>
        <time>2025-10-18T10:13:42Z</time>
      </trkpt>
      <trkpt lat="43.59752" lon="1.37567">
        <ele>144.2</ele>
        <time>2025-10-18T10:13:43Z</time>
      </trkpt>
      <trkpt lat="43.59748" lon="1.37572">
        <ele>144</ele>
        <time>2025-10-18T10:13:44Z</time>
      </trkpt>
      <trkpt lat="43.59744" lon="1.37578">
        <ele>143.8</ele>
        <time>2025-10-18T10:13:45Z</time>
      </trkpt>
      <trkpt lat="43.59741" lon="1.37586">
        <ele>143.6</ele>
        <time>2025-10-18T10:13:46Z</time>
      </trkpt>
      <trkpt lat="43.59738" lon="1.37593">
        <ele>143.4</ele>
        <time>2025-10-18T10:13:47Z</time>
      </trkpt>
      <trkpt lat="43.59735" lon="1.37601">
        <ele>143.4</ele>
        <time>2025-10-18T10:13:48Z</time>
      </trkpt>
      <trkpt lat="43.59732" lon="1.37607">
        <ele>143.4</ele>
        <time>2025-10-18T10:13:49Z</time>
      </trkpt>
      <trkpt lat="43.59729" lon="1.37614">
        <ele>143.4</ele>
        <time>2025-10-18T10:13:50Z</time>
      </trkpt>
      <trkpt lat="43.59726" lon="1.37618">
        <ele>143.8</ele>
        <time>2025-10-18T10:13:51Z</time>
      </trkpt>
      <trkpt lat="43.59722" lon="1.37622">
        <ele>144.2</ele>
        <time>2025-10-18T10:13:52Z</time>
      </trkpt>
      <trkpt lat="43.59719" lon="1.37625">
        <ele>144.8</ele>
        <time>2025-10-18T10:13:53Z</time>
      </trkpt>
      <trkpt lat="43.59716" lon="1.37628">
        <ele>145.4</ele>
        <time>2025-10-18T10:13:54Z</time>
      </trkpt>
      <trkpt lat="43.59713" lon="1.37631">
        <ele>146</ele>
        <time>2025-10-18T10:13:55Z</time>
      </trkpt>
      <trkpt lat="43.5971" lon="1.37634">
        <ele>146.4</ele>
        <time>2025-10-18T10:13:56Z</time>
      </trkpt>
      <trkpt lat="43.5971" lon="1.37638">
        <ele>147</ele>
        <time>2025-10-18T10:13:57Z</time>
      </trkpt>
      <trkpt lat="43.59709" lon="1.37642">
        <ele>147.4</ele>
        <time>2025-10-18T10:13:58Z</time>
      </trkpt>
      <trkpt lat="43.59709" lon="1.37646">
        <ele>147.8</ele>
        <time>2025-10-18T10:13:59Z</time>
      </trkpt>
      <trkpt lat="43.59709" lon="1.37651">
        <ele>148.2</ele>
        <time>2025-10-18T10:14:00Z</time>
      </trkpt>
      <trkpt lat="43.59709" lon="1.37656">
        <ele>148.4</ele>
        <time>2025-10-18T10:14:01Z</time>
      </trkpt>
      <trkpt lat="43.59709" lon="1.37661">
        <ele>148.8</ele>
        <time>2025-10-18T10:14:02Z</time>
      </trkpt>
      <trkpt lat="43.59709" lon="1.37668">
        <ele>149</ele>
        <time>2025-10-18T10:14:03Z</time>
      </trkpt>
      <trkpt lat="43.59709" lon="1.37673">
        <ele>149</ele>
        <time>2025-10-18T10:14:04Z</time>
      </trkpt>
      <trkpt lat="43.5971" lon="1.37679">
        <ele>149.2</ele>
        <time>2025-10-18T10:14:05Z</time>
      </trkpt>
      <trkpt lat="43.5971" lon="1.37684">
        <ele>149.2</ele>
        <time>2025-10-18T10:14:06Z</time>
      </trkpt>
      <trkpt lat="43.5971" lon="1.37689">
        <ele>149.2</ele>
        <time>2025-10-18T10:14:07Z</time>
      </trkpt>
      <trkpt lat="43.59709" lon="1.37693">
        <ele>149.2</ele>
        <time>2025-10-18T10:14:08Z</time>
      </trkpt>
      <trkpt lat="43.59708" lon="1.37696">
        <ele>149</ele>
        <time>2025-10-18T10:14:09Z</time>
      </trkpt>
      <trkpt lat="43.59707" lon="1.37698">
        <ele>149</ele>
        <time>2025-10-18T10:14:10Z</time>
      </trkpt>
      <trkpt lat="43.59709" lon="1.377">
        <ele>148.8</ele>
        <time>2025-10-18T10:14:11Z</time>
      </trkpt>
      <trkpt lat="43.59711" lon="1.37701">
        <ele>148.6</ele>
        <time>2025-10-18T10:14:12Z</time>
      </trkpt>
      <trkpt lat="43.59713" lon="1.37699">
        <ele>148.4</ele>
        <time>2025-10-18T10:14:13Z</time>
      </trkpt>
      <trkpt lat="43.59714" lon="1.37694">
        <ele>148</ele>
        <time>2025-10-18T10:14:14Z</time>
      </trkpt>
      <trkpt lat="43.59715" lon="1.3769">
        <ele>147.8</ele>
        <time>2025-10-18T10:14:15Z</time>
      </trkpt>
      <trkpt lat="43.59717" lon="1.37687">
        <ele>147.6</ele>
        <time>2025-10-18T10:14:16Z</time>
      </trkpt>
      <trkpt lat="43.59719" lon="1.37684">
        <ele>147.4</ele>
        <time>2025-10-18T10:14:17Z</time>
      </trkpt>
      <trkpt lat="43.59719" lon="1.37682">
        <ele>147.4</ele>
        <time>2025-10-18T10:14:18Z</time>
      </trkpt>
      <trkpt lat="43.59718" lon="1.37681">
        <ele>147.4</ele>
        <time>2025-10-18T10:14:19Z</time>
      </trkpt>
      <trkpt lat="43.59718" lon="1.37681">
        <ele>147.4</ele>
        <time>2025-10-18T10:14:20Z</time>
      </trkpt>
      <trkpt lat="43.59708" lon="1.37673">
        <ele>144.4</ele>
        <time>2025-10-18T10:14:36Z</time>
      </trkpt>
      <trkpt lat="43.59706" lon="1.37674">
        <ele>144.2</ele>
        <time>2025-10-18T10:14:37Z</time>
      </trkpt>
      <trkpt lat="43.59705" lon="1.37675">
        <ele>144.2</ele>
        <time>2025-10-18T10:14:38Z</time>
      </trkpt>
      <trkpt lat="43.59702" lon="1.37675">
        <ele>144</ele>
        <time>2025-10-18T10:14:39Z</time>
      </trkpt>
      <trkpt lat="43.597" lon="1.37676">
        <ele>143.8</ele>
        <time>2025-10-18T10:14:40Z</time>
      </trkpt>
      <trkpt lat="43.59697" lon="1.37676">
        <ele>143.8</ele>
        <time>2025-10-18T10:14:41Z</time>
      </trkpt>
      <trkpt lat="43.59694" lon="1.37676">
        <ele>143.6</ele>
        <time>2025-10-18T10:14:42Z</time>
      </trkpt>
      <trkpt lat="43.59691" lon="1.37675">
        <ele>143.6</ele>
        <time>2025-10-18T10:14:43Z</time>
      </trkpt>
      <trkpt lat="43.59689" lon="1.37674">
        <ele>143.6</ele>
        <time>2025-10-18T10:14:44Z</time>
      </trkpt>
      <trkpt lat="43.59686" lon="1.37672">
        <ele>143.6</ele>
        <time>2025-10-18T10:14:45Z</time>
      </trkpt>
      <trkpt lat="43.59683" lon="1.37669">
        <ele>143.6</ele>
        <time>2025-10-18T10:14:46Z</time>
      </trkpt>
      <trkpt lat="43.5968" lon="1.37667">
        <ele>143.8</ele>
        <time>2025-10-18T10:14:47Z</time>
      </trkpt>
      <trkpt lat="43.59677" lon="1.37664">
        <ele>144</ele>
        <time>2025-10-18T10:14:48Z</time>
      </trkpt>
      <trkpt lat="43.59675" lon="1.37659">
        <ele>144</ele>
        <time>2025-10-18T10:14:49Z</time>
      </trkpt>
      <trkpt lat="43.59672" lon="1.37653">
        <ele>144</ele>
        <time>2025-10-18T10:14:50Z</time>
      </trkpt>
      <trkpt lat="43.59668" lon="1.37648">
        <ele>143.8</ele>
        <time>2025-10-18T10:14:51Z</time>
      </trkpt>
      <trkpt lat="43.59665" lon="1.37642">
        <ele>143.8</ele>
        <time>2025-10-18T10:14:52Z</time>
      </trkpt>
      <trkpt lat="43.59661" lon="1.37638">
        <ele>143.6</ele>
        <time>2025-10-18T10:14:53Z</time>
      </trkpt>
      <trkpt lat="43.59658" lon="1.37632">
        <ele>143.6</ele>
        <time>2025-10-18T10:14:54Z</time>
      </trkpt>
      <trkpt lat="43.59655" lon="1.37626">
        <ele>143.6</ele>
        <time>2025-10-18T10:14:55Z</time>
      </trkpt>
      <trkpt lat="43.59651" lon="1.37619">
        <ele>143.6</ele>
        <time>2025-10-18T10:14:56Z</time>
      </trkpt>
      <trkpt lat="43.59647" lon="1.37612">
        <ele>143.6</ele>
        <time>2025-10-18T10:14:57Z</time>
      </trkpt>
      <trkpt lat="43.59644" lon="1.37606">
        <ele>143.6</ele>
        <time>2025-10-18T10:14:58Z</time>
      </trkpt>
      <trkpt lat="43.59639" lon="1.376">
        <ele>143.8</ele>
        <time>2025-10-18T10:14:59Z</time>
      </trkpt>
      <trkpt lat="43.59635" lon="1.37595">
        <ele>143.8</ele>
        <time>2025-10-18T10:15:00Z</time>
      </trkpt>
      <trkpt lat="43.59631" lon="1.3759">
        <ele>144</ele>
        <time>2025-10-18T10:15:01Z</time>
      </trkpt>
      <trkpt lat="43.59627" lon="1.37585">
        <ele>144</ele>
        <time>2025-10-18T10:15:02Z</time>
      </trkpt>
      <trkpt lat="43.59623" lon="1.37581">
        <ele>144</ele>
        <time>2025-10-18T10:15:03Z</time>
      </trkpt>
      <trkpt lat="43.59619" lon="1.37578">
        <ele>144.2</ele>
        <time>2025-10-18T10:15:04Z</time>
      </trkpt>
      <trkpt lat="43.59616" lon="1.37575">
        <ele>144.4</ele>
        <time>2025-10-18T10:15:05Z</time>
      </trkpt>
      <trkpt lat="43.59613" lon="1.37571">
        <ele>144.6</ele>
        <time>2025-10-18T10:15:06Z</time>
      </trkpt>
      <trkpt lat="43.5961" lon="1.37567">
        <ele>145</ele>
        <time>2025-10-18T10:15:07Z</time>
      </trkpt>
      <trkpt lat="43.59609" lon="1.37562">
        <ele>145.2</ele>
        <time>2025-10-18T10:15:08Z</time>
      </trkpt>
      <trkpt lat="43.59608" lon="1.37557">
        <ele>145.4</ele>
        <time>2025-10-18T10:15:09Z</time>
      </trkpt>
      <trkpt lat="43.59606" lon="1.37552">
        <ele>145.4</ele>
        <time>2025-10-18T10:15:10Z</time>
      </trkpt>
      <trkpt lat="43.59604" lon="1.37545">
        <ele>145.4</ele>
        <time>2025-10-18T10:15:11Z</time>
      </trkpt>
      <trkpt lat="43.59604" lon="1.37539">
        <ele>145.2</ele>
        <time>2025-10-18T10:15:12Z</time>
      </trkpt>
      <trkpt lat="43.59603" lon="1.37532">
        <ele>145.2</ele>
        <time>2025-10-18T10:15:13Z</time>
      </trkpt>
      <trkpt lat="43.59601" lon="1.37525">
        <ele>145</ele>
        <time>2025-10-18T10:15:14Z</time>
      </trkpt>
      <trkpt lat="43.59601" lon="1.37518">
        <ele>145</ele>
        <time>2025-10-18T10:15:15Z</time>
      </trkpt>
      <trkpt lat="43.59602" lon="1.3751">
        <ele>144.8</ele>
        <time>2025-10-18T10:15:16Z</time>
      </trkpt>
      <trkpt lat="43.59603" lon="1.37502">
        <ele>144.6</ele>
        <time>2025-10-18T10:15:17Z</time>
      </trkpt>
      <trkpt lat="43.59606" lon="1.37495">
        <ele>144.4</ele>
        <time>2025-10-18T10:15:18Z</time>
      </trkpt>
      <trkpt lat="43.5961" lon="1.37488">
        <ele>144.2</ele>
        <time>2025-10-18T10:15:19Z</time>
      </trkpt>
      <trkpt lat="43.59614" lon="1.37481">
        <ele>144</ele>
        <time>2025-10-18T10:15:20Z</time>
      </trkpt>
      <trkpt lat="43.59618" lon="1.37474">
        <ele>143.6</ele>
        <time>2025-10-18T10:15:21Z</time>
      </trkpt>
      <trkpt lat="43.59621" lon="1.37468">
        <ele>143.6</ele>
        <time>2025-10-18T10:15:22Z</time>
      </trkpt>
      <trkpt lat="43.59624" lon="1.37461">
        <ele>143.4</ele>
        <time>2025-10-18T10:15:23Z</time>
      </trkpt>
      <trkpt lat="43.59626" lon="1.37453">
        <ele>143.4</ele>
        <time>2025-10-18T10:15:24Z</time>
      </trkpt>
      <trkpt lat="43.59628" lon="1.37445">
        <ele>143.2</ele>
        <time>2025-10-18T10:15:25Z</time>
      </trkpt>
      <trkpt lat="43.59631" lon="1.37437">
        <ele>143.4</ele>
        <time>2025-10-18T10:15:26Z</time>
      </trkpt>
      <trkpt lat="43.59634" lon="1.3743">
        <ele>143.4</ele>
        <time>2025-10-18T10:15:27Z</time>
      </trkpt>
      <trkpt lat="43.59636" lon="1.37421">
        <ele>143.4</ele>
        <time>2025-10-18T10:15:28Z</time>
      </trkpt>
      <trkpt lat="43.59638" lon="1.37413">
        <ele>143.4</ele>
        <time>2025-10-18T10:15:29Z</time>
      </trkpt>
      <trkpt lat="43.5964" lon="1.37405">
        <ele>143.4</ele>
        <time>2025-10-18T10:15:30Z</time>
      </trkpt>
      <trkpt lat="43.59641" lon="1.37396">
        <ele>143.4</ele>
        <time>2025-10-18T10:15:31Z</time>
      </trkpt>
      <trkpt lat="43.59643" lon="1.37388">
        <ele>143.4</ele>
        <time>2025-10-18T10:15:32Z</time>
      </trkpt>
      <trkpt lat="43.59643" lon="1.3738">
        <ele>143.6</ele>
        <time>2025-10-18T10:15:33Z</time>
      </trkpt>
      <trkpt lat="43.59642" lon="1.37373">
        <ele>143.6</ele>
        <time>2025-10-18T10:15:34Z</time>
      </trkpt>
      <trkpt lat="43.5964" lon="1.37365">
        <ele>143.6</ele>
        <time>2025-10-18T10:15:35Z</time>
      </trkpt>
      <trkpt lat="43.59638" lon="1.37358">
        <ele>143.6</ele>
        <time>2025-10-18T10:15:36Z</time>
      </trkpt>
      <trkpt lat="43.59636" lon="1.37351">
        <ele>143.8</ele>
        <time>2025-10-18T10:15:37Z</time>
      </trkpt>
      <trkpt lat="43.59633" lon="1.37344">
        <ele>143.8</ele>
        <time>2025-10-18T10:15:38Z</time>
      </trkpt>
      <trkpt lat="43.59629" lon="1.37338">
        <ele>143.8</ele>
        <time>2025-10-18T10:15:39Z</time>
      </trkpt>
      <trkpt lat="43.59626" lon="1.37332">
        <ele>144</ele>
        <time>2025-10-18T10:15:40Z</time>
      </trkpt>
      <trkpt lat="43.59623" lon="1.37327">
        <ele>144.2</ele>
        <time>2025-10-18T10:15:41Z</time>
      </trkpt>
      <trkpt lat="43.59619" lon="1.37322">
        <ele>144.4</ele>
        <time>2025-10-18T10:15:42Z</time>
      </trkpt>
      <trkpt lat="43.59616" lon="1.37316">
        <ele>144.6</ele>
        <time>2025-10-18T10:15:43Z</time>
      </trkpt>
      <trkpt lat="43.59613" lon="1.37309">
        <ele>144.8</ele>
        <time>2025-10-18T10:15:44Z</time>
      </trkpt>
      <trkpt lat="43.59611" lon="1.37301">
        <ele>144.8</ele>
        <time>2025-10-18T10:15:45Z</time>
      </trkpt>
      <trkpt lat="43.59609" lon="1.37294">
        <ele>144.8</ele>
        <time>2025-10-18T10:15:46Z</time>
      </trkpt>
      <trkpt lat="43.59605" lon="1.37286">
        <ele>144.6</ele>
        <time>2025-10-18T10:15:47Z</time>
      </trkpt>
      <trkpt lat="43.59601" lon="1.3728">
        <ele>144.6</ele>
        <time>2025-10-18T10:15:48Z</time>
      </trkpt>
      <trkpt lat="43.59597" lon="1.37273">
        <ele>144.6</ele>
        <time>2025-10-18T10:15:49Z</time>
      </trkpt>
      <trkpt lat="43.59593" lon="1.37268">
        <ele>144.6</ele>
        <time>2025-10-18T10:15:50Z</time>
      </trkpt>
      <trkpt lat="43.59591" lon="1.37264">
        <ele>144.6</ele>
        <time>2025-10-18T10:15:51Z</time>
      </trkpt>
      <trkpt lat="43.59589" lon="1.37261">
        <ele>144.8</ele>
        <time>2025-10-18T10:15:52Z</time>
      </trkpt>
      <trkpt lat="43.59587" lon="1.37258">
        <ele>145</ele>
        <time>2025-10-18T10:15:53Z</time>
      </trkpt>
      <trkpt lat="43.59585" lon="1.37254">
        <ele>145.2</ele>
        <time>2025-10-18T10:15:54Z</time>
      </trkpt>
      <trkpt lat="43.59583" lon="1.3725">
        <ele>145.2</ele>
        <time>2025-10-18T10:15:55Z</time>
      </trkpt>
      <trkpt lat="43.59581" lon="1.37247">
        <ele>145.4</ele>
        <time>2025-10-18T10:15:56Z</time>
      </trkpt>
      <trkpt lat="43.59579" lon="1.37242">
        <ele>145.4</ele>
        <time>2025-10-18T10:15:57Z</time>
      </trkpt>
      <trkpt lat="43.59578" lon="1.37236">
        <ele>145.2</ele>
        <time>2025-10-18T10:15:58Z</time>
      </trkpt>
      <trkpt lat="43.59576" lon="1.3723">
        <ele>145</ele>
        <time>2025-10-18T10:15:59Z</time>
      </trkpt>
      <trkpt lat="43.59575" lon="1.37223">
        <ele>145</ele>
        <time>2025-10-18T10:16:00Z</time>
      </trkpt>
      <trkpt lat="43.59574" lon="1.37216">
        <ele>144.8</ele>
        <time>2025-10-18T10:16:01Z</time>
      </trkpt>
      <trkpt lat="43.59572" lon="1.3721">
        <ele>144.8</ele>
        <time>2025-10-18T10:16:02Z</time>
      </trkpt>
      <trkpt lat="43.5957" lon="1.37202">
        <ele>144.8</ele>
        <time>2025-10-18T10:16:03Z</time>
      </trkpt>
      <trkpt lat="43.59569" lon="1.37195">
        <ele>144.8</ele>
        <time>2025-10-18T10:16:04Z</time>
      </trkpt>
      <trkpt lat="43.59567" lon="1.37189">
        <ele>144.8</ele>
        <time>2025-10-18T10:16:05Z</time>
      </trkpt>
      <trkpt lat="43.59565" lon="1.37181">
        <ele>144.8</ele>
        <time>2025-10-18T10:16:06Z</time>
      </trkpt>
      <trkpt lat="43.59564" lon="1.37174">
        <ele>145</ele>
        <time>2025-10-18T10:16:07Z</time>
      </trkpt>
      <trkpt lat="43.59563" lon="1.37166">
        <ele>145</ele>
        <time>2025-10-18T10:16:08Z</time>
      </trkpt>
      <trkpt lat="43.59561" lon="1.37159">
        <ele>145</ele>
        <time>2025-10-18T10:16:09Z</time>
      </trkpt>
      <trkpt lat="43.5956" lon="1.37151">
        <ele>145</ele>
        <time>2025-10-18T10:16:10Z</time>
      </trkpt>
      <trkpt lat="43.59559" lon="1.37143">
        <ele>145</ele>
        <time>2025-10-18T10:16:11Z</time>
      </trkpt>
      <trkpt lat="43.59559" lon="1.37135">
        <ele>144.8</ele>
        <time>2025-10-18T10:16:12Z</time>
      </trkpt>
      <trkpt lat="43.59559" lon="1.37127">
        <ele>144.8</ele>
        <time>2025-10-18T10:16:13Z</time>
      </trkpt>
      <trkpt lat="43.59559" lon="1.37118">
        <ele>144.6</ele>
        <time>2025-10-18T10:16:14Z</time>
      </trkpt>
      <trkpt lat="43.5956" lon="1.37109">
        <ele>144.6</ele>
        <time>2025-10-18T10:16:15Z</time>
      </trkpt>
      <trkpt lat="43.59562" lon="1.37101">
        <ele>144.4</ele>
        <time>2025-10-18T10:16:16Z</time>
      </trkpt>
      <trkpt lat="43.59565" lon="1.37093">
        <ele>144.2</ele>
        <time>2025-10-18T10:16:17Z</time>
      </trkpt>
      <trkpt lat="43.59568" lon="1.37085">
        <ele>144</ele>
        <time>2025-10-18T10:16:18Z</time>
      </trkpt>
      <trkpt lat="43.59571" lon="1.37077">
        <ele>144</ele>
        <time>2025-10-18T10:16:19Z</time>
      </trkpt>
      <trkpt lat="43.59574" lon="1.3707">
        <ele>144</ele>
        <time>2025-10-18T10:16:20Z</time>
      </trkpt>
      <trkpt lat="43.59578" lon="1.37063">
        <ele>144</ele>
        <time>2025-10-18T10:16:21Z</time>
      </trkpt>
      <trkpt lat="43.59583" lon="1.37056">
        <ele>144</ele>
        <time>2025-10-18T10:16:22Z</time>
      </trkpt>
      <trkpt lat="43.59587" lon="1.37048">
        <ele>144</ele>
        <time>2025-10-18T10:16:23Z</time>
      </trkpt>
      <trkpt lat="43.59591" lon="1.37041">
        <ele>143.8</ele>
        <time>2025-10-18T10:16:24Z</time>
      </trkpt>
      <trkpt lat="43.59593" lon="1.37032">
        <ele>143.8</ele>
        <time>2025-10-18T10:16:25Z</time>
      </trkpt>
      <trkpt lat="43.59595" lon="1.37023">
        <ele>143.8</ele>
        <time>2025-10-18T10:16:26Z</time>
      </trkpt>
      <trkpt lat="43.59594" lon="1.37014">
        <ele>143.6</ele>
        <time>2025-10-18T10:16:27Z</time>
      </trkpt>
      <trkpt lat="43.59593" lon="1.37007">
        <ele>143.6</ele>
        <time>2025-10-18T10:16:28Z</time>
      </trkpt>
      <trkpt lat="43.59589" lon="1.36999">
        <ele>143.6</ele>
        <time>2025-10-18T10:16:29Z</time>
      </trkpt>
      <trkpt lat="43.59585" lon="1.36993">
        <ele>143.6</ele>
        <time>2025-10-18T10:16:30Z</time>
      </trkpt>
      <trkpt lat="43.59581" lon="1.36986">
        <ele>143.6</ele>
        <time>2025-10-18T10:16:31Z</time>
      </trkpt>
      <trkpt lat="43.59576" lon="1.3698">
        <ele>143.6</ele>
        <time>2025-10-18T10:16:32Z</time>
      </trkpt>
      <trkpt lat="43.59571" lon="1.36975">
        <ele>143.6</ele>
        <time>2025-10-18T10:16:33Z</time>
      </trkpt>
      <trkpt lat="43.59567" lon="1.36969">
        <ele>143.6</ele>
        <time>2025-10-18T10:16:34Z</time>
      </trkpt>
      <trkpt lat="43.59561" lon="1.36963">
        <ele>143.8</ele>
        <time>2025-10-18T10:16:35Z</time>
      </trkpt>
      <trkpt lat="43.59555" lon="1.36958">
        <ele>143.8</ele>
        <time>2025-10-18T10:16:36Z</time>
      </trkpt>
      <trkpt lat="43.5955" lon="1.36953">
        <ele>143.8</ele>
        <time>2025-10-18T10:16:37Z</time>
      </trkpt>
      <trkpt lat="43.59544" lon="1.36947">
        <ele>143.8</ele>
        <time>2025-10-18T10:16:38Z</time>
      </trkpt>
      <trkpt lat="43.59539" lon="1.36942">
        <ele>144</ele>
        <time>2025-10-18T10:16:39Z</time>
      </trkpt>
      <trkpt lat="43.59534" lon="1.36936">
        <ele>143.8</ele>
        <time>2025-10-18T10:16:40Z</time>
      </trkpt>
      <trkpt lat="43.59529" lon="1.3693">
        <ele>143.8</ele>
        <time>2025-10-18T10:16:41Z</time>
      </trkpt>
      <trkpt lat="43.59524" lon="1.36925">
        <ele>143.8</ele>
        <time>2025-10-18T10:16:42Z</time>
      </trkpt>
      <trkpt lat="43.59519" lon="1.3692">
        <ele>143.8</ele>
        <time>2025-10-18T10:16:43Z</time>
      </trkpt>
      <trkpt lat="43.59513" lon="1.36916">
        <ele>143.8</ele>
        <time>2025-10-18T10:16:44Z</time>
      </trkpt>
      <trkpt lat="43.59507" lon="1.36913">
        <ele>143.8</ele>
        <time>2025-10-18T10:16:45Z</time>
      </trkpt>
      <trkpt lat="43.59501" lon="1.36911">
        <ele>144</ele>
        <time>2025-10-18T10:16:46Z</time>
      </trkpt>
      <trkpt lat="43.59495" lon="1.36908">
        <ele>144.2</ele>
        <time>2025-10-18T10:16:47Z</time>
      </trkpt>
      <trkpt lat="43.59489" lon="1.36906">
        <ele>144.2</ele>
        <time>2025-10-18T10:16:48Z</time>
      </trkpt>
      <trkpt lat="43.59482" lon="1.36904">
        <ele>144.2</ele>
        <time>2025-10-18T10:16:49Z</time>
      </trkpt>
      <trkpt lat="43.59477" lon="1.369">
        <ele>144</ele>
        <time>2025-10-18T10:16:50Z</time>
      </trkpt>
      <trkpt lat="43.59471" lon="1.36895">
        <ele>144</ele>
        <time>2025-10-18T10:16:51Z</time>
      </trkpt>
      <trkpt lat="43.59467" lon="1.36888">
        <ele>144</ele>
        <time>2025-10-18T10:16:52Z</time>
      </trkpt>
      <trkpt lat="43.59463" lon="1.36881">
        <ele>144</ele>
        <time>2025-10-18T10:16:53Z</time>
      </trkpt>
      <trkpt lat="43.5946" lon="1.36873">
        <ele>144.2</ele>
        <time>2025-10-18T10:16:54Z</time>
      </trkpt>
      <trkpt lat="43.59457" lon="1.36866">
        <ele>144.4</ele>
        <time>2025-10-18T10:16:55Z</time>
      </trkpt>
      <trkpt lat="43.59453" lon="1.36859">
        <ele>144.4</ele>
        <time>2025-10-18T10:16:56Z</time>
      </trkpt>
      <trkpt lat="43.59449" lon="1.36852">
        <ele>144.4</ele>
        <time>2025-10-18T10:16:57Z</time>
      </trkpt>
      <trkpt lat="43.59444" lon="1.36847">
        <ele>144.4</ele>
        <time>2025-10-18T10:16:58Z</time>
      </trkpt>
      <trkpt lat="43.5944" lon="1.3684">
        <ele>144.4</ele>
        <time>2025-10-18T10:16:59Z</time>
      </trkpt>
      <trkpt lat="43.59436" lon="1.36834">
        <ele>144.4</ele>
        <time>2025-10-18T10:17:00Z</time>
      </trkpt>
      <trkpt lat="43.59433" lon="1.36826">
        <ele>144.4</ele>
        <time>2025-10-18T10:17:01Z</time>
      </trkpt>
      <trkpt lat="43.5943" lon="1.36819">
        <ele>144.4</ele>
        <time>2025-10-18T10:17:02Z</time>
      </trkpt>
      <trkpt lat="43.59428" lon="1.3681">
        <ele>144.4</ele>
        <time>2025-10-18T10:17:03Z</time>
      </trkpt>
      <trkpt lat="43.59425" lon="1.36802">
        <ele>144.2</ele>
        <time>2025-10-18T10:17:04Z</time>
      </trkpt>
      <trkpt lat="43.59423" lon="1.36793">
        <ele>144</ele>
        <time>2025-10-18T10:17:05Z</time>
      </trkpt>
      <trkpt lat="43.5942" lon="1.36784">
        <ele>143.8</ele>
        <time>2025-10-18T10:17:06Z</time>
      </trkpt>
      <trkpt lat="43.59417" lon="1.36775">
        <ele>143.6</ele>
        <time>2025-10-18T10:17:07Z</time>
      </trkpt>
      <trkpt lat="43.59414" lon="1.36766">
        <ele>143.4</ele>
        <time>2025-10-18T10:17:08Z</time>
      </trkpt>
      <trkpt lat="43.59411" lon="1.36757">
        <ele>143.4</ele>
        <time>2025-10-18T10:17:09Z</time>
      </trkpt>
      <trkpt lat="43.59409" lon="1.36748">
        <ele>143.4</ele>
        <time>2025-10-18T10:17:10Z</time>
      </trkpt>
      <trkpt lat="43.59407" lon="1.36739">
        <ele>143.6</ele>
        <time>2025-10-18T10:17:11Z</time>
      </trkpt>
      <trkpt lat="43.59404" lon="1.36731">
        <ele>143.6</ele>
        <time>2025-10-18T10:17:12Z</time>
      </trkpt>
      <trkpt lat="43.59401" lon="1.36723">
        <ele>143.8</ele>
        <time>2025-10-18T10:17:13Z</time>
      </trkpt>
      <trkpt lat="43.59397" lon="1.36716">
        <ele>144</ele>
        <time>2025-10-18T10:17:14Z</time>
      </trkpt>
      <trkpt lat="43.59394" lon="1.36709">
        <ele>144</ele>
        <time>2025-10-18T10:17:15Z</time>
      </trkpt>
      <trkpt lat="43.5939" lon="1.36703">
        <ele>144.2</ele>
        <time>2025-10-18T10:17:16Z</time>
      </trkpt>
      <trkpt lat="43.59385" lon="1.36698">
        <ele>144.2</ele>
        <time>2025-10-18T10:17:17Z</time>
      </trkpt>
      <trkpt lat="43.5938" lon="1.36693">
        <ele>144.2</ele>
        <time>2025-10-18T10:17:18Z</time>
      </trkpt>
      <trkpt lat="43.59375" lon="1.36688">
        <ele>144.2</ele>
        <time>2025-10-18T10:17:19Z</time>
      </trkpt>
      <trkpt lat="43.59369" lon="1.36685">
        <ele>144.2</ele>
        <time>2025-10-18T10:17:20Z</time>
      </trkpt>
      <trkpt lat="43.59364" lon="1.36682">
        <ele>144.2</ele>
        <time>2025-10-18T10:17:21Z</time>
      </trkpt>
      <trkpt lat="43.59358" lon="1.3668">
        <ele>144</ele>
        <time>2025-10-18T10:17:22Z</time>
      </trkpt>
      <trkpt lat="43.59352" lon="1.36678">
        <ele>144</ele>
        <time>2025-10-18T10:17:23Z</time>
      </trkpt>
      <trkpt lat="43.59346" lon="1.36676">
        <ele>144</ele>
        <time>2025-10-18T10:17:24Z</time>
      </trkpt>
      <trkpt lat="43.59339" lon="1.36675">
        <ele>144</ele>
        <time>2025-10-18T10:17:25Z</time>
      </trkpt>
      <trkpt lat="43.59333" lon="1.36675">
        <ele>144</ele>
        <time>2025-10-18T10:17:26Z</time>
      </trkpt>
      <trkpt lat="43.59327" lon="1.36675">
        <ele>144</ele>
        <time>2025-10-18T10:17:27Z</time>
      </trkpt>
      <trkpt lat="43.59321" lon="1.36674">
        <ele>144</ele>
        <time>2025-10-18T10:17:28Z</time>
      </trkpt>
      <trkpt lat="43.59315" lon="1.36673">
        <ele>144.2</ele>
        <time>2025-10-18T10:17:29Z</time>
      </trkpt>
      <trkpt lat="43.59309" lon="1.36672">
        <ele>144.2</ele>
        <time>2025-10-18T10:17:30Z</time>
      </trkpt>
      <trkpt lat="43.59303" lon="1.36671">
        <ele>144.2</ele>
        <time>2025-10-18T10:17:31Z</time>
      </trkpt>
      <trkpt lat="43.59298" lon="1.36671">
        <ele>144.2</ele>
        <time>2025-10-18T10:17:32Z</time>
      </trkpt>
      <trkpt lat="43.59291" lon="1.36669">
        <ele>144.2</ele>
        <time>2025-10-18T10:17:33Z</time>
      </trkpt>
      <trkpt lat="43.59285" lon="1.36668">
        <ele>144.2</ele>
        <time>2025-10-18T10:17:34Z</time>
      </trkpt>
      <trkpt lat="43.59279" lon="1.36667">
        <ele>144.2</ele>
        <time>2025-10-18T10:17:35Z</time>
      </trkpt>
      <trkpt lat="43.59273" lon="1.36666">
        <ele>144</ele>
        <time>2025-10-18T10:17:36Z</time>
      </trkpt>
      <trkpt lat="43.59266" lon="1.36665">
        <ele>144</ele>
        <time>2025-10-18T10:17:37Z</time>
      </trkpt>
      <trkpt lat="43.5926" lon="1.36664">
        <ele>144.2</ele>
        <time>2025-10-18T10:17:38Z</time>
      </trkpt>
      <trkpt lat="43.59254" lon="1.36664">
        <ele>144.2</ele>
        <time>2025-10-18T10:17:39Z</time>
      </trkpt>
      <trkpt lat="43.59247" lon="1.36662">
        <ele>144.2</ele>
        <time>2025-10-18T10:17:40Z</time>
      </trkpt>
      <trkpt lat="43.59241" lon="1.3666">
        <ele>144.2</ele>
        <time>2025-10-18T10:17:41Z</time>
      </trkpt>
      <trkpt lat="43.59234" lon="1.36657">
        <ele>144.4</ele>
        <time>2025-10-18T10:17:42Z</time>
      </trkpt>
      <trkpt lat="43.59229" lon="1.36653">
        <ele>144.4</ele>
        <time>2025-10-18T10:17:43Z</time>
      </trkpt>
      <trkpt lat="43.59223" lon="1.36648">
        <ele>144.2</ele>
        <time>2025-10-18T10:17:44Z</time>
      </trkpt>
      <trkpt lat="43.59218" lon="1.36644">
        <ele>144.4</ele>
        <time>2025-10-18T10:17:45Z</time>
      </trkpt>
      <trkpt lat="43.59212" lon="1.3664">
        <ele>144.4</ele>
        <time>2025-10-18T10:17:46Z</time>
      </trkpt>
      <trkpt lat="43.59207" lon="1.36638">
        <ele>144.6</ele>
        <time>2025-10-18T10:17:47Z</time>
      </trkpt>
      <trkpt lat="43.59201" lon="1.36636">
        <ele>144.6</ele>
        <time>2025-10-18T10:17:48Z</time>
      </trkpt>
      <trkpt lat="43.59195" lon="1.36635">
        <ele>144.6</ele>
        <time>2025-10-18T10:17:49Z</time>
      </trkpt>
      <trkpt lat="43.59188" lon="1.36635">
        <ele>144.6</ele>
        <time>2025-10-18T10:17:50Z</time>
      </trkpt>
      <trkpt lat="43.59182" lon="1.36636">
        <ele>144.6</ele>
        <time>2025-10-18T10:17:51Z</time>
      </trkpt>
      <trkpt lat="43.59176" lon="1.36637">
        <ele>144.6</ele>
        <time>2025-10-18T10:17:52Z</time>
      </trkpt>
      <trkpt lat="43.59169" lon="1.36637">
        <ele>144.6</ele>
        <time>2025-10-18T10:17:53Z</time>
      </trkpt>
      <trkpt lat="43.59163" lon="1.36638">
        <ele>144.4</ele>
        <time>2025-10-18T10:17:54Z</time>
      </trkpt>
      <trkpt lat="43.59157" lon="1.3664">
        <ele>144.6</ele>
        <time>2025-10-18T10:17:55Z</time>
      </trkpt>
      <trkpt lat="43.59152" lon="1.36642">
        <ele>144.4</ele>
        <time>2025-10-18T10:17:56Z</time>
      </trkpt>
      <trkpt lat="43.59146" lon="1.36645">
        <ele>144.4</ele>
        <time>2025-10-18T10:17:57Z</time>
      </trkpt>
      <trkpt lat="43.59141" lon="1.36649">
        <ele>144.6</ele>
        <time>2025-10-18T10:17:58Z</time>
      </trkpt>
      <trkpt lat="43.59136" lon="1.36653">
        <ele>144.6</ele>
        <time>2025-10-18T10:17:59Z</time>
      </trkpt>
      <trkpt lat="43.59131" lon="1.36658">
        <ele>144.6</ele>
        <time>2025-10-18T10:18:00Z</time>
      </trkpt>
      <trkpt lat="43.59126" lon="1.36663">
        <ele>144.6</ele>
        <time>2025-10-18T10:18:01Z</time>
      </trkpt>
      <trkpt lat="43.5912" lon="1.36667">
        <ele>144.8</ele>
        <time>2025-10-18T10:18:02Z</time>
      </trkpt>
      <trkpt lat="43.59115" lon="1.3667">
        <ele>144.8</ele>
        <time>2025-10-18T10:18:03Z</time>
      </trkpt>
      <trkpt lat="43.59108" lon="1.36674">
        <ele>144.8</ele>
        <time>2025-10-18T10:18:04Z</time>
      </trkpt>
      <trkpt lat="43.59102" lon="1.36676">
        <ele>145</ele>
        <time>2025-10-18T10:18:05Z</time>
      </trkpt>
      <trkpt lat="43.59096" lon="1.36677">
        <ele>144.8</ele>
        <time>2025-10-18T10:18:06Z</time>
      </trkpt>
      <trkpt lat="43.5909" lon="1.36679">
        <ele>144.8</ele>
        <time>2025-10-18T10:18:07Z</time>
      </trkpt>
      <trkpt lat="43.59084" lon="1.36681">
        <ele>144.8</ele>
        <time>2025-10-18T10:18:08Z</time>
      </trkpt>
      <trkpt lat="43.59078" lon="1.36684">
        <ele>145</ele>
        <time>2025-10-18T10:18:09Z</time>
      </trkpt>
      <trkpt lat="43.59072" lon="1.36686">
        <ele>145</ele>
        <time>2025-10-18T10:18:10Z</time>
      </trkpt>
      <trkpt lat="43.59066" lon="1.36688">
        <ele>145</ele>
        <time>2025-10-18T10:18:11Z</time>
      </trkpt>
      <trkpt lat="43.59059" lon="1.3669">
        <ele>145</ele>
        <time>2025-10-18T10:18:12Z</time>
      </trkpt>
      <trkpt lat="43.59054" lon="1.36692">
        <ele>145.2</ele>
        <time>2025-10-18T10:18:13Z</time>
      </trkpt>
      <trkpt lat="43.59048" lon="1.36695">
        <ele>145.2</ele>
        <time>2025-10-18T10:18:14Z</time>
      </trkpt>
      <trkpt lat="43.59043" lon="1.36698">
        <ele>145.2</ele>
        <time>2025-10-18T10:18:15Z</time>
      </trkpt>
      <trkpt lat="43.59039" lon="1.36702">
        <ele>145.4</ele>
        <time>2025-10-18T10:18:16Z</time>
      </trkpt>
      <trkpt lat="43.59036" lon="1.36705">
        <ele>145.8</ele>
        <time>2025-10-18T10:18:17Z</time>
      </trkpt>
      <trkpt lat="43.59033" lon="1.36708">
        <ele>146.2</ele>
        <time>2025-10-18T10:18:18Z</time>
      </trkpt>
      <trkpt lat="43.59031" lon="1.36711">
        <ele>146.8</ele>
        <time>2025-10-18T10:18:19Z</time>
      </trkpt>
      <trkpt lat="43.59029" lon="1.36714">
        <ele>147.4</ele>
        <time>2025-10-18T10:18:20Z</time>
      </trkpt>
      <trkpt lat="43.59028" lon="1.36717">
        <ele>147.8</ele>
        <time>2025-10-18T10:18:21Z</time>
      </trkpt>
      <trkpt lat="43.59027" lon="1.36719">
        <ele>148.4</ele>
        <time>2025-10-18T10:18:22Z</time>
      </trkpt>
      <trkpt lat="43.59025" lon="1.36722">
        <ele>148.6</ele>
        <time>2025-10-18T10:18:23Z</time>
      </trkpt>
      <trkpt lat="43.59022" lon="1.36725">
        <ele>149</ele>
        <time>2025-10-18T10:18:24Z</time>
      </trkpt>
      <trkpt lat="43.5902" lon="1.36726">
        <ele>149.4</ele>
        <time>2025-10-18T10:18:25Z</time>
      </trkpt>
      <trkpt lat="43.59018" lon="1.36728">
        <ele>149.4</ele>
        <time>2025-10-18T10:18:26Z</time>
      </trkpt>
      <trkpt lat="43.59015" lon="1.36728">
        <ele>149.6</ele>
        <time>2025-10-18T10:18:27Z</time>
      </trkpt>
      <trkpt lat="43.59011" lon="1.36728">
        <ele>149.8</ele>
        <time>2025-10-18T10:18:28Z</time>
      </trkpt>
      <trkpt lat="43.59008" lon="1.36726">
        <ele>149.8</ele>
        <time>2025-10-18T10:18:29Z</time>
      </trkpt>
      <trkpt lat="43.59005" lon="1.36722">
        <ele>149.8</ele>
        <time>2025-10-18T10:18:30Z</time>
      </trkpt>
      <trkpt lat="43.59003" lon="1.36718">
        <ele>149.8</ele>
        <time>2025-10-18T10:18:31Z</time>
      </trkpt>
      <trkpt lat="43.59001" lon="1.36714">
        <ele>149.8</ele>
        <time>2025-10-18T10:18:32Z</time>
      </trkpt>
      <trkpt lat="43.58997" lon="1.36712">
        <ele>149.6</ele>
        <time>2025-10-18T10:18:33Z</time>
      </trkpt>
      <trkpt lat="43.58993" lon="1.36711">
        <ele>149.4</ele>
        <time>2025-10-18T10:18:34Z</time>
      </trkpt>
      <trkpt lat="43.58989" lon="1.36711">
        <ele>149.2</ele>
        <time>2025-10-18T10:18:35Z</time>
      </trkpt>
      <trkpt lat="43.58983" lon="1.3671">
        <ele>148.8</ele>
        <time>2025-10-18T10:18:36Z</time>
      </trkpt>
      <trkpt lat="43.58978" lon="1.3671">
        <ele>148.2</ele>
        <time>2025-10-18T10:18:37Z</time>
      </trkpt>
      <trkpt lat="43.58971" lon="1.36707">
        <ele>147.6</ele>
        <time>2025-10-18T10:18:38Z</time>
      </trkpt>
      <trkpt lat="43.58965" lon="1.36704">
        <ele>147</ele>
        <time>2025-10-18T10:18:39Z</time>
      </trkpt>
      <trkpt lat="43.58958" lon="1.367">
        <ele>146.2</ele>
        <time>2025-10-18T10:18:40Z</time>
      </trkpt>
      <trkpt lat="43.58952" lon="1.36696">
        <ele>145.6</ele>
        <time>2025-10-18T10:18:41Z</time>
      </trkpt>
      <trkpt lat="43.58946" lon="1.36693">
        <ele>145</ele>
        <time>2025-10-18T10:18:42Z</time>
      </trkpt>
      <trkpt lat="43.5894" lon="1.3669">
        <ele>144.6</ele>
        <time>2025-10-18T10:18:43Z</time>
      </trkpt>
      <trkpt lat="43.58935" lon="1.36686">
        <ele>144.4</ele>
        <time>2025-10-18T10:18:44Z</time>
      </trkpt>
      <trkpt lat="43.5893" lon="1.36682">
        <ele>144.4</ele>
        <time>2025-10-18T10:18:45Z</time>
      </trkpt>
      <trkpt lat="43.58924" lon="1.36677">
        <ele>144.4</ele>
        <time>2025-10-18T10:18:46Z</time>
      </trkpt>
      <trkpt lat="43.5892" lon="1.36672">
        <ele>144.4</ele>
        <time>2025-10-18T10:18:47Z</time>
      </trkpt>
      <trkpt lat="43.58915" lon="1.36666">
        <ele>144.4</ele>
        <time>2025-10-18T10:18:48Z</time>
      </trkpt>
      <trkpt lat="43.58911" lon="1.36661">
        <ele>144.4</ele>
        <time>2025-10-18T10:18:49Z</time>
      </trkpt>
      <trkpt lat="43.58906" lon="1.36656">
        <ele>144.4</ele>
        <time>2025-10-18T10:18:50Z</time>
      </trkpt>
      <trkpt lat="43.58901" lon="1.3665">
        <ele>144.4</ele>
        <time>2025-10-18T10:18:51Z</time>
      </trkpt>
      <trkpt lat="43.58897" lon="1.36645">
        <ele>144.4</ele>
        <time>2025-10-18T10:18:52Z</time>
      </trkpt>
      <trkpt lat="43.58893" lon="1.36638">
        <ele>144.4</ele>
        <time>2025-10-18T10:18:53Z</time>
      </trkpt>
      <trkpt lat="43.5889" lon="1.36631">
        <ele>144.6</ele>
        <time>2025-10-18T10:18:54Z</time>
      </trkpt>
      <trkpt lat="43.58885" lon="1.36625">
        <ele>144.6</ele>
        <time>2025-10-18T10:18:55Z</time>
      </trkpt>
      <trkpt lat="43.58881" lon="1.36618">
        <ele>144.8</ele>
        <time>2025-10-18T10:18:56Z</time>
      </trkpt>
      <trkpt lat="43.58878" lon="1.36611">
        <ele>144.8</ele>
        <time>2025-10-18T10:18:57Z</time>
      </trkpt>
      <trkpt lat="43.58874" lon="1.36604">
        <ele>145</ele>
        <time>2025-10-18T10:18:58Z</time>
      </trkpt>
      <trkpt lat="43.5887" lon="1.36597">
        <ele>145</ele>
        <time>2025-10-18T10:18:59Z</time>
      </trkpt>
      <trkpt lat="43.58866" lon="1.36589">
        <ele>145</ele>
        <time>2025-10-18T10:19:00Z</time>
      </trkpt>
      <trkpt lat="43.58863" lon="1.36581">
        <ele>145</ele>
        <time>2025-10-18T10:19:01Z</time>
      </trkpt>
      <trkpt lat="43.58859" lon="1.36573">
        <ele>145</ele>
        <time>2025-10-18T10:19:02Z</time>
      </trkpt>
      <trkpt lat="43.58856" lon="1.36565">
        <ele>145</ele>
        <time>2025-10-18T10:19:03Z</time>
      </trkpt>
      <trkpt lat="43.58854" lon="1.36557">
        <ele>145.2</ele>
        <time>2025-10-18T10:19:04Z</time>
      </trkpt>
      <trkpt lat="43.58852" lon="1.36549">
        <ele>145.2</ele>
        <time>2025-10-18T10:19:05Z</time>
      </trkpt>
      <trkpt lat="43.5885" lon="1.3654">
        <ele>145.2</ele>
        <time>2025-10-18T10:19:06Z</time>
      </trkpt>
      <trkpt lat="43.58849" lon="1.36532">
        <ele>145.2</ele>
        <time>2025-10-18T10:19:07Z</time>
      </trkpt>
      <trkpt lat="43.58847" lon="1.36523">
        <ele>145.4</ele>
        <time>2025-10-18T10:19:08Z</time>
      </trkpt>
      <trkpt lat="43.58845" lon="1.36514">
        <ele>145.4</ele>
        <time>2025-10-18T10:19:09Z</time>
      </trkpt>
      <trkpt lat="43.58842" lon="1.36506">
        <ele>145.6</ele>
        <time>2025-10-18T10:19:10Z</time>
      </trkpt>
      <trkpt lat="43.58839" lon="1.36499">
        <ele>145.8</ele>
        <time>2025-10-18T10:19:11Z</time>
      </trkpt>
      <trkpt lat="43.58835" lon="1.36493">
        <ele>146</ele>
        <time>2025-10-18T10:19:12Z</time>
      </trkpt>
      <trkpt lat="43.58831" lon="1.36486">
        <ele>146.2</ele>
        <time>2025-10-18T10:19:13Z</time>
      </trkpt>
      <trkpt lat="43.58828" lon="1.3648">
        <ele>146.4</ele>
        <time>2025-10-18T10:19:14Z</time>
      </trkpt>
      <trkpt lat="43.58824" lon="1.36475">
        <ele>146.6</ele>
        <time>2025-10-18T10:19:15Z</time>
      </trkpt>
      <trkpt lat="43.58821" lon="1.36469">
        <ele>146.8</ele>
        <time>2025-10-18T10:19:16Z</time>
      </trkpt>
      <trkpt lat="43.58817" lon="1.36463">
        <ele>146.8</ele>
        <time>2025-10-18T10:19:17Z</time>
      </trkpt>
      <trkpt lat="43.58813" lon="1.36456">
        <ele>146.8</ele>
        <time>2025-10-18T10:19:18Z</time>
      </trkpt>
      <trkpt lat="43.58809" lon="1.3645">
        <ele>146.8</ele>
        <time>2025-10-18T10:19:19Z</time>
      </trkpt>
      <trkpt lat="43.58806" lon="1.36444">
        <ele>146.8</ele>
        <time>2025-10-18T10:19:20Z</time>
      </trkpt>
      <trkpt lat="43.58803" lon="1.36437">
        <ele>147</ele>
        <time>2025-10-18T10:19:21Z</time>
      </trkpt>
      <trkpt lat="43.588" lon="1.36431">
        <ele>147</ele>
        <time>2025-10-18T10:19:22Z</time>
      </trkpt>
      <trkpt lat="43.58797" lon="1.36425">
        <ele>147.2</ele>
        <time>2025-10-18T10:19:23Z</time>
      </trkpt>
      <trkpt lat="43.58792" lon="1.36419">
        <ele>147.2</ele>
        <time>2025-10-18T10:19:24Z</time>
      </trkpt>
      <trkpt lat="43.58788" lon="1.36414">
        <ele>147.4</ele>
        <time>2025-10-18T10:19:25Z</time>
      </trkpt>
      <trkpt lat="43.58784" lon="1.3641">
        <ele>147.4</ele>
        <time>2025-10-18T10:19:26Z</time>
      </trkpt>
      <trkpt lat="43.58779" lon="1.36406">
        <ele>147.4</ele>
        <time>2025-10-18T10:19:27Z</time>
      </trkpt>
      <trkpt lat="43.58775" lon="1.36402">
        <ele>147.4</ele>
        <time>2025-10-18T10:19:28Z</time>
      </trkpt>
      <trkpt lat="43.5877" lon="1.36398">
        <ele>147.2</ele>
        <time>2025-10-18T10:19:29Z</time>
      </trkpt>
      <trkpt lat="43.58766" lon="1.36394">
        <ele>147</ele>
        <time>2025-10-18T10:19:30Z</time>
      </trkpt>
      <trkpt lat="43.58761" lon="1.3639">
        <ele>146.8</ele>
        <time>2025-10-18T10:19:31Z</time>
      </trkpt>
      <trkpt lat="43.58756" lon="1.36386">
        <ele>146.6</ele>
        <time>2025-10-18T10:19:32Z</time>
      </trkpt>
      <trkpt lat="43.58752" lon="1.36382">
        <ele>146.6</ele>
        <time>2025-10-18T10:19:33Z</time>
      </trkpt>
      <trkpt lat="43.58748" lon="1.36378">
        <ele>146.8</ele>
        <time>2025-10-18T10:19:34Z</time>
      </trkpt>
      <trkpt lat="43.58744" lon="1.36373">
        <ele>146.8</ele>
        <time>2025-10-18T10:19:35Z</time>
      </trkpt>
      <trkpt lat="43.5874" lon="1.36368">
        <ele>147</ele>
        <time>2025-10-18T10:19:36Z</time>
      </trkpt>
      <trkpt lat="43.58736" lon="1.36363">
        <ele>147</ele>
        <time>2025-10-18T10:19:37Z</time>
      </trkpt>
      <trkpt lat="43.58732" lon="1.36358">
        <ele>146.8</ele>
        <time>2025-10-18T10:19:38Z</time>
      </trkpt>
      <trkpt lat="43.58727" lon="1.36352">
        <ele>146.8</ele>
        <time>2025-10-18T10:19:39Z</time>
      </trkpt>
      <trkpt lat="43.58723" lon="1.36347">
        <ele>146.8</ele>
        <time>2025-10-18T10:19:40Z</time>
      </trkpt>
      <trkpt lat="43.58719" lon="1.36343">
        <ele>146.8</ele>
        <time>2025-10-18T10:19:41Z</time>
      </trkpt>
      <trkpt lat="43.58714" lon="1.36339">
        <ele>146.6</ele>
        <time>2025-10-18T10:19:42Z</time>
      </trkpt>
      <trkpt lat="43.5871" lon="1.36334">
        <ele>146.6</ele>
        <time>2025-10-18T10:19:43Z</time>
      </trkpt>
      <trkpt lat="43.58705" lon="1.3633">
        <ele>146.6</ele>
        <time>2025-10-18T10:19:44Z</time>
      </trkpt>
      <trkpt lat="43.587" lon="1.36327">
        <ele>146.6</ele>
        <time>2025-10-18T10:19:45Z</time>
      </trkpt>
      <trkpt lat="43.58696" lon="1.36324">
        <ele>146.6</ele>
        <time>2025-10-18T10:19:46Z</time>
      </trkpt>
      <trkpt lat="43.58691" lon="1.36319">
        <ele>146.6</ele>
        <time>2025-10-18T10:19:47Z</time>
      </trkpt>
      <trkpt lat="43.58687" lon="1.36314">
        <ele>146.6</ele>
        <time>2025-10-18T10:19:48Z</time>
      </trkpt>
      <trkpt lat="43.58683" lon="1.36309">
        <ele>146.6</ele>
        <time>2025-10-18T10:19:49Z</time>
      </trkpt>
      <trkpt lat="43.58679" lon="1.36304">
        <ele>146.6</ele>
        <time>2025-10-18T10:19:50Z</time>
      </trkpt>
      <trkpt lat="43.58675" lon="1.36298">
        <ele>146.6</ele>
        <time>2025-10-18T10:19:51Z</time>
      </trkpt>
      <trkpt lat="43.58671" lon="1.36293">
        <ele>146.6</ele>
        <time>2025-10-18T10:19:52Z</time>
      </trkpt>
      <trkpt lat="43.58667" lon="1.36287">
        <ele>146.6</ele>
        <time>2025-10-18T10:19:53Z</time>
      </trkpt>
      <trkpt lat="43.58663" lon="1.36282">
        <ele>146.6</ele>
        <time>2025-10-18T10:19:54Z</time>
      </trkpt>
      <trkpt lat="43.5866" lon="1.36276">
        <ele>146.6</ele>
        <time>2025-10-18T10:19:55Z</time>
      </trkpt>
      <trkpt lat="43.58656" lon="1.36271">
        <ele>146.6</ele>
        <time>2025-10-18T10:19:56Z</time>
      </trkpt>
      <trkpt lat="43.58652" lon="1.36266">
        <ele>146.6</ele>
        <time>2025-10-18T10:19:57Z</time>
      </trkpt>
      <trkpt lat="43.58648" lon="1.3626">
        <ele>146.8</ele>
        <time>2025-10-18T10:19:58Z</time>
      </trkpt>
      <trkpt lat="43.58644" lon="1.36255">
        <ele>146.8</ele>
        <time>2025-10-18T10:19:59Z</time>
      </trkpt>
      <trkpt lat="43.5864" lon="1.36251">
        <ele>146.8</ele>
        <time>2025-10-18T10:20:00Z</time>
      </trkpt>
      <trkpt lat="43.58635" lon="1.36246">
        <ele>146.8</ele>
        <time>2025-10-18T10:20:01Z</time>
      </trkpt>
      <trkpt lat="43.5863" lon="1.36243">
        <ele>146.8</ele>
        <time>2025-10-18T10:20:02Z</time>
      </trkpt>
      <trkpt lat="43.58624" lon="1.36242">
        <ele>146.8</ele>
        <time>2025-10-18T10:20:03Z</time>
      </trkpt>
      <trkpt lat="43.58617" lon="1.36243">
        <ele>146.6</ele>
        <time>2025-10-18T10:20:04Z</time>
      </trkpt>
      <trkpt lat="43.58612" lon="1.36246">
        <ele>146.6</ele>
        <time>2025-10-18T10:20:05Z</time>
      </trkpt>
      <trkpt lat="43.58606" lon="1.36249">
        <ele>146.4</ele>
        <time>2025-10-18T10:20:06Z</time>
      </trkpt>
      <trkpt lat="43.58601" lon="1.36251">
        <ele>146.6</ele>
        <time>2025-10-18T10:20:07Z</time>
      </trkpt>
      <trkpt lat="43.58595" lon="1.36254">
        <ele>146.8</ele>
        <time>2025-10-18T10:20:08Z</time>
      </trkpt>
      <trkpt lat="43.5859" lon="1.36256">
        <ele>147</ele>
        <time>2025-10-18T10:20:09Z</time>
      </trkpt>
      <trkpt lat="43.58585" lon="1.36258">
        <ele>147.2</ele>
        <time>2025-10-18T10:20:10Z</time>
      </trkpt>
      <trkpt lat="43.58581" lon="1.36261">
        <ele>147.4</ele>
        <time>2025-10-18T10:20:11Z</time>
      </trkpt>
      <trkpt lat="43.58576" lon="1.36262">
        <ele>147.4</ele>
        <time>2025-10-18T10:20:12Z</time>
      </trkpt>
      <trkpt lat="43.58571" lon="1.36264">
        <ele>147.6</ele>
        <time>2025-10-18T10:20:13Z</time>
      </trkpt>
      <trkpt lat="43.58566" lon="1.36267">
        <ele>147.6</ele>
        <time>2025-10-18T10:20:14Z</time>
      </trkpt>
      <trkpt lat="43.58561" lon="1.36269">
        <ele>147.8</ele>
        <time>2025-10-18T10:20:15Z</time>
      </trkpt>
      <trkpt lat="43.58556" lon="1.36271">
        <ele>148</ele>
        <time>2025-10-18T10:20:16Z</time>
      </trkpt>
      <trkpt lat="43.58551" lon="1.36274">
        <ele>148</ele>
        <time>2025-10-18T10:20:17Z</time>
      </trkpt>
      <trkpt lat="43.58545" lon="1.36277">
        <ele>148.2</ele>
        <time>2025-10-18T10:20:18Z</time>
      </trkpt>
      <trkpt lat="43.5854" lon="1.36279">
        <ele>148.4</ele>
        <time>2025-10-18T10:20:19Z</time>
      </trkpt>
      <trkpt lat="43.58536" lon="1.36281">
        <ele>148.4</ele>
        <time>2025-10-18T10:20:20Z</time>
      </trkpt>
      <trkpt lat="43.58531" lon="1.36283">
        <ele>148.6</ele>
        <time>2025-10-18T10:20:21Z</time>
      </trkpt>
      <trkpt lat="43.58528" lon="1.36285">
        <ele>148.8</ele>
        <time>2025-10-18T10:20:22Z</time>
      </trkpt>
      <trkpt lat="43.58524" lon="1.36288">
        <ele>149</ele>
        <time>2025-10-18T10:20:23Z</time>
      </trkpt>
      <trkpt lat="43.58521" lon="1.36289">
        <ele>149.2</ele>
        <time>2025-10-18T10:20:24Z</time>
      </trkpt>
      <trkpt lat="43.58518" lon="1.36287">
        <ele>149.4</ele>
        <time>2025-10-18T10:20:25Z</time>
      </trkpt>
      <trkpt lat="43.58518" lon="1.36284">
        <ele>149.8</ele>
        <time>2025-10-18T10:20:26Z</time>
      </trkpt>
      <trkpt lat="43.58519" lon="1.36282">
        <ele>150</ele>
        <time>2025-10-18T10:20:27Z</time>
      </trkpt>
      <trkpt lat="43.58521" lon="1.3628">
        <ele>150.4</ele>
        <time>2025-10-18T10:20:28Z</time>
      </trkpt>
      <trkpt lat="43.58523" lon="1.36278">
        <ele>150.6</ele>
        <time>2025-10-18T10:20:29Z</time>
      </trkpt>
      <trkpt lat="43.58526" lon="1.36276">
        <ele>150.8</ele>
        <time>2025-10-18T10:20:30Z</time>
      </trkpt>
      <trkpt lat="43.58529" lon="1.36275">
        <ele>151</ele>
        <time>2025-10-18T10:20:31Z</time>
      </trkpt>
      <trkpt lat="43.58533" lon="1.36273">
        <ele>151.2</ele>
        <time>2025-10-18T10:20:32Z</time>
      </trkpt>
      <trkpt lat="43.58537" lon="1.36271">
        <ele>151.2</ele>
        <time>2025-10-18T10:20:33Z</time>
      </trkpt>
      <trkpt lat="43.58541" lon="1.36269">
        <ele>151.2</ele>
        <time>2025-10-18T10:20:34Z</time>
      </trkpt>
      <trkpt lat="43.58545" lon="1.36267">
        <ele>151.4</ele>
        <time>2025-10-18T10:20:35Z</time>
      </trkpt>
      <trkpt lat="43.5855" lon="1.36263">
        <ele>151.2</ele>
        <time>2025-10-18T10:20:36Z</time>
      </trkpt>
      <trkpt lat="43.58555" lon="1.3626">
        <ele>151.2</ele>
        <time>2025-10-18T10:20:37Z</time>
      </trkpt>
      <trkpt lat="43.58559" lon="1.36257">
        <ele>151.2</ele>
        <time>2025-10-18T10:20:38Z</time>
      </trkpt>
      <trkpt lat="43.58564" lon="1.36255">
        <ele>151.2</ele>
        <time>2025-10-18T10:20:39Z</time>
      </trkpt>
      <trkpt lat="43.58569" lon="1.36252">
        <ele>151.2</ele>
        <time>2025-10-18T10:20:40Z</time>
      </trkpt>
      <trkpt lat="43.58574" lon="1.3625">
        <ele>151.2</ele>
        <time>2025-10-18T10:20:41Z</time>
      </trkpt>
      <trkpt lat="43.58579" lon="1.36247">
        <ele>151</ele>
        <time>2025-10-18T10:20:42Z</time>
      </trkpt>
      <trkpt lat="43.58583" lon="1.36245">
        <ele>151</ele>
        <time>2025-10-18T10:20:43Z</time>
      </trkpt>
      <trkpt lat="43.58588" lon="1.36242">
        <ele>151</ele>
        <time>2025-10-18T10:20:44Z</time>
      </trkpt>
      <trkpt lat="43.58593" lon="1.3624">
        <ele>151</ele>
        <time>2025-10-18T10:20:45Z</time>
      </trkpt>
      <trkpt lat="43.58598" lon="1.36238">
        <ele>151</ele>
        <time>2025-10-18T10:20:46Z</time>
      </trkpt>
      <trkpt lat="43.58604" lon="1.36235">
        <ele>151</ele>
        <time>2025-10-18T10:20:47Z</time>
      </trkpt>
      <trkpt lat="43.58609" lon="1.36233">
        <ele>151</ele>
        <time>2025-10-18T10:20:48Z</time>
      </trkpt>
      <trkpt lat="43.58614" lon="1.3623">
        <ele>150.8</ele>
        <time>2025-10-18T10:20:49Z</time>
      </trkpt>
      <trkpt lat="43.5862" lon="1.36228">
        <ele>150.8</ele>
        <time>2025-10-18T10:20:50Z</time>
      </trkpt>
      <trkpt lat="43.58625" lon="1.36226">
        <ele>150.8</ele>
        <time>2025-10-18T10:20:51Z</time>
      </trkpt>
      <trkpt lat="43.58631" lon="1.36223">
        <ele>150.8</ele>
        <time>2025-10-18T10:20:52Z</time>
      </trkpt>
      <trkpt lat="43.58636" lon="1.36221">
        <ele>150.8</ele>
        <time>2025-10-18T10:20:53Z</time>
      </trkpt>
      <trkpt lat="43.58642" lon="1.36218">
        <ele>150.6</ele>
        <time>2025-10-18T10:20:54Z</time>
      </trkpt>
      <trkpt lat="43.58648" lon="1.36215">
        <ele>150.6</ele>
        <time>2025-10-18T10:20:55Z</time>
      </trkpt>
      <trkpt lat="43.58654" lon="1.36212">
        <ele>150.6</ele>
        <time>2025-10-18T10:20:56Z</time>
      </trkpt>
      <trkpt lat="43.58661" lon="1.36209">
        <ele>150.4</ele>
        <time>2025-10-18T10:20:57Z</time>
      </trkpt>
      <trkpt lat="43.58667" lon="1.36206">
        <ele>150.4</ele>
        <time>2025-10-18T10:20:58Z</time>
      </trkpt>
      <trkpt lat="43.58673" lon="1.36203">
        <ele>150.4</ele>
        <time>2025-10-18T10:20:59Z</time>
      </trkpt>
      <trkpt lat="43.5868" lon="1.36199">
        <ele>150.2</ele>
        <time>2025-10-18T10:21:00Z</time>
      </trkpt>
      <trkpt lat="43.58686" lon="1.36196">
        <ele>150.2</ele>
        <time>2025-10-18T10:21:01Z</time>
      </trkpt>
      <trkpt lat="43.58693" lon="1.36193">
        <ele>150</ele>
        <time>2025-10-18T10:21:02Z</time>
      </trkpt>
      <trkpt lat="43.58699" lon="1.3619">
        <ele>150</ele>
        <time>2025-10-18T10:21:03Z</time>
      </trkpt>
      <trkpt lat="43.58705" lon="1.36187">
        <ele>149.8</ele>
        <time>2025-10-18T10:21:04Z</time>
      </trkpt>
      <trkpt lat="43.58711" lon="1.36184">
        <ele>149.6</ele>
        <time>2025-10-18T10:21:05Z</time>
      </trkpt>
      <trkpt lat="43.58718" lon="1.36181">
        <ele>149.4</ele>
        <time>2025-10-18T10:21:06Z</time>
      </trkpt>
      <trkpt lat="43.58723" lon="1.36178">
        <ele>149.4</ele>
        <time>2025-10-18T10:21:07Z</time>
      </trkpt>
      <trkpt lat="43.58729" lon="1.36175">
        <ele>149.2</ele>
        <time>2025-10-18T10:21:08Z</time>
      </trkpt>
      <trkpt lat="43.58735" lon="1.36173">
        <ele>149</ele>
        <time>2025-10-18T10:21:09Z</time>
      </trkpt>
      <trkpt lat="43.58741" lon="1.36171">
        <ele>149</ele>
        <time>2025-10-18T10:21:10Z</time>
      </trkpt>
      <trkpt lat="43.58748" lon="1.36169">
        <ele>148.8</ele>
        <time>2025-10-18T10:21:11Z</time>
      </trkpt>
      <trkpt lat="43.58753" lon="1.36166">
        <ele>148.8</ele>
        <time>2025-10-18T10:21:12Z</time>
      </trkpt>
      <trkpt lat="43.58759" lon="1.36164">
        <ele>148.8</ele>
        <time>2025-10-18T10:21:13Z</time>
      </trkpt>
      <trkpt lat="43.58765" lon="1.36161">
        <ele>149</ele>
        <time>2025-10-18T10:21:14Z</time>
      </trkpt>
      <trkpt lat="43.58769" lon="1.3616">
        <ele>149</ele>
        <time>2025-10-18T10:21:15Z</time>
      </trkpt>
      <trkpt lat="43.58772" lon="1.36162">
        <ele>149.2</ele>
        <time>2025-10-18T10:21:16Z</time>
      </trkpt>
      <trkpt lat="43.58773" lon="1.36164">
        <ele>149.4</ele>
        <time>2025-10-18T10:21:17Z</time>
      </trkpt>
      <trkpt lat="43.58772" lon="1.36167">
        <ele>149.6</ele>
        <time>2025-10-18T10:21:18Z</time>
      </trkpt>
      <trkpt lat="43.58769" lon="1.36169">
        <ele>149.6</ele>
        <time>2025-10-18T10:21:19Z</time>
      </trkpt>
      <trkpt lat="43.58765" lon="1.36171">
        <ele>149.6</ele>
        <time>2025-10-18T10:21:20Z</time>
      </trkpt>
      <trkpt lat="43.58761" lon="1.36172">
        <ele>149.4</ele>
        <time>2025-10-18T10:21:21Z</time>
      </trkpt>
      <trkpt lat="43.58756" lon="1.36174">
        <ele>149.2</ele>
        <time>2025-10-18T10:21:22Z</time>
      </trkpt>
      <trkpt lat="43.58751" lon="1.36176">
        <ele>149</ele>
        <time>2025-10-18T10:21:23Z</time>
      </trkpt>
      <trkpt lat="43.58746" lon="1.36178">
        <ele>148.8</ele>
        <time>2025-10-18T10:21:24Z</time>
      </trkpt>
      <trkpt lat="43.5874" lon="1.3618">
        <ele>148.6</ele>
        <time>2025-10-18T10:21:25Z</time>
      </trkpt>
      <trkpt lat="43.58735" lon="1.36184">
        <ele>148.2</ele>
        <time>2025-10-18T10:21:26Z</time>
      </trkpt>
      <trkpt lat="43.58729" lon="1.36187">
        <ele>148</ele>
        <time>2025-10-18T10:21:27Z</time>
      </trkpt>
      <trkpt lat="43.58723" lon="1.3619">
        <ele>147.8</ele>
        <time>2025-10-18T10:21:28Z</time>
      </trkpt>
      <trkpt lat="43.58717" lon="1.36193">
        <ele>147.6</ele>
        <time>2025-10-18T10:21:29Z</time>
      </trkpt>
      <trkpt lat="43.58711" lon="1.36197">
        <ele>147.4</ele>
        <time>2025-10-18T10:21:30Z</time>
      </trkpt>
      <trkpt lat="43.58706" lon="1.36201">
        <ele>147.2</ele>
        <time>2025-10-18T10:21:31Z</time>
      </trkpt>
      <trkpt lat="43.587" lon="1.36205">
        <ele>147.2</ele>
        <time>2025-10-18T10:21:32Z</time>
      </trkpt>
      <trkpt lat="43.58694" lon="1.36209">
        <ele>147</ele>
        <time>2025-10-18T10:21:33Z</time>
      </trkpt>
      <trkpt lat="43.58688" lon="1.36213">
        <ele>147</ele>
        <time>2025-10-18T10:21:34Z</time>
      </trkpt>
      <trkpt lat="43.58682" lon="1.36216">
        <ele>146.8</ele>
        <time>2025-10-18T10:21:35Z</time>
      </trkpt>
      <trkpt lat="43.58676" lon="1.36217">
        <ele>146.8</ele>
        <time>2025-10-18T10:21:36Z</time>
      </trkpt>
      <trkpt lat="43.5867" lon="1.36215">
        <ele>146.6</ele>
        <time>2025-10-18T10:21:37Z</time>
      </trkpt>
      <trkpt lat="43.58664" lon="1.36211">
        <ele>146.4</ele>
        <time>2025-10-18T10:21:38Z</time>
      </trkpt>
      <trkpt lat="43.58659" lon="1.36207">
        <ele>146</ele>
        <time>2025-10-18T10:21:39Z</time>
      </trkpt>
      <trkpt lat="43.58654" lon="1.36204">
        <ele>145.8</ele>
        <time>2025-10-18T10:21:40Z</time>
      </trkpt>
      <trkpt lat="43.58649" lon="1.36201">
        <ele>145.6</ele>
        <time>2025-10-18T10:21:41Z</time>
      </trkpt>
      <trkpt lat="43.58643" lon="1.36199">
        <ele>145.6</ele>
        <time>2025-10-18T10:21:42Z</time>
      </trkpt>
      <trkpt lat="43.58638" lon="1.36195">
        <ele>145.4</ele>
        <time>2025-10-18T10:21:43Z</time>
      </trkpt>
      <trkpt lat="43.58634" lon="1.36191">
        <ele>145.6</ele>
        <time>2025-10-18T10:21:44Z</time>
      </trkpt>
      <trkpt lat="43.58629" lon="1.36188">
        <ele>145.4</ele>
        <time>2025-10-18T10:21:45Z</time>
      </trkpt>
      <trkpt lat="43.58624" lon="1.36185">
        <ele>145.6</ele>
        <time>2025-10-18T10:21:46Z</time>
      </trkpt>
      <trkpt lat="43.58619" lon="1.3618">
        <ele>145.6</ele>
        <time>2025-10-18T10:21:47Z</time>
      </trkpt>
      <trkpt lat="43.58614" lon="1.36173">
        <ele>145.8</ele>
        <time>2025-10-18T10:21:48Z</time>
      </trkpt>
      <trkpt lat="43.5861" lon="1.36166">
        <ele>146</ele>
        <time>2025-10-18T10:21:49Z</time>
      </trkpt>
      <trkpt lat="43.58605" lon="1.36159">
        <ele>146.2</ele>
        <time>2025-10-18T10:21:50Z</time>
      </trkpt>
      <trkpt lat="43.58601" lon="1.36153">
        <ele>146.4</ele>
        <time>2025-10-18T10:21:51Z</time>
      </trkpt>
      <trkpt lat="43.58598" lon="1.36147">
        <ele>146.6</ele>
        <time>2025-10-18T10:21:52Z</time>
      </trkpt>
      <trkpt lat="43.58594" lon="1.36141">
        <ele>146.8</ele>
        <time>2025-10-18T10:21:53Z</time>
      </trkpt>
      <trkpt lat="43.58589" lon="1.36136">
        <ele>147.2</ele>
        <time>2025-10-18T10:21:54Z</time>
      </trkpt>
      <trkpt lat="43.58585" lon="1.36133">
        <ele>147.6</ele>
        <time>2025-10-18T10:21:55Z</time>
      </trkpt>
      <trkpt lat="43.58581" lon="1.3613">
        <ele>148</ele>
        <time>2025-10-18T10:21:56Z</time>
      </trkpt>
      <trkpt lat="43.58576" lon="1.36127">
        <ele>148.2</ele>
        <time>2025-10-18T10:21:57Z</time>
      </trkpt>
      <trkpt lat="43.58571" lon="1.36123">
        <ele>148.6</ele>
        <time>2025-10-18T10:21:58Z</time>
      </trkpt>
      <trkpt lat="43.58566" lon="1.36119">
        <ele>148.8</ele>
        <time>2025-10-18T10:21:59Z</time>
      </trkpt>
      <trkpt lat="43.58562" lon="1.36114">
        <ele>148.8</ele>
        <time>2025-10-18T10:22:00Z</time>
      </trkpt>
      <trkpt lat="43.58557" lon="1.36109">
        <ele>148.8</ele>
        <time>2025-10-18T10:22:01Z</time>
      </trkpt>
      <trkpt lat="43.58552" lon="1.36104">
        <ele>148.8</ele>
        <time>2025-10-18T10:22:02Z</time>
      </trkpt>
      <trkpt lat="43.58547" lon="1.36099">
        <ele>148.8</ele>
        <time>2025-10-18T10:22:03Z</time>
      </trkpt>
      <trkpt lat="43.58542" lon="1.36093">
        <ele>148.6</ele>
        <time>2025-10-18T10:22:04Z</time>
      </trkpt>
      <trkpt lat="43.58538" lon="1.36086">
        <ele>148.6</ele>
        <time>2025-10-18T10:22:05Z</time>
      </trkpt>
      <trkpt lat="43.58533" lon="1.3608">
        <ele>148.6</ele>
        <time>2025-10-18T10:22:06Z</time>
      </trkpt>
      <trkpt lat="43.58528" lon="1.36075">
        <ele>148.6</ele>
        <time>2025-10-18T10:22:07Z</time>
      </trkpt>
      <trkpt lat="43.58522" lon="1.36071">
        <ele>148.6</ele>
        <time>2025-10-18T10:22:08Z</time>
      </trkpt>
      <trkpt lat="43.58517" lon="1.36067">
        <ele>148.6</ele>
        <time>2025-10-18T10:22:09Z</time>
      </trkpt>
      <trkpt lat="43.58511" lon="1.36064">
        <ele>148.4</ele>
        <time>2025-10-18T10:22:10Z</time>
      </trkpt>
      <trkpt lat="43.58507" lon="1.36058">
        <ele>148.4</ele>
        <time>2025-10-18T10:22:11Z</time>
      </trkpt>
      <trkpt lat="43.58503" lon="1.36052">
        <ele>148.4</ele>
        <time>2025-10-18T10:22:12Z</time>
      </trkpt>
      <trkpt lat="43.58499" lon="1.36045">
        <ele>148.4</ele>
        <time>2025-10-18T10:22:13Z</time>
      </trkpt>
      <trkpt lat="43.58496" lon="1.36038">
        <ele>148.4</ele>
        <time>2025-10-18T10:22:14Z</time>
      </trkpt>
      <trkpt lat="43.58492" lon="1.36031">
        <ele>148.4</ele>
        <time>2025-10-18T10:22:15Z</time>
      </trkpt>
      <trkpt lat="43.58488" lon="1.36025">
        <ele>148.4</ele>
        <time>2025-10-18T10:22:16Z</time>
      </trkpt>
      <trkpt lat="43.58484" lon="1.36019">
        <ele>148.2</ele>
        <time>2025-10-18T10:22:17Z</time>
      </trkpt>
      <trkpt lat="43.5848" lon="1.36013">
        <ele>148.2</ele>
        <time>2025-10-18T10:22:18Z</time>
      </trkpt>
      <trkpt lat="43.58476" lon="1.36007">
        <ele>148.2</ele>
        <time>2025-10-18T10:22:19Z</time>
      </trkpt>
      <trkpt lat="43.58472" lon="1.36">
        <ele>148</ele>
        <time>2025-10-18T10:22:20Z</time>
      </trkpt>
      <trkpt lat="43.58468" lon="1.35993">
        <ele>147.8</ele>
        <time>2025-10-18T10:22:21Z</time>
      </trkpt>
      <trkpt lat="43.58463" lon="1.35986">
        <ele>147.6</ele>
        <time>2025-10-18T10:22:22Z</time>
      </trkpt>
      <trkpt lat="43.58458" lon="1.35979">
        <ele>147.4</ele>
        <time>2025-10-18T10:22:23Z</time>
      </trkpt>
      <trkpt lat="43.58452" lon="1.35972">
        <ele>146.8</ele>
        <time>2025-10-18T10:22:24Z</time>
      </trkpt>
      <trkpt lat="43.58447" lon="1.35965">
        <ele>146.4</ele>
        <time>2025-10-18T10:22:25Z</time>
      </trkpt>
      <trkpt lat="43.58442" lon="1.35958">
        <ele>146</ele>
        <time>2025-10-18T10:22:26Z</time>
      </trkpt>
      <trkpt lat="43.58438" lon="1.35951">
        <ele>145.8</ele>
        <time>2025-10-18T10:22:27Z</time>
      </trkpt>
      <trkpt lat="43.58435" lon="1.35946">
        <ele>146</ele>
        <time>2025-10-18T10:22:28Z</time>
      </trkpt>
      <trkpt lat="43.58432" lon="1.3594">
        <ele>146.2</ele>
        <time>2025-10-18T10:22:29Z</time>
      </trkpt>
      <trkpt lat="43.58428" lon="1.35933">
        <ele>146.6</ele>
        <time>2025-10-18T10:22:30Z</time>
      </trkpt>
      <trkpt lat="43.58425" lon="1.35927">
        <ele>147</ele>
        <time>2025-10-18T10:22:31Z</time>
      </trkpt>
      <trkpt lat="43.58422" lon="1.35921">
        <ele>147.2</ele>
        <time>2025-10-18T10:22:32Z</time>
      </trkpt>
      <trkpt lat="43.58419" lon="1.35914">
        <ele>147.4</ele>
        <time>2025-10-18T10:22:33Z</time>
      </trkpt>
      <trkpt lat="43.58416" lon="1.35906">
        <ele>147.6</ele>
        <time>2025-10-18T10:22:34Z</time>
      </trkpt>
      <trkpt lat="43.58413" lon="1.35898">
        <ele>147.6</ele>
        <time>2025-10-18T10:22:35Z</time>
      </trkpt>
      <trkpt lat="43.5841" lon="1.3589">
        <ele>147.6</ele>
        <time>2025-10-18T10:22:36Z</time>
      </trkpt>
      <trkpt lat="43.58407" lon="1.35883">
        <ele>147.6</ele>
        <time>2025-10-18T10:22:37Z</time>
      </trkpt>
      <trkpt lat="43.58404" lon="1.35874">
        <ele>147.6</ele>
        <time>2025-10-18T10:22:38Z</time>
      </trkpt>
      <trkpt lat="43.58402" lon="1.35866">
        <ele>147.6</ele>
        <time>2025-10-18T10:22:39Z</time>
      </trkpt>
      <trkpt lat="43.58399" lon="1.35858">
        <ele>147.6</ele>
        <time>2025-10-18T10:22:40Z</time>
      </trkpt>
      <trkpt lat="43.58395" lon="1.3585">
        <ele>147.4</ele>
        <time>2025-10-18T10:22:41Z</time>
      </trkpt>
      <trkpt lat="43.58391" lon="1.35842">
        <ele>147.4</ele>
        <time>2025-10-18T10:22:42Z</time>
      </trkpt>
      <trkpt lat="43.58386" lon="1.35835">
        <ele>147.4</ele>
        <time>2025-10-18T10:22:43Z</time>
      </trkpt>
      <trkpt lat="43.58381" lon="1.35829">
        <ele>147.4</ele>
        <time>2025-10-18T10:22:44Z</time>
      </trkpt>
      <trkpt lat="43.58375" lon="1.35827">
        <ele>147.4</ele>
        <time>2025-10-18T10:22:45Z</time>
      </trkpt>
      <trkpt lat="43.58369" lon="1.35827">
        <ele>147.4</ele>
        <time>2025-10-18T10:22:46Z</time>
      </trkpt>
      <trkpt lat="43.58364" lon="1.35825">
        <ele>147.4</ele>
        <time>2025-10-18T10:22:47Z</time>
      </trkpt>
      <trkpt lat="43.58358" lon="1.35821">
        <ele>147.4</ele>
        <time>2025-10-18T10:22:48Z</time>
      </trkpt>
      <trkpt lat="43.58355" lon="1.35816">
        <ele>147.4</ele>
        <time>2025-10-18T10:22:49Z</time>
      </trkpt>
      <trkpt lat="43.58352" lon="1.35809">
        <ele>147.6</ele>
        <time>2025-10-18T10:22:50Z</time>
      </trkpt>
      <trkpt lat="43.58349" lon="1.35802">
        <ele>147.6</ele>
        <time>2025-10-18T10:22:51Z</time>
      </trkpt>
      <trkpt lat="43.58346" lon="1.35794">
        <ele>147.4</ele>
        <time>2025-10-18T10:22:52Z</time>
      </trkpt>
      <trkpt lat="43.58344" lon="1.35786">
        <ele>147.4</ele>
        <time>2025-10-18T10:22:53Z</time>
      </trkpt>
      <trkpt lat="43.58342" lon="1.35778">
        <ele>147.4</ele>
        <time>2025-10-18T10:22:54Z</time>
      </trkpt>
      <trkpt lat="43.58341" lon="1.35768">
        <ele>147.4</ele>
        <time>2025-10-18T10:22:55Z</time>
      </trkpt>
      <trkpt lat="43.58341" lon="1.35758">
        <ele>147.4</ele>
        <time>2025-10-18T10:22:56Z</time>
      </trkpt>
      <trkpt lat="43.58343" lon="1.3575">
        <ele>147.4</ele>
        <time>2025-10-18T10:22:57Z</time>
      </trkpt>
      <trkpt lat="43.58345" lon="1.35742">
        <ele>147.4</ele>
        <time>2025-10-18T10:22:58Z</time>
      </trkpt>
      <trkpt lat="43.58347" lon="1.35734">
        <ele>147.4</ele>
        <time>2025-10-18T10:22:59Z</time>
      </trkpt>
      <trkpt lat="43.58348" lon="1.35727">
        <ele>147.6</ele>
        <time>2025-10-18T10:23:00Z</time>
      </trkpt>
      <trkpt lat="43.58348" lon="1.35719">
        <ele>147.6</ele>
        <time>2025-10-18T10:23:01Z</time>
      </trkpt>
      <trkpt lat="43.5835" lon="1.35711">
        <ele>147.8</ele>
        <time>2025-10-18T10:23:02Z</time>
      </trkpt>
      <trkpt lat="43.58354" lon="1.35705">
        <ele>147.8</ele>
        <time>2025-10-18T10:23:03Z</time>
      </trkpt>
      <trkpt lat="43.58359" lon="1.35701">
        <ele>147.8</ele>
        <time>2025-10-18T10:23:04Z</time>
      </trkpt>
      <trkpt lat="43.58365" lon="1.35696">
        <ele>147.8</ele>
        <time>2025-10-18T10:23:05Z</time>
      </trkpt>
      <trkpt lat="43.5837" lon="1.35691">
        <ele>147.6</ele>
        <time>2025-10-18T10:23:06Z</time>
      </trkpt>
      <trkpt lat="43.58375" lon="1.35686">
        <ele>147.4</ele>
        <time>2025-10-18T10:23:07Z</time>
      </trkpt>
      <trkpt lat="43.58382" lon="1.35682">
        <ele>147.2</ele>
        <time>2025-10-18T10:23:08Z</time>
      </trkpt>
      <trkpt lat="43.58388" lon="1.35677">
        <ele>147.4</ele>
        <time>2025-10-18T10:23:09Z</time>
      </trkpt>
      <trkpt lat="43.58393" lon="1.35672">
        <ele>147.4</ele>
        <time>2025-10-18T10:23:10Z</time>
      </trkpt>
      <trkpt lat="43.58397" lon="1.35667">
        <ele>147.6</ele>
        <time>2025-10-18T10:23:11Z</time>
      </trkpt>
      <trkpt lat="43.58401" lon="1.35661">
        <ele>147.8</ele>
        <time>2025-10-18T10:23:12Z</time>
      </trkpt>
      <trkpt lat="43.58404" lon="1.35654">
        <ele>148</ele>
        <time>2025-10-18T10:23:13Z</time>
      </trkpt>
      <trkpt lat="43.58407" lon="1.35648">
        <ele>148</ele>
        <time>2025-10-18T10:23:14Z</time>
      </trkpt>
      <trkpt lat="43.5841" lon="1.35642">
        <ele>148.2</ele>
        <time>2025-10-18T10:23:15Z</time>
      </trkpt>
      <trkpt lat="43.58414" lon="1.35635">
        <ele>148.4</ele>
        <time>2025-10-18T10:23:16Z</time>
      </trkpt>
      <trkpt lat="43.58418" lon="1.3563">
        <ele>148.6</ele>
        <time>2025-10-18T10:23:17Z</time>
      </trkpt>
      <trkpt lat="43.58422" lon="1.35623">
        <ele>148.6</ele>
        <time>2025-10-18T10:23:18Z</time>
      </trkpt>
      <trkpt lat="43.58424" lon="1.35616">
        <ele>148.6</ele>
        <time>2025-10-18T10:23:19Z</time>
      </trkpt>
      <trkpt lat="43.58424" lon="1.35608">
        <ele>148.6</ele>
        <time>2025-10-18T10:23:20Z</time>
      </trkpt>
      <trkpt lat="43.58425" lon="1.35601">
        <ele>148.6</ele>
        <time>2025-10-18T10:23:21Z</time>
      </trkpt>
      <trkpt lat="43.58427" lon="1.35595">
        <ele>148.8</ele>
        <time>2025-10-18T10:23:22Z</time>
      </trkpt>
      <trkpt lat="43.58429" lon="1.3559">
        <ele>149.2</ele>
        <time>2025-10-18T10:23:23Z</time>
      </trkpt>
      <trkpt lat="43.58432" lon="1.35585">
        <ele>149.6</ele>
        <time>2025-10-18T10:23:24Z</time>
      </trkpt>
      <trkpt lat="43.58434" lon="1.35579">
        <ele>150</ele>
        <time>2025-10-18T10:23:25Z</time>
      </trkpt>
      <trkpt lat="43.58436" lon="1.35574">
        <ele>150.2</ele>
        <time>2025-10-18T10:23:26Z</time>
      </trkpt>
      <trkpt lat="43.58439" lon="1.35568">
        <ele>150.4</ele>
        <time>2025-10-18T10:23:27Z</time>
      </trkpt>
      <trkpt lat="43.58442" lon="1.35562">
        <ele>150.6</ele>
        <time>2025-10-18T10:23:28Z</time>
      </trkpt>
      <trkpt lat="43.58444" lon="1.35557">
        <ele>150.6</ele>
        <time>2025-10-18T10:23:29Z</time>
      </trkpt>
      <trkpt lat="43.58447" lon="1.3555">
        <ele>150.8</ele>
        <time>2025-10-18T10:23:30Z</time>
      </trkpt>
      <trkpt lat="43.58449" lon="1.35544">
        <ele>151</ele>
        <time>2025-10-18T10:23:31Z</time>
      </trkpt>
      <trkpt lat="43.58451" lon="1.35536">
        <ele>151.2</ele>
        <time>2025-10-18T10:23:32Z</time>
      </trkpt>
      <trkpt lat="43.58453" lon="1.35529">
        <ele>151.2</ele>
        <time>2025-10-18T10:23:33Z</time>
      </trkpt>
      <trkpt lat="43.58455" lon="1.35522">
        <ele>151.4</ele>
        <time>2025-10-18T10:23:34Z</time>
      </trkpt>
      <trkpt lat="43.58457" lon="1.35515">
        <ele>151.4</ele>
        <time>2025-10-18T10:23:35Z</time>
      </trkpt>
      <trkpt lat="43.58458" lon="1.35508">
        <ele>151.2</ele>
        <time>2025-10-18T10:23:36Z</time>
      </trkpt>
      <trkpt lat="43.58459" lon="1.35501">
        <ele>151.2</ele>
        <time>2025-10-18T10:23:37Z</time>
      </trkpt>
      <trkpt lat="43.58461" lon="1.35494">
        <ele>151.4</ele>
        <time>2025-10-18T10:23:38Z</time>
      </trkpt>
      <trkpt lat="43.58462" lon="1.35486">
        <ele>151.2</ele>
        <time>2025-10-18T10:23:39Z</time>
      </trkpt>
      <trkpt lat="43.58464" lon="1.35479">
        <ele>151.2</ele>
        <time>2025-10-18T10:23:40Z</time>
      </trkpt>
      <trkpt lat="43.58465" lon="1.35472">
        <ele>151.4</ele>
        <time>2025-10-18T10:23:41Z</time>
      </trkpt>
      <trkpt lat="43.58466" lon="1.35464">
        <ele>151.4</ele>
        <time>2025-10-18T10:23:42Z</time>
      </trkpt>
      <trkpt lat="43.58466" lon="1.35456">
        <ele>151.2</ele>
        <time>2025-10-18T10:23:43Z</time>
      </trkpt>
      <trkpt lat="43.58466" lon="1.35448">
        <ele>151.2</ele>
        <time>2025-10-18T10:23:44Z</time>
      </trkpt>
      <trkpt lat="43.58464" lon="1.3544">
        <ele>151.2</ele>
        <time>2025-10-18T10:23:45Z</time>
      </trkpt>
      <trkpt lat="43.58463" lon="1.35431">
        <ele>151</ele>
        <time>2025-10-18T10:23:46Z</time>
      </trkpt>
      <trkpt lat="43.58462" lon="1.35423">
        <ele>151</ele>
        <time>2025-10-18T10:23:47Z</time>
      </trkpt>
      <trkpt lat="43.58461" lon="1.35415">
        <ele>151</ele>
        <time>2025-10-18T10:23:48Z</time>
      </trkpt>
      <trkpt lat="43.5846" lon="1.35408">
        <ele>151</ele>
        <time>2025-10-18T10:23:49Z</time>
      </trkpt>
      <trkpt lat="43.58459" lon="1.354">
        <ele>151</ele>
        <time>2025-10-18T10:23:50Z</time>
      </trkpt>
      <trkpt lat="43.5846" lon="1.35392">
        <ele>151</ele>
        <time>2025-10-18T10:23:51Z</time>
      </trkpt>
      <trkpt lat="43.5846" lon="1.35384">
        <ele>151.2</ele>
        <time>2025-10-18T10:23:52Z</time>
      </trkpt>
      <trkpt lat="43.58458" lon="1.35377">
        <ele>151.2</ele>
        <time>2025-10-18T10:23:53Z</time>
      </trkpt>
      <trkpt lat="43.58455" lon="1.35373">
        <ele>151.2</ele>
        <time>2025-10-18T10:23:54Z</time>
      </trkpt>
      <trkpt lat="43.58451" lon="1.3537">
        <ele>151.2</ele>
        <time>2025-10-18T10:23:55Z</time>
      </trkpt>
      <trkpt lat="43.58447" lon="1.35367">
        <ele>151.4</ele>
        <time>2025-10-18T10:23:56Z</time>
      </trkpt>
      <trkpt lat="43.58443" lon="1.35365">
        <ele>151.4</ele>
        <time>2025-10-18T10:23:57Z</time>
      </trkpt>
      <trkpt lat="43.58438" lon="1.35362">
        <ele>151.6</ele>
        <time>2025-10-18T10:23:58Z</time>
      </trkpt>
      <trkpt lat="43.58434" lon="1.3536">
        <ele>151.6</ele>
        <time>2025-10-18T10:23:59Z</time>
      </trkpt>
      <trkpt lat="43.58429" lon="1.35358">
        <ele>151.6</ele>
        <time>2025-10-18T10:24:00Z</time>
      </trkpt>
      <trkpt lat="43.58424" lon="1.35355">
        <ele>151.8</ele>
        <time>2025-10-18T10:24:01Z</time>
      </trkpt>
      <trkpt lat="43.58419" lon="1.35353">
        <ele>151.8</ele>
        <time>2025-10-18T10:24:02Z</time>
      </trkpt>
      <trkpt lat="43.58414" lon="1.35351">
        <ele>151.8</ele>
        <time>2025-10-18T10:24:03Z</time>
      </trkpt>
      <trkpt lat="43.58408" lon="1.35348">
        <ele>151.6</ele>
        <time>2025-10-18T10:24:04Z</time>
      </trkpt>
      <trkpt lat="43.58402" lon="1.35344">
        <ele>151.2</ele>
        <time>2025-10-18T10:24:05Z</time>
      </trkpt>
      <trkpt lat="43.58398" lon="1.35337">
        <ele>150.8</ele>
        <time>2025-10-18T10:24:06Z</time>
      </trkpt>
      <trkpt lat="43.58396" lon="1.35327">
        <ele>150.4</ele>
        <time>2025-10-18T10:24:07Z</time>
      </trkpt>
      <trkpt lat="43.58396" lon="1.35317">
        <ele>150</ele>
        <time>2025-10-18T10:24:08Z</time>
      </trkpt>
      <trkpt lat="43.58396" lon="1.35307">
        <ele>149.6</ele>
        <time>2025-10-18T10:24:09Z</time>
      </trkpt>
      <trkpt lat="43.58396" lon="1.35298">
        <ele>149.4</ele>
        <time>2025-10-18T10:24:10Z</time>
      </trkpt>
      <trkpt lat="43.58395" lon="1.35289">
        <ele>149</ele>
        <time>2025-10-18T10:24:11Z</time>
      </trkpt>
      <trkpt lat="43.58393" lon="1.3528">
        <ele>149</ele>
        <time>2025-10-18T10:24:12Z</time>
      </trkpt>
      <trkpt lat="43.58391" lon="1.35271">
        <ele>148.8</ele>
        <time>2025-10-18T10:24:13Z</time>
      </trkpt>
      <trkpt lat="43.5839" lon="1.35262">
        <ele>148.8</ele>
        <time>2025-10-18T10:24:14Z</time>
      </trkpt>
      <trkpt lat="43.58389" lon="1.35253">
        <ele>148.8</ele>
        <time>2025-10-18T10:24:15Z</time>
      </trkpt>
      <trkpt lat="43.58388" lon="1.35244">
        <ele>149</ele>
        <time>2025-10-18T10:24:16Z</time>
      </trkpt>
      <trkpt lat="43.58387" lon="1.35236">
        <ele>149</ele>
        <time>2025-10-18T10:24:17Z</time>
      </trkpt>
      <trkpt lat="43.58386" lon="1.35227">
        <ele>149.2</ele>
        <time>2025-10-18T10:24:18Z</time>
      </trkpt>
      <trkpt lat="43.58385" lon="1.35217">
        <ele>149.2</ele>
        <time>2025-10-18T10:24:19Z</time>
      </trkpt>
      <trkpt lat="43.58383" lon="1.35208">
        <ele>149</ele>
        <time>2025-10-18T10:24:20Z</time>
      </trkpt>
      <trkpt lat="43.5838" lon="1.352">
        <ele>148.8</ele>
        <time>2025-10-18T10:24:21Z</time>
      </trkpt>
      <trkpt lat="43.58376" lon="1.35193">
        <ele>148.8</ele>
        <time>2025-10-18T10:24:22Z</time>
      </trkpt>
      <trkpt lat="43.58372" lon="1.35187">
        <ele>148.6</ele>
        <time>2025-10-18T10:24:23Z</time>
      </trkpt>
      <trkpt lat="43.58367" lon="1.35181">
        <ele>148.6</ele>
        <time>2025-10-18T10:24:24Z</time>
      </trkpt>
      <trkpt lat="43.58363" lon="1.35175">
        <ele>148.6</ele>
        <time>2025-10-18T10:24:25Z</time>
      </trkpt>
      <trkpt lat="43.58358" lon="1.35168">
        <ele>148.6</ele>
        <time>2025-10-18T10:24:26Z</time>
      </trkpt>
      <trkpt lat="43.58354" lon="1.3516">
        <ele>148.6</ele>
        <time>2025-10-18T10:24:27Z</time>
      </trkpt>
      <trkpt lat="43.58351" lon="1.35152">
        <ele>148.4</ele>
        <time>2025-10-18T10:24:28Z</time>
      </trkpt>
      <trkpt lat="43.58348" lon="1.35144">
        <ele>148.4</ele>
        <time>2025-10-18T10:24:29Z</time>
      </trkpt>
      <trkpt lat="43.58343" lon="1.35138">
        <ele>148.2</ele>
        <time>2025-10-18T10:24:30Z</time>
      </trkpt>
      <trkpt lat="43.58339" lon="1.35131">
        <ele>148.2</ele>
        <time>2025-10-18T10:24:31Z</time>
      </trkpt>
      <trkpt lat="43.58336" lon="1.35124">
        <ele>148.4</ele>
        <time>2025-10-18T10:24:32Z</time>
      </trkpt>
      <trkpt lat="43.58332" lon="1.35116">
        <ele>148.6</ele>
        <time>2025-10-18T10:24:33Z</time>
      </trkpt>
      <trkpt lat="43.58329" lon="1.35109">
        <ele>148.6</ele>
        <time>2025-10-18T10:24:34Z</time>
      </trkpt>
      <trkpt lat="43.58325" lon="1.35103">
        <ele>149</ele>
        <time>2025-10-18T10:24:35Z</time>
      </trkpt>
      <trkpt lat="43.58321" lon="1.35097">
        <ele>149.2</ele>
        <time>2025-10-18T10:24:36Z</time>
      </trkpt>
      <trkpt lat="43.58317" lon="1.35092">
        <ele>149.4</ele>
        <time>2025-10-18T10:24:37Z</time>
      </trkpt>
      <trkpt lat="43.58312" lon="1.35088">
        <ele>149.6</ele>
        <time>2025-10-18T10:24:38Z</time>
      </trkpt>
      <trkpt lat="43.58307" lon="1.35086">
        <ele>149.8</ele>
        <time>2025-10-18T10:24:39Z</time>
      </trkpt>
      <trkpt lat="43.58301" lon="1.35085">
        <ele>149.8</ele>
        <time>2025-10-18T10:24:40Z</time>
      </trkpt>
      <trkpt lat="43.58296" lon="1.35086">
        <ele>149.6</ele>
        <time>2025-10-18T10:24:41Z</time>
      </trkpt>
      <trkpt lat="43.5829" lon="1.35088">
        <ele>149.4</ele>
        <time>2025-10-18T10:24:42Z</time>
      </trkpt>
      <trkpt lat="43.58285" lon="1.3509">
        <ele>149.2</ele>
        <time>2025-10-18T10:24:43Z</time>
      </trkpt>
      <trkpt lat="43.58279" lon="1.3509">
        <ele>149.2</ele>
        <time>2025-10-18T10:24:44Z</time>
      </trkpt>
      <trkpt lat="43.58273" lon="1.35089">
        <ele>149</ele>
        <time>2025-10-18T10:24:45Z</time>
      </trkpt>
      <trkpt lat="43.58267" lon="1.3509">
        <ele>149</ele>
        <time>2025-10-18T10:24:46Z</time>
      </trkpt>
      <trkpt lat="43.58262" lon="1.35089">
        <ele>148.8</ele>
        <time>2025-10-18T10:24:47Z</time>
      </trkpt>
      <trkpt lat="43.58256" lon="1.35089">
        <ele>148.8</ele>
        <time>2025-10-18T10:24:48Z</time>
      </trkpt>
      <trkpt lat="43.58251" lon="1.3509">
        <ele>148.6</ele>
        <time>2025-10-18T10:24:49Z</time>
      </trkpt>
      <trkpt lat="43.58245" lon="1.35092">
        <ele>148.8</ele>
        <time>2025-10-18T10:24:50Z</time>
      </trkpt>
      <trkpt lat="43.5824" lon="1.35094">
        <ele>148.8</ele>
        <time>2025-10-18T10:24:51Z</time>
      </trkpt>
      <trkpt lat="43.58235" lon="1.35096">
        <ele>149</ele>
        <time>2025-10-18T10:24:52Z</time>
      </trkpt>
      <trkpt lat="43.58232" lon="1.35099">
        <ele>149.2</ele>
        <time>2025-10-18T10:24:53Z</time>
      </trkpt>
      <trkpt lat="43.58228" lon="1.35101">
        <ele>149.4</ele>
        <time>2025-10-18T10:24:54Z</time>
      </trkpt>
      <trkpt lat="43.58225" lon="1.35099">
        <ele>149.8</ele>
        <time>2025-10-18T10:24:55Z</time>
      </trkpt>
      <trkpt lat="43.58222" lon="1.35096">
        <ele>150.2</ele>
        <time>2025-10-18T10:24:56Z</time>
      </trkpt>
      <trkpt lat="43.5822" lon="1.35092">
        <ele>150.6</ele>
        <time>2025-10-18T10:24:57Z</time>
      </trkpt>
      <trkpt lat="43.58219" lon="1.35087">
        <ele>150.8</ele>
        <time>2025-10-18T10:24:58Z</time>
      </trkpt>
      <trkpt lat="43.58217" lon="1.35082">
        <ele>151</ele>
        <time>2025-10-18T10:24:59Z</time>
      </trkpt>
      <trkpt lat="43.58214" lon="1.35077">
        <ele>151.2</ele>
        <time>2025-10-18T10:25:00Z</time>
      </trkpt>
      <trkpt lat="43.5821" lon="1.35075">
        <ele>151.2</ele>
        <time>2025-10-18T10:25:01Z</time>
      </trkpt>
      <trkpt lat="43.58205" lon="1.35072">
        <ele>151</ele>
        <time>2025-10-18T10:25:02Z</time>
      </trkpt>
      <trkpt lat="43.58201" lon="1.35068">
        <ele>151</ele>
        <time>2025-10-18T10:25:03Z</time>
      </trkpt>
      <trkpt lat="43.58197" lon="1.35064">
        <ele>150.8</ele>
        <time>2025-10-18T10:25:04Z</time>
      </trkpt>
      <trkpt lat="43.58193" lon="1.3506">
        <ele>150.6</ele>
        <time>2025-10-18T10:25:05Z</time>
      </trkpt>
      <trkpt lat="43.58188" lon="1.35056">
        <ele>150.4</ele>
        <time>2025-10-18T10:25:06Z</time>
      </trkpt>
      <trkpt lat="43.58185" lon="1.35051">
        <ele>150.4</ele>
        <time>2025-10-18T10:25:07Z</time>
      </trkpt>
      <trkpt lat="43.58182" lon="1.35045">
        <ele>150.2</ele>
        <time>2025-10-18T10:25:08Z</time>
      </trkpt>
      <trkpt lat="43.5818" lon="1.35041">
        <ele>150.4</ele>
        <time>2025-10-18T10:25:09Z</time>
      </trkpt>
      <trkpt lat="43.58178" lon="1.35036">
        <ele>150.4</ele>
        <time>2025-10-18T10:25:10Z</time>
      </trkpt>
      <trkpt lat="43.58175" lon="1.35031">
        <ele>150.6</ele>
        <time>2025-10-18T10:25:11Z</time>
      </trkpt>
      <trkpt lat="43.58173" lon="1.35027">
        <ele>150.8</ele>
        <time>2025-10-18T10:25:12Z</time>
      </trkpt>
      <trkpt lat="43.58168" lon="1.35023">
        <ele>150.8</ele>
        <time>2025-10-18T10:25:13Z</time>
      </trkpt>
      <trkpt lat="43.58164" lon="1.35024">
        <ele>150.8</ele>
        <time>2025-10-18T10:25:14Z</time>
      </trkpt>
      <trkpt lat="43.58159" lon="1.35026">
        <ele>150.8</ele>
        <time>2025-10-18T10:25:15Z</time>
      </trkpt>
      <trkpt lat="43.58154" lon="1.35029">
        <ele>150.6</ele>
        <time>2025-10-18T10:25:16Z</time>
      </trkpt>
      <trkpt lat="43.58149" lon="1.35031">
        <ele>150.4</ele>
        <time>2025-10-18T10:25:17Z</time>
      </trkpt>
      <trkpt lat="43.58144" lon="1.35034">
        <ele>150.4</ele>
        <time>2025-10-18T10:25:18Z</time>
      </trkpt>
      <trkpt lat="43.58139" lon="1.35034">
        <ele>150.4</ele>
        <time>2025-10-18T10:25:19Z</time>
      </trkpt>
      <trkpt lat="43.58134" lon="1.35033">
        <ele>150.2</ele>
        <time>2025-10-18T10:25:20Z</time>
      </trkpt>
      <trkpt lat="43.58129" lon="1.3503">
        <ele>150.2</ele>
        <time>2025-10-18T10:25:21Z</time>
      </trkpt>
      <trkpt lat="43.58124" lon="1.35026">
        <ele>150.2</ele>
        <time>2025-10-18T10:25:22Z</time>
      </trkpt>
      <trkpt lat="43.58119" lon="1.35023">
        <ele>150</ele>
        <time>2025-10-18T10:25:23Z</time>
      </trkpt>
      <trkpt lat="43.58114" lon="1.3502">
        <ele>149.8</ele>
        <time>2025-10-18T10:25:24Z</time>
      </trkpt>
      <trkpt lat="43.58108" lon="1.35016">
        <ele>149.4</ele>
        <time>2025-10-18T10:25:25Z</time>
      </trkpt>
      <trkpt lat="43.58102" lon="1.35015">
        <ele>149.2</ele>
        <time>2025-10-18T10:25:26Z</time>
      </trkpt>
      <trkpt lat="43.58097" lon="1.35014">
        <ele>149.2</ele>
        <time>2025-10-18T10:25:27Z</time>
      </trkpt>
      <trkpt lat="43.58091" lon="1.35012">
        <ele>149.2</ele>
        <time>2025-10-18T10:25:28Z</time>
      </trkpt>
      <trkpt lat="43.58085" lon="1.35011">
        <ele>149.2</ele>
        <time>2025-10-18T10:25:29Z</time>
      </trkpt>
      <trkpt lat="43.58079" lon="1.35009">
        <ele>149.4</ele>
        <time>2025-10-18T10:25:30Z</time>
      </trkpt>
      <trkpt lat="43.58073" lon="1.35007">
        <ele>149.4</ele>
        <time>2025-10-18T10:25:31Z</time>
      </trkpt>
      <trkpt lat="43.58067" lon="1.35004">
        <ele>149.4</ele>
        <time>2025-10-18T10:25:32Z</time>
      </trkpt>
      <trkpt lat="43.58062" lon="1.35002">
        <ele>149.4</ele>
        <time>2025-10-18T10:25:33Z</time>
      </trkpt>
      <trkpt lat="43.58056" lon="1.35">
        <ele>149.4</ele>
        <time>2025-10-18T10:25:34Z</time>
      </trkpt>
      <trkpt lat="43.5805" lon="1.34997">
        <ele>149.4</ele>
        <time>2025-10-18T10:25:35Z</time>
      </trkpt>
      <trkpt lat="43.58044" lon="1.34994">
        <ele>149.4</ele>
        <time>2025-10-18T10:25:36Z</time>
      </trkpt>
      <trkpt lat="43.58039" lon="1.34991">
        <ele>149.4</ele>
        <time>2025-10-18T10:25:37Z</time>
      </trkpt>
      <trkpt lat="43.58033" lon="1.34988">
        <ele>149.6</ele>
        <time>2025-10-18T10:25:38Z</time>
      </trkpt>
      <trkpt lat="43.58027" lon="1.34985">
        <ele>149.6</ele>
        <time>2025-10-18T10:25:39Z</time>
      </trkpt>
      <trkpt lat="43.58021" lon="1.34982">
        <ele>149.8</ele>
        <time>2025-10-18T10:25:40Z</time>
      </trkpt>
      <trkpt lat="43.58016" lon="1.34978">
        <ele>150</ele>
        <time>2025-10-18T10:25:41Z</time>
      </trkpt>
      <trkpt lat="43.58011" lon="1.34973">
        <ele>150</ele>
        <time>2025-10-18T10:25:42Z</time>
      </trkpt>
      <trkpt lat="43.58006" lon="1.34969">
        <ele>150.2</ele>
        <time>2025-10-18T10:25:43Z</time>
      </trkpt>
      <trkpt lat="43.58001" lon="1.34963">
        <ele>150.4</ele>
        <time>2025-10-18T10:25:44Z</time>
      </trkpt>
      <trkpt lat="43.57997" lon="1.34957">
        <ele>150.6</ele>
        <time>2025-10-18T10:25:45Z</time>
      </trkpt>
      <trkpt lat="43.57992" lon="1.34951">
        <ele>150.8</ele>
        <time>2025-10-18T10:25:46Z</time>
      </trkpt>
      <trkpt lat="43.57988" lon="1.34944">
        <ele>151</ele>
        <time>2025-10-18T10:25:47Z</time>
      </trkpt>
      <trkpt lat="43.57984" lon="1.34939">
        <ele>151</ele>
        <time>2025-10-18T10:25:48Z</time>
      </trkpt>
      <trkpt lat="43.57979" lon="1.34934">
        <ele>151.2</ele>
        <time>2025-10-18T10:25:49Z</time>
      </trkpt>
      <trkpt lat="43.57974" lon="1.34929">
        <ele>151.2</ele>
        <time>2025-10-18T10:25:50Z</time>
      </trkpt>
      <trkpt lat="43.57969" lon="1.34924">
        <ele>151</ele>
        <time>2025-10-18T10:25:51Z</time>
      </trkpt>
      <trkpt lat="43.57963" lon="1.3492">
        <ele>151</ele>
        <time>2025-10-18T10:25:52Z</time>
      </trkpt>
      <trkpt lat="43.57957" lon="1.34915">
        <ele>151</ele>
        <time>2025-10-18T10:25:53Z</time>
      </trkpt>
      <trkpt lat="43.57951" lon="1.34912">
        <ele>151</ele>
        <time>2025-10-18T10:25:54Z</time>
      </trkpt>
      <trkpt lat="43.57946" lon="1.34908">
        <ele>150.8</ele>
        <time>2025-10-18T10:25:55Z</time>
      </trkpt>
      <trkpt lat="43.5794" lon="1.34904">
        <ele>150.8</ele>
        <time>2025-10-18T10:25:56Z</time>
      </trkpt>
      <trkpt lat="43.57934" lon="1.349">
        <ele>150.8</ele>
        <time>2025-10-18T10:25:57Z</time>
      </trkpt>
      <trkpt lat="43.57929" lon="1.34895">
        <ele>150.6</ele>
        <time>2025-10-18T10:25:58Z</time>
      </trkpt>
      <trkpt lat="43.57923" lon="1.3489">
        <ele>150.6</ele>
        <time>2025-10-18T10:25:59Z</time>
      </trkpt>
      <trkpt lat="43.57918" lon="1.34885">
        <ele>150.4</ele>
        <time>2025-10-18T10:26:00Z</time>
      </trkpt>
      <trkpt lat="43.57913" lon="1.34879">
        <ele>150.4</ele>
        <time>2025-10-18T10:26:01Z</time>
      </trkpt>
      <trkpt lat="43.57909" lon="1.34874">
        <ele>150.4</ele>
        <time>2025-10-18T10:26:02Z</time>
      </trkpt>
      <trkpt lat="43.57904" lon="1.34868">
        <ele>150.6</ele>
        <time>2025-10-18T10:26:03Z</time>
      </trkpt>
      <trkpt lat="43.57899" lon="1.34862">
        <ele>150.6</ele>
        <time>2025-10-18T10:26:04Z</time>
      </trkpt>
      <trkpt lat="43.57894" lon="1.34856">
        <ele>150.6</ele>
        <time>2025-10-18T10:26:05Z</time>
      </trkpt>
      <trkpt lat="43.57888" lon="1.34851">
        <ele>150.6</ele>
        <time>2025-10-18T10:26:06Z</time>
      </trkpt>
      <trkpt lat="43.57883" lon="1.34846">
        <ele>150.6</ele>
        <time>2025-10-18T10:26:07Z</time>
      </trkpt>
      <trkpt lat="43.57877" lon="1.34842">
        <ele>150.6</ele>
        <time>2025-10-18T10:26:08Z</time>
      </trkpt>
      <trkpt lat="43.57871" lon="1.34838">
        <ele>150.6</ele>
        <time>2025-10-18T10:26:09Z</time>
      </trkpt>
      <trkpt lat="43.57866" lon="1.34836">
        <ele>150.6</ele>
        <time>2025-10-18T10:26:10Z</time>
      </trkpt>
      <trkpt lat="43.57861" lon="1.34831">
        <ele>150.6</ele>
        <time>2025-10-18T10:26:11Z</time>
      </trkpt>
      <trkpt lat="43.57857" lon="1.34825">
        <ele>150.8</ele>
        <time>2025-10-18T10:26:12Z</time>
      </trkpt>
      <trkpt lat="43.57854" lon="1.34819">
        <ele>151</ele>
        <time>2025-10-18T10:26:13Z</time>
      </trkpt>
      <trkpt lat="43.5785" lon="1.34813">
        <ele>151</ele>
        <time>2025-10-18T10:26:14Z</time>
      </trkpt>
      <trkpt lat="43.57847" lon="1.34807">
        <ele>151.2</ele>
        <time>2025-10-18T10:26:15Z</time>
      </trkpt>
      <trkpt lat="43.57844" lon="1.34801">
        <ele>151.4</ele>
        <time>2025-10-18T10:26:16Z</time>
      </trkpt>
      <trkpt lat="43.57841" lon="1.34795">
        <ele>151.4</ele>
        <time>2025-10-18T10:26:17Z</time>
      </trkpt>
      <trkpt lat="43.57838" lon="1.34789">
        <ele>151.4</ele>
        <time>2025-10-18T10:26:18Z</time>
      </trkpt>
      <trkpt lat="43.57834" lon="1.34784">
        <ele>151.4</ele>
        <time>2025-10-18T10:26:19Z</time>
      </trkpt>
      <trkpt lat="43.57831" lon="1.34777">
        <ele>151.2</ele>
        <time>2025-10-18T10:26:20Z</time>
      </trkpt>
      <trkpt lat="43.57827" lon="1.3477">
        <ele>151.2</ele>
        <time>2025-10-18T10:26:21Z</time>
      </trkpt>
      <trkpt lat="43.57824" lon="1.34763">
        <ele>151.2</ele>
        <time>2025-10-18T10:26:22Z</time>
      </trkpt>
      <trkpt lat="43.5782" lon="1.34756">
        <ele>151.2</ele>
        <time>2025-10-18T10:26:23Z</time>
      </trkpt>
      <trkpt lat="43.57817" lon="1.34749">
        <ele>151.2</ele>
        <time>2025-10-18T10:26:24Z</time>
      </trkpt>
      <trkpt lat="43.57814" lon="1.34742">
        <ele>151.2</ele>
        <time>2025-10-18T10:26:25Z</time>
      </trkpt>
      <trkpt lat="43.5781" lon="1.34736">
        <ele>151.4</ele>
        <time>2025-10-18T10:26:26Z</time>
      </trkpt>
      <trkpt lat="43.57807" lon="1.3473">
        <ele>151.6</ele>
        <time>2025-10-18T10:26:27Z</time>
      </trkpt>
      <trkpt lat="43.57804" lon="1.34723">
        <ele>151.6</ele>
        <time>2025-10-18T10:26:28Z</time>
      </trkpt>
      <trkpt lat="43.578" lon="1.34715">
        <ele>151.6</ele>
        <time>2025-10-18T10:26:29Z</time>
      </trkpt>
      <trkpt lat="43.57798" lon="1.34708">
        <ele>151.8</ele>
        <time>2025-10-18T10:26:30Z</time>
      </trkpt>
      <trkpt lat="43.57795" lon="1.34701">
        <ele>151.8</ele>
        <time>2025-10-18T10:26:31Z</time>
      </trkpt>
      <trkpt lat="43.57793" lon="1.34692">
        <ele>152</ele>
        <time>2025-10-18T10:26:32Z</time>
      </trkpt>
      <trkpt lat="43.5779" lon="1.34684">
        <ele>152</ele>
        <time>2025-10-18T10:26:33Z</time>
      </trkpt>
      <trkpt lat="43.57788" lon="1.34676">
        <ele>151.8</ele>
        <time>2025-10-18T10:26:34Z</time>
      </trkpt>
      <trkpt lat="43.57787" lon="1.34667">
        <ele>151.8</ele>
        <time>2025-10-18T10:26:35Z</time>
      </trkpt>
      <trkpt lat="43.57786" lon="1.34658">
        <ele>151.8</ele>
        <time>2025-10-18T10:26:36Z</time>
      </trkpt>
      <trkpt lat="43.57785" lon="1.34649">
        <ele>151.6</ele>
        <time>2025-10-18T10:26:37Z</time>
      </trkpt>
      <trkpt lat="43.57784" lon="1.34639">
        <ele>151.6</ele>
        <time>2025-10-18T10:26:38Z</time>
      </trkpt>
      <trkpt lat="43.57783" lon="1.3463">
        <ele>151.6</ele>
        <time>2025-10-18T10:26:39Z</time>
      </trkpt>
      <trkpt lat="43.57781" lon="1.34621">
        <ele>151.6</ele>
        <time>2025-10-18T10:26:40Z</time>
      </trkpt>
      <trkpt lat="43.5778" lon="1.34612">
        <ele>151.6</ele>
        <time>2025-10-18T10:26:41Z</time>
      </trkpt>
      <trkpt lat="43.57779" lon="1.34603">
        <ele>151.6</ele>
        <time>2025-10-18T10:26:42Z</time>
      </trkpt>
      <trkpt lat="43.57778" lon="1.34594">
        <ele>151.6</ele>
        <time>2025-10-18T10:26:43Z</time>
      </trkpt>
      <trkpt lat="43.57778" lon="1.34584">
        <ele>151.6</ele>
        <time>2025-10-18T10:26:44Z</time>
      </trkpt>
      <trkpt lat="43.57778" lon="1.34575">
        <ele>151.6</ele>
        <time>2025-10-18T10:26:45Z</time>
      </trkpt>
      <trkpt lat="43.57779" lon="1.34565">
        <ele>151.6</ele>
        <time>2025-10-18T10:26:46Z</time>
      </trkpt>
      <trkpt lat="43.57781" lon="1.34556">
        <ele>151.6</ele>
        <time>2025-10-18T10:26:47Z</time>
      </trkpt>
      <trkpt lat="43.57783" lon="1.34546">
        <ele>151.4</ele>
        <time>2025-10-18T10:26:48Z</time>
      </trkpt>
      <trkpt lat="43.57785" lon="1.34536">
        <ele>151.2</ele>
        <time>2025-10-18T10:26:49Z</time>
      </trkpt>
      <trkpt lat="43.57786" lon="1.34526">
        <ele>151</ele>
        <time>2025-10-18T10:26:50Z</time>
      </trkpt>
      <trkpt lat="43.57787" lon="1.34515">
        <ele>150.8</ele>
        <time>2025-10-18T10:26:51Z</time>
      </trkpt>
      <trkpt lat="43.57789" lon="1.34505">
        <ele>150.6</ele>
        <time>2025-10-18T10:26:52Z</time>
      </trkpt>
      <trkpt lat="43.5779" lon="1.34496">
        <ele>150.6</ele>
        <time>2025-10-18T10:26:53Z</time>
      </trkpt>
      <trkpt lat="43.57791" lon="1.34487">
        <ele>150.6</ele>
        <time>2025-10-18T10:26:54Z</time>
      </trkpt>
      <trkpt lat="43.57793" lon="1.34478">
        <ele>150.6</ele>
        <time>2025-10-18T10:26:55Z</time>
      </trkpt>
      <trkpt lat="43.57795" lon="1.34469">
        <ele>150.6</ele>
        <time>2025-10-18T10:26:56Z</time>
      </trkpt>
      <trkpt lat="43.57797" lon="1.34461">
        <ele>150.8</ele>
        <time>2025-10-18T10:26:57Z</time>
      </trkpt>
      <trkpt lat="43.57799" lon="1.34452">
        <ele>150.8</ele>
        <time>2025-10-18T10:26:58Z</time>
      </trkpt>
      <trkpt lat="43.57801" lon="1.34444">
        <ele>150.8</ele>
        <time>2025-10-18T10:26:59Z</time>
      </trkpt>
      <trkpt lat="43.57804" lon="1.34435">
        <ele>151</ele>
        <time>2025-10-18T10:27:00Z</time>
      </trkpt>
      <trkpt lat="43.57806" lon="1.34427">
        <ele>151</ele>
        <time>2025-10-18T10:27:01Z</time>
      </trkpt>
      <trkpt lat="43.57808" lon="1.34419">
        <ele>151.2</ele>
        <time>2025-10-18T10:27:02Z</time>
      </trkpt>
      <trkpt lat="43.5781" lon="1.34411">
        <ele>151.4</ele>
        <time>2025-10-18T10:27:03Z</time>
      </trkpt>
      <trkpt lat="43.57811" lon="1.34404">
        <ele>151.6</ele>
        <time>2025-10-18T10:27:04Z</time>
      </trkpt>
      <trkpt lat="43.5781" lon="1.34396">
        <ele>151.8</ele>
        <time>2025-10-18T10:27:05Z</time>
      </trkpt>
      <trkpt lat="43.5781" lon="1.34388">
        <ele>152</ele>
        <time>2025-10-18T10:27:06Z</time>
      </trkpt>
      <trkpt lat="43.57809" lon="1.34381">
        <ele>152</ele>
        <time>2025-10-18T10:27:07Z</time>
      </trkpt>
      <trkpt lat="43.57806" lon="1.34374">
        <ele>152.2</ele>
        <time>2025-10-18T10:27:08Z</time>
      </trkpt>
      <trkpt lat="43.57802" lon="1.34368">
        <ele>152.2</ele>
        <time>2025-10-18T10:27:09Z</time>
      </trkpt>
      <trkpt lat="43.57797" lon="1.34363">
        <ele>152.4</ele>
        <time>2025-10-18T10:27:10Z</time>
      </trkpt>
      <trkpt lat="43.57792" lon="1.3436">
        <ele>152.4</ele>
        <time>2025-10-18T10:27:11Z</time>
      </trkpt>
      <trkpt lat="43.57787" lon="1.34358">
        <ele>152.6</ele>
        <time>2025-10-18T10:27:12Z</time>
      </trkpt>
      <trkpt lat="43.57781" lon="1.34356">
        <ele>152.8</ele>
        <time>2025-10-18T10:27:13Z</time>
      </trkpt>
      <trkpt lat="43.57774" lon="1.34357">
        <ele>152.8</ele>
        <time>2025-10-18T10:27:14Z</time>
      </trkpt>
      <trkpt lat="43.57768" lon="1.34358">
        <ele>152.8</ele>
        <time>2025-10-18T10:27:15Z</time>
      </trkpt>
      <trkpt lat="43.57763" lon="1.34359">
        <ele>152.8</ele>
        <time>2025-10-18T10:27:16Z</time>
      </trkpt>
      <trkpt lat="43.57758" lon="1.34361">
        <ele>152.8</ele>
        <time>2025-10-18T10:27:17Z</time>
      </trkpt>
      <trkpt lat="43.57752" lon="1.34364">
        <ele>152.8</ele>
        <time>2025-10-18T10:27:18Z</time>
      </trkpt>
      <trkpt lat="43.57747" lon="1.34366">
        <ele>152.8</ele>
        <time>2025-10-18T10:27:19Z</time>
      </trkpt>
      <trkpt lat="43.57742" lon="1.34368">
        <ele>153</ele>
        <time>2025-10-18T10:27:20Z</time>
      </trkpt>
      <trkpt lat="43.57738" lon="1.34367">
        <ele>153</ele>
        <time>2025-10-18T10:27:21Z</time>
      </trkpt>
      <trkpt lat="43.57736" lon="1.34362">
        <ele>153.4</ele>
        <time>2025-10-18T10:27:22Z</time>
      </trkpt>
      <trkpt lat="43.57738" lon="1.3436">
        <ele>153.8</ele>
        <time>2025-10-18T10:27:23Z</time>
      </trkpt>
      <trkpt lat="43.5774" lon="1.34358">
        <ele>154</ele>
        <time>2025-10-18T10:27:24Z</time>
      </trkpt>
      <trkpt lat="43.57744" lon="1.34357">
        <ele>154.2</ele>
        <time>2025-10-18T10:27:25Z</time>
      </trkpt>
      <trkpt lat="43.57747" lon="1.34355">
        <ele>154.4</ele>
        <time>2025-10-18T10:27:26Z</time>
      </trkpt>
      <trkpt lat="43.5775" lon="1.34353">
        <ele>154.6</ele>
        <time>2025-10-18T10:27:27Z</time>
      </trkpt>
      <trkpt lat="43.57754" lon="1.34351">
        <ele>154.6</ele>
        <time>2025-10-18T10:27:28Z</time>
      </trkpt>
      <trkpt lat="43.57759" lon="1.34349">
        <ele>154.6</ele>
        <time>2025-10-18T10:27:29Z</time>
      </trkpt>
      <trkpt lat="43.57763" lon="1.34347">
        <ele>154.6</ele>
        <time>2025-10-18T10:27:30Z</time>
      </trkpt>
      <trkpt lat="43.57768" lon="1.34345">
        <ele>154.8</ele>
        <time>2025-10-18T10:27:31Z</time>
      </trkpt>
      <trkpt lat="43.57772" lon="1.34343">
        <ele>154.8</ele>
        <time>2025-10-18T10:27:32Z</time>
      </trkpt>
      <trkpt lat="43.57777" lon="1.34341">
        <ele>154.8</ele>
        <time>2025-10-18T10:27:33Z</time>
      </trkpt>
      <trkpt lat="43.5778" lon="1.34337">
        <ele>155.2</ele>
        <time>2025-10-18T10:27:34Z</time>
      </trkpt>
      <trkpt lat="43.57782" lon="1.34334">
        <ele>155.4</ele>
        <time>2025-10-18T10:27:35Z</time>
      </trkpt>
      <trkpt lat="43.57784" lon="1.34329">
        <ele>155.8</ele>
        <time>2025-10-18T10:27:36Z</time>
      </trkpt>
      <trkpt lat="43.57786" lon="1.34325">
        <ele>156</ele>
        <time>2025-10-18T10:27:37Z</time>
      </trkpt>
      <trkpt lat="43.57788" lon="1.3432">
        <ele>156.2</ele>
        <time>2025-10-18T10:27:38Z</time>
      </trkpt>
      <trkpt lat="43.57791" lon="1.34316">
        <ele>156.4</ele>
        <time>2025-10-18T10:27:39Z</time>
      </trkpt>
      <trkpt lat="43.57793" lon="1.34313">
        <ele>156.6</ele>
        <time>2025-10-18T10:27:40Z</time>
      </trkpt>
      <trkpt lat="43.57795" lon="1.3431">
        <ele>156.6</ele>
        <time>2025-10-18T10:27:41Z</time>
      </trkpt>
      <trkpt lat="43.57797" lon="1.34308">
        <ele>156.6</ele>
        <time>2025-10-18T10:27:42Z</time>
      </trkpt>
      <trkpt lat="43.57797" lon="1.34306">
        <ele>156.8</ele>
        <time>2025-10-18T10:27:43Z</time>
      </trkpt>
      <trkpt lat="43.57796" lon="1.34304">
        <ele>156.8</ele>
        <time>2025-10-18T10:27:44Z</time>
      </trkpt>
      <trkpt lat="43.57794" lon="1.34303">
        <ele>156.8</ele>
        <time>2025-10-18T10:27:45Z</time>
      </trkpt>
      <trkpt lat="43.57791" lon="1.34302">
        <ele>156.8</ele>
        <time>2025-10-18T10:27:46Z</time>
      </trkpt>
      <trkpt lat="43.57788" lon="1.343">
        <ele>156.6</ele>
        <time>2025-10-18T10:27:47Z</time>
      </trkpt>
      <trkpt lat="43.57784" lon="1.34298">
        <ele>156.4</ele>
        <time>2025-10-18T10:27:48Z</time>
      </trkpt>
      <trkpt lat="43.57779" lon="1.34296">
        <ele>156.2</ele>
        <time>2025-10-18T10:27:49Z</time>
      </trkpt>
      <trkpt lat="43.57774" lon="1.34293">
        <ele>155.8</ele>
        <time>2025-10-18T10:27:50Z</time>
      </trkpt>
      <trkpt lat="43.57769" lon="1.3429">
        <ele>155.4</ele>
        <time>2025-10-18T10:27:51Z</time>
      </trkpt>
      <trkpt lat="43.57763" lon="1.34287">
        <ele>155</ele>
        <time>2025-10-18T10:27:52Z</time>
      </trkpt>
      <trkpt lat="43.57757" lon="1.34286">
        <ele>154.8</ele>
        <time>2025-10-18T10:27:53Z</time>
      </trkpt>
      <trkpt lat="43.57751" lon="1.34285">
        <ele>154.4</ele>
        <time>2025-10-18T10:27:54Z</time>
      </trkpt>
      <trkpt lat="43.57746" lon="1.34285">
        <ele>154.2</ele>
        <time>2025-10-18T10:27:55Z</time>
      </trkpt>
      <trkpt lat="43.57741" lon="1.34285">
        <ele>154</ele>
        <time>2025-10-18T10:27:56Z</time>
      </trkpt>
      <trkpt lat="43.57737" lon="1.34282">
        <ele>154</ele>
        <time>2025-10-18T10:27:57Z</time>
      </trkpt>
      <trkpt lat="43.57736" lon="1.34279">
        <ele>154</ele>
        <time>2025-10-18T10:27:58Z</time>
      </trkpt>
      <trkpt lat="43.57734" lon="1.34275">
        <ele>154</ele>
        <time>2025-10-18T10:27:59Z</time>
      </trkpt>
      <trkpt lat="43.57731" lon="1.34273">
        <ele>154.2</ele>
        <time>2025-10-18T10:28:00Z</time>
      </trkpt>
      <trkpt lat="43.57728" lon="1.34273">
        <ele>154.4</ele>
        <time>2025-10-18T10:28:01Z</time>
      </trkpt>
      <trkpt lat="43.57724" lon="1.34272">
        <ele>154.4</ele>
        <time>2025-10-18T10:28:02Z</time>
      </trkpt>
      <trkpt lat="43.5772" lon="1.3427">
        <ele>154.6</ele>
        <time>2025-10-18T10:28:03Z</time>
      </trkpt>
      <trkpt lat="43.57715" lon="1.34269">
        <ele>154.8</ele>
        <time>2025-10-18T10:28:04Z</time>
      </trkpt>
      <trkpt lat="43.57711" lon="1.34267">
        <ele>154.8</ele>
        <time>2025-10-18T10:28:05Z</time>
      </trkpt>
      <trkpt lat="43.57706" lon="1.34265">
        <ele>154.8</ele>
        <time>2025-10-18T10:28:06Z</time>
      </trkpt>
      <trkpt lat="43.57701" lon="1.34262">
        <ele>154.8</ele>
        <time>2025-10-18T10:28:07Z</time>
      </trkpt>
      <trkpt lat="43.57696" lon="1.34261">
        <ele>154.8</ele>
        <time>2025-10-18T10:28:08Z</time>
      </trkpt>
      <trkpt lat="43.57691" lon="1.34259">
        <ele>154.6</ele>
        <time>2025-10-18T10:28:09Z</time>
      </trkpt>
      <trkpt lat="43.57686" lon="1.34257">
        <ele>154.8</ele>
        <time>2025-10-18T10:28:10Z</time>
      </trkpt>
      <trkpt lat="43.57681" lon="1.34254">
        <ele>154.8</ele>
        <time>2025-10-18T10:28:11Z</time>
      </trkpt>
      <trkpt lat="43.57677" lon="1.3425">
        <ele>154.8</ele>
        <time>2025-10-18T10:28:12Z</time>
      </trkpt>
      <trkpt lat="43.57673" lon="1.34245">
        <ele>155</ele>
        <time>2025-10-18T10:28:13Z</time>
      </trkpt>
      <trkpt lat="43.57668" lon="1.3424">
        <ele>155</ele>
        <time>2025-10-18T10:28:14Z</time>
      </trkpt>
      <trkpt lat="43.57663" lon="1.34235">
        <ele>155</ele>
        <time>2025-10-18T10:28:15Z</time>
      </trkpt>
      <trkpt lat="43.57659" lon="1.3423">
        <ele>155</ele>
        <time>2025-10-18T10:28:16Z</time>
      </trkpt>
      <trkpt lat="43.57654" lon="1.34224">
        <ele>154.8</ele>
        <time>2025-10-18T10:28:17Z</time>
      </trkpt>
      <trkpt lat="43.5765" lon="1.34218">
        <ele>154.8</ele>
        <time>2025-10-18T10:28:18Z</time>
      </trkpt>
      <trkpt lat="43.57645" lon="1.34211">
        <ele>154.8</ele>
        <time>2025-10-18T10:28:19Z</time>
      </trkpt>
      <trkpt lat="43.57641" lon="1.34204">
        <ele>154.6</ele>
        <time>2025-10-18T10:28:20Z</time>
      </trkpt>
      <trkpt lat="43.57637" lon="1.34198">
        <ele>154.6</ele>
        <time>2025-10-18T10:28:21Z</time>
      </trkpt>
      <trkpt lat="43.57633" lon="1.34192">
        <ele>154.6</ele>
        <time>2025-10-18T10:28:22Z</time>
      </trkpt>
      <trkpt lat="43.57628" lon="1.34186">
        <ele>154.6</ele>
        <time>2025-10-18T10:28:23Z</time>
      </trkpt>
      <trkpt lat="43.57623" lon="1.34179">
        <ele>154.6</ele>
        <time>2025-10-18T10:28:24Z</time>
      </trkpt>
      <trkpt lat="43.57619" lon="1.34173">
        <ele>154.6</ele>
        <time>2025-10-18T10:28:25Z</time>
      </trkpt>
      <trkpt lat="43.57614" lon="1.34166">
        <ele>154.8</ele>
        <time>2025-10-18T10:28:26Z</time>
      </trkpt>
      <trkpt lat="43.57611" lon="1.34159">
        <ele>154.6</ele>
        <time>2025-10-18T10:28:27Z</time>
      </trkpt>
      <trkpt lat="43.57608" lon="1.34151">
        <ele>154.6</ele>
        <time>2025-10-18T10:28:28Z</time>
      </trkpt>
      <trkpt lat="43.57607" lon="1.34142">
        <ele>154.4</ele>
        <time>2025-10-18T10:28:29Z</time>
      </trkpt>
      <trkpt lat="43.57607" lon="1.34132">
        <ele>154.4</ele>
        <time>2025-10-18T10:28:30Z</time>
      </trkpt>
      <trkpt lat="43.57607" lon="1.34123">
        <ele>154.2</ele>
        <time>2025-10-18T10:28:31Z</time>
      </trkpt>
      <trkpt lat="43.57608" lon="1.34115">
        <ele>154.4</ele>
        <time>2025-10-18T10:28:32Z</time>
      </trkpt>
      <trkpt lat="43.57609" lon="1.34107">
        <ele>154.4</ele>
        <time>2025-10-18T10:28:33Z</time>
      </trkpt>
      <trkpt lat="43.5761" lon="1.34099">
        <ele>154.6</ele>
        <time>2025-10-18T10:28:34Z</time>
      </trkpt>
      <trkpt lat="43.57611" lon="1.34091">
        <ele>154.6</ele>
        <time>2025-10-18T10:28:35Z</time>
      </trkpt>
      <trkpt lat="43.57611" lon="1.34083">
        <ele>154.6</ele>
        <time>2025-10-18T10:28:36Z</time>
      </trkpt>
      <trkpt lat="43.57612" lon="1.34074">
        <ele>154.6</ele>
        <time>2025-10-18T10:28:37Z</time>
      </trkpt>
      <trkpt lat="43.57614" lon="1.34065">
        <ele>154.8</ele>
        <time>2025-10-18T10:28:38Z</time>
      </trkpt>
      <trkpt lat="43.57616" lon="1.34058">
        <ele>154.8</ele>
        <time>2025-10-18T10:28:39Z</time>
      </trkpt>
      <trkpt lat="43.57619" lon="1.34051">
        <ele>154.8</ele>
        <time>2025-10-18T10:28:40Z</time>
      </trkpt>
      <trkpt lat="43.57622" lon="1.34044">
        <ele>154.8</ele>
        <time>2025-10-18T10:28:41Z</time>
      </trkpt>
      <trkpt lat="43.57626" lon="1.34037">
        <ele>154.8</ele>
        <time>2025-10-18T10:28:42Z</time>
      </trkpt>
      <trkpt lat="43.57628" lon="1.34029">
        <ele>154.8</ele>
        <time>2025-10-18T10:28:43Z</time>
      </trkpt>
      <trkpt lat="43.57629" lon="1.34021">
        <ele>154.6</ele>
        <time>2025-10-18T10:28:44Z</time>
      </trkpt>
      <trkpt lat="43.57627" lon="1.34015">
        <ele>154.6</ele>
        <time>2025-10-18T10:28:45Z</time>
      </trkpt>
      <trkpt lat="43.57624" lon="1.3401">
        <ele>154.8</ele>
        <time>2025-10-18T10:28:46Z</time>
      </trkpt>
      <trkpt lat="43.57619" lon="1.34006">
        <ele>154.8</ele>
        <time>2025-10-18T10:28:47Z</time>
      </trkpt>
      <trkpt lat="43.57614" lon="1.34002">
        <ele>154.8</ele>
        <time>2025-10-18T10:28:48Z</time>
      </trkpt>
      <trkpt lat="43.57609" lon="1.33999">
        <ele>155</ele>
        <time>2025-10-18T10:28:49Z</time>
      </trkpt>
      <trkpt lat="43.57603" lon="1.33995">
        <ele>155</ele>
        <time>2025-10-18T10:28:50Z</time>
      </trkpt>
      <trkpt lat="43.57598" lon="1.3399">
        <ele>155</ele>
        <time>2025-10-18T10:28:51Z</time>
      </trkpt>
      <trkpt lat="43.57594" lon="1.33985">
        <ele>154.8</ele>
        <time>2025-10-18T10:28:52Z</time>
      </trkpt>
      <trkpt lat="43.57589" lon="1.33979">
        <ele>154.8</ele>
        <time>2025-10-18T10:28:53Z</time>
      </trkpt>
      <trkpt lat="43.57584" lon="1.33973">
        <ele>154.6</ele>
        <time>2025-10-18T10:28:54Z</time>
      </trkpt>
      <trkpt lat="43.57581" lon="1.33965">
        <ele>154.4</ele>
        <time>2025-10-18T10:28:55Z</time>
      </trkpt>
      <trkpt lat="43.5758" lon="1.33957">
        <ele>154.2</ele>
        <time>2025-10-18T10:28:56Z</time>
      </trkpt>
      <trkpt lat="43.5758" lon="1.33949">
        <ele>154.2</ele>
        <time>2025-10-18T10:28:57Z</time>
      </trkpt>
      <trkpt lat="43.57582" lon="1.33944">
        <ele>154.2</ele>
        <time>2025-10-18T10:28:58Z</time>
      </trkpt>
      <trkpt lat="43.57586" lon="1.3394">
        <ele>154.4</ele>
        <time>2025-10-18T10:28:59Z</time>
      </trkpt>
      <trkpt lat="43.57589" lon="1.33936">
        <ele>154.6</ele>
        <time>2025-10-18T10:29:00Z</time>
      </trkpt>
      <trkpt lat="43.57593" lon="1.33931">
        <ele>155</ele>
        <time>2025-10-18T10:29:01Z</time>
      </trkpt>
      <trkpt lat="43.57596" lon="1.33926">
        <ele>155.2</ele>
        <time>2025-10-18T10:29:02Z</time>
      </trkpt>
      <trkpt lat="43.576" lon="1.33922">
        <ele>155.4</ele>
        <time>2025-10-18T10:29:03Z</time>
      </trkpt>
      <trkpt lat="43.57604" lon="1.33918">
        <ele>155.4</ele>
        <time>2025-10-18T10:29:04Z</time>
      </trkpt>
      <trkpt lat="43.57608" lon="1.33912">
        <ele>155.2</ele>
        <time>2025-10-18T10:29:05Z</time>
      </trkpt>
      <trkpt lat="43.57611" lon="1.33906">
        <ele>155</ele>
        <time>2025-10-18T10:29:06Z</time>
      </trkpt>
      <trkpt lat="43.57614" lon="1.33898">
        <ele>154.8</ele>
        <time>2025-10-18T10:29:07Z</time>
      </trkpt>
      <trkpt lat="43.57617" lon="1.3389">
        <ele>154.4</ele>
        <time>2025-10-18T10:29:08Z</time>
      </trkpt>
      <trkpt lat="43.57618" lon="1.33881">
        <ele>154.2</ele>
        <time>2025-10-18T10:29:09Z</time>
      </trkpt>
      <trkpt lat="43.5762" lon="1.33872">
        <ele>154.2</ele>
        <time>2025-10-18T10:29:10Z</time>
      </trkpt>
      <trkpt lat="43.57621" lon="1.33863">
        <ele>154</ele>
        <time>2025-10-18T10:29:11Z</time>
      </trkpt>
      <trkpt lat="43.57622" lon="1.33854">
        <ele>154</ele>
        <time>2025-10-18T10:29:12Z</time>
      </trkpt>
      <trkpt lat="43.57623" lon="1.33845">
        <ele>154</ele>
        <time>2025-10-18T10:29:13Z</time>
      </trkpt>
      <trkpt lat="43.57623" lon="1.33837">
        <ele>154</ele>
        <time>2025-10-18T10:29:14Z</time>
      </trkpt>
      <trkpt lat="43.57624" lon="1.33829">
        <ele>154.2</ele>
        <time>2025-10-18T10:29:15Z</time>
      </trkpt>
      <trkpt lat="43.57624" lon="1.33821">
        <ele>154.2</ele>
        <time>2025-10-18T10:29:16Z</time>
      </trkpt>
      <trkpt lat="43.57626" lon="1.33814">
        <ele>154.4</ele>
        <time>2025-10-18T10:29:17Z</time>
      </trkpt>
      <trkpt lat="43.57627" lon="1.33809">
        <ele>154.8</ele>
        <time>2025-10-18T10:29:18Z</time>
      </trkpt>
      <trkpt lat="43.57629" lon="1.33803">
        <ele>155</ele>
        <time>2025-10-18T10:29:19Z</time>
      </trkpt>
      <trkpt lat="43.57629" lon="1.33797">
        <ele>155.2</ele>
        <time>2025-10-18T10:29:20Z</time>
      </trkpt>
      <trkpt lat="43.57629" lon="1.3379">
        <ele>155.2</ele>
        <time>2025-10-18T10:29:21Z</time>
      </trkpt>
      <trkpt lat="43.57629" lon="1.33782">
        <ele>155.2</ele>
        <time>2025-10-18T10:29:22Z</time>
      </trkpt>
      <trkpt lat="43.5763" lon="1.33774">
        <ele>155</ele>
        <time>2025-10-18T10:29:23Z</time>
      </trkpt>
      <trkpt lat="43.57631" lon="1.33765">
        <ele>154.8</ele>
        <time>2025-10-18T10:29:24Z</time>
      </trkpt>
      <trkpt lat="43.57631" lon="1.33756">
        <ele>154.6</ele>
        <time>2025-10-18T10:29:25Z</time>
      </trkpt>
      <trkpt lat="43.5763" lon="1.33747">
        <ele>154.2</ele>
        <time>2025-10-18T10:29:26Z</time>
      </trkpt>
      <trkpt lat="43.5763" lon="1.33738">
        <ele>154.2</ele>
        <time>2025-10-18T10:29:27Z</time>
      </trkpt>
      <trkpt lat="43.5763" lon="1.33729">
        <ele>154</ele>
        <time>2025-10-18T10:29:28Z</time>
      </trkpt>
      <trkpt lat="43.57629" lon="1.3372">
        <ele>153.8</ele>
        <time>2025-10-18T10:29:29Z</time>
      </trkpt>
      <trkpt lat="43.57629" lon="1.3371">
        <ele>153.8</ele>
        <time>2025-10-18T10:29:30Z</time>
      </trkpt>
      <trkpt lat="43.57628" lon="1.33701">
        <ele>153.6</ele>
        <time>2025-10-18T10:29:31Z</time>
      </trkpt>
      <trkpt lat="43.57628" lon="1.33692">
        <ele>153.6</ele>
        <time>2025-10-18T10:29:32Z</time>
      </trkpt>
      <trkpt lat="43.57627" lon="1.33683">
        <ele>153.8</ele>
        <time>2025-10-18T10:29:33Z</time>
      </trkpt>
      <trkpt lat="43.57626" lon="1.33673">
        <ele>153.8</ele>
        <time>2025-10-18T10:29:34Z</time>
      </trkpt>
      <trkpt lat="43.57626" lon="1.33664">
        <ele>153.8</ele>
        <time>2025-10-18T10:29:35Z</time>
      </trkpt>
      <trkpt lat="43.57625" lon="1.33655">
        <ele>153.8</ele>
        <time>2025-10-18T10:29:36Z</time>
      </trkpt>
      <trkpt lat="43.57625" lon="1.33645">
        <ele>153.8</ele>
        <time>2025-10-18T10:29:37Z</time>
      </trkpt>
      <trkpt lat="43.57624" lon="1.33636">
        <ele>153.8</ele>
        <time>2025-10-18T10:29:38Z</time>
      </trkpt>
      <trkpt lat="43.57623" lon="1.33627">
        <ele>153.6</ele>
        <time>2025-10-18T10:29:39Z</time>
      </trkpt>
      <trkpt lat="43.57623" lon="1.33618">
        <ele>153.8</ele>
        <time>2025-10-18T10:29:40Z</time>
      </trkpt>
      <trkpt lat="43.57622" lon="1.33609">
        <ele>153.8</ele>
        <time>2025-10-18T10:29:41Z</time>
      </trkpt>
      <trkpt lat="43.57621" lon="1.336">
        <ele>153.8</ele>
        <time>2025-10-18T10:29:42Z</time>
      </trkpt>
      <trkpt lat="43.5762" lon="1.33591">
        <ele>153.8</ele>
        <time>2025-10-18T10:29:43Z</time>
      </trkpt>
      <trkpt lat="43.57619" lon="1.33581">
        <ele>153.8</ele>
        <time>2025-10-18T10:29:44Z</time>
      </trkpt>
      <trkpt lat="43.57617" lon="1.33573">
        <ele>153.8</ele>
        <time>2025-10-18T10:29:45Z</time>
      </trkpt>
      <trkpt lat="43.57614" lon="1.33564">
        <ele>154</ele>
        <time>2025-10-18T10:29:46Z</time>
      </trkpt>
      <trkpt lat="43.57611" lon="1.33555">
        <ele>154.2</ele>
        <time>2025-10-18T10:29:47Z</time>
      </trkpt>
      <trkpt lat="43.57608" lon="1.33548">
        <ele>154.4</ele>
        <time>2025-10-18T10:29:48Z</time>
      </trkpt>
      <trkpt lat="43.57604" lon="1.3354">
        <ele>154.6</ele>
        <time>2025-10-18T10:29:49Z</time>
      </trkpt>
      <trkpt lat="43.57601" lon="1.33532">
        <ele>154.6</ele>
        <time>2025-10-18T10:29:50Z</time>
      </trkpt>
      <trkpt lat="43.57598" lon="1.33524">
        <ele>154.6</ele>
        <time>2025-10-18T10:29:51Z</time>
      </trkpt>
      <trkpt lat="43.57595" lon="1.33517">
        <ele>154.4</ele>
        <time>2025-10-18T10:29:52Z</time>
      </trkpt>
      <trkpt lat="43.57591" lon="1.33509">
        <ele>154.2</ele>
        <time>2025-10-18T10:29:53Z</time>
      </trkpt>
      <trkpt lat="43.57588" lon="1.33502">
        <ele>154</ele>
        <time>2025-10-18T10:29:54Z</time>
      </trkpt>
      <trkpt lat="43.57584" lon="1.33495">
        <ele>153.8</ele>
        <time>2025-10-18T10:29:55Z</time>
      </trkpt>
      <trkpt lat="43.5758" lon="1.33487">
        <ele>153.6</ele>
        <time>2025-10-18T10:29:56Z</time>
      </trkpt>
      <trkpt lat="43.57577" lon="1.3348">
        <ele>153.6</ele>
        <time>2025-10-18T10:29:57Z</time>
      </trkpt>
      <trkpt lat="43.57574" lon="1.33471">
        <ele>153.6</ele>
        <time>2025-10-18T10:29:58Z</time>
      </trkpt>
      <trkpt lat="43.57571" lon="1.33463">
        <ele>153.6</ele>
        <time>2025-10-18T10:29:59Z</time>
      </trkpt>
      <trkpt lat="43.57568" lon="1.33455">
        <ele>153.6</ele>
        <time>2025-10-18T10:30:00Z</time>
      </trkpt>
      <trkpt lat="43.57564" lon="1.33447">
        <ele>153.6</ele>
        <time>2025-10-18T10:30:01Z</time>
      </trkpt>
      <trkpt lat="43.57561" lon="1.33439">
        <ele>153.6</ele>
        <time>2025-10-18T10:30:02Z</time>
      </trkpt>
      <trkpt lat="43.57558" lon="1.33432">
        <ele>153.8</ele>
        <time>2025-10-18T10:30:03Z</time>
      </trkpt>
      <trkpt lat="43.57553" lon="1.33424">
        <ele>153.8</ele>
        <time>2025-10-18T10:30:04Z</time>
      </trkpt>
      <trkpt lat="43.57549" lon="1.33417">
        <ele>153.8</ele>
        <time>2025-10-18T10:30:05Z</time>
      </trkpt>
      <trkpt lat="43.57545" lon="1.33409">
        <ele>153.8</ele>
        <time>2025-10-18T10:30:06Z</time>
      </trkpt>
      <trkpt lat="43.57541" lon="1.33402">
        <ele>153.6</ele>
        <time>2025-10-18T10:30:07Z</time>
      </trkpt>
      <trkpt lat="43.57537" lon="1.33395">
        <ele>153.6</ele>
        <time>2025-10-18T10:30:08Z</time>
      </trkpt>
      <trkpt lat="43.57533" lon="1.33387">
        <ele>153.6</ele>
        <time>2025-10-18T10:30:09Z</time>
      </trkpt>
      <trkpt lat="43.57529" lon="1.3338">
        <ele>153.8</ele>
        <time>2025-10-18T10:30:10Z</time>
      </trkpt>
      <trkpt lat="43.57525" lon="1.33374">
        <ele>153.8</ele>
        <time>2025-10-18T10:30:11Z</time>
      </trkpt>
      <trkpt lat="43.5752" lon="1.33367">
        <ele>154</ele>
        <time>2025-10-18T10:30:12Z</time>
      </trkpt>
      <trkpt lat="43.57516" lon="1.3336">
        <ele>154</ele>
        <time>2025-10-18T10:30:13Z</time>
      </trkpt>
      <trkpt lat="43.57513" lon="1.33352">
        <ele>154</ele>
        <time>2025-10-18T10:30:14Z</time>
      </trkpt>
      <trkpt lat="43.57511" lon="1.33344">
        <ele>154</ele>
        <time>2025-10-18T10:30:15Z</time>
      </trkpt>
      <trkpt lat="43.5751" lon="1.33335">
        <ele>154</ele>
        <time>2025-10-18T10:30:16Z</time>
      </trkpt>
      <trkpt lat="43.57509" lon="1.33326">
        <ele>154</ele>
        <time>2025-10-18T10:30:17Z</time>
      </trkpt>
      <trkpt lat="43.57508" lon="1.33317">
        <ele>154</ele>
        <time>2025-10-18T10:30:18Z</time>
      </trkpt>
      <trkpt lat="43.57507" lon="1.33308">
        <ele>154</ele>
        <time>2025-10-18T10:30:19Z</time>
      </trkpt>
      <trkpt lat="43.57505" lon="1.33299">
        <ele>153.8</ele>
        <time>2025-10-18T10:30:20Z</time>
      </trkpt>
      <trkpt lat="43.57503" lon="1.3329">
        <ele>153.8</ele>
        <time>2025-10-18T10:30:21Z</time>
      </trkpt>
      <trkpt lat="43.57501" lon="1.33282">
        <ele>154</ele>
        <time>2025-10-18T10:30:22Z</time>
      </trkpt>
      <trkpt lat="43.57499" lon="1.33274">
        <ele>154</ele>
        <time>2025-10-18T10:30:23Z</time>
      </trkpt>
      <trkpt lat="43.57497" lon="1.33266">
        <ele>154</ele>
        <time>2025-10-18T10:30:24Z</time>
      </trkpt>
      <trkpt lat="43.57494" lon="1.33258">
        <ele>154.2</ele>
        <time>2025-10-18T10:30:25Z</time>
      </trkpt>
      <trkpt lat="43.57491" lon="1.3325">
        <ele>154.4</ele>
        <time>2025-10-18T10:30:26Z</time>
      </trkpt>
      <trkpt lat="43.57487" lon="1.33244">
        <ele>154.6</ele>
        <time>2025-10-18T10:30:27Z</time>
      </trkpt>
      <trkpt lat="43.57483" lon="1.33237">
        <ele>154.6</ele>
        <time>2025-10-18T10:30:28Z</time>
      </trkpt>
      <trkpt lat="43.5748" lon="1.3323">
        <ele>154.8</ele>
        <time>2025-10-18T10:30:29Z</time>
      </trkpt>
      <trkpt lat="43.57477" lon="1.33223">
        <ele>154.8</ele>
        <time>2025-10-18T10:30:30Z</time>
      </trkpt>
      <trkpt lat="43.57473" lon="1.33216">
        <ele>154.8</ele>
        <time>2025-10-18T10:30:31Z</time>
      </trkpt>
      <trkpt lat="43.57469" lon="1.33209">
        <ele>154.8</ele>
        <time>2025-10-18T10:30:32Z</time>
      </trkpt>
      <trkpt lat="43.57465" lon="1.33203">
        <ele>154.8</ele>
        <time>2025-10-18T10:30:33Z</time>
      </trkpt>
      <trkpt lat="43.5746" lon="1.33197">
        <ele>155</ele>
        <time>2025-10-18T10:30:34Z</time>
      </trkpt>
      <trkpt lat="43.57456" lon="1.33191">
        <ele>155</ele>
        <time>2025-10-18T10:30:35Z</time>
      </trkpt>
      <trkpt lat="43.57451" lon="1.33184">
        <ele>155.2</ele>
        <time>2025-10-18T10:30:36Z</time>
      </trkpt>
      <trkpt lat="43.57447" lon="1.33177">
        <ele>155.2</ele>
        <time>2025-10-18T10:30:37Z</time>
      </trkpt>
      <trkpt lat="43.57444" lon="1.3317">
        <ele>155.2</ele>
        <time>2025-10-18T10:30:38Z</time>
      </trkpt>
      <trkpt lat="43.57441" lon="1.33162">
        <ele>155.4</ele>
        <time>2025-10-18T10:30:39Z</time>
      </trkpt>
      <trkpt lat="43.5744" lon="1.33155">
        <ele>155.6</ele>
        <time>2025-10-18T10:30:40Z</time>
      </trkpt>
      <trkpt lat="43.57439" lon="1.33148">
        <ele>155.8</ele>
        <time>2025-10-18T10:30:41Z</time>
      </trkpt>
      <trkpt lat="43.57437" lon="1.33141">
        <ele>156</ele>
        <time>2025-10-18T10:30:42Z</time>
      </trkpt>
      <trkpt lat="43.57436" lon="1.33134">
        <ele>156.4</ele>
        <time>2025-10-18T10:30:43Z</time>
      </trkpt>
      <trkpt lat="43.57433" lon="1.33128">
        <ele>156.6</ele>
        <time>2025-10-18T10:30:44Z</time>
      </trkpt>
      <trkpt lat="43.5743" lon="1.33121">
        <ele>156.8</ele>
        <time>2025-10-18T10:30:45Z</time>
      </trkpt>
      <trkpt lat="43.57427" lon="1.33114">
        <ele>156.8</ele>
        <time>2025-10-18T10:30:46Z</time>
      </trkpt>
      <trkpt lat="43.57424" lon="1.33108">
        <ele>156.8</ele>
        <time>2025-10-18T10:30:47Z</time>
      </trkpt>
      <trkpt lat="43.57421" lon="1.33101">
        <ele>157</ele>
        <time>2025-10-18T10:30:48Z</time>
      </trkpt>
      <trkpt lat="43.57418" lon="1.33094">
        <ele>157</ele>
        <time>2025-10-18T10:30:49Z</time>
      </trkpt>
      <trkpt lat="43.57416" lon="1.33088">
        <ele>157.2</ele>
        <time>2025-10-18T10:30:50Z</time>
      </trkpt>
      <trkpt lat="43.57413" lon="1.33081">
        <ele>157.2</ele>
        <time>2025-10-18T10:30:51Z</time>
      </trkpt>
      <trkpt lat="43.5741" lon="1.33074">
        <ele>157.2</ele>
        <time>2025-10-18T10:30:52Z</time>
      </trkpt>
      <trkpt lat="43.57406" lon="1.33067">
        <ele>157</ele>
        <time>2025-10-18T10:30:53Z</time>
      </trkpt>
      <trkpt lat="43.57403" lon="1.3306">
        <ele>157</ele>
        <time>2025-10-18T10:30:54Z</time>
      </trkpt>
      <trkpt lat="43.574" lon="1.33054">
        <ele>157</ele>
        <time>2025-10-18T10:30:55Z</time>
      </trkpt>
      <trkpt lat="43.57397" lon="1.33047">
        <ele>157</ele>
        <time>2025-10-18T10:30:56Z</time>
      </trkpt>
      <trkpt lat="43.57395" lon="1.3304">
        <ele>157</ele>
        <time>2025-10-18T10:30:57Z</time>
      </trkpt>
      <trkpt lat="43.57394" lon="1.33033">
        <ele>157</ele>
        <time>2025-10-18T10:30:58Z</time>
      </trkpt>
      <trkpt lat="43.57393" lon="1.33027">
        <ele>157</ele>
        <time>2025-10-18T10:30:59Z</time>
      </trkpt>
      <trkpt lat="43.57393" lon="1.33022">
        <ele>157.4</ele>
        <time>2025-10-18T10:31:00Z</time>
      </trkpt>
      <trkpt lat="43.57393" lon="1.33017">
        <ele>157.6</ele>
        <time>2025-10-18T10:31:01Z</time>
      </trkpt>
      <trkpt lat="43.57396" lon="1.33012">
        <ele>158</ele>
        <time>2025-10-18T10:31:02Z</time>
      </trkpt>
      <trkpt lat="43.57399" lon="1.33009">
        <ele>158.4</ele>
        <time>2025-10-18T10:31:03Z</time>
      </trkpt>
      <trkpt lat="43.57403" lon="1.33005">
        <ele>158.4</ele>
        <time>2025-10-18T10:31:04Z</time>
      </trkpt>
      <trkpt lat="43.57407" lon="1.33">
        <ele>158.6</ele>
        <time>2025-10-18T10:31:05Z</time>
      </trkpt>
      <trkpt lat="43.57411" lon="1.32996">
        <ele>158.6</ele>
        <time>2025-10-18T10:31:06Z</time>
      </trkpt>
      <trkpt lat="43.57415" lon="1.32991">
        <ele>158.4</ele>
        <time>2025-10-18T10:31:07Z</time>
      </trkpt>
      <trkpt lat="43.57419" lon="1.32985">
        <ele>158.4</ele>
        <time>2025-10-18T10:31:08Z</time>
      </trkpt>
      <trkpt lat="43.57424" lon="1.32979">
        <ele>158.2</ele>
        <time>2025-10-18T10:31:09Z</time>
      </trkpt>
      <trkpt lat="43.57428" lon="1.32973">
        <ele>158.2</ele>
        <time>2025-10-18T10:31:10Z</time>
      </trkpt>
      <trkpt lat="43.57432" lon="1.32967">
        <ele>158</ele>
        <time>2025-10-18T10:31:11Z</time>
      </trkpt>
      <trkpt lat="43.57437" lon="1.32961">
        <ele>157.8</ele>
        <time>2025-10-18T10:31:12Z</time>
      </trkpt>
      <trkpt lat="43.57441" lon="1.32955">
        <ele>157.6</ele>
        <time>2025-10-18T10:31:13Z</time>
      </trkpt>
      <trkpt lat="43.57446" lon="1.3295">
        <ele>157.4</ele>
        <time>2025-10-18T10:31:14Z</time>
      </trkpt>
      <trkpt lat="43.57451" lon="1.32944">
        <ele>157.2</ele>
        <time>2025-10-18T10:31:15Z</time>
      </trkpt>
      <trkpt lat="43.57456" lon="1.32939">
        <ele>157</ele>
        <time>2025-10-18T10:31:16Z</time>
      </trkpt>
      <trkpt lat="43.57461" lon="1.32933">
        <ele>156.8</ele>
        <time>2025-10-18T10:31:17Z</time>
      </trkpt>
      <trkpt lat="43.57466" lon="1.32928">
        <ele>156.6</ele>
        <time>2025-10-18T10:31:18Z</time>
      </trkpt>
      <trkpt lat="43.57472" lon="1.32924">
        <ele>156.6</ele>
        <time>2025-10-18T10:31:19Z</time>
      </trkpt>
      <trkpt lat="43.57477" lon="1.32919">
        <ele>156.4</ele>
        <time>2025-10-18T10:31:20Z</time>
      </trkpt>
      <trkpt lat="43.57482" lon="1.32915">
        <ele>156.4</ele>
        <time>2025-10-18T10:31:21Z</time>
      </trkpt>
      <trkpt lat="43.57487" lon="1.3291">
        <ele>156.6</ele>
        <time>2025-10-18T10:31:22Z</time>
      </trkpt>
      <trkpt lat="43.57492" lon="1.32905">
        <ele>156.6</ele>
        <time>2025-10-18T10:31:23Z</time>
      </trkpt>
      <trkpt lat="43.57497" lon="1.32901">
        <ele>156.6</ele>
        <time>2025-10-18T10:31:24Z</time>
      </trkpt>
      <trkpt lat="43.57502" lon="1.32896">
        <ele>156.6</ele>
        <time>2025-10-18T10:31:25Z</time>
      </trkpt>
      <trkpt lat="43.57507" lon="1.32891">
        <ele>156.6</ele>
        <time>2025-10-18T10:31:26Z</time>
      </trkpt>
      <trkpt lat="43.57512" lon="1.32887">
        <ele>156.6</ele>
        <time>2025-10-18T10:31:27Z</time>
      </trkpt>
      <trkpt lat="43.57517" lon="1.32882">
        <ele>156.8</ele>
        <time>2025-10-18T10:31:28Z</time>
      </trkpt>
      <trkpt lat="43.57522" lon="1.32879">
        <ele>156.8</ele>
        <time>2025-10-18T10:31:29Z</time>
      </trkpt>
      <trkpt lat="43.57527" lon="1.32878">
        <ele>156.8</ele>
        <time>2025-10-18T10:31:30Z</time>
      </trkpt>
      <trkpt lat="43.57532" lon="1.3288">
        <ele>156.8</ele>
        <time>2025-10-18T10:31:31Z</time>
      </trkpt>
      <trkpt lat="43.57535" lon="1.32884">
        <ele>156.8</ele>
        <time>2025-10-18T10:31:32Z</time>
      </trkpt>
      <trkpt lat="43.5754" lon="1.32886">
        <ele>156.8</ele>
        <time>2025-10-18T10:31:33Z</time>
      </trkpt>
      <trkpt lat="43.57544" lon="1.32884">
        <ele>156.8</ele>
        <time>2025-10-18T10:31:34Z</time>
      </trkpt>
      <trkpt lat="43.57547" lon="1.32879">
        <ele>156.8</ele>
        <time>2025-10-18T10:31:35Z</time>
      </trkpt>
      <trkpt lat="43.57547" lon="1.32873">
        <ele>157</ele>
        <time>2025-10-18T10:31:36Z</time>
      </trkpt>
      <trkpt lat="43.57547" lon="1.32867">
        <ele>157</ele>
        <time>2025-10-18T10:31:37Z</time>
      </trkpt>
      <trkpt lat="43.57549" lon="1.32862">
        <ele>157</ele>
        <time>2025-10-18T10:31:38Z</time>
      </trkpt>
      <trkpt lat="43.57553" lon="1.32857">
        <ele>157.2</ele>
        <time>2025-10-18T10:31:39Z</time>
      </trkpt>
      <trkpt lat="43.57557" lon="1.32854">
        <ele>157.2</ele>
        <time>2025-10-18T10:31:40Z</time>
      </trkpt>
      <trkpt lat="43.57562" lon="1.3285">
        <ele>157.2</ele>
        <time>2025-10-18T10:31:41Z</time>
      </trkpt>
      <trkpt lat="43.57567" lon="1.32846">
        <ele>157.2</ele>
        <time>2025-10-18T10:31:42Z</time>
      </trkpt>
      <trkpt lat="43.57572" lon="1.32842">
        <ele>157.2</ele>
        <time>2025-10-18T10:31:43Z</time>
      </trkpt>
      <trkpt lat="43.57577" lon="1.32838">
        <ele>157.2</ele>
        <time>2025-10-18T10:31:44Z</time>
      </trkpt>
      <trkpt lat="43.57583" lon="1.32835">
        <ele>157</ele>
        <time>2025-10-18T10:31:45Z</time>
      </trkpt>
      <trkpt lat="43.57588" lon="1.32831">
        <ele>157</ele>
        <time>2025-10-18T10:31:46Z</time>
      </trkpt>
      <trkpt lat="43.57593" lon="1.32827">
        <ele>157.2</ele>
        <time>2025-10-18T10:31:47Z</time>
      </trkpt>
      <trkpt lat="43.57598" lon="1.32824">
        <ele>157.2</ele>
        <time>2025-10-18T10:31:48Z</time>
      </trkpt>
      <trkpt lat="43.57604" lon="1.3282">
        <ele>157.2</ele>
        <time>2025-10-18T10:31:49Z</time>
      </trkpt>
      <trkpt lat="43.57609" lon="1.32817">
        <ele>157.2</ele>
        <time>2025-10-18T10:31:50Z</time>
      </trkpt>
      <trkpt lat="43.57614" lon="1.32814">
        <ele>157.2</ele>
        <time>2025-10-18T10:31:51Z</time>
      </trkpt>
      <trkpt lat="43.5762" lon="1.32809">
        <ele>157.4</ele>
        <time>2025-10-18T10:31:52Z</time>
      </trkpt>
      <trkpt lat="43.57625" lon="1.32806">
        <ele>157.4</ele>
        <time>2025-10-18T10:31:53Z</time>
      </trkpt>
      <trkpt lat="43.57631" lon="1.32802">
        <ele>157.4</ele>
        <time>2025-10-18T10:31:54Z</time>
      </trkpt>
      <trkpt lat="43.57636" lon="1.32798">
        <ele>157.6</ele>
        <time>2025-10-18T10:31:55Z</time>
      </trkpt>
      <trkpt lat="43.57641" lon="1.32794">
        <ele>157.6</ele>
        <time>2025-10-18T10:31:56Z</time>
      </trkpt>
      <trkpt lat="43.57646" lon="1.3279">
        <ele>157.8</ele>
        <time>2025-10-18T10:31:57Z</time>
      </trkpt>
      <trkpt lat="43.57651" lon="1.32786">
        <ele>157.8</ele>
        <time>2025-10-18T10:31:58Z</time>
      </trkpt>
      <trkpt lat="43.57657" lon="1.32781">
        <ele>158</ele>
        <time>2025-10-18T10:31:59Z</time>
      </trkpt>
      <trkpt lat="43.57662" lon="1.32778">
        <ele>158</ele>
        <time>2025-10-18T10:32:00Z</time>
      </trkpt>
      <trkpt lat="43.57668" lon="1.32775">
        <ele>158.2</ele>
        <time>2025-10-18T10:32:01Z</time>
      </trkpt>
      <trkpt lat="43.57674" lon="1.32774">
        <ele>158.2</ele>
        <time>2025-10-18T10:32:02Z</time>
      </trkpt>
      <trkpt lat="43.57678" lon="1.32777">
        <ele>158.2</ele>
        <time>2025-10-18T10:32:03Z</time>
      </trkpt>
      <trkpt lat="43.57682" lon="1.3278">
        <ele>158.4</ele>
        <time>2025-10-18T10:32:04Z</time>
      </trkpt>
      <trkpt lat="43.57685" lon="1.32784">
        <ele>158.4</ele>
        <time>2025-10-18T10:32:05Z</time>
      </trkpt>
      <trkpt lat="43.5769" lon="1.32785">
        <ele>158.6</ele>
        <time>2025-10-18T10:32:06Z</time>
      </trkpt>
      <trkpt lat="43.57693" lon="1.32783">
        <ele>158.6</ele>
        <time>2025-10-18T10:32:07Z</time>
      </trkpt>
      <trkpt lat="43.57696" lon="1.32779">
        <ele>158.8</ele>
        <time>2025-10-18T10:32:08Z</time>
      </trkpt>
      <trkpt lat="43.57697" lon="1.32775">
        <ele>159</ele>
        <time>2025-10-18T10:32:09Z</time>
      </trkpt>
      <trkpt lat="43.57699" lon="1.32771">
        <ele>159.2</ele>
        <time>2025-10-18T10:32:10Z</time>
      </trkpt>
      <trkpt lat="43.57703" lon="1.32766">
        <ele>159.4</ele>
        <time>2025-10-18T10:32:11Z</time>
      </trkpt>
      <trkpt lat="43.57707" lon="1.32764">
        <ele>159.4</ele>
        <time>2025-10-18T10:32:12Z</time>
      </trkpt>
      <trkpt lat="43.57712" lon="1.32763">
        <ele>159.4</ele>
        <time>2025-10-18T10:32:13Z</time>
      </trkpt>
      <trkpt lat="43.57717" lon="1.32762">
        <ele>159.6</ele>
        <time>2025-10-18T10:32:14Z</time>
      </trkpt>
      <trkpt lat="43.57722" lon="1.32762">
        <ele>159.6</ele>
        <time>2025-10-18T10:32:15Z</time>
      </trkpt>
      <trkpt lat="43.57728" lon="1.32762">
        <ele>159.6</ele>
        <time>2025-10-18T10:32:16Z</time>
      </trkpt>
      <trkpt lat="43.57733" lon="1.32762">
        <ele>159.4</ele>
        <time>2025-10-18T10:32:17Z</time>
      </trkpt>
      <trkpt lat="43.57738" lon="1.32762">
        <ele>159.4</ele>
        <time>2025-10-18T10:32:18Z</time>
      </trkpt>
      <trkpt lat="43.57743" lon="1.32762">
        <ele>159.4</ele>
        <time>2025-10-18T10:32:19Z</time>
      </trkpt>
      <trkpt lat="43.57749" lon="1.32762">
        <ele>159.6</ele>
        <time>2025-10-18T10:32:20Z</time>
      </trkpt>
      <trkpt lat="43.57754" lon="1.32761">
        <ele>159.6</ele>
        <time>2025-10-18T10:32:21Z</time>
      </trkpt>
      <trkpt lat="43.57759" lon="1.3276">
        <ele>159.6</ele>
        <time>2025-10-18T10:32:22Z</time>
      </trkpt>
      <trkpt lat="43.57764" lon="1.32761">
        <ele>159.8</ele>
        <time>2025-10-18T10:32:23Z</time>
      </trkpt>
      <trkpt lat="43.57769" lon="1.32763">
        <ele>159.8</ele>
        <time>2025-10-18T10:32:24Z</time>
      </trkpt>
      <trkpt lat="43.57773" lon="1.32766">
        <ele>159.8</ele>
        <time>2025-10-18T10:32:25Z</time>
      </trkpt>
      <trkpt lat="43.57777" lon="1.32769">
        <ele>159.8</ele>
        <time>2025-10-18T10:32:26Z</time>
      </trkpt>
      <trkpt lat="43.5778" lon="1.32773">
        <ele>159.8</ele>
        <time>2025-10-18T10:32:27Z</time>
      </trkpt>
      <trkpt lat="43.57783" lon="1.32778">
        <ele>159.8</ele>
        <time>2025-10-18T10:32:28Z</time>
      </trkpt>
      <trkpt lat="43.57785" lon="1.32782">
        <ele>159.8</ele>
        <time>2025-10-18T10:32:29Z</time>
      </trkpt>
      <trkpt lat="43.57787" lon="1.32785">
        <ele>159.8</ele>
        <time>2025-10-18T10:32:30Z</time>
      </trkpt>
      <trkpt lat="43.57789" lon="1.32785">
        <ele>160</ele>
        <time>2025-10-18T10:32:31Z</time>
      </trkpt>
      <trkpt lat="43.57791" lon="1.32784">
        <ele>160.2</ele>
        <time>2025-10-18T10:32:32Z</time>
      </trkpt>
      <trkpt lat="43.57793" lon="1.32784">
        <ele>160.4</ele>
        <time>2025-10-18T10:32:33Z</time>
      </trkpt>
      <trkpt lat="43.57795" lon="1.32783">
        <ele>160.4</ele>
        <time>2025-10-18T10:32:34Z</time>
      </trkpt>
      <trkpt lat="43.57796" lon="1.32779">
        <ele>160.4</ele>
        <time>2025-10-18T10:32:35Z</time>
      </trkpt>
      <trkpt lat="43.57794" lon="1.32776">
        <ele>160.4</ele>
        <time>2025-10-18T10:32:36Z</time>
      </trkpt>
      <trkpt lat="43.57793" lon="1.32772">
        <ele>160.4</ele>
        <time>2025-10-18T10:32:37Z</time>
      </trkpt>
      <trkpt lat="43.57791" lon="1.32769">
        <ele>160.4</ele>
        <time>2025-10-18T10:32:38Z</time>
      </trkpt>
      <trkpt lat="43.5779" lon="1.32767">
        <ele>160.4</ele>
        <time>2025-10-18T10:32:39Z</time>
      </trkpt>
      <trkpt lat="43.57789" lon="1.32764">
        <ele>160.4</ele>
        <time>2025-10-18T10:32:40Z</time>
      </trkpt>
      <trkpt lat="43.5779" lon="1.32762">
        <ele>160.4</ele>
        <time>2025-10-18T10:32:41Z</time>
      </trkpt>
      <trkpt lat="43.5779" lon="1.3276">
        <ele>160.6</ele>
        <time>2025-10-18T10:32:42Z</time>
      </trkpt>
      <trkpt lat="43.57792" lon="1.32758">
        <ele>160.6</ele>
        <time>2025-10-18T10:32:43Z</time>
      </trkpt>
      <trkpt lat="43.57794" lon="1.32756">
        <ele>160.6</ele>
        <time>2025-10-18T10:32:44Z</time>
      </trkpt>
      <trkpt lat="43.57794" lon="1.32751">
        <ele>160.6</ele>
        <time>2025-10-18T10:32:45Z</time>
      </trkpt>
      <trkpt lat="43.57794" lon="1.32746">
        <ele>160.4</ele>
        <time>2025-10-18T10:32:46Z</time>
      </trkpt>
      <trkpt lat="43.57794" lon="1.32741">
        <ele>160.4</ele>
        <time>2025-10-18T10:32:47Z</time>
      </trkpt>
      <trkpt lat="43.57794" lon="1.32736">
        <ele>160.4</ele>
        <time>2025-10-18T10:32:48Z</time>
      </trkpt>
      <trkpt lat="43.57796" lon="1.3273">
        <ele>160.2</ele>
        <time>2025-10-18T10:32:49Z</time>
      </trkpt>
      <trkpt lat="43.57799" lon="1.32724">
        <ele>160.2</ele>
        <time>2025-10-18T10:32:50Z</time>
      </trkpt>
      <trkpt lat="43.57802" lon="1.32719">
        <ele>160</ele>
        <time>2025-10-18T10:32:51Z</time>
      </trkpt>
      <trkpt lat="43.57806" lon="1.32713">
        <ele>159.8</ele>
        <time>2025-10-18T10:32:52Z</time>
      </trkpt>
      <trkpt lat="43.5781" lon="1.32709">
        <ele>159.6</ele>
        <time>2025-10-18T10:32:53Z</time>
      </trkpt>
      <trkpt lat="43.57814" lon="1.32704">
        <ele>159.6</ele>
        <time>2025-10-18T10:32:54Z</time>
      </trkpt>
      <trkpt lat="43.57818" lon="1.32698">
        <ele>159.4</ele>
        <time>2025-10-18T10:32:55Z</time>
      </trkpt>
      <trkpt lat="43.57821" lon="1.32693">
        <ele>159.4</ele>
        <time>2025-10-18T10:32:56Z</time>
      </trkpt>
      <trkpt lat="43.57825" lon="1.32688">
        <ele>159.6</ele>
        <time>2025-10-18T10:32:57Z</time>
      </trkpt>
      <trkpt lat="43.57829" lon="1.32683">
        <ele>159.6</ele>
        <time>2025-10-18T10:32:58Z</time>
      </trkpt>
      <trkpt lat="43.57832" lon="1.32678">
        <ele>159.6</ele>
        <time>2025-10-18T10:32:59Z</time>
      </trkpt>
      <trkpt lat="43.57837" lon="1.32672">
        <ele>159.6</ele>
        <time>2025-10-18T10:33:00Z</time>
      </trkpt>
      <trkpt lat="43.57841" lon="1.32667">
        <ele>159.8</ele>
        <time>2025-10-18T10:33:01Z</time>
      </trkpt>
      <trkpt lat="43.57844" lon="1.32662">
        <ele>159.8</ele>
        <time>2025-10-18T10:33:02Z</time>
      </trkpt>
      <trkpt lat="43.57848" lon="1.32657">
        <ele>159.8</ele>
        <time>2025-10-18T10:33:03Z</time>
      </trkpt>
      <trkpt lat="43.57852" lon="1.32652">
        <ele>160</ele>
        <time>2025-10-18T10:33:04Z</time>
      </trkpt>
      <trkpt lat="43.57856" lon="1.32647">
        <ele>160.2</ele>
        <time>2025-10-18T10:33:05Z</time>
      </trkpt>
      <trkpt lat="43.57859" lon="1.32643">
        <ele>160.4</ele>
        <time>2025-10-18T10:33:06Z</time>
      </trkpt>
      <trkpt lat="43.57863" lon="1.32639">
        <ele>160.4</ele>
        <time>2025-10-18T10:33:07Z</time>
      </trkpt>
      <trkpt lat="43.57867" lon="1.32635">
        <ele>160.6</ele>
        <time>2025-10-18T10:33:08Z</time>
      </trkpt>
      <trkpt lat="43.57871" lon="1.32631">
        <ele>160.8</ele>
        <time>2025-10-18T10:33:09Z</time>
      </trkpt>
      <trkpt lat="43.57875" lon="1.32626">
        <ele>160.8</ele>
        <time>2025-10-18T10:33:10Z</time>
      </trkpt>
      <trkpt lat="43.57878" lon="1.32621">
        <ele>160.8</ele>
        <time>2025-10-18T10:33:11Z</time>
      </trkpt>
      <trkpt lat="43.57882" lon="1.32616">
        <ele>160.8</ele>
        <time>2025-10-18T10:33:12Z</time>
      </trkpt>
      <trkpt lat="43.57886" lon="1.3261">
        <ele>160.8</ele>
        <time>2025-10-18T10:33:13Z</time>
      </trkpt>
      <trkpt lat="43.57889" lon="1.32605">
        <ele>160.8</ele>
        <time>2025-10-18T10:33:14Z</time>
      </trkpt>
      <trkpt lat="43.57893" lon="1.326">
        <ele>160.8</ele>
        <time>2025-10-18T10:33:15Z</time>
      </trkpt>
      <trkpt lat="43.57897" lon="1.32598">
        <ele>160.8</ele>
        <time>2025-10-18T10:33:16Z</time>
      </trkpt>
      <trkpt lat="43.579" lon="1.32599">
        <ele>161</ele>
        <time>2025-10-18T10:33:17Z</time>
      </trkpt>
      <trkpt lat="43.57903" lon="1.32603">
        <ele>161</ele>
        <time>2025-10-18T10:33:18Z</time>
      </trkpt>
      <trkpt lat="43.57905" lon="1.32607">
        <ele>161</ele>
        <time>2025-10-18T10:33:19Z</time>
      </trkpt>
      <trkpt lat="43.57908" lon="1.32608">
        <ele>161</ele>
        <time>2025-10-18T10:33:20Z</time>
      </trkpt>
      <trkpt lat="43.57912" lon="1.32606">
        <ele>161</ele>
        <time>2025-10-18T10:33:21Z</time>
      </trkpt>
      <trkpt lat="43.57917" lon="1.32607">
        <ele>160.8</ele>
        <time>2025-10-18T10:33:22Z</time>
      </trkpt>
      <trkpt lat="43.5792" lon="1.32611">
        <ele>160.8</ele>
        <time>2025-10-18T10:33:23Z</time>
      </trkpt>
      <trkpt lat="43.57922" lon="1.32616">
        <ele>160.8</ele>
        <time>2025-10-18T10:33:24Z</time>
      </trkpt>
      <trkpt lat="43.57923" lon="1.32621">
        <ele>160.6</ele>
        <time>2025-10-18T10:33:25Z</time>
      </trkpt>
      <trkpt lat="43.57925" lon="1.32627">
        <ele>160.6</ele>
        <time>2025-10-18T10:33:26Z</time>
      </trkpt>
      <trkpt lat="43.57927" lon="1.32633">
        <ele>160.4</ele>
        <time>2025-10-18T10:33:27Z</time>
      </trkpt>
      <trkpt lat="43.5793" lon="1.32638">
        <ele>160.4</ele>
        <time>2025-10-18T10:33:28Z</time>
      </trkpt>
      <trkpt lat="43.57932" lon="1.32645">
        <ele>160.2</ele>
        <time>2025-10-18T10:33:29Z</time>
      </trkpt>
      <trkpt lat="43.57934" lon="1.32651">
        <ele>160.4</ele>
        <time>2025-10-18T10:33:30Z</time>
      </trkpt>
      <trkpt lat="43.57936" lon="1.32658">
        <ele>160.4</ele>
        <time>2025-10-18T10:33:31Z</time>
      </trkpt>
      <trkpt lat="43.57939" lon="1.32664">
        <ele>160.2</ele>
        <time>2025-10-18T10:33:32Z</time>
      </trkpt>
      <trkpt lat="43.57944" lon="1.32666">
        <ele>160.4</ele>
        <time>2025-10-18T10:33:33Z</time>
      </trkpt>
      <trkpt lat="43.57949" lon="1.32665">
        <ele>160.4</ele>
        <time>2025-10-18T10:33:34Z</time>
      </trkpt>
      <trkpt lat="43.57954" lon="1.32663">
        <ele>160.6</ele>
        <time>2025-10-18T10:33:35Z</time>
      </trkpt>
      <trkpt lat="43.57958" lon="1.32661">
        <ele>160.8</ele>
        <time>2025-10-18T10:33:36Z</time>
      </trkpt>
      <trkpt lat="43.57963" lon="1.32658">
        <ele>160.8</ele>
        <time>2025-10-18T10:33:37Z</time>
      </trkpt>
      <trkpt lat="43.57967" lon="1.32654">
        <ele>160.8</ele>
        <time>2025-10-18T10:33:38Z</time>
      </trkpt>
      <trkpt lat="43.57972" lon="1.3265">
        <ele>160.8</ele>
        <time>2025-10-18T10:33:39Z</time>
      </trkpt>
      <trkpt lat="43.57976" lon="1.32644">
        <ele>160.8</ele>
        <time>2025-10-18T10:33:40Z</time>
      </trkpt>
      <trkpt lat="43.57981" lon="1.32639">
        <ele>160.6</ele>
        <time>2025-10-18T10:33:41Z</time>
      </trkpt>
      <trkpt lat="43.57986" lon="1.32634">
        <ele>160.6</ele>
        <time>2025-10-18T10:33:42Z</time>
      </trkpt>
      <trkpt lat="43.57991" lon="1.32629">
        <ele>160.6</ele>
        <time>2025-10-18T10:33:43Z</time>
      </trkpt>
      <trkpt lat="43.57996" lon="1.32624">
        <ele>160.4</ele>
        <time>2025-10-18T10:33:44Z</time>
      </trkpt>
      <trkpt lat="43.58001" lon="1.3262">
        <ele>160.4</ele>
        <time>2025-10-18T10:33:45Z</time>
      </trkpt>
      <trkpt lat="43.58007" lon="1.32616">
        <ele>160.4</ele>
        <time>2025-10-18T10:33:46Z</time>
      </trkpt>
      <trkpt lat="43.58012" lon="1.32612">
        <ele>160.4</ele>
        <time>2025-10-18T10:33:47Z</time>
      </trkpt>
      <trkpt lat="43.58017" lon="1.32608">
        <ele>160.4</ele>
        <time>2025-10-18T10:33:48Z</time>
      </trkpt>
      <trkpt lat="43.58023" lon="1.32604">
        <ele>160.6</ele>
        <time>2025-10-18T10:33:49Z</time>
      </trkpt>
      <trkpt lat="43.58027" lon="1.32599">
        <ele>160.8</ele>
        <time>2025-10-18T10:33:50Z</time>
      </trkpt>
      <trkpt lat="43.58031" lon="1.32593">
        <ele>161</ele>
        <time>2025-10-18T10:33:51Z</time>
      </trkpt>
      <trkpt lat="43.58035" lon="1.32588">
        <ele>161.2</ele>
        <time>2025-10-18T10:33:52Z</time>
      </trkpt>
      <trkpt lat="43.58039" lon="1.32582">
        <ele>161.4</ele>
        <time>2025-10-18T10:33:53Z</time>
      </trkpt>
      <trkpt lat="43.58043" lon="1.32576">
        <ele>161.6</ele>
        <time>2025-10-18T10:33:54Z</time>
      </trkpt>
      <trkpt lat="43.58047" lon="1.32569">
        <ele>161.8</ele>
        <time>2025-10-18T10:33:55Z</time>
      </trkpt>
      <trkpt lat="43.58051" lon="1.32563">
        <ele>161.8</ele>
        <time>2025-10-18T10:33:56Z</time>
      </trkpt>
      <trkpt lat="43.58055" lon="1.32556">
        <ele>162</ele>
        <time>2025-10-18T10:33:57Z</time>
      </trkpt>
      <trkpt lat="43.58059" lon="1.32549">
        <ele>162</ele>
        <time>2025-10-18T10:33:58Z</time>
      </trkpt>
      <trkpt lat="43.58064" lon="1.32543">
        <ele>162</ele>
        <time>2025-10-18T10:33:59Z</time>
      </trkpt>
      <trkpt lat="43.58068" lon="1.32536">
        <ele>162</ele>
        <time>2025-10-18T10:34:00Z</time>
      </trkpt>
      <trkpt lat="43.58074" lon="1.32531">
        <ele>161.8</ele>
        <time>2025-10-18T10:34:01Z</time>
      </trkpt>
      <trkpt lat="43.5808" lon="1.32528">
        <ele>161.8</ele>
        <time>2025-10-18T10:34:02Z</time>
      </trkpt>
      <trkpt lat="43.58086" lon="1.32527">
        <ele>161.8</ele>
        <time>2025-10-18T10:34:03Z</time>
      </trkpt>
      <trkpt lat="43.58092" lon="1.32528">
        <ele>161.8</ele>
        <time>2025-10-18T10:34:04Z</time>
      </trkpt>
      <trkpt lat="43.58097" lon="1.32532">
        <ele>161.6</ele>
        <time>2025-10-18T10:34:05Z</time>
      </trkpt>
      <trkpt lat="43.58103" lon="1.32535">
        <ele>161.6</ele>
        <time>2025-10-18T10:34:06Z</time>
      </trkpt>
      <trkpt lat="43.58109" lon="1.32536">
        <ele>161.4</ele>
        <time>2025-10-18T10:34:07Z</time>
      </trkpt>
      <trkpt lat="43.58116" lon="1.32535">
        <ele>161.4</ele>
        <time>2025-10-18T10:34:08Z</time>
      </trkpt>
      <trkpt lat="43.58121" lon="1.32532">
        <ele>161.4</ele>
        <time>2025-10-18T10:34:09Z</time>
      </trkpt>
      <trkpt lat="43.58126" lon="1.32526">
        <ele>161.4</ele>
        <time>2025-10-18T10:34:10Z</time>
      </trkpt>
      <trkpt lat="43.5813" lon="1.32519">
        <ele>161.4</ele>
        <time>2025-10-18T10:34:11Z</time>
      </trkpt>
      <trkpt lat="43.58134" lon="1.32513">
        <ele>161.4</ele>
        <time>2025-10-18T10:34:12Z</time>
      </trkpt>
      <trkpt lat="43.58139" lon="1.32506">
        <ele>161.4</ele>
        <time>2025-10-18T10:34:13Z</time>
      </trkpt>
      <trkpt lat="43.58144" lon="1.325">
        <ele>161.4</ele>
        <time>2025-10-18T10:34:14Z</time>
      </trkpt>
      <trkpt lat="43.5815" lon="1.32495">
        <ele>161.2</ele>
        <time>2025-10-18T10:34:15Z</time>
      </trkpt>
      <trkpt lat="43.58155" lon="1.32489">
        <ele>161.2</ele>
        <time>2025-10-18T10:34:16Z</time>
      </trkpt>
      <trkpt lat="43.58161" lon="1.32483">
        <ele>161</ele>
        <time>2025-10-18T10:34:17Z</time>
      </trkpt>
      <trkpt lat="43.58167" lon="1.32478">
        <ele>161</ele>
        <time>2025-10-18T10:34:18Z</time>
      </trkpt>
      <trkpt lat="43.58172" lon="1.32473">
        <ele>161</ele>
        <time>2025-10-18T10:34:19Z</time>
      </trkpt>
      <trkpt lat="43.58177" lon="1.32467">
        <ele>161</ele>
        <time>2025-10-18T10:34:20Z</time>
      </trkpt>
      <trkpt lat="43.58183" lon="1.32462">
        <ele>161</ele>
        <time>2025-10-18T10:34:21Z</time>
      </trkpt>
      <trkpt lat="43.58188" lon="1.32457">
        <ele>161.2</ele>
        <time>2025-10-18T10:34:22Z</time>
      </trkpt>
      <trkpt lat="43.58194" lon="1.32453">
        <ele>161.2</ele>
        <time>2025-10-18T10:34:23Z</time>
      </trkpt>
      <trkpt lat="43.58201" lon="1.3245">
        <ele>161.2</ele>
        <time>2025-10-18T10:34:24Z</time>
      </trkpt>
      <trkpt lat="43.58207" lon="1.32448">
        <ele>161.2</ele>
        <time>2025-10-18T10:34:25Z</time>
      </trkpt>
      <trkpt lat="43.58213" lon="1.32446">
        <ele>161.2</ele>
        <time>2025-10-18T10:34:26Z</time>
      </trkpt>
      <trkpt lat="43.58219" lon="1.32446">
        <ele>161.2</ele>
        <time>2025-10-18T10:34:27Z</time>
      </trkpt>
      <trkpt lat="43.58224" lon="1.32445">
        <ele>161.2</ele>
        <time>2025-10-18T10:34:28Z</time>
      </trkpt>
      <trkpt lat="43.58229" lon="1.32445">
        <ele>161.4</ele>
        <time>2025-10-18T10:34:29Z</time>
      </trkpt>
      <trkpt lat="43.58233" lon="1.32446">
        <ele>161.6</ele>
        <time>2025-10-18T10:34:30Z</time>
      </trkpt>
      <trkpt lat="43.58237" lon="1.32446">
        <ele>161.8</ele>
        <time>2025-10-18T10:34:31Z</time>
      </trkpt>
      <trkpt lat="43.58241" lon="1.32448">
        <ele>161.8</ele>
        <time>2025-10-18T10:34:32Z</time>
      </trkpt>
      <trkpt lat="43.58245" lon="1.32451">
        <ele>162</ele>
        <time>2025-10-18T10:34:33Z</time>
      </trkpt>
      <trkpt lat="43.5825" lon="1.32452">
        <ele>162</ele>
        <time>2025-10-18T10:34:34Z</time>
      </trkpt>
      <trkpt lat="43.58255" lon="1.32452">
        <ele>162</ele>
        <time>2025-10-18T10:34:35Z</time>
      </trkpt>
      <trkpt lat="43.58259" lon="1.32453">
        <ele>161.8</ele>
        <time>2025-10-18T10:34:36Z</time>
      </trkpt>
      <trkpt lat="43.58264" lon="1.32455">
        <ele>161.8</ele>
        <time>2025-10-18T10:34:37Z</time>
      </trkpt>
      <trkpt lat="43.5827" lon="1.32456">
        <ele>161.8</ele>
        <time>2025-10-18T10:34:38Z</time>
      </trkpt>
      <trkpt lat="43.58275" lon="1.32457">
        <ele>161.8</ele>
        <time>2025-10-18T10:34:39Z</time>
      </trkpt>
      <trkpt lat="43.5828" lon="1.32458">
        <ele>161.8</ele>
        <time>2025-10-18T10:34:40Z</time>
      </trkpt>
      <trkpt lat="43.58285" lon="1.32459">
        <ele>161.8</ele>
        <time>2025-10-18T10:34:41Z</time>
      </trkpt>
      <trkpt lat="43.58291" lon="1.32461">
        <ele>162</ele>
        <time>2025-10-18T10:34:42Z</time>
      </trkpt>
      <trkpt lat="43.58296" lon="1.32462">
        <ele>162</ele>
        <time>2025-10-18T10:34:43Z</time>
      </trkpt>
      <trkpt lat="43.58302" lon="1.32463">
        <ele>162.2</ele>
        <time>2025-10-18T10:34:44Z</time>
      </trkpt>
      <trkpt lat="43.58307" lon="1.32465">
        <ele>162.4</ele>
        <time>2025-10-18T10:34:45Z</time>
      </trkpt>
      <trkpt lat="43.58312" lon="1.32466">
        <ele>162.6</ele>
        <time>2025-10-18T10:34:46Z</time>
      </trkpt>
      <trkpt lat="43.58317" lon="1.32467">
        <ele>162.6</ele>
        <time>2025-10-18T10:34:47Z</time>
      </trkpt>
      <trkpt lat="43.58322" lon="1.32466">
        <ele>162.6</ele>
        <time>2025-10-18T10:34:48Z</time>
      </trkpt>
      <trkpt lat="43.58325" lon="1.32463">
        <ele>162.8</ele>
        <time>2025-10-18T10:34:49Z</time>
      </trkpt>
      <trkpt lat="43.58326" lon="1.32459">
        <ele>162.8</ele>
        <time>2025-10-18T10:34:50Z</time>
      </trkpt>
      <trkpt lat="43.58328" lon="1.32455">
        <ele>163</ele>
        <time>2025-10-18T10:34:51Z</time>
      </trkpt>
      <trkpt lat="43.58331" lon="1.32452">
        <ele>163</ele>
        <time>2025-10-18T10:34:52Z</time>
      </trkpt>
      <trkpt lat="43.58333" lon="1.32447">
        <ele>163</ele>
        <time>2025-10-18T10:34:53Z</time>
      </trkpt>
      <trkpt lat="43.58336" lon="1.32445">
        <ele>163</ele>
        <time>2025-10-18T10:34:54Z</time>
      </trkpt>
      <trkpt lat="43.5834" lon="1.32446">
        <ele>163</ele>
        <time>2025-10-18T10:34:55Z</time>
      </trkpt>
      <trkpt lat="43.58342" lon="1.3245">
        <ele>163</ele>
        <time>2025-10-18T10:34:56Z</time>
      </trkpt>
      <trkpt lat="43.58345" lon="1.32452">
        <ele>163</ele>
        <time>2025-10-18T10:34:57Z</time>
      </trkpt>
      <trkpt lat="43.58349" lon="1.32454">
        <ele>163</ele>
        <time>2025-10-18T10:34:58Z</time>
      </trkpt>
      <trkpt lat="43.58351" lon="1.32457">
        <ele>163</ele>
        <time>2025-10-18T10:34:59Z</time>
      </trkpt>
      <trkpt lat="43.58353" lon="1.32462">
        <ele>163</ele>
        <time>2025-10-18T10:35:00Z</time>
      </trkpt>
      <trkpt lat="43.58352" lon="1.32467">
        <ele>162.8</ele>
        <time>2025-10-18T10:35:01Z</time>
      </trkpt>
      <trkpt lat="43.58353" lon="1.32472">
        <ele>162.8</ele>
        <time>2025-10-18T10:35:02Z</time>
      </trkpt>
      <trkpt lat="43.58356" lon="1.32474">
        <ele>162.8</ele>
        <time>2025-10-18T10:35:03Z</time>
      </trkpt>
      <trkpt lat="43.5836" lon="1.32476">
        <ele>163</ele>
        <time>2025-10-18T10:35:04Z</time>
      </trkpt>
      <trkpt lat="43.58364" lon="1.32476">
        <ele>163</ele>
        <time>2025-10-18T10:35:05Z</time>
      </trkpt>
      <trkpt lat="43.58368" lon="1.32477">
        <ele>163.2</ele>
        <time>2025-10-18T10:35:06Z</time>
      </trkpt>
      <trkpt lat="43.58372" lon="1.32478">
        <ele>163.4</ele>
        <time>2025-10-18T10:35:07Z</time>
      </trkpt>
      <trkpt lat="43.58377" lon="1.32479">
        <ele>163.4</ele>
        <time>2025-10-18T10:35:08Z</time>
      </trkpt>
      <trkpt lat="43.58381" lon="1.32481">
        <ele>163.4</ele>
        <time>2025-10-18T10:35:09Z</time>
      </trkpt>
      <trkpt lat="43.58386" lon="1.32481">
        <ele>163.4</ele>
        <time>2025-10-18T10:35:10Z</time>
      </trkpt>
      <trkpt lat="43.58391" lon="1.32482">
        <ele>163.6</ele>
        <time>2025-10-18T10:35:11Z</time>
      </trkpt>
      <trkpt lat="43.58396" lon="1.32483">
        <ele>163.6</ele>
        <time>2025-10-18T10:35:12Z</time>
      </trkpt>
      <trkpt lat="43.58401" lon="1.32485">
        <ele>163.6</ele>
        <time>2025-10-18T10:35:13Z</time>
      </trkpt>
      <trkpt lat="43.58406" lon="1.32486">
        <ele>163.6</ele>
        <time>2025-10-18T10:35:14Z</time>
      </trkpt>
      <trkpt lat="43.58411" lon="1.32487">
        <ele>163.8</ele>
        <time>2025-10-18T10:35:15Z</time>
      </trkpt>
      <trkpt lat="43.58417" lon="1.32488">
        <ele>164</ele>
        <time>2025-10-18T10:35:16Z</time>
      </trkpt>
      <trkpt lat="43.58421" lon="1.32489">
        <ele>164</ele>
        <time>2025-10-18T10:35:17Z</time>
      </trkpt>
      <trkpt lat="43.58426" lon="1.3249">
        <ele>164.2</ele>
        <time>2025-10-18T10:35:18Z</time>
      </trkpt>
      <trkpt lat="43.58431" lon="1.32491">
        <ele>164.4</ele>
        <time>2025-10-18T10:35:19Z</time>
      </trkpt>
      <trkpt lat="43.58436" lon="1.32493">
        <ele>164.4</ele>
        <time>2025-10-18T10:35:20Z</time>
      </trkpt>
      <trkpt lat="43.5844" lon="1.32495">
        <ele>164.6</ele>
        <time>2025-10-18T10:35:21Z</time>
      </trkpt>
      <trkpt lat="43.58446" lon="1.32497">
        <ele>164.6</ele>
        <time>2025-10-18T10:35:22Z</time>
      </trkpt>
      <trkpt lat="43.58451" lon="1.32499">
        <ele>164.8</ele>
        <time>2025-10-18T10:35:23Z</time>
      </trkpt>
      <trkpt lat="43.58455" lon="1.325">
        <ele>164.8</ele>
        <time>2025-10-18T10:35:24Z</time>
      </trkpt>
      <trkpt lat="43.58459" lon="1.32504">
        <ele>165</ele>
        <time>2025-10-18T10:35:25Z</time>
      </trkpt>
      <trkpt lat="43.58463" lon="1.32508">
        <ele>165.2</ele>
        <time>2025-10-18T10:35:26Z</time>
      </trkpt>
      <trkpt lat="43.58468" lon="1.32511">
        <ele>165.2</ele>
        <time>2025-10-18T10:35:27Z</time>
      </trkpt>
      <trkpt lat="43.58473" lon="1.32513">
        <ele>165.4</ele>
        <time>2025-10-18T10:35:28Z</time>
      </trkpt>
      <trkpt lat="43.58478" lon="1.32514">
        <ele>165.4</ele>
        <time>2025-10-18T10:35:29Z</time>
      </trkpt>
      <trkpt lat="43.58484" lon="1.32514">
        <ele>165.4</ele>
        <time>2025-10-18T10:35:30Z</time>
      </trkpt>
      <trkpt lat="43.58489" lon="1.32512">
        <ele>165.6</ele>
        <time>2025-10-18T10:35:31Z</time>
      </trkpt>
      <trkpt lat="43.58493" lon="1.32508">
        <ele>165.8</ele>
        <time>2025-10-18T10:35:32Z</time>
      </trkpt>
      <trkpt lat="43.58497" lon="1.32504">
        <ele>166</ele>
        <time>2025-10-18T10:35:33Z</time>
      </trkpt>
      <trkpt lat="43.58501" lon="1.32499">
        <ele>166.2</ele>
        <time>2025-10-18T10:35:34Z</time>
      </trkpt>
      <trkpt lat="43.58504" lon="1.32494">
        <ele>166.6</ele>
        <time>2025-10-18T10:35:35Z</time>
      </trkpt>
      <trkpt lat="43.58508" lon="1.32489">
        <ele>167</ele>
        <time>2025-10-18T10:35:36Z</time>
      </trkpt>
      <trkpt lat="43.58511" lon="1.32484">
        <ele>167.2</ele>
        <time>2025-10-18T10:35:37Z</time>
      </trkpt>
      <trkpt lat="43.58514" lon="1.3248">
        <ele>167.4</ele>
        <time>2025-10-18T10:35:38Z</time>
      </trkpt>
      <trkpt lat="43.58518" lon="1.32476">
        <ele>167.8</ele>
        <time>2025-10-18T10:35:39Z</time>
      </trkpt>
      <trkpt lat="43.58521" lon="1.32471">
        <ele>168</ele>
        <time>2025-10-18T10:35:40Z</time>
      </trkpt>
      <trkpt lat="43.58524" lon="1.32467">
        <ele>168.2</ele>
        <time>2025-10-18T10:35:41Z</time>
      </trkpt>
      <trkpt lat="43.58527" lon="1.32462">
        <ele>168.6</ele>
        <time>2025-10-18T10:35:42Z</time>
      </trkpt>
      <trkpt lat="43.58531" lon="1.32458">
        <ele>168.8</ele>
        <time>2025-10-18T10:35:43Z</time>
      </trkpt>
      <trkpt lat="43.58534" lon="1.32453">
        <ele>169</ele>
        <time>2025-10-18T10:35:44Z</time>
      </trkpt>
      <trkpt lat="43.58538" lon="1.32449">
        <ele>169.2</ele>
        <time>2025-10-18T10:35:45Z</time>
      </trkpt>
      <trkpt lat="43.58541" lon="1.32445">
        <ele>169.4</ele>
        <time>2025-10-18T10:35:46Z</time>
      </trkpt>
      <trkpt lat="43.58545" lon="1.32441">
        <ele>169.8</ele>
        <time>2025-10-18T10:35:47Z</time>
      </trkpt>
      <trkpt lat="43.58548" lon="1.32437">
        <ele>170</ele>
        <time>2025-10-18T10:35:48Z</time>
      </trkpt>
      <trkpt lat="43.58552" lon="1.32433">
        <ele>170.2</ele>
        <time>2025-10-18T10:35:49Z</time>
      </trkpt>
      <trkpt lat="43.58556" lon="1.32429">
        <ele>170.4</ele>
        <time>2025-10-18T10:35:50Z</time>
      </trkpt>
      <trkpt lat="43.58559" lon="1.32424">
        <ele>170.6</ele>
        <time>2025-10-18T10:35:51Z</time>
      </trkpt>
      <trkpt lat="43.58562" lon="1.3242">
        <ele>170.8</ele>
        <time>2025-10-18T10:35:52Z</time>
      </trkpt>
      <trkpt lat="43.58565" lon="1.32416">
        <ele>171</ele>
        <time>2025-10-18T10:35:53Z</time>
      </trkpt>
      <trkpt lat="43.58568" lon="1.32412">
        <ele>171.2</ele>
        <time>2025-10-18T10:35:54Z</time>
      </trkpt>
      <trkpt lat="43.58571" lon="1.32408">
        <ele>171.4</ele>
        <time>2025-10-18T10:35:55Z</time>
      </trkpt>
      <trkpt lat="43.58574" lon="1.32404">
        <ele>171.8</ele>
        <time>2025-10-18T10:35:56Z</time>
      </trkpt>
      <trkpt lat="43.58577" lon="1.32401">
        <ele>171.8</ele>
        <time>2025-10-18T10:35:57Z</time>
      </trkpt>
      <trkpt lat="43.58581" lon="1.32397">
        <ele>172.2</ele>
        <time>2025-10-18T10:35:58Z</time>
      </trkpt>
      <trkpt lat="43.58584" lon="1.32393">
        <ele>172.4</ele>
        <time>2025-10-18T10:35:59Z</time>
      </trkpt>
      <trkpt lat="43.58587" lon="1.3239">
        <ele>172.6</ele>
        <time>2025-10-18T10:36:00Z</time>
      </trkpt>
      <trkpt lat="43.5859" lon="1.32386">
        <ele>172.8</ele>
        <time>2025-10-18T10:36:01Z</time>
      </trkpt>
      <trkpt lat="43.58593" lon="1.32383">
        <ele>173</ele>
        <time>2025-10-18T10:36:02Z</time>
      </trkpt>
      <trkpt lat="43.58596" lon="1.3238">
        <ele>173.2</ele>
        <time>2025-10-18T10:36:03Z</time>
      </trkpt>
      <trkpt lat="43.58599" lon="1.32376">
        <ele>173.4</ele>
        <time>2025-10-18T10:36:04Z</time>
      </trkpt>
      <trkpt lat="43.58602" lon="1.32373">
        <ele>173.8</ele>
        <time>2025-10-18T10:36:05Z</time>
      </trkpt>
      <trkpt lat="43.58605" lon="1.32369">
        <ele>174</ele>
        <time>2025-10-18T10:36:06Z</time>
      </trkpt>
      <trkpt lat="43.58608" lon="1.32366">
        <ele>174.2</ele>
        <time>2025-10-18T10:36:07Z</time>
      </trkpt>
      <trkpt lat="43.58611" lon="1.32362">
        <ele>174.4</ele>
        <time>2025-10-18T10:36:08Z</time>
      </trkpt>
      <trkpt lat="43.58614" lon="1.32359">
        <ele>174.6</ele>
        <time>2025-10-18T10:36:09Z</time>
      </trkpt>
      <trkpt lat="43.58617" lon="1.32355">
        <ele>174.8</ele>
        <time>2025-10-18T10:36:10Z</time>
      </trkpt>
      <trkpt lat="43.5862" lon="1.32353">
        <ele>175</ele>
        <time>2025-10-18T10:36:11Z</time>
      </trkpt>
      <trkpt lat="43.58623" lon="1.32349">
        <ele>175.2</ele>
        <time>2025-10-18T10:36:12Z</time>
      </trkpt>
      <trkpt lat="43.58627" lon="1.32346">
        <ele>175.4</ele>
        <time>2025-10-18T10:36:13Z</time>
      </trkpt>
      <trkpt lat="43.5863" lon="1.32343">
        <ele>175.6</ele>
        <time>2025-10-18T10:36:14Z</time>
      </trkpt>
      <trkpt lat="43.58633" lon="1.32339">
        <ele>176</ele>
        <time>2025-10-18T10:36:15Z</time>
      </trkpt>
      <trkpt lat="43.58637" lon="1.32335">
        <ele>176.4</ele>
        <time>2025-10-18T10:36:16Z</time>
      </trkpt>
      <trkpt lat="43.5864" lon="1.32332">
        <ele>176.6</ele>
        <time>2025-10-18T10:36:17Z</time>
      </trkpt>
      <trkpt lat="43.58643" lon="1.32329">
        <ele>177</ele>
        <time>2025-10-18T10:36:18Z</time>
      </trkpt>
      <trkpt lat="43.58646" lon="1.32326">
        <ele>177.2</ele>
        <time>2025-10-18T10:36:19Z</time>
      </trkpt>
      <trkpt lat="43.58649" lon="1.32322">
        <ele>177.4</ele>
        <time>2025-10-18T10:36:20Z</time>
      </trkpt>
      <trkpt lat="43.58652" lon="1.32319">
        <ele>177.8</ele>
        <time>2025-10-18T10:36:21Z</time>
      </trkpt>
      <trkpt lat="43.58654" lon="1.32316">
        <ele>178.2</ele>
        <time>2025-10-18T10:36:22Z</time>
      </trkpt>
      <trkpt lat="43.58656" lon="1.32313">
        <ele>178.4</ele>
        <time>2025-10-18T10:36:23Z</time>
      </trkpt>
      <trkpt lat="43.58659" lon="1.32311">
        <ele>178.8</ele>
        <time>2025-10-18T10:36:24Z</time>
      </trkpt>
      <trkpt lat="43.58661" lon="1.32308">
        <ele>179</ele>
        <time>2025-10-18T10:36:25Z</time>
      </trkpt>
      <trkpt lat="43.58664" lon="1.32306">
        <ele>179.4</ele>
        <time>2025-10-18T10:36:26Z</time>
      </trkpt>
      <trkpt lat="43.58667" lon="1.32302">
        <ele>179.6</ele>
        <time>2025-10-18T10:36:27Z</time>
      </trkpt>
      <trkpt lat="43.58669" lon="1.32299">
        <ele>180.2</ele>
        <time>2025-10-18T10:36:28Z</time>
      </trkpt>
      <trkpt lat="43.58671" lon="1.32296">
        <ele>180.4</ele>
        <time>2025-10-18T10:36:29Z</time>
      </trkpt>
      <trkpt lat="43.58674" lon="1.32292">
        <ele>180.8</ele>
        <time>2025-10-18T10:36:30Z</time>
      </trkpt>
      <trkpt lat="43.58678" lon="1.3229">
        <ele>181.2</ele>
        <time>2025-10-18T10:36:31Z</time>
      </trkpt>
      <trkpt lat="43.58681" lon="1.32288">
        <ele>181.4</ele>
        <time>2025-10-18T10:36:32Z</time>
      </trkpt>
      <trkpt lat="43.58684" lon="1.32285">
        <ele>181.8</ele>
        <time>2025-10-18T10:36:33Z</time>
      </trkpt>
      <trkpt lat="43.58687" lon="1.32282">
        <ele>182</ele>
        <time>2025-10-18T10:36:34Z</time>
      </trkpt>
      <trkpt lat="43.58689" lon="1.32279">
        <ele>182.4</ele>
        <time>2025-10-18T10:36:35Z</time>
      </trkpt>
      <trkpt lat="43.58692" lon="1.32276">
        <ele>182.6</ele>
        <time>2025-10-18T10:36:36Z</time>
      </trkpt>
      <trkpt lat="43.58695" lon="1.32273">
        <ele>182.8</ele>
        <time>2025-10-18T10:36:37Z</time>
      </trkpt>
      <trkpt lat="43.58698" lon="1.3227">
        <ele>183.2</ele>
        <time>2025-10-18T10:36:38Z</time>
      </trkpt>
      <trkpt lat="43.58701" lon="1.32267">
        <ele>183.4</ele>
        <time>2025-10-18T10:36:39Z</time>
      </trkpt>
      <trkpt lat="43.58704" lon="1.32263">
        <ele>183.6</ele>
        <time>2025-10-18T10:36:40Z</time>
      </trkpt>
      <trkpt lat="43.58707" lon="1.3226">
        <ele>183.8</ele>
        <time>2025-10-18T10:36:41Z</time>
      </trkpt>
      <trkpt lat="43.5871" lon="1.32257">
        <ele>184</ele>
        <time>2025-10-18T10:36:42Z</time>
      </trkpt>
      <trkpt lat="43.58714" lon="1.32253">
        <ele>184.2</ele>
        <time>2025-10-18T10:36:43Z</time>
      </trkpt>
      <trkpt lat="43.58717" lon="1.32251">
        <ele>184.2</ele>
        <time>2025-10-18T10:36:44Z</time>
      </trkpt>
      <trkpt lat="43.58721" lon="1.32247">
        <ele>184.4</ele>
        <time>2025-10-18T10:36:45Z</time>
      </trkpt>
      <trkpt lat="43.58724" lon="1.32244">
        <ele>184.4</ele>
        <time>2025-10-18T10:36:46Z</time>
      </trkpt>
      <trkpt lat="43.58728" lon="1.3224">
        <ele>184.6</ele>
        <time>2025-10-18T10:36:47Z</time>
      </trkpt>
      <trkpt lat="43.58732" lon="1.32236">
        <ele>184.6</ele>
        <time>2025-10-18T10:36:48Z</time>
      </trkpt>
      <trkpt lat="43.58736" lon="1.32233">
        <ele>184.6</ele>
        <time>2025-10-18T10:36:49Z</time>
      </trkpt>
      <trkpt lat="43.58739" lon="1.32229">
        <ele>184.8</ele>
        <time>2025-10-18T10:36:50Z</time>
      </trkpt>
      <trkpt lat="43.58743" lon="1.32225">
        <ele>184.8</ele>
        <time>2025-10-18T10:36:51Z</time>
      </trkpt>
      <trkpt lat="43.58747" lon="1.32221">
        <ele>184.8</ele>
        <time>2025-10-18T10:36:52Z</time>
      </trkpt>
      <trkpt lat="43.58751" lon="1.32216">
        <ele>184.8</ele>
        <time>2025-10-18T10:36:53Z</time>
      </trkpt>
      <trkpt lat="43.58755" lon="1.32212">
        <ele>184.8</ele>
        <time>2025-10-18T10:36:54Z</time>
      </trkpt>
      <trkpt lat="43.58759" lon="1.32207">
        <ele>184.8</ele>
        <time>2025-10-18T10:36:55Z</time>
      </trkpt>
      <trkpt lat="43.58764" lon="1.32203">
        <ele>184.8</ele>
        <time>2025-10-18T10:36:56Z</time>
      </trkpt>
      <trkpt lat="43.58768" lon="1.32199">
        <ele>184.8</ele>
        <time>2025-10-18T10:36:57Z</time>
      </trkpt>
      <trkpt lat="43.58772" lon="1.32195">
        <ele>184.8</ele>
        <time>2025-10-18T10:36:58Z</time>
      </trkpt>
      <trkpt lat="43.58776" lon="1.32191">
        <ele>185</ele>
        <time>2025-10-18T10:36:59Z</time>
      </trkpt>
      <trkpt lat="43.5878" lon="1.32187">
        <ele>185</ele>
        <time>2025-10-18T10:37:00Z</time>
      </trkpt>
      <trkpt lat="43.58785" lon="1.32182">
        <ele>185</ele>
        <time>2025-10-18T10:37:01Z</time>
      </trkpt>
      <trkpt lat="43.58789" lon="1.32177">
        <ele>185</ele>
        <time>2025-10-18T10:37:02Z</time>
      </trkpt>
      <trkpt lat="43.58794" lon="1.32173">
        <ele>185</ele>
        <time>2025-10-18T10:37:03Z</time>
      </trkpt>
      <trkpt lat="43.58798" lon="1.32169">
        <ele>185.2</ele>
        <time>2025-10-18T10:37:04Z</time>
      </trkpt>
      <trkpt lat="43.58802" lon="1.32166">
        <ele>185.2</ele>
        <time>2025-10-18T10:37:05Z</time>
      </trkpt>
      <trkpt lat="43.58805" lon="1.32161">
        <ele>185.2</ele>
        <time>2025-10-18T10:37:06Z</time>
      </trkpt>
      <trkpt lat="43.58807" lon="1.32157">
        <ele>185.2</ele>
        <time>2025-10-18T10:37:07Z</time>
      </trkpt>
      <trkpt lat="43.58808" lon="1.32153">
        <ele>185.4</ele>
        <time>2025-10-18T10:37:08Z</time>
      </trkpt>
      <trkpt lat="43.58809" lon="1.3215">
        <ele>185.6</ele>
        <time>2025-10-18T10:37:09Z</time>
      </trkpt>
      <trkpt lat="43.5881" lon="1.32147">
        <ele>185.6</ele>
        <time>2025-10-18T10:37:10Z</time>
      </trkpt>
      <trkpt lat="43.58811" lon="1.32142">
        <ele>185.8</ele>
        <time>2025-10-18T10:37:11Z</time>
      </trkpt>
      <trkpt lat="43.58811" lon="1.32137">
        <ele>185.8</ele>
        <time>2025-10-18T10:37:12Z</time>
      </trkpt>
      <trkpt lat="43.58809" lon="1.32132">
        <ele>185.8</ele>
        <time>2025-10-18T10:37:13Z</time>
      </trkpt>
      <trkpt lat="43.58806" lon="1.32128">
        <ele>185.6</ele>
        <time>2025-10-18T10:37:14Z</time>
      </trkpt>
      <trkpt lat="43.58804" lon="1.32123">
        <ele>185.6</ele>
        <time>2025-10-18T10:37:15Z</time>
      </trkpt>
      <trkpt lat="43.58801" lon="1.32118">
        <ele>185.6</ele>
        <time>2025-10-18T10:37:16Z</time>
      </trkpt>
      <trkpt lat="43.58798" lon="1.32113">
        <ele>185.4</ele>
        <time>2025-10-18T10:37:17Z</time>
      </trkpt>
      <trkpt lat="43.58795" lon="1.32107">
        <ele>185.2</ele>
        <time>2025-10-18T10:37:18Z</time>
      </trkpt>
      <trkpt lat="43.58791" lon="1.32102">
        <ele>185.2</ele>
        <time>2025-10-18T10:37:19Z</time>
      </trkpt>
      <trkpt lat="43.58788" lon="1.32097">
        <ele>184.8</ele>
        <time>2025-10-18T10:37:20Z</time>
      </trkpt>
      <trkpt lat="43.58785" lon="1.32091">
        <ele>184.8</ele>
        <time>2025-10-18T10:37:21Z</time>
      </trkpt>
      <trkpt lat="43.58781" lon="1.32086">
        <ele>184.8</ele>
        <time>2025-10-18T10:37:22Z</time>
      </trkpt>
      <trkpt lat="43.58778" lon="1.32081">
        <ele>184.8</ele>
        <time>2025-10-18T10:37:23Z</time>
      </trkpt>
      <trkpt lat="43.58774" lon="1.32075">
        <ele>184.6</ele>
        <time>2025-10-18T10:37:24Z</time>
      </trkpt>
      <trkpt lat="43.58771" lon="1.32071">
        <ele>184.6</ele>
        <time>2025-10-18T10:37:25Z</time>
      </trkpt>
      <trkpt lat="43.58768" lon="1.32066">
        <ele>184.6</ele>
        <time>2025-10-18T10:37:26Z</time>
      </trkpt>
      <trkpt lat="43.58764" lon="1.32061">
        <ele>184.4</ele>
        <time>2025-10-18T10:37:27Z</time>
      </trkpt>
      <trkpt lat="43.58761" lon="1.32057">
        <ele>184.4</ele>
        <time>2025-10-18T10:37:28Z</time>
      </trkpt>
      <trkpt lat="43.58759" lon="1.32053">
        <ele>184.4</ele>
        <time>2025-10-18T10:37:29Z</time>
      </trkpt>
      <trkpt lat="43.58757" lon="1.3205">
        <ele>184.4</ele>
        <time>2025-10-18T10:37:30Z</time>
      </trkpt>
      <trkpt lat="43.58755" lon="1.32047">
        <ele>184.4</ele>
        <time>2025-10-18T10:37:31Z</time>
      </trkpt>
      <trkpt lat="43.58753" lon="1.32044">
        <ele>184.6</ele>
        <time>2025-10-18T10:37:32Z</time>
      </trkpt>
      <trkpt lat="43.5875" lon="1.32042">
        <ele>184.6</ele>
        <time>2025-10-18T10:37:33Z</time>
      </trkpt>
      <trkpt lat="43.58747" lon="1.32039">
        <ele>184.6</ele>
        <time>2025-10-18T10:37:34Z</time>
      </trkpt>
      <trkpt lat="43.58744" lon="1.32036">
        <ele>184.6</ele>
        <time>2025-10-18T10:37:35Z</time>
      </trkpt>
      <trkpt lat="43.5874" lon="1.32033">
        <ele>184.4</ele>
        <time>2025-10-18T10:37:36Z</time>
      </trkpt>
      <trkpt lat="43.58737" lon="1.32028">
        <ele>184.4</ele>
        <time>2025-10-18T10:37:37Z</time>
      </trkpt>
      <trkpt lat="43.58733" lon="1.32023">
        <ele>184.4</ele>
        <time>2025-10-18T10:37:38Z</time>
      </trkpt>
      <trkpt lat="43.58729" lon="1.32019">
        <ele>184.2</ele>
        <time>2025-10-18T10:37:39Z</time>
      </trkpt>
      <trkpt lat="43.58725" lon="1.32014">
        <ele>184</ele>
        <time>2025-10-18T10:37:40Z</time>
      </trkpt>
      <trkpt lat="43.58721" lon="1.32008">
        <ele>183.8</ele>
        <time>2025-10-18T10:37:41Z</time>
      </trkpt>
      <trkpt lat="43.58717" lon="1.32003">
        <ele>183.6</ele>
        <time>2025-10-18T10:37:42Z</time>
      </trkpt>
      <trkpt lat="43.58713" lon="1.31998">
        <ele>183.4</ele>
        <time>2025-10-18T10:37:43Z</time>
      </trkpt>
      <trkpt lat="43.58709" lon="1.31992">
        <ele>183.4</ele>
        <time>2025-10-18T10:37:44Z</time>
      </trkpt>
      <trkpt lat="43.58705" lon="1.31987">
        <ele>183.2</ele>
        <time>2025-10-18T10:37:45Z</time>
      </trkpt>
      <trkpt lat="43.587" lon="1.31981">
        <ele>183.2</ele>
        <time>2025-10-18T10:37:46Z</time>
      </trkpt>
      <trkpt lat="43.58696" lon="1.31976">
        <ele>183.2</ele>
        <time>2025-10-18T10:37:47Z</time>
      </trkpt>
      <trkpt lat="43.58695" lon="1.31968">
        <ele>183.2</ele>
        <time>2025-10-18T10:37:48Z</time>
      </trkpt>
      <trkpt lat="43.58693" lon="1.31961">
        <ele>183.2</ele>
        <time>2025-10-18T10:37:49Z</time>
      </trkpt>
      <trkpt lat="43.5869" lon="1.31954">
        <ele>183.2</ele>
        <time>2025-10-18T10:37:50Z</time>
      </trkpt>
      <trkpt lat="43.58685" lon="1.31951">
        <ele>183.2</ele>
        <time>2025-10-18T10:37:51Z</time>
      </trkpt>
      <trkpt lat="43.58683" lon="1.31946">
        <ele>183.2</ele>
        <time>2025-10-18T10:37:52Z</time>
      </trkpt>
      <trkpt lat="43.58681" lon="1.31943">
        <ele>183.4</ele>
        <time>2025-10-18T10:37:53Z</time>
      </trkpt>
      <trkpt lat="43.58677" lon="1.31942">
        <ele>183.4</ele>
        <time>2025-10-18T10:37:54Z</time>
      </trkpt>
      <trkpt lat="43.58673" lon="1.31943">
        <ele>183.6</ele>
        <time>2025-10-18T10:37:55Z</time>
      </trkpt>
      <trkpt lat="43.58669" lon="1.31944">
        <ele>183.8</ele>
        <time>2025-10-18T10:37:56Z</time>
      </trkpt>
      <trkpt lat="43.58667" lon="1.31948">
        <ele>183.8</ele>
        <time>2025-10-18T10:37:57Z</time>
      </trkpt>
      <trkpt lat="43.58665" lon="1.31953">
        <ele>183.8</ele>
        <time>2025-10-18T10:37:58Z</time>
      </trkpt>
      <trkpt lat="43.58664" lon="1.31958">
        <ele>183.8</ele>
        <time>2025-10-18T10:37:59Z</time>
      </trkpt>
      <trkpt lat="43.58667" lon="1.31962">
        <ele>184</ele>
        <time>2025-10-18T10:38:00Z</time>
      </trkpt>
      <trkpt lat="43.58669" lon="1.31967">
        <ele>184</ele>
        <time>2025-10-18T10:38:01Z</time>
      </trkpt>
      <trkpt lat="43.58671" lon="1.31972">
        <ele>184.2</ele>
        <time>2025-10-18T10:38:02Z</time>
      </trkpt>
      <trkpt lat="43.58674" lon="1.31977">
        <ele>184.2</ele>
        <time>2025-10-18T10:38:03Z</time>
      </trkpt>
      <trkpt lat="43.58678" lon="1.31981">
        <ele>184.2</ele>
        <time>2025-10-18T10:38:04Z</time>
      </trkpt>
      <trkpt lat="43.58681" lon="1.31986">
        <ele>184.2</ele>
        <time>2025-10-18T10:38:05Z</time>
      </trkpt>
      <trkpt lat="43.58683" lon="1.31993">
        <ele>184.2</ele>
        <time>2025-10-18T10:38:06Z</time>
      </trkpt>
      <trkpt lat="43.58684" lon="1.32">
        <ele>184</ele>
        <time>2025-10-18T10:38:07Z</time>
      </trkpt>
      <trkpt lat="43.58685" lon="1.32008">
        <ele>183.8</ele>
        <time>2025-10-18T10:38:08Z</time>
      </trkpt>
      <trkpt lat="43.58686" lon="1.32016">
        <ele>183.6</ele>
        <time>2025-10-18T10:38:09Z</time>
      </trkpt>
      <trkpt lat="43.58686" lon="1.32023">
        <ele>183.6</ele>
        <time>2025-10-18T10:38:10Z</time>
      </trkpt>
      <trkpt lat="43.58687" lon="1.32031">
        <ele>183.4</ele>
        <time>2025-10-18T10:38:11Z</time>
      </trkpt>
      <trkpt lat="43.58687" lon="1.32038">
        <ele>183</ele>
        <time>2025-10-18T10:38:12Z</time>
      </trkpt>
      <trkpt lat="43.58688" lon="1.32046">
        <ele>182.8</ele>
        <time>2025-10-18T10:38:13Z</time>
      </trkpt>
      <trkpt lat="43.58688" lon="1.32054">
        <ele>182.6</ele>
        <time>2025-10-18T10:38:14Z</time>
      </trkpt>
      <trkpt lat="43.58688" lon="1.32062">
        <ele>182.4</ele>
        <time>2025-10-18T10:38:15Z</time>
      </trkpt>
      <trkpt lat="43.58688" lon="1.3207">
        <ele>182.4</ele>
        <time>2025-10-18T10:38:16Z</time>
      </trkpt>
      <trkpt lat="43.58688" lon="1.32078">
        <ele>182.2</ele>
        <time>2025-10-18T10:38:17Z</time>
      </trkpt>
      <trkpt lat="43.58687" lon="1.32085">
        <ele>182.2</ele>
        <time>2025-10-18T10:38:18Z</time>
      </trkpt>
      <trkpt lat="43.58687" lon="1.32094">
        <ele>182.4</ele>
        <time>2025-10-18T10:38:19Z</time>
      </trkpt>
      <trkpt lat="43.58686" lon="1.32102">
        <ele>182.6</ele>
        <time>2025-10-18T10:38:20Z</time>
      </trkpt>
      <trkpt lat="43.58686" lon="1.32109">
        <ele>182.8</ele>
        <time>2025-10-18T10:38:21Z</time>
      </trkpt>
      <trkpt lat="43.58686" lon="1.32117">
        <ele>183</ele>
        <time>2025-10-18T10:38:22Z</time>
      </trkpt>
      <trkpt lat="43.58685" lon="1.32124">
        <ele>183</ele>
        <time>2025-10-18T10:38:23Z</time>
      </trkpt>
      <trkpt lat="43.58685" lon="1.32132">
        <ele>183.2</ele>
        <time>2025-10-18T10:38:24Z</time>
      </trkpt>
      <trkpt lat="43.58685" lon="1.32139">
        <ele>183.4</ele>
        <time>2025-10-18T10:38:25Z</time>
      </trkpt>
      <trkpt lat="43.58685" lon="1.32146">
        <ele>183.6</ele>
        <time>2025-10-18T10:38:26Z</time>
      </trkpt>
      <trkpt lat="43.58684" lon="1.32154">
        <ele>183.6</ele>
        <time>2025-10-18T10:38:27Z</time>
      </trkpt>
      <trkpt lat="43.58684" lon="1.32162">
        <ele>183.6</ele>
        <time>2025-10-18T10:38:28Z</time>
      </trkpt>
      <trkpt lat="43.58683" lon="1.32169">
        <ele>183.6</ele>
        <time>2025-10-18T10:38:29Z</time>
      </trkpt>
      <trkpt lat="43.58682" lon="1.32177">
        <ele>183.6</ele>
        <time>2025-10-18T10:38:30Z</time>
      </trkpt>
      <trkpt lat="43.58682" lon="1.32185">
        <ele>183.6</ele>
        <time>2025-10-18T10:38:31Z</time>
      </trkpt>
      <trkpt lat="43.58681" lon="1.32192">
        <ele>183.6</ele>
        <time>2025-10-18T10:38:32Z</time>
      </trkpt>
      <trkpt lat="43.5868" lon="1.322">
        <ele>183.8</ele>
        <time>2025-10-18T10:38:33Z</time>
      </trkpt>
      <trkpt lat="43.5868" lon="1.32207">
        <ele>183.8</ele>
        <time>2025-10-18T10:38:34Z</time>
      </trkpt>
      <trkpt lat="43.58679" lon="1.32214">
        <ele>183.8</ele>
        <time>2025-10-18T10:38:35Z</time>
      </trkpt>
      <trkpt lat="43.58679" lon="1.3222">
        <ele>184</ele>
        <time>2025-10-18T10:38:36Z</time>
      </trkpt>
      <trkpt lat="43.58679" lon="1.32224">
        <ele>184</ele>
        <time>2025-10-18T10:38:37Z</time>
      </trkpt>
      <trkpt lat="43.58678" lon="1.32228">
        <ele>184.2</ele>
        <time>2025-10-18T10:38:38Z</time>
      </trkpt>
      <trkpt lat="43.58677" lon="1.32229">
        <ele>184.2</ele>
        <time>2025-10-18T10:38:39Z</time>
      </trkpt>
      <trkpt lat="43.58677" lon="1.32231">
        <ele>184.2</ele>
        <time>2025-10-18T10:38:40Z</time>
      </trkpt>
      <trkpt lat="43.58677" lon="1.32232">
        <ele>184.4</ele>
        <time>2025-10-18T10:38:41Z</time>
      </trkpt>
      <trkpt lat="43.58678" lon="1.32232">
        <ele>184.4</ele>
        <time>2025-10-18T10:38:42Z</time>
      </trkpt>
      <trkpt lat="43.58679" lon="1.32232">
        <ele>184.2</ele>
        <time>2025-10-18T10:38:43Z</time>
      </trkpt>
      <trkpt lat="43.5868" lon="1.32231">
        <ele>184.2</ele>
        <time>2025-10-18T10:38:44Z</time>
      </trkpt>
      <trkpt lat="43.58681" lon="1.32228">
        <ele>184.2</ele>
        <time>2025-10-18T10:38:45Z</time>
      </trkpt>
      <trkpt lat="43.58681" lon="1.32227">
        <ele>184.2</ele>
        <time>2025-10-18T10:38:46Z</time>
      </trkpt>
      <trkpt lat="43.58681" lon="1.32226">
        <ele>184.2</ele>
        <time>2025-10-18T10:38:47Z</time>
      </trkpt>
      <trkpt lat="43.58681" lon="1.32226">
        <ele>184.2</ele>
        <time>2025-10-18T10:38:48Z</time>
      </trkpt>
    </trkseg>
  </trk>
</gpx>